<?xml version="1.0" encoding="UTF-8" standalone="no" ?>
<gpx xmlns="http://www.topografix.com/GPX/1/1" xmlns:xsi="http://www.w3.org/2001/XMLSchema-instance" xsi:schemaLocation="http://www.topografix.com/GPX/1/1 http://www.topografix.com/GPX/1/1/gpx.xsd" version="1.1" creator="VisuGPX - https://www.visugpx.com">
  <metadata>
    <name>Clermont-Ferrand-Leguevin via GTMC</name>
  </metadata>
  <trk>
    <name><![CDATA[Clermont-Ferrand-Mons via GTMC partielle]]></name>
    <trkseg>
      <trkpt lat="45.77986" lon="3.10154">
        <ele>360.314948</ele>
        <time>2021-04-29T08:35:55.036Z</time>
      </trkpt>
      <trkpt lat="45.77972" lon="3.10127">
        <ele>360.314948</ele>
        <time>2021-04-29T08:36:01.025Z</time>
      </trkpt>
      <trkpt lat="45.77965" lon="3.10114">
        <ele>360.314948</ele>
        <time>2021-04-29T08:36:03.721Z</time>
      </trkpt>
      <trkpt lat="45.77948" lon="3.10077">
        <ele>360.314948</ele>
        <time>2021-04-29T08:36:11.825Z</time>
      </trkpt>
      <trkpt lat="45.77956" lon="3.10074">
        <ele>360.314948</ele>
        <time>2021-04-29T08:36:14.108Z</time>
      </trkpt>
      <trkpt lat="45.7805" lon="3.09999">
        <ele>360.691907</ele>
        <time>2021-04-29T08:36:41.732Z</time>
      </trkpt>
      <trkpt lat="45.78084" lon="3.0997">
        <ele>360.854542</ele>
        <time>2021-04-29T08:36:50.840Z</time>
      </trkpt>
      <trkpt lat="45.78093" lon="3.09963">
        <ele>360.897651</ele>
        <time>2021-04-29T08:36:53.178Z</time>
      </trkpt>
      <trkpt lat="45.78129" lon="3.09932">
        <ele>361.020366</ele>
        <time>2021-04-29T08:37:02.199Z</time>
      </trkpt>
      <trkpt lat="45.78132" lon="3.0993">
        <ele>361.000061</ele>
        <time>2021-04-29T08:37:02.705Z</time>
      </trkpt>
      <trkpt lat="45.78134" lon="3.09928">
        <ele>360.97803</ele>
        <time>2021-04-29T08:37:03.267Z</time>
      </trkpt>
      <trkpt lat="45.78182" lon="3.09886">
        <ele>360.508498</ele>
        <time>2021-04-29T08:37:15.117Z</time>
      </trkpt>
      <trkpt lat="45.7819" lon="3.0988">
        <ele>360.437484</ele>
        <time>2021-04-29T08:37:16.817Z</time>
      </trkpt>
      <trkpt lat="45.78202" lon="3.09868">
        <ele>360.311945</ele>
        <time>2021-04-29T08:37:19.863Z</time>
      </trkpt>
      <trkpt lat="45.78237" lon="3.09835">
        <ele>359.964344</ele>
        <time>2021-04-29T08:37:28.079Z</time>
      </trkpt>
      <trkpt lat="45.78323" lon="3.09753">
        <ele>358.74832</ele>
        <time>2021-04-29T08:37:46.714Z</time>
      </trkpt>
      <trkpt lat="45.78329" lon="3.09747">
        <ele>358.625025</ele>
        <time>2021-04-29T08:37:48.218Z</time>
      </trkpt>
      <trkpt lat="45.78371" lon="3.09833">
        <ele>357.524715</ele>
        <time>2021-04-29T08:38:01.692Z</time>
      </trkpt>
      <trkpt lat="45.78413" lon="3.09923">
        <ele>356.459149</ele>
        <time>2021-04-29T08:38:15.796Z</time>
      </trkpt>
      <trkpt lat="45.7843" lon="3.0996">
        <ele>356.070557</ele>
        <time>2021-04-29T08:38:21.396Z</time>
      </trkpt>
      <trkpt lat="45.78432" lon="3.09963">
        <ele>356.041507</ele>
        <time>2021-04-29T08:38:21.849Z</time>
      </trkpt>
      <trkpt lat="45.78438" lon="3.09976">
        <ele>355.89262</ele>
        <time>2021-04-29T08:38:24.030Z</time>
      </trkpt>
      <trkpt lat="45.78466" lon="3.10032">
        <ele>355.284</ele>
        <time>2021-04-29T08:38:32.929Z</time>
      </trkpt>
      <trkpt lat="45.78476" lon="3.10053">
        <ele>355.060309</ele>
        <time>2021-04-29T08:38:36.208Z</time>
      </trkpt>
      <trkpt lat="45.78485" lon="3.1007">
        <ele>354.875821</ele>
        <time>2021-04-29T08:38:39.044Z</time>
      </trkpt>
      <trkpt lat="45.7849" lon="3.10083">
        <ele>354.738154</ele>
        <time>2021-04-29T08:38:41.081Z</time>
      </trkpt>
      <trkpt lat="45.78497" lon="3.10094">
        <ele>354.614167</ele>
        <time>2021-04-29T08:38:43.002Z</time>
      </trkpt>
      <trkpt lat="45.78515" lon="3.10132">
        <ele>354.284365</ele>
        <time>2021-04-29T08:38:49.429Z</time>
      </trkpt>
      <trkpt lat="45.78544" lon="3.10189">
        <ele>353.795108</ele>
        <time>2021-04-29T08:38:59.120Z</time>
      </trkpt>
      <trkpt lat="45.78554" lon="3.1021">
        <ele>353.61528</ele>
        <time>2021-04-29T08:39:02.586Z</time>
      </trkpt>
      <trkpt lat="45.78557" lon="3.10215">
        <ele>353.571312</ele>
        <time>2021-04-29T08:39:03.433Z</time>
      </trkpt>
      <trkpt lat="45.78616" lon="3.10334">
        <ele>352.564579</ele>
        <time>2021-04-29T08:39:22.963Z</time>
      </trkpt>
      <trkpt lat="45.78658" lon="3.10418">
        <ele>351.89755</ele>
        <time>2021-04-29T08:39:37.030Z</time>
      </trkpt>
      <trkpt lat="45.78736" lon="3.10577">
        <ele>350.381958</ele>
        <time>2021-04-29T08:40:03.820Z</time>
      </trkpt>
      <trkpt lat="45.78742" lon="3.10588">
        <ele>350.249748</ele>
        <time>2021-04-29T08:40:05.383Z</time>
      </trkpt>
      <trkpt lat="45.78748" lon="3.10583">
        <ele>350.149835</ele>
        <time>2021-04-29T08:40:06.602Z</time>
      </trkpt>
      <trkpt lat="45.7875" lon="3.10581">
        <ele>350.11008</ele>
        <time>2021-04-29T08:40:07.123Z</time>
      </trkpt>
      <trkpt lat="45.78756" lon="3.10575">
        <ele>350.007488</ele>
        <time>2021-04-29T08:40:08.460Z</time>
      </trkpt>
      <trkpt lat="45.78758" lon="3.10573">
        <ele>349.966409</ele>
        <time>2021-04-29T08:40:09.040Z</time>
      </trkpt>
      <trkpt lat="45.78761" lon="3.1057">
        <ele>349.920895</ele>
        <time>2021-04-29T08:40:09.641Z</time>
      </trkpt>
      <trkpt lat="45.78793" lon="3.10539">
        <ele>349.378619</ele>
        <time>2021-04-29T08:40:16.623Z</time>
      </trkpt>
      <trkpt lat="45.78825" lon="3.10507">
        <ele>348.826628</ele>
        <time>2021-04-29T08:40:23.767Z</time>
      </trkpt>
      <trkpt lat="45.7883" lon="3.10502">
        <ele>348.737309</ele>
        <time>2021-04-29T08:40:24.873Z</time>
      </trkpt>
      <trkpt lat="45.78832" lon="3.105">
        <ele>348.701571</ele>
        <time>2021-04-29T08:40:25.262Z</time>
      </trkpt>
      <trkpt lat="45.78852" lon="3.1048">
        <ele>348.331683</ele>
        <time>2021-04-29T08:40:29.930Z</time>
      </trkpt>
      <trkpt lat="45.78865" lon="3.10469">
        <ele>348.102508</ele>
        <time>2021-04-29T08:40:32.447Z</time>
      </trkpt>
      <trkpt lat="45.78879" lon="3.10454">
        <ele>347.827093</ele>
        <time>2021-04-29T08:40:35.759Z</time>
      </trkpt>
      <trkpt lat="45.78907" lon="3.10425">
        <ele>347.296961</ele>
        <time>2021-04-29T08:40:41.917Z</time>
      </trkpt>
      <trkpt lat="45.78931" lon="3.10401">
        <ele>346.850269</ele>
        <time>2021-04-29T08:40:47.058Z</time>
      </trkpt>
      <trkpt lat="45.78936" lon="3.10396">
        <ele>346.757419</ele>
        <time>2021-04-29T08:40:48.176Z</time>
      </trkpt>
      <trkpt lat="45.7898" lon="3.10496">
        <ele>345.606694</ele>
        <time>2021-04-29T08:41:03.793Z</time>
      </trkpt>
      <trkpt lat="45.78983" lon="3.10502">
        <ele>345.562121</ele>
        <time>2021-04-29T08:41:04.741Z</time>
      </trkpt>
      <trkpt lat="45.7899" lon="3.10517">
        <ele>345.44894</ele>
        <time>2021-04-29T08:41:07.112Z</time>
      </trkpt>
      <trkpt lat="45.79004" lon="3.10548">
        <ele>345.219413</ele>
        <time>2021-04-29T08:41:12.108Z</time>
      </trkpt>
      <trkpt lat="45.79032" lon="3.10622">
        <ele>344.691392</ele>
        <time>2021-04-29T08:41:23.291Z</time>
      </trkpt>
      <trkpt lat="45.79035" lon="3.1063">
        <ele>344.636633</ele>
        <time>2021-04-29T08:41:24.561Z</time>
      </trkpt>
      <trkpt lat="45.7904" lon="3.10643">
        <ele>344.54232</ele>
        <time>2021-04-29T08:41:26.565Z</time>
      </trkpt>
      <trkpt lat="45.79043" lon="3.10655">
        <ele>344.461129</ele>
        <time>2021-04-29T08:41:28.357Z</time>
      </trkpt>
      <trkpt lat="45.79046" lon="3.10668">
        <ele>344.376528</ele>
        <time>2021-04-29T08:41:30.256Z</time>
      </trkpt>
      <trkpt lat="45.79051" lon="3.10695">
        <ele>344.203433</ele>
        <time>2021-04-29T08:41:34.323Z</time>
      </trkpt>
      <trkpt lat="45.79052" lon="3.107">
        <ele>344.170596</ele>
        <time>2021-04-29T08:41:35.048Z</time>
      </trkpt>
      <trkpt lat="45.79058" lon="3.10698">
        <ele>344.218982</ele>
        <time>2021-04-29T08:41:36.542Z</time>
      </trkpt>
      <trkpt lat="45.79113" lon="3.1068">
        <ele>344.687794</ele>
        <time>2021-04-29T08:41:48.828Z</time>
      </trkpt>
      <trkpt lat="45.7912" lon="3.10677">
        <ele>344.750476</ele>
        <time>2021-04-29T08:41:50.485Z</time>
      </trkpt>
      <trkpt lat="45.79185" lon="3.10653">
        <ele>345.313718</ele>
        <time>2021-04-29T08:42:07.779Z</time>
      </trkpt>
      <trkpt lat="45.79193" lon="3.1065">
        <ele>345.387558</ele>
        <time>2021-04-29T08:42:10.217Z</time>
      </trkpt>
      <trkpt lat="45.79225" lon="3.10638">
        <ele>345.661112</ele>
        <time>2021-04-29T08:42:20.557Z</time>
      </trkpt>
      <trkpt lat="45.79257" lon="3.10626">
        <ele>346.31078</ele>
        <time>2021-04-29T08:42:31.208Z</time>
      </trkpt>
      <trkpt lat="45.79273" lon="3.10619">
        <ele>346.653178</ele>
        <time>2021-04-29T08:42:36.394Z</time>
      </trkpt>
      <trkpt lat="45.79281" lon="3.1062">
        <ele>346.812801</ele>
        <time>2021-04-29T08:42:39.189Z</time>
      </trkpt>
      <trkpt lat="45.79312" lon="3.1065">
        <ele>347.575148</ele>
        <time>2021-04-29T08:42:51.208Z</time>
      </trkpt>
      <trkpt lat="45.79322" lon="3.10658">
        <ele>347.818573</ele>
        <time>2021-04-29T08:42:55.242Z</time>
      </trkpt>
      <trkpt lat="45.79371" lon="3.10679">
        <ele>348.860687</ele>
        <time>2021-04-29T08:43:10.658Z</time>
      </trkpt>
      <trkpt lat="45.79408" lon="3.10734">
        <ele>349.15918</ele>
        <time>2021-04-29T08:43:26.167Z</time>
      </trkpt>
      <trkpt lat="45.79452" lon="3.10849">
        <ele>348.559825</ele>
        <time>2021-04-29T08:43:45.219Z</time>
      </trkpt>
      <trkpt lat="45.79494" lon="3.10962">
        <ele>347.336529</ele>
        <time>2021-04-29T08:44:00.459Z</time>
      </trkpt>
      <trkpt lat="45.79502" lon="3.10977">
        <ele>346.969921</ele>
        <time>2021-04-29T08:44:02.704Z</time>
      </trkpt>
      <trkpt lat="45.79514" lon="3.11002">
        <ele>346.400284</ele>
        <time>2021-04-29T08:44:06.191Z</time>
      </trkpt>
      <trkpt lat="45.79518" lon="3.11011">
        <ele>346.178412</ele>
        <time>2021-04-29T08:44:07.485Z</time>
      </trkpt>
      <trkpt lat="45.7953" lon="3.11036">
        <ele>345.602525</ele>
        <time>2021-04-29T08:44:11.056Z</time>
      </trkpt>
      <trkpt lat="45.79537" lon="3.11046">
        <ele>345.329926</ele>
        <time>2021-04-29T08:44:12.625Z</time>
      </trkpt>
      <trkpt lat="45.79619" lon="3.11193">
        <ele>342.260867</ele>
        <time>2021-04-29T08:44:34.316Z</time>
      </trkpt>
      <trkpt lat="45.79651" lon="3.11235">
        <ele>341.491338</ele>
        <time>2021-04-29T08:44:42.238Z</time>
      </trkpt>
      <trkpt lat="45.79665" lon="3.11258">
        <ele>341.12314</ele>
        <time>2021-04-29T08:44:46.156Z</time>
      </trkpt>
      <trkpt lat="45.79672" lon="3.11264">
        <ele>340.969779</ele>
        <time>2021-04-29T08:44:47.818Z</time>
      </trkpt>
      <trkpt lat="45.79724" lon="3.11252">
        <ele>340.05085</ele>
        <time>2021-04-29T08:44:57.916Z</time>
      </trkpt>
      <trkpt lat="45.79739" lon="3.11248">
        <ele>340.00373</ele>
        <time>2021-04-29T08:45:00.834Z</time>
      </trkpt>
      <trkpt lat="45.7976" lon="3.11241">
        <ele>339.934032</ele>
        <time>2021-04-29T08:45:05.342Z</time>
      </trkpt>
      <trkpt lat="45.79772" lon="3.1124">
        <ele>339.897872</ele>
        <time>2021-04-29T08:45:07.583Z</time>
      </trkpt>
      <trkpt lat="45.79777" lon="3.11242">
        <ele>339.882005</ele>
        <time>2021-04-29T08:45:08.660Z</time>
      </trkpt>
      <trkpt lat="45.7977" lon="3.1123">
        <ele>339.849349</ele>
        <time>2021-04-29T08:45:10.921Z</time>
      </trkpt>
      <trkpt lat="45.79781" lon="3.11226">
        <ele>339.814663</ele>
        <time>2021-04-29T08:45:13.344Z</time>
      </trkpt>
      <trkpt lat="45.79948" lon="3.11177">
        <ele>339.254267</ele>
        <time>2021-04-29T08:45:52.626Z</time>
      </trkpt>
      <trkpt lat="45.79962" lon="3.11178">
        <ele>339.200774</ele>
        <time>2021-04-29T08:45:55.937Z</time>
      </trkpt>
      <trkpt lat="45.79969" lon="3.11173">
        <ele>339.173807</ele>
        <time>2021-04-29T08:45:57.605Z</time>
      </trkpt>
      <trkpt lat="45.79974" lon="3.11169">
        <ele>339.153071</ele>
        <time>2021-04-29T08:45:58.872Z</time>
      </trkpt>
      <trkpt lat="45.79988" lon="3.11152">
        <ele>339.086726</ele>
        <time>2021-04-29T08:46:02.865Z</time>
      </trkpt>
      <trkpt lat="45.79992" lon="3.11149">
        <ele>339.070329</ele>
        <time>2021-04-29T08:46:03.871Z</time>
      </trkpt>
      <trkpt lat="45.80001" lon="3.11144">
        <ele>339.036223</ele>
        <time>2021-04-29T08:46:05.955Z</time>
      </trkpt>
      <trkpt lat="45.80008" lon="3.11143">
        <ele>339.013748</ele>
        <time>2021-04-29T08:46:07.250Z</time>
      </trkpt>
      <trkpt lat="45.80028" lon="3.11139">
        <ele>338.938537</ele>
        <time>2021-04-29T08:46:11.697Z</time>
      </trkpt>
      <trkpt lat="45.80029" lon="3.11143">
        <ele>338.929421</ele>
        <time>2021-04-29T08:46:12.375Z</time>
      </trkpt>
      <trkpt lat="45.80029" lon="3.11146">
        <ele>338.920602</ele>
        <time>2021-04-29T08:46:13.060Z</time>
      </trkpt>
      <trkpt lat="45.8003" lon="3.1115">
        <ele>338.911733</ele>
        <time>2021-04-29T08:46:13.731Z</time>
      </trkpt>
      <trkpt lat="45.8003" lon="3.11157">
        <ele>338.894841</ele>
        <time>2021-04-29T08:46:14.983Z</time>
      </trkpt>
      <trkpt lat="45.80031" lon="3.11165">
        <ele>338.872692</ele>
        <time>2021-04-29T08:46:16.613Z</time>
      </trkpt>
      <trkpt lat="45.80031" lon="3.1117">
        <ele>338.860604</ele>
        <time>2021-04-29T08:46:17.500Z</time>
      </trkpt>
      <trkpt lat="45.80039" lon="3.11168">
        <ele>338.821615</ele>
        <time>2021-04-29T08:46:19.573Z</time>
      </trkpt>
      <trkpt lat="45.80039" lon="3.11174">
        <ele>338.796161</ele>
        <time>2021-04-29T08:46:20.549Z</time>
      </trkpt>
      <trkpt lat="45.8004" lon="3.1118">
        <ele>338.767427</ele>
        <time>2021-04-29T08:46:21.673Z</time>
      </trkpt>
      <trkpt lat="45.8005" lon="3.11194">
        <ele>338.67501</ele>
        <time>2021-04-29T08:46:25.254Z</time>
      </trkpt>
      <trkpt lat="45.80077" lon="3.11172">
        <ele>338.462946</ele>
        <time>2021-04-29T08:46:31.387Z</time>
      </trkpt>
      <trkpt lat="45.80101" lon="3.11156">
        <ele>338.282383</ele>
        <time>2021-04-29T08:46:36.621Z</time>
      </trkpt>
      <trkpt lat="45.80127" lon="3.11139">
        <ele>338.090977</ele>
        <time>2021-04-29T08:46:42.247Z</time>
      </trkpt>
      <trkpt lat="45.80169" lon="3.11115">
        <ele>337.782356</ele>
        <time>2021-04-29T08:46:51.530Z</time>
      </trkpt>
      <trkpt lat="45.80178" lon="3.11112">
        <ele>337.719729</ele>
        <time>2021-04-29T08:46:53.413Z</time>
      </trkpt>
      <trkpt lat="45.80196" lon="3.11102">
        <ele>337.61147</ele>
        <time>2021-04-29T08:46:57.515Z</time>
      </trkpt>
      <trkpt lat="45.8022" lon="3.11088">
        <ele>337.56118</ele>
        <time>2021-04-29T08:47:02.785Z</time>
      </trkpt>
      <trkpt lat="45.80244" lon="3.11075">
        <ele>337.511291</ele>
        <time>2021-04-29T08:47:07.984Z</time>
      </trkpt>
      <trkpt lat="45.8026" lon="3.11067">
        <ele>337.479194</ele>
        <time>2021-04-29T08:47:11.485Z</time>
      </trkpt>
      <trkpt lat="45.80296" lon="3.11048">
        <ele>337.403504</ele>
        <time>2021-04-29T08:47:19.731Z</time>
      </trkpt>
      <trkpt lat="45.80344" lon="3.11022">
        <ele>337.302424</ele>
        <time>2021-04-29T08:47:31.319Z</time>
      </trkpt>
      <trkpt lat="45.80382" lon="3.11002">
        <ele>337.318617</ele>
        <time>2021-04-29T08:47:40.516Z</time>
      </trkpt>
      <trkpt lat="45.8041" lon="3.10987">
        <ele>337.378717</ele>
        <time>2021-04-29T08:47:47.507Z</time>
      </trkpt>
      <trkpt lat="45.80411" lon="3.10986">
        <ele>337.380598</ele>
        <time>2021-04-29T08:47:47.724Z</time>
      </trkpt>
      <trkpt lat="45.80451" lon="3.10966">
        <ele>337.466211</ele>
        <time>2021-04-29T08:47:57.502Z</time>
      </trkpt>
      <trkpt lat="45.80489" lon="3.1095">
        <ele>337.544487</ele>
        <time>2021-04-29T08:48:06.553Z</time>
      </trkpt>
      <trkpt lat="45.80504" lon="3.10944">
        <ele>337.576578</ele>
        <time>2021-04-29T08:48:10.436Z</time>
      </trkpt>
      <trkpt lat="45.8053" lon="3.10939">
        <ele>337.62759</ele>
        <time>2021-04-29T08:48:16.370Z</time>
      </trkpt>
      <trkpt lat="45.80553" lon="3.10935">
        <ele>337.610508</ele>
        <time>2021-04-29T08:48:21.878Z</time>
      </trkpt>
      <trkpt lat="45.80574" lon="3.10933">
        <ele>337.59193</ele>
        <time>2021-04-29T08:48:26.730Z</time>
      </trkpt>
      <trkpt lat="45.80637" lon="3.10933">
        <ele>337.535918</ele>
        <time>2021-04-29T08:48:40.774Z</time>
      </trkpt>
      <trkpt lat="45.80645" lon="3.10933">
        <ele>337.528693</ele>
        <time>2021-04-29T08:48:42.636Z</time>
      </trkpt>
      <trkpt lat="45.80829" lon="3.10938">
        <ele>337.076567</ele>
        <time>2021-04-29T08:49:20.506Z</time>
      </trkpt>
      <trkpt lat="45.80869" lon="3.10939">
        <ele>336.942439</ele>
        <time>2021-04-29T08:49:29.133Z</time>
      </trkpt>
      <trkpt lat="45.80883" lon="3.10939">
        <ele>336.89784</ele>
        <time>2021-04-29T08:49:32.033Z</time>
      </trkpt>
      <trkpt lat="45.8091" lon="3.10939">
        <ele>336.956283</ele>
        <time>2021-04-29T08:49:38.287Z</time>
      </trkpt>
      <trkpt lat="45.80956" lon="3.1094">
        <ele>337.148581</ele>
        <time>2021-04-29T08:49:48.690Z</time>
      </trkpt>
      <trkpt lat="45.80965" lon="3.10941">
        <ele>337.190364</ele>
        <time>2021-04-29T08:49:51.053Z</time>
      </trkpt>
      <trkpt lat="45.80973" lon="3.10941">
        <ele>337.223196</ele>
        <time>2021-04-29T08:49:53.056Z</time>
      </trkpt>
      <trkpt lat="45.81006" lon="3.10942">
        <ele>337.364814</ele>
        <time>2021-04-29T08:50:01.338Z</time>
      </trkpt>
      <trkpt lat="45.81106" lon="3.10944">
        <ele>337.696146</ele>
        <time>2021-04-29T08:50:26.122Z</time>
      </trkpt>
      <trkpt lat="45.81129" lon="3.10944">
        <ele>337.732193</ele>
        <time>2021-04-29T08:50:31.830Z</time>
      </trkpt>
      <trkpt lat="45.81299" lon="3.10947">
        <ele>337.832431</ele>
        <time>2021-04-29T08:51:08.943Z</time>
      </trkpt>
      <trkpt lat="45.81302" lon="3.10948">
        <ele>337.825266</ele>
        <time>2021-04-29T08:51:09.689Z</time>
      </trkpt>
      <trkpt lat="45.81311" lon="3.10948">
        <ele>337.808549</ele>
        <time>2021-04-29T08:51:11.330Z</time>
      </trkpt>
      <trkpt lat="45.81324" lon="3.10949">
        <ele>337.781456</ele>
        <time>2021-04-29T08:51:14.158Z</time>
      </trkpt>
      <trkpt lat="45.81353" lon="3.10949">
        <ele>337.723741</ele>
        <time>2021-04-29T08:51:20.173Z</time>
      </trkpt>
      <trkpt lat="45.8137" lon="3.10949">
        <ele>337.691298</ele>
        <time>2021-04-29T08:51:23.640Z</time>
      </trkpt>
      <trkpt lat="45.81377" lon="3.1095">
        <ele>337.676967</ele>
        <time>2021-04-29T08:51:25.142Z</time>
      </trkpt>
      <trkpt lat="45.81601" lon="3.10953">
        <ele>337.785912</ele>
        <time>2021-04-29T08:52:15.621Z</time>
      </trkpt>
      <trkpt lat="45.81627" lon="3.10953">
        <ele>337.85488</ele>
        <time>2021-04-29T08:52:21.882Z</time>
      </trkpt>
      <trkpt lat="45.81653" lon="3.10955">
        <ele>337.940103</ele>
        <time>2021-04-29T08:52:27.985Z</time>
      </trkpt>
      <trkpt lat="45.81664" lon="3.10958">
        <ele>337.97701</ele>
        <time>2021-04-29T08:52:30.630Z</time>
      </trkpt>
      <trkpt lat="45.81669" lon="3.10962">
        <ele>337.99837</ele>
        <time>2021-04-29T08:52:32.200Z</time>
      </trkpt>
      <trkpt lat="45.81672" lon="3.1097">
        <ele>338.01898</ele>
        <time>2021-04-29T08:52:33.626Z</time>
      </trkpt>
      <trkpt lat="45.81682" lon="3.10983">
        <ele>338.063267</ele>
        <time>2021-04-29T08:52:36.852Z</time>
      </trkpt>
      <trkpt lat="45.81687" lon="3.10986">
        <ele>338.081882</ele>
        <time>2021-04-29T08:52:38.153Z</time>
      </trkpt>
      <trkpt lat="45.81693" lon="3.10989">
        <ele>338.104207</ele>
        <time>2021-04-29T08:52:39.773Z</time>
      </trkpt>
      <trkpt lat="45.81705" lon="3.10988">
        <ele>338.142663</ele>
        <time>2021-04-29T08:52:42.486Z</time>
      </trkpt>
      <trkpt lat="45.8171" lon="3.10985">
        <ele>338.160176</ele>
        <time>2021-04-29T08:52:43.722Z</time>
      </trkpt>
      <trkpt lat="45.81711" lon="3.10985">
        <ele>338.164103</ele>
        <time>2021-04-29T08:52:44.045Z</time>
      </trkpt>
      <trkpt lat="45.8172" lon="3.10973">
        <ele>338.204781</ele>
        <time>2021-04-29T08:52:46.945Z</time>
      </trkpt>
      <trkpt lat="45.81723" lon="3.10965">
        <ele>338.227515</ele>
        <time>2021-04-29T08:52:48.591Z</time>
      </trkpt>
      <trkpt lat="45.81725" lon="3.10953">
        <ele>338.25417</ele>
        <time>2021-04-29T08:52:50.481Z</time>
      </trkpt>
      <trkpt lat="45.81725" lon="3.10944">
        <ele>338.27511</ele>
        <time>2021-04-29T08:52:51.920Z</time>
      </trkpt>
      <trkpt lat="45.81724" lon="3.10934">
        <ele>338.299111</ele>
        <time>2021-04-29T08:52:53.694Z</time>
      </trkpt>
      <trkpt lat="45.81721" lon="3.10926">
        <ele>338.320529</ele>
        <time>2021-04-29T08:52:55.186Z</time>
      </trkpt>
      <trkpt lat="45.81715" lon="3.10916">
        <ele>338.349375</ele>
        <time>2021-04-29T08:52:57.250Z</time>
      </trkpt>
      <trkpt lat="45.81712" lon="3.10912">
        <ele>338.365522</ele>
        <time>2021-04-29T08:52:58.400Z</time>
      </trkpt>
      <trkpt lat="45.81712" lon="3.10912">
        <ele>338.365522</ele>
        <time>2021-04-29T08:52:58.417Z</time>
      </trkpt>
      <trkpt lat="45.81707" lon="3.10909">
        <ele>338.383348</ele>
        <time>2021-04-29T08:52:59.581Z</time>
      </trkpt>
      <trkpt lat="45.81699" lon="3.10907">
        <ele>338.398877</ele>
        <time>2021-04-29T08:53:01.391Z</time>
      </trkpt>
      <trkpt lat="45.81698" lon="3.10907">
        <ele>338.399289</ele>
        <time>2021-04-29T08:53:01.642Z</time>
      </trkpt>
      <trkpt lat="45.81691" lon="3.10895">
        <ele>338.403826</ele>
        <time>2021-04-29T08:53:04.131Z</time>
      </trkpt>
      <trkpt lat="45.81687" lon="3.10881">
        <ele>338.408152</ele>
        <time>2021-04-29T08:53:06.735Z</time>
      </trkpt>
      <trkpt lat="45.81677" lon="3.10771">
        <ele>338.439796</ele>
        <time>2021-04-29T08:53:25.056Z</time>
      </trkpt>
      <trkpt lat="45.81672" lon="3.10713">
        <ele>338.456707</ele>
        <time>2021-04-29T08:53:34.597Z</time>
      </trkpt>
      <trkpt lat="45.81672" lon="3.10707">
        <ele>338.458407</ele>
        <time>2021-04-29T08:53:35.553Z</time>
      </trkpt>
      <trkpt lat="45.81681" lon="3.10708">
        <ele>338.462362</ele>
        <time>2021-04-29T08:53:37.612Z</time>
      </trkpt>
      <trkpt lat="45.81741" lon="3.10713">
        <ele>338.464081</ele>
        <time>2021-04-29T08:53:51.029Z</time>
      </trkpt>
      <trkpt lat="45.81783" lon="3.10727">
        <ele>338.455554</ele>
        <time>2021-04-29T08:54:00.585Z</time>
      </trkpt>
      <trkpt lat="45.81802" lon="3.10737">
        <ele>338.451467</ele>
        <time>2021-04-29T08:54:05.037Z</time>
      </trkpt>
      <trkpt lat="45.81809" lon="3.10735">
        <ele>338.450124</ele>
        <time>2021-04-29T08:54:06.519Z</time>
      </trkpt>
      <trkpt lat="45.81861" lon="3.10766">
        <ele>338.439012</ele>
        <time>2021-04-29T08:54:19.273Z</time>
      </trkpt>
      <trkpt lat="45.8188" lon="3.10776">
        <ele>338.447461</ele>
        <time>2021-04-29T08:54:24.109Z</time>
      </trkpt>
      <trkpt lat="45.81898" lon="3.10782">
        <ele>338.491818</ele>
        <time>2021-04-29T08:54:28.414Z</time>
      </trkpt>
      <trkpt lat="45.81921" lon="3.10787">
        <ele>338.549872</ele>
        <time>2021-04-29T08:54:33.959Z</time>
      </trkpt>
      <trkpt lat="45.81936" lon="3.10787">
        <ele>338.588334</ele>
        <time>2021-04-29T08:54:37.679Z</time>
      </trkpt>
      <trkpt lat="45.81958" lon="3.10783">
        <ele>338.641228</ele>
        <time>2021-04-29T08:54:42.562Z</time>
      </trkpt>
      <trkpt lat="45.82009" lon="3.10755">
        <ele>338.776783</ele>
        <time>2021-04-29T08:54:55.082Z</time>
      </trkpt>
      <trkpt lat="45.82028" lon="3.10745">
        <ele>338.82737</ele>
        <time>2021-04-29T08:54:59.797Z</time>
      </trkpt>
      <trkpt lat="45.8207" lon="3.10723">
        <ele>338.98125</ele>
        <time>2021-04-29T08:55:10.381Z</time>
      </trkpt>
      <trkpt lat="45.82088" lon="3.10716">
        <ele>339.061279</ele>
        <time>2021-04-29T08:55:14.877Z</time>
      </trkpt>
      <trkpt lat="45.82129" lon="3.10703">
        <ele>339.240626</ele>
        <time>2021-04-29T08:55:25.039Z</time>
      </trkpt>
      <trkpt lat="45.82138" lon="3.107">
        <ele>339.279305</ele>
        <time>2021-04-29T08:55:27.140Z</time>
      </trkpt>
      <trkpt lat="45.82177" lon="3.10689">
        <ele>339.450951</ele>
        <time>2021-04-29T08:55:36.487Z</time>
      </trkpt>
      <trkpt lat="45.82198" lon="3.10683">
        <ele>339.545359</ele>
        <time>2021-04-29T08:55:41.584Z</time>
      </trkpt>
      <trkpt lat="45.82239" lon="3.10666">
        <ele>339.786643</ele>
        <time>2021-04-29T08:55:51.904Z</time>
      </trkpt>
      <trkpt lat="45.82241" lon="3.10665">
        <ele>339.803525</ele>
        <time>2021-04-29T08:55:52.451Z</time>
      </trkpt>
      <trkpt lat="45.82265" lon="3.10651">
        <ele>340.00384</ele>
        <time>2021-04-29T08:55:59.026Z</time>
      </trkpt>
      <trkpt lat="45.82333" lon="3.1061">
        <ele>340.579463</ele>
        <time>2021-04-29T08:56:17.976Z</time>
      </trkpt>
      <trkpt lat="45.8235" lon="3.106">
        <ele>340.721672</ele>
        <time>2021-04-29T08:56:22.642Z</time>
      </trkpt>
      <trkpt lat="45.82366" lon="3.10591">
        <ele>340.857107</ele>
        <time>2021-04-29T08:56:26.991Z</time>
      </trkpt>
      <trkpt lat="45.82475" lon="3.10528">
        <ele>341.949857</ele>
        <time>2021-04-29T08:56:57.567Z</time>
      </trkpt>
      <trkpt lat="45.82492" lon="3.10516">
        <ele>342.133408</ele>
        <time>2021-04-29T08:57:02.562Z</time>
      </trkpt>
      <trkpt lat="45.82517" lon="3.10499">
        <ele>342.406072</ele>
        <time>2021-04-29T08:57:09.585Z</time>
      </trkpt>
      <trkpt lat="45.82524" lon="3.10493">
        <ele>342.488434</ele>
        <time>2021-04-29T08:57:11.851Z</time>
      </trkpt>
      <trkpt lat="45.82539" lon="3.10475">
        <ele>342.675885</ele>
        <time>2021-04-29T08:57:16.740Z</time>
      </trkpt>
      <trkpt lat="45.82553" lon="3.10468">
        <ele>342.822719</ele>
        <time>2021-04-29T08:57:20.750Z</time>
      </trkpt>
      <trkpt lat="45.82562" lon="3.10466">
        <ele>342.935506</ele>
        <time>2021-04-29T08:57:23.267Z</time>
      </trkpt>
      <trkpt lat="45.82562" lon="3.10466">
        <ele>342.935506</ele>
        <time>2021-04-29T08:57:23.300Z</time>
      </trkpt>
      <trkpt lat="45.82576" lon="3.1047">
        <ele>343.113782</ele>
        <time>2021-04-29T08:57:27.161Z</time>
      </trkpt>
      <trkpt lat="45.82591" lon="3.10484">
        <ele>343.317848</ele>
        <time>2021-04-29T08:57:31.828Z</time>
      </trkpt>
      <trkpt lat="45.82599" lon="3.10495">
        <ele>343.461326</ele>
        <time>2021-04-29T08:57:35.166Z</time>
      </trkpt>
      <trkpt lat="45.82643" lon="3.10538">
        <ele>344.088393</ele>
        <time>2021-04-29T08:57:49.855Z</time>
      </trkpt>
      <trkpt lat="45.82663" lon="3.10551">
        <ele>344.358759</ele>
        <time>2021-04-29T08:57:56.191Z</time>
      </trkpt>
      <trkpt lat="45.82693" lon="3.10565">
        <ele>344.731472</ele>
        <time>2021-04-29T08:58:04.590Z</time>
      </trkpt>
      <trkpt lat="45.82726" lon="3.10576">
        <ele>345.065897</ele>
        <time>2021-04-29T08:58:13.198Z</time>
      </trkpt>
      <trkpt lat="45.82738" lon="3.10579">
        <ele>345.153565</ele>
        <time>2021-04-29T08:58:16.429Z</time>
      </trkpt>
      <trkpt lat="45.82761" lon="3.10588">
        <ele>345.318369</ele>
        <time>2021-04-29T08:58:22.154Z</time>
      </trkpt>
      <trkpt lat="45.82805" lon="3.10611">
        <ele>345.646585</ele>
        <time>2021-04-29T08:58:34.089Z</time>
      </trkpt>
      <trkpt lat="45.8281" lon="3.10615">
        <ele>345.68712</ele>
        <time>2021-04-29T08:58:35.556Z</time>
      </trkpt>
      <trkpt lat="45.82813" lon="3.1062">
        <ele>345.718113</ele>
        <time>2021-04-29T08:58:36.599Z</time>
      </trkpt>
      <trkpt lat="45.82818" lon="3.10627">
        <ele>345.769647</ele>
        <time>2021-04-29T08:58:38.387Z</time>
      </trkpt>
      <trkpt lat="45.82819" lon="3.10639">
        <ele>345.828859</ele>
        <time>2021-04-29T08:58:40.441Z</time>
      </trkpt>
      <trkpt lat="45.82823" lon="3.1065">
        <ele>345.887785</ele>
        <time>2021-04-29T08:58:42.706Z</time>
      </trkpt>
      <trkpt lat="45.82829" lon="3.10659">
        <ele>345.947093</ele>
        <time>2021-04-29T08:58:44.748Z</time>
      </trkpt>
      <trkpt lat="45.82835" lon="3.10664">
        <ele>345.994292</ele>
        <time>2021-04-29T08:58:46.295Z</time>
      </trkpt>
      <trkpt lat="45.82854" lon="3.10667">
        <ele>346.134094</ele>
        <time>2021-04-29T08:58:51.322Z</time>
      </trkpt>
      <trkpt lat="45.82861" lon="3.10663">
        <ele>346.181564</ele>
        <time>2021-04-29T08:58:53.006Z</time>
      </trkpt>
      <trkpt lat="45.82866" lon="3.10658">
        <ele>346.226131</ele>
        <time>2021-04-29T08:58:54.490Z</time>
      </trkpt>
      <trkpt lat="45.8287" lon="3.10652">
        <ele>346.238262</ele>
        <time>2021-04-29T08:58:55.971Z</time>
      </trkpt>
      <trkpt lat="45.82874" lon="3.10644">
        <ele>346.249836</ele>
        <time>2021-04-29T08:58:57.440Z</time>
      </trkpt>
      <trkpt lat="45.82879" lon="3.10631">
        <ele>346.269023</ele>
        <time>2021-04-29T08:59:00.097Z</time>
      </trkpt>
      <trkpt lat="45.829" lon="3.10594">
        <ele>346.331074</ele>
        <time>2021-04-29T08:59:07.954Z</time>
      </trkpt>
      <trkpt lat="45.82922" lon="3.10573">
        <ele>346.379136</ele>
        <time>2021-04-29T08:59:13.861Z</time>
      </trkpt>
      <trkpt lat="45.82955" lon="3.10557">
        <ele>346.441703</ele>
        <time>2021-04-29T08:59:21.485Z</time>
      </trkpt>
      <trkpt lat="45.82974" lon="3.1055">
        <ele>346.479031</ele>
        <time>2021-04-29T08:59:26.256Z</time>
      </trkpt>
      <trkpt lat="45.82997" lon="3.10548">
        <ele>346.52132</ele>
        <time>2021-04-29T08:59:31.387Z</time>
      </trkpt>
      <trkpt lat="45.83015" lon="3.10547">
        <ele>346.552894</ele>
        <time>2021-04-29T08:59:35.485Z</time>
      </trkpt>
      <trkpt lat="45.83032" lon="3.10546">
        <ele>346.538449</ele>
        <time>2021-04-29T08:59:39.216Z</time>
      </trkpt>
      <trkpt lat="45.831" lon="3.10542">
        <ele>346.458526</ele>
        <time>2021-04-29T08:59:54.202Z</time>
      </trkpt>
      <trkpt lat="45.83155" lon="3.10539">
        <ele>346.393926</ele>
        <time>2021-04-29T09:00:06.048Z</time>
      </trkpt>
      <trkpt lat="45.8316" lon="3.10538">
        <ele>346.388633</ele>
        <time>2021-04-29T09:00:07.018Z</time>
      </trkpt>
      <trkpt lat="45.8317" lon="3.10538">
        <ele>346.375924</ele>
        <time>2021-04-29T09:00:09.199Z</time>
      </trkpt>
      <trkpt lat="45.83186" lon="3.10537">
        <ele>346.357684</ele>
        <time>2021-04-29T09:00:12.443Z</time>
      </trkpt>
      <trkpt lat="45.83227" lon="3.10533">
        <ele>346.503837</ele>
        <time>2021-04-29T09:00:21.228Z</time>
      </trkpt>
      <trkpt lat="45.8324" lon="3.10533">
        <ele>346.574913</ele>
        <time>2021-04-29T09:00:24.218Z</time>
      </trkpt>
      <trkpt lat="45.8325" lon="3.10533">
        <ele>346.624561</ele>
        <time>2021-04-29T09:00:26.381Z</time>
      </trkpt>
      <trkpt lat="45.83335" lon="3.10533">
        <ele>347.070305</ele>
        <time>2021-04-29T09:00:47.289Z</time>
      </trkpt>
      <trkpt lat="45.83344" lon="3.10534">
        <ele>347.116296</ele>
        <time>2021-04-29T09:00:49.660Z</time>
      </trkpt>
      <trkpt lat="45.83369" lon="3.10531">
        <ele>347.247227</ele>
        <time>2021-04-29T09:00:56.426Z</time>
      </trkpt>
      <trkpt lat="45.83398" lon="3.10529">
        <ele>347.628898</ele>
        <time>2021-04-29T09:01:04.516Z</time>
      </trkpt>
      <trkpt lat="45.83418" lon="3.10522">
        <ele>347.945816</ele>
        <time>2021-04-29T09:01:10.373Z</time>
      </trkpt>
      <trkpt lat="45.83457" lon="3.10503">
        <ele>348.581082</ele>
        <time>2021-04-29T09:01:21.869Z</time>
      </trkpt>
      <trkpt lat="45.83485" lon="3.10477">
        <ele>349.104134</ele>
        <time>2021-04-29T09:01:31.608Z</time>
      </trkpt>
      <trkpt lat="45.83504" lon="3.10448">
        <ele>349.523726</ele>
        <time>2021-04-29T09:01:39.583Z</time>
      </trkpt>
      <trkpt lat="45.83528" lon="3.1039">
        <ele>350.285911</ele>
        <time>2021-04-29T09:01:53.323Z</time>
      </trkpt>
      <trkpt lat="45.83535" lon="3.10355">
        <ele>350.730808</ele>
        <time>2021-04-29T09:02:00.516Z</time>
      </trkpt>
      <trkpt lat="45.83538" lon="3.10337">
        <ele>350.958749</ele>
        <time>2021-04-29T09:02:04.130Z</time>
      </trkpt>
      <trkpt lat="45.83541" lon="3.10294">
        <ele>351.498557</ele>
        <time>2021-04-29T09:02:12.979Z</time>
      </trkpt>
      <trkpt lat="45.83541" lon="3.10179">
        <ele>352.918301</ele>
        <time>2021-04-29T09:02:36.687Z</time>
      </trkpt>
      <trkpt lat="45.83541" lon="3.10157">
        <ele>353.19583</ele>
        <time>2021-04-29T09:02:41.223Z</time>
      </trkpt>
      <trkpt lat="45.83541" lon="3.10114">
        <ele>353.736243</ele>
        <time>2021-04-29T09:02:50.205Z</time>
      </trkpt>
      <trkpt lat="45.83547" lon="3.10074">
        <ele>354.243274</ele>
        <time>2021-04-29T09:02:59.385Z</time>
      </trkpt>
      <trkpt lat="45.83552" lon="3.10051">
        <ele>354.549989</ele>
        <time>2021-04-29T09:03:04.404Z</time>
      </trkpt>
      <trkpt lat="45.83553" lon="3.10022">
        <ele>354.913153</ele>
        <time>2021-04-29T09:03:11.128Z</time>
      </trkpt>
      <trkpt lat="45.83552" lon="3.09951">
        <ele>355.81535</ele>
        <time>2021-04-29T09:03:26.168Z</time>
      </trkpt>
      <trkpt lat="45.83546" lon="3.09898">
        <ele>356.48894</ele>
        <time>2021-04-29T09:03:37.278Z</time>
      </trkpt>
      <trkpt lat="45.83545" lon="3.0987">
        <ele>356.602323</ele>
        <time>2021-04-29T09:03:43.280Z</time>
      </trkpt>
      <trkpt lat="45.83546" lon="3.09854">
        <ele>356.658817</ele>
        <time>2021-04-29T09:03:46.201Z</time>
      </trkpt>
      <trkpt lat="45.83551" lon="3.09779">
        <ele>356.920221</ele>
        <time>2021-04-29T09:04:00.017Z</time>
      </trkpt>
      <trkpt lat="45.83549" lon="3.09716">
        <ele>357.138986</ele>
        <time>2021-04-29T09:04:10.294Z</time>
      </trkpt>
      <trkpt lat="45.83554" lon="3.09656">
        <ele>357.348904</ele>
        <time>2021-04-29T09:04:19.772Z</time>
      </trkpt>
      <trkpt lat="45.83555" lon="3.09583">
        <ele>357.761959</ele>
        <time>2021-04-29T09:04:31.248Z</time>
      </trkpt>
      <trkpt lat="45.83553" lon="3.09573">
        <ele>357.825825</ele>
        <time>2021-04-29T09:04:32.946Z</time>
      </trkpt>
      <trkpt lat="45.83547" lon="3.09565">
        <ele>357.897684</ele>
        <time>2021-04-29T09:04:34.606Z</time>
      </trkpt>
      <trkpt lat="45.83553" lon="3.09556">
        <ele>357.973041</ele>
        <time>2021-04-29T09:04:36.526Z</time>
      </trkpt>
      <trkpt lat="45.83555" lon="3.09545">
        <ele>358.042113</ele>
        <time>2021-04-29T09:04:39.019Z</time>
      </trkpt>
      <trkpt lat="45.83556" lon="3.09536">
        <ele>358.103965</ele>
        <time>2021-04-29T09:04:40.880Z</time>
      </trkpt>
      <trkpt lat="45.83555" lon="3.09526">
        <ele>358.166537</ele>
        <time>2021-04-29T09:04:42.530Z</time>
      </trkpt>
      <trkpt lat="45.83551" lon="3.09512">
        <ele>358.260995</ele>
        <time>2021-04-29T09:04:44.789Z</time>
      </trkpt>
      <trkpt lat="45.83544" lon="3.09505">
        <ele>358.335847</ele>
        <time>2021-04-29T09:04:47.139Z</time>
      </trkpt>
      <trkpt lat="45.83541" lon="3.09494">
        <ele>358.40702</ele>
        <time>2021-04-29T09:04:49.744Z</time>
      </trkpt>
      <trkpt lat="45.83544" lon="3.09418">
        <ele>358.887929</ele>
        <time>2021-04-29T09:05:03.967Z</time>
      </trkpt>
      <trkpt lat="45.83544" lon="3.09395">
        <ele>359.031715</ele>
        <time>2021-04-29T09:05:09.311Z</time>
      </trkpt>
      <trkpt lat="45.83545" lon="3.09383">
        <ele>359.242434</ele>
        <time>2021-04-29T09:05:11.664Z</time>
      </trkpt>
      <trkpt lat="45.83551" lon="3.09372">
        <ele>359.501042</ele>
        <time>2021-04-29T09:05:14.295Z</time>
      </trkpt>
      <trkpt lat="45.83555" lon="3.09364">
        <ele>359.666432</ele>
        <time>2021-04-29T09:05:16.144Z</time>
      </trkpt>
      <trkpt lat="45.83556" lon="3.09362">
        <ele>359.729282</ele>
        <time>2021-04-29T09:05:16.985Z</time>
      </trkpt>
      <trkpt lat="45.83556" lon="3.09349">
        <ele>359.95603</ele>
        <time>2021-04-29T09:05:21.757Z</time>
      </trkpt>
      <trkpt lat="45.83556" lon="3.09152">
        <ele>363.500309</ele>
        <time>2021-04-29T09:06:28.626Z</time>
      </trkpt>
      <trkpt lat="45.83548" lon="3.09088">
        <ele>364.369686</ele>
        <time>2021-04-29T09:06:50.142Z</time>
      </trkpt>
      <trkpt lat="45.83534" lon="3.09017">
        <ele>365.298381</ele>
        <time>2021-04-29T09:07:13.365Z</time>
      </trkpt>
      <trkpt lat="45.8352" lon="3.08967">
        <ele>365.967164</ele>
        <time>2021-04-29T09:07:29.662Z</time>
      </trkpt>
      <trkpt lat="45.83515" lon="3.08952">
        <ele>366.177458</ele>
        <time>2021-04-29T09:07:34.764Z</time>
      </trkpt>
      <trkpt lat="45.83493" lon="3.08895">
        <ele>366.925507</ele>
        <time>2021-04-29T09:07:53.921Z</time>
      </trkpt>
      <trkpt lat="45.8344" lon="3.08802">
        <ele>367.202015</ele>
        <time>2021-04-29T09:08:26.569Z</time>
      </trkpt>
      <trkpt lat="45.83407" lon="3.08759">
        <ele>367.352447</ele>
        <time>2021-04-29T09:08:43.622Z</time>
      </trkpt>
      <trkpt lat="45.83373" lon="3.08722">
        <ele>367.492592</ele>
        <time>2021-04-29T09:08:59.158Z</time>
      </trkpt>
      <trkpt lat="45.8337" lon="3.0874">
        <ele>367.447257</ele>
        <time>2021-04-29T09:09:01.915Z</time>
      </trkpt>
      <trkpt lat="45.83332" lon="3.08709">
        <ele>367.121362</ele>
        <time>2021-04-29T09:09:11.322Z</time>
      </trkpt>
      <trkpt lat="45.83263" lon="3.0867">
        <ele>366.5813</ele>
        <time>2021-04-29T09:09:26.026Z</time>
      </trkpt>
      <trkpt lat="45.83226" lon="3.0866">
        <ele>366.298629</ele>
        <time>2021-04-29T09:09:33.248Z</time>
      </trkpt>
      <trkpt lat="45.83217" lon="3.08658">
        <ele>366.234976</ele>
        <time>2021-04-29T09:09:34.863Z</time>
      </trkpt>
      <trkpt lat="45.83176" lon="3.08648">
        <ele>365.787972</ele>
        <time>2021-04-29T09:09:42.558Z</time>
      </trkpt>
      <trkpt lat="45.83153" lon="3.0864">
        <ele>365.522737</ele>
        <time>2021-04-29T09:09:46.877Z</time>
      </trkpt>
      <trkpt lat="45.83134" lon="3.08627">
        <ele>365.281856</ele>
        <time>2021-04-29T09:09:50.734Z</time>
      </trkpt>
      <trkpt lat="45.83128" lon="3.0862">
        <ele>365.189155</ele>
        <time>2021-04-29T09:09:52.369Z</time>
      </trkpt>
      <trkpt lat="45.8312" lon="3.08616">
        <ele>365.094865</ele>
        <time>2021-04-29T09:09:53.882Z</time>
      </trkpt>
      <trkpt lat="45.83112" lon="3.08617">
        <ele>365.002682</ele>
        <time>2021-04-29T09:09:55.418Z</time>
      </trkpt>
      <trkpt lat="45.83106" lon="3.08621">
        <ele>364.928644</ele>
        <time>2021-04-29T09:09:56.579Z</time>
      </trkpt>
      <trkpt lat="45.83101" lon="3.08627">
        <ele>364.855673</ele>
        <time>2021-04-29T09:09:57.815Z</time>
      </trkpt>
      <trkpt lat="45.83098" lon="3.08635">
        <ele>364.782609</ele>
        <time>2021-04-29T09:09:59.134Z</time>
      </trkpt>
      <trkpt lat="45.83081" lon="3.08635">
        <ele>364.588581</ele>
        <time>2021-04-29T09:10:02.361Z</time>
      </trkpt>
      <trkpt lat="45.83054" lon="3.08625">
        <ele>364.272682</ele>
        <time>2021-04-29T09:10:07.731Z</time>
      </trkpt>
      <trkpt lat="45.83029" lon="3.08611">
        <ele>364.269107</ele>
        <time>2021-04-29T09:10:13.143Z</time>
      </trkpt>
      <trkpt lat="45.83008" lon="3.08602">
        <ele>364.44566</ele>
        <time>2021-04-29T09:10:17.438Z</time>
      </trkpt>
      <trkpt lat="45.82975" lon="3.08574">
        <ele>364.762683</ele>
        <time>2021-04-29T09:10:25.909Z</time>
      </trkpt>
      <trkpt lat="45.82866" lon="3.08457">
        <ele>366.307223</ele>
        <time>2021-04-29T09:11:05.947Z</time>
      </trkpt>
      <trkpt lat="45.82849" lon="3.08437">
        <ele>366.776582</ele>
        <time>2021-04-29T09:11:12.908Z</time>
      </trkpt>
      <trkpt lat="45.82841" lon="3.08426">
        <ele>367.014211</ele>
        <time>2021-04-29T09:11:16.533Z</time>
      </trkpt>
      <trkpt lat="45.82797" lon="3.08383">
        <ele>368.147021</ele>
        <time>2021-04-29T09:11:33.541Z</time>
      </trkpt>
      <trkpt lat="45.82606" lon="3.08172">
        <ele>372.708497</ele>
        <time>2021-04-29T09:12:45.886Z</time>
      </trkpt>
      <trkpt lat="45.82584" lon="3.08131">
        <ele>373.096069</ele>
        <time>2021-04-29T09:12:55.595Z</time>
      </trkpt>
      <trkpt lat="45.82549" lon="3.08065">
        <ele>373.694716</ele>
        <time>2021-04-29T09:13:10.527Z</time>
      </trkpt>
      <trkpt lat="45.82525" lon="3.07995">
        <ele>374.260987</ele>
        <time>2021-04-29T09:13:24.453Z</time>
      </trkpt>
      <trkpt lat="45.82511" lon="3.07926">
        <ele>374.765364</ele>
        <time>2021-04-29T09:13:37.285Z</time>
      </trkpt>
      <trkpt lat="45.82494" lon="3.07799">
        <ele>375.638836</ele>
        <time>2021-04-29T09:14:00.630Z</time>
      </trkpt>
      <trkpt lat="45.82488" lon="3.07745">
        <ele>376.013778</ele>
        <time>2021-04-29T09:14:10.730Z</time>
      </trkpt>
      <trkpt lat="45.82486" lon="3.07735">
        <ele>376.08377</ele>
        <time>2021-04-29T09:14:12.634Z</time>
      </trkpt>
      <trkpt lat="45.82481" lon="3.07698">
        <ele>376.337601</ele>
        <time>2021-04-29T09:14:19.489Z</time>
      </trkpt>
      <trkpt lat="45.82447" lon="3.07428">
        <ele>378.925276</ele>
        <time>2021-04-29T09:15:11.357Z</time>
      </trkpt>
      <trkpt lat="45.82445" lon="3.07378">
        <ele>379.936751</ele>
        <time>2021-04-29T09:15:21.610Z</time>
      </trkpt>
      <trkpt lat="45.82445" lon="3.07271">
        <ele>382.12619</ele>
        <time>2021-04-29T09:15:46.054Z</time>
      </trkpt>
      <trkpt lat="45.82449" lon="3.07235">
        <ele>382.855353</ele>
        <time>2021-04-29T09:15:55.030Z</time>
      </trkpt>
      <trkpt lat="45.82452" lon="3.07225">
        <ele>383.092757</ele>
        <time>2021-04-29T09:15:58.433Z</time>
      </trkpt>
      <trkpt lat="45.82455" lon="3.07222">
        <ele>383.191129</ele>
        <time>2021-04-29T09:15:59.783Z</time>
      </trkpt>
      <trkpt lat="45.82458" lon="3.07219">
        <ele>383.287283</ele>
        <time>2021-04-29T09:16:01.131Z</time>
      </trkpt>
      <trkpt lat="45.82461" lon="3.07214">
        <ele>383.439951</ele>
        <time>2021-04-29T09:16:03.509Z</time>
      </trkpt>
      <trkpt lat="45.82464" lon="3.07192">
        <ele>383.934381</ele>
        <time>2021-04-29T09:16:09.193Z</time>
      </trkpt>
      <trkpt lat="45.82462" lon="3.07185">
        <ele>384.288155</ele>
        <time>2021-04-29T09:16:11.630Z</time>
      </trkpt>
      <trkpt lat="45.8246" lon="3.07181">
        <ele>384.513917</ele>
        <time>2021-04-29T09:16:13.031Z</time>
      </trkpt>
      <trkpt lat="45.82463" lon="3.07163">
        <ele>385.390927</ele>
        <time>2021-04-29T09:16:18.837Z</time>
      </trkpt>
      <trkpt lat="45.82471" lon="3.07121">
        <ele>387.447239</ele>
        <time>2021-04-29T09:16:31.872Z</time>
      </trkpt>
      <trkpt lat="45.82482" lon="3.07082">
        <ele>389.446385</ele>
        <time>2021-04-29T09:16:45.579Z</time>
      </trkpt>
      <trkpt lat="45.82503" lon="3.07035">
        <ele>392.091024</ele>
        <time>2021-04-29T09:17:05.111Z</time>
      </trkpt>
      <trkpt lat="45.82593" lon="3.06879">
        <ele>403.796928</ele>
        <time>2021-04-29T09:18:26.960Z</time>
      </trkpt>
      <trkpt lat="45.82631" lon="3.06797">
        <ele>410.184505</ele>
        <time>2021-04-29T09:19:08.882Z</time>
      </trkpt>
      <trkpt lat="45.8266" lon="3.06691">
        <ele>417.318456</ele>
        <time>2021-04-29T09:19:58.060Z</time>
      </trkpt>
      <trkpt lat="45.82675" lon="3.06585">
        <ele>423.987915</ele>
        <time>2021-04-29T09:20:42.229Z</time>
      </trkpt>
      <trkpt lat="45.82676" lon="3.06561">
        <ele>425.498086</ele>
        <time>2021-04-29T09:20:51.901Z</time>
      </trkpt>
      <trkpt lat="45.82676" lon="3.0654">
        <ele>426.774981</ele>
        <time>2021-04-29T09:20:59.048Z</time>
      </trkpt>
      <trkpt lat="45.82676" lon="3.06517">
        <ele>428.186034</ele>
        <time>2021-04-29T09:21:07.321Z</time>
      </trkpt>
      <trkpt lat="45.82678" lon="3.0643">
        <ele>432.407474</ele>
        <time>2021-04-29T09:21:39.175Z</time>
      </trkpt>
      <trkpt lat="45.82681" lon="3.06363">
        <ele>435.57252</ele>
        <time>2021-04-29T09:22:02.570Z</time>
      </trkpt>
      <trkpt lat="45.82689" lon="3.06313">
        <ele>437.946564</ele>
        <time>2021-04-29T09:22:18.673Z</time>
      </trkpt>
      <trkpt lat="45.82692" lon="3.06298">
        <ele>438.677339</ele>
        <time>2021-04-29T09:22:24.572Z</time>
      </trkpt>
      <trkpt lat="45.82696" lon="3.06282">
        <ele>439.496154</ele>
        <time>2021-04-29T09:22:29.816Z</time>
      </trkpt>
      <trkpt lat="45.827" lon="3.06266">
        <ele>440.322264</ele>
        <time>2021-04-29T09:22:34.775Z</time>
      </trkpt>
      <trkpt lat="45.82707" lon="3.06244">
        <ele>441.337046</ele>
        <time>2021-04-29T09:22:43.359Z</time>
      </trkpt>
      <trkpt lat="45.82735" lon="3.0617">
        <ele>444.64159</ele>
        <time>2021-04-29T09:23:09.462Z</time>
      </trkpt>
      <trkpt lat="45.82766" lon="3.06113">
        <ele>447.498343</ele>
        <time>2021-04-29T09:23:32.827Z</time>
      </trkpt>
      <trkpt lat="45.82796" lon="3.06069">
        <ele>449.93874</ele>
        <time>2021-04-29T09:23:50.811Z</time>
      </trkpt>
      <trkpt lat="45.82809" lon="3.0605">
        <ele>450.991075</ele>
        <time>2021-04-29T09:23:58.740Z</time>
      </trkpt>
      <trkpt lat="45.82891" lon="3.05928">
        <ele>457.971022</ele>
        <time>2021-04-29T09:24:52.515Z</time>
      </trkpt>
      <trkpt lat="45.82903" lon="3.05907">
        <ele>459.084969</ele>
        <time>2021-04-29T09:25:01.759Z</time>
      </trkpt>
      <trkpt lat="45.82905" lon="3.05905">
        <ele>459.203488</ele>
        <time>2021-04-29T09:25:02.728Z</time>
      </trkpt>
      <trkpt lat="45.82947" lon="3.05831">
        <ele>463.286741</ele>
        <time>2021-04-29T09:25:33.861Z</time>
      </trkpt>
      <trkpt lat="45.8298" lon="3.05773">
        <ele>466.660953</ele>
        <time>2021-04-29T09:25:59.263Z</time>
      </trkpt>
      <trkpt lat="45.83052" lon="3.05676">
        <ele>473.138734</ele>
        <time>2021-04-29T09:26:48.295Z</time>
      </trkpt>
      <trkpt lat="45.83126" lon="3.05545">
        <ele>479.925272</ele>
        <time>2021-04-29T09:27:42.906Z</time>
      </trkpt>
      <trkpt lat="45.83155" lon="3.05523">
        <ele>481.814558</ele>
        <time>2021-04-29T09:27:56.968Z</time>
      </trkpt>
      <trkpt lat="45.83168" lon="3.05514">
        <ele>482.678355</ele>
        <time>2021-04-29T09:28:04.050Z</time>
      </trkpt>
      <trkpt lat="45.83177" lon="3.05508">
        <ele>483.249631</ele>
        <time>2021-04-29T09:28:07.931Z</time>
      </trkpt>
      <trkpt lat="45.83186" lon="3.05499">
        <ele>483.840266</ele>
        <time>2021-04-29T09:28:11.999Z</time>
      </trkpt>
      <trkpt lat="45.83195" lon="3.05496">
        <ele>484.251262</ele>
        <time>2021-04-29T09:28:15.964Z</time>
      </trkpt>
      <trkpt lat="45.83201" lon="3.05495">
        <ele>484.549164</ele>
        <time>2021-04-29T09:28:18.893Z</time>
      </trkpt>
      <trkpt lat="45.83212" lon="3.05476">
        <ele>485.363134</ele>
        <time>2021-04-29T09:28:25.320Z</time>
      </trkpt>
      <trkpt lat="45.83212" lon="3.05471">
        <ele>485.536808</ele>
        <time>2021-04-29T09:28:26.821Z</time>
      </trkpt>
      <trkpt lat="45.83211" lon="3.05461">
        <ele>485.854937</ele>
        <time>2021-04-29T09:28:29.845Z</time>
      </trkpt>
      <trkpt lat="45.83207" lon="3.05453">
        <ele>486.171276</ele>
        <time>2021-04-29T09:28:32.843Z</time>
      </trkpt>
      <trkpt lat="45.83204" lon="3.05449">
        <ele>486.377107</ele>
        <time>2021-04-29T09:28:34.586Z</time>
      </trkpt>
      <trkpt lat="45.83209" lon="3.05429">
        <ele>487.080498</ele>
        <time>2021-04-29T09:28:39.988Z</time>
      </trkpt>
      <trkpt lat="45.83219" lon="3.05404">
        <ele>488.040064</ele>
        <time>2021-04-29T09:28:49.022Z</time>
      </trkpt>
      <trkpt lat="45.83254" lon="3.05346">
        <ele>490.555227</ele>
        <time>2021-04-29T09:29:11.605Z</time>
      </trkpt>
      <trkpt lat="45.8326" lon="3.05335">
        <ele>491.034664</ele>
        <time>2021-04-29T09:29:15.384Z</time>
      </trkpt>
      <trkpt lat="45.83305" lon="3.05262">
        <ele>493.981088</ele>
        <time>2021-04-29T09:29:41.672Z</time>
      </trkpt>
      <trkpt lat="45.83317" lon="3.05241">
        <ele>494.758301</ele>
        <time>2021-04-29T09:29:48.750Z</time>
      </trkpt>
      <trkpt lat="45.83323" lon="3.05231">
        <ele>495.11915</ele>
        <time>2021-04-29T09:29:52.682Z</time>
      </trkpt>
      <trkpt lat="45.83366" lon="3.05122">
        <ele>498.713959</ele>
        <time>2021-04-29T09:30:26.245Z</time>
      </trkpt>
      <trkpt lat="45.83386" lon="3.0505">
        <ele>500.719235</ele>
        <time>2021-04-29T09:30:47.793Z</time>
      </trkpt>
      <trkpt lat="45.83417" lon="3.04934">
        <ele>503.728051</ele>
        <time>2021-04-29T09:31:17.681Z</time>
      </trkpt>
      <trkpt lat="45.83421" lon="3.0492">
        <ele>504.097446</ele>
        <time>2021-04-29T09:31:21.237Z</time>
      </trkpt>
      <trkpt lat="45.83426" lon="3.04902">
        <ele>504.567711</ele>
        <time>2021-04-29T09:31:26.369Z</time>
      </trkpt>
      <trkpt lat="45.83474" lon="3.04737">
        <ele>509.085358</ele>
        <time>2021-04-29T09:32:10.963Z</time>
      </trkpt>
      <trkpt lat="45.83479" lon="3.04719">
        <ele>509.580629</ele>
        <time>2021-04-29T09:32:15.705Z</time>
      </trkpt>
      <trkpt lat="45.83484" lon="3.04705">
        <ele>509.977541</ele>
        <time>2021-04-29T09:32:19.771Z</time>
      </trkpt>
      <trkpt lat="45.83505" lon="3.04665">
        <ele>511.281102</ele>
        <time>2021-04-29T09:32:32.341Z</time>
      </trkpt>
      <trkpt lat="45.83509" lon="3.04659">
        <ele>511.489757</ele>
        <time>2021-04-29T09:32:35.895Z</time>
      </trkpt>
      <trkpt lat="45.83513" lon="3.04654">
        <ele>511.681862</ele>
        <time>2021-04-29T09:32:37.702Z</time>
      </trkpt>
      <trkpt lat="45.83529" lon="3.0465">
        <ele>512.289881</ele>
        <time>2021-04-29T09:32:43.242Z</time>
      </trkpt>
      <trkpt lat="45.83551" lon="3.04659">
        <ele>513.340135</ele>
        <time>2021-04-29T09:32:53.095Z</time>
      </trkpt>
      <trkpt lat="45.83559" lon="3.04666">
        <ele>513.839244</ele>
        <time>2021-04-29T09:32:56.392Z</time>
      </trkpt>
      <trkpt lat="45.83565" lon="3.04671">
        <ele>514.188335</ele>
        <time>2021-04-29T09:32:59.405Z</time>
      </trkpt>
      <trkpt lat="45.8359" lon="3.04681">
        <ele>515.48055</ele>
        <time>2021-04-29T09:33:10.045Z</time>
      </trkpt>
      <trkpt lat="45.83633" lon="3.0468">
        <ele>517.655158</ele>
        <time>2021-04-29T09:33:27.460Z</time>
      </trkpt>
      <trkpt lat="45.83644" lon="3.04678">
        <ele>518.198822</ele>
        <time>2021-04-29T09:33:31.823Z</time>
      </trkpt>
      <trkpt lat="45.83647" lon="3.04678">
        <ele>518.382093</ele>
        <time>2021-04-29T09:33:34.612Z</time>
      </trkpt>
      <trkpt lat="45.83668" lon="3.04661">
        <ele>519.567953</ele>
        <time>2021-04-29T09:33:44.095Z</time>
      </trkpt>
      <trkpt lat="45.83698" lon="3.04593">
        <ele>522.710306</ele>
        <time>2021-04-29T09:34:10.159Z</time>
      </trkpt>
      <trkpt lat="45.83751" lon="3.04519">
        <ele>527.651439</ele>
        <time>2021-04-29T09:34:44.003Z</time>
      </trkpt>
      <trkpt lat="45.83756" lon="3.04512">
        <ele>528.131425</ele>
        <time>2021-04-29T09:34:47.283Z</time>
      </trkpt>
      <trkpt lat="45.83764" lon="3.04505">
        <ele>528.767588</ele>
        <time>2021-04-29T09:34:51.195Z</time>
      </trkpt>
      <trkpt lat="45.83771" lon="3.045">
        <ele>529.309796</ele>
        <time>2021-04-29T09:34:56.401Z</time>
      </trkpt>
      <trkpt lat="45.83799" lon="3.04488">
        <ele>531.239551</ele>
        <time>2021-04-29T09:35:09.147Z</time>
      </trkpt>
      <trkpt lat="45.83806" lon="3.04488">
        <ele>531.731366</ele>
        <time>2021-04-29T09:35:13.929Z</time>
      </trkpt>
      <trkpt lat="45.83806" lon="3.04484">
        <ele>531.917494</ele>
        <time>2021-04-29T09:35:16.477Z</time>
      </trkpt>
      <trkpt lat="45.83881" lon="3.04459">
        <ele>538.250487</ele>
        <time>2021-04-29T09:35:58.899Z</time>
      </trkpt>
      <trkpt lat="45.83893" lon="3.04445">
        <ele>539.716241</ele>
        <time>2021-04-29T09:36:08.021Z</time>
      </trkpt>
      <trkpt lat="45.83899" lon="3.04433">
        <ele>540.619502</ele>
        <time>2021-04-29T09:36:15.419Z</time>
      </trkpt>
      <trkpt lat="45.83901" lon="3.04428">
        <ele>540.97975</ele>
        <time>2021-04-29T09:36:18.815Z</time>
      </trkpt>
      <trkpt lat="45.8393" lon="3.04385">
        <ele>544.805265</ele>
        <time>2021-04-29T09:36:42.592Z</time>
      </trkpt>
      <trkpt lat="45.83942" lon="3.04374">
        <ele>546.114232</ele>
        <time>2021-04-29T09:36:51.738Z</time>
      </trkpt>
      <trkpt lat="45.83943" lon="3.04365">
        <ele>546.690968</ele>
        <time>2021-04-29T09:36:56.563Z</time>
      </trkpt>
      <trkpt lat="45.83954" lon="3.04333">
        <ele>548.951448</ele>
        <time>2021-04-29T09:37:10.556Z</time>
      </trkpt>
      <trkpt lat="45.83978" lon="3.04304">
        <ele>551.655414</ele>
        <time>2021-04-29T09:37:28.980Z</time>
      </trkpt>
      <trkpt lat="45.83989" lon="3.04294">
        <ele>552.799988</ele>
        <time>2021-04-29T09:37:38.115Z</time>
      </trkpt>
      <trkpt lat="45.83995" lon="3.04291">
        <ele>553.355885</ele>
        <time>2021-04-29T09:37:43.134Z</time>
      </trkpt>
      <trkpt lat="45.84042" lon="3.04273">
        <ele>557.511707</ele>
        <time>2021-04-29T09:38:10.211Z</time>
      </trkpt>
      <trkpt lat="45.84046" lon="3.04269">
        <ele>557.902472</ele>
        <time>2021-04-29T09:38:13.417Z</time>
      </trkpt>
      <trkpt lat="45.84048" lon="3.04267">
        <ele>558.083079</ele>
        <time>2021-04-29T09:38:15.635Z</time>
      </trkpt>
      <trkpt lat="45.84065" lon="3.0424">
        <ele>560.300535</ele>
        <time>2021-04-29T09:38:29.597Z</time>
      </trkpt>
      <trkpt lat="45.84073" lon="3.04218">
        <ele>561.756509</ele>
        <time>2021-04-29T09:38:38.867Z</time>
      </trkpt>
      <trkpt lat="45.84081" lon="3.04188">
        <ele>563.644897</ele>
        <time>2021-04-29T09:38:49.355Z</time>
      </trkpt>
      <trkpt lat="45.84079" lon="3.04186">
        <ele>563.918407</ele>
        <time>2021-04-29T09:38:51.726Z</time>
      </trkpt>
      <trkpt lat="45.84069" lon="3.04176">
        <ele>564.879874</ele>
        <time>2021-04-29T09:38:59.950Z</time>
      </trkpt>
      <trkpt lat="45.8406" lon="3.0416">
        <ele>565.956117</ele>
        <time>2021-04-29T09:39:09.541Z</time>
      </trkpt>
      <trkpt lat="45.84038" lon="3.04121">
        <ele>568.275276</ele>
        <time>2021-04-29T09:39:31.817Z</time>
      </trkpt>
      <trkpt lat="45.8402" lon="3.04044">
        <ele>571.916519</ele>
        <time>2021-04-29T09:40:06.812Z</time>
      </trkpt>
      <trkpt lat="45.84006" lon="3.0394">
        <ele>576.754113</ele>
        <time>2021-04-29T09:40:52.991Z</time>
      </trkpt>
      <trkpt lat="45.83978" lon="3.03898">
        <ele>579.476297</ele>
        <time>2021-04-29T09:41:18.382Z</time>
      </trkpt>
      <trkpt lat="45.83974" lon="3.03878">
        <ele>580.427367</ele>
        <time>2021-04-29T09:41:27.356Z</time>
      </trkpt>
      <trkpt lat="45.83977" lon="3.03805">
        <ele>583.87992</ele>
        <time>2021-04-29T09:42:00.314Z</time>
      </trkpt>
      <trkpt lat="45.83988" lon="3.03758">
        <ele>586.210253</ele>
        <time>2021-04-29T09:42:22.799Z</time>
      </trkpt>
      <trkpt lat="45.84027" lon="3.03688">
        <ele>590.470346</ele>
        <time>2021-04-29T09:43:03.508Z</time>
      </trkpt>
      <trkpt lat="45.84084" lon="3.03531">
        <ele>599.046171</ele>
        <time>2021-04-29T09:44:24.895Z</time>
      </trkpt>
      <trkpt lat="45.84105" lon="3.03491">
        <ele>601.478824</ele>
        <time>2021-04-29T09:44:47.202Z</time>
      </trkpt>
      <trkpt lat="45.84106" lon="3.03474">
        <ele>602.236567</ele>
        <time>2021-04-29T09:44:54.268Z</time>
      </trkpt>
      <trkpt lat="45.84108" lon="3.03461">
        <ele>602.755309</ele>
        <time>2021-04-29T09:44:59.452Z</time>
      </trkpt>
      <trkpt lat="45.84108" lon="3.03454">
        <ele>603.05055</ele>
        <time>2021-04-29T09:45:03.676Z</time>
      </trkpt>
      <trkpt lat="45.84106" lon="3.03385">
        <ele>605.903312</ele>
        <time>2021-04-29T09:45:33.330Z</time>
      </trkpt>
      <trkpt lat="45.84113" lon="3.03345">
        <ele>607.550346</ele>
        <time>2021-04-29T09:45:50.329Z</time>
      </trkpt>
      <trkpt lat="45.84157" lon="3.03215">
        <ele>613.316952</ele>
        <time>2021-04-29T09:46:50.743Z</time>
      </trkpt>
      <trkpt lat="45.84154" lon="3.03147">
        <ele>615.63823</ele>
        <time>2021-04-29T09:47:16.787Z</time>
      </trkpt>
      <trkpt lat="45.84154" lon="3.03147">
        <ele>615.666038</ele>
        <time>2021-04-29T09:47:17.522Z</time>
      </trkpt>
      <trkpt lat="45.84167" lon="3.03025">
        <ele>619.883408</ele>
        <time>2021-04-29T09:48:04.319Z</time>
      </trkpt>
      <trkpt lat="45.84178" lon="3.02866">
        <ele>625.705267</ele>
        <time>2021-04-29T09:49:10.077Z</time>
      </trkpt>
      <trkpt lat="45.84196" lon="3.02819">
        <ele>627.694837</ele>
        <time>2021-04-29T09:49:32.593Z</time>
      </trkpt>
      <trkpt lat="45.84201" lon="3.02789">
        <ele>628.81583</ele>
        <time>2021-04-29T09:49:45.335Z</time>
      </trkpt>
      <trkpt lat="45.84202" lon="3.02765">
        <ele>629.714141</ele>
        <time>2021-04-29T09:49:54.912Z</time>
      </trkpt>
      <trkpt lat="45.84221" lon="3.02665">
        <ele>632.908999</ele>
        <time>2021-04-29T09:50:35.834Z</time>
      </trkpt>
      <trkpt lat="45.84226" lon="3.02645">
        <ele>633.499576</ele>
        <time>2021-04-29T09:50:44.439Z</time>
      </trkpt>
      <trkpt lat="45.84247" lon="3.02589">
        <ele>635.26987</ele>
        <time>2021-04-29T09:51:01.643Z</time>
      </trkpt>
      <trkpt lat="45.84273" lon="3.02519">
        <ele>637.511827</ele>
        <time>2021-04-29T09:51:20.614Z</time>
      </trkpt>
      <trkpt lat="45.84276" lon="3.02514">
        <ele>637.685016</ele>
        <time>2021-04-29T09:51:22.320Z</time>
      </trkpt>
      <trkpt lat="45.84296" lon="3.02537">
        <ele>638.758895</ele>
        <time>2021-04-29T09:51:30.782Z</time>
      </trkpt>
      <trkpt lat="45.84327" lon="3.02559">
        <ele>640.232757</ele>
        <time>2021-04-29T09:51:43.821Z</time>
      </trkpt>
      <trkpt lat="45.84338" lon="3.02568">
        <ele>640.75946</ele>
        <time>2021-04-29T09:51:47.723Z</time>
      </trkpt>
      <trkpt lat="45.84343" lon="3.02561">
        <ele>641.044765</ele>
        <time>2021-04-29T09:51:50.402Z</time>
      </trkpt>
      <trkpt lat="45.84348" lon="3.02557">
        <ele>641.323877</ele>
        <time>2021-04-29T09:51:53.031Z</time>
      </trkpt>
      <trkpt lat="45.84354" lon="3.0256">
        <ele>641.56651</ele>
        <time>2021-04-29T09:51:54.683Z</time>
      </trkpt>
      <trkpt lat="45.84374" lon="3.02524">
        <ele>642.935783</ele>
        <time>2021-04-29T09:52:07.305Z</time>
      </trkpt>
      <trkpt lat="45.84382" lon="3.02513">
        <ele>643.421597</ele>
        <time>2021-04-29T09:52:11.167Z</time>
      </trkpt>
      <trkpt lat="45.84392" lon="3.02517">
        <ele>643.872985</ele>
        <time>2021-04-29T09:52:15.283Z</time>
      </trkpt>
      <trkpt lat="45.84395" lon="3.02518">
        <ele>644.024015</ele>
        <time>2021-04-29T09:52:17.093Z</time>
      </trkpt>
      <trkpt lat="45.84395" lon="3.02523">
        <ele>644.148536</ele>
        <time>2021-04-29T09:52:18.973Z</time>
      </trkpt>
      <trkpt lat="45.84397" lon="3.0253">
        <ele>644.393631</ele>
        <time>2021-04-29T09:52:21.394Z</time>
      </trkpt>
      <trkpt lat="45.84405" lon="3.02534">
        <ele>644.754315</ele>
        <time>2021-04-29T09:52:24.528Z</time>
      </trkpt>
      <trkpt lat="45.84408" lon="3.02533">
        <ele>644.879268</ele>
        <time>2021-04-29T09:52:25.727Z</time>
      </trkpt>
      <trkpt lat="45.84411" lon="3.0253">
        <ele>645.001765</ele>
        <time>2021-04-29T09:52:26.965Z</time>
      </trkpt>
      <trkpt lat="45.84413" lon="3.02519">
        <ele>645.362526</ele>
        <time>2021-04-29T09:52:30.521Z</time>
      </trkpt>
      <trkpt lat="45.84412" lon="3.02515">
        <ele>645.484243</ele>
        <time>2021-04-29T09:52:32.211Z</time>
      </trkpt>
      <trkpt lat="45.8441" lon="3.02512">
        <ele>645.6059</ele>
        <time>2021-04-29T09:52:33.751Z</time>
      </trkpt>
      <trkpt lat="45.84412" lon="3.02509">
        <ele>645.751831</ele>
        <time>2021-04-29T09:52:35.961Z</time>
      </trkpt>
      <trkpt lat="45.84429" lon="3.02458">
        <ele>649.064415</ele>
        <time>2021-04-29T09:52:55.851Z</time>
      </trkpt>
      <trkpt lat="45.84431" lon="3.02434">
        <ele>650.460822</ele>
        <time>2021-04-29T09:53:04.937Z</time>
      </trkpt>
      <trkpt lat="45.84431" lon="3.02416">
        <ele>651.478293</ele>
        <time>2021-04-29T09:53:12.077Z</time>
      </trkpt>
      <trkpt lat="45.8443" lon="3.0241">
        <ele>651.858751</ele>
        <time>2021-04-29T09:53:15.281Z</time>
      </trkpt>
      <trkpt lat="45.84425" lon="3.02367">
        <ele>654.386125</ele>
        <time>2021-04-29T09:53:32.402Z</time>
      </trkpt>
      <trkpt lat="45.84424" lon="3.02362">
        <ele>654.693963</ele>
        <time>2021-04-29T09:53:35.044Z</time>
      </trkpt>
      <trkpt lat="45.84424" lon="3.02354">
        <ele>655.183334</ele>
        <time>2021-04-29T09:53:37.918Z</time>
      </trkpt>
      <trkpt lat="45.84419" lon="3.02315">
        <ele>657.481992</ele>
        <time>2021-04-29T09:53:53.953Z</time>
      </trkpt>
      <trkpt lat="45.84416" lon="3.02291">
        <ele>658.914731</ele>
        <time>2021-04-29T09:54:03.825Z</time>
      </trkpt>
      <trkpt lat="45.84416" lon="3.02269">
        <ele>660.16528</ele>
        <time>2021-04-29T09:54:13.440Z</time>
      </trkpt>
      <trkpt lat="45.84414" lon="3.02247">
        <ele>661.614716</ele>
        <time>2021-04-29T09:54:21.949Z</time>
      </trkpt>
      <trkpt lat="45.84414" lon="3.0224">
        <ele>662.103819</ele>
        <time>2021-04-29T09:54:25.026Z</time>
      </trkpt>
      <trkpt lat="45.84414" lon="3.02225">
        <ele>663.131893</ele>
        <time>2021-04-29T09:54:32.218Z</time>
      </trkpt>
      <trkpt lat="45.8442" lon="3.02212">
        <ele>664.240641</ele>
        <time>2021-04-29T09:54:39.456Z</time>
      </trkpt>
      <trkpt lat="45.84431" lon="3.02206">
        <ele>665.35125</ele>
        <time>2021-04-29T09:54:45.806Z</time>
      </trkpt>
      <trkpt lat="45.84484" lon="3.02184">
        <ele>670.756832</ele>
        <time>2021-04-29T09:55:21.629Z</time>
      </trkpt>
      <trkpt lat="45.84538" lon="3.02102">
        <ele>678.521559</ele>
        <time>2021-04-29T09:56:11.069Z</time>
      </trkpt>
      <trkpt lat="45.84553" lon="3.02014">
        <ele>684.766151</ele>
        <time>2021-04-29T09:56:49.715Z</time>
      </trkpt>
      <trkpt lat="45.84571" lon="3.01979">
        <ele>687.774621</ele>
        <time>2021-04-29T09:57:09.166Z</time>
      </trkpt>
      <trkpt lat="45.8458" lon="3.01946">
        <ele>690.21574</ele>
        <time>2021-04-29T09:57:25.078Z</time>
      </trkpt>
      <trkpt lat="45.84583" lon="3.01897">
        <ele>693.604562</ele>
        <time>2021-04-29T09:57:47.176Z</time>
      </trkpt>
      <trkpt lat="45.84574" lon="3.01804">
        <ele>699.647237</ele>
        <time>2021-04-29T09:58:28.064Z</time>
      </trkpt>
      <trkpt lat="45.84564" lon="3.01753">
        <ele>702.974941</ele>
        <time>2021-04-29T09:58:50.269Z</time>
      </trkpt>
      <trkpt lat="45.84566" lon="3.0172">
        <ele>705.027049</ele>
        <time>2021-04-29T09:59:04.203Z</time>
      </trkpt>
      <trkpt lat="45.8455" lon="3.01668">
        <ele>708.527101</ele>
        <time>2021-04-29T09:59:27.509Z</time>
      </trkpt>
      <trkpt lat="45.84543" lon="3.01603">
        <ele>712.580715</ele>
        <time>2021-04-29T09:59:51.882Z</time>
      </trkpt>
      <trkpt lat="45.84533" lon="3.01585">
        <ele>713.827739</ele>
        <time>2021-04-29T09:59:59.559Z</time>
      </trkpt>
      <trkpt lat="45.845" lon="3.01569">
        <ele>716.599441</ele>
        <time>2021-04-29T10:00:18.979Z</time>
      </trkpt>
      <trkpt lat="45.84492" lon="3.0156">
        <ele>717.452665</ele>
        <time>2021-04-29T10:00:26.586Z</time>
      </trkpt>
      <trkpt lat="45.84484" lon="3.01542">
        <ele>718.604611</ele>
        <time>2021-04-29T10:00:35.672Z</time>
      </trkpt>
      <trkpt lat="45.84482" lon="3.01533">
        <ele>719.114041</ele>
        <time>2021-04-29T10:00:38.766Z</time>
      </trkpt>
      <trkpt lat="45.84512" lon="3.01516">
        <ele>721.638272</ele>
        <time>2021-04-29T10:00:56.339Z</time>
      </trkpt>
      <trkpt lat="45.84526" lon="3.01507">
        <ele>722.866883</ele>
        <time>2021-04-29T10:01:04.744Z</time>
      </trkpt>
      <trkpt lat="45.84553" lon="3.015">
        <ele>725.05668</ele>
        <time>2021-04-29T10:01:19.297Z</time>
      </trkpt>
      <trkpt lat="45.84558" lon="3.01493">
        <ele>725.57958</ele>
        <time>2021-04-29T10:01:23.114Z</time>
      </trkpt>
      <trkpt lat="45.8456" lon="3.01483">
        <ele>726.184351</ele>
        <time>2021-04-29T10:01:30.230Z</time>
      </trkpt>
      <trkpt lat="45.84572" lon="3.01402">
        <ele>731.029007</ele>
        <time>2021-04-29T10:02:08.975Z</time>
      </trkpt>
      <trkpt lat="45.84568" lon="3.01358">
        <ele>733.648618</ele>
        <time>2021-04-29T10:02:31.592Z</time>
      </trkpt>
      <trkpt lat="45.84578" lon="3.01302">
        <ele>736.982437</ele>
        <time>2021-04-29T10:03:00.351Z</time>
      </trkpt>
      <trkpt lat="45.84577" lon="3.01268">
        <ele>738.973892</ele>
        <time>2021-04-29T10:03:19.141Z</time>
      </trkpt>
      <trkpt lat="45.8457" lon="3.01242">
        <ele>740.604024</ele>
        <time>2021-04-29T10:03:31.848Z</time>
      </trkpt>
      <trkpt lat="45.84569" lon="3.01186">
        <ele>743.492861</ele>
        <time>2021-04-29T10:03:58.208Z</time>
      </trkpt>
      <trkpt lat="45.84572" lon="3.01163">
        <ele>744.603473</ele>
        <time>2021-04-29T10:04:09.934Z</time>
      </trkpt>
      <trkpt lat="45.84576" lon="3.01104">
        <ele>747.48382</ele>
        <time>2021-04-29T10:04:37.149Z</time>
      </trkpt>
      <trkpt lat="45.84601" lon="3.00978">
        <ele>753.825645</ele>
        <time>2021-04-29T10:05:34.984Z</time>
      </trkpt>
      <trkpt lat="45.84594" lon="3.00933">
        <ele>755.613752</ele>
        <time>2021-04-29T10:05:54.547Z</time>
      </trkpt>
      <trkpt lat="45.84596" lon="3.00871">
        <ele>757.933879</ele>
        <time>2021-04-29T10:06:18.679Z</time>
      </trkpt>
      <trkpt lat="45.8463" lon="3.00608">
        <ele>767.769481</ele>
        <time>2021-04-29T10:08:07.396Z</time>
      </trkpt>
      <trkpt lat="45.8463" lon="3.00589">
        <ele>768.428636</ele>
        <time>2021-04-29T10:08:15.387Z</time>
      </trkpt>
      <trkpt lat="45.84579" lon="3.00547">
        <ele>771.491646</ele>
        <time>2021-04-29T10:08:40.105Z</time>
      </trkpt>
      <trkpt lat="45.84554" lon="3.00534">
        <ele>772.86655</ele>
        <time>2021-04-29T10:08:51.359Z</time>
      </trkpt>
      <trkpt lat="45.8453" lon="3.0053">
        <ele>773.943184</ele>
        <time>2021-04-29T10:09:01.986Z</time>
      </trkpt>
      <trkpt lat="45.8441" lon="3.00527">
        <ele>779.442982</ele>
        <time>2021-04-29T10:09:50.187Z</time>
      </trkpt>
      <trkpt lat="45.84391" lon="3.00521">
        <ele>780.329263</ele>
        <time>2021-04-29T10:09:57.949Z</time>
      </trkpt>
      <trkpt lat="45.84219" lon="3.00442">
        <ele>788.333439</ele>
        <time>2021-04-29T10:11:09.262Z</time>
      </trkpt>
      <trkpt lat="45.84055" lon="3.0037">
        <ele>796.562441</ele>
        <time>2021-04-29T10:12:20.137Z</time>
      </trkpt>
      <trkpt lat="45.84024" lon="3.00276">
        <ele>800.167916</ele>
        <time>2021-04-29T10:12:52.454Z</time>
      </trkpt>
      <trkpt lat="45.84003" lon="3.00219">
        <ele>802.469544</ele>
        <time>2021-04-29T10:13:12.493Z</time>
      </trkpt>
      <trkpt lat="45.83986" lon="3.00176">
        <ele>804.205615</ele>
        <time>2021-04-29T10:13:27.392Z</time>
      </trkpt>
      <trkpt lat="45.83929" lon="2.99981">
        <ele>811.524663</ele>
        <time>2021-04-29T10:14:30.259Z</time>
      </trkpt>
      <trkpt lat="45.83833" lon="2.99763">
        <ele>820.902134</ele>
        <time>2021-04-29T10:15:47.670Z</time>
      </trkpt>
      <trkpt lat="45.8378" lon="2.99652">
        <ele>826.085038</ele>
        <time>2021-04-29T10:16:32.253Z</time>
      </trkpt>
      <trkpt lat="45.83764" lon="2.9945">
        <ele>834.358488</ele>
        <time>2021-04-29T10:17:39.642Z</time>
      </trkpt>
      <trkpt lat="45.83758" lon="2.99325">
        <ele>838.879019</ele>
        <time>2021-04-29T10:18:17.170Z</time>
      </trkpt>
      <trkpt lat="45.83736" lon="2.99251">
        <ele>841.61614</ele>
        <time>2021-04-29T10:18:41.782Z</time>
      </trkpt>
      <trkpt lat="45.83734" lon="2.9925">
        <ele>841.718811</ele>
        <time>2021-04-29T10:18:42.860Z</time>
      </trkpt>
      <trkpt lat="45.83747" lon="2.99216">
        <ele>843.033246</ele>
        <time>2021-04-29T10:18:53.927Z</time>
      </trkpt>
      <trkpt lat="45.83763" lon="2.9919">
        <ele>844.172205</ele>
        <time>2021-04-29T10:19:02.931Z</time>
      </trkpt>
      <trkpt lat="45.83769" lon="2.99169">
        <ele>844.94564</ele>
        <time>2021-04-29T10:19:10.207Z</time>
      </trkpt>
      <trkpt lat="45.83785" lon="2.9911">
        <ele>846.971519</ele>
        <time>2021-04-29T10:19:27.961Z</time>
      </trkpt>
      <trkpt lat="45.83828" lon="2.98729">
        <ele>859.769527</ele>
        <time>2021-04-29T10:21:20.544Z</time>
      </trkpt>
      <trkpt lat="45.83831" lon="2.98702">
        <ele>860.709571</ele>
        <time>2021-04-29T10:21:29.054Z</time>
      </trkpt>
      <trkpt lat="45.83833" lon="2.98667">
        <ele>861.890216</ele>
        <time>2021-04-29T10:21:40.042Z</time>
      </trkpt>
      <trkpt lat="45.83826" lon="2.98638">
        <ele>863.128907</ele>
        <time>2021-04-29T10:21:49.970Z</time>
      </trkpt>
      <trkpt lat="45.83794" lon="2.98584">
        <ele>865.956359</ele>
        <time>2021-04-29T10:22:12.981Z</time>
      </trkpt>
      <trkpt lat="45.83774" lon="2.98537">
        <ele>868.168661</ele>
        <time>2021-04-29T10:22:31.214Z</time>
      </trkpt>
      <trkpt lat="45.83715" lon="2.9838">
        <ele>875.097948</ele>
        <time>2021-04-29T10:23:46.280Z</time>
      </trkpt>
      <trkpt lat="45.8369" lon="2.98317">
        <ele>877.721989</ele>
        <time>2021-04-29T10:24:15.518Z</time>
      </trkpt>
      <trkpt lat="45.83672" lon="2.98272">
        <ele>879.625849</ele>
        <time>2021-04-29T10:24:36.445Z</time>
      </trkpt>
      <trkpt lat="45.83655" lon="2.98232">
        <ele>881.322897</ele>
        <time>2021-04-29T10:24:55.129Z</time>
      </trkpt>
      <trkpt lat="45.83629" lon="2.98193">
        <ele>882.891834</ele>
        <time>2021-04-29T10:25:16.041Z</time>
      </trkpt>
      <trkpt lat="45.83594" lon="2.98156">
        <ele>884.572348</ele>
        <time>2021-04-29T10:25:39.739Z</time>
      </trkpt>
      <trkpt lat="45.83563" lon="2.98097">
        <ele>886.544791</ele>
        <time>2021-04-29T10:26:06.891Z</time>
      </trkpt>
      <trkpt lat="45.83521" lon="2.98046">
        <ele>888.645011</ele>
        <time>2021-04-29T10:26:33.828Z</time>
      </trkpt>
      <trkpt lat="45.83399" lon="2.97895">
        <ele>892.683364</ele>
        <time>2021-04-29T10:27:50.608Z</time>
      </trkpt>
      <trkpt lat="45.83399" lon="2.97895">
        <ele>892.683364</ele>
        <time>2021-04-29T10:27:50.853Z</time>
      </trkpt>
      <trkpt lat="45.83367" lon="2.97885">
        <ele>893.291349</ele>
        <time>2021-04-29T10:28:04.131Z</time>
      </trkpt>
      <trkpt lat="45.8329" lon="2.97899">
        <ele>893.946809</ele>
        <time>2021-04-29T10:28:37.525Z</time>
      </trkpt>
      <trkpt lat="45.83214" lon="2.97901">
        <ele>894.58565</ele>
        <time>2021-04-29T10:29:06.515Z</time>
      </trkpt>
      <trkpt lat="45.83188" lon="2.97909">
        <ele>894.760977</ele>
        <time>2021-04-29T10:29:15.646Z</time>
      </trkpt>
      <trkpt lat="45.83097" lon="2.97965">
        <ele>895.224998</ele>
        <time>2021-04-29T10:29:51.157Z</time>
      </trkpt>
      <trkpt lat="45.83084" lon="2.98008">
        <ele>895.377068</ele>
        <time>2021-04-29T10:30:04.160Z</time>
      </trkpt>
      <trkpt lat="45.83062" lon="2.98034">
        <ele>895.51158</ele>
        <time>2021-04-29T10:30:16.273Z</time>
      </trkpt>
      <trkpt lat="45.83043" lon="2.98047">
        <ele>896.08509</ele>
        <time>2021-04-29T10:30:25.395Z</time>
      </trkpt>
      <trkpt lat="45.83081" lon="2.97852">
        <ele>901.626031</ele>
        <time>2021-04-29T10:31:39.306Z</time>
      </trkpt>
      <trkpt lat="45.83091" lon="2.97756">
        <ele>905.705395</ele>
        <time>2021-04-29T10:32:21.948Z</time>
      </trkpt>
      <trkpt lat="45.83104" lon="2.9764">
        <ele>911.682921</ele>
        <time>2021-04-29T10:33:16.462Z</time>
      </trkpt>
      <trkpt lat="45.831" lon="2.97506">
        <ele>919.022145</ele>
        <time>2021-04-29T10:34:23.152Z</time>
      </trkpt>
      <trkpt lat="45.83031" lon="2.9734">
        <ele>930.470247</ele>
        <time>2021-04-29T10:36:00.406Z</time>
      </trkpt>
      <trkpt lat="45.83014" lon="2.97144">
        <ele>940.501075</ele>
        <time>2021-04-29T10:37:33.729Z</time>
      </trkpt>
      <trkpt lat="45.82946" lon="2.9693">
        <ele>950.776195</ele>
        <time>2021-04-29T10:39:13.152Z</time>
      </trkpt>
      <trkpt lat="45.82755" lon="2.96571">
        <ele>968.396039</ele>
        <time>2021-04-29T10:42:21.581Z</time>
      </trkpt>
      <trkpt lat="45.82566" lon="2.96366">
        <ele>978.612267</ele>
        <time>2021-04-29T10:44:35.153Z</time>
      </trkpt>
      <trkpt lat="45.82464" lon="2.96332">
        <ele>979.769403</ele>
        <time>2021-04-29T10:45:19.115Z</time>
      </trkpt>
      <trkpt lat="45.82457" lon="2.96317">
        <ele>979.595882</ele>
        <time>2021-04-29T10:45:23.433Z</time>
      </trkpt>
      <trkpt lat="45.82296" lon="2.9632">
        <ele>976.231578</ele>
        <time>2021-04-29T10:46:11.527Z</time>
      </trkpt>
      <trkpt lat="45.82275" lon="2.96305">
        <ele>975.355177</ele>
        <time>2021-04-29T10:46:18.029Z</time>
      </trkpt>
      <trkpt lat="45.8224" lon="2.96291">
        <ele>973.991369</ele>
        <time>2021-04-29T10:46:28.298Z</time>
      </trkpt>
      <trkpt lat="45.82151" lon="2.96274">
        <ele>970.754856</ele>
        <time>2021-04-29T10:46:53.861Z</time>
      </trkpt>
      <trkpt lat="45.82094" lon="2.96263">
        <ele>969.095819</ele>
        <time>2021-04-29T10:47:10.898Z</time>
      </trkpt>
      <trkpt lat="45.82" lon="2.96227">
        <ele>966.304937</ele>
        <time>2021-04-29T10:47:40.617Z</time>
      </trkpt>
      <trkpt lat="45.81975" lon="2.96205">
        <ele>965.667883</ele>
        <time>2021-04-29T10:47:49.641Z</time>
      </trkpt>
      <trkpt lat="45.81923" lon="2.96161">
        <ele>964.598813</ele>
        <time>2021-04-29T10:48:08.546Z</time>
      </trkpt>
      <trkpt lat="45.81764" lon="2.96031">
        <ele>962.650597</ele>
        <time>2021-04-29T10:49:08.571Z</time>
      </trkpt>
      <trkpt lat="45.81474" lon="2.95848">
        <ele>964.044664</ele>
        <time>2021-04-29T10:51:15.599Z</time>
      </trkpt>
      <trkpt lat="45.81429" lon="2.95819">
        <ele>964.327339</ele>
        <time>2021-04-29T10:51:29.092Z</time>
      </trkpt>
      <trkpt lat="45.81397" lon="2.95797">
        <ele>964.529551</ele>
        <time>2021-04-29T10:51:38.544Z</time>
      </trkpt>
      <trkpt lat="45.81355" lon="2.95462">
        <ele>964.688428</ele>
        <time>2021-04-29T10:52:31.279Z</time>
      </trkpt>
      <trkpt lat="45.81359" lon="2.95439">
        <ele>964.635055</ele>
        <time>2021-04-29T10:52:34.460Z</time>
      </trkpt>
      <trkpt lat="45.81368" lon="2.95422">
        <ele>964.587783</ele>
        <time>2021-04-29T10:52:37.370Z</time>
      </trkpt>
      <trkpt lat="45.8139" lon="2.95408">
        <ele>964.508036</ele>
        <time>2021-04-29T10:52:42.306Z</time>
      </trkpt>
      <trkpt lat="45.814" lon="2.954">
        <ele>964.47239</ele>
        <time>2021-04-29T10:52:44.951Z</time>
      </trkpt>
      <trkpt lat="45.81406" lon="2.95373">
        <ele>964.408205</ele>
        <time>2021-04-29T10:52:49.613Z</time>
      </trkpt>
      <trkpt lat="45.81401" lon="2.95359">
        <ele>964.374615</ele>
        <time>2021-04-29T10:52:51.549Z</time>
      </trkpt>
      <trkpt lat="45.81398" lon="2.95349">
        <ele>964.350087</ele>
        <time>2021-04-29T10:52:53.838Z</time>
      </trkpt>
      <trkpt lat="45.81396" lon="2.95343">
        <ele>964.333574</ele>
        <time>2021-04-29T10:52:55.304Z</time>
      </trkpt>
      <trkpt lat="45.81393" lon="2.95333">
        <ele>964.309286</ele>
        <time>2021-04-29T10:52:57.076Z</time>
      </trkpt>
      <trkpt lat="45.81399" lon="2.95319">
        <ele>964.271855</ele>
        <time>2021-04-29T10:52:59.195Z</time>
      </trkpt>
      <trkpt lat="45.81401" lon="2.9531">
        <ele>964.249797</ele>
        <time>2021-04-29T10:53:00.518Z</time>
      </trkpt>
      <trkpt lat="45.81401" lon="2.95299">
        <ele>964.22511</ele>
        <time>2021-04-29T10:53:02.677Z</time>
      </trkpt>
      <trkpt lat="45.81398" lon="2.95279">
        <ele>964.179436</ele>
        <time>2021-04-29T10:53:05.579Z</time>
      </trkpt>
      <trkpt lat="45.81395" lon="2.9527">
        <ele>964.154373</ele>
        <time>2021-04-29T10:53:06.888Z</time>
      </trkpt>
      <trkpt lat="45.81388" lon="2.9526">
        <ele>964.123418</ele>
        <time>2021-04-29T10:53:08.717Z</time>
      </trkpt>
      <trkpt lat="45.81381" lon="2.95252">
        <ele>964.08155</ele>
        <time>2021-04-29T10:53:10.984Z</time>
      </trkpt>
      <trkpt lat="45.81372" lon="2.95249">
        <ele>964.031363</ele>
        <time>2021-04-29T10:53:12.568Z</time>
      </trkpt>
      <trkpt lat="45.81362" lon="2.95247">
        <ele>963.973409</ele>
        <time>2021-04-29T10:53:14.226Z</time>
      </trkpt>
      <trkpt lat="45.81355" lon="2.95249">
        <ele>963.931666</ele>
        <time>2021-04-29T10:53:15.661Z</time>
      </trkpt>
      <trkpt lat="45.81349" lon="2.95253">
        <ele>963.895048</ele>
        <time>2021-04-29T10:53:17.421Z</time>
      </trkpt>
      <trkpt lat="45.81333" lon="2.95242">
        <ele>963.792957</ele>
        <time>2021-04-29T10:53:20.808Z</time>
      </trkpt>
      <trkpt lat="45.81323" lon="2.9523">
        <ele>963.721002</ele>
        <time>2021-04-29T10:53:23.094Z</time>
      </trkpt>
      <trkpt lat="45.81321" lon="2.95221">
        <ele>963.68213</ele>
        <time>2021-04-29T10:53:24.898Z</time>
      </trkpt>
      <trkpt lat="45.81316" lon="2.95207">
        <ele>963.620862</ele>
        <time>2021-04-29T10:53:26.998Z</time>
      </trkpt>
      <trkpt lat="45.81315" lon="2.95201">
        <ele>963.595078</ele>
        <time>2021-04-29T10:53:27.672Z</time>
      </trkpt>
      <trkpt lat="45.81313" lon="2.95193">
        <ele>963.563877</ele>
        <time>2021-04-29T10:53:28.567Z</time>
      </trkpt>
      <trkpt lat="45.81306" lon="2.95164">
        <ele>963.441516</ele>
        <time>2021-04-29T10:53:33.665Z</time>
      </trkpt>
      <trkpt lat="45.81287" lon="2.95097">
        <ele>963.152821</ele>
        <time>2021-04-29T10:53:44.427Z</time>
      </trkpt>
      <trkpt lat="45.81274" lon="2.95052">
        <ele>963.258572</ele>
        <time>2021-04-29T10:53:52.415Z</time>
      </trkpt>
      <trkpt lat="45.81275" lon="2.95012">
        <ele>963.490115</ele>
        <time>2021-04-29T10:54:00.156Z</time>
      </trkpt>
      <trkpt lat="45.81274" lon="2.95003">
        <ele>963.543077</ele>
        <time>2021-04-29T10:54:01.100Z</time>
      </trkpt>
      <trkpt lat="45.81272" lon="2.94999">
        <ele>963.574903</ele>
        <time>2021-04-29T10:54:01.978Z</time>
      </trkpt>
      <trkpt lat="45.81269" lon="2.94997">
        <ele>963.603145</ele>
        <time>2021-04-29T10:54:02.771Z</time>
      </trkpt>
      <trkpt lat="45.81264" lon="2.94995">
        <ele>963.645542</ele>
        <time>2021-04-29T10:54:04.049Z</time>
      </trkpt>
      <trkpt lat="45.81259" lon="2.94996">
        <ele>963.687115</ele>
        <time>2021-04-29T10:54:05.473Z</time>
      </trkpt>
      <trkpt lat="45.81251" lon="2.95004">
        <ele>963.766985</ele>
        <time>2021-04-29T10:54:07.790Z</time>
      </trkpt>
      <trkpt lat="45.81249" lon="2.95007">
        <ele>963.790031</ele>
        <time>2021-04-29T10:54:09.317Z</time>
      </trkpt>
      <trkpt lat="45.81248" lon="2.95022">
        <ele>963.879089</ele>
        <time>2021-04-29T10:54:11.135Z</time>
      </trkpt>
      <trkpt lat="45.81258" lon="2.95065">
        <ele>964.147231</ele>
        <time>2021-04-29T10:54:19.536Z</time>
      </trkpt>
      <trkpt lat="45.81276" lon="2.95128">
        <ele>964.540903</ele>
        <time>2021-04-29T10:54:33.236Z</time>
      </trkpt>
      <trkpt lat="45.8128" lon="2.95143">
        <ele>964.649759</ele>
        <time>2021-04-29T10:54:36.930Z</time>
      </trkpt>
      <trkpt lat="45.81284" lon="2.95156">
        <ele>964.761792</ele>
        <time>2021-04-29T10:54:40.056Z</time>
      </trkpt>
      <trkpt lat="45.8129" lon="2.95179">
        <ele>964.948374</ele>
        <time>2021-04-29T10:54:44.746Z</time>
      </trkpt>
      <trkpt lat="45.81258" lon="2.95143">
        <ele>965.394925</ele>
        <time>2021-04-29T10:55:03.616Z</time>
      </trkpt>
      <trkpt lat="45.81206" lon="2.95093">
        <ele>966.090725</ele>
        <time>2021-04-29T10:55:29.278Z</time>
      </trkpt>
      <trkpt lat="45.81166" lon="2.95078">
        <ele>966.54574</ele>
        <time>2021-04-29T10:55:44.587Z</time>
      </trkpt>
      <trkpt lat="45.81091" lon="2.95078">
        <ele>966.238878</ele>
        <time>2021-04-29T10:56:11.736Z</time>
      </trkpt>
      <trkpt lat="45.81031" lon="2.95091">
        <ele>965.952891</ele>
        <time>2021-04-29T10:56:33.243Z</time>
      </trkpt>
      <trkpt lat="45.81013" lon="2.95097">
        <ele>965.866659</ele>
        <time>2021-04-29T10:56:39.651Z</time>
      </trkpt>
      <trkpt lat="45.80983" lon="2.95104">
        <ele>965.709872</ele>
        <time>2021-04-29T10:56:49.925Z</time>
      </trkpt>
      <trkpt lat="45.8092" lon="2.95104">
        <ele>964.792647</ele>
        <time>2021-04-29T10:57:11.216Z</time>
      </trkpt>
      <trkpt lat="45.80701" lon="2.95048">
        <ele>962.131672</ele>
        <time>2021-04-29T10:58:22.400Z</time>
      </trkpt>
      <trkpt lat="45.80678" lon="2.9504">
        <ele>961.912773</ele>
        <time>2021-04-29T10:58:30.168Z</time>
      </trkpt>
      <trkpt lat="45.80623" lon="2.95017">
        <ele>961.760918</ele>
        <time>2021-04-29T10:58:51.034Z</time>
      </trkpt>
      <trkpt lat="45.8057" lon="2.9501">
        <ele>963.754144</ele>
        <time>2021-04-29T10:59:15.324Z</time>
      </trkpt>
      <trkpt lat="45.80524" lon="2.94995">
        <ele>965.485232</ele>
        <time>2021-04-29T10:59:39.999Z</time>
      </trkpt>
      <trkpt lat="45.805" lon="2.95003">
        <ele>966.388584</ele>
        <time>2021-04-29T10:59:53.982Z</time>
      </trkpt>
      <trkpt lat="45.80476" lon="2.95023">
        <ele>967.414849</ele>
        <time>2021-04-29T11:00:10.323Z</time>
      </trkpt>
      <trkpt lat="45.80432" lon="2.95038">
        <ele>970.113543</ele>
        <time>2021-04-29T11:00:38.674Z</time>
      </trkpt>
      <trkpt lat="45.80361" lon="2.95072">
        <ele>975.799934</ele>
        <time>2021-04-29T11:01:29.565Z</time>
      </trkpt>
      <trkpt lat="45.80353" lon="2.95083">
        <ele>976.642975</ele>
        <time>2021-04-29T11:01:37.443Z</time>
      </trkpt>
      <trkpt lat="45.80342" lon="2.95113">
        <ele>978.450862</ele>
        <time>2021-04-29T11:01:54.725Z</time>
      </trkpt>
      <trkpt lat="45.80278" lon="2.95163">
        <ele>983.932499</ele>
        <time>2021-04-29T11:02:45.253Z</time>
      </trkpt>
      <trkpt lat="45.80252" lon="2.95168">
        <ele>985.879369</ele>
        <time>2021-04-29T11:03:02.922Z</time>
      </trkpt>
      <trkpt lat="45.80095" lon="2.95129">
        <ele>997.446373</ele>
        <time>2021-04-29T11:04:49.255Z</time>
      </trkpt>
      <trkpt lat="45.80071" lon="2.95088">
        <ele>999.758267</ele>
        <time>2021-04-29T11:05:12.681Z</time>
      </trkpt>
      <trkpt lat="45.79976" lon="2.95079">
        <ele>1005.715874</ele>
        <time>2021-04-29T11:06:12.228Z</time>
      </trkpt>
      <trkpt lat="45.79924" lon="2.95032">
        <ele>1008.194653</ele>
        <time>2021-04-29T11:06:44.689Z</time>
      </trkpt>
      <trkpt lat="45.79902" lon="2.9499">
        <ele>1009.506361</ele>
        <time>2021-04-29T11:07:03.344Z</time>
      </trkpt>
      <trkpt lat="45.79846" lon="2.9499">
        <ele>1011.497764</ele>
        <time>2021-04-29T11:07:30.804Z</time>
      </trkpt>
      <trkpt lat="45.79819" lon="2.95023">
        <ele>1012.736923</ele>
        <time>2021-04-29T11:07:47.384Z</time>
      </trkpt>
      <trkpt lat="45.79807" lon="2.95021">
        <ele>1013.248162</ele>
        <time>2021-04-29T11:07:52.986Z</time>
      </trkpt>
      <trkpt lat="45.79788" lon="2.95019">
        <ele>1014.003721</ele>
        <time>2021-04-29T11:08:01.785Z</time>
      </trkpt>
      <trkpt lat="45.79628" lon="2.95049">
        <ele>1020.807159</ele>
        <time>2021-04-29T11:09:30.144Z</time>
      </trkpt>
      <trkpt lat="45.79608" lon="2.9506">
        <ele>1021.876317</ele>
        <time>2021-04-29T11:09:42.247Z</time>
      </trkpt>
      <trkpt lat="45.79597" lon="2.95075">
        <ele>1022.624584</ele>
        <time>2021-04-29T11:09:52.677Z</time>
      </trkpt>
      <trkpt lat="45.79563" lon="2.95037">
        <ele>1024.802741</ele>
        <time>2021-04-29T11:10:18.919Z</time>
      </trkpt>
      <trkpt lat="45.7955" lon="2.95009">
        <ele>1025.968244</ele>
        <time>2021-04-29T11:10:32.732Z</time>
      </trkpt>
      <trkpt lat="45.7952" lon="2.94968">
        <ele>1028.023935</ele>
        <time>2021-04-29T11:10:57.300Z</time>
      </trkpt>
      <trkpt lat="45.79511" lon="2.94942">
        <ele>1029.021562</ele>
        <time>2021-04-29T11:11:07.716Z</time>
      </trkpt>
      <trkpt lat="45.79511" lon="2.94927">
        <ele>1029.408174</ele>
        <time>2021-04-29T11:11:14.471Z</time>
      </trkpt>
      <trkpt lat="45.7932" lon="2.94674">
        <ele>1034.845071</ele>
        <time>2021-04-29T11:13:07.656Z</time>
      </trkpt>
      <trkpt lat="45.79292" lon="2.94617">
        <ele>1035.827307</ele>
        <time>2021-04-29T11:13:29.899Z</time>
      </trkpt>
      <trkpt lat="45.79285" lon="2.94605">
        <ele>1036.044744</ele>
        <time>2021-04-29T11:13:34.523Z</time>
      </trkpt>
      <trkpt lat="45.79265" lon="2.94573">
        <ele>1036.649542</ele>
        <time>2021-04-29T11:13:48.883Z</time>
      </trkpt>
      <trkpt lat="45.79259" lon="2.94549">
        <ele>1037.155515</ele>
        <time>2021-04-29T11:13:57.728Z</time>
      </trkpt>
      <trkpt lat="45.79214" lon="2.94504">
        <ele>1038.871992</ele>
        <time>2021-04-29T11:14:24.396Z</time>
      </trkpt>
      <trkpt lat="45.79194" lon="2.94483">
        <ele>1039.647621</ele>
        <time>2021-04-29T11:14:37.162Z</time>
      </trkpt>
      <trkpt lat="45.7916" lon="2.94453">
        <ele>1040.886414</ele>
        <time>2021-04-29T11:14:57.516Z</time>
      </trkpt>
      <trkpt lat="45.79125" lon="2.94436">
        <ele>1042.04607</ele>
        <time>2021-04-29T11:15:17.052Z</time>
      </trkpt>
      <trkpt lat="45.79018" lon="2.94411">
        <ele>1043.732373</ele>
        <time>2021-04-29T11:16:08.520Z</time>
      </trkpt>
      <trkpt lat="45.78929" lon="2.94405">
        <ele>1044.791193</ele>
        <time>2021-04-29T11:16:41.613Z</time>
      </trkpt>
      <trkpt lat="45.78903" lon="2.94404">
        <ele>1044.501367</ele>
        <time>2021-04-29T11:16:50.528Z</time>
      </trkpt>
      <trkpt lat="45.78881" lon="2.94403">
        <ele>1044.264233</ele>
        <time>2021-04-29T11:16:57.288Z</time>
      </trkpt>
      <trkpt lat="45.78782" lon="2.94451">
        <ele>1043.120201</ele>
        <time>2021-04-29T11:17:30.860Z</time>
      </trkpt>
      <trkpt lat="45.78713" lon="2.94442">
        <ele>1043.507227</ele>
        <time>2021-04-29T11:17:55.839Z</time>
      </trkpt>
      <trkpt lat="45.78696" lon="2.94459">
        <ele>1043.768142</ele>
        <time>2021-04-29T11:18:04.772Z</time>
      </trkpt>
      <trkpt lat="45.78661" lon="2.94502">
        <ele>1044.34181</ele>
        <time>2021-04-29T11:18:23.546Z</time>
      </trkpt>
      <trkpt lat="45.78631" lon="2.94542">
        <ele>1044.854401</ele>
        <time>2021-04-29T11:18:42.057Z</time>
      </trkpt>
      <trkpt lat="45.78615" lon="2.94609">
        <ele>1046.324293</ele>
        <time>2021-04-29T11:19:07.008Z</time>
      </trkpt>
      <trkpt lat="45.78615" lon="2.94609">
        <ele>1046.324293</ele>
        <time>2021-04-29T11:19:07.099Z</time>
      </trkpt>
      <trkpt lat="45.78604" lon="2.94653">
        <ele>1047.816683</ele>
        <time>2021-04-29T11:19:24.563Z</time>
      </trkpt>
      <trkpt lat="45.78612" lon="2.94727">
        <ele>1050.161621</ele>
        <time>2021-04-29T11:19:53.973Z</time>
      </trkpt>
      <trkpt lat="45.78624" lon="2.94818">
        <ele>1053.099766</ele>
        <time>2021-04-29T11:20:31.595Z</time>
      </trkpt>
      <trkpt lat="45.78656" lon="2.94951">
        <ele>1057.957178</ele>
        <time>2021-04-29T11:21:29.752Z</time>
      </trkpt>
      <trkpt lat="45.78639" lon="2.95016">
        <ele>1060.347444</ele>
        <time>2021-04-29T11:21:57.436Z</time>
      </trkpt>
      <trkpt lat="45.78634" lon="2.95138">
        <ele>1063.28075</ele>
        <time>2021-04-29T11:22:42.843Z</time>
      </trkpt>
      <trkpt lat="45.78626" lon="2.95209">
        <ele>1064.401974</ele>
        <time>2021-04-29T11:23:05.867Z</time>
      </trkpt>
      <trkpt lat="45.78613" lon="2.95319">
        <ele>1066.132623</ele>
        <time>2021-04-29T11:23:38.085Z</time>
      </trkpt>
      <trkpt lat="45.78601" lon="2.95509">
        <ele>1068.019833</ele>
        <time>2021-04-29T11:24:32.727Z</time>
      </trkpt>
      <trkpt lat="45.78583" lon="2.95629">
        <ele>1070.304246</ele>
        <time>2021-04-29T11:25:10.827Z</time>
      </trkpt>
      <trkpt lat="45.78582" lon="2.95782">
        <ele>1075.229428</ele>
        <time>2021-04-29T11:26:10.207Z</time>
      </trkpt>
      <trkpt lat="45.78587" lon="2.95852">
        <ele>1077.731868</ele>
        <time>2021-04-29T11:26:41.800Z</time>
      </trkpt>
      <trkpt lat="45.78591" lon="2.95864">
        <ele>1078.416167</ele>
        <time>2021-04-29T11:26:49.712Z</time>
      </trkpt>
      <trkpt lat="45.78599" lon="2.95923">
        <ele>1081.3635</ele>
        <time>2021-04-29T11:27:17.000Z</time>
      </trkpt>
      <trkpt lat="45.78609" lon="2.95946">
        <ele>1082.718115</ele>
        <time>2021-04-29T11:27:28.785Z</time>
      </trkpt>
      <trkpt lat="45.78622" lon="2.95988">
        <ele>1084.972063</ele>
        <time>2021-04-29T11:27:51.391Z</time>
      </trkpt>
      <trkpt lat="45.7862" lon="2.96005">
        <ele>1085.846604</ele>
        <time>2021-04-29T11:28:02.014Z</time>
      </trkpt>
      <trkpt lat="45.78608" lon="2.96035">
        <ele>1087.530902</ele>
        <time>2021-04-29T11:28:17.104Z</time>
      </trkpt>
      <trkpt lat="45.7854" lon="2.96116">
        <ele>1090.859283</ele>
        <time>2021-04-29T11:29:09.775Z</time>
      </trkpt>
      <trkpt lat="45.7851" lon="2.96158">
        <ele>1091.640224</ele>
        <time>2021-04-29T11:29:29.945Z</time>
      </trkpt>
      <trkpt lat="45.78486" lon="2.96122">
        <ele>1092.298929</ele>
        <time>2021-04-29T11:29:42.896Z</time>
      </trkpt>
      <trkpt lat="45.78468" lon="2.96111">
        <ele>1092.665315</ele>
        <time>2021-04-29T11:29:49.465Z</time>
      </trkpt>
      <trkpt lat="45.78457" lon="2.96105">
        <ele>1092.873052</ele>
        <time>2021-04-29T11:29:53.091Z</time>
      </trkpt>
      <trkpt lat="45.78353" lon="2.96124">
        <ele>1089.82067</ele>
        <time>2021-04-29T11:30:23.889Z</time>
      </trkpt>
      <trkpt lat="45.78326" lon="2.96112">
        <ele>1088.744067</ele>
        <time>2021-04-29T11:30:31.860Z</time>
      </trkpt>
      <trkpt lat="45.78285" lon="2.96052">
        <ele>1086.563219</ele>
        <time>2021-04-29T11:30:48.217Z</time>
      </trkpt>
      <trkpt lat="45.78267" lon="2.95984">
        <ele>1084.826961</ele>
        <time>2021-04-29T11:31:02.274Z</time>
      </trkpt>
      <trkpt lat="45.78211" lon="2.95818">
        <ele>1080.453037</ele>
        <time>2021-04-29T11:31:40.479Z</time>
      </trkpt>
      <trkpt lat="45.78209" lon="2.95811">
        <ele>1080.322474</ele>
        <time>2021-04-29T11:31:41.849Z</time>
      </trkpt>
      <trkpt lat="45.78198" lon="2.95798">
        <ele>1080.227927</ele>
        <time>2021-04-29T11:31:47.029Z</time>
      </trkpt>
      <trkpt lat="45.78159" lon="2.95727">
        <ele>1079.814355</ele>
        <time>2021-04-29T11:32:08.125Z</time>
      </trkpt>
      <trkpt lat="45.78134" lon="2.95638">
        <ele>1079.375126</ele>
        <time>2021-04-29T11:32:32.529Z</time>
      </trkpt>
      <trkpt lat="45.78119" lon="2.95616">
        <ele>1079.239465</ele>
        <time>2021-04-29T11:32:41.490Z</time>
      </trkpt>
      <trkpt lat="45.78104" lon="2.95566">
        <ele>1079.118869</ele>
        <time>2021-04-29T11:32:57.109Z</time>
      </trkpt>
      <trkpt lat="45.78076" lon="2.95526">
        <ele>1079.058952</ele>
        <time>2021-04-29T11:33:12.319Z</time>
      </trkpt>
      <trkpt lat="45.78034" lon="2.95395">
        <ele>1078.905302</ele>
        <time>2021-04-29T11:33:47.967Z</time>
      </trkpt>
      <trkpt lat="45.78013" lon="2.95366">
        <ele>1078.785467</ele>
        <time>2021-04-29T11:33:57.850Z</time>
      </trkpt>
      <trkpt lat="45.77953" lon="2.95339">
        <ele>1078.368745</ele>
        <time>2021-04-29T11:34:19.101Z</time>
      </trkpt>
      <trkpt lat="45.7794" lon="2.95333">
        <ele>1078.27848</ele>
        <time>2021-04-29T11:34:24.110Z</time>
      </trkpt>
      <trkpt lat="45.77856" lon="2.95274">
        <ele>1077.666633</ele>
        <time>2021-04-29T11:34:56.422Z</time>
      </trkpt>
      <trkpt lat="45.77798" lon="2.95254">
        <ele>1077.428337</ele>
        <time>2021-04-29T11:35:18.673Z</time>
      </trkpt>
      <trkpt lat="45.7777" lon="2.95254">
        <ele>1077.315596</ele>
        <time>2021-04-29T11:35:28.868Z</time>
      </trkpt>
      <trkpt lat="45.7774" lon="2.9524">
        <ele>1077.190104</ele>
        <time>2021-04-29T11:35:40.104Z</time>
      </trkpt>
      <trkpt lat="45.77705" lon="2.95235">
        <ele>1077.050621</ele>
        <time>2021-04-29T11:35:52.343Z</time>
      </trkpt>
      <trkpt lat="45.77634" lon="2.95263">
        <ele>1077.065403</ele>
        <time>2021-04-29T11:36:17.246Z</time>
      </trkpt>
      <trkpt lat="45.77609" lon="2.95281">
        <ele>1077.118136</ele>
        <time>2021-04-29T11:36:27.392Z</time>
      </trkpt>
      <trkpt lat="45.77575" lon="2.95288">
        <ele>1077.181016</ele>
        <time>2021-04-29T11:36:40.402Z</time>
      </trkpt>
      <trkpt lat="45.77518" lon="2.95216">
        <ele>1077.602358</ele>
        <time>2021-04-29T11:37:11.223Z</time>
      </trkpt>
      <trkpt lat="45.7745" lon="2.95197">
        <ele>1079.492267</ele>
        <time>2021-04-29T11:37:42.750Z</time>
      </trkpt>
      <trkpt lat="45.77381" lon="2.95188">
        <ele>1081.375344</ele>
        <time>2021-04-29T11:38:17.462Z</time>
      </trkpt>
      <trkpt lat="45.77241" lon="2.95203">
        <ele>1086.163545</ele>
        <time>2021-04-29T11:39:32.303Z</time>
      </trkpt>
      <trkpt lat="45.77187" lon="2.95226">
        <ele>1088.197687</ele>
        <time>2021-04-29T11:40:00.986Z</time>
      </trkpt>
      <trkpt lat="45.77148" lon="2.95229">
        <ele>1089.150414</ele>
        <time>2021-04-29T11:40:19.850Z</time>
      </trkpt>
      <trkpt lat="45.77004" lon="2.95319">
        <ele>1092.0994</ele>
        <time>2021-04-29T11:41:29.710Z</time>
      </trkpt>
      <trkpt lat="45.76976" lon="2.95324">
        <ele>1092.092752</ele>
        <time>2021-04-29T11:41:40.701Z</time>
      </trkpt>
      <trkpt lat="45.76784" lon="2.95417">
        <ele>1091.143211</ele>
        <time>2021-04-29T11:42:52.822Z</time>
      </trkpt>
      <trkpt lat="45.76727" lon="2.95409">
        <ele>1090.163299</ele>
        <time>2021-04-29T11:43:11.173Z</time>
      </trkpt>
      <trkpt lat="45.76671" lon="2.9542">
        <ele>1089.20881</ele>
        <time>2021-04-29T11:43:28.558Z</time>
      </trkpt>
      <trkpt lat="45.76632" lon="2.9544">
        <ele>1087.802265</ele>
        <time>2021-04-29T11:43:41.127Z</time>
      </trkpt>
      <trkpt lat="45.7663" lon="2.95441">
        <ele>1087.741265</ele>
        <time>2021-04-29T11:43:41.516Z</time>
      </trkpt>
      <trkpt lat="45.76574" lon="2.95488">
        <ele>1085.080488</ele>
        <time>2021-04-29T11:44:00.902Z</time>
      </trkpt>
      <trkpt lat="45.76439" lon="2.95537">
        <ele>1078.309808</ele>
        <time>2021-04-29T11:44:38.766Z</time>
      </trkpt>
      <trkpt lat="45.76437" lon="2.95538">
        <ele>1078.168258</ele>
        <time>2021-04-29T11:44:41.670Z</time>
      </trkpt>
      <trkpt lat="45.76421" lon="2.95544">
        <ele>1077.140251</ele>
        <time>2021-04-29T11:45:02.341Z</time>
      </trkpt>
      <trkpt lat="45.76421" lon="2.95544">
        <ele>1077.140251</ele>
        <time>2021-04-29T11:45:02.355Z</time>
      </trkpt>
      <trkpt lat="45.76393" lon="2.95553">
        <ele>1075.386471</ele>
        <time>2021-04-29T11:45:08.137Z</time>
      </trkpt>
      <trkpt lat="45.76392" lon="2.95565">
        <ele>1074.884941</ele>
        <time>2021-04-29T11:45:09.248Z</time>
      </trkpt>
      <trkpt lat="45.76385" lon="2.95607">
        <ele>1073.011908</ele>
        <time>2021-04-29T11:45:13.696Z</time>
      </trkpt>
      <trkpt lat="45.76374" lon="2.95625">
        <ele>1072.012516</ele>
        <time>2021-04-29T11:45:16.103Z</time>
      </trkpt>
      <trkpt lat="45.76366" lon="2.95632">
        <ele>1071.447318</ele>
        <time>2021-04-29T11:45:17.385Z</time>
      </trkpt>
      <trkpt lat="45.76355" lon="2.95638">
        <ele>1070.723951</ele>
        <time>2021-04-29T11:45:19.096Z</time>
      </trkpt>
      <trkpt lat="45.76339" lon="2.95656">
        <ele>1069.734328</ele>
        <time>2021-04-29T11:45:22.139Z</time>
      </trkpt>
      <trkpt lat="45.76336" lon="2.95666">
        <ele>1069.371902</ele>
        <time>2021-04-29T11:45:23.222Z</time>
      </trkpt>
      <trkpt lat="45.76329" lon="2.95666">
        <ele>1069.039245</ele>
        <time>2021-04-29T11:45:25.113Z</time>
      </trkpt>
      <trkpt lat="45.7632" lon="2.95665">
        <ele>1068.615407</ele>
        <time>2021-04-29T11:45:27.454Z</time>
      </trkpt>
      <trkpt lat="45.76318" lon="2.95665">
        <ele>1068.489857</ele>
        <time>2021-04-29T11:45:28.293Z</time>
      </trkpt>
      <trkpt lat="45.76304" lon="2.95683">
        <ele>1067.617426</ele>
        <time>2021-04-29T11:45:33.224Z</time>
      </trkpt>
      <trkpt lat="45.76289" lon="2.95706">
        <ele>1066.525701</ele>
        <time>2021-04-29T11:45:39.543Z</time>
      </trkpt>
      <trkpt lat="45.76278" lon="2.95714">
        <ele>1065.963929</ele>
        <time>2021-04-29T11:45:42.608Z</time>
      </trkpt>
      <trkpt lat="45.76259" lon="2.95723">
        <ele>1064.993246</ele>
        <time>2021-04-29T11:45:48.725Z</time>
      </trkpt>
      <trkpt lat="45.76237" lon="2.95736">
        <ele>1063.850733</ele>
        <time>2021-04-29T11:45:55.257Z</time>
      </trkpt>
      <trkpt lat="45.76225" lon="2.95743">
        <ele>1063.22132</ele>
        <time>2021-04-29T11:45:59.129Z</time>
      </trkpt>
      <trkpt lat="45.76211" lon="2.95741">
        <ele>1062.58529</ele>
        <time>2021-04-29T11:46:02.972Z</time>
      </trkpt>
      <trkpt lat="45.76195" lon="2.95738">
        <ele>1061.813494</ele>
        <time>2021-04-29T11:46:07.685Z</time>
      </trkpt>
      <trkpt lat="45.76164" lon="2.95732">
        <ele>1060.332102</ele>
        <time>2021-04-29T11:46:16.873Z</time>
      </trkpt>
      <trkpt lat="45.76159" lon="2.95734">
        <ele>1060.083498</ele>
        <time>2021-04-29T11:46:18.271Z</time>
      </trkpt>
      <trkpt lat="45.76117" lon="2.95754">
        <ele>1057.977174</ele>
        <time>2021-04-29T11:46:31.086Z</time>
      </trkpt>
      <trkpt lat="45.7606" lon="2.95766">
        <ele>1055.243567</ele>
        <time>2021-04-29T11:46:47.186Z</time>
      </trkpt>
      <trkpt lat="45.7603" lon="2.95812">
        <ele>1052.96816</ele>
        <time>2021-04-29T11:46:58.855Z</time>
      </trkpt>
      <trkpt lat="45.76006" lon="2.95876">
        <ele>1049.51595</ele>
        <time>2021-04-29T11:47:11.955Z</time>
      </trkpt>
      <trkpt lat="45.75977" lon="2.95879">
        <ele>1047.581375</ele>
        <time>2021-04-29T11:47:19.281Z</time>
      </trkpt>
      <trkpt lat="45.75947" lon="2.95883">
        <ele>1045.489479</ele>
        <time>2021-04-29T11:47:27.236Z</time>
      </trkpt>
      <trkpt lat="45.75913" lon="2.95879">
        <ele>1043.210551</ele>
        <time>2021-04-29T11:47:35.967Z</time>
      </trkpt>
      <trkpt lat="45.75881" lon="2.95859">
        <ele>1040.7854</ele>
        <time>2021-04-29T11:47:45.413Z</time>
      </trkpt>
      <trkpt lat="45.75665" lon="2.95694">
        <ele>1021.9781</ele>
        <time>2021-04-29T11:48:49.169Z</time>
      </trkpt>
      <trkpt lat="45.75658" lon="2.95685">
        <ele>1021.089623</ele>
        <time>2021-04-29T11:48:51.328Z</time>
      </trkpt>
      <trkpt lat="45.75665" lon="2.95713">
        <ele>1019.055724</ele>
        <time>2021-04-29T11:48:56.307Z</time>
      </trkpt>
      <trkpt lat="45.75669" lon="2.9577">
        <ele>1015.143057</ele>
        <time>2021-04-29T11:49:05.887Z</time>
      </trkpt>
      <trkpt lat="45.75661" lon="2.95798">
        <ele>1013.064048</ele>
        <time>2021-04-29T11:49:10.926Z</time>
      </trkpt>
      <trkpt lat="45.75625" lon="2.95845">
        <ele>1007.990337</ele>
        <time>2021-04-29T11:49:22.404Z</time>
      </trkpt>
      <trkpt lat="45.75611" lon="2.95872">
        <ele>1005.385911</ele>
        <time>2021-04-29T11:49:28.062Z</time>
      </trkpt>
      <trkpt lat="45.75583" lon="2.95902">
        <ele>1001.554917</ele>
        <time>2021-04-29T11:49:36.544Z</time>
      </trkpt>
      <trkpt lat="45.75496" lon="2.95959">
        <ele>991.37405</ele>
        <time>2021-04-29T11:49:59.823Z</time>
      </trkpt>
      <trkpt lat="45.75461" lon="2.96001">
        <ele>988.048833</ele>
        <time>2021-04-29T11:50:11.425Z</time>
      </trkpt>
      <trkpt lat="45.75443" lon="2.96024">
        <ele>986.254807</ele>
        <time>2021-04-29T11:50:17.786Z</time>
      </trkpt>
      <trkpt lat="45.7543" lon="2.96083">
        <ele>983.086379</ele>
        <time>2021-04-29T11:50:29.128Z</time>
      </trkpt>
      <trkpt lat="45.75403" lon="2.96153">
        <ele>979.040366</ele>
        <time>2021-04-29T11:50:43.659Z</time>
      </trkpt>
      <trkpt lat="45.75364" lon="2.96195">
        <ele>976.278297</ele>
        <time>2021-04-29T11:50:56.606Z</time>
      </trkpt>
      <trkpt lat="45.7533" lon="2.96217">
        <ele>974.227917</ele>
        <time>2021-04-29T11:51:06.711Z</time>
      </trkpt>
      <trkpt lat="45.75293" lon="2.96244">
        <ele>971.944409</ele>
        <time>2021-04-29T11:51:18.054Z</time>
      </trkpt>
      <trkpt lat="45.75291" lon="2.96275">
        <ele>970.787066</ele>
        <time>2021-04-29T11:51:23.782Z</time>
      </trkpt>
      <trkpt lat="45.75284" lon="2.96321">
        <ele>968.960165</ele>
        <time>2021-04-29T11:51:33.018Z</time>
      </trkpt>
      <trkpt lat="45.75264" lon="2.96419">
        <ele>966.250743</ele>
        <time>2021-04-29T11:51:52.973Z</time>
      </trkpt>
      <trkpt lat="45.75249" lon="2.96466">
        <ele>964.914795</ele>
        <time>2021-04-29T11:52:03.220Z</time>
      </trkpt>
      <trkpt lat="45.75239" lon="2.96545">
        <ele>962.811078</ele>
        <time>2021-04-29T11:52:19.953Z</time>
      </trkpt>
      <trkpt lat="45.75238" lon="2.96596">
        <ele>961.709508</ele>
        <time>2021-04-29T11:52:31.132Z</time>
      </trkpt>
      <trkpt lat="45.75237" lon="2.96626">
        <ele>961.238047</ele>
        <time>2021-04-29T11:52:37.186Z</time>
      </trkpt>
      <trkpt lat="45.75267" lon="2.96685">
        <ele>960.065421</ele>
        <time>2021-04-29T11:52:53.848Z</time>
      </trkpt>
      <trkpt lat="45.75279" lon="2.967">
        <ele>959.701728</ele>
        <time>2021-04-29T11:52:58.682Z</time>
      </trkpt>
      <trkpt lat="45.75279" lon="2.96722">
        <ele>959.349088</ele>
        <time>2021-04-29T11:53:01.583Z</time>
      </trkpt>
      <trkpt lat="45.75286" lon="2.96759">
        <ele>958.743874</ele>
        <time>2021-04-29T11:53:06.218Z</time>
      </trkpt>
      <trkpt lat="45.75283" lon="2.9677">
        <ele>958.551947</ele>
        <time>2021-04-29T11:53:08.997Z</time>
      </trkpt>
      <trkpt lat="45.75281" lon="2.96794">
        <ele>958.162894</ele>
        <time>2021-04-29T11:53:14.273Z</time>
      </trkpt>
      <trkpt lat="45.75271" lon="2.96795">
        <ele>957.932956</ele>
        <time>2021-04-29T11:53:15.898Z</time>
      </trkpt>
      <trkpt lat="45.75254" lon="2.96788">
        <ele>957.394632</ele>
        <time>2021-04-29T11:53:19.343Z</time>
      </trkpt>
      <trkpt lat="45.75201" lon="2.96794">
        <ele>955.849455</ele>
        <time>2021-04-29T11:53:28.526Z</time>
      </trkpt>
      <trkpt lat="45.75178" lon="2.96797">
        <ele>955.197541</ele>
        <time>2021-04-29T11:53:32.625Z</time>
      </trkpt>
      <trkpt lat="45.75023" lon="2.9684">
        <ele>951.161883</ele>
        <time>2021-04-29T11:54:19.182Z</time>
      </trkpt>
      <trkpt lat="45.74845" lon="2.96891">
        <ele>948.840379</ele>
        <time>2021-04-29T11:55:18.711Z</time>
      </trkpt>
      <trkpt lat="45.74739" lon="2.96942">
        <ele>948.910284</ele>
        <time>2021-04-29T11:56:02.404Z</time>
      </trkpt>
      <trkpt lat="45.7461" lon="2.97013">
        <ele>952.117369</ele>
        <time>2021-04-29T11:57:07.130Z</time>
      </trkpt>
      <trkpt lat="45.74605" lon="2.97024">
        <ele>952.330185</ele>
        <time>2021-04-29T11:57:11.808Z</time>
      </trkpt>
      <trkpt lat="45.74525" lon="2.96995">
        <ele>954.444109</ele>
        <time>2021-04-29T11:57:40.024Z</time>
      </trkpt>
      <trkpt lat="45.74514" lon="2.9699">
        <ele>954.749129</ele>
        <time>2021-04-29T11:57:44.221Z</time>
      </trkpt>
      <trkpt lat="45.74497" lon="2.96983">
        <ele>955.21896</ele>
        <time>2021-04-29T11:57:50.103Z</time>
      </trkpt>
      <trkpt lat="45.7438" lon="2.96928">
        <ele>958.454171</ele>
        <time>2021-04-29T11:58:29.464Z</time>
      </trkpt>
      <trkpt lat="45.74352" lon="2.96919">
        <ele>959.179116</ele>
        <time>2021-04-29T11:58:38.052Z</time>
      </trkpt>
      <trkpt lat="45.74336" lon="2.96914">
        <ele>959.609581</ele>
        <time>2021-04-29T11:58:42.679Z</time>
      </trkpt>
      <trkpt lat="45.7433" lon="2.96912">
        <ele>959.754696</ele>
        <time>2021-04-29T11:58:44.274Z</time>
      </trkpt>
      <trkpt lat="45.7432" lon="2.96908">
        <ele>960.013951</ele>
        <time>2021-04-29T11:58:47.695Z</time>
      </trkpt>
      <trkpt lat="45.74296" lon="2.96891">
        <ele>960.692354</ele>
        <time>2021-04-29T11:58:55.544Z</time>
      </trkpt>
      <trkpt lat="45.7422" lon="2.96825">
        <ele>963.801188</ele>
        <time>2021-04-29T11:59:26.055Z</time>
      </trkpt>
      <trkpt lat="45.74191" lon="2.968">
        <ele>965.791298</ele>
        <time>2021-04-29T11:59:40.597Z</time>
      </trkpt>
      <trkpt lat="45.74173" lon="2.96787">
        <ele>966.949179</ele>
        <time>2021-04-29T11:59:49.449Z</time>
      </trkpt>
      <trkpt lat="45.74149" lon="2.96776">
        <ele>968.45039</ele>
        <time>2021-04-29T12:00:02.050Z</time>
      </trkpt>
      <trkpt lat="45.74139" lon="2.96772">
        <ele>969.027211</ele>
        <time>2021-04-29T12:00:06.598Z</time>
      </trkpt>
      <trkpt lat="45.74131" lon="2.96754">
        <ele>969.923376</ele>
        <time>2021-04-29T12:00:13.951Z</time>
      </trkpt>
      <trkpt lat="45.7413" lon="2.96751">
        <ele>970.071922</ele>
        <time>2021-04-29T12:00:15.342Z</time>
      </trkpt>
      <trkpt lat="45.74127" lon="2.96744">
        <ele>970.398302</ele>
        <time>2021-04-29T12:00:18.714Z</time>
      </trkpt>
      <trkpt lat="45.74124" lon="2.96736">
        <ele>970.764763</ele>
        <time>2021-04-29T12:00:21.657Z</time>
      </trkpt>
      <trkpt lat="45.74114" lon="2.96712">
        <ele>971.887286</ele>
        <time>2021-04-29T12:00:31.264Z</time>
      </trkpt>
      <trkpt lat="45.74109" lon="2.967">
        <ele>972.491911</ele>
        <time>2021-04-29T12:00:37.383Z</time>
      </trkpt>
      <trkpt lat="45.74098" lon="2.96678">
        <ele>973.737571</ele>
        <time>2021-04-29T12:00:46.788Z</time>
      </trkpt>
      <trkpt lat="45.7409" lon="2.96664">
        <ele>974.654675</ele>
        <time>2021-04-29T12:00:54.085Z</time>
      </trkpt>
      <trkpt lat="45.74078" lon="2.9664">
        <ele>976.110571</ele>
        <time>2021-04-29T12:01:05.135Z</time>
      </trkpt>
      <trkpt lat="45.74073" lon="2.96629">
        <ele>976.772545</ele>
        <time>2021-04-29T12:01:10.015Z</time>
      </trkpt>
      <trkpt lat="45.74071" lon="2.96622">
        <ele>977.133669</ele>
        <time>2021-04-29T12:01:12.841Z</time>
      </trkpt>
      <trkpt lat="45.74066" lon="2.96623">
        <ele>977.469722</ele>
        <time>2021-04-29T12:01:16.336Z</time>
      </trkpt>
      <trkpt lat="45.74039" lon="2.96626">
        <ele>979.426842</ele>
        <time>2021-04-29T12:01:32.374Z</time>
      </trkpt>
      <trkpt lat="45.74027" lon="2.96625">
        <ele>980.222615</ele>
        <time>2021-04-29T12:01:39.934Z</time>
      </trkpt>
      <trkpt lat="45.73975" lon="2.96611">
        <ele>984.036959</ele>
        <time>2021-04-29T12:02:14.206Z</time>
      </trkpt>
      <trkpt lat="45.73964" lon="2.96604">
        <ele>984.866053</ele>
        <time>2021-04-29T12:02:21.479Z</time>
      </trkpt>
      <trkpt lat="45.73954" lon="2.96594">
        <ele>985.656007</ele>
        <time>2021-04-29T12:02:29.008Z</time>
      </trkpt>
      <trkpt lat="45.73942" lon="2.96585">
        <ele>986.199114</ele>
        <time>2021-04-29T12:02:36.555Z</time>
      </trkpt>
      <trkpt lat="45.73892" lon="2.96596">
        <ele>988.153272</ele>
        <time>2021-04-29T12:03:04.498Z</time>
      </trkpt>
      <trkpt lat="45.73848" lon="2.96582">
        <ele>989.878954</ele>
        <time>2021-04-29T12:03:28.025Z</time>
      </trkpt>
      <trkpt lat="45.73798" lon="2.96557">
        <ele>991.922552</ele>
        <time>2021-04-29T12:03:53.768Z</time>
      </trkpt>
      <trkpt lat="45.73756" lon="2.96519">
        <ele>993.27632</ele>
        <time>2021-04-29T12:04:16.623Z</time>
      </trkpt>
      <trkpt lat="45.73722" lon="2.96498">
        <ele>994.069407</ele>
        <time>2021-04-29T12:04:33.453Z</time>
      </trkpt>
      <trkpt lat="45.73709" lon="2.96488">
        <ele>994.3905</ele>
        <time>2021-04-29T12:04:40.367Z</time>
      </trkpt>
      <trkpt lat="45.73677" lon="2.96461">
        <ele>995.193214</ele>
        <time>2021-04-29T12:04:57.220Z</time>
      </trkpt>
      <trkpt lat="45.73554" lon="2.96387">
        <ele>998.160019</ele>
        <time>2021-04-29T12:05:56.878Z</time>
      </trkpt>
      <trkpt lat="45.7342" lon="2.96321">
        <ele>1002.090849</ele>
        <time>2021-04-29T12:07:03.528Z</time>
      </trkpt>
      <trkpt lat="45.73386" lon="2.96315">
        <ele>1003.47109</ele>
        <time>2021-04-29T12:07:20.815Z</time>
      </trkpt>
      <trkpt lat="45.73368" lon="2.96298">
        <ele>1004.347483</ele>
        <time>2021-04-29T12:07:32.057Z</time>
      </trkpt>
      <trkpt lat="45.73311" lon="2.96282">
        <ele>1006.695154</ele>
        <time>2021-04-29T12:08:03.013Z</time>
      </trkpt>
      <trkpt lat="45.7317" lon="2.96186">
        <ele>1016.933709</ele>
        <time>2021-04-29T12:09:41.101Z</time>
      </trkpt>
      <trkpt lat="45.73134" lon="2.96164">
        <ele>1019.697603</ele>
        <time>2021-04-29T12:10:09.348Z</time>
      </trkpt>
      <trkpt lat="45.73118" lon="2.96158">
        <ele>1020.969991</ele>
        <time>2021-04-29T12:10:22.271Z</time>
      </trkpt>
      <trkpt lat="45.73069" lon="2.96143">
        <ele>1025.64969</ele>
        <time>2021-04-29T12:10:58.271Z</time>
      </trkpt>
      <trkpt lat="45.73046" lon="2.96123">
        <ele>1028.20933</ele>
        <time>2021-04-29T12:11:19.493Z</time>
      </trkpt>
      <trkpt lat="45.73019" lon="2.96091">
        <ele>1031.515113</ele>
        <time>2021-04-29T12:11:46.705Z</time>
      </trkpt>
      <trkpt lat="45.72998" lon="2.96057">
        <ele>1034.494565</ele>
        <time>2021-04-29T12:12:11.080Z</time>
      </trkpt>
      <trkpt lat="45.72986" lon="2.96022">
        <ele>1037.058183</ele>
        <time>2021-04-29T12:12:30.886Z</time>
      </trkpt>
      <trkpt lat="45.72968" lon="2.95992">
        <ele>1039.39672</ele>
        <time>2021-04-29T12:12:51.545Z</time>
      </trkpt>
      <trkpt lat="45.72903" lon="2.9593">
        <ele>1045.807539</ele>
        <time>2021-04-29T12:13:48.573Z</time>
      </trkpt>
      <trkpt lat="45.72854" lon="2.95869">
        <ele>1051.133599</ele>
        <time>2021-04-29T12:14:31.973Z</time>
      </trkpt>
      <trkpt lat="45.72817" lon="2.95796">
        <ele>1055.11026</ele>
        <time>2021-04-29T12:15:12.618Z</time>
      </trkpt>
      <trkpt lat="45.7272" lon="2.95656">
        <ele>1062.964025</ele>
        <time>2021-04-29T12:16:33.146Z</time>
      </trkpt>
      <trkpt lat="45.72702" lon="2.95647">
        <ele>1063.866132</ele>
        <time>2021-04-29T12:16:43.806Z</time>
      </trkpt>
      <trkpt lat="45.72654" lon="2.95646">
        <ele>1066.192786</ele>
        <time>2021-04-29T12:17:10.329Z</time>
      </trkpt>
      <trkpt lat="45.72614" lon="2.95642">
        <ele>1068.112988</ele>
        <time>2021-04-29T12:17:32.093Z</time>
      </trkpt>
      <trkpt lat="45.72597" lon="2.95642">
        <ele>1068.943187</ele>
        <time>2021-04-29T12:17:41.310Z</time>
      </trkpt>
      <trkpt lat="45.72596" lon="2.95642">
        <ele>1069.005932</ele>
        <time>2021-04-29T12:17:42.411Z</time>
      </trkpt>
      <trkpt lat="45.72449" lon="2.95509">
        <ele>1078.500383</ele>
        <time>2021-04-29T12:19:22.927Z</time>
      </trkpt>
      <trkpt lat="45.72342" lon="2.9536">
        <ele>1087.277716</ele>
        <time>2021-04-29T12:20:59.413Z</time>
      </trkpt>
      <trkpt lat="45.72317" lon="2.95338">
        <ele>1089.018522</ele>
        <time>2021-04-29T12:21:18.284Z</time>
      </trkpt>
      <trkpt lat="45.72249" lon="2.95258">
        <ele>1092.544033</ele>
        <time>2021-04-29T12:22:07.426Z</time>
      </trkpt>
      <trkpt lat="45.72228" lon="2.9524">
        <ele>1092.718966</ele>
        <time>2021-04-29T12:22:18.663Z</time>
      </trkpt>
      <trkpt lat="45.72218" lon="2.95217">
        <ele>1092.855411</ele>
        <time>2021-04-29T12:22:26.011Z</time>
      </trkpt>
      <trkpt lat="45.72218" lon="2.95211">
        <ele>1092.887581</ele>
        <time>2021-04-29T12:22:27.527Z</time>
      </trkpt>
      <trkpt lat="45.72191" lon="2.95215">
        <ele>1093.079092</ele>
        <time>2021-04-29T12:22:38.256Z</time>
      </trkpt>
      <trkpt lat="45.72183" lon="2.95212">
        <ele>1093.137835</ele>
        <time>2021-04-29T12:22:40.656Z</time>
      </trkpt>
      <trkpt lat="45.72134" lon="2.95172">
        <ele>1093.549982</ele>
        <time>2021-04-29T12:22:59.967Z</time>
      </trkpt>
      <trkpt lat="45.72115" lon="2.95165">
        <ele>1093.282933</ele>
        <time>2021-04-29T12:23:05.643Z</time>
      </trkpt>
      <trkpt lat="45.72067" lon="2.95148">
        <ele>1091.916382</ele>
        <time>2021-04-29T12:23:20.433Z</time>
      </trkpt>
      <trkpt lat="45.72023" lon="2.95117">
        <ele>1090.544547</ele>
        <time>2021-04-29T12:23:34.826Z</time>
      </trkpt>
      <trkpt lat="45.72002" lon="2.95103">
        <ele>1089.908249</ele>
        <time>2021-04-29T12:23:41.790Z</time>
      </trkpt>
      <trkpt lat="45.71916" lon="2.95056">
        <ele>1087.226812</ele>
        <time>2021-04-29T12:24:09.476Z</time>
      </trkpt>
      <trkpt lat="45.71781" lon="2.94942">
        <ele>1081.928057</ele>
        <time>2021-04-29T12:24:56.400Z</time>
      </trkpt>
      <trkpt lat="45.71618" lon="2.94857">
        <ele>1072.88925</ele>
        <time>2021-04-29T12:25:43.450Z</time>
      </trkpt>
      <trkpt lat="45.71485" lon="2.9482">
        <ele>1064.04685</ele>
        <time>2021-04-29T12:26:18.731Z</time>
      </trkpt>
      <trkpt lat="45.71444" lon="2.94803">
        <ele>1061.512626</ele>
        <time>2021-04-29T12:26:29.828Z</time>
      </trkpt>
      <trkpt lat="45.7142" lon="2.94785">
        <ele>1060.20762</ele>
        <time>2021-04-29T12:26:37.028Z</time>
      </trkpt>
      <trkpt lat="45.71367" lon="2.94727">
        <ele>1056.978864</ele>
        <time>2021-04-29T12:26:55.285Z</time>
      </trkpt>
      <trkpt lat="45.71351" lon="2.9472">
        <ele>1056.199042</ele>
        <time>2021-04-29T12:26:59.841Z</time>
      </trkpt>
      <trkpt lat="45.71317" lon="2.94704">
        <ele>1054.474053</ele>
        <time>2021-04-29T12:27:10.079Z</time>
      </trkpt>
      <trkpt lat="45.71248" lon="2.94663">
        <ele>1052.316227</ele>
        <time>2021-04-29T12:27:32.502Z</time>
      </trkpt>
      <trkpt lat="45.71192" lon="2.94597">
        <ele>1050.739276</ele>
        <time>2021-04-29T12:27:55.847Z</time>
      </trkpt>
      <trkpt lat="45.71102" lon="2.94447">
        <ele>1048.792847</ele>
        <time>2021-04-29T12:28:40.423Z</time>
      </trkpt>
      <trkpt lat="45.71055" lon="2.94317">
        <ele>1047.977032</ele>
        <time>2021-04-29T12:29:16.380Z</time>
      </trkpt>
      <trkpt lat="45.71046" lon="2.94295">
        <ele>1048.176497</ele>
        <time>2021-04-29T12:29:22.633Z</time>
      </trkpt>
      <trkpt lat="45.71025" lon="2.94261">
        <ele>1048.542256</ele>
        <time>2021-04-29T12:29:30.926Z</time>
      </trkpt>
      <trkpt lat="45.70948" lon="2.94176">
        <ele>1049.660242</ele>
        <time>2021-04-29T12:29:59.593Z</time>
      </trkpt>
      <trkpt lat="45.70904" lon="2.94098">
        <ele>1050.727692</ele>
        <time>2021-04-29T12:30:22.261Z</time>
      </trkpt>
      <trkpt lat="45.70843" lon="2.94044">
        <ele>1051.982342</ele>
        <time>2021-04-29T12:30:44.824Z</time>
      </trkpt>
      <trkpt lat="45.70718" lon="2.93873">
        <ele>1053.704236</ele>
        <time>2021-04-29T12:31:32.140Z</time>
      </trkpt>
      <trkpt lat="45.70707" lon="2.93853">
        <ele>1053.807812</ele>
        <time>2021-04-29T12:31:36.490Z</time>
      </trkpt>
      <trkpt lat="45.70697" lon="2.93805">
        <ele>1054.011495</ele>
        <time>2021-04-29T12:31:45.229Z</time>
      </trkpt>
      <trkpt lat="45.70602" lon="2.9344">
        <ele>1051.076862</ele>
        <time>2021-04-29T12:32:41.696Z</time>
      </trkpt>
      <trkpt lat="45.7057" lon="2.93349">
        <ele>1049.378538</ele>
        <time>2021-04-29T12:32:53.806Z</time>
      </trkpt>
      <trkpt lat="45.70555" lon="2.93295">
        <ele>1048.33196</ele>
        <time>2021-04-29T12:33:00.592Z</time>
      </trkpt>
      <trkpt lat="45.70542" lon="2.93232">
        <ele>1046.71437</ele>
        <time>2021-04-29T12:33:08.148Z</time>
      </trkpt>
      <trkpt lat="45.7054" lon="2.93206">
        <ele>1046.049272</ele>
        <time>2021-04-29T12:33:11.232Z</time>
      </trkpt>
      <trkpt lat="45.70529" lon="2.93063">
        <ele>1042.519156</ele>
        <time>2021-04-29T12:33:28.164Z</time>
      </trkpt>
      <trkpt lat="45.70532" lon="2.92931">
        <ele>1039.714346</ele>
        <time>2021-04-29T12:33:44.492Z</time>
      </trkpt>
      <trkpt lat="45.7051" lon="2.92825">
        <ele>1037.416674</ele>
        <time>2021-04-29T12:33:57.929Z</time>
      </trkpt>
      <trkpt lat="45.70495" lon="2.92731">
        <ele>1034.769748</ele>
        <time>2021-04-29T12:34:09.419Z</time>
      </trkpt>
      <trkpt lat="45.70489" lon="2.92641">
        <ele>1032.051917</ele>
        <time>2021-04-29T12:34:19.883Z</time>
      </trkpt>
      <trkpt lat="45.70487" lon="2.92519">
        <ele>1027.929996</ele>
        <time>2021-04-29T12:34:33.310Z</time>
      </trkpt>
      <trkpt lat="45.70502" lon="2.92477">
        <ele>1025.731245</ele>
        <time>2021-04-29T12:34:38.326Z</time>
      </trkpt>
      <trkpt lat="45.70506" lon="2.92452">
        <ele>1024.517344</ele>
        <time>2021-04-29T12:34:41.053Z</time>
      </trkpt>
      <trkpt lat="45.70499" lon="2.92396">
        <ele>1021.839365</ele>
        <time>2021-04-29T12:34:47.128Z</time>
      </trkpt>
      <trkpt lat="45.70492" lon="2.92334">
        <ele>1018.909948</ele>
        <time>2021-04-29T12:34:53.758Z</time>
      </trkpt>
      <trkpt lat="45.70495" lon="2.92078">
        <ele>1003.46084</ele>
        <time>2021-04-29T12:35:19.805Z</time>
      </trkpt>
      <trkpt lat="45.70493" lon="2.92049">
        <ele>1001.607682</ele>
        <time>2021-04-29T12:35:22.754Z</time>
      </trkpt>
      <trkpt lat="45.70485" lon="2.92015">
        <ele>998.955621</ele>
        <time>2021-04-29T12:35:26.310Z</time>
      </trkpt>
      <trkpt lat="45.7042" lon="2.91795">
        <ele>979.867933</ele>
        <time>2021-04-29T12:35:49.550Z</time>
      </trkpt>
      <trkpt lat="45.70402" lon="2.91737">
        <ele>975.412531</ele>
        <time>2021-04-29T12:35:55.858Z</time>
      </trkpt>
      <trkpt lat="45.70392" lon="2.91757">
        <ele>973.695374</ele>
        <time>2021-04-29T12:35:58.276Z</time>
      </trkpt>
      <trkpt lat="45.70373" lon="2.91797">
        <ele>970.353685</ele>
        <time>2021-04-29T12:36:02.992Z</time>
      </trkpt>
      <trkpt lat="45.70367" lon="2.91796">
        <ele>969.661708</ele>
        <time>2021-04-29T12:36:04.003Z</time>
      </trkpt>
      <trkpt lat="45.70364" lon="2.91787">
        <ele>968.944566</ele>
        <time>2021-04-29T12:36:05.069Z</time>
      </trkpt>
      <trkpt lat="45.70363" lon="2.91767">
        <ele>967.551326</ele>
        <time>2021-04-29T12:36:07.017Z</time>
      </trkpt>
      <trkpt lat="45.70359" lon="2.91761">
        <ele>966.922857</ele>
        <time>2021-04-29T12:36:08.481Z</time>
      </trkpt>
      <trkpt lat="45.70358" lon="2.91686">
        <ele>961.771519</ele>
        <time>2021-04-29T12:36:21.708Z</time>
      </trkpt>
      <trkpt lat="45.70367" lon="2.91634">
        <ele>958.782411</ele>
        <time>2021-04-29T12:36:31.358Z</time>
      </trkpt>
      <trkpt lat="45.70366" lon="2.91628">
        <ele>958.459465</ele>
        <time>2021-04-29T12:36:32.302Z</time>
      </trkpt>
      <trkpt lat="45.7035" lon="2.91589">
        <ele>955.913199</ele>
        <time>2021-04-29T12:36:37.164Z</time>
      </trkpt>
      <trkpt lat="45.70332" lon="2.91521">
        <ele>951.893513</ele>
        <time>2021-04-29T12:36:44.585Z</time>
      </trkpt>
      <trkpt lat="45.70332" lon="2.91498">
        <ele>950.593923</ele>
        <time>2021-04-29T12:36:47.007Z</time>
      </trkpt>
      <trkpt lat="45.70336" lon="2.91475">
        <ele>949.25866</ele>
        <time>2021-04-29T12:36:49.476Z</time>
      </trkpt>
      <trkpt lat="45.70338" lon="2.91467">
        <ele>948.830789</ele>
        <time>2021-04-29T12:36:50.261Z</time>
      </trkpt>
      <trkpt lat="45.70341" lon="2.91446">
        <ele>947.677975</ele>
        <time>2021-04-29T12:36:52.496Z</time>
      </trkpt>
      <trkpt lat="45.70328" lon="2.91423">
        <ele>946.415857</ele>
        <time>2021-04-29T12:36:57.807Z</time>
      </trkpt>
      <trkpt lat="45.70322" lon="2.91406">
        <ele>945.600898</ele>
        <time>2021-04-29T12:37:01.286Z</time>
      </trkpt>
      <trkpt lat="45.70326" lon="2.91393">
        <ele>945.013849</ele>
        <time>2021-04-29T12:37:03.873Z</time>
      </trkpt>
      <trkpt lat="45.70334" lon="2.9139">
        <ele>944.535533</ele>
        <time>2021-04-29T12:37:06.105Z</time>
      </trkpt>
      <trkpt lat="45.70334" lon="2.9138">
        <ele>944.105692</ele>
        <time>2021-04-29T12:37:07.928Z</time>
      </trkpt>
      <trkpt lat="45.70328" lon="2.91359">
        <ele>943.164575</ele>
        <time>2021-04-29T12:37:10.251Z</time>
      </trkpt>
      <trkpt lat="45.70328" lon="2.91359">
        <ele>943.164575</ele>
        <time>2021-04-29T12:37:10.269Z</time>
      </trkpt>
      <trkpt lat="45.70322" lon="2.91339">
        <ele>942.235736</ele>
        <time>2021-04-29T12:37:14.525Z</time>
      </trkpt>
      <trkpt lat="45.70355" lon="2.91321">
        <ele>940.08365</ele>
        <time>2021-04-29T12:37:19.949Z</time>
      </trkpt>
      <trkpt lat="45.7043" lon="2.91276">
        <ele>936.53903</ele>
        <time>2021-04-29T12:37:32.925Z</time>
      </trkpt>
      <trkpt lat="45.70435" lon="2.91278">
        <ele>936.462127</ele>
        <time>2021-04-29T12:37:33.785Z</time>
      </trkpt>
      <trkpt lat="45.70457" lon="2.91259">
        <ele>936.096741</ele>
        <time>2021-04-29T12:37:38.333Z</time>
      </trkpt>
      <trkpt lat="45.70478" lon="2.91247">
        <ele>935.767254</ele>
        <time>2021-04-29T12:37:42.799Z</time>
      </trkpt>
      <trkpt lat="45.70481" lon="2.91236">
        <ele>935.651987</ele>
        <time>2021-04-29T12:37:44.409Z</time>
      </trkpt>
      <trkpt lat="45.70481" lon="2.91226">
        <ele>935.550416</ele>
        <time>2021-04-29T12:37:45.765Z</time>
      </trkpt>
      <trkpt lat="45.70477" lon="2.91215">
        <ele>935.420387</ele>
        <time>2021-04-29T12:37:47.811Z</time>
      </trkpt>
      <trkpt lat="45.70471" lon="2.91205">
        <ele>935.297806</ele>
        <time>2021-04-29T12:37:49.844Z</time>
      </trkpt>
      <trkpt lat="45.70477" lon="2.9119">
        <ele>935.130032</ele>
        <time>2021-04-29T12:37:52.601Z</time>
      </trkpt>
      <trkpt lat="45.70495" lon="2.91163">
        <ele>934.750882</ele>
        <time>2021-04-29T12:37:58.881Z</time>
      </trkpt>
      <trkpt lat="45.70515" lon="2.91108">
        <ele>934.558394</ele>
        <time>2021-04-29T12:38:10.006Z</time>
      </trkpt>
      <trkpt lat="45.7054" lon="2.91057">
        <ele>935.046115</ele>
        <time>2021-04-29T12:38:22.667Z</time>
      </trkpt>
      <trkpt lat="45.70603" lon="2.91">
        <ele>935.873598</ele>
        <time>2021-04-29T12:38:44.613Z</time>
      </trkpt>
      <trkpt lat="45.70622" lon="2.90975">
        <ele>936.168574</ele>
        <time>2021-04-29T12:38:51.789Z</time>
      </trkpt>
      <trkpt lat="45.7063" lon="2.90958">
        <ele>936.322311</ele>
        <time>2021-04-29T12:38:55.644Z</time>
      </trkpt>
      <trkpt lat="45.70662" lon="2.90831">
        <ele>935.969259</ele>
        <time>2021-04-29T12:39:18.573Z</time>
      </trkpt>
      <trkpt lat="45.70662" lon="2.90819">
        <ele>935.927819</ele>
        <time>2021-04-29T12:39:20.620Z</time>
      </trkpt>
      <trkpt lat="45.7066" lon="2.90806">
        <ele>935.885232</ele>
        <time>2021-04-29T12:39:22.586Z</time>
      </trkpt>
      <trkpt lat="45.70646" lon="2.90789">
        <ele>935.80112</ele>
        <time>2021-04-29T12:39:26.256Z</time>
      </trkpt>
      <trkpt lat="45.70614" lon="2.90791">
        <ele>935.65081</ele>
        <time>2021-04-29T12:39:32.656Z</time>
      </trkpt>
      <trkpt lat="45.706" lon="2.90784">
        <ele>935.583593</ele>
        <time>2021-04-29T12:39:35.448Z</time>
      </trkpt>
      <trkpt lat="45.70577" lon="2.90759">
        <ele>934.8048</ele>
        <time>2021-04-29T12:39:40.635Z</time>
      </trkpt>
      <trkpt lat="45.70551" lon="2.90717">
        <ele>933.369106</ele>
        <time>2021-04-29T12:39:47.628Z</time>
      </trkpt>
      <trkpt lat="45.70515" lon="2.90606">
        <ele>930.255081</ele>
        <time>2021-04-29T12:40:01.818Z</time>
      </trkpt>
      <trkpt lat="45.70435" lon="2.90421">
        <ele>923.498765</ele>
        <time>2021-04-29T12:40:25.750Z</time>
      </trkpt>
      <trkpt lat="45.7043" lon="2.90381">
        <ele>922.171234</ele>
        <time>2021-04-29T12:40:30.262Z</time>
      </trkpt>
      <trkpt lat="45.70433" lon="2.90365">
        <ele>921.633967</ele>
        <time>2021-04-29T12:40:32.112Z</time>
      </trkpt>
      <trkpt lat="45.70469" lon="2.90317">
        <ele>920.238746</ele>
        <time>2021-04-29T12:40:40.359Z</time>
      </trkpt>
      <trkpt lat="45.70492" lon="2.90297">
        <ele>919.889075</ele>
        <time>2021-04-29T12:40:45.114Z</time>
      </trkpt>
      <trkpt lat="45.70509" lon="2.90268">
        <ele>919.534013</ele>
        <time>2021-04-29T12:40:50.223Z</time>
      </trkpt>
      <trkpt lat="45.70512" lon="2.9019">
        <ele>918.816599</ele>
        <time>2021-04-29T12:41:01.896Z</time>
      </trkpt>
      <trkpt lat="45.70521" lon="2.90091">
        <ele>918.305681</ele>
        <time>2021-04-29T12:41:19.535Z</time>
      </trkpt>
      <trkpt lat="45.70506" lon="2.90083">
        <ele>918.353737</ele>
        <time>2021-04-29T12:41:23.955Z</time>
      </trkpt>
      <trkpt lat="45.70491" lon="2.9007">
        <ele>918.407421</ele>
        <time>2021-04-29T12:41:28.625Z</time>
      </trkpt>
      <trkpt lat="45.70481" lon="2.90043">
        <ele>918.47216</ele>
        <time>2021-04-29T12:41:34.680Z</time>
      </trkpt>
      <trkpt lat="45.70416" lon="2.89979">
        <ele>918.708031</ele>
        <time>2021-04-29T12:41:54.511Z</time>
      </trkpt>
      <trkpt lat="45.70376" lon="2.89896">
        <ele>917.126051</ele>
        <time>2021-04-29T12:42:08.847Z</time>
      </trkpt>
      <trkpt lat="45.70339" lon="2.89878">
        <ele>915.830765</ele>
        <time>2021-04-29T12:42:15.820Z</time>
      </trkpt>
      <trkpt lat="45.70287" lon="2.89828">
        <ele>913.744569</ele>
        <time>2021-04-29T12:42:25.901Z</time>
      </trkpt>
      <trkpt lat="45.70249" lon="2.89805">
        <ele>911.915215</ele>
        <time>2021-04-29T12:42:32.342Z</time>
      </trkpt>
      <trkpt lat="45.70217" lon="2.89768">
        <ele>909.153151</ele>
        <time>2021-04-29T12:42:38.561Z</time>
      </trkpt>
      <trkpt lat="45.70209" lon="2.89752">
        <ele>908.217293</ele>
        <time>2021-04-29T12:42:40.638Z</time>
      </trkpt>
      <trkpt lat="45.70193" lon="2.89729">
        <ele>906.694961</ele>
        <time>2021-04-29T12:42:44.046Z</time>
      </trkpt>
      <trkpt lat="45.70188" lon="2.89707">
        <ele>905.621612</ele>
        <time>2021-04-29T12:42:46.393Z</time>
      </trkpt>
      <trkpt lat="45.70158" lon="2.89662">
        <ele>902.676568</ele>
        <time>2021-04-29T12:42:52.935Z</time>
      </trkpt>
      <trkpt lat="45.70109" lon="2.89653">
        <ele>899.50426</ele>
        <time>2021-04-29T12:43:00.394Z</time>
      </trkpt>
      <trkpt lat="45.70048" lon="2.89602">
        <ele>895.484375</ele>
        <time>2021-04-29T12:43:10.853Z</time>
      </trkpt>
      <trkpt lat="45.70004" lon="2.89549">
        <ele>892.139452</ele>
        <time>2021-04-29T12:43:19.990Z</time>
      </trkpt>
      <trkpt lat="45.69977" lon="2.89531">
        <ele>890.411885</ele>
        <time>2021-04-29T12:43:24.837Z</time>
      </trkpt>
      <trkpt lat="45.69938" lon="2.89472">
        <ele>889.764834</ele>
        <time>2021-04-29T12:43:34.364Z</time>
      </trkpt>
      <trkpt lat="45.69937" lon="2.89461">
        <ele>889.695925</ele>
        <time>2021-04-29T12:43:35.730Z</time>
      </trkpt>
      <trkpt lat="45.69935" lon="2.89451">
        <ele>889.628008</ele>
        <time>2021-04-29T12:43:37.156Z</time>
      </trkpt>
      <trkpt lat="45.69907" lon="2.89349">
        <ele>888.918192</ele>
        <time>2021-04-29T12:43:54.153Z</time>
      </trkpt>
      <trkpt lat="45.69876" lon="2.89313">
        <ele>888.839752</ele>
        <time>2021-04-29T12:44:05.886Z</time>
      </trkpt>
      <trkpt lat="45.69873" lon="2.89297">
        <ele>889.31776</ele>
        <time>2021-04-29T12:44:09.540Z</time>
      </trkpt>
      <trkpt lat="45.69896" lon="2.89291">
        <ele>890.303833</ele>
        <time>2021-04-29T12:44:17.690Z</time>
      </trkpt>
      <trkpt lat="45.69965" lon="2.89229">
        <ele>893.792838</ele>
        <time>2021-04-29T12:44:50.697Z</time>
      </trkpt>
      <trkpt lat="45.70022" lon="2.89144">
        <ele>897.982878</ele>
        <time>2021-04-29T12:45:30.183Z</time>
      </trkpt>
      <trkpt lat="45.70046" lon="2.89127">
        <ele>899.817172</ele>
        <time>2021-04-29T12:45:42.861Z</time>
      </trkpt>
      <trkpt lat="45.70074" lon="2.89122">
        <ele>901.768044</ele>
        <time>2021-04-29T12:45:56.802Z</time>
      </trkpt>
      <trkpt lat="45.70119" lon="2.89131">
        <ele>904.927427</ele>
        <time>2021-04-29T12:46:19.229Z</time>
      </trkpt>
      <trkpt lat="45.70142" lon="2.89131">
        <ele>906.573853</ele>
        <time>2021-04-29T12:46:31.665Z</time>
      </trkpt>
      <trkpt lat="45.70213" lon="2.89131">
        <ele>911.579987</ele>
        <time>2021-04-29T12:47:12.615Z</time>
      </trkpt>
      <trkpt lat="45.70227" lon="2.89126">
        <ele>912.619015</ele>
        <time>2021-04-29T12:47:20.602Z</time>
      </trkpt>
      <trkpt lat="45.70239" lon="2.89115">
        <ele>913.590781</ele>
        <time>2021-04-29T12:47:28.475Z</time>
      </trkpt>
      <trkpt lat="45.70247" lon="2.89107">
        <ele>914.302252</ele>
        <time>2021-04-29T12:47:34.127Z</time>
      </trkpt>
      <trkpt lat="45.70268" lon="2.89072">
        <ele>916.59734</ele>
        <time>2021-04-29T12:47:51.443Z</time>
      </trkpt>
      <trkpt lat="45.70288" lon="2.89031">
        <ele>919.089987</ele>
        <time>2021-04-29T12:48:08.585Z</time>
      </trkpt>
      <trkpt lat="45.70306" lon="2.88988">
        <ele>921.602522</ele>
        <time>2021-04-29T12:48:24.793Z</time>
      </trkpt>
      <trkpt lat="45.70315" lon="2.88955">
        <ele>922.287778</ele>
        <time>2021-04-29T12:48:35.401Z</time>
      </trkpt>
      <trkpt lat="45.70272" lon="2.88946">
        <ele>923.464097</ele>
        <time>2021-04-29T12:48:53.053Z</time>
      </trkpt>
      <trkpt lat="45.7" lon="2.88895">
        <ele>928.424047</ele>
        <time>2021-04-29T12:50:10.895Z</time>
      </trkpt>
      <trkpt lat="45.69984" lon="2.88897">
        <ele>928.61043</ele>
        <time>2021-04-29T12:50:15.053Z</time>
      </trkpt>
      <trkpt lat="45.69698" lon="2.88925">
        <ele>929.993934</ele>
        <time>2021-04-29T12:51:24.909Z</time>
      </trkpt>
      <trkpt lat="45.69696" lon="2.88925">
        <ele>930.006421</ele>
        <time>2021-04-29T12:51:25.279Z</time>
      </trkpt>
      <trkpt lat="45.69678" lon="2.88924">
        <ele>930.127294</ele>
        <time>2021-04-29T12:51:30.205Z</time>
      </trkpt>
      <trkpt lat="45.69587" lon="2.88917">
        <ele>931.150671</ele>
        <time>2021-04-29T12:51:55.382Z</time>
      </trkpt>
      <trkpt lat="45.6947" lon="2.88861">
        <ele>933.430122</ele>
        <time>2021-04-29T12:52:33.889Z</time>
      </trkpt>
      <trkpt lat="45.69399" lon="2.88834">
        <ele>934.980756</ele>
        <time>2021-04-29T12:52:57.621Z</time>
      </trkpt>
      <trkpt lat="45.69337" lon="2.88848">
        <ele>936.380213</ele>
        <time>2021-04-29T12:53:17.809Z</time>
      </trkpt>
      <trkpt lat="45.69221" lon="2.88852">
        <ele>939.054986</ele>
        <time>2021-04-29T12:53:54.917Z</time>
      </trkpt>
      <trkpt lat="45.69198" lon="2.88842">
        <ele>939.640553</ele>
        <time>2021-04-29T12:54:02.601Z</time>
      </trkpt>
      <trkpt lat="45.69178" lon="2.88811">
        <ele>940.352974</ele>
        <time>2021-04-29T12:54:11.996Z</time>
      </trkpt>
      <trkpt lat="45.69158" lon="2.88792">
        <ele>940.941321</ele>
        <time>2021-04-29T12:54:19.977Z</time>
      </trkpt>
      <trkpt lat="45.69144" lon="2.8878">
        <ele>941.339755</ele>
        <time>2021-04-29T12:54:25.321Z</time>
      </trkpt>
      <trkpt lat="45.69119" lon="2.88766">
        <ele>942.003559</ele>
        <time>2021-04-29T12:54:34.462Z</time>
      </trkpt>
      <trkpt lat="45.69051" lon="2.88768">
        <ele>944.435897</ele>
        <time>2021-04-29T12:54:58.880Z</time>
      </trkpt>
      <trkpt lat="45.69029" lon="2.8876">
        <ele>945.284401</ele>
        <time>2021-04-29T12:55:07.296Z</time>
      </trkpt>
      <trkpt lat="45.68994" lon="2.88735">
        <ele>946.735809</ele>
        <time>2021-04-29T12:55:22.096Z</time>
      </trkpt>
      <trkpt lat="45.68923" lon="2.88685">
        <ele>949.740525</ele>
        <time>2021-04-29T12:55:54.771Z</time>
      </trkpt>
      <trkpt lat="45.68878" lon="2.88646">
        <ele>951.867169</ele>
        <time>2021-04-29T12:56:17.023Z</time>
      </trkpt>
      <trkpt lat="45.6889" lon="2.88618">
        <ele>952.778156</ele>
        <time>2021-04-29T12:56:26.672Z</time>
      </trkpt>
      <trkpt lat="45.68897" lon="2.88597">
        <ele>953.424545</ele>
        <time>2021-04-29T12:56:32.781Z</time>
      </trkpt>
      <trkpt lat="45.68898" lon="2.8858">
        <ele>953.901987</ele>
        <time>2021-04-29T12:56:37.802Z</time>
      </trkpt>
      <trkpt lat="45.68897" lon="2.88548">
        <ele>954.812577</ele>
        <time>2021-04-29T12:56:46.024Z</time>
      </trkpt>
      <trkpt lat="45.68896" lon="2.8852">
        <ele>955.595942</ele>
        <time>2021-04-29T12:56:53.171Z</time>
      </trkpt>
      <trkpt lat="45.68895" lon="2.8851">
        <ele>955.873436</ele>
        <time>2021-04-29T12:56:55.850Z</time>
      </trkpt>
      <trkpt lat="45.68896" lon="2.88487">
        <ele>956.2142</ele>
        <time>2021-04-29T12:57:01.178Z</time>
      </trkpt>
      <trkpt lat="45.68903" lon="2.88459">
        <ele>956.367834</ele>
        <time>2021-04-29T12:57:08.418Z</time>
      </trkpt>
      <trkpt lat="45.68914" lon="2.88393">
        <ele>956.710046</ele>
        <time>2021-04-29T12:57:22.893Z</time>
      </trkpt>
      <trkpt lat="45.68921" lon="2.88319">
        <ele>957.096131</ele>
        <time>2021-04-29T12:57:36.728Z</time>
      </trkpt>
      <trkpt lat="45.68934" lon="2.88186">
        <ele>955.733129</ele>
        <time>2021-04-29T12:57:54.444Z</time>
      </trkpt>
      <trkpt lat="45.68937" lon="2.88127">
        <ele>954.129602</ele>
        <time>2021-04-29T12:58:01.498Z</time>
      </trkpt>
      <trkpt lat="45.68945" lon="2.88106">
        <ele>953.496205</ele>
        <time>2021-04-29T12:58:04.217Z</time>
      </trkpt>
      <trkpt lat="45.6892" lon="2.88013">
        <ele>950.776994</ele>
        <time>2021-04-29T12:58:23.593Z</time>
      </trkpt>
      <trkpt lat="45.68913" lon="2.87956">
        <ele>947.323397</ele>
        <time>2021-04-29T12:58:34.062Z</time>
      </trkpt>
      <trkpt lat="45.68922" lon="2.87865">
        <ele>940.966128</ele>
        <time>2021-04-29T12:58:50.219Z</time>
      </trkpt>
      <trkpt lat="45.6891" lon="2.87696">
        <ele>927.176071</ele>
        <time>2021-04-29T12:59:18.674Z</time>
      </trkpt>
      <trkpt lat="45.68904" lon="2.87504">
        <ele>906.080006</ele>
        <time>2021-04-29T12:59:49.427Z</time>
      </trkpt>
      <trkpt lat="45.68932" lon="2.87425">
        <ele>895.434832</ele>
        <time>2021-04-29T13:00:03.447Z</time>
      </trkpt>
      <trkpt lat="45.68971" lon="2.87271">
        <ele>875.540917</ele>
        <time>2021-04-29T13:00:29.337Z</time>
      </trkpt>
      <trkpt lat="45.68972" lon="2.87245">
        <ele>872.499665</ele>
        <time>2021-04-29T13:00:33.596Z</time>
      </trkpt>
      <trkpt lat="45.68962" lon="2.87152">
        <ele>864.5711</ele>
        <time>2021-04-29T13:00:48.840Z</time>
      </trkpt>
      <trkpt lat="45.68957" lon="2.87133">
        <ele>862.850098</ele>
        <time>2021-04-29T13:00:52.183Z</time>
      </trkpt>
      <trkpt lat="45.68944" lon="2.87112">
        <ele>860.411393</ele>
        <time>2021-04-29T13:00:57.059Z</time>
      </trkpt>
      <trkpt lat="45.68932" lon="2.87088">
        <ele>857.949771</ele>
        <time>2021-04-29T13:01:01.938Z</time>
      </trkpt>
      <trkpt lat="45.68938" lon="2.87057">
        <ele>855.221986</ele>
        <time>2021-04-29T13:01:07.542Z</time>
      </trkpt>
      <trkpt lat="45.68939" lon="2.87038">
        <ele>853.633604</ele>
        <time>2021-04-29T13:01:10.798Z</time>
      </trkpt>
      <trkpt lat="45.68937" lon="2.87028">
        <ele>852.693512</ele>
        <time>2021-04-29T13:01:12.820Z</time>
      </trkpt>
      <trkpt lat="45.68931" lon="2.86998">
        <ele>850.806538</ele>
        <time>2021-04-29T13:01:18.202Z</time>
      </trkpt>
      <trkpt lat="45.6895" lon="2.86906">
        <ele>847.7267</ele>
        <time>2021-04-29T13:01:36.118Z</time>
      </trkpt>
      <trkpt lat="45.68967" lon="2.86877">
        <ele>846.529576</ele>
        <time>2021-04-29T13:01:43.449Z</time>
      </trkpt>
      <trkpt lat="45.68988" lon="2.86862">
        <ele>845.461337</ele>
        <time>2021-04-29T13:01:50.513Z</time>
      </trkpt>
      <trkpt lat="45.69013" lon="2.86866">
        <ele>844.278126</ele>
        <time>2021-04-29T13:01:58.562Z</time>
      </trkpt>
      <trkpt lat="45.69108" lon="2.86853">
        <ele>842.355647</ele>
        <time>2021-04-29T13:02:29.031Z</time>
      </trkpt>
      <trkpt lat="45.6914" lon="2.86847">
        <ele>842.059394</ele>
        <time>2021-04-29T13:02:39.906Z</time>
      </trkpt>
      <trkpt lat="45.69175" lon="2.86829">
        <ele>841.706204</ele>
        <time>2021-04-29T13:02:48.543Z</time>
      </trkpt>
      <trkpt lat="45.69205" lon="2.8681">
        <ele>841.394283</ele>
        <time>2021-04-29T13:02:56.760Z</time>
      </trkpt>
      <trkpt lat="45.69218" lon="2.86793">
        <ele>841.221715</ele>
        <time>2021-04-29T13:02:59.918Z</time>
      </trkpt>
      <trkpt lat="45.69205" lon="2.86742">
        <ele>840.79</ele>
        <time>2021-04-29T13:03:08.004Z</time>
      </trkpt>
      <trkpt lat="45.69205" lon="2.86736">
        <ele>840.741899</ele>
        <time>2021-04-29T13:03:09.340Z</time>
      </trkpt>
      <trkpt lat="45.6921" lon="2.86729">
        <ele>840.663617</ele>
        <time>2021-04-29T13:03:11.049Z</time>
      </trkpt>
      <trkpt lat="45.69227" lon="2.86703">
        <ele>840.375511</ele>
        <time>2021-04-29T13:03:15.982Z</time>
      </trkpt>
      <trkpt lat="45.69229" lon="2.86689">
        <ele>840.264055</ele>
        <time>2021-04-29T13:03:18.644Z</time>
      </trkpt>
      <trkpt lat="45.69227" lon="2.86678">
        <ele>840.171799</ele>
        <time>2021-04-29T13:03:20.709Z</time>
      </trkpt>
      <trkpt lat="45.69239" lon="2.86643">
        <ele>839.859122</ele>
        <time>2021-04-29T13:03:26.067Z</time>
      </trkpt>
      <trkpt lat="45.69237" lon="2.86636">
        <ele>839.798027</ele>
        <time>2021-04-29T13:03:27.712Z</time>
      </trkpt>
      <trkpt lat="45.69246" lon="2.86623">
        <ele>839.657204</ele>
        <time>2021-04-29T13:03:29.705Z</time>
      </trkpt>
      <trkpt lat="45.69316" lon="2.86515">
        <ele>836.700213</ele>
        <time>2021-04-29T13:03:47.109Z</time>
      </trkpt>
      <trkpt lat="45.69383" lon="2.86482">
        <ele>834.009098</ele>
        <time>2021-04-29T13:03:57.962Z</time>
      </trkpt>
      <trkpt lat="45.69405" lon="2.86463">
        <ele>833.034324</ele>
        <time>2021-04-29T13:04:01.895Z</time>
      </trkpt>
      <trkpt lat="45.69436" lon="2.8644">
        <ele>831.654654</ele>
        <time>2021-04-29T13:04:07.292Z</time>
      </trkpt>
      <trkpt lat="45.69521" lon="2.864">
        <ele>828.012766</ele>
        <time>2021-04-29T13:04:21.021Z</time>
      </trkpt>
      <trkpt lat="45.69556" lon="2.8637">
        <ele>826.361766</ele>
        <time>2021-04-29T13:04:27.411Z</time>
      </trkpt>
      <trkpt lat="45.69579" lon="2.8635">
        <ele>825.253133</ele>
        <time>2021-04-29T13:04:31.810Z</time>
      </trkpt>
      <trkpt lat="45.69581" lon="2.86348">
        <ele>825.171785</ele>
        <time>2021-04-29T13:04:32.140Z</time>
      </trkpt>
      <trkpt lat="45.69592" lon="2.86336">
        <ele>824.773342</ele>
        <time>2021-04-29T13:04:34.648Z</time>
      </trkpt>
      <trkpt lat="45.69604" lon="2.86324">
        <ele>824.420688</ele>
        <time>2021-04-29T13:04:36.908Z</time>
      </trkpt>
      <trkpt lat="45.69623" lon="2.86309">
        <ele>823.874849</ele>
        <time>2021-04-29T13:04:40.636Z</time>
      </trkpt>
      <trkpt lat="45.69653" lon="2.86303">
        <ele>823.111999</ele>
        <time>2021-04-29T13:04:45.714Z</time>
      </trkpt>
      <trkpt lat="45.69668" lon="2.86308">
        <ele>822.721559</ele>
        <time>2021-04-29T13:04:48.277Z</time>
      </trkpt>
      <trkpt lat="45.69705" lon="2.86343">
        <ele>821.612262</ele>
        <time>2021-04-29T13:04:55.753Z</time>
      </trkpt>
      <trkpt lat="45.6974" lon="2.86364">
        <ele>820.640917</ele>
        <time>2021-04-29T13:05:02.576Z</time>
      </trkpt>
      <trkpt lat="45.69868" lon="2.86381">
        <ele>818.487926</ele>
        <time>2021-04-29T13:05:25.897Z</time>
      </trkpt>
      <trkpt lat="45.69896" lon="2.86374">
        <ele>818.016774</ele>
        <time>2021-04-29T13:05:31.073Z</time>
      </trkpt>
      <trkpt lat="45.69923" lon="2.86356">
        <ele>817.522758</ele>
        <time>2021-04-29T13:05:36.535Z</time>
      </trkpt>
      <trkpt lat="45.70026" lon="2.86272">
        <ele>815.559983</ele>
        <time>2021-04-29T13:05:57.722Z</time>
      </trkpt>
      <trkpt lat="45.70083" lon="2.86231">
        <ele>814.542071</ele>
        <time>2021-04-29T13:06:09.424Z</time>
      </trkpt>
      <trkpt lat="45.70096" lon="2.86229">
        <ele>814.412296</ele>
        <time>2021-04-29T13:06:11.692Z</time>
      </trkpt>
      <trkpt lat="45.70119" lon="2.86234">
        <ele>814.169587</ele>
        <time>2021-04-29T13:06:16.230Z</time>
      </trkpt>
      <trkpt lat="45.70152" lon="2.86237">
        <ele>813.830897</ele>
        <time>2021-04-29T13:06:22.487Z</time>
      </trkpt>
      <trkpt lat="45.70236" lon="2.86172">
        <ele>812.857492</ele>
        <time>2021-04-29T13:06:41.021Z</time>
      </trkpt>
      <trkpt lat="45.70265" lon="2.86135">
        <ele>812.629798</ele>
        <time>2021-04-29T13:06:49.285Z</time>
      </trkpt>
      <trkpt lat="45.70286" lon="2.86094">
        <ele>812.474789</ele>
        <time>2021-04-29T13:06:56.419Z</time>
      </trkpt>
      <trkpt lat="45.70306" lon="2.86066">
        <ele>812.353116</ele>
        <time>2021-04-29T13:07:01.929Z</time>
      </trkpt>
      <trkpt lat="45.70365" lon="2.86028">
        <ele>812.06801</ele>
        <time>2021-04-29T13:07:14.941Z</time>
      </trkpt>
      <trkpt lat="45.70392" lon="2.86014">
        <ele>812.110198</ele>
        <time>2021-04-29T13:07:21.088Z</time>
      </trkpt>
      <trkpt lat="45.70406" lon="2.86012">
        <ele>812.428802</ele>
        <time>2021-04-29T13:07:24.418Z</time>
      </trkpt>
      <trkpt lat="45.70489" lon="2.86008">
        <ele>814.275487</ele>
        <time>2021-04-29T13:07:47.761Z</time>
      </trkpt>
      <trkpt lat="45.70516" lon="2.85993">
        <ele>814.905377</ele>
        <time>2021-04-29T13:07:56.830Z</time>
      </trkpt>
      <trkpt lat="45.70521" lon="2.85988">
        <ele>815.039207</ele>
        <time>2021-04-29T13:07:58.747Z</time>
      </trkpt>
      <trkpt lat="45.70543" lon="2.85968">
        <ele>815.62593</ele>
        <time>2021-04-29T13:08:08.209Z</time>
      </trkpt>
      <trkpt lat="45.70573" lon="2.8594">
        <ele>817.517174</ele>
        <time>2021-04-29T13:08:23.123Z</time>
      </trkpt>
      <trkpt lat="45.70591" lon="2.85927">
        <ele>819.091012</ele>
        <time>2021-04-29T13:08:32.829Z</time>
      </trkpt>
      <trkpt lat="45.70599" lon="2.85921">
        <ele>819.746234</ele>
        <time>2021-04-29T13:08:37.536Z</time>
      </trkpt>
      <trkpt lat="45.70639" lon="2.85901">
        <ele>823.041466</ele>
        <time>2021-04-29T13:09:00.310Z</time>
      </trkpt>
      <trkpt lat="45.70668" lon="2.85899">
        <ele>825.21233</ele>
        <time>2021-04-29T13:09:16.139Z</time>
      </trkpt>
      <trkpt lat="45.70673" lon="2.85891">
        <ele>825.803071</ele>
        <time>2021-04-29T13:09:21.471Z</time>
      </trkpt>
      <trkpt lat="45.70687" lon="2.8587">
        <ele>827.352932</ele>
        <time>2021-04-29T13:09:32.088Z</time>
      </trkpt>
      <trkpt lat="45.70714" lon="2.85844">
        <ele>829.929399</ele>
        <time>2021-04-29T13:09:51.044Z</time>
      </trkpt>
      <trkpt lat="45.70724" lon="2.85833">
        <ele>831.475558</ele>
        <time>2021-04-29T13:09:58.830Z</time>
      </trkpt>
      <trkpt lat="45.70724" lon="2.85833">
        <ele>831.475558</ele>
        <time>2021-04-29T13:09:59.043Z</time>
      </trkpt>
      <trkpt lat="45.70739" lon="2.85818">
        <ele>833.860264</ele>
        <time>2021-04-29T13:10:08.553Z</time>
      </trkpt>
      <trkpt lat="45.70776" lon="2.8577">
        <ele>840.321815</ele>
        <time>2021-04-29T13:10:45.944Z</time>
      </trkpt>
      <trkpt lat="45.70781" lon="2.85767">
        <ele>841.092632</ele>
        <time>2021-04-29T13:10:52.177Z</time>
      </trkpt>
      <trkpt lat="45.70837" lon="2.85666">
        <ele>852.677989</ele>
        <time>2021-04-29T13:12:55.382Z</time>
      </trkpt>
      <trkpt lat="45.70844" lon="2.85653">
        <ele>854.099282</ele>
        <time>2021-04-29T13:13:11.961Z</time>
      </trkpt>
      <trkpt lat="45.70853" lon="2.8563">
        <ele>856.237771</ele>
        <time>2021-04-29T13:13:35.884Z</time>
      </trkpt>
      <trkpt lat="45.70846" lon="2.8561">
        <ele>858.084568</ele>
        <time>2021-04-29T13:13:47.691Z</time>
      </trkpt>
      <trkpt lat="45.7084" lon="2.85584">
        <ele>860.41475</ele>
        <time>2021-04-29T13:14:02.030Z</time>
      </trkpt>
      <trkpt lat="45.70836" lon="2.85557">
        <ele>862.715309</ele>
        <time>2021-04-29T13:14:17.371Z</time>
      </trkpt>
      <trkpt lat="45.70834" lon="2.85538">
        <ele>864.342338</ele>
        <time>2021-04-29T13:14:26.315Z</time>
      </trkpt>
      <trkpt lat="45.70832" lon="2.85519">
        <ele>865.948864</ele>
        <time>2021-04-29T13:14:35.782Z</time>
      </trkpt>
      <trkpt lat="45.70829" lon="2.85481">
        <ele>869.174756</ele>
        <time>2021-04-29T13:14:54.566Z</time>
      </trkpt>
      <trkpt lat="45.70829" lon="2.85481">
        <ele>869.174756</ele>
        <time>2021-04-29T13:14:54.724Z</time>
      </trkpt>
      <trkpt lat="45.70826" lon="2.85455">
        <ele>871.41818</ele>
        <time>2021-04-29T13:15:08.482Z</time>
      </trkpt>
      <trkpt lat="45.70814" lon="2.85417">
        <ele>874.667264</ele>
        <time>2021-04-29T13:15:26.578Z</time>
      </trkpt>
      <trkpt lat="45.70798" lon="2.85398">
        <ele>875.713536</ele>
        <time>2021-04-29T13:15:36.715Z</time>
      </trkpt>
      <trkpt lat="45.70729" lon="2.85357">
        <ele>879.451957</ele>
        <time>2021-04-29T13:16:08.906Z</time>
      </trkpt>
      <trkpt lat="45.7068" lon="2.85309">
        <ele>882.415668</ele>
        <time>2021-04-29T13:16:29.466Z</time>
      </trkpt>
      <trkpt lat="45.70609" lon="2.85252">
        <ele>884.85317</ele>
        <time>2021-04-29T13:16:55.140Z</time>
      </trkpt>
      <trkpt lat="45.70576" lon="2.85181">
        <ele>886.200783</ele>
        <time>2021-04-29T13:17:13.137Z</time>
      </trkpt>
      <trkpt lat="45.70556" lon="2.85163">
        <ele>886.737556</ele>
        <time>2021-04-29T13:17:20.219Z</time>
      </trkpt>
      <trkpt lat="45.70402" lon="2.85082">
        <ele>890.736325</ele>
        <time>2021-04-29T13:18:11.993Z</time>
      </trkpt>
      <trkpt lat="45.70297" lon="2.85072">
        <ele>893.667327</ele>
        <time>2021-04-29T13:18:47.331Z</time>
      </trkpt>
      <trkpt lat="45.70259" lon="2.85063">
        <ele>894.869404</ele>
        <time>2021-04-29T13:19:01.427Z</time>
      </trkpt>
      <trkpt lat="45.70208" lon="2.85023">
        <ele>896.652771</ele>
        <time>2021-04-29T13:19:22.029Z</time>
      </trkpt>
      <trkpt lat="45.70172" lon="2.85005">
        <ele>897.773006</ele>
        <time>2021-04-29T13:19:35.223Z</time>
      </trkpt>
      <trkpt lat="45.70149" lon="2.85001">
        <ele>898.287248</ele>
        <time>2021-04-29T13:19:42.736Z</time>
      </trkpt>
      <trkpt lat="45.70133" lon="2.84998">
        <ele>898.655457</ele>
        <time>2021-04-29T13:19:48.468Z</time>
      </trkpt>
      <trkpt lat="45.70089" lon="2.84986">
        <ele>899.640011</ele>
        <time>2021-04-29T13:20:02.462Z</time>
      </trkpt>
      <trkpt lat="45.70052" lon="2.84964">
        <ele>900.53658</ele>
        <time>2021-04-29T13:20:14.829Z</time>
      </trkpt>
      <trkpt lat="45.69979" lon="2.84893">
        <ele>901.826842</ele>
        <time>2021-04-29T13:20:40.021Z</time>
      </trkpt>
      <trkpt lat="45.69944" lon="2.84847">
        <ele>902.073765</ele>
        <time>2021-04-29T13:20:51.579Z</time>
      </trkpt>
      <trkpt lat="45.69904" lon="2.84748">
        <ele>902.493106</ele>
        <time>2021-04-29T13:21:09.862Z</time>
      </trkpt>
      <trkpt lat="45.69872" lon="2.84703">
        <ele>902.324309</ele>
        <time>2021-04-29T13:21:19.327Z</time>
      </trkpt>
      <trkpt lat="45.69767" lon="2.84626">
        <ele>901.473595</ele>
        <time>2021-04-29T13:21:42.665Z</time>
      </trkpt>
      <trkpt lat="45.69675" lon="2.84605">
        <ele>901.014438</ele>
        <time>2021-04-29T13:22:00.392Z</time>
      </trkpt>
      <trkpt lat="45.69654" lon="2.84595">
        <ele>900.923572</ele>
        <time>2021-04-29T13:22:04.774Z</time>
      </trkpt>
      <trkpt lat="45.69626" lon="2.84566">
        <ele>900.788151</ele>
        <time>2021-04-29T13:22:11.792Z</time>
      </trkpt>
      <trkpt lat="45.69611" lon="2.84537">
        <ele>900.68906</ele>
        <time>2021-04-29T13:22:17.601Z</time>
      </trkpt>
      <trkpt lat="45.69607" lon="2.84526">
        <ele>900.655142</ele>
        <time>2021-04-29T13:22:19.229Z</time>
      </trkpt>
      <trkpt lat="45.69598" lon="2.84508">
        <ele>900.594649</ele>
        <time>2021-04-29T13:22:23.363Z</time>
      </trkpt>
      <trkpt lat="45.69582" lon="2.84486">
        <ele>900.875045</ele>
        <time>2021-04-29T13:22:28.505Z</time>
      </trkpt>
      <trkpt lat="45.69521" lon="2.84433">
        <ele>902.746134</ele>
        <time>2021-04-29T13:22:48.897Z</time>
      </trkpt>
      <trkpt lat="45.69483" lon="2.84415">
        <ele>903.794765</ele>
        <time>2021-04-29T13:23:02.589Z</time>
      </trkpt>
      <trkpt lat="45.69402" lon="2.84425">
        <ele>906.36062</ele>
        <time>2021-04-29T13:23:34.536Z</time>
      </trkpt>
      <trkpt lat="45.69335" lon="2.84452">
        <ele>909.397824</ele>
        <time>2021-04-29T13:24:04.622Z</time>
      </trkpt>
      <trkpt lat="45.69305" lon="2.84454">
        <ele>910.730412</ele>
        <time>2021-04-29T13:24:18.496Z</time>
      </trkpt>
      <trkpt lat="45.69279" lon="2.84448">
        <ele>911.907584</ele>
        <time>2021-04-29T13:24:29.760Z</time>
      </trkpt>
      <trkpt lat="45.69163" lon="2.8439">
        <ele>913.034208</ele>
        <time>2021-04-29T13:25:06.822Z</time>
      </trkpt>
      <trkpt lat="45.69155" lon="2.84386">
        <ele>913.022103</ele>
        <time>2021-04-29T13:25:08.939Z</time>
      </trkpt>
      <trkpt lat="45.69142" lon="2.84376">
        <ele>913.001915</ele>
        <time>2021-04-29T13:25:11.199Z</time>
      </trkpt>
      <trkpt lat="45.69109" lon="2.84339">
        <ele>912.945443</ele>
        <time>2021-04-29T13:25:18.481Z</time>
      </trkpt>
      <trkpt lat="45.6908" lon="2.84287">
        <ele>911.918813</ele>
        <time>2021-04-29T13:25:26.362Z</time>
      </trkpt>
      <trkpt lat="45.69074" lon="2.8428">
        <ele>911.618995</ele>
        <time>2021-04-29T13:25:27.445Z</time>
      </trkpt>
      <trkpt lat="45.69069" lon="2.84272">
        <ele>911.339838</ele>
        <time>2021-04-29T13:25:28.458Z</time>
      </trkpt>
      <trkpt lat="45.69051" lon="2.84259">
        <ele>910.535271</ele>
        <time>2021-04-29T13:25:32.081Z</time>
      </trkpt>
      <trkpt lat="45.69028" lon="2.84258">
        <ele>909.642183</ele>
        <time>2021-04-29T13:25:35.360Z</time>
      </trkpt>
      <trkpt lat="45.6902" lon="2.8426">
        <ele>909.349649</ele>
        <time>2021-04-29T13:25:36.512Z</time>
      </trkpt>
      <trkpt lat="45.69013" lon="2.84264">
        <ele>909.045977</ele>
        <time>2021-04-29T13:25:37.903Z</time>
      </trkpt>
      <trkpt lat="45.68947" lon="2.84308">
        <ele>906.18613</ele>
        <time>2021-04-29T13:25:49.262Z</time>
      </trkpt>
      <trkpt lat="45.68921" lon="2.84313">
        <ele>905.519213</ele>
        <time>2021-04-29T13:25:53.176Z</time>
      </trkpt>
      <trkpt lat="45.68877" lon="2.84312">
        <ele>904.578269</ele>
        <time>2021-04-29T13:26:01.409Z</time>
      </trkpt>
      <trkpt lat="45.68841" lon="2.84311">
        <ele>903.801269</ele>
        <time>2021-04-29T13:26:08.053Z</time>
      </trkpt>
      <trkpt lat="45.68741" lon="2.84359">
        <ele>901.646054</ele>
        <time>2021-04-29T13:26:27.072Z</time>
      </trkpt>
      <trkpt lat="45.68642" lon="2.84398">
        <ele>899.851505</ele>
        <time>2021-04-29T13:26:44.902Z</time>
      </trkpt>
      <trkpt lat="45.68614" lon="2.84406">
        <ele>899.344135</ele>
        <time>2021-04-29T13:26:49.988Z</time>
      </trkpt>
      <trkpt lat="45.68569" lon="2.84406">
        <ele>898.882016</ele>
        <time>2021-04-29T13:26:58.432Z</time>
      </trkpt>
      <trkpt lat="45.68496" lon="2.84394">
        <ele>898.736769</ele>
        <time>2021-04-29T13:27:13.528Z</time>
      </trkpt>
      <trkpt lat="45.68481" lon="2.84394">
        <ele>898.707208</ele>
        <time>2021-04-29T13:27:17.009Z</time>
      </trkpt>
      <trkpt lat="45.68463" lon="2.84395">
        <ele>898.671908</ele>
        <time>2021-04-29T13:27:21.108Z</time>
      </trkpt>
      <trkpt lat="45.68446" lon="2.84397">
        <ele>898.638729</ele>
        <time>2021-04-29T13:27:25.214Z</time>
      </trkpt>
      <trkpt lat="45.68437" lon="2.84397">
        <ele>898.620992</ele>
        <time>2021-04-29T13:27:27.128Z</time>
      </trkpt>
      <trkpt lat="45.68428" lon="2.84395">
        <ele>898.602908</ele>
        <time>2021-04-29T13:27:29.545Z</time>
      </trkpt>
      <trkpt lat="45.68386" lon="2.84378">
        <ele>898.886682</ele>
        <time>2021-04-29T13:27:40.668Z</time>
      </trkpt>
      <trkpt lat="45.68363" lon="2.8437">
        <ele>899.169996</ele>
        <time>2021-04-29T13:27:46.902Z</time>
      </trkpt>
      <trkpt lat="45.68342" lon="2.84364">
        <ele>899.434532</ele>
        <time>2021-04-29T13:27:53.272Z</time>
      </trkpt>
      <trkpt lat="45.68306" lon="2.84354">
        <ele>899.882176</ele>
        <time>2021-04-29T13:28:03.917Z</time>
      </trkpt>
      <trkpt lat="45.6827" lon="2.84342">
        <ele>900.335877</ele>
        <time>2021-04-29T13:28:13.576Z</time>
      </trkpt>
      <trkpt lat="45.68241" lon="2.84332">
        <ele>900.69033</ele>
        <time>2021-04-29T13:28:21.944Z</time>
      </trkpt>
      <trkpt lat="45.68203" lon="2.84317">
        <ele>901.273024</ele>
        <time>2021-04-29T13:28:32.682Z</time>
      </trkpt>
      <trkpt lat="45.68182" lon="2.84309">
        <ele>901.594938</ele>
        <time>2021-04-29T13:28:38.866Z</time>
      </trkpt>
      <trkpt lat="45.68176" lon="2.84307">
        <ele>901.687259</ele>
        <time>2021-04-29T13:28:40.519Z</time>
      </trkpt>
      <trkpt lat="45.68152" lon="2.84298">
        <ele>902.052695</ele>
        <time>2021-04-29T13:28:46.043Z</time>
      </trkpt>
      <trkpt lat="45.68137" lon="2.8429">
        <ele>902.289151</ele>
        <time>2021-04-29T13:28:51.312Z</time>
      </trkpt>
      <trkpt lat="45.68131" lon="2.84285">
        <ele>902.396556</ele>
        <time>2021-04-29T13:28:52.823Z</time>
      </trkpt>
      <trkpt lat="45.6812" lon="2.84277">
        <ele>902.590972</ele>
        <time>2021-04-29T13:28:55.900Z</time>
      </trkpt>
      <trkpt lat="45.68118" lon="2.8428">
        <ele>902.636411</ele>
        <time>2021-04-29T13:28:57.875Z</time>
      </trkpt>
      <trkpt lat="45.68103" lon="2.84282">
        <ele>902.859995</ele>
        <time>2021-04-29T13:29:01.923Z</time>
      </trkpt>
      <trkpt lat="45.68048" lon="2.84264">
        <ele>904.058693</ele>
        <time>2021-04-29T13:29:18.830Z</time>
      </trkpt>
      <trkpt lat="45.67945" lon="2.84205">
        <ele>907.965085</ele>
        <time>2021-04-29T13:29:58.519Z</time>
      </trkpt>
      <trkpt lat="45.67862" lon="2.84196">
        <ele>912.13846</ele>
        <time>2021-04-29T13:30:33.938Z</time>
      </trkpt>
      <trkpt lat="45.6785" lon="2.84205">
        <ele>913.143467</ele>
        <time>2021-04-29T13:30:41.553Z</time>
      </trkpt>
      <trkpt lat="45.67786" lon="2.84206">
        <ele>917.89054</ele>
        <time>2021-04-29T13:31:13.871Z</time>
      </trkpt>
      <trkpt lat="45.67719" lon="2.84215">
        <ele>922.798654</ele>
        <time>2021-04-29T13:31:52.560Z</time>
      </trkpt>
      <trkpt lat="45.67693" lon="2.84226">
        <ele>926.064093</ele>
        <time>2021-04-29T13:32:11.039Z</time>
      </trkpt>
      <trkpt lat="45.67655" lon="2.84267">
        <ele>932.025633</ele>
        <time>2021-04-29T13:32:41.145Z</time>
      </trkpt>
      <trkpt lat="45.67597" lon="2.84348">
        <ele>942.033983</ele>
        <time>2021-04-29T13:33:39.089Z</time>
      </trkpt>
      <trkpt lat="45.67553" lon="2.84432">
        <ele>953.671491</ele>
        <time>2021-04-29T13:34:49.418Z</time>
      </trkpt>
      <trkpt lat="45.67536" lon="2.84478">
        <ele>960.195577</ele>
        <time>2021-04-29T13:35:25.205Z</time>
      </trkpt>
      <trkpt lat="45.6752" lon="2.84514">
        <ele>965.452262</ele>
        <time>2021-04-29T13:35:54.283Z</time>
      </trkpt>
      <trkpt lat="45.67508" lon="2.84544">
        <ele>969.859475</ele>
        <time>2021-04-29T13:36:22.365Z</time>
      </trkpt>
      <trkpt lat="45.67465" lon="2.84625">
        <ele>980.672247</ele>
        <time>2021-04-29T13:37:24.496Z</time>
      </trkpt>
      <trkpt lat="45.67442" lon="2.8465">
        <ele>983.910309</ele>
        <time>2021-04-29T13:37:46.340Z</time>
      </trkpt>
      <trkpt lat="45.67418" lon="2.84657">
        <ele>986.772416</ele>
        <time>2021-04-29T13:38:03.400Z</time>
      </trkpt>
      <trkpt lat="45.67397" lon="2.84657">
        <ele>989.129601</ele>
        <time>2021-04-29T13:38:21.165Z</time>
      </trkpt>
      <trkpt lat="45.67375" lon="2.84653">
        <ele>991.542354</ele>
        <time>2021-04-29T13:38:34.180Z</time>
      </trkpt>
      <trkpt lat="45.6736" lon="2.8464">
        <ele>993.550391</ele>
        <time>2021-04-29T13:38:45.639Z</time>
      </trkpt>
      <trkpt lat="45.67345" lon="2.84613">
        <ele>996.281139</ele>
        <time>2021-04-29T13:39:02.103Z</time>
      </trkpt>
      <trkpt lat="45.67332" lon="2.84599">
        <ele>998.023976</ele>
        <time>2021-04-29T13:39:09.874Z</time>
      </trkpt>
      <trkpt lat="45.6732" lon="2.84594">
        <ele>998.973985</ele>
        <time>2021-04-29T13:39:19.437Z</time>
      </trkpt>
      <trkpt lat="45.67306" lon="2.84607">
        <ele>1000.212144</ele>
        <time>2021-04-29T13:39:31.069Z</time>
      </trkpt>
      <trkpt lat="45.67313" lon="2.84678">
        <ele>1004.022768</ele>
        <time>2021-04-29T13:40:01.733Z</time>
      </trkpt>
      <trkpt lat="45.67299" lon="2.84748">
        <ele>1007.933813</ele>
        <time>2021-04-29T13:40:35.565Z</time>
      </trkpt>
      <trkpt lat="45.67275" lon="2.84827">
        <ele>1012.616507</ele>
        <time>2021-04-29T13:41:21.057Z</time>
      </trkpt>
      <trkpt lat="45.67247" lon="2.84917">
        <ele>1018.299221</ele>
        <time>2021-04-29T13:42:13.322Z</time>
      </trkpt>
      <trkpt lat="45.6723" lon="2.84959">
        <ele>1021.124998</ele>
        <time>2021-04-29T13:42:38.635Z</time>
      </trkpt>
      <trkpt lat="45.67204" lon="2.8499">
        <ele>1023.916605</ele>
        <time>2021-04-29T13:43:01.764Z</time>
      </trkpt>
      <trkpt lat="45.67186" lon="2.84993">
        <ele>1025.437422</ele>
        <time>2021-04-29T13:43:13.482Z</time>
      </trkpt>
      <trkpt lat="45.67138" lon="2.84994">
        <ele>1027.811068</ele>
        <time>2021-04-29T13:43:40.547Z</time>
      </trkpt>
      <trkpt lat="45.67118" lon="2.84994">
        <ele>1028.588371</ele>
        <time>2021-04-29T13:43:51.824Z</time>
      </trkpt>
      <trkpt lat="45.67137" lon="2.85017">
        <ele>1029.538122</ele>
        <time>2021-04-29T13:44:00.920Z</time>
      </trkpt>
      <trkpt lat="45.67191" lon="2.85102">
        <ele>1032.586972</ele>
        <time>2021-04-29T13:44:28.392Z</time>
      </trkpt>
      <trkpt lat="45.67195" lon="2.85119">
        <ele>1033.092246</ele>
        <time>2021-04-29T13:44:31.596Z</time>
      </trkpt>
      <trkpt lat="45.67212" lon="2.8512">
        <ele>1033.718352</ele>
        <time>2021-04-29T13:44:40.595Z</time>
      </trkpt>
      <trkpt lat="45.67213" lon="2.8512">
        <ele>1033.759953</ele>
        <time>2021-04-29T13:44:41.548Z</time>
      </trkpt>
      <trkpt lat="45.67212" lon="2.8512">
        <ele>1033.801554</ele>
        <time>2021-04-29T13:44:41.815Z</time>
      </trkpt>
      <trkpt lat="45.67195" lon="2.85119">
        <ele>1034.425925</ele>
        <time>2021-04-29T13:44:48.247Z</time>
      </trkpt>
      <trkpt lat="45.67181" lon="2.8512">
        <ele>1034.985951</ele>
        <time>2021-04-29T13:44:53.660Z</time>
      </trkpt>
      <trkpt lat="45.66988" lon="2.85054">
        <ele>1043.960103</ele>
        <time>2021-04-29T13:46:13.124Z</time>
      </trkpt>
      <trkpt lat="45.66981" lon="2.85052">
        <ele>1044.380856</ele>
        <time>2021-04-29T13:46:17.281Z</time>
      </trkpt>
      <trkpt lat="45.66969" lon="2.85047">
        <ele>1045.138495</ele>
        <time>2021-04-29T13:46:22.975Z</time>
      </trkpt>
      <trkpt lat="45.66919" lon="2.85024">
        <ele>1048.367892</ele>
        <time>2021-04-29T13:46:49.427Z</time>
      </trkpt>
      <trkpt lat="45.66684" lon="2.8493">
        <ele>1065.99076</ele>
        <time>2021-04-29T13:49:01.356Z</time>
      </trkpt>
      <trkpt lat="45.666" lon="2.84902">
        <ele>1071.4537</ele>
        <time>2021-04-29T13:49:43.874Z</time>
      </trkpt>
      <trkpt lat="45.66558" lon="2.84881">
        <ele>1074.276631</ele>
        <time>2021-04-29T13:50:04.698Z</time>
      </trkpt>
      <trkpt lat="45.66334" lon="2.84737">
        <ele>1087.787604</ele>
        <time>2021-04-29T13:51:52.506Z</time>
      </trkpt>
      <trkpt lat="45.66311" lon="2.84714">
        <ele>1089.502489</ele>
        <time>2021-04-29T13:52:04.770Z</time>
      </trkpt>
      <trkpt lat="45.66267" lon="2.84757">
        <ele>1092.829648</ele>
        <time>2021-04-29T13:52:38.422Z</time>
      </trkpt>
      <trkpt lat="45.66215" lon="2.84772">
        <ele>1096.085927</ele>
        <time>2021-04-29T13:53:11.342Z</time>
      </trkpt>
      <trkpt lat="45.66206" lon="2.84777">
        <ele>1096.706268</ele>
        <time>2021-04-29T13:53:19.368Z</time>
      </trkpt>
      <trkpt lat="45.66201" lon="2.8479">
        <ele>1097.540407</ele>
        <time>2021-04-29T13:53:26.810Z</time>
      </trkpt>
      <trkpt lat="45.66194" lon="2.84886">
        <ele>1102.741946</ele>
        <time>2021-04-29T13:54:11.034Z</time>
      </trkpt>
      <trkpt lat="45.66189" lon="2.8489">
        <ele>1103.175659</ele>
        <time>2021-04-29T13:54:15.090Z</time>
      </trkpt>
      <trkpt lat="45.66175" lon="2.84896">
        <ele>1104.354188</ele>
        <time>2021-04-29T13:54:24.335Z</time>
      </trkpt>
      <trkpt lat="45.66161" lon="2.84911">
        <ele>1105.706485</ele>
        <time>2021-04-29T13:54:37.939Z</time>
      </trkpt>
      <trkpt lat="45.66061" lon="2.84956">
        <ele>1114.237558</ele>
        <time>2021-04-29T13:55:50.256Z</time>
      </trkpt>
      <trkpt lat="45.66027" lon="2.84965">
        <ele>1117.325832</ele>
        <time>2021-04-29T13:56:15.178Z</time>
      </trkpt>
      <trkpt lat="45.6599" lon="2.84982">
        <ele>1120.812145</ele>
        <time>2021-04-29T13:56:43.128Z</time>
      </trkpt>
      <trkpt lat="45.65906" lon="2.85002">
        <ele>1128.337847</ele>
        <time>2021-04-29T13:57:47.327Z</time>
      </trkpt>
      <trkpt lat="45.65883" lon="2.85013">
        <ele>1130.533511</ele>
        <time>2021-04-29T13:58:06.829Z</time>
      </trkpt>
      <trkpt lat="45.65865" lon="2.85022">
        <ele>1132.244577</ele>
        <time>2021-04-29T13:58:21.007Z</time>
      </trkpt>
      <trkpt lat="45.65846" lon="2.85028">
        <ele>1133.957945</ele>
        <time>2021-04-29T13:58:34.438Z</time>
      </trkpt>
      <trkpt lat="45.65801" lon="2.8505">
        <ele>1138.173786</ele>
        <time>2021-04-29T13:59:07.635Z</time>
      </trkpt>
      <trkpt lat="45.65784" lon="2.85062">
        <ele>1139.834852</ele>
        <time>2021-04-29T13:59:21.542Z</time>
      </trkpt>
      <trkpt lat="45.65713" lon="2.85121">
        <ele>1146.525351</ele>
        <time>2021-04-29T14:00:20.650Z</time>
      </trkpt>
      <trkpt lat="45.65668" lon="2.85174">
        <ele>1150.852797</ele>
        <time>2021-04-29T14:01:00.009Z</time>
      </trkpt>
      <trkpt lat="45.65656" lon="2.85207">
        <ele>1152.831654</ele>
        <time>2021-04-29T14:01:16.444Z</time>
      </trkpt>
      <trkpt lat="45.65533" lon="2.85364">
        <ele>1164.755955</ele>
        <time>2021-04-29T14:03:01.608Z</time>
      </trkpt>
      <trkpt lat="45.65488" lon="2.85396">
        <ele>1168.308357</ele>
        <time>2021-04-29T14:03:35.408Z</time>
      </trkpt>
      <trkpt lat="45.65462" lon="2.85402">
        <ele>1170.236795</ele>
        <time>2021-04-29T14:03:55.015Z</time>
      </trkpt>
      <trkpt lat="45.65421" lon="2.85396">
        <ele>1173.228351</ele>
        <time>2021-04-29T14:04:23.495Z</time>
      </trkpt>
      <trkpt lat="45.6537" lon="2.85392">
        <ele>1176.955611</ele>
        <time>2021-04-29T14:04:57.378Z</time>
      </trkpt>
      <trkpt lat="45.6536" lon="2.85393">
        <ele>1177.697937</ele>
        <time>2021-04-29T14:05:03.769Z</time>
      </trkpt>
      <trkpt lat="45.65341" lon="2.85389">
        <ele>1179.116491</ele>
        <time>2021-04-29T14:05:12.725Z</time>
      </trkpt>
      <trkpt lat="45.65313" lon="2.85387">
        <ele>1181.15315</ele>
        <time>2021-04-29T14:05:27.553Z</time>
      </trkpt>
      <trkpt lat="45.65307" lon="2.85367">
        <ele>1182.246302</ele>
        <time>2021-04-29T14:05:34.262Z</time>
      </trkpt>
      <trkpt lat="45.65291" lon="2.85324">
        <ele>1183.711084</ele>
        <time>2021-04-29T14:05:49.535Z</time>
      </trkpt>
      <trkpt lat="45.65265" lon="2.85278">
        <ele>1185.492087</ele>
        <time>2021-04-29T14:06:07.381Z</time>
      </trkpt>
      <trkpt lat="45.65235" lon="2.85252">
        <ele>1187.049419</ele>
        <time>2021-04-29T14:06:21.335Z</time>
      </trkpt>
      <trkpt lat="45.65197" lon="2.8524">
        <ele>1188.716484</ele>
        <time>2021-04-29T14:06:34.718Z</time>
      </trkpt>
      <trkpt lat="45.65086" lon="2.8522">
        <ele>1192.687263</ele>
        <time>2021-04-29T14:07:11.015Z</time>
      </trkpt>
      <trkpt lat="45.65049" lon="2.85216">
        <ele>1193.903013</ele>
        <time>2021-04-29T14:07:24.303Z</time>
      </trkpt>
      <trkpt lat="45.64976" lon="2.85207">
        <ele>1196.523439</ele>
        <time>2021-04-29T14:07:51.699Z</time>
      </trkpt>
      <trkpt lat="45.64946" lon="2.85222">
        <ele>1198.059289</ele>
        <time>2021-04-29T14:08:08.456Z</time>
      </trkpt>
      <trkpt lat="45.64806" lon="2.85316">
        <ele>1205.255454</ele>
        <time>2021-04-29T14:09:39.849Z</time>
      </trkpt>
      <trkpt lat="45.64791" lon="2.85333">
        <ele>1205.79745</ele>
        <time>2021-04-29T14:09:50.289Z</time>
      </trkpt>
      <trkpt lat="45.64772" lon="2.85355">
        <ele>1206.507247</ele>
        <time>2021-04-29T14:10:02.600Z</time>
      </trkpt>
      <trkpt lat="45.64769" lon="2.85359">
        <ele>1206.626294</ele>
        <time>2021-04-29T14:10:04.094Z</time>
      </trkpt>
      <trkpt lat="45.64764" lon="2.8537">
        <ele>1206.885944</ele>
        <time>2021-04-29T14:10:08.010Z</time>
      </trkpt>
      <trkpt lat="45.64753" lon="2.85395">
        <ele>1207.462424</ele>
        <time>2021-04-29T14:10:14.483Z</time>
      </trkpt>
      <trkpt lat="45.64744" lon="2.85459">
        <ele>1208.787143</ele>
        <time>2021-04-29T14:10:29.620Z</time>
      </trkpt>
      <trkpt lat="45.64745" lon="2.85476">
        <ele>1209.120764</ele>
        <time>2021-04-29T14:10:33.541Z</time>
      </trkpt>
      <trkpt lat="45.64744" lon="2.85498">
        <ele>1209.552086</ele>
        <time>2021-04-29T14:10:37.295Z</time>
      </trkpt>
      <trkpt lat="45.64744" lon="2.85513">
        <ele>1209.849372</ele>
        <time>2021-04-29T14:10:40.432Z</time>
      </trkpt>
      <trkpt lat="45.64748" lon="2.85551">
        <ele>1209.791388</ele>
        <time>2021-04-29T14:10:46.917Z</time>
      </trkpt>
      <trkpt lat="45.64749" lon="2.85578">
        <ele>1209.749365</ele>
        <time>2021-04-29T14:10:51.657Z</time>
      </trkpt>
      <trkpt lat="45.64764" lon="2.85647">
        <ele>1209.64062</ele>
        <time>2021-04-29T14:11:01.513Z</time>
      </trkpt>
      <trkpt lat="45.6477" lon="2.85674">
        <ele>1209.596916</ele>
        <time>2021-04-29T14:11:05.734Z</time>
      </trkpt>
      <trkpt lat="45.64772" lon="2.85683">
        <ele>1209.582192</ele>
        <time>2021-04-29T14:11:07.026Z</time>
      </trkpt>
      <trkpt lat="45.64776" lon="2.857">
        <ele>1209.554351</ele>
        <time>2021-04-29T14:11:09.554Z</time>
      </trkpt>
      <trkpt lat="45.64779" lon="2.85711">
        <ele>1209.537459</ele>
        <time>2021-04-29T14:11:11.066Z</time>
      </trkpt>
      <trkpt lat="45.64783" lon="2.85757">
        <ele>1209.466211</ele>
        <time>2021-04-29T14:11:18.123Z</time>
      </trkpt>
      <trkpt lat="45.64783" lon="2.85757">
        <ele>1209.466059</ele>
        <time>2021-04-29T14:11:18.194Z</time>
      </trkpt>
      <trkpt lat="45.64783" lon="2.85757">
        <ele>1209.465906</ele>
        <time>2021-04-29T14:11:18.202Z</time>
      </trkpt>
      <trkpt lat="45.64779" lon="2.85711">
        <ele>1209.643397</ele>
        <time>2021-04-29T14:11:26.436Z</time>
      </trkpt>
      <trkpt lat="45.64776" lon="2.857">
        <ele>1209.692041</ele>
        <time>2021-04-29T14:11:28.686Z</time>
      </trkpt>
      <trkpt lat="45.64772" lon="2.85683">
        <ele>1209.772217</ele>
        <time>2021-04-29T14:11:32.251Z</time>
      </trkpt>
      <trkpt lat="45.6477" lon="2.85674">
        <ele>1209.814618</ele>
        <time>2021-04-29T14:11:34.255Z</time>
      </trkpt>
      <trkpt lat="45.64764" lon="2.85647">
        <ele>1209.940475</ele>
        <time>2021-04-29T14:11:39.438Z</time>
      </trkpt>
      <trkpt lat="45.64749" lon="2.85578">
        <ele>1210.253634</ele>
        <time>2021-04-29T14:11:53.542Z</time>
      </trkpt>
      <trkpt lat="45.64748" lon="2.85551">
        <ele>1210.374648</ele>
        <time>2021-04-29T14:11:57.796Z</time>
      </trkpt>
      <trkpt lat="45.64744" lon="2.85513">
        <ele>1210.54163</ele>
        <time>2021-04-29T14:12:03.819Z</time>
      </trkpt>
      <trkpt lat="45.64744" lon="2.85498">
        <ele>1210.600906</ele>
        <time>2021-04-29T14:12:06.943Z</time>
      </trkpt>
      <trkpt lat="45.64745" lon="2.85476">
        <ele>1210.656657</ele>
        <time>2021-04-29T14:12:11.490Z</time>
      </trkpt>
      <trkpt lat="45.64744" lon="2.85459">
        <ele>1210.69978</ele>
        <time>2021-04-29T14:12:14.457Z</time>
      </trkpt>
      <trkpt lat="45.64753" lon="2.85395">
        <ele>1210.871007</ele>
        <time>2021-04-29T14:12:27.134Z</time>
      </trkpt>
      <trkpt lat="45.64764" lon="2.8537">
        <ele>1210.94552</ele>
        <time>2021-04-29T14:12:32.891Z</time>
      </trkpt>
      <trkpt lat="45.64769" lon="2.85359">
        <ele>1210.979081</ele>
        <time>2021-04-29T14:12:35.342Z</time>
      </trkpt>
      <trkpt lat="45.64772" lon="2.85355">
        <ele>1210.994469</ele>
        <time>2021-04-29T14:12:36.419Z</time>
      </trkpt>
      <trkpt lat="45.64791" lon="2.85333">
        <ele>1211.086214</ele>
        <time>2021-04-29T14:12:45.739Z</time>
      </trkpt>
      <trkpt lat="45.64772" lon="2.85355">
        <ele>1211.177959</ele>
        <time>2021-04-29T14:12:54.858Z</time>
      </trkpt>
      <trkpt lat="45.64769" lon="2.85359">
        <ele>1211.193346</ele>
        <time>2021-04-29T14:12:55.696Z</time>
      </trkpt>
      <trkpt lat="45.64764" lon="2.8537">
        <ele>1211.226908</ele>
        <time>2021-04-29T14:12:57.561Z</time>
      </trkpt>
      <trkpt lat="45.64753" lon="2.85395">
        <ele>1211.143416</ele>
        <time>2021-04-29T14:13:01.498Z</time>
      </trkpt>
      <trkpt lat="45.64744" lon="2.85459">
        <ele>1210.761962</ele>
        <time>2021-04-29T14:13:10.843Z</time>
      </trkpt>
      <trkpt lat="45.64745" lon="2.85476">
        <ele>1210.665895</ele>
        <time>2021-04-29T14:13:13.328Z</time>
      </trkpt>
      <trkpt lat="45.64744" lon="2.85498">
        <ele>1210.541696</ele>
        <time>2021-04-29T14:13:16.179Z</time>
      </trkpt>
      <trkpt lat="45.64744" lon="2.85513">
        <ele>1210.451183</ele>
        <time>2021-04-29T14:13:18.327Z</time>
      </trkpt>
      <trkpt lat="45.64748" lon="2.85551">
        <ele>1210.23181</ele>
        <time>2021-04-29T14:13:24.664Z</time>
      </trkpt>
      <trkpt lat="45.64749" lon="2.85578">
        <ele>1210.072826</ele>
        <time>2021-04-29T14:13:29.417Z</time>
      </trkpt>
      <trkpt lat="45.64764" lon="2.85647">
        <ele>1209.713378</ele>
        <time>2021-04-29T14:13:39.144Z</time>
      </trkpt>
      <trkpt lat="45.6477" lon="2.85674">
        <ele>1209.627062</ele>
        <time>2021-04-29T14:13:43.136Z</time>
      </trkpt>
      <trkpt lat="45.64772" lon="2.85683">
        <ele>1209.597983</ele>
        <time>2021-04-29T14:13:44.426Z</time>
      </trkpt>
      <trkpt lat="45.64776" lon="2.857">
        <ele>1209.542996</ele>
        <time>2021-04-29T14:13:46.850Z</time>
      </trkpt>
      <trkpt lat="45.64779" lon="2.85711">
        <ele>1209.509635</ele>
        <time>2021-04-29T14:13:48.271Z</time>
      </trkpt>
      <trkpt lat="45.64783" lon="2.85757">
        <ele>1209.368919</ele>
        <time>2021-04-29T14:13:55.019Z</time>
      </trkpt>
      <trkpt lat="45.64795" lon="2.85844">
        <ele>1209.104234</ele>
        <time>2021-04-29T14:14:09.585Z</time>
      </trkpt>
      <trkpt lat="45.64778" lon="2.85989">
        <ele>1208.566739</ele>
        <time>2021-04-29T14:14:35.818Z</time>
      </trkpt>
      <trkpt lat="45.64772" lon="2.86025">
        <ele>1208.426126</ele>
        <time>2021-04-29T14:14:42.542Z</time>
      </trkpt>
      <trkpt lat="45.64769" lon="2.86037">
        <ele>1208.375338</ele>
        <time>2021-04-29T14:14:44.766Z</time>
      </trkpt>
      <trkpt lat="45.64739" lon="2.86209">
        <ele>1205.069503</ele>
        <time>2021-04-29T14:15:07.433Z</time>
      </trkpt>
      <trkpt lat="45.64735" lon="2.86261">
        <ele>1203.167192</ele>
        <time>2021-04-29T14:15:13.219Z</time>
      </trkpt>
      <trkpt lat="45.64735" lon="2.86267">
        <ele>1202.967446</ele>
        <time>2021-04-29T14:15:13.782Z</time>
      </trkpt>
      <trkpt lat="45.6473" lon="2.86381">
        <ele>1198.794826</ele>
        <time>2021-04-29T14:15:26.049Z</time>
      </trkpt>
      <trkpt lat="45.64729" lon="2.86396">
        <ele>1197.963354</ele>
        <time>2021-04-29T14:15:27.559Z</time>
      </trkpt>
      <trkpt lat="45.64724" lon="2.86544">
        <ele>1189.035967</ele>
        <time>2021-04-29T14:15:42.407Z</time>
      </trkpt>
      <trkpt lat="45.64727" lon="2.86624">
        <ele>1184.155562</ele>
        <time>2021-04-29T14:15:50.638Z</time>
      </trkpt>
      <trkpt lat="45.64728" lon="2.8663">
        <ele>1183.764346</ele>
        <time>2021-04-29T14:15:51.331Z</time>
      </trkpt>
      <trkpt lat="45.64736" lon="2.86645">
        <ele>1182.697821</ele>
        <time>2021-04-29T14:15:53.208Z</time>
      </trkpt>
      <trkpt lat="45.64791" lon="2.86738">
        <ele>1176.360572</ele>
        <time>2021-04-29T14:16:05.784Z</time>
      </trkpt>
      <trkpt lat="45.64879" lon="2.8681">
        <ele>1169.047433</ele>
        <time>2021-04-29T14:16:20.938Z</time>
      </trkpt>
      <trkpt lat="45.64933" lon="2.8685">
        <ele>1165.962594</ele>
        <time>2021-04-29T14:16:30.242Z</time>
      </trkpt>
      <trkpt lat="45.65021" lon="2.86922">
        <ele>1160.812517</ele>
        <time>2021-04-29T14:16:46.525Z</time>
      </trkpt>
      <trkpt lat="45.65062" lon="2.86957">
        <ele>1160.493983</ele>
        <time>2021-04-29T14:16:55.073Z</time>
      </trkpt>
      <trkpt lat="45.65031" lon="2.87041">
        <ele>1160.472237</ele>
        <time>2021-04-29T14:17:19.102Z</time>
      </trkpt>
      <trkpt lat="45.65008" lon="2.87117">
        <ele>1160.453606</ele>
        <time>2021-04-29T14:17:43.926Z</time>
      </trkpt>
      <trkpt lat="45.64953" lon="2.87154">
        <ele>1161.633055</ele>
        <time>2021-04-29T14:18:15.715Z</time>
      </trkpt>
      <trkpt lat="45.64897" lon="2.87238">
        <ele>1163.687527</ele>
        <time>2021-04-29T14:18:57.399Z</time>
      </trkpt>
      <trkpt lat="45.64856" lon="2.87286">
        <ele>1164.957969</ele>
        <time>2021-04-29T14:19:20.024Z</time>
      </trkpt>
      <trkpt lat="45.64781" lon="2.87375">
        <ele>1162.869259</ele>
        <time>2021-04-29T14:19:54.378Z</time>
      </trkpt>
      <trkpt lat="45.64769" lon="2.87391">
        <ele>1162.510346</ele>
        <time>2021-04-29T14:19:59.279Z</time>
      </trkpt>
      <trkpt lat="45.6469" lon="2.87501">
        <ele>1158.005526</ele>
        <time>2021-04-29T14:20:29.658Z</time>
      </trkpt>
      <trkpt lat="45.64629" lon="2.87557">
        <ele>1153.034223</ele>
        <time>2021-04-29T14:20:48.513Z</time>
      </trkpt>
      <trkpt lat="45.64536" lon="2.87598">
        <ele>1146.147403</ele>
        <time>2021-04-29T14:21:13.200Z</time>
      </trkpt>
      <trkpt lat="45.6452" lon="2.87615">
        <ele>1144.642811</ele>
        <time>2021-04-29T14:21:18.320Z</time>
      </trkpt>
      <trkpt lat="45.64516" lon="2.87626">
        <ele>1144.007612</ele>
        <time>2021-04-29T14:21:20.362Z</time>
      </trkpt>
      <trkpt lat="45.6452" lon="2.8768">
        <ele>1141.156892</ele>
        <time>2021-04-29T14:21:30.072Z</time>
      </trkpt>
      <trkpt lat="45.64546" lon="2.87811">
        <ele>1134.354268</ele>
        <time>2021-04-29T14:21:54.888Z</time>
      </trkpt>
      <trkpt lat="45.64579" lon="2.87846">
        <ele>1132.194253</ele>
        <time>2021-04-29T14:22:05.875Z</time>
      </trkpt>
      <trkpt lat="45.64625" lon="2.87879">
        <ele>1129.504891</ele>
        <time>2021-04-29T14:22:20.023Z</time>
      </trkpt>
      <trkpt lat="45.64665" lon="2.87917">
        <ele>1126.95816</ele>
        <time>2021-04-29T14:22:33.520Z</time>
      </trkpt>
      <trkpt lat="45.64728" lon="2.87991">
        <ele>1124.996226</ele>
        <time>2021-04-29T14:22:56.927Z</time>
      </trkpt>
      <trkpt lat="45.64739" lon="2.88014">
        <ele>1124.705158</ele>
        <time>2021-04-29T14:23:03.139Z</time>
      </trkpt>
      <trkpt lat="45.6478" lon="2.88063">
        <ele>1123.92255</ele>
        <time>2021-04-29T14:23:21.169Z</time>
      </trkpt>
      <trkpt lat="45.64783" lon="2.8807">
        <ele>1123.834982</ele>
        <time>2021-04-29T14:23:22.794Z</time>
      </trkpt>
      <trkpt lat="45.6478" lon="2.88077">
        <ele>1123.749869</ele>
        <time>2021-04-29T14:23:26.148Z</time>
      </trkpt>
      <trkpt lat="45.6474" lon="2.88081">
        <ele>1123.369663</ele>
        <time>2021-04-29T14:23:41.806Z</time>
      </trkpt>
      <trkpt lat="45.64723" lon="2.88089">
        <ele>1123.894166</ele>
        <time>2021-04-29T14:23:49.614Z</time>
      </trkpt>
      <trkpt lat="45.64659" lon="2.88086">
        <ele>1125.731692</ele>
        <time>2021-04-29T14:24:20.431Z</time>
      </trkpt>
      <trkpt lat="45.64616" lon="2.88063">
        <ele>1127.061539</ele>
        <time>2021-04-29T14:24:45.000Z</time>
      </trkpt>
      <trkpt lat="45.64561" lon="2.88078">
        <ele>1128.696635</ele>
        <time>2021-04-29T14:25:13.665Z</time>
      </trkpt>
      <trkpt lat="45.64548" lon="2.88088">
        <ele>1129.192497</ele>
        <time>2021-04-29T14:25:21.696Z</time>
      </trkpt>
      <trkpt lat="45.64533" lon="2.88099">
        <ele>1129.774809</ele>
        <time>2021-04-29T14:25:30.094Z</time>
      </trkpt>
      <trkpt lat="45.64518" lon="2.88104">
        <ele>1130.283843</ele>
        <time>2021-04-29T14:25:37.833Z</time>
      </trkpt>
      <trkpt lat="45.64494" lon="2.88117">
        <ele>1131.140849</ele>
        <time>2021-04-29T14:25:49.994Z</time>
      </trkpt>
      <trkpt lat="45.64469" lon="2.88117">
        <ele>1131.96903</ele>
        <time>2021-04-29T14:26:02.167Z</time>
      </trkpt>
      <trkpt lat="45.64413" lon="2.88176">
        <ele>1134.288958</ele>
        <time>2021-04-29T14:26:37.466Z</time>
      </trkpt>
      <trkpt lat="45.64367" lon="2.88193">
        <ele>1136.697467</ele>
        <time>2021-04-29T14:27:01.710Z</time>
      </trkpt>
      <trkpt lat="45.64335" lon="2.88195">
        <ele>1138.424278</ele>
        <time>2021-04-29T14:27:19.455Z</time>
      </trkpt>
      <trkpt lat="45.64264" lon="2.88176">
        <ele>1142.213897</ele>
        <time>2021-04-29T14:27:51.225Z</time>
      </trkpt>
      <trkpt lat="45.64124" lon="2.88208">
        <ele>1152.078556</ele>
        <time>2021-04-29T14:29:10.225Z</time>
      </trkpt>
      <trkpt lat="45.64061" lon="2.88233">
        <ele>1156.897682</ele>
        <time>2021-04-29T14:29:44.364Z</time>
      </trkpt>
      <trkpt lat="45.64028" lon="2.88278">
        <ele>1159.098527</ele>
        <time>2021-04-29T14:30:07.122Z</time>
      </trkpt>
      <trkpt lat="45.63944" lon="2.88515">
        <ele>1165.746475</ele>
        <time>2021-04-29T14:31:17.256Z</time>
      </trkpt>
      <trkpt lat="45.6389" lon="2.88647">
        <ele>1166.970323</ele>
        <time>2021-04-29T14:31:43.844Z</time>
      </trkpt>
      <trkpt lat="45.63863" lon="2.88693">
        <ele>1167.21509</ele>
        <time>2021-04-29T14:31:52.777Z</time>
      </trkpt>
      <trkpt lat="45.63824" lon="2.88776">
        <ele>1166.991252</ele>
        <time>2021-04-29T14:32:07.759Z</time>
      </trkpt>
      <trkpt lat="45.63818" lon="2.88782">
        <ele>1166.97057</ele>
        <time>2021-04-29T14:32:09.095Z</time>
      </trkpt>
      <trkpt lat="45.63764" lon="2.88837">
        <ele>1166.75936</ele>
        <time>2021-04-29T14:32:22.783Z</time>
      </trkpt>
      <trkpt lat="45.63758" lon="2.88842">
        <ele>1166.737263</ele>
        <time>2021-04-29T14:32:25.632Z</time>
      </trkpt>
      <trkpt lat="45.63744" lon="2.88859">
        <ele>1166.714603</ele>
        <time>2021-04-29T14:32:32.194Z</time>
      </trkpt>
      <trkpt lat="45.63744" lon="2.88859">
        <ele>1166.714603</ele>
        <time>2021-04-29T14:32:32.218Z</time>
      </trkpt>
      <trkpt lat="45.6373" lon="2.8888">
        <ele>1166.810558</ele>
        <time>2021-04-29T14:32:41.028Z</time>
      </trkpt>
      <trkpt lat="45.63707" lon="2.88905">
        <ele>1166.945816</ele>
        <time>2021-04-29T14:32:52.971Z</time>
      </trkpt>
      <trkpt lat="45.63701" lon="2.88915">
        <ele>1166.991163</ele>
        <time>2021-04-29T14:32:57.249Z</time>
      </trkpt>
      <trkpt lat="45.63691" lon="2.8894">
        <ele>1167.083239</ele>
        <time>2021-04-29T14:33:05.453Z</time>
      </trkpt>
      <trkpt lat="45.63687" lon="2.88957">
        <ele>1167.141509</ele>
        <time>2021-04-29T14:33:11.584Z</time>
      </trkpt>
      <trkpt lat="45.63687" lon="2.88968">
        <ele>1167.179536</ele>
        <time>2021-04-29T14:33:14.573Z</time>
      </trkpt>
      <trkpt lat="45.63673" lon="2.88971">
        <ele>1167.24324</ele>
        <time>2021-04-29T14:33:18.250Z</time>
      </trkpt>
      <trkpt lat="45.63663" lon="2.88973">
        <ele>1167.293225</ele>
        <time>2021-04-29T14:33:21.806Z</time>
      </trkpt>
      <trkpt lat="45.63629" lon="2.88965">
        <ele>1167.451859</ele>
        <time>2021-04-29T14:33:29.807Z</time>
      </trkpt>
      <trkpt lat="45.63616" lon="2.88965">
        <ele>1167.51508</ele>
        <time>2021-04-29T14:33:32.490Z</time>
      </trkpt>
      <trkpt lat="45.63554" lon="2.88976">
        <ele>1165.058881</ele>
        <time>2021-04-29T14:33:43.970Z</time>
      </trkpt>
      <trkpt lat="45.63533" lon="2.88979">
        <ele>1164.200156</ele>
        <time>2021-04-29T14:33:47.637Z</time>
      </trkpt>
      <trkpt lat="45.63519" lon="2.88981">
        <ele>1163.580027</ele>
        <time>2021-04-29T14:33:49.839Z</time>
      </trkpt>
      <trkpt lat="45.63509" lon="2.88983">
        <ele>1163.151966</ele>
        <time>2021-04-29T14:33:51.397Z</time>
      </trkpt>
      <trkpt lat="45.63496" lon="2.88991">
        <ele>1162.563627</ele>
        <time>2021-04-29T14:33:54.051Z</time>
      </trkpt>
      <trkpt lat="45.63494" lon="2.88994">
        <ele>1162.414895</ele>
        <time>2021-04-29T14:33:54.548Z</time>
      </trkpt>
      <trkpt lat="45.63483" lon="2.89004">
        <ele>1161.89422</ele>
        <time>2021-04-29T14:33:56.314Z</time>
      </trkpt>
      <trkpt lat="45.63464" lon="2.89014">
        <ele>1160.998478</ele>
        <time>2021-04-29T14:33:59.817Z</time>
      </trkpt>
      <trkpt lat="45.63459" lon="2.89039">
        <ele>1160.239045</ele>
        <time>2021-04-29T14:34:02.360Z</time>
      </trkpt>
      <trkpt lat="45.63445" lon="2.89115">
        <ele>1156.653874</ele>
        <time>2021-04-29T14:34:10.731Z</time>
      </trkpt>
      <trkpt lat="45.63442" lon="2.89129">
        <ele>1155.95884</ele>
        <time>2021-04-29T14:34:12.116Z</time>
      </trkpt>
      <trkpt lat="45.63442" lon="2.89135">
        <ele>1155.668274</ele>
        <time>2021-04-29T14:34:12.729Z</time>
      </trkpt>
      <trkpt lat="45.63443" lon="2.89141">
        <ele>1155.339205</ele>
        <time>2021-04-29T14:34:13.437Z</time>
      </trkpt>
      <trkpt lat="45.63443" lon="2.89141">
        <ele>1155.339205</ele>
        <time>2021-04-29T14:34:13.447Z</time>
      </trkpt>
      <trkpt lat="45.63445" lon="2.89149">
        <ele>1154.945445</ele>
        <time>2021-04-29T14:34:14.359Z</time>
      </trkpt>
      <trkpt lat="45.63498" lon="2.89222">
        <ele>1149.80558</ele>
        <time>2021-04-29T14:34:25.494Z</time>
      </trkpt>
      <trkpt lat="45.63618" lon="2.89392">
        <ele>1138.110043</ele>
        <time>2021-04-29T14:34:51.603Z</time>
      </trkpt>
      <trkpt lat="45.63469" lon="2.89512">
        <ele>1121.934202</ele>
        <time>2021-04-29T14:35:15.995Z</time>
      </trkpt>
      <trkpt lat="45.63431" lon="2.89528">
        <ele>1117.720894</ele>
        <time>2021-04-29T14:35:25.622Z</time>
      </trkpt>
      <trkpt lat="45.63394" lon="2.8954">
        <ele>1113.479364</ele>
        <time>2021-04-29T14:35:34.543Z</time>
      </trkpt>
      <trkpt lat="45.63348" lon="2.89619">
        <ele>1105.021931</ele>
        <time>2021-04-29T14:35:51.664Z</time>
      </trkpt>
      <trkpt lat="45.63301" lon="2.89701">
        <ele>1096.224521</ele>
        <time>2021-04-29T14:36:09.625Z</time>
      </trkpt>
      <trkpt lat="45.63255" lon="2.89738">
        <ele>1090.684571</ele>
        <time>2021-04-29T14:36:22.042Z</time>
      </trkpt>
      <trkpt lat="45.6323" lon="2.89771">
        <ele>1087.103426</ele>
        <time>2021-04-29T14:36:30.417Z</time>
      </trkpt>
      <trkpt lat="45.63214" lon="2.89805">
        <ele>1084.152436</ele>
        <time>2021-04-29T14:36:37.408Z</time>
      </trkpt>
      <trkpt lat="45.63197" lon="2.89843">
        <ele>1080.879608</ele>
        <time>2021-04-29T14:36:45.235Z</time>
      </trkpt>
      <trkpt lat="45.63183" lon="2.89883">
        <ele>1077.674624</ele>
        <time>2021-04-29T14:36:52.893Z</time>
      </trkpt>
      <trkpt lat="45.63142" lon="2.89956">
        <ele>1073.159319</ele>
        <time>2021-04-29T14:37:09.391Z</time>
      </trkpt>
      <trkpt lat="45.63134" lon="2.9002">
        <ele>1070.441813</ele>
        <time>2021-04-29T14:37:20.974Z</time>
      </trkpt>
      <trkpt lat="45.63141" lon="2.90059">
        <ele>1068.728785</ele>
        <time>2021-04-29T14:37:28.537Z</time>
      </trkpt>
      <trkpt lat="45.63133" lon="2.90098">
        <ele>1067.002992</ele>
        <time>2021-04-29T14:37:37.153Z</time>
      </trkpt>
      <trkpt lat="45.63044" lon="2.90201">
        <ele>1065.10049</ele>
        <time>2021-04-29T14:38:14.314Z</time>
      </trkpt>
      <trkpt lat="45.63026" lon="2.90224">
        <ele>1064.989727</ele>
        <time>2021-04-29T14:38:21.148Z</time>
      </trkpt>
      <trkpt lat="45.63017" lon="2.90249">
        <ele>1064.898983</ele>
        <time>2021-04-29T14:38:26.425Z</time>
      </trkpt>
      <trkpt lat="45.63018" lon="2.90273">
        <ele>1064.823491</ele>
        <time>2021-04-29T14:38:31.535Z</time>
      </trkpt>
      <trkpt lat="45.6304" lon="2.90355">
        <ele>1064.244205</ele>
        <time>2021-04-29T14:38:47.743Z</time>
      </trkpt>
      <trkpt lat="45.63058" lon="2.90467">
        <ele>1063.105113</ele>
        <time>2021-04-29T14:39:05.380Z</time>
      </trkpt>
      <trkpt lat="45.63098" lon="2.90617">
        <ele>1059.579596</ele>
        <time>2021-04-29T14:39:24.172Z</time>
      </trkpt>
      <trkpt lat="45.6311" lon="2.90639">
        <ele>1058.460263</ele>
        <time>2021-04-29T14:39:27.194Z</time>
      </trkpt>
      <trkpt lat="45.63202" lon="2.90728">
        <ele>1052.046432</ele>
        <time>2021-04-29T14:39:44.025Z</time>
      </trkpt>
      <trkpt lat="45.63256" lon="2.90806">
        <ele>1047.519274</ele>
        <time>2021-04-29T14:39:55.563Z</time>
      </trkpt>
      <trkpt lat="45.63267" lon="2.90888">
        <ele>1044.071197</ele>
        <time>2021-04-29T14:40:04.529Z</time>
      </trkpt>
      <trkpt lat="45.63291" lon="2.90936">
        <ele>1041.608886</ele>
        <time>2021-04-29T14:40:11.065Z</time>
      </trkpt>
      <trkpt lat="45.63325" lon="2.90975">
        <ele>1039.920549</ele>
        <time>2021-04-29T14:40:18.069Z</time>
      </trkpt>
      <trkpt lat="45.63337" lon="2.91078">
        <ele>1037.426768</ele>
        <time>2021-04-29T14:40:30.432Z</time>
      </trkpt>
      <trkpt lat="45.63337" lon="2.91147">
        <ele>1035.755432</ele>
        <time>2021-04-29T14:40:39.018Z</time>
      </trkpt>
      <trkpt lat="45.63382" lon="2.91352">
        <ele>1031.821562</ele>
        <time>2021-04-29T14:41:05.980Z</time>
      </trkpt>
      <trkpt lat="45.63391" lon="2.91444">
        <ele>1030.265668</ele>
        <time>2021-04-29T14:41:17.543Z</time>
      </trkpt>
      <trkpt lat="45.63456" lon="2.91647">
        <ele>1026.85091</ele>
        <time>2021-04-29T14:41:45.753Z</time>
      </trkpt>
      <trkpt lat="45.63492" lon="2.91661">
        <ele>1026.732951</ele>
        <time>2021-04-29T14:41:52.501Z</time>
      </trkpt>
      <trkpt lat="45.63516" lon="2.91825">
        <ele>1027.353954</ele>
        <time>2021-04-29T14:42:20.309Z</time>
      </trkpt>
      <trkpt lat="45.63551" lon="2.9185">
        <ele>1027.684525</ele>
        <time>2021-04-29T14:42:33.305Z</time>
      </trkpt>
      <trkpt lat="45.63541" lon="2.91855">
        <ele>1028.412215</ele>
        <time>2021-04-29T14:42:39.864Z</time>
      </trkpt>
      <trkpt lat="45.63523" lon="2.91895">
        <ele>1030.630216</ele>
        <time>2021-04-29T14:42:58.098Z</time>
      </trkpt>
      <trkpt lat="45.63512" lon="2.91971">
        <ele>1034.198802</ele>
        <time>2021-04-29T14:43:31.016Z</time>
      </trkpt>
      <trkpt lat="45.63502" lon="2.92">
        <ele>1035.719148</ele>
        <time>2021-04-29T14:43:46.989Z</time>
      </trkpt>
      <trkpt lat="45.63446" lon="2.92156">
        <ele>1045.789539</ele>
        <time>2021-04-29T14:45:19.553Z</time>
      </trkpt>
      <trkpt lat="45.63381" lon="2.92335">
        <ele>1058.714592</ele>
        <time>2021-04-29T14:47:08.105Z</time>
      </trkpt>
      <trkpt lat="45.63259" lon="2.92453">
        <ele>1069.504926</ele>
        <time>2021-04-29T14:48:46.151Z</time>
      </trkpt>
      <trkpt lat="45.63232" lon="2.92474">
        <ele>1070.12673</ele>
        <time>2021-04-29T14:49:02.483Z</time>
      </trkpt>
      <trkpt lat="45.63172" lon="2.92489">
        <ele>1070.640598</ele>
        <time>2021-04-29T14:49:31.085Z</time>
      </trkpt>
      <trkpt lat="45.62836" lon="2.92576">
        <ele>1065.070829</ele>
        <time>2021-04-29T14:51:18.854Z</time>
      </trkpt>
      <trkpt lat="45.62718" lon="2.92609">
        <ele>1060.219353</ele>
        <time>2021-04-29T14:51:51.495Z</time>
      </trkpt>
      <trkpt lat="45.62712" lon="2.92617">
        <ele>1059.882146</ele>
        <time>2021-04-29T14:51:53.629Z</time>
      </trkpt>
      <trkpt lat="45.62634" lon="2.9265">
        <ele>1056.49652</ele>
        <time>2021-04-29T14:52:15.878Z</time>
      </trkpt>
      <trkpt lat="45.62615" lon="2.92658">
        <ele>1055.636569</ele>
        <time>2021-04-29T14:52:21.754Z</time>
      </trkpt>
      <trkpt lat="45.62604" lon="2.92666">
        <ele>1055.117308</ele>
        <time>2021-04-29T14:52:25.256Z</time>
      </trkpt>
      <trkpt lat="45.62563" lon="2.9272">
        <ele>1052.864996</ele>
        <time>2021-04-29T14:52:41.905Z</time>
      </trkpt>
      <trkpt lat="45.62494" lon="2.92755">
        <ele>1050.932283</ele>
        <time>2021-04-29T14:53:04.715Z</time>
      </trkpt>
      <trkpt lat="45.6239" lon="2.92853">
        <ele>1047.0687</ele>
        <time>2021-04-29T14:53:42.638Z</time>
      </trkpt>
      <trkpt lat="45.6236" lon="2.92887">
        <ele>1045.207241</ele>
        <time>2021-04-29T14:53:53.484Z</time>
      </trkpt>
      <trkpt lat="45.62359" lon="2.92905">
        <ele>1044.585686</ele>
        <time>2021-04-29T14:53:55.497Z</time>
      </trkpt>
      <trkpt lat="45.62356" lon="2.9294">
        <ele>1043.355897</ele>
        <time>2021-04-29T14:53:59.369Z</time>
      </trkpt>
      <trkpt lat="45.62349" lon="2.92962">
        <ele>1042.553116</ele>
        <time>2021-04-29T14:54:01.952Z</time>
      </trkpt>
      <trkpt lat="45.62346" lon="2.92973">
        <ele>1042.145798</ele>
        <time>2021-04-29T14:54:03.201Z</time>
      </trkpt>
      <trkpt lat="45.6234" lon="2.92998">
        <ele>1041.241906</ele>
        <time>2021-04-29T14:54:06.056Z</time>
      </trkpt>
      <trkpt lat="45.62332" lon="2.93028">
        <ele>1040.121493</ele>
        <time>2021-04-29T14:54:09.625Z</time>
      </trkpt>
      <trkpt lat="45.62332" lon="2.93028">
        <ele>1040.121493</ele>
        <time>2021-04-29T14:54:09.629Z</time>
      </trkpt>
      <trkpt lat="45.62318" lon="2.93034">
        <ele>1039.42456</ele>
        <time>2021-04-29T14:54:11.802Z</time>
      </trkpt>
      <trkpt lat="45.62314" lon="2.93036">
        <ele>1039.157215</ele>
        <time>2021-04-29T14:54:12.528Z</time>
      </trkpt>
      <trkpt lat="45.62272" lon="2.93019">
        <ele>1036.539514</ele>
        <time>2021-04-29T14:54:19.107Z</time>
      </trkpt>
      <trkpt lat="45.62261" lon="2.93008">
        <ele>1035.739886</ele>
        <time>2021-04-29T14:54:21.128Z</time>
      </trkpt>
      <trkpt lat="45.62261" lon="2.93008">
        <ele>1035.739886</ele>
        <time>2021-04-29T14:54:21.145Z</time>
      </trkpt>
      <trkpt lat="45.6226" lon="2.92978">
        <ele>1034.4588</ele>
        <time>2021-04-29T14:54:24.411Z</time>
      </trkpt>
      <trkpt lat="45.62258" lon="2.92972">
        <ele>1034.159848</ele>
        <time>2021-04-29T14:54:25.130Z</time>
      </trkpt>
      <trkpt lat="45.62259" lon="2.92918">
        <ele>1031.906067</ele>
        <time>2021-04-29T14:54:30.852Z</time>
      </trkpt>
      <trkpt lat="45.62258" lon="2.92882">
        <ele>1030.398061</ele>
        <time>2021-04-29T14:54:34.740Z</time>
      </trkpt>
      <trkpt lat="45.6224" lon="2.92877">
        <ele>1029.310107</ele>
        <time>2021-04-29T14:54:37.550Z</time>
      </trkpt>
      <trkpt lat="45.62233" lon="2.92865">
        <ele>1028.648793</ele>
        <time>2021-04-29T14:54:39.307Z</time>
      </trkpt>
      <trkpt lat="45.62171" lon="2.92858">
        <ele>1028.983728</ele>
        <time>2021-04-29T14:54:50.334Z</time>
      </trkpt>
      <trkpt lat="45.62171" lon="2.92861">
        <ele>1028.997427</ele>
        <time>2021-04-29T14:54:51.151Z</time>
      </trkpt>
      <trkpt lat="45.62061" lon="2.92878">
        <ele>1029.594197</ele>
        <time>2021-04-29T14:55:38.801Z</time>
      </trkpt>
      <trkpt lat="45.62062" lon="2.92836">
        <ele>1032.335766</ele>
        <time>2021-04-29T14:55:58.434Z</time>
      </trkpt>
      <trkpt lat="45.62052" lon="2.92799">
        <ele>1035.374898</ele>
        <time>2021-04-29T14:56:18.963Z</time>
      </trkpt>
      <trkpt lat="45.61991" lon="2.92756">
        <ele>1042.672488</ele>
        <time>2021-04-29T14:57:12.926Z</time>
      </trkpt>
      <trkpt lat="45.6199" lon="2.9275">
        <ele>1043.182811</ele>
        <time>2021-04-29T14:57:18.383Z</time>
      </trkpt>
      <trkpt lat="45.61973" lon="2.92753">
        <ele>1044.94488</ele>
        <time>2021-04-29T14:57:40.454Z</time>
      </trkpt>
      <trkpt lat="45.61941" lon="2.92773">
        <ele>1048.743796</ele>
        <time>2021-04-29T14:58:29.281Z</time>
      </trkpt>
      <trkpt lat="45.61867" lon="2.92773">
        <ele>1061.448898</ele>
        <time>2021-04-29T15:00:18.160Z</time>
      </trkpt>
      <trkpt lat="45.61819" lon="2.92794">
        <ele>1070.299019</ele>
        <time>2021-04-29T15:01:37.195Z</time>
      </trkpt>
      <trkpt lat="45.61783" lon="2.92783">
        <ele>1076.601139</ele>
        <time>2021-04-29T15:02:32.053Z</time>
      </trkpt>
      <trkpt lat="45.61734" lon="2.92768">
        <ele>1085.330833</ele>
        <time>2021-04-29T15:03:50.100Z</time>
      </trkpt>
      <trkpt lat="45.61623" lon="2.92707">
        <ele>1105.609049</ele>
        <time>2021-04-29T15:06:51.325Z</time>
      </trkpt>
      <trkpt lat="45.61592" lon="2.9268">
        <ele>1111.421025</ele>
        <time>2021-04-29T15:07:41.237Z</time>
      </trkpt>
      <trkpt lat="45.61559" lon="2.92642">
        <ele>1115.734455</ele>
        <time>2021-04-29T15:08:37.853Z</time>
      </trkpt>
      <trkpt lat="45.61543" lon="2.92431">
        <ele>1129.55391</ele>
        <time>2021-04-29T15:10:07.950Z</time>
      </trkpt>
      <trkpt lat="45.61513" lon="2.92289">
        <ele>1130.868225</ele>
        <time>2021-04-29T15:10:40.190Z</time>
      </trkpt>
      <trkpt lat="45.615" lon="2.92263">
        <ele>1131.156692</ele>
        <time>2021-04-29T15:10:44.620Z</time>
      </trkpt>
      <trkpt lat="45.61498" lon="2.92257">
        <ele>1131.218767</ele>
        <time>2021-04-29T15:10:45.443Z</time>
      </trkpt>
      <trkpt lat="45.61492" lon="2.92252">
        <ele>1131.306155</ele>
        <time>2021-04-29T15:10:46.589Z</time>
      </trkpt>
      <trkpt lat="45.61472" lon="2.92294">
        <ele>1131.026512</ele>
        <time>2021-04-29T15:10:52.411Z</time>
      </trkpt>
      <trkpt lat="45.61461" lon="2.92335">
        <ele>1128.55737</ele>
        <time>2021-04-29T15:10:57.380Z</time>
      </trkpt>
      <trkpt lat="45.61448" lon="2.9236">
        <ele>1126.826457</ele>
        <time>2021-04-29T15:11:00.784Z</time>
      </trkpt>
      <trkpt lat="45.61441" lon="2.92389">
        <ele>1125.182774</ele>
        <time>2021-04-29T15:11:03.856Z</time>
      </trkpt>
      <trkpt lat="45.61415" lon="2.9245">
        <ele>1121.219837</ele>
        <time>2021-04-29T15:11:11.247Z</time>
      </trkpt>
      <trkpt lat="45.61396" lon="2.92479">
        <ele>1119.032569</ele>
        <time>2021-04-29T15:11:15.088Z</time>
      </trkpt>
      <trkpt lat="45.61383" lon="2.92492">
        <ele>1117.79751</ele>
        <time>2021-04-29T15:11:17.269Z</time>
      </trkpt>
      <trkpt lat="45.61345" lon="2.9251">
        <ele>1113.539255</ele>
        <time>2021-04-29T15:11:22.812Z</time>
      </trkpt>
      <trkpt lat="45.61313" lon="2.92586">
        <ele>1106.639437</ele>
        <time>2021-04-29T15:11:31.637Z</time>
      </trkpt>
      <trkpt lat="45.61299" lon="2.92605">
        <ele>1104.590181</ele>
        <time>2021-04-29T15:11:34.282Z</time>
      </trkpt>
      <trkpt lat="45.61285" lon="2.92619">
        <ele>1102.659027</ele>
        <time>2021-04-29T15:11:36.757Z</time>
      </trkpt>
      <trkpt lat="45.6117" lon="2.927">
        <ele>1089.98753</ele>
        <time>2021-04-29T15:11:54.837Z</time>
      </trkpt>
      <trkpt lat="45.61023" lon="2.92883">
        <ele>1073.648136</ele>
        <time>2021-04-29T15:12:23.402Z</time>
      </trkpt>
      <trkpt lat="45.61015" lon="2.92911">
        <ele>1072.062949</ele>
        <time>2021-04-29T15:12:26.646Z</time>
      </trkpt>
      <trkpt lat="45.61007" lon="2.9293">
        <ele>1070.920693</ele>
        <time>2021-04-29T15:12:28.888Z</time>
      </trkpt>
      <trkpt lat="45.60968" lon="2.92953">
        <ele>1067.781486</ele>
        <time>2021-04-29T15:12:35.320Z</time>
      </trkpt>
      <trkpt lat="45.60952" lon="2.92985">
        <ele>1066.579217</ele>
        <time>2021-04-29T15:12:39.470Z</time>
      </trkpt>
      <trkpt lat="45.60945" lon="2.93">
        <ele>1066.098532</ele>
        <time>2021-04-29T15:12:41.446Z</time>
      </trkpt>
      <trkpt lat="45.60938" lon="2.93009">
        <ele>1065.724928</ele>
        <time>2021-04-29T15:12:42.954Z</time>
      </trkpt>
      <trkpt lat="45.60754" lon="2.93094">
        <ele>1059.778113</ele>
        <time>2021-04-29T15:13:16.250Z</time>
      </trkpt>
      <trkpt lat="45.60741" lon="2.93083">
        <ele>1059.603486</ele>
        <time>2021-04-29T15:13:19.540Z</time>
      </trkpt>
      <trkpt lat="45.60633" lon="2.92993">
        <ele>1057.984121</ele>
        <time>2021-04-29T15:13:46.647Z</time>
      </trkpt>
      <trkpt lat="45.60584" lon="2.92969">
        <ele>1056.997868</ele>
        <time>2021-04-29T15:13:56.946Z</time>
      </trkpt>
      <trkpt lat="45.60558" lon="2.92964">
        <ele>1056.506949</ele>
        <time>2021-04-29T15:14:01.789Z</time>
      </trkpt>
      <trkpt lat="45.60535" lon="2.92961">
        <ele>1056.063915</ele>
        <time>2021-04-29T15:14:05.678Z</time>
      </trkpt>
      <trkpt lat="45.60491" lon="2.92948">
        <ele>1055.21466</ele>
        <time>2021-04-29T15:14:13.182Z</time>
      </trkpt>
      <trkpt lat="45.60446" lon="2.92911">
        <ele>1053.32981</ele>
        <time>2021-04-29T15:14:21.277Z</time>
      </trkpt>
      <trkpt lat="45.60418" lon="2.9287">
        <ele>1051.583789</ele>
        <time>2021-04-29T15:14:27.418Z</time>
      </trkpt>
      <trkpt lat="45.6036" lon="2.92763">
        <ele>1047.46256</ele>
        <time>2021-04-29T15:14:41.899Z</time>
      </trkpt>
      <trkpt lat="45.60335" lon="2.92732">
        <ele>1046.26692</ele>
        <time>2021-04-29T15:14:47.102Z</time>
      </trkpt>
      <trkpt lat="45.60305" lon="2.92708">
        <ele>1045.126779</ele>
        <time>2021-04-29T15:14:52.500Z</time>
      </trkpt>
      <trkpt lat="45.60291" lon="2.92699">
        <ele>1044.613038</ele>
        <time>2021-04-29T15:14:54.919Z</time>
      </trkpt>
      <trkpt lat="45.60275" lon="2.92693">
        <ele>1044.043729</ele>
        <time>2021-04-29T15:14:57.688Z</time>
      </trkpt>
      <trkpt lat="45.60118" lon="2.92682">
        <ele>1039.907439</ele>
        <time>2021-04-29T15:15:23.818Z</time>
      </trkpt>
      <trkpt lat="45.60034" lon="2.92677">
        <ele>1038.438413</ele>
        <time>2021-04-29T15:15:39.706Z</time>
      </trkpt>
      <trkpt lat="45.59972" lon="2.9268">
        <ele>1037.760457</ele>
        <time>2021-04-29T15:15:51.962Z</time>
      </trkpt>
      <trkpt lat="45.59909" lon="2.92697">
        <ele>1037.389167</ele>
        <time>2021-04-29T15:16:05.103Z</time>
      </trkpt>
      <trkpt lat="45.59771" lon="2.92755">
        <ele>1036.915208</ele>
        <time>2021-04-29T15:16:34.729Z</time>
      </trkpt>
      <trkpt lat="45.5972" lon="2.92778">
        <ele>1036.910798</ele>
        <time>2021-04-29T15:16:46.931Z</time>
      </trkpt>
      <trkpt lat="45.59682" lon="2.92808">
        <ele>1036.907129</ele>
        <time>2021-04-29T15:16:57.147Z</time>
      </trkpt>
      <trkpt lat="45.59666" lon="2.92827">
        <ele>1036.910842</ele>
        <time>2021-04-29T15:17:01.654Z</time>
      </trkpt>
      <trkpt lat="45.59648" lon="2.92855">
        <ele>1037.182698</ele>
        <time>2021-04-29T15:17:08.055Z</time>
      </trkpt>
      <trkpt lat="45.59637" lon="2.92875">
        <ele>1037.362598</ele>
        <time>2021-04-29T15:17:12.388Z</time>
      </trkpt>
      <trkpt lat="45.59576" lon="2.93012">
        <ele>1038.512707</ele>
        <time>2021-04-29T15:17:42.969Z</time>
      </trkpt>
      <trkpt lat="45.59549" lon="2.93053">
        <ele>1038.88673</ele>
        <time>2021-04-29T15:17:54.877Z</time>
      </trkpt>
      <trkpt lat="45.59523" lon="2.9307">
        <ele>1039.14116</ele>
        <time>2021-04-29T15:18:02.682Z</time>
      </trkpt>
      <trkpt lat="45.59466" lon="2.9309">
        <ele>1039.650669</ele>
        <time>2021-04-29T15:18:17.709Z</time>
      </trkpt>
      <trkpt lat="45.59432" lon="2.93119">
        <ele>1040.000997</ele>
        <time>2021-04-29T15:18:27.746Z</time>
      </trkpt>
      <trkpt lat="45.59422" lon="2.93132">
        <ele>1040.122028</ele>
        <time>2021-04-29T15:18:31.549Z</time>
      </trkpt>
      <trkpt lat="45.59393" lon="2.9318">
        <ele>1039.914258</ele>
        <time>2021-04-29T15:18:41.667Z</time>
      </trkpt>
      <trkpt lat="45.59368" lon="2.93209">
        <ele>1039.397034</ele>
        <time>2021-04-29T15:18:48.406Z</time>
      </trkpt>
      <trkpt lat="45.59332" lon="2.93233">
        <ele>1038.748041</ele>
        <time>2021-04-29T15:18:56.064Z</time>
      </trkpt>
      <trkpt lat="45.5925" lon="2.9327">
        <ele>1037.285235</ele>
        <time>2021-04-29T15:19:10.311Z</time>
      </trkpt>
      <trkpt lat="45.59191" lon="2.93297">
        <ele>1034.250792</ele>
        <time>2021-04-29T15:19:20.153Z</time>
      </trkpt>
      <trkpt lat="45.59176" lon="2.93305">
        <ele>1033.443476</ele>
        <time>2021-04-29T15:19:22.767Z</time>
      </trkpt>
      <trkpt lat="45.59164" lon="2.93314">
        <ele>1032.814563</ele>
        <time>2021-04-29T15:19:24.727Z</time>
      </trkpt>
      <trkpt lat="45.59142" lon="2.93341">
        <ele>1031.389991</ele>
        <time>2021-04-29T15:19:29.017Z</time>
      </trkpt>
      <trkpt lat="45.59132" lon="2.93361">
        <ele>1030.539388</ele>
        <time>2021-04-29T15:19:31.637Z</time>
      </trkpt>
      <trkpt lat="45.59088" lon="2.93495">
        <ele>1024.011118</ele>
        <time>2021-04-29T15:19:46.573Z</time>
      </trkpt>
      <trkpt lat="45.5908" lon="2.93515">
        <ele>1022.857519</ele>
        <time>2021-04-29T15:19:48.834Z</time>
      </trkpt>
      <trkpt lat="45.59075" lon="2.93526">
        <ele>1022.203629</ele>
        <time>2021-04-29T15:19:50.070Z</time>
      </trkpt>
      <trkpt lat="45.59044" lon="2.93559">
        <ele>1019.458898</ele>
        <time>2021-04-29T15:19:55.566Z</time>
      </trkpt>
      <trkpt lat="45.59022" lon="2.9357">
        <ele>1017.792045</ele>
        <time>2021-04-29T15:19:58.934Z</time>
      </trkpt>
      <trkpt lat="45.58997" lon="2.93573">
        <ele>1015.985447</ele>
        <time>2021-04-29T15:20:02.582Z</time>
      </trkpt>
      <trkpt lat="45.58989" lon="2.93571">
        <ele>1015.437554</ele>
        <time>2021-04-29T15:20:03.740Z</time>
      </trkpt>
      <trkpt lat="45.58977" lon="2.93567">
        <ele>1014.747836</ele>
        <time>2021-04-29T15:20:05.485Z</time>
      </trkpt>
      <trkpt lat="45.5894" lon="2.93544">
        <ele>1012.5823</ele>
        <time>2021-04-29T15:20:11.203Z</time>
      </trkpt>
      <trkpt lat="45.58919" lon="2.93523">
        <ele>1011.189416</ele>
        <time>2021-04-29T15:20:15.002Z</time>
      </trkpt>
      <trkpt lat="45.58888" lon="2.93479">
        <ele>1008.820327</ele>
        <time>2021-04-29T15:20:21.567Z</time>
      </trkpt>
      <trkpt lat="45.58809" lon="2.93344">
        <ele>1003.590647</ele>
        <time>2021-04-29T15:20:41.397Z</time>
      </trkpt>
      <trkpt lat="45.58769" lon="2.93229">
        <ele>1000.615922</ele>
        <time>2021-04-29T15:20:56.162Z</time>
      </trkpt>
      <trkpt lat="45.58752" lon="2.93197">
        <ele>999.595525</ele>
        <time>2021-04-29T15:21:00.800Z</time>
      </trkpt>
      <trkpt lat="45.5874" lon="2.93188">
        <ele>998.988725</ele>
        <time>2021-04-29T15:21:02.822Z</time>
      </trkpt>
      <trkpt lat="45.58731" lon="2.93186">
        <ele>998.543284</ele>
        <time>2021-04-29T15:21:04.360Z</time>
      </trkpt>
      <trkpt lat="45.58711" lon="2.93188">
        <ele>997.589434</ele>
        <time>2021-04-29T15:21:07.719Z</time>
      </trkpt>
      <trkpt lat="45.58701" lon="2.93193">
        <ele>997.122794</ele>
        <time>2021-04-29T15:21:09.244Z</time>
      </trkpt>
      <trkpt lat="45.58693" lon="2.93199">
        <ele>996.699028</ele>
        <time>2021-04-29T15:21:10.725Z</time>
      </trkpt>
      <trkpt lat="45.58685" lon="2.93206">
        <ele>996.22879</ele>
        <time>2021-04-29T15:21:12.392Z</time>
      </trkpt>
      <trkpt lat="45.58677" lon="2.9322">
        <ele>995.657635</ele>
        <time>2021-04-29T15:21:14.242Z</time>
      </trkpt>
      <trkpt lat="45.58668" lon="2.93254">
        <ele>994.428836</ele>
        <time>2021-04-29T15:21:18.388Z</time>
      </trkpt>
      <trkpt lat="45.58668" lon="2.93285">
        <ele>993.430656</ele>
        <time>2021-04-29T15:21:21.623Z</time>
      </trkpt>
      <trkpt lat="45.58673" lon="2.93337">
        <ele>991.696354</ele>
        <time>2021-04-29T15:21:26.907Z</time>
      </trkpt>
      <trkpt lat="45.58689" lon="2.93479">
        <ele>982.977037</ele>
        <time>2021-04-29T15:21:41.150Z</time>
      </trkpt>
      <trkpt lat="45.58689" lon="2.93517">
        <ele>980.625994</ele>
        <time>2021-04-29T15:21:44.704Z</time>
      </trkpt>
      <trkpt lat="45.58685" lon="2.93538">
        <ele>979.319993</ele>
        <time>2021-04-29T15:21:46.852Z</time>
      </trkpt>
      <trkpt lat="45.58685" lon="2.93538">
        <ele>979.319993</ele>
        <time>2021-04-29T15:21:46.907Z</time>
      </trkpt>
      <trkpt lat="45.58679" lon="2.93552">
        <ele>978.279293</ele>
        <time>2021-04-29T15:21:48.418Z</time>
      </trkpt>
      <trkpt lat="45.58659" lon="2.9358">
        <ele>975.810406</ele>
        <time>2021-04-29T15:21:52.468Z</time>
      </trkpt>
      <trkpt lat="45.58624" lon="2.93596">
        <ele>973.199401</ele>
        <time>2021-04-29T15:21:57.477Z</time>
      </trkpt>
      <trkpt lat="45.58613" lon="2.93594">
        <ele>972.403731</ele>
        <time>2021-04-29T15:21:58.922Z</time>
      </trkpt>
      <trkpt lat="45.58616" lon="2.936">
        <ele>972.040755</ele>
        <time>2021-04-29T15:22:02.899Z</time>
      </trkpt>
      <trkpt lat="45.58627" lon="2.93605">
        <ele>971.219525</ele>
        <time>2021-04-29T15:22:05.386Z</time>
      </trkpt>
      <trkpt lat="45.58616" lon="2.936">
        <ele>970.398296</ele>
        <time>2021-04-29T15:22:07.480Z</time>
      </trkpt>
      <trkpt lat="45.58613" lon="2.93594">
        <ele>970.03532</ele>
        <time>2021-04-29T15:22:08.369Z</time>
      </trkpt>
      <trkpt lat="45.58603" lon="2.9359">
        <ele>969.33811</ele>
        <time>2021-04-29T15:22:11.975Z</time>
      </trkpt>
      <trkpt lat="45.58522" lon="2.93526">
        <ele>962.877207</ele>
        <time>2021-04-29T15:22:25.744Z</time>
      </trkpt>
      <trkpt lat="45.58477" lon="2.93517">
        <ele>961.313305</ele>
        <time>2021-04-29T15:22:32.787Z</time>
      </trkpt>
      <trkpt lat="45.58441" lon="2.93524">
        <ele>960.071215</ele>
        <time>2021-04-29T15:22:39.122Z</time>
      </trkpt>
      <trkpt lat="45.58413" lon="2.93532">
        <ele>959.05731</ele>
        <time>2021-04-29T15:22:44.193Z</time>
      </trkpt>
      <trkpt lat="45.58296" lon="2.93566">
        <ele>953.944913</ele>
        <time>2021-04-29T15:23:03.340Z</time>
      </trkpt>
      <trkpt lat="45.58255" lon="2.93579">
        <ele>951.654919</ele>
        <time>2021-04-29T15:23:09.622Z</time>
      </trkpt>
      <trkpt lat="45.58231" lon="2.93587">
        <ele>950.349663</ele>
        <time>2021-04-29T15:23:13.224Z</time>
      </trkpt>
      <trkpt lat="45.58205" lon="2.93601">
        <ele>948.820141</ele>
        <time>2021-04-29T15:23:17.395Z</time>
      </trkpt>
      <trkpt lat="45.58149" lon="2.93629">
        <ele>945.07269</ele>
        <time>2021-04-29T15:23:25.750Z</time>
      </trkpt>
      <trkpt lat="45.58112" lon="2.93639">
        <ele>942.217117</ele>
        <time>2021-04-29T15:23:31.090Z</time>
      </trkpt>
      <trkpt lat="45.58066" lon="2.9364">
        <ele>938.743988</ele>
        <time>2021-04-29T15:23:37.545Z</time>
      </trkpt>
      <trkpt lat="45.58028" lon="2.93637">
        <ele>935.894433</ele>
        <time>2021-04-29T15:23:42.820Z</time>
      </trkpt>
      <trkpt lat="45.58027" lon="2.93632">
        <ele>935.606631</ele>
        <time>2021-04-29T15:23:43.540Z</time>
      </trkpt>
      <trkpt lat="45.57987" lon="2.93614">
        <ele>932.622054</ele>
        <time>2021-04-29T15:23:51.859Z</time>
      </trkpt>
      <trkpt lat="45.57906" lon="2.93623">
        <ele>927.675951</ele>
        <time>2021-04-29T15:24:07.962Z</time>
      </trkpt>
      <trkpt lat="45.57873" lon="2.93639">
        <ele>925.555218</ele>
        <time>2021-04-29T15:24:15.173Z</time>
      </trkpt>
      <trkpt lat="45.57855" lon="2.93658">
        <ele>924.212034</ele>
        <time>2021-04-29T15:24:19.786Z</time>
      </trkpt>
      <trkpt lat="45.57851" lon="2.93666">
        <ele>923.818387</ele>
        <time>2021-04-29T15:24:21.248Z</time>
      </trkpt>
      <trkpt lat="45.57844" lon="2.93683">
        <ele>922.99008</ele>
        <time>2021-04-29T15:24:24.379Z</time>
      </trkpt>
      <trkpt lat="45.57841" lon="2.93695">
        <ele>922.435603</ele>
        <time>2021-04-29T15:24:26.168Z</time>
      </trkpt>
      <trkpt lat="45.57836" lon="2.93712">
        <ele>921.712256</ele>
        <time>2021-04-29T15:24:29.052Z</time>
      </trkpt>
      <trkpt lat="45.57832" lon="2.93781">
        <ele>919.003076</ele>
        <time>2021-04-29T15:24:39.392Z</time>
      </trkpt>
      <trkpt lat="45.57841" lon="2.9379">
        <ele>918.412066</ele>
        <time>2021-04-29T15:24:41.428Z</time>
      </trkpt>
      <trkpt lat="45.57846" lon="2.93878">
        <ele>914.937309</ele>
        <time>2021-04-29T15:24:50.731Z</time>
      </trkpt>
      <trkpt lat="45.57847" lon="2.93928">
        <ele>912.974372</ele>
        <time>2021-04-29T15:24:55.792Z</time>
      </trkpt>
      <trkpt lat="45.5784" lon="2.93964">
        <ele>911.347453</ele>
        <time>2021-04-29T15:24:59.586Z</time>
      </trkpt>
      <trkpt lat="45.57811" lon="2.94007">
        <ele>908.560433</ele>
        <time>2021-04-29T15:25:05.643Z</time>
      </trkpt>
      <trkpt lat="45.57777" lon="2.94044">
        <ele>905.70828</ele>
        <time>2021-04-29T15:25:11.783Z</time>
      </trkpt>
      <trkpt lat="45.57747" lon="2.94059">
        <ele>903.614645</ele>
        <time>2021-04-29T15:25:16.258Z</time>
      </trkpt>
      <trkpt lat="45.57718" lon="2.94057">
        <ele>901.645949</ele>
        <time>2021-04-29T15:25:20.499Z</time>
      </trkpt>
      <trkpt lat="45.57693" lon="2.94039">
        <ele>899.992982</ele>
        <time>2021-04-29T15:25:24.487Z</time>
      </trkpt>
      <trkpt lat="45.57671" lon="2.9399">
        <ele>898.013524</ele>
        <time>2021-04-29T15:25:30.501Z</time>
      </trkpt>
      <trkpt lat="45.57669" lon="2.93967">
        <ele>897.226173</ele>
        <time>2021-04-29T15:25:32.934Z</time>
      </trkpt>
      <trkpt lat="45.57674" lon="2.93926">
        <ele>895.823851</ele>
        <time>2021-04-29T15:25:37.351Z</time>
      </trkpt>
      <trkpt lat="45.57692" lon="2.93898">
        <ele>894.532658</ele>
        <time>2021-04-29T15:25:41.536Z</time>
      </trkpt>
      <trkpt lat="45.57734" lon="2.9386">
        <ele>892.129458</ele>
        <time>2021-04-29T15:25:49.422Z</time>
      </trkpt>
      <trkpt lat="45.57743" lon="2.93826">
        <ele>890.95306</ele>
        <time>2021-04-29T15:25:53.516Z</time>
      </trkpt>
      <trkpt lat="45.57725" lon="2.93668">
        <ele>885.923367</ele>
        <time>2021-04-29T15:26:10.975Z</time>
      </trkpt>
      <trkpt lat="45.57757" lon="2.93283">
        <ele>873.065136</ele>
        <time>2021-04-29T15:26:51.608Z</time>
      </trkpt>
      <trkpt lat="45.57748" lon="2.93242">
        <ele>872.234963</ele>
        <time>2021-04-29T15:26:56.276Z</time>
      </trkpt>
      <trkpt lat="45.57698" lon="2.93157">
        <ele>870.095286</ele>
        <time>2021-04-29T15:27:09.464Z</time>
      </trkpt>
      <trkpt lat="45.57666" lon="2.93112">
        <ele>869.608932</ele>
        <time>2021-04-29T15:27:20.728Z</time>
      </trkpt>
      <trkpt lat="45.57648" lon="2.93091">
        <ele>870.143236</ele>
        <time>2021-04-29T15:27:27.014Z</time>
      </trkpt>
      <trkpt lat="45.57641" lon="2.93072">
        <ele>870.488647</ele>
        <time>2021-04-29T15:27:31.828Z</time>
      </trkpt>
      <trkpt lat="45.57634" lon="2.93059">
        <ele>870.759586</ele>
        <time>2021-04-29T15:27:35.609Z</time>
      </trkpt>
      <trkpt lat="45.57633" lon="2.93054">
        <ele>870.846399</ele>
        <time>2021-04-29T15:27:36.577Z</time>
      </trkpt>
      <trkpt lat="45.57627" lon="2.93045">
        <ele>871.042736</ele>
        <time>2021-04-29T15:27:38.879Z</time>
      </trkpt>
      <trkpt lat="45.57623" lon="2.93044">
        <ele>871.129182</ele>
        <time>2021-04-29T15:27:39.964Z</time>
      </trkpt>
      <trkpt lat="45.57616" lon="2.93036">
        <ele>871.34912</ele>
        <time>2021-04-29T15:27:43.720Z</time>
      </trkpt>
      <trkpt lat="45.57601" lon="2.93016">
        <ele>871.817503</ele>
        <time>2021-04-29T15:27:50.154Z</time>
      </trkpt>
      <trkpt lat="45.5758" lon="2.92995">
        <ele>872.406832</ele>
        <time>2021-04-29T15:27:59.833Z</time>
      </trkpt>
      <trkpt lat="45.57564" lon="2.92978">
        <ele>872.878821</ele>
        <time>2021-04-29T15:28:06.982Z</time>
      </trkpt>
      <trkpt lat="45.57553" lon="2.92935">
        <ele>873.643652</ele>
        <time>2021-04-29T15:28:18.789Z</time>
      </trkpt>
      <trkpt lat="45.57442" lon="2.92887">
        <ele>876.861215</ele>
        <time>2021-04-29T15:29:01.496Z</time>
      </trkpt>
      <trkpt lat="45.57359" lon="2.92923">
        <ele>878.410022</ele>
        <time>2021-04-29T15:29:24.730Z</time>
      </trkpt>
      <trkpt lat="45.57326" lon="2.92962">
        <ele>878.440834</ele>
        <time>2021-04-29T15:29:34.751Z</time>
      </trkpt>
      <trkpt lat="45.57313" lon="2.92967">
        <ele>878.45126</ele>
        <time>2021-04-29T15:29:37.974Z</time>
      </trkpt>
      <trkpt lat="45.57285" lon="2.92959">
        <ele>878.471531</ele>
        <time>2021-04-29T15:29:43.704Z</time>
      </trkpt>
      <trkpt lat="45.5725" lon="2.92976">
        <ele>878.498253</ele>
        <time>2021-04-29T15:29:51.210Z</time>
      </trkpt>
      <trkpt lat="45.57216" lon="2.9295">
        <ele>878.471642</ele>
        <time>2021-04-29T15:29:58.913Z</time>
      </trkpt>
      <trkpt lat="45.57177" lon="2.92959">
        <ele>878.314702</ele>
        <time>2021-04-29T15:30:06.770Z</time>
      </trkpt>
      <trkpt lat="45.57165" lon="2.92955">
        <ele>878.268361</ele>
        <time>2021-04-29T15:30:09.115Z</time>
      </trkpt>
      <trkpt lat="45.57158" lon="2.92944">
        <ele>878.224857</ele>
        <time>2021-04-29T15:30:11.187Z</time>
      </trkpt>
      <trkpt lat="45.57154" lon="2.92938">
        <ele>878.201071</ele>
        <time>2021-04-29T15:30:12.416Z</time>
      </trkpt>
      <trkpt lat="45.57095" lon="2.92942">
        <ele>877.968184</ele>
        <time>2021-04-29T15:30:24.210Z</time>
      </trkpt>
      <trkpt lat="45.57063" lon="2.92962">
        <ele>877.830243</ele>
        <time>2021-04-29T15:30:31.329Z</time>
      </trkpt>
      <trkpt lat="45.57048" lon="2.92944">
        <ele>878.171818</ele>
        <time>2021-04-29T15:30:36.046Z</time>
      </trkpt>
      <trkpt lat="45.57041" lon="2.92925">
        <ele>878.623906</ele>
        <time>2021-04-29T15:30:40.267Z</time>
      </trkpt>
      <trkpt lat="45.57031" lon="2.92885">
        <ele>879.502581</ele>
        <time>2021-04-29T15:30:49.001Z</time>
      </trkpt>
      <trkpt lat="45.57028" lon="2.92888">
        <ele>879.621907</ele>
        <time>2021-04-29T15:30:51.798Z</time>
      </trkpt>
      <trkpt lat="45.57008" lon="2.92906">
        <ele>880.329085</ele>
        <time>2021-04-29T15:31:02.965Z</time>
      </trkpt>
      <trkpt lat="45.56996" lon="2.92919">
        <ele>880.772058</ele>
        <time>2021-04-29T15:31:13.389Z</time>
      </trkpt>
      <trkpt lat="45.56987" lon="2.92936">
        <ele>881.211538</ele>
        <time>2021-04-29T15:31:23.733Z</time>
      </trkpt>
      <trkpt lat="45.56972" lon="2.92945">
        <ele>881.701038</ele>
        <time>2021-04-29T15:31:35.260Z</time>
      </trkpt>
      <trkpt lat="45.5696" lon="2.92952">
        <ele>882.075501</ele>
        <time>2021-04-29T15:31:44.041Z</time>
      </trkpt>
      <trkpt lat="45.56957" lon="2.92953">
        <ele>882.176617</ele>
        <time>2021-04-29T15:31:46.436Z</time>
      </trkpt>
      <trkpt lat="45.56941" lon="2.92955">
        <ele>882.637418</ele>
        <time>2021-04-29T15:31:57.269Z</time>
      </trkpt>
      <trkpt lat="45.56881" lon="2.92946">
        <ele>885.778362</ele>
        <time>2021-04-29T15:32:39.238Z</time>
      </trkpt>
      <trkpt lat="45.56865" lon="2.92961">
        <ele>886.94141</ele>
        <time>2021-04-29T15:32:52.642Z</time>
      </trkpt>
      <trkpt lat="45.56857" lon="2.92959">
        <ele>887.44937</ele>
        <time>2021-04-29T15:32:58.461Z</time>
      </trkpt>
      <trkpt lat="45.56852" lon="2.92958">
        <ele>887.7303</ele>
        <time>2021-04-29T15:33:01.710Z</time>
      </trkpt>
      <trkpt lat="45.56817" lon="2.92916">
        <ele>890.496965</ele>
        <time>2021-04-29T15:33:33.538Z</time>
      </trkpt>
      <trkpt lat="45.56802" lon="2.92887">
        <ele>892.063934</ele>
        <time>2021-04-29T15:33:51.593Z</time>
      </trkpt>
      <trkpt lat="45.56787" lon="2.92869">
        <ele>893.210961</ele>
        <time>2021-04-29T15:34:04.839Z</time>
      </trkpt>
      <trkpt lat="45.56783" lon="2.9293">
        <ele>895.260237</ele>
        <time>2021-04-29T15:34:24.010Z</time>
      </trkpt>
      <trkpt lat="45.56781" lon="2.92961">
        <ele>896.155195</ele>
        <time>2021-04-29T15:34:33.435Z</time>
      </trkpt>
      <trkpt lat="45.56787" lon="2.92992">
        <ele>897.104161</ele>
        <time>2021-04-29T15:34:42.705Z</time>
      </trkpt>
      <trkpt lat="45.56788" lon="2.93015">
        <ele>897.786087</ele>
        <time>2021-04-29T15:34:50.403Z</time>
      </trkpt>
      <trkpt lat="45.56779" lon="2.93047">
        <ele>898.805495</ele>
        <time>2021-04-29T15:34:59.617Z</time>
      </trkpt>
      <trkpt lat="45.56774" lon="2.93065">
        <ele>899.36958</ele>
        <time>2021-04-29T15:35:06.213Z</time>
      </trkpt>
      <trkpt lat="45.56772" lon="2.93103">
        <ele>900.478089</ele>
        <time>2021-04-29T15:35:14.334Z</time>
      </trkpt>
      <trkpt lat="45.56787" lon="2.93144">
        <ele>901.471804</ele>
        <time>2021-04-29T15:35:24.318Z</time>
      </trkpt>
      <trkpt lat="45.5681" lon="2.93258">
        <ele>901.060227</ele>
        <time>2021-04-29T15:35:48.744Z</time>
      </trkpt>
      <trkpt lat="45.56813" lon="2.93341">
        <ele>900.773861</ele>
        <time>2021-04-29T15:36:00.548Z</time>
      </trkpt>
      <trkpt lat="45.56807" lon="2.93403">
        <ele>899.691763</ele>
        <time>2021-04-29T15:36:07.746Z</time>
      </trkpt>
      <trkpt lat="45.56807" lon="2.93424">
        <ele>898.594873</ele>
        <time>2021-04-29T15:36:10.108Z</time>
      </trkpt>
      <trkpt lat="45.56817" lon="2.93472">
        <ele>896.052647</ele>
        <time>2021-04-29T15:36:15.450Z</time>
      </trkpt>
      <trkpt lat="45.56824" lon="2.93518">
        <ele>893.620131</ele>
        <time>2021-04-29T15:36:20.413Z</time>
      </trkpt>
      <trkpt lat="45.56824" lon="2.93566">
        <ele>891.16494</ele>
        <time>2021-04-29T15:36:25.060Z</time>
      </trkpt>
      <trkpt lat="45.56836" lon="2.93713">
        <ele>884.169901</ele>
        <time>2021-04-29T15:36:39.198Z</time>
      </trkpt>
      <trkpt lat="45.56873" lon="2.93855">
        <ele>877.600681</ele>
        <time>2021-04-29T15:36:54.637Z</time>
      </trkpt>
      <trkpt lat="45.56864" lon="2.93846">
        <ele>876.902927</ele>
        <time>2021-04-29T15:36:56.646Z</time>
      </trkpt>
      <trkpt lat="45.56809" lon="2.93777">
        <ele>877.937751</ele>
        <time>2021-04-29T15:37:12.825Z</time>
      </trkpt>
      <trkpt lat="45.56766" lon="2.93684">
        <ele>880.016681</ele>
        <time>2021-04-29T15:37:46.761Z</time>
      </trkpt>
      <trkpt lat="45.56756" lon="2.93655">
        <ele>880.633347</ele>
        <time>2021-04-29T15:37:57.333Z</time>
      </trkpt>
      <trkpt lat="45.56719" lon="2.93506">
        <ele>882.785944</ele>
        <time>2021-04-29T15:38:43.703Z</time>
      </trkpt>
      <trkpt lat="45.56715" lon="2.93484">
        <ele>883.078882</ele>
        <time>2021-04-29T15:38:51.176Z</time>
      </trkpt>
      <trkpt lat="45.567" lon="2.935">
        <ele>883.425519</ele>
        <time>2021-04-29T15:38:54.419Z</time>
      </trkpt>
      <trkpt lat="45.56667" lon="2.93528">
        <ele>884.12155</ele>
        <time>2021-04-29T15:39:01.960Z</time>
      </trkpt>
      <trkpt lat="45.5663" lon="2.93572">
        <ele>881.883869</ele>
        <time>2021-04-29T15:39:10.458Z</time>
      </trkpt>
      <trkpt lat="45.56571" lon="2.9363">
        <ele>876.959966</ele>
        <time>2021-04-29T15:39:20.859Z</time>
      </trkpt>
      <trkpt lat="45.56532" lon="2.93684">
        <ele>873.159679</ele>
        <time>2021-04-29T15:39:28.737Z</time>
      </trkpt>
      <trkpt lat="45.56509" lon="2.93704">
        <ele>871.353523</ele>
        <time>2021-04-29T15:39:32.629Z</time>
      </trkpt>
      <trkpt lat="45.56478" lon="2.93722">
        <ele>869.268027</ele>
        <time>2021-04-29T15:39:37.565Z</time>
      </trkpt>
      <trkpt lat="45.56402" lon="2.93739">
        <ele>864.491378</ele>
        <time>2021-04-29T15:39:49.352Z</time>
      </trkpt>
      <trkpt lat="45.56361" lon="2.9374">
        <ele>861.992034</ele>
        <time>2021-04-29T15:39:55.752Z</time>
      </trkpt>
      <trkpt lat="45.56347" lon="2.93745">
        <ele>861.050934</ele>
        <time>2021-04-29T15:39:58.156Z</time>
      </trkpt>
      <trkpt lat="45.56332" lon="2.9374">
        <ele>860.443023</ele>
        <time>2021-04-29T15:40:00.633Z</time>
      </trkpt>
      <trkpt lat="45.56266" lon="2.93722">
        <ele>858.70674</ele>
        <time>2021-04-29T15:40:11.375Z</time>
      </trkpt>
      <trkpt lat="45.56259" lon="2.93714">
        <ele>858.478316</ele>
        <time>2021-04-29T15:40:12.889Z</time>
      </trkpt>
      <trkpt lat="45.56251" lon="2.93727">
        <ele>858.158478</ele>
        <time>2021-04-29T15:40:15.014Z</time>
      </trkpt>
      <trkpt lat="45.56244" lon="2.93733">
        <ele>857.949517</ele>
        <time>2021-04-29T15:40:16.470Z</time>
      </trkpt>
      <trkpt lat="45.56238" lon="2.9373">
        <ele>857.787729</ele>
        <time>2021-04-29T15:40:17.721Z</time>
      </trkpt>
      <trkpt lat="45.56234" lon="2.93727">
        <ele>857.671042</ele>
        <time>2021-04-29T15:40:18.554Z</time>
      </trkpt>
      <trkpt lat="45.56216" lon="2.9371">
        <ele>857.106901</ele>
        <time>2021-04-29T15:40:22.497Z</time>
      </trkpt>
      <trkpt lat="45.5621" lon="2.93705">
        <ele>856.930896</ele>
        <time>2021-04-29T15:40:23.852Z</time>
      </trkpt>
      <trkpt lat="45.56196" lon="2.93697">
        <ele>856.526392</ele>
        <time>2021-04-29T15:40:26.956Z</time>
      </trkpt>
      <trkpt lat="45.56183" lon="2.93693">
        <ele>856.198909</ele>
        <time>2021-04-29T15:40:29.355Z</time>
      </trkpt>
      <trkpt lat="45.5618" lon="2.93664">
        <ele>856.101602</ele>
        <time>2021-04-29T15:40:33.567Z</time>
      </trkpt>
      <trkpt lat="45.56173" lon="2.93641">
        <ele>856.199679</ele>
        <time>2021-04-29T15:40:37.042Z</time>
      </trkpt>
      <trkpt lat="45.56108" lon="2.93551">
        <ele>856.701894</ele>
        <time>2021-04-29T15:40:58.392Z</time>
      </trkpt>
      <trkpt lat="45.56095" lon="2.93527">
        <ele>856.819981</ele>
        <time>2021-04-29T15:41:04.558Z</time>
      </trkpt>
      <trkpt lat="45.56071" lon="2.93457">
        <ele>857.791749</ele>
        <time>2021-04-29T15:41:22.526Z</time>
      </trkpt>
      <trkpt lat="45.56034" lon="2.93383">
        <ele>860.441931</ele>
        <time>2021-04-29T15:41:45.817Z</time>
      </trkpt>
      <trkpt lat="45.56033" lon="2.93377">
        <ele>860.622541</ele>
        <time>2021-04-29T15:41:48.004Z</time>
      </trkpt>
      <trkpt lat="45.56021" lon="2.93337">
        <ele>861.917012</ele>
        <time>2021-04-29T15:42:00.518Z</time>
      </trkpt>
      <trkpt lat="45.56005" lon="2.93251">
        <ele>864.526976</ele>
        <time>2021-04-29T15:42:28.235Z</time>
      </trkpt>
      <trkpt lat="45.55986" lon="2.93202">
        <ele>867.963948</ele>
        <time>2021-04-29T15:42:45.663Z</time>
      </trkpt>
      <trkpt lat="45.55989" lon="2.93192">
        <ele>868.672834</ele>
        <time>2021-04-29T15:42:49.386Z</time>
      </trkpt>
      <trkpt lat="45.55986" lon="2.93176">
        <ele>869.718638</ele>
        <time>2021-04-29T15:42:56.155Z</time>
      </trkpt>
      <trkpt lat="45.55973" lon="2.93116">
        <ele>873.615571</ele>
        <time>2021-04-29T15:43:21.466Z</time>
      </trkpt>
      <trkpt lat="45.55965" lon="2.93091">
        <ele>875.36641</ele>
        <time>2021-04-29T15:43:35.285Z</time>
      </trkpt>
      <trkpt lat="45.55965" lon="2.93091">
        <ele>875.36641</ele>
        <time>2021-04-29T15:43:35.535Z</time>
      </trkpt>
      <trkpt lat="45.55965" lon="2.93091">
        <ele>875.36641</ele>
        <time>2021-04-29T15:43:35.563Z</time>
      </trkpt>
      <trkpt lat="45.55962" lon="2.93112">
        <ele>876.711862</ele>
        <time>2021-04-29T15:43:45.421Z</time>
      </trkpt>
      <trkpt lat="45.55956" lon="2.93135">
        <ele>878.274519</ele>
        <time>2021-04-29T15:43:57.842Z</time>
      </trkpt>
      <trkpt lat="45.55945" lon="2.93143">
        <ele>879.347953</ele>
        <time>2021-04-29T15:44:06.135Z</time>
      </trkpt>
      <trkpt lat="45.55941" lon="2.93154">
        <ele>880.172369</ele>
        <time>2021-04-29T15:44:12.273Z</time>
      </trkpt>
      <trkpt lat="45.55934" lon="2.9317">
        <ele>881.455034</ele>
        <time>2021-04-29T15:44:21.532Z</time>
      </trkpt>
      <trkpt lat="45.55886" lon="2.93171">
        <ele>886.737068</ele>
        <time>2021-04-29T15:44:54.108Z</time>
      </trkpt>
      <trkpt lat="45.55878" lon="2.93201">
        <ele>889.201936</ele>
        <time>2021-04-29T15:45:10.558Z</time>
      </trkpt>
      <trkpt lat="45.55862" lon="2.93235">
        <ele>892.306317</ele>
        <time>2021-04-29T15:45:29.620Z</time>
      </trkpt>
      <trkpt lat="45.55859" lon="2.93254">
        <ele>893.791446</ele>
        <time>2021-04-29T15:45:38.673Z</time>
      </trkpt>
      <trkpt lat="45.55863" lon="2.93288">
        <ele>896.418394</ele>
        <time>2021-04-29T15:45:55.102Z</time>
      </trkpt>
      <trkpt lat="45.55883" lon="2.93342">
        <ele>900.85532</ele>
        <time>2021-04-29T15:46:24.481Z</time>
      </trkpt>
      <trkpt lat="45.55884" lon="2.93379">
        <ele>902.787209</ele>
        <time>2021-04-29T15:46:39.775Z</time>
      </trkpt>
      <trkpt lat="45.55879" lon="2.93411">
        <ele>904.477338</ele>
        <time>2021-04-29T15:46:51.220Z</time>
      </trkpt>
      <trkpt lat="45.55857" lon="2.93484">
        <ele>908.624653</ele>
        <time>2021-04-29T15:47:17.171Z</time>
      </trkpt>
      <trkpt lat="45.55839" lon="2.93519">
        <ele>910.888462</ele>
        <time>2021-04-29T15:47:32.521Z</time>
      </trkpt>
      <trkpt lat="45.55819" lon="2.93548">
        <ele>913.012812</ele>
        <time>2021-04-29T15:47:47.151Z</time>
      </trkpt>
      <trkpt lat="45.55773" lon="2.93568">
        <ele>917.677836</ele>
        <time>2021-04-29T15:48:11.528Z</time>
      </trkpt>
      <trkpt lat="45.55766" lon="2.93562">
        <ele>918.471504</ele>
        <time>2021-04-29T15:48:16.496Z</time>
      </trkpt>
      <trkpt lat="45.558" lon="2.93514">
        <ele>923.223852</ele>
        <time>2021-04-29T15:48:44.804Z</time>
      </trkpt>
      <trkpt lat="45.55806" lon="2.93489">
        <ele>925.107704</ele>
        <time>2021-04-29T15:48:56.362Z</time>
      </trkpt>
      <trkpt lat="45.55807" lon="2.93431">
        <ele>929.184108</ele>
        <time>2021-04-29T15:49:25.287Z</time>
      </trkpt>
      <trkpt lat="45.55801" lon="2.93429">
        <ele>929.82673</ele>
        <time>2021-04-29T15:49:30.252Z</time>
      </trkpt>
      <trkpt lat="45.55794" lon="2.93456">
        <ele>931.887855</ele>
        <time>2021-04-29T15:49:44.579Z</time>
      </trkpt>
      <trkpt lat="45.55778" lon="2.93484">
        <ele>935.708017</ele>
        <time>2021-04-29T15:50:05.665Z</time>
      </trkpt>
      <trkpt lat="45.55769" lon="2.9349">
        <ele>937.21074</ele>
        <time>2021-04-29T15:50:13.520Z</time>
      </trkpt>
      <trkpt lat="45.55688" lon="2.9349">
        <ele>949.420485</ele>
        <time>2021-04-29T15:51:22.058Z</time>
      </trkpt>
      <trkpt lat="45.5566" lon="2.93457">
        <ele>954.879223</ele>
        <time>2021-04-29T15:51:54.703Z</time>
      </trkpt>
      <trkpt lat="45.55628" lon="2.93442">
        <ele>959.758288</ele>
        <time>2021-04-29T15:52:24.469Z</time>
      </trkpt>
      <trkpt lat="45.55613" lon="2.93446">
        <ele>961.761773</ele>
        <time>2021-04-29T15:52:37.686Z</time>
      </trkpt>
      <trkpt lat="45.55558" lon="2.93534">
        <ele>972.761514</ele>
        <time>2021-04-29T15:53:44.685Z</time>
      </trkpt>
      <trkpt lat="45.55555" lon="2.93547">
        <ele>973.990941</ele>
        <time>2021-04-29T15:53:51.578Z</time>
      </trkpt>
      <trkpt lat="45.55552" lon="2.93607">
        <ele>979.592834</ele>
        <time>2021-04-29T15:54:21.511Z</time>
      </trkpt>
      <trkpt lat="45.55523" lon="2.93746">
        <ele>989.164412</ele>
        <time>2021-04-29T15:55:23.276Z</time>
      </trkpt>
      <trkpt lat="45.55535" lon="2.93821">
        <ele>993.686626</ele>
        <time>2021-04-29T15:55:51.568Z</time>
      </trkpt>
      <trkpt lat="45.55533" lon="2.93838">
        <ele>994.672133</ele>
        <time>2021-04-29T15:55:57.619Z</time>
      </trkpt>
      <trkpt lat="45.55522" lon="2.93856">
        <ele>996.039856</ele>
        <time>2021-04-29T15:56:06.091Z</time>
      </trkpt>
      <trkpt lat="45.55496" lon="2.93895">
        <ele>999.06458</ele>
        <time>2021-04-29T15:56:26.096Z</time>
      </trkpt>
      <trkpt lat="45.55452" lon="2.93939">
        <ele>1003.019697</ele>
        <time>2021-04-29T15:56:53.530Z</time>
      </trkpt>
      <trkpt lat="45.55405" lon="2.9395">
        <ele>1006.592184</ele>
        <time>2021-04-29T15:57:19.110Z</time>
      </trkpt>
      <trkpt lat="45.55368" lon="2.93974">
        <ele>1009.560058</ele>
        <time>2021-04-29T15:57:41.185Z</time>
      </trkpt>
      <trkpt lat="45.5534" lon="2.93983">
        <ele>1011.628724</ele>
        <time>2021-04-29T15:57:56.267Z</time>
      </trkpt>
      <trkpt lat="45.55277" lon="2.93992">
        <ele>1016.074326</ele>
        <time>2021-04-29T15:58:30.712Z</time>
      </trkpt>
      <trkpt lat="45.55258" lon="2.93993">
        <ele>1017.378549</ele>
        <time>2021-04-29T15:58:40.673Z</time>
      </trkpt>
      <trkpt lat="45.55239" lon="2.93985">
        <ele>1018.704236</ele>
        <time>2021-04-29T15:58:49.975Z</time>
      </trkpt>
      <trkpt lat="45.55219" lon="2.93983">
        <ele>1020.120702</ele>
        <time>2021-04-29T15:59:00.242Z</time>
      </trkpt>
      <trkpt lat="45.55208" lon="2.9397">
        <ele>1021.119185</ele>
        <time>2021-04-29T15:59:06.925Z</time>
      </trkpt>
      <trkpt lat="45.55194" lon="2.93966">
        <ele>1022.152595</ele>
        <time>2021-04-29T15:59:14.061Z</time>
      </trkpt>
      <trkpt lat="45.55201" lon="2.93942">
        <ele>1023.432878</ele>
        <time>2021-04-29T15:59:22.793Z</time>
      </trkpt>
      <trkpt lat="45.55228" lon="2.93909">
        <ele>1025.505784</ele>
        <time>2021-04-29T15:59:39.352Z</time>
      </trkpt>
      <trkpt lat="45.55251" lon="2.9387">
        <ele>1027.597007</ele>
        <time>2021-04-29T15:59:56.954Z</time>
      </trkpt>
      <trkpt lat="45.5527" lon="2.93772">
        <ele>1031.798725</ele>
        <time>2021-04-29T16:00:30.448Z</time>
      </trkpt>
      <trkpt lat="45.55269" lon="2.93732">
        <ele>1033.452433</ele>
        <time>2021-04-29T16:00:42.598Z</time>
      </trkpt>
      <trkpt lat="45.55264" lon="2.93696">
        <ele>1034.61427</ele>
        <time>2021-04-29T16:00:54.106Z</time>
      </trkpt>
      <trkpt lat="45.55256" lon="2.93644">
        <ele>1036.108926</ele>
        <time>2021-04-29T16:01:10.617Z</time>
      </trkpt>
      <trkpt lat="45.55249" lon="2.9363">
        <ele>1036.583546</ele>
        <time>2021-04-29T16:01:15.732Z</time>
      </trkpt>
      <trkpt lat="45.552" lon="2.93532">
        <ele>1039.949375</ele>
        <time>2021-04-29T16:01:48.918Z</time>
      </trkpt>
      <trkpt lat="45.55187" lon="2.93517">
        <ele>1040.610471</ele>
        <time>2021-04-29T16:01:55.909Z</time>
      </trkpt>
      <trkpt lat="45.55178" lon="2.93538">
        <ele>1041.075079</ele>
        <time>2021-04-29T16:02:03.309Z</time>
      </trkpt>
      <trkpt lat="45.5516" lon="2.93562">
        <ele>1040.717511</ele>
        <time>2021-04-29T16:02:13.890Z</time>
      </trkpt>
      <trkpt lat="45.55088" lon="2.93608">
        <ele>1039.545871</ele>
        <time>2021-04-29T16:02:40.400Z</time>
      </trkpt>
      <trkpt lat="45.5508" lon="2.93612">
        <ele>1039.418813</ele>
        <time>2021-04-29T16:02:42.942Z</time>
      </trkpt>
      <trkpt lat="45.55053" lon="2.93624">
        <ele>1038.991512</ele>
        <time>2021-04-29T16:02:51.748Z</time>
      </trkpt>
      <trkpt lat="45.55064" lon="2.93682">
        <ele>1038.080303</ele>
        <time>2021-04-29T16:02:58.302Z</time>
      </trkpt>
      <trkpt lat="45.55075" lon="2.93732">
        <ele>1036.136259</ele>
        <time>2021-04-29T16:03:03.819Z</time>
      </trkpt>
      <trkpt lat="45.55106" lon="2.93808">
        <ele>1032.843012</ele>
        <time>2021-04-29T16:03:12.756Z</time>
      </trkpt>
      <trkpt lat="45.55152" lon="2.93914">
        <ele>1028.638177</ele>
        <time>2021-04-29T16:03:25.808Z</time>
      </trkpt>
      <trkpt lat="45.55155" lon="2.93936">
        <ele>1028.330125</ele>
        <time>2021-04-29T16:03:28.188Z</time>
      </trkpt>
      <trkpt lat="45.55153" lon="2.93951">
        <ele>1028.114598</ele>
        <time>2021-04-29T16:03:29.974Z</time>
      </trkpt>
      <trkpt lat="45.55143" lon="2.93961">
        <ele>1027.874703</ele>
        <time>2021-04-29T16:03:32.052Z</time>
      </trkpt>
      <trkpt lat="45.55123" lon="2.93965">
        <ele>1027.479803</ele>
        <time>2021-04-29T16:03:35.266Z</time>
      </trkpt>
      <trkpt lat="45.55092" lon="2.93949">
        <ele>1026.841706</ele>
        <time>2021-04-29T16:03:41.004Z</time>
      </trkpt>
      <trkpt lat="45.55055" lon="2.93931">
        <ele>1026.075522</ele>
        <time>2021-04-29T16:03:48.682Z</time>
      </trkpt>
      <trkpt lat="45.55042" lon="2.9393">
        <ele>1025.810208</ele>
        <time>2021-04-29T16:03:52.244Z</time>
      </trkpt>
      <trkpt lat="45.55029" lon="2.93936">
        <ele>1025.548611</ele>
        <time>2021-04-29T16:03:54.871Z</time>
      </trkpt>
      <trkpt lat="45.55017" lon="2.9397">
        <ele>1025.595569</ele>
        <time>2021-04-29T16:04:02.182Z</time>
      </trkpt>
      <trkpt lat="45.55016" lon="2.94">
        <ele>1025.881705</ele>
        <time>2021-04-29T16:04:08.313Z</time>
      </trkpt>
      <trkpt lat="45.55019" lon="2.94021">
        <ele>1026.089921</ele>
        <time>2021-04-29T16:04:12.945Z</time>
      </trkpt>
      <trkpt lat="45.55008" lon="2.94057">
        <ele>1026.462811</ele>
        <time>2021-04-29T16:04:21.141Z</time>
      </trkpt>
      <trkpt lat="45.54998" lon="2.9412">
        <ele>1027.083027</ele>
        <time>2021-04-29T16:04:34.586Z</time>
      </trkpt>
      <trkpt lat="45.5499" lon="2.94168">
        <ele>1027.557251</ele>
        <time>2021-04-29T16:04:44.002Z</time>
      </trkpt>
      <trkpt lat="45.54969" lon="2.9427">
        <ele>1028.232808</ele>
        <time>2021-04-29T16:05:03.837Z</time>
      </trkpt>
      <trkpt lat="45.54936" lon="2.94363">
        <ele>1028.761584</ele>
        <time>2021-04-29T16:05:21.832Z</time>
      </trkpt>
      <trkpt lat="45.54896" lon="2.94437">
        <ele>1029.040697</ele>
        <time>2021-04-29T16:05:37.801Z</time>
      </trkpt>
      <trkpt lat="45.54858" lon="2.94488">
        <ele>1028.644891</ele>
        <time>2021-04-29T16:05:49.929Z</time>
      </trkpt>
      <trkpt lat="45.54841" lon="2.94502">
        <ele>1028.49917</ele>
        <time>2021-04-29T16:05:53.965Z</time>
      </trkpt>
      <trkpt lat="45.54831" lon="2.9451">
        <ele>1028.413362</ele>
        <time>2021-04-29T16:05:56.129Z</time>
      </trkpt>
      <trkpt lat="45.54806" lon="2.94517">
        <ele>1028.221513</ele>
        <time>2021-04-29T16:06:01.099Z</time>
      </trkpt>
      <trkpt lat="45.54719" lon="2.94529">
        <ele>1026.93935</ele>
        <time>2021-04-29T16:06:16.730Z</time>
      </trkpt>
      <trkpt lat="45.54681" lon="2.94532">
        <ele>1025.816158</ele>
        <time>2021-04-29T16:06:23.140Z</time>
      </trkpt>
      <trkpt lat="45.54646" lon="2.94521">
        <ele>1024.769864</ele>
        <time>2021-04-29T16:06:28.981Z</time>
      </trkpt>
      <trkpt lat="45.54627" lon="2.94506">
        <ele>1024.135425</ele>
        <time>2021-04-29T16:06:32.520Z</time>
      </trkpt>
      <trkpt lat="45.54611" lon="2.94484">
        <ele>1023.491129</ele>
        <time>2021-04-29T16:06:36.158Z</time>
      </trkpt>
      <trkpt lat="45.54595" lon="2.94439">
        <ele>1022.418458</ele>
        <time>2021-04-29T16:06:41.868Z</time>
      </trkpt>
      <trkpt lat="45.54587" lon="2.94387">
        <ele>1020.923845</ele>
        <time>2021-04-29T16:06:47.710Z</time>
      </trkpt>
      <trkpt lat="45.54567" lon="2.9435">
        <ele>1019.587645</ele>
        <time>2021-04-29T16:06:52.987Z</time>
      </trkpt>
      <trkpt lat="45.54566" lon="2.94349">
        <ele>1019.557991</ele>
        <time>2021-04-29T16:06:53.093Z</time>
      </trkpt>
      <trkpt lat="45.54555" lon="2.94338">
        <ele>1019.006115</ele>
        <time>2021-04-29T16:06:55.166Z</time>
      </trkpt>
      <trkpt lat="45.54548" lon="2.94333">
        <ele>1018.710029</ele>
        <time>2021-04-29T16:06:56.336Z</time>
      </trkpt>
      <trkpt lat="45.54526" lon="2.94323">
        <ele>1017.762069</ele>
        <time>2021-04-29T16:06:59.826Z</time>
      </trkpt>
      <trkpt lat="45.54511" lon="2.94323">
        <ele>1017.166908</ele>
        <time>2021-04-29T16:07:02.225Z</time>
      </trkpt>
      <trkpt lat="45.54495" lon="2.94331">
        <ele>1016.465311</ele>
        <time>2021-04-29T16:07:04.784Z</time>
      </trkpt>
      <trkpt lat="45.5444" lon="2.94364">
        <ele>1014.229991</ele>
        <time>2021-04-29T16:07:14.251Z</time>
      </trkpt>
      <trkpt lat="45.54415" lon="2.94368">
        <ele>1013.323982</ele>
        <time>2021-04-29T16:07:18.332Z</time>
      </trkpt>
      <trkpt lat="45.54406" lon="2.94366">
        <ele>1013.000948</ele>
        <time>2021-04-29T16:07:19.856Z</time>
      </trkpt>
      <trkpt lat="45.54393" lon="2.9436">
        <ele>1012.523622</ele>
        <time>2021-04-29T16:07:21.913Z</time>
      </trkpt>
      <trkpt lat="45.54374" lon="2.94344">
        <ele>1011.737899</ele>
        <time>2021-04-29T16:07:25.608Z</time>
      </trkpt>
      <trkpt lat="45.54359" lon="2.94319">
        <ele>1010.929913</ele>
        <time>2021-04-29T16:07:29.116Z</time>
      </trkpt>
      <trkpt lat="45.54351" lon="2.94287">
        <ele>1010.102168</ele>
        <time>2021-04-29T16:07:32.988Z</time>
      </trkpt>
      <trkpt lat="45.5435" lon="2.94261">
        <ele>1009.466288</ele>
        <time>2021-04-29T16:07:35.940Z</time>
      </trkpt>
      <trkpt lat="45.54356" lon="2.94225">
        <ele>1008.76027</ele>
        <time>2021-04-29T16:07:40.228Z</time>
      </trkpt>
      <trkpt lat="45.54387" lon="2.94123">
        <ele>1007.444294</ele>
        <time>2021-04-29T16:07:54.378Z</time>
      </trkpt>
      <trkpt lat="45.54396" lon="2.94076">
        <ele>1006.873641</ele>
        <time>2021-04-29T16:08:00.658Z</time>
      </trkpt>
      <trkpt lat="45.544" lon="2.94039">
        <ele>1006.443019</ele>
        <time>2021-04-29T16:08:05.388Z</time>
      </trkpt>
      <trkpt lat="45.54397" lon="2.93995">
        <ele>1005.952988</ele>
        <time>2021-04-29T16:08:11.181Z</time>
      </trkpt>
      <trkpt lat="45.54387" lon="2.93961">
        <ele>1006.521221</ele>
        <time>2021-04-29T16:08:15.985Z</time>
      </trkpt>
      <trkpt lat="45.54355" lon="2.93895">
        <ele>1007.789736</ele>
        <time>2021-04-29T16:08:30.397Z</time>
      </trkpt>
      <trkpt lat="45.54333" lon="2.93872">
        <ele>1008.409341</ele>
        <time>2021-04-29T16:08:39.999Z</time>
      </trkpt>
      <trkpt lat="45.54267" lon="2.93851">
        <ele>1009.922345</ele>
        <time>2021-04-29T16:09:06.719Z</time>
      </trkpt>
      <trkpt lat="45.54246" lon="2.93846">
        <ele>1011.299153</ele>
        <time>2021-04-29T16:09:15.709Z</time>
      </trkpt>
      <trkpt lat="45.54231" lon="2.93851">
        <ele>1012.428651</ele>
        <time>2021-04-29T16:09:21.476Z</time>
      </trkpt>
      <trkpt lat="45.54217" lon="2.93861">
        <ele>1013.553961</ele>
        <time>2021-04-29T16:09:30.723Z</time>
      </trkpt>
      <trkpt lat="45.54203" lon="2.93885">
        <ele>1015.144155</ele>
        <time>2021-04-29T16:09:40.783Z</time>
      </trkpt>
      <trkpt lat="45.54199" lon="2.93912">
        <ele>1016.516582</ele>
        <time>2021-04-29T16:09:52.885Z</time>
      </trkpt>
      <trkpt lat="45.54202" lon="2.93935">
        <ele>1017.665301</ele>
        <time>2021-04-29T16:09:59.868Z</time>
      </trkpt>
      <trkpt lat="45.54228" lon="2.9401">
        <ele>1021.831483</ele>
        <time>2021-04-29T16:10:34.866Z</time>
      </trkpt>
      <trkpt lat="45.54231" lon="2.94027">
        <ele>1022.732569</ele>
        <time>2021-04-29T16:10:40.741Z</time>
      </trkpt>
      <trkpt lat="45.54226" lon="2.94053">
        <ele>1023.78641</ele>
        <time>2021-04-29T16:10:52.461Z</time>
      </trkpt>
      <trkpt lat="45.54218" lon="2.94071">
        <ele>1024.673996</ele>
        <time>2021-04-29T16:10:59.094Z</time>
      </trkpt>
      <trkpt lat="45.54153" lon="2.94152">
        <ele>1029.654926</ele>
        <time>2021-04-29T16:11:38.733Z</time>
      </trkpt>
      <trkpt lat="45.54117" lon="2.94234">
        <ele>1033.296376</ele>
        <time>2021-04-29T16:12:06.662Z</time>
      </trkpt>
      <trkpt lat="45.54105" lon="2.9427">
        <ele>1033.864168</ele>
        <time>2021-04-29T16:12:15.773Z</time>
      </trkpt>
      <trkpt lat="45.54098" lon="2.94322">
        <ele>1034.621177</ele>
        <time>2021-04-29T16:12:27.077Z</time>
      </trkpt>
      <trkpt lat="45.54096" lon="2.94402">
        <ele>1035.759997</ele>
        <time>2021-04-29T16:12:42.805Z</time>
      </trkpt>
      <trkpt lat="45.54087" lon="2.94443">
        <ele>1036.376423</ele>
        <time>2021-04-29T16:12:50.952Z</time>
      </trkpt>
      <trkpt lat="45.54069" lon="2.94477">
        <ele>1036.920568</ele>
        <time>2021-04-29T16:12:58.922Z</time>
      </trkpt>
      <trkpt lat="45.54038" lon="2.94512">
        <ele>1037.393775</ele>
        <time>2021-04-29T16:13:09.216Z</time>
      </trkpt>
      <trkpt lat="45.53972" lon="2.94586">
        <ele>1038.416005</ele>
        <time>2021-04-29T16:13:32.420Z</time>
      </trkpt>
      <trkpt lat="45.53912" lon="2.94654">
        <ele>1038.760772</ele>
        <time>2021-04-29T16:13:53.786Z</time>
      </trkpt>
      <trkpt lat="45.53887" lon="2.94675">
        <ele>1038.522809</ele>
        <time>2021-04-29T16:14:00.896Z</time>
      </trkpt>
      <trkpt lat="45.53794" lon="2.94759">
        <ele>1037.606398</ele>
        <time>2021-04-29T16:14:21.729Z</time>
      </trkpt>
      <trkpt lat="45.53726" lon="2.9482">
        <ele>1034.504223</ele>
        <time>2021-04-29T16:14:34.562Z</time>
      </trkpt>
      <trkpt lat="45.53696" lon="2.94839">
        <ele>1033.077256</ele>
        <time>2021-04-29T16:14:39.518Z</time>
      </trkpt>
      <trkpt lat="45.53639" lon="2.94851">
        <ele>1030.522822</ele>
        <time>2021-04-29T16:14:48.189Z</time>
      </trkpt>
      <trkpt lat="45.53598" lon="2.94845">
        <ele>1028.651219</ele>
        <time>2021-04-29T16:14:54.292Z</time>
      </trkpt>
      <trkpt lat="45.53487" lon="2.94809">
        <ele>1023.263225</ele>
        <time>2021-04-29T16:15:11.503Z</time>
      </trkpt>
      <trkpt lat="45.5345" lon="2.94776">
        <ele>1021.199754</ele>
        <time>2021-04-29T16:15:18.316Z</time>
      </trkpt>
      <trkpt lat="45.53405" lon="2.9471">
        <ele>1019.157786</ele>
        <time>2021-04-29T16:15:28.666Z</time>
      </trkpt>
      <trkpt lat="45.53378" lon="2.94685">
        <ele>1018.167014</ele>
        <time>2021-04-29T16:15:33.910Z</time>
      </trkpt>
      <trkpt lat="45.53339" lon="2.94671">
        <ele>1016.927706</ele>
        <time>2021-04-29T16:15:40.564Z</time>
      </trkpt>
      <trkpt lat="45.53171" lon="2.94664">
        <ele>1012.879789</ele>
        <time>2021-04-29T16:16:09.550Z</time>
      </trkpt>
      <trkpt lat="45.53122" lon="2.94672">
        <ele>1011.825857</ele>
        <time>2021-04-29T16:16:18.303Z</time>
      </trkpt>
      <trkpt lat="45.53077" lon="2.94687">
        <ele>1010.825659</ele>
        <time>2021-04-29T16:16:26.694Z</time>
      </trkpt>
      <trkpt lat="45.52837" lon="2.94794">
        <ele>1003.502251</ele>
        <time>2021-04-29T16:17:09.964Z</time>
      </trkpt>
      <trkpt lat="45.52798" lon="2.94811">
        <ele>1001.896353</ele>
        <time>2021-04-29T16:17:16.184Z</time>
      </trkpt>
      <trkpt lat="45.52666" lon="2.9487">
        <ele>992.989069</ele>
        <time>2021-04-29T16:17:35.727Z</time>
      </trkpt>
      <trkpt lat="45.52642" lon="2.94875">
        <ele>991.242006</ele>
        <time>2021-04-29T16:17:39.168Z</time>
      </trkpt>
      <trkpt lat="45.52635" lon="2.94877">
        <ele>990.746179</ele>
        <time>2021-04-29T16:17:40.168Z</time>
      </trkpt>
      <trkpt lat="45.5263" lon="2.94878">
        <ele>990.422648</ele>
        <time>2021-04-29T16:17:40.862Z</time>
      </trkpt>
      <trkpt lat="45.52599" lon="2.94876">
        <ele>988.197676</ele>
        <time>2021-04-29T16:17:45.340Z</time>
      </trkpt>
      <trkpt lat="45.52574" lon="2.94863">
        <ele>987.073373</ele>
        <time>2021-04-29T16:17:49.175Z</time>
      </trkpt>
      <trkpt lat="45.52548" lon="2.94832">
        <ele>985.762352</ele>
        <time>2021-04-29T16:17:54.194Z</time>
      </trkpt>
      <trkpt lat="45.52437" lon="2.94615">
        <ele>979.161296</ele>
        <time>2021-04-29T16:18:25.829Z</time>
      </trkpt>
      <trkpt lat="45.52413" lon="2.94573">
        <ele>978.106978</ele>
        <time>2021-04-29T16:18:32.217Z</time>
      </trkpt>
      <trkpt lat="45.52378" lon="2.94527">
        <ele>976.798311</ele>
        <time>2021-04-29T16:18:40.037Z</time>
      </trkpt>
      <trkpt lat="45.52282" lon="2.9444">
        <ele>974.991188</ele>
        <time>2021-04-29T16:18:59.194Z</time>
      </trkpt>
      <trkpt lat="45.52243" lon="2.94405">
        <ele>974.439458</ele>
        <time>2021-04-29T16:19:07.680Z</time>
      </trkpt>
      <trkpt lat="45.52195" lon="2.94345">
        <ele>974.360186</ele>
        <time>2021-04-29T16:19:23.468Z</time>
      </trkpt>
      <trkpt lat="45.52163" lon="2.94293">
        <ele>976.000767</ele>
        <time>2021-04-29T16:19:39.507Z</time>
      </trkpt>
      <trkpt lat="45.52146" lon="2.94266">
        <ele>976.860432</ele>
        <time>2021-04-29T16:19:49.128Z</time>
      </trkpt>
      <trkpt lat="45.52111" lon="2.94195">
        <ele>978.909406</ele>
        <time>2021-04-29T16:20:11.722Z</time>
      </trkpt>
      <trkpt lat="45.52103" lon="2.94179">
        <ele>979.356787</ele>
        <time>2021-04-29T16:20:18.294Z</time>
      </trkpt>
      <trkpt lat="45.52015" lon="2.9404">
        <ele>984.517059</ele>
        <time>2021-04-29T16:21:14.915Z</time>
      </trkpt>
      <trkpt lat="45.51992" lon="2.94004">
        <ele>985.879727</ele>
        <time>2021-04-29T16:21:27.194Z</time>
      </trkpt>
      <trkpt lat="45.51985" lon="2.93992">
        <ele>986.305284</ele>
        <time>2021-04-29T16:21:30.849Z</time>
      </trkpt>
      <trkpt lat="45.51951" lon="2.93961">
        <ele>986.928902</ele>
        <time>2021-04-29T16:21:42.407Z</time>
      </trkpt>
      <trkpt lat="45.51921" lon="2.93957">
        <ele>986.65346</ele>
        <time>2021-04-29T16:21:49.004Z</time>
      </trkpt>
      <trkpt lat="45.51892" lon="2.93959">
        <ele>986.386224</ele>
        <time>2021-04-29T16:21:55.499Z</time>
      </trkpt>
      <trkpt lat="45.51785" lon="2.93964">
        <ele>985.456702</ele>
        <time>2021-04-29T16:22:13.980Z</time>
      </trkpt>
      <trkpt lat="45.51779" lon="2.93962">
        <ele>985.453845</ele>
        <time>2021-04-29T16:22:14.770Z</time>
      </trkpt>
      <trkpt lat="45.51745" lon="2.93946">
        <ele>985.435233</ele>
        <time>2021-04-29T16:22:20.792Z</time>
      </trkpt>
      <trkpt lat="45.5172" lon="2.93931">
        <ele>985.421611</ele>
        <time>2021-04-29T16:22:26.421Z</time>
      </trkpt>
      <trkpt lat="45.51637" lon="2.93882">
        <ele>985.375652</ele>
        <time>2021-04-29T16:22:49.146Z</time>
      </trkpt>
      <trkpt lat="45.51633" lon="2.9388">
        <ele>985.373336</ele>
        <time>2021-04-29T16:22:50.563Z</time>
      </trkpt>
      <trkpt lat="45.51622" lon="2.93873">
        <ele>985.472969</ele>
        <time>2021-04-29T16:22:54.153Z</time>
      </trkpt>
      <trkpt lat="45.51617" lon="2.93871">
        <ele>985.764604</ele>
        <time>2021-04-29T16:22:56.322Z</time>
      </trkpt>
      <trkpt lat="45.51604" lon="2.93866">
        <ele>986.484543</ele>
        <time>2021-04-29T16:23:00.992Z</time>
      </trkpt>
      <trkpt lat="45.51588" lon="2.93866">
        <ele>987.309893</ele>
        <time>2021-04-29T16:23:06.421Z</time>
      </trkpt>
      <trkpt lat="45.51574" lon="2.93869">
        <ele>988.049407</ele>
        <time>2021-04-29T16:23:12.156Z</time>
      </trkpt>
      <trkpt lat="45.51559" lon="2.93876">
        <ele>988.881505</ele>
        <time>2021-04-29T16:23:18.390Z</time>
      </trkpt>
      <trkpt lat="45.51548" lon="2.93883">
        <ele>989.471148</ele>
        <time>2021-04-29T16:23:23.267Z</time>
      </trkpt>
      <trkpt lat="45.51548" lon="2.93883">
        <ele>989.471148</ele>
        <time>2021-04-29T16:23:23.311Z</time>
      </trkpt>
      <trkpt lat="45.51546" lon="2.93879">
        <ele>989.645239</ele>
        <time>2021-04-29T16:23:24.815Z</time>
      </trkpt>
      <trkpt lat="45.51536" lon="2.93878">
        <ele>990.153837</ele>
        <time>2021-04-29T16:23:28.809Z</time>
      </trkpt>
      <trkpt lat="45.51533" lon="2.93881">
        <ele>990.328336</ele>
        <time>2021-04-29T16:23:30.388Z</time>
      </trkpt>
      <trkpt lat="45.51518" lon="2.93855">
        <ele>991.553171</ele>
        <time>2021-04-29T16:23:41.253Z</time>
      </trkpt>
      <trkpt lat="45.51483" lon="2.93799">
        <ele>994.315405</ele>
        <time>2021-04-29T16:24:08.032Z</time>
      </trkpt>
      <trkpt lat="45.51462" lon="2.93764">
        <ele>996.526916</ele>
        <time>2021-04-29T16:24:25.809Z</time>
      </trkpt>
      <trkpt lat="45.51446" lon="2.93731">
        <ele>998.73024</ele>
        <time>2021-04-29T16:24:40.836Z</time>
      </trkpt>
      <trkpt lat="45.51407" lon="2.93653">
        <ele>1003.788311</ele>
        <time>2021-04-29T16:25:13.842Z</time>
      </trkpt>
      <trkpt lat="45.51389" lon="2.93631">
        <ele>1005.623947</ele>
        <time>2021-04-29T16:25:27.291Z</time>
      </trkpt>
      <trkpt lat="45.5137" lon="2.93607">
        <ele>1007.564001</ele>
        <time>2021-04-29T16:25:41.677Z</time>
      </trkpt>
      <trkpt lat="45.51364" lon="2.9357">
        <ele>1009.706609</ele>
        <time>2021-04-29T16:25:55.748Z</time>
      </trkpt>
      <trkpt lat="45.5137" lon="2.9355">
        <ele>1011.028141</ele>
        <time>2021-04-29T16:26:04.524Z</time>
      </trkpt>
      <trkpt lat="45.51392" lon="2.93515">
        <ele>1013.896872</ele>
        <time>2021-04-29T16:26:23.690Z</time>
      </trkpt>
      <trkpt lat="45.51395" lon="2.93497">
        <ele>1015.004041</ele>
        <time>2021-04-29T16:26:30.658Z</time>
      </trkpt>
      <trkpt lat="45.51388" lon="2.93478">
        <ele>1016.26652</ele>
        <time>2021-04-29T16:26:39.321Z</time>
      </trkpt>
      <trkpt lat="45.51384" lon="2.93476">
        <ele>1016.613911</ele>
        <time>2021-04-29T16:26:42.483Z</time>
      </trkpt>
      <trkpt lat="45.51384" lon="2.93472">
        <ele>1016.842946</ele>
        <time>2021-04-29T16:26:44.020Z</time>
      </trkpt>
      <trkpt lat="45.51384" lon="2.93462">
        <ele>1017.456057</ele>
        <time>2021-04-29T16:26:47.221Z</time>
      </trkpt>
      <trkpt lat="45.51384" lon="2.93449">
        <ele>1018.261849</ele>
        <time>2021-04-29T16:26:52.794Z</time>
      </trkpt>
      <trkpt lat="45.51377" lon="2.93405">
        <ele>1020.935115</ele>
        <time>2021-04-29T16:27:10.519Z</time>
      </trkpt>
      <trkpt lat="45.51373" lon="2.93398">
        <ele>1021.491377</ele>
        <time>2021-04-29T16:27:15.022Z</time>
      </trkpt>
      <trkpt lat="45.5136" lon="2.93369">
        <ele>1023.550394</ele>
        <time>2021-04-29T16:27:28.070Z</time>
      </trkpt>
      <trkpt lat="45.51351" lon="2.93349">
        <ele>1024.930825</ele>
        <time>2021-04-29T16:27:38.040Z</time>
      </trkpt>
      <trkpt lat="45.51345" lon="2.93336">
        <ele>1025.852949</ele>
        <time>2021-04-29T16:27:45.101Z</time>
      </trkpt>
      <trkpt lat="45.51341" lon="2.93323">
        <ele>1026.674069</ele>
        <time>2021-04-29T16:27:49.929Z</time>
      </trkpt>
      <trkpt lat="45.51333" lon="2.93288">
        <ele>1028.794779</ele>
        <time>2021-04-29T16:28:06.407Z</time>
      </trkpt>
      <trkpt lat="45.51327" lon="2.93273">
        <ele>1029.811575</ele>
        <time>2021-04-29T16:28:12.576Z</time>
      </trkpt>
      <trkpt lat="45.51317" lon="2.93265">
        <ele>1030.737399</ele>
        <time>2021-04-29T16:28:19.961Z</time>
      </trkpt>
      <trkpt lat="45.51299" lon="2.93259">
        <ele>1032.276357</ele>
        <time>2021-04-29T16:28:29.846Z</time>
      </trkpt>
      <trkpt lat="45.5129" lon="2.93255">
        <ele>1032.994079</ele>
        <time>2021-04-29T16:28:34.913Z</time>
      </trkpt>
      <trkpt lat="45.51284" lon="2.9325">
        <ele>1033.577922</ele>
        <time>2021-04-29T16:28:40.407Z</time>
      </trkpt>
      <trkpt lat="45.51275" lon="2.93238">
        <ele>1034.616909</ele>
        <time>2021-04-29T16:28:46.995Z</time>
      </trkpt>
      <trkpt lat="45.51263" lon="2.93233">
        <ele>1035.629294</ele>
        <time>2021-04-29T16:28:52.929Z</time>
      </trkpt>
      <trkpt lat="45.51232" lon="2.93223">
        <ele>1038.229938</ele>
        <time>2021-04-29T16:29:10.249Z</time>
      </trkpt>
      <trkpt lat="45.51209" lon="2.93214">
        <ele>1039.438445</ele>
        <time>2021-04-29T16:29:23.072Z</time>
      </trkpt>
      <trkpt lat="45.51165" lon="2.93195">
        <ele>1041.284676</ele>
        <time>2021-04-29T16:29:44.499Z</time>
      </trkpt>
      <trkpt lat="45.51157" lon="2.93188">
        <ele>1041.641006</ele>
        <time>2021-04-29T16:29:48.264Z</time>
      </trkpt>
      <trkpt lat="45.51151" lon="2.9318">
        <ele>1041.966634</ele>
        <time>2021-04-29T16:29:52.689Z</time>
      </trkpt>
      <trkpt lat="45.51116" lon="2.93114">
        <ele>1044.274386</ele>
        <time>2021-04-29T16:30:12.265Z</time>
      </trkpt>
      <trkpt lat="45.5111" lon="2.93109">
        <ele>1044.561089</ele>
        <time>2021-04-29T16:30:14.490Z</time>
      </trkpt>
      <trkpt lat="45.51078" lon="2.93125">
        <ele>1045.865274</ele>
        <time>2021-04-29T16:30:24.078Z</time>
      </trkpt>
      <trkpt lat="45.51074" lon="2.93127">
        <ele>1045.837609</ele>
        <time>2021-04-29T16:30:25.180Z</time>
      </trkpt>
      <trkpt lat="45.5106" lon="2.93122">
        <ele>1045.722491</ele>
        <time>2021-04-29T16:30:29.003Z</time>
      </trkpt>
      <trkpt lat="45.51063" lon="2.93112">
        <ele>1045.665736</ele>
        <time>2021-04-29T16:30:30.516Z</time>
      </trkpt>
      <trkpt lat="45.5106" lon="2.93122">
        <ele>1045.608981</ele>
        <time>2021-04-29T16:30:32.004Z</time>
      </trkpt>
      <trkpt lat="45.51059" lon="2.93124">
        <ele>1045.589442</ele>
        <time>2021-04-29T16:30:32.509Z</time>
      </trkpt>
      <trkpt lat="45.51053" lon="2.93135">
        <ele>1045.516967</ele>
        <time>2021-04-29T16:30:35.167Z</time>
      </trkpt>
      <trkpt lat="45.5104" lon="2.93156">
        <ele>1045.358495</ele>
        <time>2021-04-29T16:30:39.129Z</time>
      </trkpt>
      <trkpt lat="45.51032" lon="2.93163">
        <ele>1045.289753</ele>
        <time>2021-04-29T16:30:40.730Z</time>
      </trkpt>
      <trkpt lat="45.5103" lon="2.93163">
        <ele>1045.267502</ele>
        <time>2021-04-29T16:30:41.261Z</time>
      </trkpt>
      <trkpt lat="45.51023" lon="2.93171">
        <ele>1045.201733</ele>
        <time>2021-04-29T16:30:42.934Z</time>
      </trkpt>
      <trkpt lat="45.51023" lon="2.93175">
        <ele>1045.179487</ele>
        <time>2021-04-29T16:30:43.464Z</time>
      </trkpt>
      <trkpt lat="45.51023" lon="2.9318">
        <ele>1045.15516</ele>
        <time>2021-04-29T16:30:44.063Z</time>
      </trkpt>
      <trkpt lat="45.51024" lon="2.93184">
        <ele>1045.1309</ele>
        <time>2021-04-29T16:30:44.670Z</time>
      </trkpt>
      <trkpt lat="45.51018" lon="2.93203">
        <ele>1045.014545</ele>
        <time>2021-04-29T16:30:47.359Z</time>
      </trkpt>
      <trkpt lat="45.5101" lon="2.93229">
        <ele>1044.859655</ele>
        <time>2021-04-29T16:30:51.111Z</time>
      </trkpt>
      <trkpt lat="45.51002" lon="2.93245">
        <ele>1044.750513</ele>
        <time>2021-04-29T16:30:53.684Z</time>
      </trkpt>
      <trkpt lat="45.50994" lon="2.93264">
        <ele>1044.624969</ele>
        <time>2021-04-29T16:30:56.565Z</time>
      </trkpt>
      <trkpt lat="45.5099" lon="2.93278">
        <ele>1044.542744</ele>
        <time>2021-04-29T16:30:58.369Z</time>
      </trkpt>
      <trkpt lat="45.50989" lon="2.93286">
        <ele>1044.496286</ele>
        <time>2021-04-29T16:30:59.357Z</time>
      </trkpt>
      <trkpt lat="45.50984" lon="2.93315">
        <ele>1044.077003</ele>
        <time>2021-04-29T16:31:02.866Z</time>
      </trkpt>
      <trkpt lat="45.50979" lon="2.93356">
        <ele>1043.334732</ele>
        <time>2021-04-29T16:31:07.879Z</time>
      </trkpt>
      <trkpt lat="45.50973" lon="2.934">
        <ele>1042.535033</ele>
        <time>2021-04-29T16:31:13.378Z</time>
      </trkpt>
      <trkpt lat="45.50969" lon="2.93426">
        <ele>1042.076803</ele>
        <time>2021-04-29T16:31:16.439Z</time>
      </trkpt>
      <trkpt lat="45.50966" lon="2.93426">
        <ele>1042.001169</ele>
        <time>2021-04-29T16:31:17.005Z</time>
      </trkpt>
      <trkpt lat="45.50958" lon="2.93436">
        <ele>1041.722221</ele>
        <time>2021-04-29T16:31:18.912Z</time>
      </trkpt>
      <trkpt lat="45.50958" lon="2.9344">
        <ele>1041.647631</ele>
        <time>2021-04-29T16:31:19.502Z</time>
      </trkpt>
      <trkpt lat="45.50958" lon="2.93445">
        <ele>1041.574104</ele>
        <time>2021-04-29T16:31:19.969Z</time>
      </trkpt>
      <trkpt lat="45.50964" lon="2.93453">
        <ele>1041.361952</ele>
        <time>2021-04-29T16:31:21.444Z</time>
      </trkpt>
      <trkpt lat="45.50967" lon="2.93454">
        <ele>1041.289183</ele>
        <time>2021-04-29T16:31:21.906Z</time>
      </trkpt>
      <trkpt lat="45.50965" lon="2.93474">
        <ele>1040.937123</ele>
        <time>2021-04-29T16:31:24.343Z</time>
      </trkpt>
      <trkpt lat="45.50963" lon="2.93527">
        <ele>1040.001267</ele>
        <time>2021-04-29T16:31:30.451Z</time>
      </trkpt>
      <trkpt lat="45.50965" lon="2.93559">
        <ele>1038.909257</ele>
        <time>2021-04-29T16:31:34.008Z</time>
      </trkpt>
      <trkpt lat="45.50969" lon="2.9359">
        <ele>1037.743754</ele>
        <time>2021-04-29T16:31:37.688Z</time>
      </trkpt>
      <trkpt lat="45.50973" lon="2.93617">
        <ele>1036.699128</ele>
        <time>2021-04-29T16:31:40.878Z</time>
      </trkpt>
      <trkpt lat="45.50979" lon="2.93639">
        <ele>1035.854899</ele>
        <time>2021-04-29T16:31:43.422Z</time>
      </trkpt>
      <trkpt lat="45.50989" lon="2.93672">
        <ele>1034.505941</ele>
        <time>2021-04-29T16:31:47.213Z</time>
      </trkpt>
      <trkpt lat="45.51" lon="2.93699">
        <ele>1033.365813</ele>
        <time>2021-04-29T16:31:50.424Z</time>
      </trkpt>
      <trkpt lat="45.51033" lon="2.9376">
        <ele>1030.555687</ele>
        <time>2021-04-29T16:31:58.057Z</time>
      </trkpt>
      <trkpt lat="45.51079" lon="2.9381">
        <ele>1026.009171</ele>
        <time>2021-04-29T16:32:06.344Z</time>
      </trkpt>
      <trkpt lat="45.51081" lon="2.93813">
        <ele>1025.775539</ele>
        <time>2021-04-29T16:32:06.723Z</time>
      </trkpt>
      <trkpt lat="45.51119" lon="2.93838">
        <ele>1022.503353</ele>
        <time>2021-04-29T16:32:12.566Z</time>
      </trkpt>
      <trkpt lat="45.51179" lon="2.93862">
        <ele>1017.62419</ele>
        <time>2021-04-29T16:32:21.370Z</time>
      </trkpt>
      <trkpt lat="45.51186" lon="2.93865">
        <ele>1017.078833</ele>
        <time>2021-04-29T16:32:22.296Z</time>
      </trkpt>
      <trkpt lat="45.51247" lon="2.93889">
        <ele>1012.590704</ele>
        <time>2021-04-29T16:32:31.260Z</time>
      </trkpt>
      <trkpt lat="45.51255" lon="2.93893">
        <ele>1012.056444</ele>
        <time>2021-04-29T16:32:32.438Z</time>
      </trkpt>
      <trkpt lat="45.51258" lon="2.93895">
        <ele>1011.771649</ele>
        <time>2021-04-29T16:32:32.984Z</time>
      </trkpt>
      <trkpt lat="45.51258" lon="2.939">
        <ele>1011.565802</ele>
        <time>2021-04-29T16:32:33.387Z</time>
      </trkpt>
      <trkpt lat="45.51259" lon="2.93908">
        <ele>1011.162057</ele>
        <time>2021-04-29T16:32:34.290Z</time>
      </trkpt>
      <trkpt lat="45.51261" lon="2.93911">
        <ele>1010.957418</ele>
        <time>2021-04-29T16:32:34.745Z</time>
      </trkpt>
      <trkpt lat="45.51264" lon="2.93914">
        <ele>1010.737053</ele>
        <time>2021-04-29T16:32:35.231Z</time>
      </trkpt>
      <trkpt lat="45.51267" lon="2.93915">
        <ele>1010.514221</ele>
        <time>2021-04-29T16:32:35.710Z</time>
      </trkpt>
      <trkpt lat="45.5127" lon="2.93915">
        <ele>1010.294921</ele>
        <time>2021-04-29T16:32:36.196Z</time>
      </trkpt>
      <trkpt lat="45.51272" lon="2.93914">
        <ele>1010.115634</ele>
        <time>2021-04-29T16:32:36.575Z</time>
      </trkpt>
      <trkpt lat="45.51278" lon="2.93907">
        <ele>1009.592482</ele>
        <time>2021-04-29T16:32:37.762Z</time>
      </trkpt>
      <trkpt lat="45.51279" lon="2.93903">
        <ele>1009.411113</ele>
        <time>2021-04-29T16:32:38.115Z</time>
      </trkpt>
      <trkpt lat="45.51283" lon="2.93903">
        <ele>1009.123242</ele>
        <time>2021-04-29T16:32:38.676Z</time>
      </trkpt>
      <trkpt lat="45.51316" lon="2.93915">
        <ele>1006.752674</ele>
        <time>2021-04-29T16:32:43.806Z</time>
      </trkpt>
      <trkpt lat="45.51379" lon="2.93938">
        <ele>1002.367124</ele>
        <time>2021-04-29T16:32:53.368Z</time>
      </trkpt>
      <trkpt lat="45.51455" lon="2.93976">
        <ele>997.023338</ele>
        <time>2021-04-29T16:33:04.964Z</time>
      </trkpt>
      <trkpt lat="45.51482" lon="2.93995">
        <ele>995.023695</ele>
        <time>2021-04-29T16:33:09.317Z</time>
      </trkpt>
      <trkpt lat="45.51501" lon="2.94012">
        <ele>993.563518</ele>
        <time>2021-04-29T16:33:12.503Z</time>
      </trkpt>
      <trkpt lat="45.51528" lon="2.94039">
        <ele>991.242509</ele>
        <time>2021-04-29T16:33:17.260Z</time>
      </trkpt>
      <trkpt lat="45.5156" lon="2.94079">
        <ele>988.037182</ele>
        <time>2021-04-29T16:33:23.340Z</time>
      </trkpt>
      <trkpt lat="45.5157" lon="2.94091">
        <ele>987.080312</ele>
        <time>2021-04-29T16:33:25.094Z</time>
      </trkpt>
      <trkpt lat="45.51581" lon="2.9411">
        <ele>985.795817</ele>
        <time>2021-04-29T16:33:27.535Z</time>
      </trkpt>
      <trkpt lat="45.51596" lon="2.9413">
        <ele>984.283496</ele>
        <time>2021-04-29T16:33:30.347Z</time>
      </trkpt>
      <trkpt lat="45.51615" lon="2.94157">
        <ele>982.258203</ele>
        <time>2021-04-29T16:33:34.227Z</time>
      </trkpt>
      <trkpt lat="45.51634" lon="2.94189">
        <ele>980.034943</ele>
        <time>2021-04-29T16:33:38.408Z</time>
      </trkpt>
      <trkpt lat="45.51653" lon="2.94225">
        <ele>977.698827</ele>
        <time>2021-04-29T16:33:42.836Z</time>
      </trkpt>
      <trkpt lat="45.51693" lon="2.94276">
        <ele>973.676359</ele>
        <time>2021-04-29T16:33:50.577Z</time>
      </trkpt>
      <trkpt lat="45.51722" lon="2.94313">
        <ele>970.786685</ele>
        <time>2021-04-29T16:33:56.211Z</time>
      </trkpt>
      <trkpt lat="45.51724" lon="2.94315">
        <ele>970.651746</ele>
        <time>2021-04-29T16:33:56.440Z</time>
      </trkpt>
      <trkpt lat="45.51728" lon="2.9432">
        <ele>970.1979</ele>
        <time>2021-04-29T16:33:57.331Z</time>
      </trkpt>
      <trkpt lat="45.51739" lon="2.94335">
        <ele>969.069296</ele>
        <time>2021-04-29T16:33:59.554Z</time>
      </trkpt>
      <trkpt lat="45.51759" lon="2.94357">
        <ele>967.195355</ele>
        <time>2021-04-29T16:34:03.035Z</time>
      </trkpt>
      <trkpt lat="45.51764" lon="2.94362">
        <ele>966.786001</ele>
        <time>2021-04-29T16:34:03.803Z</time>
      </trkpt>
      <trkpt lat="45.51775" lon="2.94373">
        <ele>965.742861</ele>
        <time>2021-04-29T16:34:05.822Z</time>
      </trkpt>
      <trkpt lat="45.51793" lon="2.94389">
        <ele>964.052502</ele>
        <time>2021-04-29T16:34:08.747Z</time>
      </trkpt>
      <trkpt lat="45.51803" lon="2.94394">
        <ele>963.186596</ele>
        <time>2021-04-29T16:34:10.283Z</time>
      </trkpt>
      <trkpt lat="45.51816" lon="2.944">
        <ele>962.105648</ele>
        <time>2021-04-29T16:34:12.088Z</time>
      </trkpt>
      <trkpt lat="45.51843" lon="2.94405">
        <ele>959.86345</ele>
        <time>2021-04-29T16:34:16.017Z</time>
      </trkpt>
      <trkpt lat="45.51879" lon="2.94399">
        <ele>956.947852</ele>
        <time>2021-04-29T16:34:20.989Z</time>
      </trkpt>
      <trkpt lat="45.51899" lon="2.9439">
        <ele>955.219557</ele>
        <time>2021-04-29T16:34:23.923Z</time>
      </trkpt>
      <trkpt lat="45.51951" lon="2.94352">
        <ele>950.465678</ele>
        <time>2021-04-29T16:34:32.123Z</time>
      </trkpt>
      <trkpt lat="45.51978" lon="2.94342">
        <ele>948.704179</ele>
        <time>2021-04-29T16:34:35.980Z</time>
      </trkpt>
      <trkpt lat="45.52009" lon="2.94343">
        <ele>946.724097</ele>
        <time>2021-04-29T16:34:40.294Z</time>
      </trkpt>
      <trkpt lat="45.5206" lon="2.94363">
        <ele>943.280483</ele>
        <time>2021-04-29T16:34:48.082Z</time>
      </trkpt>
      <trkpt lat="45.52077" lon="2.94378">
        <ele>942.032317</ele>
        <time>2021-04-29T16:34:51.001Z</time>
      </trkpt>
      <trkpt lat="45.52095" lon="2.94399">
        <ele>940.526224</ele>
        <time>2021-04-29T16:34:54.550Z</time>
      </trkpt>
      <trkpt lat="45.52124" lon="2.94444">
        <ele>938.146719</ele>
        <time>2021-04-29T16:35:01.160Z</time>
      </trkpt>
      <trkpt lat="45.52144" lon="2.94473">
        <ele>936.922911</ele>
        <time>2021-04-29T16:35:05.442Z</time>
      </trkpt>
      <trkpt lat="45.52238" lon="2.94612">
        <ele>930.965049</ele>
        <time>2021-04-29T16:35:26.620Z</time>
      </trkpt>
      <trkpt lat="45.5226" lon="2.94651">
        <ele>929.240522</ele>
        <time>2021-04-29T16:35:32.035Z</time>
      </trkpt>
      <trkpt lat="45.52291" lon="2.94767">
        <ele>924.938536</ele>
        <time>2021-04-29T16:35:45.375Z</time>
      </trkpt>
      <trkpt lat="45.52345" lon="2.94881">
        <ele>919.379017</ele>
        <time>2021-04-29T16:35:59.587Z</time>
      </trkpt>
      <trkpt lat="45.5236" lon="2.94906">
        <ele>917.787404</ele>
        <time>2021-04-29T16:36:02.951Z</time>
      </trkpt>
      <trkpt lat="45.52391" lon="2.9494">
        <ele>915.109357</ele>
        <time>2021-04-29T16:36:08.586Z</time>
      </trkpt>
      <trkpt lat="45.5241" lon="2.94977">
        <ele>912.888579</ele>
        <time>2021-04-29T16:36:13.280Z</time>
      </trkpt>
      <trkpt lat="45.52413" lon="2.94992">
        <ele>912.124155</ele>
        <time>2021-04-29T16:36:14.883Z</time>
      </trkpt>
      <trkpt lat="45.52413" lon="2.95001">
        <ele>911.693591</ele>
        <time>2021-04-29T16:36:15.800Z</time>
      </trkpt>
      <trkpt lat="45.52413" lon="2.95017">
        <ele>910.947179</ele>
        <time>2021-04-29T16:36:17.284Z</time>
      </trkpt>
      <trkpt lat="45.52406" lon="2.95064">
        <ele>908.280468</ele>
        <time>2021-04-29T16:36:21.935Z</time>
      </trkpt>
      <trkpt lat="45.52392" lon="2.95101">
        <ele>905.624908</ele>
        <time>2021-04-29T16:36:26.080Z</time>
      </trkpt>
      <trkpt lat="45.52383" lon="2.95155">
        <ele>902.117182</ele>
        <time>2021-04-29T16:36:31.407Z</time>
      </trkpt>
      <trkpt lat="45.52384" lon="2.95191">
        <ele>899.893493</ele>
        <time>2021-04-29T16:36:34.814Z</time>
      </trkpt>
      <trkpt lat="45.52388" lon="2.95226">
        <ele>897.66676</ele>
        <time>2021-04-29T16:36:38.211Z</time>
      </trkpt>
      <trkpt lat="45.52394" lon="2.95263">
        <ele>895.255581</ele>
        <time>2021-04-29T16:36:41.949Z</time>
      </trkpt>
      <trkpt lat="45.52402" lon="2.953">
        <ele>892.919115</ele>
        <time>2021-04-29T16:36:45.810Z</time>
      </trkpt>
      <trkpt lat="45.52419" lon="2.95341">
        <ele>890.312486</ele>
        <time>2021-04-29T16:36:50.397Z</time>
      </trkpt>
      <trkpt lat="45.52427" lon="2.95355">
        <ele>889.304299</ele>
        <time>2021-04-29T16:36:52.121Z</time>
      </trkpt>
      <trkpt lat="45.5245" lon="2.95411">
        <ele>885.685955</ele>
        <time>2021-04-29T16:36:58.475Z</time>
      </trkpt>
      <trkpt lat="45.52457" lon="2.95481">
        <ele>881.73619</ele>
        <time>2021-04-29T16:37:05.574Z</time>
      </trkpt>
      <trkpt lat="45.52457" lon="2.95526">
        <ele>879.250246</ele>
        <time>2021-04-29T16:37:10.066Z</time>
      </trkpt>
      <trkpt lat="45.52446" lon="2.95566">
        <ele>876.962343</ele>
        <time>2021-04-29T16:37:14.401Z</time>
      </trkpt>
      <trkpt lat="45.52389" lon="2.95673">
        <ele>869.819093</ele>
        <time>2021-04-29T16:37:27.827Z</time>
      </trkpt>
      <trkpt lat="45.52373" lon="2.95716">
        <ele>867.204861</ele>
        <time>2021-04-29T16:37:32.555Z</time>
      </trkpt>
      <trkpt lat="45.5236" lon="2.95762">
        <ele>864.505488</ele>
        <time>2021-04-29T16:37:37.336Z</time>
      </trkpt>
      <trkpt lat="45.52339" lon="2.95896">
        <ele>856.866964</ele>
        <time>2021-04-29T16:37:50.850Z</time>
      </trkpt>
      <trkpt lat="45.52337" lon="2.95914">
        <ele>855.875189</ele>
        <time>2021-04-29T16:37:52.574Z</time>
      </trkpt>
      <trkpt lat="45.52336" lon="2.95946">
        <ele>854.086536</ele>
        <time>2021-04-29T16:37:55.877Z</time>
      </trkpt>
      <trkpt lat="45.5234" lon="2.96005">
        <ele>850.969416</ele>
        <time>2021-04-29T16:38:01.836Z</time>
      </trkpt>
      <trkpt lat="45.52335" lon="2.96078">
        <ele>847.963604</ele>
        <time>2021-04-29T16:38:09.296Z</time>
      </trkpt>
      <trkpt lat="45.52338" lon="2.96115">
        <ele>846.481617</ele>
        <time>2021-04-29T16:38:12.996Z</time>
      </trkpt>
      <trkpt lat="45.52348" lon="2.96162">
        <ele>844.433814</ele>
        <time>2021-04-29T16:38:18.313Z</time>
      </trkpt>
      <trkpt lat="45.52366" lon="2.96203">
        <ele>842.477894</ele>
        <time>2021-04-29T16:38:23.512Z</time>
      </trkpt>
      <trkpt lat="45.52372" lon="2.9624">
        <ele>840.952406</ele>
        <time>2021-04-29T16:38:27.519Z</time>
      </trkpt>
      <trkpt lat="45.52373" lon="2.96284">
        <ele>839.154897</ele>
        <time>2021-04-29T16:38:32.214Z</time>
      </trkpt>
      <trkpt lat="45.52368" lon="2.96321">
        <ele>837.635854</ele>
        <time>2021-04-29T16:38:36.130Z</time>
      </trkpt>
      <trkpt lat="45.52341" lon="2.96394">
        <ele>834.292739</ele>
        <time>2021-04-29T16:38:44.464Z</time>
      </trkpt>
      <trkpt lat="45.52338" lon="2.9643">
        <ele>832.856474</ele>
        <time>2021-04-29T16:38:48.210Z</time>
      </trkpt>
      <trkpt lat="45.52354" lon="2.96535">
        <ele>828.665884</ele>
        <time>2021-04-29T16:38:59.464Z</time>
      </trkpt>
      <trkpt lat="45.52357" lon="2.96548">
        <ele>828.18606</ele>
        <time>2021-04-29T16:39:00.729Z</time>
      </trkpt>
      <trkpt lat="45.52365" lon="2.96567">
        <ele>827.336144</ele>
        <time>2021-04-29T16:39:03.256Z</time>
      </trkpt>
      <trkpt lat="45.52377" lon="2.96582">
        <ele>826.520869</ele>
        <time>2021-04-29T16:39:05.537Z</time>
      </trkpt>
      <trkpt lat="45.52395" lon="2.96604">
        <ele>825.235837</ele>
        <time>2021-04-29T16:39:09.267Z</time>
      </trkpt>
      <trkpt lat="45.52411" lon="2.96626">
        <ele>824.087125</ele>
        <time>2021-04-29T16:39:12.479Z</time>
      </trkpt>
      <trkpt lat="45.5242" lon="2.96671">
        <ele>822.37823</ele>
        <time>2021-04-29T16:39:17.357Z</time>
      </trkpt>
      <trkpt lat="45.52421" lon="2.96834">
        <ele>817.387751</ele>
        <time>2021-04-29T16:39:34.976Z</time>
      </trkpt>
      <trkpt lat="45.52441" lon="2.96886">
        <ele>815.699459</ele>
        <time>2021-04-29T16:39:41.494Z</time>
      </trkpt>
      <trkpt lat="45.52457" lon="2.96914">
        <ele>814.649601</ele>
        <time>2021-04-29T16:39:45.491Z</time>
      </trkpt>
      <trkpt lat="45.52475" lon="2.96944">
        <ele>813.561725</ele>
        <time>2021-04-29T16:39:49.981Z</time>
      </trkpt>
      <trkpt lat="45.52528" lon="2.97015">
        <ele>811.208906</ele>
        <time>2021-04-29T16:40:01.922Z</time>
      </trkpt>
      <trkpt lat="45.52596" lon="2.97065">
        <ele>808.781828</ele>
        <time>2021-04-29T16:40:14.631Z</time>
      </trkpt>
      <trkpt lat="45.52769" lon="2.97225">
        <ele>800.790249</ele>
        <time>2021-04-29T16:40:47.160Z</time>
      </trkpt>
      <trkpt lat="45.52806" lon="2.97249">
        <ele>798.87378</ele>
        <time>2021-04-29T16:40:53.268Z</time>
      </trkpt>
      <trkpt lat="45.52923" lon="2.97368">
        <ele>792.192202</ele>
        <time>2021-04-29T16:41:15.065Z</time>
      </trkpt>
      <trkpt lat="45.52975" lon="2.97387">
        <ele>790.648257</ele>
        <time>2021-04-29T16:41:23.575Z</time>
      </trkpt>
      <trkpt lat="45.5302" lon="2.97391">
        <ele>789.318925</ele>
        <time>2021-04-29T16:41:31.175Z</time>
      </trkpt>
      <trkpt lat="45.53105" lon="2.97416">
        <ele>786.830536</ele>
        <time>2021-04-29T16:41:46.195Z</time>
      </trkpt>
      <trkpt lat="45.53166" lon="2.97414">
        <ele>785.121156</ele>
        <time>2021-04-29T16:41:57.482Z</time>
      </trkpt>
      <trkpt lat="45.53228" lon="2.97405">
        <ele>783.367858</ele>
        <time>2021-04-29T16:42:08.017Z</time>
      </trkpt>
      <trkpt lat="45.53314" lon="2.97375">
        <ele>779.864993</ele>
        <time>2021-04-29T16:42:21.700Z</time>
      </trkpt>
      <trkpt lat="45.53322" lon="2.97373">
        <ele>779.463689</ele>
        <time>2021-04-29T16:42:22.922Z</time>
      </trkpt>
      <trkpt lat="45.53366" lon="2.97363">
        <ele>777.147364</ele>
        <time>2021-04-29T16:42:29.630Z</time>
      </trkpt>
      <trkpt lat="45.53394" lon="2.97363">
        <ele>775.750056</ele>
        <time>2021-04-29T16:42:33.797Z</time>
      </trkpt>
      <trkpt lat="45.53409" lon="2.97368">
        <ele>774.952525</ele>
        <time>2021-04-29T16:42:36.018Z</time>
      </trkpt>
      <trkpt lat="45.53414" lon="2.9737">
        <ele>774.664698</ele>
        <time>2021-04-29T16:42:36.880Z</time>
      </trkpt>
      <trkpt lat="45.53426" lon="2.97377">
        <ele>773.993327</ele>
        <time>2021-04-29T16:42:38.881Z</time>
      </trkpt>
      <trkpt lat="45.53463" lon="2.97414">
        <ele>771.682992</ele>
        <time>2021-04-29T16:42:45.397Z</time>
      </trkpt>
      <trkpt lat="45.53476" lon="2.97438">
        <ele>770.578648</ele>
        <time>2021-04-29T16:42:48.524Z</time>
      </trkpt>
      <trkpt lat="45.5351" lon="2.97511">
        <ele>767.429609</ele>
        <time>2021-04-29T16:42:57.552Z</time>
      </trkpt>
      <trkpt lat="45.53553" lon="2.97599">
        <ele>763.574753</ele>
        <time>2021-04-29T16:43:09.367Z</time>
      </trkpt>
      <trkpt lat="45.53576" lon="2.97662">
        <ele>762.130347</ele>
        <time>2021-04-29T16:43:17.269Z</time>
      </trkpt>
      <trkpt lat="45.536" lon="2.97721">
        <ele>760.767758</ele>
        <time>2021-04-29T16:43:24.954Z</time>
      </trkpt>
      <trkpt lat="45.53622" lon="2.97755">
        <ele>759.834652</ele>
        <time>2021-04-29T16:43:30.383Z</time>
      </trkpt>
      <trkpt lat="45.53739" lon="2.97832">
        <ele>757.39315</ele>
        <time>2021-04-29T16:43:54.424Z</time>
      </trkpt>
      <trkpt lat="45.53753" lon="2.97852">
        <ele>757.13073</ele>
        <time>2021-04-29T16:43:58.543Z</time>
      </trkpt>
      <trkpt lat="45.53791" lon="2.97948">
        <ele>756.142667</ele>
        <time>2021-04-29T16:44:13.304Z</time>
      </trkpt>
      <trkpt lat="45.53815" lon="2.97979">
        <ele>755.212234</ele>
        <time>2021-04-29T16:44:19.208Z</time>
      </trkpt>
      <trkpt lat="45.53877" lon="2.98017">
        <ele>753.182645</ele>
        <time>2021-04-29T16:44:30.473Z</time>
      </trkpt>
      <trkpt lat="45.53922" lon="2.98072">
        <ele>751.386407</ele>
        <time>2021-04-29T16:44:39.860Z</time>
      </trkpt>
      <trkpt lat="45.53941" lon="2.98088">
        <ele>750.716542</ele>
        <time>2021-04-29T16:44:43.279Z</time>
      </trkpt>
      <trkpt lat="45.54038" lon="2.98118">
        <ele>746.522654</ele>
        <time>2021-04-29T16:44:58.543Z</time>
      </trkpt>
      <trkpt lat="45.54083" lon="2.98146">
        <ele>744.465849</ele>
        <time>2021-04-29T16:45:06.055Z</time>
      </trkpt>
      <trkpt lat="45.54103" lon="2.98172">
        <ele>743.304597</ele>
        <time>2021-04-29T16:45:10.379Z</time>
      </trkpt>
      <trkpt lat="45.54173" lon="2.98307">
        <ele>739.25569</ele>
        <time>2021-04-29T16:45:29.459Z</time>
      </trkpt>
      <trkpt lat="45.542" lon="2.98336">
        <ele>738.083568</ele>
        <time>2021-04-29T16:45:35.239Z</time>
      </trkpt>
      <trkpt lat="45.54335" lon="2.98437">
        <ele>731.681601</ele>
        <time>2021-04-29T16:45:59.183Z</time>
      </trkpt>
      <trkpt lat="45.54359" lon="2.98467">
        <ele>730.28778</ele>
        <time>2021-04-29T16:46:03.877Z</time>
      </trkpt>
      <trkpt lat="45.54381" lon="2.98512">
        <ele>728.445381</ele>
        <time>2021-04-29T16:46:09.717Z</time>
      </trkpt>
      <trkpt lat="45.54431" lon="2.98562">
        <ele>724.729364</ele>
        <time>2021-04-29T16:46:18.774Z</time>
      </trkpt>
      <trkpt lat="45.54437" lon="2.98573">
        <ele>724.148593</ele>
        <time>2021-04-29T16:46:20.201Z</time>
      </trkpt>
      <trkpt lat="45.54445" lon="2.9859">
        <ele>723.235463</ele>
        <time>2021-04-29T16:46:22.362Z</time>
      </trkpt>
      <trkpt lat="45.54454" lon="2.98649">
        <ele>720.642513</ele>
        <time>2021-04-29T16:46:28.505Z</time>
      </trkpt>
      <trkpt lat="45.54468" lon="2.98693">
        <ele>718.594636</ele>
        <time>2021-04-29T16:46:33.410Z</time>
      </trkpt>
      <trkpt lat="45.5449" lon="2.98728">
        <ele>716.416678</ele>
        <time>2021-04-29T16:46:38.201Z</time>
      </trkpt>
      <trkpt lat="45.54522" lon="2.98775">
        <ele>713.335497</ele>
        <time>2021-04-29T16:46:44.809Z</time>
      </trkpt>
      <trkpt lat="45.54532" lon="2.98784">
        <ele>712.5549</ele>
        <time>2021-04-29T16:46:46.439Z</time>
      </trkpt>
      <trkpt lat="45.54537" lon="2.98788">
        <ele>712.135793</ele>
        <time>2021-04-29T16:46:47.310Z</time>
      </trkpt>
      <trkpt lat="45.54592" lon="2.98819">
        <ele>708.182419</ele>
        <time>2021-04-29T16:46:55.823Z</time>
      </trkpt>
      <trkpt lat="45.54599" lon="2.98824">
        <ele>707.61912</ele>
        <time>2021-04-29T16:46:56.971Z</time>
      </trkpt>
      <trkpt lat="45.54625" lon="2.98842">
        <ele>705.661817</ele>
        <time>2021-04-29T16:47:01.175Z</time>
      </trkpt>
      <trkpt lat="45.54648" lon="2.98869">
        <ele>703.92759</ele>
        <time>2021-04-29T16:47:05.329Z</time>
      </trkpt>
      <trkpt lat="45.54664" lon="2.98899">
        <ele>702.33096</ele>
        <time>2021-04-29T16:47:09.119Z</time>
      </trkpt>
      <trkpt lat="45.54675" lon="2.98935">
        <ele>700.681637</ele>
        <time>2021-04-29T16:47:13.225Z</time>
      </trkpt>
      <trkpt lat="45.54683" lon="2.99011">
        <ele>697.45077</ele>
        <time>2021-04-29T16:47:21.064Z</time>
      </trkpt>
      <trkpt lat="45.54678" lon="2.99157">
        <ele>693.043563</ele>
        <time>2021-04-29T16:47:36.757Z</time>
      </trkpt>
      <trkpt lat="45.54679" lon="2.99178">
        <ele>692.578073</ele>
        <time>2021-04-29T16:47:39.023Z</time>
      </trkpt>
      <trkpt lat="45.54679" lon="2.9922">
        <ele>691.629497</ele>
        <time>2021-04-29T16:47:44.056Z</time>
      </trkpt>
      <trkpt lat="45.54685" lon="2.99294">
        <ele>689.972805</ele>
        <time>2021-04-29T16:47:53.121Z</time>
      </trkpt>
      <trkpt lat="45.54693" lon="2.99384">
        <ele>688.821989</ele>
        <time>2021-04-29T16:48:04.592Z</time>
      </trkpt>
      <trkpt lat="45.54685" lon="2.99473">
        <ele>688.155173</ele>
        <time>2021-04-29T16:48:18.038Z</time>
      </trkpt>
      <trkpt lat="45.54643" lon="2.99697">
        <ele>685.752863</ele>
        <time>2021-04-29T16:48:48.943Z</time>
      </trkpt>
      <trkpt lat="45.54634" lon="2.99724">
        <ele>685.358434</ele>
        <time>2021-04-29T16:48:52.632Z</time>
      </trkpt>
      <trkpt lat="45.54586" lon="2.99797">
        <ele>684.046599</ele>
        <time>2021-04-29T16:49:04.503Z</time>
      </trkpt>
      <trkpt lat="45.54575" lon="2.99818">
        <ele>683.618321</ele>
        <time>2021-04-29T16:49:07.516Z</time>
      </trkpt>
      <trkpt lat="45.54534" lon="2.99918">
        <ele>681.621141</ele>
        <time>2021-04-29T16:49:21.083Z</time>
      </trkpt>
      <trkpt lat="45.54515" lon="2.99958">
        <ele>680.782997</ele>
        <time>2021-04-29T16:49:26.963Z</time>
      </trkpt>
      <trkpt lat="45.54513" lon="2.9996">
        <ele>680.733674</ele>
        <time>2021-04-29T16:49:27.233Z</time>
      </trkpt>
      <trkpt lat="45.54448" lon="3.00067">
        <ele>679.104581</ele>
        <time>2021-04-29T16:49:45.097Z</time>
      </trkpt>
      <trkpt lat="45.5443" lon="3.00088">
        <ele>678.886102</ele>
        <time>2021-04-29T16:49:49.580Z</time>
      </trkpt>
      <trkpt lat="45.54405" lon="3.00116">
        <ele>678.598101</ele>
        <time>2021-04-29T16:49:55.705Z</time>
      </trkpt>
      <trkpt lat="45.54388" lon="3.00151">
        <ele>678.317504</ele>
        <time>2021-04-29T16:50:02.061Z</time>
      </trkpt>
      <trkpt lat="45.54381" lon="3.00175">
        <ele>678.154782</ele>
        <time>2021-04-29T16:50:05.777Z</time>
      </trkpt>
      <trkpt lat="45.54369" lon="3.00223">
        <ele>678.031944</ele>
        <time>2021-04-29T16:50:13.521Z</time>
      </trkpt>
      <trkpt lat="45.54366" lon="3.00234">
        <ele>678.106447</ele>
        <time>2021-04-29T16:50:15.386Z</time>
      </trkpt>
      <trkpt lat="45.54358" lon="3.00261">
        <ele>678.297784</ele>
        <time>2021-04-29T16:50:20.141Z</time>
      </trkpt>
      <trkpt lat="45.54308" lon="3.00335">
        <ele>678.955022</ele>
        <time>2021-04-29T16:50:38.651Z</time>
      </trkpt>
      <trkpt lat="45.54275" lon="3.00383">
        <ele>679.381582</ele>
        <time>2021-04-29T16:50:51.900Z</time>
      </trkpt>
      <trkpt lat="45.54239" lon="3.00432">
        <ele>680.15376</ele>
        <time>2021-04-29T16:51:06.222Z</time>
      </trkpt>
      <trkpt lat="45.54213" lon="3.00476">
        <ele>680.978142</ele>
        <time>2021-04-29T16:51:18.522Z</time>
      </trkpt>
      <trkpt lat="45.54201" lon="3.00516">
        <ele>681.587548</ele>
        <time>2021-04-29T16:51:27.855Z</time>
      </trkpt>
      <trkpt lat="45.54184" lon="3.00628">
        <ele>683.211755</ele>
        <time>2021-04-29T16:51:53.095Z</time>
      </trkpt>
      <trkpt lat="45.54166" lon="3.00677">
        <ele>683.783009</ele>
        <time>2021-04-29T16:52:05.088Z</time>
      </trkpt>
      <trkpt lat="45.54145" lon="3.00711">
        <ele>684.249014</ele>
        <time>2021-04-29T16:52:14.666Z</time>
      </trkpt>
      <trkpt lat="45.54021" lon="3.00842">
        <ele>685.517779</ele>
        <time>2021-04-29T16:52:56.011Z</time>
      </trkpt>
      <trkpt lat="45.54004" lon="3.00897">
        <ele>685.203432</ele>
        <time>2021-04-29T16:53:04.283Z</time>
      </trkpt>
      <trkpt lat="45.53985" lon="3.00953">
        <ele>684.877037</ele>
        <time>2021-04-29T16:53:12.525Z</time>
      </trkpt>
      <trkpt lat="45.53962" lon="3.00993">
        <ele>684.607926</ele>
        <time>2021-04-29T16:53:18.780Z</time>
      </trkpt>
      <trkpt lat="45.53952" lon="3.0101">
        <ele>684.48079</ele>
        <time>2021-04-29T16:53:21.276Z</time>
      </trkpt>
      <trkpt lat="45.53934" lon="3.01065">
        <ele>683.963387</ele>
        <time>2021-04-29T16:53:29.275Z</time>
      </trkpt>
      <trkpt lat="45.53931" lon="3.01111">
        <ele>683.577344</ele>
        <time>2021-04-29T16:53:35.106Z</time>
      </trkpt>
      <trkpt lat="45.53942" lon="3.01166">
        <ele>683.102892</ele>
        <time>2021-04-29T16:53:42.318Z</time>
      </trkpt>
      <trkpt lat="45.53949" lon="3.01191">
        <ele>682.874795</ele>
        <time>2021-04-29T16:53:45.740Z</time>
      </trkpt>
      <trkpt lat="45.53965" lon="3.01229">
        <ele>682.504548</ele>
        <time>2021-04-29T16:53:52.192Z</time>
      </trkpt>
      <trkpt lat="45.53971" lon="3.01259">
        <ele>682.49363</ele>
        <time>2021-04-29T16:53:57.583Z</time>
      </trkpt>
      <trkpt lat="45.53969" lon="3.01287">
        <ele>682.768935</ele>
        <time>2021-04-29T16:54:02.185Z</time>
      </trkpt>
      <trkpt lat="45.53942" lon="3.01365">
        <ele>683.619487</ele>
        <time>2021-04-29T16:54:19.082Z</time>
      </trkpt>
      <trkpt lat="45.53939" lon="3.01393">
        <ele>683.895337</ele>
        <time>2021-04-29T16:54:24.981Z</time>
      </trkpt>
      <trkpt lat="45.5395" lon="3.01523">
        <ele>685.271694</ele>
        <time>2021-04-29T16:54:53.362Z</time>
      </trkpt>
      <trkpt lat="45.53947" lon="3.01652">
        <ele>686.915819</ele>
        <time>2021-04-29T16:55:19.974Z</time>
      </trkpt>
      <trkpt lat="45.53953" lon="3.01676">
        <ele>687.240593</ele>
        <time>2021-04-29T16:55:25.178Z</time>
      </trkpt>
      <trkpt lat="45.53977" lon="3.01729">
        <ele>688.050996</ele>
        <time>2021-04-29T16:55:38.249Z</time>
      </trkpt>
      <trkpt lat="45.53983" lon="3.01755">
        <ele>688.381372</ele>
        <time>2021-04-29T16:55:43.872Z</time>
      </trkpt>
      <trkpt lat="45.53962" lon="3.01857">
        <ele>689.62943</ele>
        <time>2021-04-29T16:56:05.156Z</time>
      </trkpt>
      <trkpt lat="45.53956" lon="3.01904">
        <ele>690.186919</ele>
        <time>2021-04-29T16:56:14.495Z</time>
      </trkpt>
      <trkpt lat="45.53958" lon="3.01952">
        <ele>690.759163</ele>
        <time>2021-04-29T16:56:24.342Z</time>
      </trkpt>
      <trkpt lat="45.53984" lon="3.02081">
        <ele>692.759006</ele>
        <time>2021-04-29T16:56:52.887Z</time>
      </trkpt>
      <trkpt lat="45.54032" lon="3.02213">
        <ele>695.155591</ele>
        <time>2021-04-29T16:57:26.562Z</time>
      </trkpt>
      <trkpt lat="45.54095" lon="3.02357">
        <ele>697.887191</ele>
        <time>2021-04-29T16:58:04.622Z</time>
      </trkpt>
      <trkpt lat="45.54098" lon="3.02379">
        <ele>698.245476</ele>
        <time>2021-04-29T16:58:09.777Z</time>
      </trkpt>
      <trkpt lat="45.54109" lon="3.02466">
        <ele>699.591923</ele>
        <time>2021-04-29T16:58:28.674Z</time>
      </trkpt>
      <trkpt lat="45.54113" lon="3.02494">
        <ele>699.929488</ele>
        <time>2021-04-29T16:58:34.883Z</time>
      </trkpt>
      <trkpt lat="45.54126" lon="3.02557">
        <ele>700.691375</ele>
        <time>2021-04-29T16:58:48.284Z</time>
      </trkpt>
      <trkpt lat="45.54148" lon="3.02614">
        <ele>701.439071</ele>
        <time>2021-04-29T16:59:01.328Z</time>
      </trkpt>
      <trkpt lat="45.54173" lon="3.02656">
        <ele>702.084419</ele>
        <time>2021-04-29T16:59:12.204Z</time>
      </trkpt>
      <trkpt lat="45.54221" lon="3.02709">
        <ele>702.571788</ele>
        <time>2021-04-29T16:59:28.649Z</time>
      </trkpt>
      <trkpt lat="45.54272" lon="3.0274">
        <ele>702.793594</ele>
        <time>2021-04-29T16:59:42.831Z</time>
      </trkpt>
      <trkpt lat="45.54282" lon="3.02743">
        <ele>702.833455</ele>
        <time>2021-04-29T16:59:45.162Z</time>
      </trkpt>
      <trkpt lat="45.54307" lon="3.0275">
        <ele>702.933553</ele>
        <time>2021-04-29T16:59:50.951Z</time>
      </trkpt>
      <trkpt lat="45.54347" lon="3.02752">
        <ele>703.093605</ele>
        <time>2021-04-29T16:59:59.479Z</time>
      </trkpt>
      <trkpt lat="45.54421" lon="3.02736">
        <ele>702.026819</ele>
        <time>2021-04-29T17:00:13.832Z</time>
      </trkpt>
      <trkpt lat="45.54463" lon="3.02733">
        <ele>701.341487</ele>
        <time>2021-04-29T17:00:21.384Z</time>
      </trkpt>
      <trkpt lat="45.54507" lon="3.02739">
        <ele>700.626206</ele>
        <time>2021-04-29T17:00:29.061Z</time>
      </trkpt>
      <trkpt lat="45.54702" lon="3.02814">
        <ele>696.084521</ele>
        <time>2021-04-29T17:01:03.318Z</time>
      </trkpt>
      <trkpt lat="45.54801" lon="3.02821">
        <ele>694.795399</ele>
        <time>2021-04-29T17:01:21.263Z</time>
      </trkpt>
      <trkpt lat="45.54869" lon="3.02836">
        <ele>693.939287</ele>
        <time>2021-04-29T17:01:35.443Z</time>
      </trkpt>
      <trkpt lat="45.549" lon="3.02849">
        <ele>693.463002</ele>
        <time>2021-04-29T17:01:42.152Z</time>
      </trkpt>
      <trkpt lat="45.54948" lon="3.02881">
        <ele>692.559553</ele>
        <time>2021-04-29T17:01:52.590Z</time>
      </trkpt>
      <trkpt lat="45.55003" lon="3.02927">
        <ele>691.47616</ele>
        <time>2021-04-29T17:02:03.956Z</time>
      </trkpt>
      <trkpt lat="45.55059" lon="3.02974">
        <ele>689.966529</ele>
        <time>2021-04-29T17:02:14.906Z</time>
      </trkpt>
      <trkpt lat="45.5509" lon="3.03003">
        <ele>688.515424</ele>
        <time>2021-04-29T17:02:20.813Z</time>
      </trkpt>
      <trkpt lat="45.55125" lon="3.03042">
        <ele>686.782214</ele>
        <time>2021-04-29T17:02:27.618Z</time>
      </trkpt>
      <trkpt lat="45.55248" lon="3.03224">
        <ele>680.046654</ele>
        <time>2021-04-29T17:02:55.026Z</time>
      </trkpt>
      <trkpt lat="45.55373" lon="3.03378">
        <ele>675.51268</ele>
        <time>2021-04-29T17:03:22.539Z</time>
      </trkpt>
      <trkpt lat="45.55402" lon="3.0342">
        <ele>674.765781</ele>
        <time>2021-04-29T17:03:30.191Z</time>
      </trkpt>
      <trkpt lat="45.55421" lon="3.03456">
        <ele>674.20395</ele>
        <time>2021-04-29T17:03:36.176Z</time>
      </trkpt>
      <trkpt lat="45.55448" lon="3.03546">
        <ele>673.775889</ele>
        <time>2021-04-29T17:03:50.393Z</time>
      </trkpt>
      <trkpt lat="45.55454" lon="3.03605">
        <ele>673.802783</ele>
        <time>2021-04-29T17:03:59.708Z</time>
      </trkpt>
      <trkpt lat="45.55452" lon="3.03784">
        <ele>673.762306</ele>
        <time>2021-04-29T17:04:30.524Z</time>
      </trkpt>
      <trkpt lat="45.55458" lon="3.0383">
        <ele>673.655851</ele>
        <time>2021-04-29T17:04:37.686Z</time>
      </trkpt>
      <trkpt lat="45.55483" lon="3.03917">
        <ele>673.439304</ele>
        <time>2021-04-29T17:04:51.457Z</time>
      </trkpt>
      <trkpt lat="45.55491" lon="3.03934">
        <ele>673.392156</ele>
        <time>2021-04-29T17:04:54.195Z</time>
      </trkpt>
      <trkpt lat="45.5552" lon="3.03985">
        <ele>673.160826</ele>
        <time>2021-04-29T17:05:03.117Z</time>
      </trkpt>
      <trkpt lat="45.55559" lon="3.04079">
        <ele>672.288799</ele>
        <time>2021-04-29T17:05:17.752Z</time>
      </trkpt>
      <trkpt lat="45.55567" lon="3.04112">
        <ele>672.013555</ele>
        <time>2021-04-29T17:05:22.277Z</time>
      </trkpt>
      <trkpt lat="45.55567" lon="3.04112">
        <ele>672.013555</ele>
        <time>2021-04-29T17:05:22.282Z</time>
      </trkpt>
      <trkpt lat="45.55574" lon="3.04146">
        <ele>671.730669</ele>
        <time>2021-04-29T17:05:26.991Z</time>
      </trkpt>
      <trkpt lat="45.55595" lon="3.04302">
        <ele>670.034959</ele>
        <time>2021-04-29T17:05:48.289Z</time>
      </trkpt>
      <trkpt lat="45.55599" lon="3.04319">
        <ele>669.816407</ele>
        <time>2021-04-29T17:05:50.568Z</time>
      </trkpt>
      <trkpt lat="45.55606" lon="3.04349">
        <ele>669.414189</ele>
        <time>2021-04-29T17:05:54.711Z</time>
      </trkpt>
      <trkpt lat="45.55621" lon="3.04397">
        <ele>668.763507</ele>
        <time>2021-04-29T17:06:01.243Z</time>
      </trkpt>
      <trkpt lat="45.5566" lon="3.04487">
        <ele>666.681119</ele>
        <time>2021-04-29T17:06:13.729Z</time>
      </trkpt>
      <trkpt lat="45.55744" lon="3.04618">
        <ele>661.539184</ele>
        <time>2021-04-29T17:06:33.063Z</time>
      </trkpt>
      <trkpt lat="45.55862" lon="3.04789">
        <ele>653.370885</ele>
        <time>2021-04-29T17:06:58.207Z</time>
      </trkpt>
      <trkpt lat="45.55936" lon="3.04901">
        <ele>648.834059</ele>
        <time>2021-04-29T17:07:14.973Z</time>
      </trkpt>
      <trkpt lat="45.56068" lon="3.05092">
        <ele>642.532265</ele>
        <time>2021-04-29T17:07:45.286Z</time>
      </trkpt>
      <trkpt lat="45.56122" lon="3.05171">
        <ele>640.365475</ele>
        <time>2021-04-29T17:07:58.436Z</time>
      </trkpt>
      <trkpt lat="45.56145" lon="3.05205">
        <ele>639.641703</ele>
        <time>2021-04-29T17:08:04.207Z</time>
      </trkpt>
      <trkpt lat="45.56155" lon="3.05223">
        <ele>639.443561</ele>
        <time>2021-04-29T17:08:07.102Z</time>
      </trkpt>
      <trkpt lat="45.56179" lon="3.05275">
        <ele>638.913374</ele>
        <time>2021-04-29T17:08:15.201Z</time>
      </trkpt>
      <trkpt lat="45.56195" lon="3.05371">
        <ele>638.072593</ele>
        <time>2021-04-29T17:08:29.357Z</time>
      </trkpt>
      <trkpt lat="45.56191" lon="3.0542">
        <ele>637.647348</ele>
        <time>2021-04-29T17:08:36.159Z</time>
      </trkpt>
      <trkpt lat="45.56164" lon="3.05513">
        <ele>635.936026</ele>
        <time>2021-04-29T17:08:49.260Z</time>
      </trkpt>
      <trkpt lat="45.56153" lon="3.05574">
        <ele>634.824971</ele>
        <time>2021-04-29T17:08:56.930Z</time>
      </trkpt>
      <trkpt lat="45.56155" lon="3.05629">
        <ele>633.848943</ele>
        <time>2021-04-29T17:09:03.234Z</time>
      </trkpt>
      <trkpt lat="45.56165" lon="3.05671">
        <ele>633.058371</ele>
        <time>2021-04-29T17:09:08.171Z</time>
      </trkpt>
      <trkpt lat="45.56196" lon="3.0573">
        <ele>630.696932</ele>
        <time>2021-04-29T17:09:15.904Z</time>
      </trkpt>
      <trkpt lat="45.56247" lon="3.0581">
        <ele>627.183427</ele>
        <time>2021-04-29T17:09:27.367Z</time>
      </trkpt>
      <trkpt lat="45.56264" lon="3.05838">
        <ele>625.995175</ele>
        <time>2021-04-29T17:09:31.303Z</time>
      </trkpt>
      <trkpt lat="45.56276" lon="3.05865">
        <ele>624.949012</ele>
        <time>2021-04-29T17:09:34.960Z</time>
      </trkpt>
      <trkpt lat="45.5628" lon="3.05874">
        <ele>624.601459</ele>
        <time>2021-04-29T17:09:36.058Z</time>
      </trkpt>
      <trkpt lat="45.5631" lon="3.05961">
        <ele>621.606896</ele>
        <time>2021-04-29T17:09:46.721Z</time>
      </trkpt>
      <trkpt lat="45.56332" lon="3.06001">
        <ele>620.041189</ele>
        <time>2021-04-29T17:09:52.223Z</time>
      </trkpt>
      <trkpt lat="45.56364" lon="3.06038">
        <ele>618.221238</ele>
        <time>2021-04-29T17:09:58.499Z</time>
      </trkpt>
      <trkpt lat="45.56398" lon="3.06059">
        <ele>616.609046</ele>
        <time>2021-04-29T17:10:04.199Z</time>
      </trkpt>
      <trkpt lat="45.56439" lon="3.06072">
        <ele>614.772677</ele>
        <time>2021-04-29T17:10:10.629Z</time>
      </trkpt>
      <trkpt lat="45.56522" lon="3.06068">
        <ele>611.103312</ele>
        <time>2021-04-29T17:10:23.465Z</time>
      </trkpt>
      <trkpt lat="45.56608" lon="3.06064">
        <ele>607.528725</ele>
        <time>2021-04-29T17:10:36.771Z</time>
      </trkpt>
      <trkpt lat="45.56646" lon="3.06058">
        <ele>606.031338</ele>
        <time>2021-04-29T17:10:42.932Z</time>
      </trkpt>
      <trkpt lat="45.56687" lon="3.06053">
        <ele>604.465622</ele>
        <time>2021-04-29T17:10:49.540Z</time>
      </trkpt>
      <trkpt lat="45.56723" lon="3.06048">
        <ele>603.050483</ele>
        <time>2021-04-29T17:10:55.484Z</time>
      </trkpt>
      <trkpt lat="45.56769" lon="3.06046">
        <ele>600.988922</ele>
        <time>2021-04-29T17:11:02.608Z</time>
      </trkpt>
      <trkpt lat="45.56836" lon="3.06055">
        <ele>597.211213</ele>
        <time>2021-04-29T17:11:12.754Z</time>
      </trkpt>
      <trkpt lat="45.56875" lon="3.06064">
        <ele>595.049259</ele>
        <time>2021-04-29T17:11:18.454Z</time>
      </trkpt>
      <trkpt lat="45.56921" lon="3.06088">
        <ele>592.292075</ele>
        <time>2021-04-29T17:11:25.630Z</time>
      </trkpt>
      <trkpt lat="45.56962" lon="3.06096">
        <ele>589.222281</ele>
        <time>2021-04-29T17:11:31.600Z</time>
      </trkpt>
      <trkpt lat="45.56997" lon="3.06079">
        <ele>586.379612</ele>
        <time>2021-04-29T17:11:36.898Z</time>
      </trkpt>
      <trkpt lat="45.57062" lon="3.06008">
        <ele>580.058289</ele>
        <time>2021-04-29T17:11:48.464Z</time>
      </trkpt>
      <trkpt lat="45.57099" lon="3.05992">
        <ele>577.111373</ele>
        <time>2021-04-29T17:11:53.632Z</time>
      </trkpt>
      <trkpt lat="45.57166" lon="3.05987">
        <ele>571.797538</ele>
        <time>2021-04-29T17:12:02.953Z</time>
      </trkpt>
      <trkpt lat="45.57179" lon="3.05978">
        <ele>570.653909</ele>
        <time>2021-04-29T17:12:05.020Z</time>
      </trkpt>
      <trkpt lat="45.57191" lon="3.05966">
        <ele>569.484411</ele>
        <time>2021-04-29T17:12:07.076Z</time>
      </trkpt>
      <trkpt lat="45.57203" lon="3.05952">
        <ele>568.287953</ele>
        <time>2021-04-29T17:12:09.238Z</time>
      </trkpt>
      <trkpt lat="45.57219" lon="3.05941">
        <ele>566.896136</ele>
        <time>2021-04-29T17:12:11.789Z</time>
      </trkpt>
      <trkpt lat="45.57231" lon="3.0594">
        <ele>565.967373</ele>
        <time>2021-04-29T17:12:13.476Z</time>
      </trkpt>
      <trkpt lat="45.57251" lon="3.05946">
        <ele>564.313846</ele>
        <time>2021-04-29T17:12:16.559Z</time>
      </trkpt>
      <trkpt lat="45.57302" lon="3.05969">
        <ele>562.742297</ele>
        <time>2021-04-29T17:12:24.331Z</time>
      </trkpt>
      <trkpt lat="45.57321" lon="3.0599">
        <ele>562.129596</ele>
        <time>2021-04-29T17:12:28.027Z</time>
      </trkpt>
      <trkpt lat="45.5738" lon="3.06117">
        <ele>559.428295</ele>
        <time>2021-04-29T17:12:49.558Z</time>
      </trkpt>
      <trkpt lat="45.57394" lon="3.06173">
        <ele>559.412365</ele>
        <time>2021-04-29T17:13:00.602Z</time>
      </trkpt>
      <trkpt lat="45.57422" lon="3.06409">
        <ele>558.722186</ele>
        <time>2021-04-29T17:13:38.488Z</time>
      </trkpt>
      <trkpt lat="45.57437" lon="3.06449">
        <ele>557.937645</ele>
        <time>2021-04-29T17:13:44.152Z</time>
      </trkpt>
      <trkpt lat="45.57492" lon="3.06538">
        <ele>555.863993</ele>
        <time>2021-04-29T17:13:57.930Z</time>
      </trkpt>
      <trkpt lat="45.57528" lon="3.06652">
        <ele>552.80607</ele>
        <time>2021-04-29T17:14:11.584Z</time>
      </trkpt>
      <trkpt lat="45.57547" lon="3.0668">
        <ele>551.672248</ele>
        <time>2021-04-29T17:14:15.754Z</time>
      </trkpt>
      <trkpt lat="45.57586" lon="3.06713">
        <ele>549.76469</ele>
        <time>2021-04-29T17:14:22.791Z</time>
      </trkpt>
      <trkpt lat="45.57676" lon="3.06759">
        <ele>546.047793</ele>
        <time>2021-04-29T17:14:37.748Z</time>
      </trkpt>
      <trkpt lat="45.57711" lon="3.06804">
        <ele>544.383831</ele>
        <time>2021-04-29T17:14:45.392Z</time>
      </trkpt>
      <trkpt lat="45.57739" lon="3.06901">
        <ele>541.826292</ele>
        <time>2021-04-29T17:14:57.425Z</time>
      </trkpt>
      <trkpt lat="45.57739" lon="3.07196">
        <ele>534.38411</ele>
        <time>2021-04-29T17:15:30.514Z</time>
      </trkpt>
      <trkpt lat="45.57748" lon="3.07247">
        <ele>533.41763</ele>
        <time>2021-04-29T17:15:36.176Z</time>
      </trkpt>
      <trkpt lat="45.57757" lon="3.07263">
        <ele>533.04109</ele>
        <time>2021-04-29T17:15:38.393Z</time>
      </trkpt>
      <trkpt lat="45.57781" lon="3.07281">
        <ele>532.317621</ele>
        <time>2021-04-29T17:15:42.809Z</time>
      </trkpt>
      <trkpt lat="45.57876" lon="3.07283">
        <ele>529.84218</ele>
        <time>2021-04-29T17:16:00.089Z</time>
      </trkpt>
      <trkpt lat="45.57886" lon="3.07289">
        <ele>529.831568</ele>
        <time>2021-04-29T17:16:01.922Z</time>
      </trkpt>
      <trkpt lat="45.57893" lon="3.07296">
        <ele>529.82702</ele>
        <time>2021-04-29T17:16:03.824Z</time>
      </trkpt>
      <trkpt lat="45.57908" lon="3.07331">
        <ele>529.811442</ele>
        <time>2021-04-29T17:16:09.688Z</time>
      </trkpt>
      <trkpt lat="45.57913" lon="3.07353">
        <ele>529.802754</ele>
        <time>2021-04-29T17:16:14.186Z</time>
      </trkpt>
      <trkpt lat="45.57928" lon="3.07436">
        <ele>529.770904</ele>
        <time>2021-04-29T17:16:27.541Z</time>
      </trkpt>
      <trkpt lat="45.5794" lon="3.07656">
        <ele>529.103983</ele>
        <time>2021-04-29T17:17:05.922Z</time>
      </trkpt>
      <trkpt lat="45.5797" lon="3.0781">
        <ele>527.515329</ele>
        <time>2021-04-29T17:17:25.655Z</time>
      </trkpt>
      <trkpt lat="45.57963" lon="3.07853">
        <ele>526.469169</ele>
        <time>2021-04-29T17:17:30.705Z</time>
      </trkpt>
      <trkpt lat="45.57941" lon="3.07904">
        <ele>525.046221</ele>
        <time>2021-04-29T17:17:37.435Z</time>
      </trkpt>
      <trkpt lat="45.57932" lon="3.07945">
        <ele>524.016608</ele>
        <time>2021-04-29T17:17:42.209Z</time>
      </trkpt>
      <trkpt lat="45.57927" lon="3.08029">
        <ele>521.907343</ele>
        <time>2021-04-29T17:17:51.314Z</time>
      </trkpt>
      <trkpt lat="45.5793" lon="3.0806">
        <ele>520.972662</ele>
        <time>2021-04-29T17:17:54.691Z</time>
      </trkpt>
      <trkpt lat="45.5796" lon="3.0819">
        <ele>516.88155</ele>
        <time>2021-04-29T17:18:09.468Z</time>
      </trkpt>
      <trkpt lat="45.5799" lon="3.08259">
        <ele>514.549454</ele>
        <time>2021-04-29T17:18:18.474Z</time>
      </trkpt>
      <trkpt lat="45.58004" lon="3.08279">
        <ele>513.939323</ele>
        <time>2021-04-29T17:18:21.639Z</time>
      </trkpt>
      <trkpt lat="45.58031" lon="3.08312">
        <ele>512.86247</ele>
        <time>2021-04-29T17:18:27.284Z</time>
      </trkpt>
      <trkpt lat="45.58145" lon="3.0843">
        <ele>508.480414</ele>
        <time>2021-04-29T17:18:51.180Z</time>
      </trkpt>
      <trkpt lat="45.58229" lon="3.08546">
        <ele>504.639206</ele>
        <time>2021-04-29T17:19:10.304Z</time>
      </trkpt>
      <trkpt lat="45.58252" lon="3.08569">
        <ele>503.729704</ele>
        <time>2021-04-29T17:19:14.610Z</time>
      </trkpt>
      <trkpt lat="45.58301" lon="3.0862">
        <ele>501.300446</ele>
        <time>2021-04-29T17:19:24.178Z</time>
      </trkpt>
      <trkpt lat="45.58329" lon="3.08658">
        <ele>499.728992</ele>
        <time>2021-04-29T17:19:30.003Z</time>
      </trkpt>
      <trkpt lat="45.58341" lon="3.08685">
        <ele>498.821732</ele>
        <time>2021-04-29T17:19:33.346Z</time>
      </trkpt>
      <trkpt lat="45.58404" lon="3.08889">
        <ele>493.97267</ele>
        <time>2021-04-29T17:19:58.460Z</time>
      </trkpt>
      <trkpt lat="45.58486" lon="3.09076">
        <ele>491.41032</ele>
        <time>2021-04-29T17:20:27.692Z</time>
      </trkpt>
      <trkpt lat="45.58496" lon="3.09091">
        <ele>491.309137</ele>
        <time>2021-04-29T17:20:30.801Z</time>
      </trkpt>
      <trkpt lat="45.58503" lon="3.09098">
        <ele>491.250637</ele>
        <time>2021-04-29T17:20:32.535Z</time>
      </trkpt>
      <trkpt lat="45.58507" lon="3.09102">
        <ele>491.21417</ele>
        <time>2021-04-29T17:20:33.624Z</time>
      </trkpt>
      <trkpt lat="45.58519" lon="3.09116">
        <ele>491.11116</ele>
        <time>2021-04-29T17:20:36.828Z</time>
      </trkpt>
      <trkpt lat="45.58523" lon="3.09121">
        <ele>491.071567</ele>
        <time>2021-04-29T17:20:37.966Z</time>
      </trkpt>
      <trkpt lat="45.58557" lon="3.09177">
        <ele>490.715876</ele>
        <time>2021-04-29T17:20:48.715Z</time>
      </trkpt>
      <trkpt lat="45.58566" lon="3.09191">
        <ele>490.625822</ele>
        <time>2021-04-29T17:20:51.531Z</time>
      </trkpt>
      <trkpt lat="45.58574" lon="3.09204">
        <ele>490.55053</ele>
        <time>2021-04-29T17:20:54.059Z</time>
      </trkpt>
      <trkpt lat="45.58623" lon="3.09278">
        <ele>490.151881</ele>
        <time>2021-04-29T17:21:08.754Z</time>
      </trkpt>
      <trkpt lat="45.58637" lon="3.09308">
        <ele>490.011829</ele>
        <time>2021-04-29T17:21:14.026Z</time>
      </trkpt>
      <trkpt lat="45.58658" lon="3.09378">
        <ele>489.711786</ele>
        <time>2021-04-29T17:21:24.988Z</time>
      </trkpt>
      <trkpt lat="45.58674" lon="3.09486">
        <ele>488.724182</ele>
        <time>2021-04-29T17:21:40.211Z</time>
      </trkpt>
      <trkpt lat="45.58674" lon="3.09491">
        <ele>488.666706</ele>
        <time>2021-04-29T17:21:40.932Z</time>
      </trkpt>
      <trkpt lat="45.58677" lon="3.09522">
        <ele>488.320756</ele>
        <time>2021-04-29T17:21:45.044Z</time>
      </trkpt>
      <trkpt lat="45.58677" lon="3.0954">
        <ele>488.131618</ele>
        <time>2021-04-29T17:21:47.287Z</time>
      </trkpt>
      <trkpt lat="45.58676" lon="3.09585">
        <ele>487.631229</ele>
        <time>2021-04-29T17:21:53.070Z</time>
      </trkpt>
      <trkpt lat="45.58675" lon="3.09596">
        <ele>487.511101</ele>
        <time>2021-04-29T17:21:54.448Z</time>
      </trkpt>
      <trkpt lat="45.58655" lon="3.0986">
        <ele>483.492553</ele>
        <time>2021-04-29T17:22:25.919Z</time>
      </trkpt>
      <trkpt lat="45.58655" lon="3.0987">
        <ele>483.324909</ele>
        <time>2021-04-29T17:22:27.080Z</time>
      </trkpt>
      <trkpt lat="45.58654" lon="3.09919">
        <ele>482.506765</ele>
        <time>2021-04-29T17:22:33.072Z</time>
      </trkpt>
      <trkpt lat="45.58664" lon="3.0996">
        <ele>482.123229</ele>
        <time>2021-04-29T17:22:38.572Z</time>
      </trkpt>
      <trkpt lat="45.58701" lon="3.10054">
        <ele>481.173098</ele>
        <time>2021-04-29T17:22:52.651Z</time>
      </trkpt>
      <trkpt lat="45.5872" lon="3.10104">
        <ele>480.67235</ele>
        <time>2021-04-29T17:23:00.576Z</time>
      </trkpt>
      <trkpt lat="45.58725" lon="3.10118">
        <ele>480.53301</ele>
        <time>2021-04-29T17:23:02.925Z</time>
      </trkpt>
      <trkpt lat="45.58749" lon="3.10198">
        <ele>479.831544</ele>
        <time>2021-04-29T17:23:14.947Z</time>
      </trkpt>
      <trkpt lat="45.58754" lon="3.10236">
        <ele>479.547181</ele>
        <time>2021-04-29T17:23:20.201Z</time>
      </trkpt>
      <trkpt lat="45.58756" lon="3.10288">
        <ele>479.158047</ele>
        <time>2021-04-29T17:23:27.420Z</time>
      </trkpt>
      <trkpt lat="45.58757" lon="3.10305">
        <ele>479.033303</ele>
        <time>2021-04-29T17:23:29.709Z</time>
      </trkpt>
      <trkpt lat="45.58753" lon="3.1038">
        <ele>478.471962</ele>
        <time>2021-04-29T17:23:39.484Z</time>
      </trkpt>
      <trkpt lat="45.58755" lon="3.10418">
        <ele>478.165271</ele>
        <time>2021-04-29T17:23:44.420Z</time>
      </trkpt>
      <trkpt lat="45.58758" lon="3.10451">
        <ele>477.878193</ele>
        <time>2021-04-29T17:23:48.718Z</time>
      </trkpt>
      <trkpt lat="45.58761" lon="3.10473">
        <ele>477.686651</ele>
        <time>2021-04-29T17:23:51.542Z</time>
      </trkpt>
      <trkpt lat="45.5879" lon="3.10608">
        <ele>476.466893</ele>
        <time>2021-04-29T17:24:09.824Z</time>
      </trkpt>
      <trkpt lat="45.58835" lon="3.10882">
        <ele>475.58043</ele>
        <time>2021-04-29T17:24:51.358Z</time>
      </trkpt>
      <trkpt lat="45.5884" lon="3.10914">
        <ele>475.558727</ele>
        <time>2021-04-29T17:24:56.732Z</time>
      </trkpt>
      <trkpt lat="45.5885" lon="3.10994">
        <ele>475.652766</ele>
        <time>2021-04-29T17:25:09.992Z</time>
      </trkpt>
      <trkpt lat="45.5884" lon="3.11252">
        <ele>475.408402</ele>
        <time>2021-04-29T17:25:51.713Z</time>
      </trkpt>
      <trkpt lat="45.58842" lon="3.11283">
        <ele>475.270698</ele>
        <time>2021-04-29T17:25:56.205Z</time>
      </trkpt>
      <trkpt lat="45.58867" lon="3.1156">
        <ele>473.472241</ele>
        <time>2021-04-29T17:26:32.795Z</time>
      </trkpt>
      <trkpt lat="45.58884" lon="3.11747">
        <ele>472.424751</ele>
        <time>2021-04-29T17:26:58.369Z</time>
      </trkpt>
      <trkpt lat="45.58912" lon="3.12045">
        <ele>471.545998</ele>
        <time>2021-04-29T17:27:45.685Z</time>
      </trkpt>
      <trkpt lat="45.58918" lon="3.12119">
        <ele>471.241705</ele>
        <time>2021-04-29T17:27:56.684Z</time>
      </trkpt>
      <trkpt lat="45.58919" lon="3.12134">
        <ele>471.180634</ele>
        <time>2021-04-29T17:27:58.617Z</time>
      </trkpt>
      <trkpt lat="45.5893" lon="3.12307">
        <ele>468.835276</ele>
        <time>2021-04-29T17:28:19.838Z</time>
      </trkpt>
      <trkpt lat="45.58933" lon="3.12355">
        <ele>468.037566</ele>
        <time>2021-04-29T17:28:25.473Z</time>
      </trkpt>
      <trkpt lat="45.58934" lon="3.12382">
        <ele>467.589033</ele>
        <time>2021-04-29T17:28:28.606Z</time>
      </trkpt>
      <trkpt lat="45.58933" lon="3.12413">
        <ele>467.072275</ele>
        <time>2021-04-29T17:28:32.327Z</time>
      </trkpt>
      <trkpt lat="45.58932" lon="3.1242">
        <ele>466.949759</ele>
        <time>2021-04-29T17:28:33.147Z</time>
      </trkpt>
      <trkpt lat="45.58927" lon="3.12501">
        <ele>465.712065</ele>
        <time>2021-04-29T17:28:42.733Z</time>
      </trkpt>
      <trkpt lat="45.58909" lon="3.1261">
        <ele>464.021339</ele>
        <time>2021-04-29T17:28:56.121Z</time>
      </trkpt>
      <trkpt lat="45.58864" lon="3.12704">
        <ele>462.704394</ele>
        <time>2021-04-29T17:29:11.137Z</time>
      </trkpt>
      <trkpt lat="45.58857" lon="3.12713">
        <ele>462.63899</ele>
        <time>2021-04-29T17:29:12.798Z</time>
      </trkpt>
      <trkpt lat="45.58828" lon="3.12746">
        <ele>462.380981</ele>
        <time>2021-04-29T17:29:20.020Z</time>
      </trkpt>
      <trkpt lat="45.58821" lon="3.12754">
        <ele>462.31754</ele>
        <time>2021-04-29T17:29:21.926Z</time>
      </trkpt>
      <trkpt lat="45.588" lon="3.12775">
        <ele>462.140472</ele>
        <time>2021-04-29T17:29:26.994Z</time>
      </trkpt>
      <trkpt lat="45.58779" lon="3.12799">
        <ele>461.954819</ele>
        <time>2021-04-29T17:29:32.757Z</time>
      </trkpt>
      <trkpt lat="45.58767" lon="3.12827">
        <ele>461.79652</ele>
        <time>2021-04-29T17:29:37.435Z</time>
      </trkpt>
      <trkpt lat="45.58766" lon="3.12839">
        <ele>461.737038</ele>
        <time>2021-04-29T17:29:39.465Z</time>
      </trkpt>
      <trkpt lat="45.58766" lon="3.12839">
        <ele>461.737038</ele>
        <time>2021-04-29T17:29:39.472Z</time>
      </trkpt>
      <trkpt lat="45.58773" lon="3.12841">
        <ele>461.689195</ele>
        <time>2021-04-29T17:29:40.862Z</time>
      </trkpt>
      <trkpt lat="45.58793" lon="3.1283">
        <ele>461.915275</ele>
        <time>2021-04-29T17:29:45.724Z</time>
      </trkpt>
      <trkpt lat="45.58806" lon="3.12814">
        <ele>462.228261</ele>
        <time>2021-04-29T17:29:49.684Z</time>
      </trkpt>
      <trkpt lat="45.58816" lon="3.12803">
        <ele>462.457521</ele>
        <time>2021-04-29T17:29:52.786Z</time>
      </trkpt>
      <trkpt lat="45.5882" lon="3.1279">
        <ele>462.638068</ele>
        <time>2021-04-29T17:29:55.635Z</time>
      </trkpt>
      <trkpt lat="45.5883" lon="3.12773">
        <ele>462.928307</ele>
        <time>2021-04-29T17:29:59.810Z</time>
      </trkpt>
      <trkpt lat="45.58834" lon="3.12765">
        <ele>463.047618</ele>
        <time>2021-04-29T17:30:01.740Z</time>
      </trkpt>
      <trkpt lat="45.58823" lon="3.12757">
        <ele>463.283199</ele>
        <time>2021-04-29T17:30:05.651Z</time>
      </trkpt>
      <trkpt lat="45.58821" lon="3.12754">
        <ele>463.333821</ele>
        <time>2021-04-29T17:30:06.485Z</time>
      </trkpt>
      <trkpt lat="45.588" lon="3.12775">
        <ele>463.803084</ele>
        <time>2021-04-29T17:30:13.779Z</time>
      </trkpt>
      <trkpt lat="45.58779" lon="3.12799">
        <ele>464.295099</ele>
        <time>2021-04-29T17:30:22.563Z</time>
      </trkpt>
      <trkpt lat="45.58767" lon="3.12827">
        <ele>464.714619</ele>
        <time>2021-04-29T17:30:30.157Z</time>
      </trkpt>
      <trkpt lat="45.58766" lon="3.12839">
        <ele>464.872257</ele>
        <time>2021-04-29T17:30:32.908Z</time>
      </trkpt>
      <trkpt lat="45.58764" lon="3.12849">
        <ele>465.213366</ele>
        <time>2021-04-29T17:30:35.735Z</time>
      </trkpt>
      <trkpt lat="45.58764" lon="3.1286">
        <ele>465.864533</ele>
        <time>2021-04-29T17:30:38.918Z</time>
      </trkpt>
      <trkpt lat="45.5875" lon="3.12854">
        <ele>467.05794</ele>
        <time>2021-04-29T17:30:44.330Z</time>
      </trkpt>
      <trkpt lat="45.58719" lon="3.12837">
        <ele>469.841624</ele>
        <time>2021-04-29T17:31:00.623Z</time>
      </trkpt>
      <trkpt lat="45.58717" lon="3.12836">
        <ele>470.039619</ele>
        <time>2021-04-29T17:31:01.907Z</time>
      </trkpt>
      <trkpt lat="45.58704" lon="3.12827">
        <ele>471.311124</ele>
        <time>2021-04-29T17:31:08.901Z</time>
      </trkpt>
      <trkpt lat="45.58694" lon="3.12816">
        <ele>472.34817</ele>
        <time>2021-04-29T17:31:16.192Z</time>
      </trkpt>
      <trkpt lat="45.58687" lon="3.12808">
        <ele>473.055663</ele>
        <time>2021-04-29T17:31:21.627Z</time>
      </trkpt>
      <trkpt lat="45.58667" lon="3.12799">
        <ele>474.884829</ele>
        <time>2021-04-29T17:31:34.822Z</time>
      </trkpt>
      <trkpt lat="45.58647" lon="3.1278">
        <ele>476.901144</ele>
        <time>2021-04-29T17:31:50.911Z</time>
      </trkpt>
      <trkpt lat="45.5864" lon="3.12775">
        <ele>477.519712</ele>
        <time>2021-04-29T17:31:56.038Z</time>
      </trkpt>
      <trkpt lat="45.58635" lon="3.12769">
        <ele>478.100314</ele>
        <time>2021-04-29T17:32:01.269Z</time>
      </trkpt>
      <trkpt lat="45.58617" lon="3.12747">
        <ele>480.104293</ele>
        <time>2021-04-29T17:32:17.482Z</time>
      </trkpt>
      <trkpt lat="45.58612" lon="3.12746">
        <ele>480.652355</ele>
        <time>2021-04-29T17:32:21.311Z</time>
      </trkpt>
      <trkpt lat="45.58588" lon="3.1274">
        <ele>483.227818</ele>
        <time>2021-04-29T17:32:38.473Z</time>
      </trkpt>
      <trkpt lat="45.58579" lon="3.12727">
        <ele>484.672589</ele>
        <time>2021-04-29T17:32:47.037Z</time>
      </trkpt>
      <trkpt lat="45.58578" lon="3.12709">
        <ele>486.033839</ele>
        <time>2021-04-29T17:32:55.750Z</time>
      </trkpt>
      <trkpt lat="45.58583" lon="3.12636">
        <ele>491.582237</ele>
        <time>2021-04-29T17:33:30.308Z</time>
      </trkpt>
      <trkpt lat="45.58591" lon="3.1258">
        <ele>495.924261</ele>
        <time>2021-04-29T17:33:57.687Z</time>
      </trkpt>
      <trkpt lat="45.58584" lon="3.1251">
        <ele>500.514109</ele>
        <time>2021-04-29T17:34:28.432Z</time>
      </trkpt>
      <trkpt lat="45.58566" lon="3.12478">
        <ele>502.132762</ele>
        <time>2021-04-29T17:34:44.065Z</time>
      </trkpt>
      <trkpt lat="45.58444" lon="3.124">
        <ele>509.651461</ele>
        <time>2021-04-29T17:35:37.852Z</time>
      </trkpt>
      <trkpt lat="45.58413" lon="3.1239">
        <ele>510.332476</ele>
        <time>2021-04-29T17:35:48.421Z</time>
      </trkpt>
      <trkpt lat="45.58408" lon="3.12388">
        <ele>510.447995</ele>
        <time>2021-04-29T17:35:50.520Z</time>
      </trkpt>
      <trkpt lat="45.58365" lon="3.12355">
        <ele>511.432055</ele>
        <time>2021-04-29T17:36:05.500Z</time>
      </trkpt>
      <trkpt lat="45.5833" lon="3.12307">
        <ele>512.396033</ele>
        <time>2021-04-29T17:36:18.495Z</time>
      </trkpt>
      <trkpt lat="45.58278" lon="3.12271">
        <ele>513.525585</ele>
        <time>2021-04-29T17:36:34.175Z</time>
      </trkpt>
      <trkpt lat="45.58259" lon="3.12261">
        <ele>513.874945</ele>
        <time>2021-04-29T17:36:39.522Z</time>
      </trkpt>
      <trkpt lat="45.58222" lon="3.12258">
        <ele>514.510581</ele>
        <time>2021-04-29T17:36:49.484Z</time>
      </trkpt>
      <trkpt lat="45.582" lon="3.12249">
        <ele>514.912614</ele>
        <time>2021-04-29T17:36:55.968Z</time>
      </trkpt>
      <trkpt lat="45.58183" lon="3.12234">
        <ele>515.256408</ele>
        <time>2021-04-29T17:37:01.580Z</time>
      </trkpt>
      <trkpt lat="45.58168" lon="3.12235">
        <ele>515.504537</ele>
        <time>2021-04-29T17:37:05.849Z</time>
      </trkpt>
      <trkpt lat="45.58154" lon="3.12222">
        <ele>515.788186</ele>
        <time>2021-04-29T17:37:10.725Z</time>
      </trkpt>
      <trkpt lat="45.58144" lon="3.122">
        <ele>516.113817</ele>
        <time>2021-04-29T17:37:16.568Z</time>
      </trkpt>
      <trkpt lat="45.58144" lon="3.12154">
        <ele>516.994635</ele>
        <time>2021-04-29T17:37:26.945Z</time>
      </trkpt>
      <trkpt lat="45.58064" lon="3.1205">
        <ele>521.532781</ele>
        <time>2021-04-29T17:38:07.069Z</time>
      </trkpt>
      <trkpt lat="45.58001" lon="3.11908">
        <ele>528.133504</ele>
        <time>2021-04-29T17:39:00.483Z</time>
      </trkpt>
      <trkpt lat="45.57974" lon="3.11859">
        <ele>531.213979</ele>
        <time>2021-04-29T17:39:23.186Z</time>
      </trkpt>
      <trkpt lat="45.5796" lon="3.11842">
        <ele>532.478649</ele>
        <time>2021-04-29T17:39:32.289Z</time>
      </trkpt>
      <trkpt lat="45.57955" lon="3.11837">
        <ele>532.916884</ele>
        <time>2021-04-29T17:39:36.475Z</time>
      </trkpt>
      <trkpt lat="45.57904" lon="3.11776">
        <ele>537.617098</ele>
        <time>2021-04-29T17:40:12.172Z</time>
      </trkpt>
      <trkpt lat="45.57881" lon="3.11762">
        <ele>539.387915</ele>
        <time>2021-04-29T17:40:25.801Z</time>
      </trkpt>
      <trkpt lat="45.5785" lon="3.11759">
        <ele>541.563919</ele>
        <time>2021-04-29T17:40:42.458Z</time>
      </trkpt>
      <trkpt lat="45.57828" lon="3.11772">
        <ele>543.270256</ele>
        <time>2021-04-29T17:40:55.590Z</time>
      </trkpt>
      <trkpt lat="45.5782" lon="3.11786">
        <ele>544.182436</ele>
        <time>2021-04-29T17:41:02.167Z</time>
      </trkpt>
      <trkpt lat="45.57815" lon="3.11812">
        <ele>545.529352</ele>
        <time>2021-04-29T17:41:11.594Z</time>
      </trkpt>
      <trkpt lat="45.57819" lon="3.11882">
        <ele>549.011243</ele>
        <time>2021-04-29T17:41:33.277Z</time>
      </trkpt>
      <trkpt lat="45.57801" lon="3.11989">
        <ele>553.74656</ele>
        <time>2021-04-29T17:42:09.148Z</time>
      </trkpt>
      <trkpt lat="45.57794" lon="3.12015">
        <ele>554.923842</ele>
        <time>2021-04-29T17:42:18.118Z</time>
      </trkpt>
      <trkpt lat="45.57762" lon="3.12069">
        <ele>557.929311</ele>
        <time>2021-04-29T17:42:40.898Z</time>
      </trkpt>
      <trkpt lat="45.5775" lon="3.12083">
        <ele>558.869062</ele>
        <time>2021-04-29T17:42:48.881Z</time>
      </trkpt>
      <trkpt lat="45.57735" lon="3.12088">
        <ele>559.782048</ele>
        <time>2021-04-29T17:42:54.107Z</time>
      </trkpt>
      <trkpt lat="45.5772" lon="3.12082">
        <ele>560.751157</ele>
        <time>2021-04-29T17:43:03.513Z</time>
      </trkpt>
      <trkpt lat="45.57489" lon="3.11998">
        <ele>575.995909</ele>
        <time>2021-04-29T17:44:55.771Z</time>
      </trkpt>
      <trkpt lat="45.57418" lon="3.11942">
        <ele>581.429796</ele>
        <time>2021-04-29T17:45:36.108Z</time>
      </trkpt>
      <trkpt lat="45.57402" lon="3.11933">
        <ele>582.583831</ele>
        <time>2021-04-29T17:45:44.915Z</time>
      </trkpt>
      <trkpt lat="45.57385" lon="3.11937">
        <ele>583.750181</ele>
        <time>2021-04-29T17:45:53.991Z</time>
      </trkpt>
      <trkpt lat="45.57373" lon="3.11953">
        <ele>584.703966</ele>
        <time>2021-04-29T17:46:02.341Z</time>
      </trkpt>
      <trkpt lat="45.57367" lon="3.11972">
        <ele>585.567141</ele>
        <time>2021-04-29T17:46:09.745Z</time>
      </trkpt>
      <trkpt lat="45.57368" lon="3.11998">
        <ele>586.64618</ele>
        <time>2021-04-29T17:46:19.259Z</time>
      </trkpt>
      <trkpt lat="45.57407" lon="3.12149">
        <ele>593.380867</ele>
        <time>2021-04-29T17:47:11.068Z</time>
      </trkpt>
      <trkpt lat="45.57439" lon="3.12221">
        <ele>596.121148</ele>
        <time>2021-04-29T17:47:33.710Z</time>
      </trkpt>
      <trkpt lat="45.57489" lon="3.12305">
        <ele>599.295338</ele>
        <time>2021-04-29T17:48:03.506Z</time>
      </trkpt>
      <trkpt lat="45.57507" lon="3.12341">
        <ele>600.571157</ele>
        <time>2021-04-29T17:48:14.716Z</time>
      </trkpt>
      <trkpt lat="45.57522" lon="3.12379">
        <ele>601.836751</ele>
        <time>2021-04-29T17:48:25.792Z</time>
      </trkpt>
      <trkpt lat="45.5752" lon="3.12418">
        <ele>603.269637</ele>
        <time>2021-04-29T17:48:36.222Z</time>
      </trkpt>
      <trkpt lat="45.57514" lon="3.12429">
        <ele>603.780892</ele>
        <time>2021-04-29T17:48:40.146Z</time>
      </trkpt>
      <trkpt lat="45.57505" lon="3.12432">
        <ele>604.293343</ele>
        <time>2021-04-29T17:48:44.657Z</time>
      </trkpt>
      <trkpt lat="45.57481" lon="3.12414">
        <ele>605.710648</ele>
        <time>2021-04-29T17:48:55.170Z</time>
      </trkpt>
      <trkpt lat="45.57447" lon="3.12352">
        <ele>608.603922</ele>
        <time>2021-04-29T17:49:19.455Z</time>
      </trkpt>
      <trkpt lat="45.57428" lon="3.12328">
        <ele>609.930772</ele>
        <time>2021-04-29T17:49:31.762Z</time>
      </trkpt>
      <trkpt lat="45.57336" lon="3.12236">
        <ele>617.606252</ele>
        <time>2021-04-29T17:50:26.521Z</time>
      </trkpt>
      <trkpt lat="45.57248" lon="3.12133">
        <ele>625.942416</ele>
        <time>2021-04-29T17:51:28.031Z</time>
      </trkpt>
      <trkpt lat="45.57194" lon="3.1205">
        <ele>631.957287</ele>
        <time>2021-04-29T17:52:12.061Z</time>
      </trkpt>
      <trkpt lat="45.57139" lon="3.11997">
        <ele>636.912961</ele>
        <time>2021-04-29T17:52:45.987Z</time>
      </trkpt>
      <trkpt lat="45.57098" lon="3.11934">
        <ele>639.736225</ele>
        <time>2021-04-29T17:53:14.101Z</time>
      </trkpt>
      <trkpt lat="45.57088" lon="3.11907">
        <ele>640.580701</ele>
        <time>2021-04-29T17:53:22.999Z</time>
      </trkpt>
      <trkpt lat="45.57084" lon="3.11866">
        <ele>641.734945</ele>
        <time>2021-04-29T17:53:34.552Z</time>
      </trkpt>
      <trkpt lat="45.57064" lon="3.1179">
        <ele>643.998733</ele>
        <time>2021-04-29T17:53:54.660Z</time>
      </trkpt>
      <trkpt lat="45.57069" lon="3.11677">
        <ele>644.046187</ele>
        <time>2021-04-29T17:54:14.550Z</time>
      </trkpt>
      <trkpt lat="45.57064" lon="3.11655">
        <ele>643.772192</ele>
        <time>2021-04-29T17:54:17.697Z</time>
      </trkpt>
      <trkpt lat="45.57046" lon="3.11581">
        <ele>642.853341</ele>
        <time>2021-04-29T17:54:27.233Z</time>
      </trkpt>
      <trkpt lat="45.57042" lon="3.11542">
        <ele>642.392655</ele>
        <time>2021-04-29T17:54:31.706Z</time>
      </trkpt>
      <trkpt lat="45.57037" lon="3.11492">
        <ele>641.390627</ele>
        <time>2021-04-29T17:54:37.170Z</time>
      </trkpt>
      <trkpt lat="45.57029" lon="3.11453">
        <ele>639.600288</ele>
        <time>2021-04-29T17:54:41.485Z</time>
      </trkpt>
      <trkpt lat="45.56988" lon="3.11348">
        <ele>634.331282</ele>
        <time>2021-04-29T17:54:53.680Z</time>
      </trkpt>
      <trkpt lat="45.56863" lon="3.11107">
        <ele>619.740498</ele>
        <time>2021-04-29T17:55:23.552Z</time>
      </trkpt>
      <trkpt lat="45.56826" lon="3.11055">
        <ele>616.200892</ele>
        <time>2021-04-29T17:55:31.073Z</time>
      </trkpt>
      <trkpt lat="45.56574" lon="3.1062">
        <ele>592.041976</ele>
        <time>2021-04-29T17:56:29.058Z</time>
      </trkpt>
      <trkpt lat="45.56556" lon="3.10601">
        <ele>590.749565</ele>
        <time>2021-04-29T17:56:32.333Z</time>
      </trkpt>
      <trkpt lat="45.56543" lon="3.10589">
        <ele>589.871082</ele>
        <time>2021-04-29T17:56:34.493Z</time>
      </trkpt>
      <trkpt lat="45.5649" lon="3.10555">
        <ele>586.474343</ele>
        <time>2021-04-29T17:56:43.116Z</time>
      </trkpt>
      <trkpt lat="45.56456" lon="3.10531">
        <ele>584.45329</ele>
        <time>2021-04-29T17:56:48.897Z</time>
      </trkpt>
      <trkpt lat="45.56443" lon="3.10522">
        <ele>583.884077</ele>
        <time>2021-04-29T17:56:50.880Z</time>
      </trkpt>
      <trkpt lat="45.56379" lon="3.10514">
        <ele>581.187508</ele>
        <time>2021-04-29T17:57:00.868Z</time>
      </trkpt>
      <trkpt lat="45.56367" lon="3.10509">
        <ele>580.674209</ele>
        <time>2021-04-29T17:57:02.780Z</time>
      </trkpt>
      <trkpt lat="45.56345" lon="3.10499">
        <ele>579.73391</ele>
        <time>2021-04-29T17:57:06.446Z</time>
      </trkpt>
      <trkpt lat="45.56337" lon="3.10495">
        <ele>579.3901</ele>
        <time>2021-04-29T17:57:07.722Z</time>
      </trkpt>
      <trkpt lat="45.56311" lon="3.10484">
        <ele>578.263568</ele>
        <time>2021-04-29T17:57:12.137Z</time>
      </trkpt>
      <trkpt lat="45.56302" lon="3.10483">
        <ele>577.871965</ele>
        <time>2021-04-29T17:57:13.584Z</time>
      </trkpt>
      <trkpt lat="45.5629" lon="3.10482">
        <ele>577.43997</ele>
        <time>2021-04-29T17:57:15.764Z</time>
      </trkpt>
      <trkpt lat="45.56282" lon="3.10493">
        <ele>577.142691</ele>
        <time>2021-04-29T17:57:17.651Z</time>
      </trkpt>
      <trkpt lat="45.56249" lon="3.10611">
        <ele>574.816173</ele>
        <time>2021-04-29T17:57:32.685Z</time>
      </trkpt>
      <trkpt lat="45.5624" lon="3.1063">
        <ele>574.382456</ele>
        <time>2021-04-29T17:57:35.573Z</time>
      </trkpt>
      <trkpt lat="45.56234" lon="3.10638">
        <ele>574.182671</ele>
        <time>2021-04-29T17:57:36.845Z</time>
      </trkpt>
      <trkpt lat="45.56229" lon="3.10644">
        <ele>573.999258</ele>
        <time>2021-04-29T17:57:38.035Z</time>
      </trkpt>
      <trkpt lat="45.56202" lon="3.10653">
        <ele>573.281537</ele>
        <time>2021-04-29T17:57:42.772Z</time>
      </trkpt>
      <trkpt lat="45.56126" lon="3.10625">
        <ele>570.798326</ele>
        <time>2021-04-29T17:57:56.020Z</time>
      </trkpt>
      <trkpt lat="45.56057" lon="3.10592">
        <ele>568.411498</ele>
        <time>2021-04-29T17:58:07.718Z</time>
      </trkpt>
      <trkpt lat="45.55979" lon="3.10578">
        <ele>565.697174</ele>
        <time>2021-04-29T17:58:20.050Z</time>
      </trkpt>
      <trkpt lat="45.55896" lon="3.10571">
        <ele>562.547526</ele>
        <time>2021-04-29T17:58:33.204Z</time>
      </trkpt>
      <trkpt lat="45.55761" lon="3.10598">
        <ele>557.115187</ele>
        <time>2021-04-29T17:58:54.979Z</time>
      </trkpt>
      <trkpt lat="45.55719" lon="3.10594">
        <ele>555.327271</ele>
        <time>2021-04-29T17:59:01.722Z</time>
      </trkpt>
      <trkpt lat="45.5568" lon="3.10572">
        <ele>553.58658</ele>
        <time>2021-04-29T17:59:08.162Z</time>
      </trkpt>
      <trkpt lat="45.55572" lon="3.1041">
        <ele>544.283246</ele>
        <time>2021-04-29T17:59:31.124Z</time>
      </trkpt>
      <trkpt lat="45.55544" lon="3.10393">
        <ele>542.410836</ele>
        <time>2021-04-29T17:59:35.456Z</time>
      </trkpt>
      <trkpt lat="45.55506" lon="3.10383">
        <ele>539.817005</ele>
        <time>2021-04-29T17:59:41.031Z</time>
      </trkpt>
      <trkpt lat="45.55464" lon="3.10378">
        <ele>536.918478</ele>
        <time>2021-04-29T17:59:47.001Z</time>
      </trkpt>
      <trkpt lat="45.55435" lon="3.10383">
        <ele>534.876478</ele>
        <time>2021-04-29T17:59:51.187Z</time>
      </trkpt>
      <trkpt lat="45.55398" lon="3.1042">
        <ele>531.727591</ele>
        <time>2021-04-29T17:59:57.601Z</time>
      </trkpt>
      <trkpt lat="45.55355" lon="3.10423">
        <ele>528.771234</ele>
        <time>2021-04-29T18:00:03.797Z</time>
      </trkpt>
      <trkpt lat="45.55324" lon="3.10486">
        <ele>525.919015</ele>
        <time>2021-04-29T18:00:11.678Z</time>
      </trkpt>
      <trkpt lat="45.5529" lon="3.10524">
        <ele>523.651734</ele>
        <time>2021-04-29T18:00:18.006Z</time>
      </trkpt>
      <trkpt lat="45.55264" lon="3.10571">
        <ele>521.411536</ele>
        <time>2021-04-29T18:00:24.392Z</time>
      </trkpt>
      <trkpt lat="45.55248" lon="3.10574">
        <ele>520.542149</ele>
        <time>2021-04-29T18:00:26.889Z</time>
      </trkpt>
      <trkpt lat="45.55216" lon="3.10553">
        <ele>519.012455</ele>
        <time>2021-04-29T18:00:32.411Z</time>
      </trkpt>
      <trkpt lat="45.55202" lon="3.10558">
        <ele>518.585246</ele>
        <time>2021-04-29T18:00:36.278Z</time>
      </trkpt>
      <trkpt lat="45.5519" lon="3.10576">
        <ele>518.068955</ele>
        <time>2021-04-29T18:00:39.044Z</time>
      </trkpt>
      <trkpt lat="45.55184" lon="3.10586">
        <ele>517.806519</ele>
        <time>2021-04-29T18:00:40.501Z</time>
      </trkpt>
      <trkpt lat="45.55172" lon="3.10629">
        <ele>516.833971</ele>
        <time>2021-04-29T18:00:46.845Z</time>
      </trkpt>
      <trkpt lat="45.55152" lon="3.10657">
        <ele>516.024094</ele>
        <time>2021-04-29T18:00:52.222Z</time>
      </trkpt>
      <trkpt lat="45.55107" lon="3.10697">
        <ele>514.436057</ele>
        <time>2021-04-29T18:01:00.501Z</time>
      </trkpt>
      <trkpt lat="45.55104" lon="3.10698">
        <ele>514.352413</ele>
        <time>2021-04-29T18:01:03.327Z</time>
      </trkpt>
      <trkpt lat="45.55102" lon="3.1068">
        <ele>513.887035</ele>
        <time>2021-04-29T18:01:05.112Z</time>
      </trkpt>
      <trkpt lat="45.55091" lon="3.10598">
        <ele>510.565339</ele>
        <time>2021-04-29T18:01:13.918Z</time>
      </trkpt>
      <trkpt lat="45.55088" lon="3.10599">
        <ele>510.376269</ele>
        <time>2021-04-29T18:01:16.222Z</time>
      </trkpt>
      <trkpt lat="45.55088" lon="3.10599">
        <ele>510.376269</ele>
        <time>2021-04-29T18:01:16.241Z</time>
      </trkpt>
      <trkpt lat="45.55088" lon="3.10599">
        <ele>510.376269</ele>
        <time>2021-04-29T18:01:16.260Z</time>
      </trkpt>
      <trkpt lat="45.55091" lon="3.10598">
        <ele>510.187199</ele>
        <time>2021-04-29T18:01:18.574Z</time>
      </trkpt>
      <trkpt lat="45.55092" lon="3.10583">
        <ele>509.58134</ele>
        <time>2021-04-29T18:01:20.108Z</time>
      </trkpt>
      <trkpt lat="45.55092" lon="3.10566">
        <ele>508.911993</ele>
        <time>2021-04-29T18:01:21.744Z</time>
      </trkpt>
      <trkpt lat="45.551" lon="3.10505">
        <ele>506.497214</ele>
        <time>2021-04-29T18:01:28.357Z</time>
      </trkpt>
      <trkpt lat="45.55105" lon="3.10457">
        <ele>504.548966</ele>
        <time>2021-04-29T18:01:33.252Z</time>
      </trkpt>
      <trkpt lat="45.55107" lon="3.10441">
        <ele>503.933912</ele>
        <time>2021-04-29T18:01:34.890Z</time>
      </trkpt>
      <trkpt lat="45.55108" lon="3.1041">
        <ele>503.254089</ele>
        <time>2021-04-29T18:01:38.003Z</time>
      </trkpt>
      <trkpt lat="45.55102" lon="3.1038">
        <ele>502.580779</ele>
        <time>2021-04-29T18:01:41.234Z</time>
      </trkpt>
      <trkpt lat="45.55095" lon="3.10343">
        <ele>501.7492</ele>
        <time>2021-04-29T18:01:45.167Z</time>
      </trkpt>
      <trkpt lat="45.55094" lon="3.10337">
        <ele>501.623179</ele>
        <time>2021-04-29T18:01:45.799Z</time>
      </trkpt>
      <trkpt lat="45.55071" lon="3.10195">
        <ele>498.478273</ele>
        <time>2021-04-29T18:02:05.056Z</time>
      </trkpt>
      <trkpt lat="45.55071" lon="3.10187">
        <ele>498.46336</ele>
        <time>2021-04-29T18:02:06.388Z</time>
      </trkpt>
      <trkpt lat="45.55065" lon="3.10138">
        <ele>499.131243</ele>
        <time>2021-04-29T18:02:15.714Z</time>
      </trkpt>
      <trkpt lat="45.55061" lon="3.10108">
        <ele>499.5448</ele>
        <time>2021-04-29T18:02:21.901Z</time>
      </trkpt>
      <trkpt lat="45.55058" lon="3.10069">
        <ele>500.089308</ele>
        <time>2021-04-29T18:02:30.487Z</time>
      </trkpt>
      <trkpt lat="45.55057" lon="3.10061">
        <ele>500.201503</ele>
        <time>2021-04-29T18:02:32.239Z</time>
      </trkpt>
      <trkpt lat="45.55044" lon="3.09895">
        <ele>502.80225</ele>
        <time>2021-04-29T18:03:11.925Z</time>
      </trkpt>
      <trkpt lat="45.55039" lon="3.09864">
        <ele>503.492253</ele>
        <time>2021-04-29T18:03:19.818Z</time>
      </trkpt>
      <trkpt lat="45.55008" lon="3.0977">
        <ele>505.732458</ele>
        <time>2021-04-29T18:03:45.771Z</time>
      </trkpt>
      <trkpt lat="45.55006" lon="3.0972">
        <ele>506.799948</ele>
        <time>2021-04-29T18:03:58.556Z</time>
      </trkpt>
      <trkpt lat="45.55012" lon="3.09696">
        <ele>507.346109</ele>
        <time>2021-04-29T18:04:04.678Z</time>
      </trkpt>
      <trkpt lat="45.55022" lon="3.09673">
        <ele>507.534857</ele>
        <time>2021-04-29T18:04:11.271Z</time>
      </trkpt>
      <trkpt lat="45.55051" lon="3.09642">
        <ele>507.790306</ele>
        <time>2021-04-29T18:04:21.463Z</time>
      </trkpt>
      <trkpt lat="45.55108" lon="3.09625">
        <ele>508.196343</ele>
        <time>2021-04-29T18:04:35.206Z</time>
      </trkpt>
      <trkpt lat="45.55119" lon="3.0962">
        <ele>508.275579</ele>
        <time>2021-04-29T18:04:38.064Z</time>
      </trkpt>
      <trkpt lat="45.55128" lon="3.09613">
        <ele>508.346334</ele>
        <time>2021-04-29T18:04:40.154Z</time>
      </trkpt>
      <trkpt lat="45.55143" lon="3.09599">
        <ele>508.472307</ele>
        <time>2021-04-29T18:04:43.614Z</time>
      </trkpt>
      <trkpt lat="45.5515" lon="3.09588">
        <ele>508.543701</ele>
        <time>2021-04-29T18:04:46.463Z</time>
      </trkpt>
      <trkpt lat="45.55155" lon="3.09579">
        <ele>508.602014</ele>
        <time>2021-04-29T18:04:47.984Z</time>
      </trkpt>
      <trkpt lat="45.55161" lon="3.09565">
        <ele>508.673758</ele>
        <time>2021-04-29T18:04:50.168Z</time>
      </trkpt>
      <trkpt lat="45.55165" lon="3.09557">
        <ele>508.653126</ele>
        <time>2021-04-29T18:04:51.479Z</time>
      </trkpt>
      <trkpt lat="45.55173" lon="3.09506">
        <ele>508.544448</ele>
        <time>2021-04-29T18:04:58.966Z</time>
      </trkpt>
      <trkpt lat="45.55175" lon="3.09414">
        <ele>508.351646</ele>
        <time>2021-04-29T18:05:12.234Z</time>
      </trkpt>
      <trkpt lat="45.55175" lon="3.09396">
        <ele>508.314134</ele>
        <time>2021-04-29T18:05:14.555Z</time>
      </trkpt>
      <trkpt lat="45.55179" lon="3.09319">
        <ele>508.153252</ele>
        <time>2021-04-29T18:05:25.113Z</time>
      </trkpt>
      <trkpt lat="45.55182" lon="3.09256">
        <ele>509.373203</ele>
        <time>2021-04-29T18:05:37.480Z</time>
      </trkpt>
      <trkpt lat="45.55173" lon="3.09201">
        <ele>510.596729</ele>
        <time>2021-04-29T18:05:51.559Z</time>
      </trkpt>
      <trkpt lat="45.55155" lon="3.09153">
        <ele>511.786885</ele>
        <time>2021-04-29T18:06:06.474Z</time>
      </trkpt>
      <trkpt lat="45.55135" lon="3.09116">
        <ele>512.808017</ele>
        <time>2021-04-29T18:06:19.268Z</time>
      </trkpt>
      <trkpt lat="45.55088" lon="3.09032">
        <ele>515.56149</ele>
        <time>2021-04-29T18:06:49.680Z</time>
      </trkpt>
      <trkpt lat="45.55012" lon="3.08894">
        <ele>520.492502</ele>
        <time>2021-04-29T18:07:38.409Z</time>
      </trkpt>
      <trkpt lat="45.54949" lon="3.08743">
        <ele>523.747235</ele>
        <time>2021-04-29T18:08:16.257Z</time>
      </trkpt>
      <trkpt lat="45.54922" lon="3.08714">
        <ele>524.565886</ele>
        <time>2021-04-29T18:08:26.267Z</time>
      </trkpt>
      <trkpt lat="45.54896" lon="3.08692">
        <ele>525.332532</ele>
        <time>2021-04-29T18:08:36.129Z</time>
      </trkpt>
      <trkpt lat="45.54849" lon="3.08671">
        <ele>527.213645</ele>
        <time>2021-04-29T18:08:52.893Z</time>
      </trkpt>
      <trkpt lat="45.54781" lon="3.08667">
        <ele>529.887308</ele>
        <time>2021-04-29T18:09:18.249Z</time>
      </trkpt>
      <trkpt lat="45.54731" lon="3.08652">
        <ele>531.926348</ele>
        <time>2021-04-29T18:09:39.927Z</time>
      </trkpt>
      <trkpt lat="45.54709" lon="3.08633">
        <ele>532.998909</ele>
        <time>2021-04-29T18:09:50.906Z</time>
      </trkpt>
      <trkpt lat="45.54691" lon="3.08607">
        <ele>534.163884</ele>
        <time>2021-04-29T18:10:02.204Z</time>
      </trkpt>
      <trkpt lat="45.5465" lon="3.08472">
        <ele>538.831582</ele>
        <time>2021-04-29T18:10:45.463Z</time>
      </trkpt>
      <trkpt lat="45.54608" lon="3.08364">
        <ele>540.815889</ele>
        <time>2021-04-29T18:11:17.153Z</time>
      </trkpt>
      <trkpt lat="45.54597" lon="3.08311">
        <ele>540.90629</ele>
        <time>2021-04-29T18:11:27.658Z</time>
      </trkpt>
      <trkpt lat="45.54593" lon="3.08241">
        <ele>541.019215</ele>
        <time>2021-04-29T18:11:37.126Z</time>
      </trkpt>
      <trkpt lat="45.54591" lon="3.08174">
        <ele>541.121713</ele>
        <time>2021-04-29T18:11:45.127Z</time>
      </trkpt>
      <trkpt lat="45.54582" lon="3.08152">
        <ele>540.59127</ele>
        <time>2021-04-29T18:11:48.134Z</time>
      </trkpt>
      <trkpt lat="45.54576" lon="3.0813">
        <ele>540.093088</ele>
        <time>2021-04-29T18:11:51.119Z</time>
      </trkpt>
      <trkpt lat="45.54575" lon="3.08113">
        <ele>539.745341</ele>
        <time>2021-04-29T18:11:52.938Z</time>
      </trkpt>
      <trkpt lat="45.54576" lon="3.08094">
        <ele>539.337775</ele>
        <time>2021-04-29T18:11:55.562Z</time>
      </trkpt>
      <trkpt lat="45.54585" lon="3.08067">
        <ele>538.695503</ele>
        <time>2021-04-29T18:11:59.021Z</time>
      </trkpt>
      <trkpt lat="45.54584" lon="3.08035">
        <ele>538.032652</ele>
        <time>2021-04-29T18:12:02.772Z</time>
      </trkpt>
      <trkpt lat="45.54591" lon="3.07977">
        <ele>536.798342</ele>
        <time>2021-04-29T18:12:09.379Z</time>
      </trkpt>
      <trkpt lat="45.54606" lon="3.07946">
        <ele>536.002322</ele>
        <time>2021-04-29T18:12:13.697Z</time>
      </trkpt>
      <trkpt lat="45.54625" lon="3.07922">
        <ele>535.867271</ele>
        <time>2021-04-29T18:12:17.738Z</time>
      </trkpt>
      <trkpt lat="45.54682" lon="3.07881">
        <ele>536.359646</ele>
        <time>2021-04-29T18:12:31.088Z</time>
      </trkpt>
      <trkpt lat="45.54712" lon="3.0784">
        <ele>536.673442</ele>
        <time>2021-04-29T18:12:43.443Z</time>
      </trkpt>
      <trkpt lat="45.54727" lon="3.07781">
        <ele>537.011137</ele>
        <time>2021-04-29T18:12:57.947Z</time>
      </trkpt>
      <trkpt lat="45.54729" lon="3.07716">
        <ele>538.653146</ele>
        <time>2021-04-29T18:13:14.678Z</time>
      </trkpt>
      <trkpt lat="45.54724" lon="3.07663">
        <ele>540.442431</ele>
        <time>2021-04-29T18:13:29.327Z</time>
      </trkpt>
      <trkpt lat="45.54707" lon="3.07585">
        <ele>543.217937</ele>
        <time>2021-04-29T18:13:53.791Z</time>
      </trkpt>
      <trkpt lat="45.54659" lon="3.07494">
        <ele>547.264657</ele>
        <time>2021-04-29T18:14:30.825Z</time>
      </trkpt>
      <trkpt lat="45.54644" lon="3.0746">
        <ele>548.846378</ele>
        <time>2021-04-29T18:14:44.200Z</time>
      </trkpt>
      <trkpt lat="45.54633" lon="3.07418">
        <ele>550.614724</ele>
        <time>2021-04-29T18:14:59.092Z</time>
      </trkpt>
      <trkpt lat="45.54607" lon="3.07236">
        <ele>556.903173</ele>
        <time>2021-04-29T18:15:55.808Z</time>
      </trkpt>
      <trkpt lat="45.54574" lon="3.07059">
        <ele>560.590293</ele>
        <time>2021-04-29T18:16:38.090Z</time>
      </trkpt>
      <trkpt lat="45.54575" lon="3.07001">
        <ele>561.142603</ele>
        <time>2021-04-29T18:16:47.589Z</time>
      </trkpt>
      <trkpt lat="45.5458" lon="3.06967">
        <ele>561.245821</ele>
        <time>2021-04-29T18:16:52.833Z</time>
      </trkpt>
      <trkpt lat="45.54621" lon="3.06846">
        <ele>561.643083</ele>
        <time>2021-04-29T18:17:13.483Z</time>
      </trkpt>
      <trkpt lat="45.54627" lon="3.06814">
        <ele>561.741631</ele>
        <time>2021-04-29T18:17:19.010Z</time>
      </trkpt>
      <trkpt lat="45.54628" lon="3.06781">
        <ele>562.003416</ele>
        <time>2021-04-29T18:17:24.891Z</time>
      </trkpt>
      <trkpt lat="45.54622" lon="3.06724">
        <ele>562.795822</ele>
        <time>2021-04-29T18:17:35.989Z</time>
      </trkpt>
      <trkpt lat="45.54571" lon="3.06502">
        <ele>565.305965</ele>
        <time>2021-04-29T18:18:29.081Z</time>
      </trkpt>
      <trkpt lat="45.54566" lon="3.06482">
        <ele>565.298447</ele>
        <time>2021-04-29T18:18:33.633Z</time>
      </trkpt>
      <trkpt lat="45.54557" lon="3.06451">
        <ele>565.287466</ele>
        <time>2021-04-29T18:18:39.730Z</time>
      </trkpt>
      <trkpt lat="45.54518" lon="3.06362">
        <ele>565.251687</ele>
        <time>2021-04-29T18:18:55.212Z</time>
      </trkpt>
      <trkpt lat="45.5451" lon="3.06327">
        <ele>565.239185</ele>
        <time>2021-04-29T18:18:59.749Z</time>
      </trkpt>
      <trkpt lat="45.54508" lon="3.06303">
        <ele>564.819416</ele>
        <time>2021-04-29T18:19:02.641Z</time>
      </trkpt>
      <trkpt lat="45.54521" lon="3.0616">
        <ele>560.469902</ele>
        <time>2021-04-29T18:19:18.102Z</time>
      </trkpt>
      <trkpt lat="45.54515" lon="3.05925">
        <ele>553.734861</ele>
        <time>2021-04-29T18:19:43.086Z</time>
      </trkpt>
      <trkpt lat="45.54508" lon="3.05872">
        <ele>552.228484</ele>
        <time>2021-04-29T18:19:49.235Z</time>
      </trkpt>
      <trkpt lat="45.54498" lon="3.05847">
        <ele>551.443963</ele>
        <time>2021-04-29T18:19:52.518Z</time>
      </trkpt>
      <trkpt lat="45.5447" lon="3.05807">
        <ele>550.195203</ele>
        <time>2021-04-29T18:19:59.178Z</time>
      </trkpt>
      <trkpt lat="45.54357" lon="3.05696">
        <ele>548.091323</ele>
        <time>2021-04-29T18:20:24.554Z</time>
      </trkpt>
      <trkpt lat="45.54267" lon="3.05562">
        <ele>547.128621</ele>
        <time>2021-04-29T18:20:50.161Z</time>
      </trkpt>
      <trkpt lat="45.54188" lon="3.05479">
        <ele>546.833135</ele>
        <time>2021-04-29T18:21:11.572Z</time>
      </trkpt>
      <trkpt lat="45.54169" lon="3.0543">
        <ele>547.069114</ele>
        <time>2021-04-29T18:21:20.863Z</time>
      </trkpt>
      <trkpt lat="45.54154" lon="3.05325">
        <ele>547.520465</ele>
        <time>2021-04-29T18:21:39.760Z</time>
      </trkpt>
      <trkpt lat="45.54156" lon="3.05294">
        <ele>547.651131</ele>
        <time>2021-04-29T18:21:45.424Z</time>
      </trkpt>
      <trkpt lat="45.54185" lon="3.05211">
        <ele>548.201628</ele>
        <time>2021-04-29T18:22:02.733Z</time>
      </trkpt>
      <trkpt lat="45.54192" lon="3.05151">
        <ele>548.625593</ele>
        <time>2021-04-29T18:22:14.080Z</time>
      </trkpt>
      <trkpt lat="45.54191" lon="3.05043">
        <ele>549.384236</ele>
        <time>2021-04-29T18:22:34.081Z</time>
      </trkpt>
      <trkpt lat="45.54181" lon="3.04989">
        <ele>549.704182</ele>
        <time>2021-04-29T18:22:44.131Z</time>
      </trkpt>
      <trkpt lat="45.54169" lon="3.04962">
        <ele>549.836913</ele>
        <time>2021-04-29T18:22:49.781Z</time>
      </trkpt>
      <trkpt lat="45.54138" lon="3.04901">
        <ele>550.141476</ele>
        <time>2021-04-29T18:23:03.041Z</time>
      </trkpt>
      <trkpt lat="45.54127" lon="3.04878">
        <ele>550.255272</ele>
        <time>2021-04-29T18:23:07.668Z</time>
      </trkpt>
      <trkpt lat="45.54104" lon="3.04833">
        <ele>550.478913</ele>
        <time>2021-04-29T18:23:17.028Z</time>
      </trkpt>
      <trkpt lat="45.54038" lon="3.04693">
        <ele>551.127987</ele>
        <time>2021-04-29T18:23:44.772Z</time>
      </trkpt>
      <trkpt lat="45.54029" lon="3.04662">
        <ele>551.252677</ele>
        <time>2021-04-29T18:23:50.342Z</time>
      </trkpt>
      <trkpt lat="45.54025" lon="3.04573">
        <ele>551.589864</ele>
        <time>2021-04-29T18:24:06.117Z</time>
      </trkpt>
      <trkpt lat="45.54015" lon="3.04548">
        <ele>551.856606</ele>
        <time>2021-04-29T18:24:11.334Z</time>
      </trkpt>
      <trkpt lat="45.54009" lon="3.04544">
        <ele>551.962081</ele>
        <time>2021-04-29T18:24:13.227Z</time>
      </trkpt>
      <trkpt lat="45.54005" lon="3.04543">
        <ele>552.03217</ele>
        <time>2021-04-29T18:24:14.389Z</time>
      </trkpt>
      <trkpt lat="45.5397" lon="3.04544">
        <ele>552.576427</ele>
        <time>2021-04-29T18:24:23.849Z</time>
      </trkpt>
      <trkpt lat="45.53937" lon="3.04546">
        <ele>553.106655</ele>
        <time>2021-04-29T18:24:33.259Z</time>
      </trkpt>
      <trkpt lat="45.53918" lon="3.04547">
        <ele>553.408074</ele>
        <time>2021-04-29T18:24:38.612Z</time>
      </trkpt>
      <trkpt lat="45.53903" lon="3.04549">
        <ele>553.643459</ele>
        <time>2021-04-29T18:24:42.784Z</time>
      </trkpt>
      <trkpt lat="45.53895" lon="3.04547">
        <ele>553.77368</ele>
        <time>2021-04-29T18:24:45.402Z</time>
      </trkpt>
      <trkpt lat="45.5388" lon="3.04544">
        <ele>554.008321</ele>
        <time>2021-04-29T18:24:49.988Z</time>
      </trkpt>
      <trkpt lat="45.53849" lon="3.04531">
        <ele>554.553155</ele>
        <time>2021-04-29T18:25:00.429Z</time>
      </trkpt>
      <trkpt lat="45.53845" lon="3.0453">
        <ele>554.646082</ele>
        <time>2021-04-29T18:25:01.630Z</time>
      </trkpt>
      <trkpt lat="45.53807" lon="3.04512">
        <ele>555.575103</ele>
        <time>2021-04-29T18:25:14.342Z</time>
      </trkpt>
      <trkpt lat="45.53763" lon="3.04498">
        <ele>556.633192</ele>
        <time>2021-04-29T18:25:28.567Z</time>
      </trkpt>
      <trkpt lat="45.53755" lon="3.04501">
        <ele>556.814829</ele>
        <time>2021-04-29T18:25:31.366Z</time>
      </trkpt>
      <trkpt lat="45.53742" lon="3.04506">
        <ele>557.130318</ele>
        <time>2021-04-29T18:25:35.380Z</time>
      </trkpt>
      <trkpt lat="45.53728" lon="3.04512">
        <ele>557.467432</ele>
        <time>2021-04-29T18:25:39.395Z</time>
      </trkpt>
      <trkpt lat="45.53719" lon="3.04512">
        <ele>557.675221</ele>
        <time>2021-04-29T18:25:42.425Z</time>
      </trkpt>
      <trkpt lat="45.53685" lon="3.04492">
        <ele>558.545438</ele>
        <time>2021-04-29T18:25:54.006Z</time>
      </trkpt>
      <trkpt lat="45.53661" lon="3.04465">
        <ele>559.718597</ele>
        <time>2021-04-29T18:26:03.323Z</time>
      </trkpt>
      <trkpt lat="45.53601" lon="3.04378">
        <ele>563.218456</ele>
        <time>2021-04-29T18:26:34.936Z</time>
      </trkpt>
      <trkpt lat="45.53591" lon="3.04365">
        <ele>563.776261</ele>
        <time>2021-04-29T18:26:39.737Z</time>
      </trkpt>
      <trkpt lat="45.53576" lon="3.04352">
        <ele>564.492024</ele>
        <time>2021-04-29T18:26:46.379Z</time>
      </trkpt>
      <trkpt lat="45.53544" lon="3.04331">
        <ele>565.935245</ele>
        <time>2021-04-29T18:27:02.971Z</time>
      </trkpt>
      <trkpt lat="45.53523" lon="3.04324">
        <ele>567.545872</ele>
        <time>2021-04-29T18:27:12.582Z</time>
      </trkpt>
      <trkpt lat="45.53476" lon="3.04315">
        <ele>571.191978</ele>
        <time>2021-04-29T18:27:38.393Z</time>
      </trkpt>
      <trkpt lat="45.53471" lon="3.04314">
        <ele>571.640605</ele>
        <time>2021-04-29T18:27:41.050Z</time>
      </trkpt>
      <trkpt lat="45.53425" lon="3.04304">
        <ele>575.223533</ele>
        <time>2021-04-29T18:28:05.894Z</time>
      </trkpt>
      <trkpt lat="45.53425" lon="3.0431">
        <ele>575.554107</ele>
        <time>2021-04-29T18:28:08.609Z</time>
      </trkpt>
      <trkpt lat="45.53424" lon="3.04319">
        <ele>576.063158</ele>
        <time>2021-04-29T18:28:12.399Z</time>
      </trkpt>
      <trkpt lat="45.5342" lon="3.04331">
        <ele>576.763326</ele>
        <time>2021-04-29T18:28:18.730Z</time>
      </trkpt>
      <trkpt lat="45.53412" lon="3.04342">
        <ele>577.624338</ele>
        <time>2021-04-29T18:28:24.042Z</time>
      </trkpt>
      <trkpt lat="45.53264" lon="3.0442">
        <ele>589.90983</ele>
        <time>2021-04-29T18:29:53.910Z</time>
      </trkpt>
      <trkpt lat="45.53218" lon="3.0443">
        <ele>593.530104</ele>
        <time>2021-04-29T18:30:16.139Z</time>
      </trkpt>
      <trkpt lat="45.53192" lon="3.04425">
        <ele>594.80324</ele>
        <time>2021-04-29T18:30:28.075Z</time>
      </trkpt>
      <trkpt lat="45.53102" lon="3.04374">
        <ele>598.728832</ele>
        <time>2021-04-29T18:31:08.025Z</time>
      </trkpt>
      <trkpt lat="45.53044" lon="3.04324">
        <ele>601.232884</ele>
        <time>2021-04-29T18:31:29.961Z</time>
      </trkpt>
      <trkpt lat="45.53021" lon="3.04318">
        <ele>601.095164</ele>
        <time>2021-04-29T18:31:36.235Z</time>
      </trkpt>
      <trkpt lat="45.52956" lon="3.04316">
        <ele>600.704294</ele>
        <time>2021-04-29T18:31:51.257Z</time>
      </trkpt>
      <trkpt lat="45.52819" lon="3.04345">
        <ele>599.130849</ele>
        <time>2021-04-29T18:32:15.120Z</time>
      </trkpt>
      <trkpt lat="45.52773" lon="3.04331">
        <ele>598.186823</ele>
        <time>2021-04-29T18:32:22.360Z</time>
      </trkpt>
      <trkpt lat="45.52749" lon="3.04317">
        <ele>597.658067</ele>
        <time>2021-04-29T18:32:26.806Z</time>
      </trkpt>
      <trkpt lat="45.52724" lon="3.04314">
        <ele>597.150746</ele>
        <time>2021-04-29T18:32:31.452Z</time>
      </trkpt>
      <trkpt lat="45.52656" lon="3.04344">
        <ele>597.266219</ele>
        <time>2021-04-29T18:32:47.494Z</time>
      </trkpt>
      <trkpt lat="45.52646" lon="3.04349">
        <ele>597.456126</ele>
        <time>2021-04-29T18:32:50.179Z</time>
      </trkpt>
      <trkpt lat="45.52606" lon="3.04362">
        <ele>598.200349</ele>
        <time>2021-04-29T18:33:02.266Z</time>
      </trkpt>
      <trkpt lat="45.52535" lon="3.04372">
        <ele>599.493437</ele>
        <time>2021-04-29T18:33:27.037Z</time>
      </trkpt>
      <trkpt lat="45.52384" lon="3.0436">
        <ele>601.359564</ele>
        <time>2021-04-29T18:34:18.848Z</time>
      </trkpt>
      <trkpt lat="45.52235" lon="3.04331">
        <ele>598.002843</ele>
        <time>2021-04-29T18:34:42.790Z</time>
      </trkpt>
      <trkpt lat="45.52214" lon="3.0432">
        <ele>597.180112</ele>
        <time>2021-04-29T18:34:46.300Z</time>
      </trkpt>
      <trkpt lat="45.52207" lon="3.04305">
        <ele>596.688382</ele>
        <time>2021-04-29T18:34:48.226Z</time>
      </trkpt>
      <trkpt lat="45.52199" lon="3.0428">
        <ele>596.004702</ele>
        <time>2021-04-29T18:34:51.202Z</time>
      </trkpt>
      <trkpt lat="45.52193" lon="3.0426">
        <ele>595.447882</ele>
        <time>2021-04-29T18:34:53.495Z</time>
      </trkpt>
      <trkpt lat="45.52186" lon="3.04246">
        <ele>595.157911</ele>
        <time>2021-04-29T18:34:55.487Z</time>
      </trkpt>
      <trkpt lat="45.52159" lon="3.04221">
        <ele>594.709451</ele>
        <time>2021-04-29T18:35:00.607Z</time>
      </trkpt>
      <trkpt lat="45.52132" lon="3.04219">
        <ele>594.332597</ele>
        <time>2021-04-29T18:35:05.020Z</time>
      </trkpt>
      <trkpt lat="45.51983" lon="3.0423">
        <ele>593.050533</ele>
        <time>2021-04-29T18:35:37.990Z</time>
      </trkpt>
      <trkpt lat="45.51951" lon="3.04218">
        <ele>593.326486</ele>
        <time>2021-04-29T18:35:47.279Z</time>
      </trkpt>
      <trkpt lat="45.51905" lon="3.04187">
        <ele>593.755213</ele>
        <time>2021-04-29T18:36:01.290Z</time>
      </trkpt>
      <trkpt lat="45.5181" lon="3.04162">
        <ele>594.525346</ele>
        <time>2021-04-29T18:36:26.208Z</time>
      </trkpt>
      <trkpt lat="45.51772" lon="3.04137">
        <ele>594.828518</ele>
        <time>2021-04-29T18:36:36.226Z</time>
      </trkpt>
      <trkpt lat="45.51737" lon="3.04099">
        <ele>595.151471</ele>
        <time>2021-04-29T18:36:46.815Z</time>
      </trkpt>
      <trkpt lat="45.51683" lon="3.04017">
        <ele>595.906999</ele>
        <time>2021-04-29T18:37:06.935Z</time>
      </trkpt>
      <trkpt lat="45.51636" lon="3.0393">
        <ele>597.091706</ele>
        <time>2021-04-29T18:37:28.244Z</time>
      </trkpt>
      <trkpt lat="45.51604" lon="3.0391">
        <ele>597.624306</ele>
        <time>2021-04-29T18:37:38.358Z</time>
      </trkpt>
      <trkpt lat="45.51589" lon="3.03906">
        <ele>597.853382</ele>
        <time>2021-04-29T18:37:42.546Z</time>
      </trkpt>
      <trkpt lat="45.51568" lon="3.03909">
        <ele>598.188105</ele>
        <time>2021-04-29T18:37:49.181Z</time>
      </trkpt>
      <trkpt lat="45.51534" lon="3.03917">
        <ele>599.448606</ele>
        <time>2021-04-29T18:37:59.402Z</time>
      </trkpt>
      <trkpt lat="45.51491" lon="3.03917">
        <ele>601.377258</ele>
        <time>2021-04-29T18:38:14.153Z</time>
      </trkpt>
      <trkpt lat="45.5148" lon="3.03906">
        <ele>601.975605</ele>
        <time>2021-04-29T18:38:20.372Z</time>
      </trkpt>
      <trkpt lat="45.51467" lon="3.03886">
        <ele>602.846728</ele>
        <time>2021-04-29T18:38:29.241Z</time>
      </trkpt>
      <trkpt lat="45.51391" lon="3.0385">
        <ele>606.445828</ele>
        <time>2021-04-29T18:39:06.128Z</time>
      </trkpt>
      <trkpt lat="45.51386" lon="3.03851">
        <ele>606.654437</ele>
        <time>2021-04-29T18:39:08.946Z</time>
      </trkpt>
      <trkpt lat="45.51371" lon="3.03855">
        <ele>607.233367</ele>
        <time>2021-04-29T18:39:16.624Z</time>
      </trkpt>
      <trkpt lat="45.51363" lon="3.03861">
        <ele>607.561808</ele>
        <time>2021-04-29T18:39:18.386Z</time>
      </trkpt>
      <trkpt lat="45.51349" lon="3.03865">
        <ele>608.131399</ele>
        <time>2021-04-29T18:39:24.963Z</time>
      </trkpt>
      <trkpt lat="45.51343" lon="3.03867">
        <ele>608.34192</ele>
        <time>2021-04-29T18:39:28.956Z</time>
      </trkpt>
      <trkpt lat="45.51328" lon="3.03867">
        <ele>608.929756</ele>
        <time>2021-04-29T18:39:32.382Z</time>
      </trkpt>
      <trkpt lat="45.51307" lon="3.03861">
        <ele>609.762236</ele>
        <time>2021-04-29T18:39:42.567Z</time>
      </trkpt>
      <trkpt lat="45.51199" lon="3.03772">
        <ele>614.192123</ele>
        <time>2021-04-29T18:40:24.009Z</time>
      </trkpt>
      <trkpt lat="45.51135" lon="3.03724">
        <ele>616.221668</ele>
        <time>2021-04-29T18:40:44.008Z</time>
      </trkpt>
      <trkpt lat="45.51112" lon="3.03712">
        <ele>616.910557</ele>
        <time>2021-04-29T18:40:52.426Z</time>
      </trkpt>
      <trkpt lat="45.51068" lon="3.03695">
        <ele>618.173636</ele>
        <time>2021-04-29T18:41:08.817Z</time>
      </trkpt>
      <trkpt lat="45.50931" lon="3.0368">
        <ele>624.307448</ele>
        <time>2021-04-29T18:42:09.377Z</time>
      </trkpt>
      <trkpt lat="45.5091" lon="3.03668">
        <ele>625.334364</ele>
        <time>2021-04-29T18:42:17.994Z</time>
      </trkpt>
      <trkpt lat="45.50868" lon="3.03628">
        <ele>627.138691</ele>
        <time>2021-04-29T18:42:35.505Z</time>
      </trkpt>
      <trkpt lat="45.50771" lon="3.0348">
        <ele>630.710376</ele>
        <time>2021-04-29T18:43:18.310Z</time>
      </trkpt>
      <trkpt lat="45.50754" lon="3.03462">
        <ele>631.456879</ele>
        <time>2021-04-29T18:43:24.892Z</time>
      </trkpt>
      <trkpt lat="45.50727" lon="3.03447">
        <ele>632.887835</ele>
        <time>2021-04-29T18:43:34.406Z</time>
      </trkpt>
      <trkpt lat="45.50681" lon="3.03443">
        <ele>635.174157</ele>
        <time>2021-04-29T18:43:55.519Z</time>
      </trkpt>
      <trkpt lat="45.5063" lon="3.03469">
        <ele>637.906996</ele>
        <time>2021-04-29T18:44:21.732Z</time>
      </trkpt>
      <trkpt lat="45.50581" lon="3.03478">
        <ele>640.393343</ele>
        <time>2021-04-29T18:44:41.323Z</time>
      </trkpt>
      <trkpt lat="45.50571" lon="3.03482">
        <ele>640.936801</ele>
        <time>2021-04-29T18:44:48.220Z</time>
      </trkpt>
      <trkpt lat="45.50551" lon="3.03485">
        <ele>642.025358</ele>
        <time>2021-04-29T18:44:57.617Z</time>
      </trkpt>
      <trkpt lat="45.50545" lon="3.03483">
        <ele>642.387473</ele>
        <time>2021-04-29T18:44:58.619Z</time>
      </trkpt>
      <trkpt lat="45.50525" lon="3.03457">
        <ele>643.824806</ele>
        <time>2021-04-29T18:45:12.997Z</time>
      </trkpt>
      <trkpt lat="45.50504" lon="3.03406">
        <ele>646.060903</ele>
        <time>2021-04-29T18:45:29.873Z</time>
      </trkpt>
      <trkpt lat="45.50491" lon="3.0339">
        <ele>647.011321</ele>
        <time>2021-04-29T18:45:38.844Z</time>
      </trkpt>
      <trkpt lat="45.50477" lon="3.03386">
        <ele>647.752638</ele>
        <time>2021-04-29T18:45:45.564Z</time>
      </trkpt>
      <trkpt lat="45.50466" lon="3.0339">
        <ele>648.380105</ele>
        <time>2021-04-29T18:45:49.039Z</time>
      </trkpt>
      <trkpt lat="45.50411" lon="3.03478">
        <ele>653.861546</ele>
        <time>2021-04-29T18:46:23.242Z</time>
      </trkpt>
      <trkpt lat="45.50374" lon="3.03522">
        <ele>657.380841</ele>
        <time>2021-04-29T18:46:48.256Z</time>
      </trkpt>
      <trkpt lat="45.50316" lon="3.03554">
        <ele>661.899136</ele>
        <time>2021-04-29T18:47:24.095Z</time>
      </trkpt>
      <trkpt lat="45.50289" lon="3.03555">
        <ele>663.97372</ele>
        <time>2021-04-29T18:47:39.837Z</time>
      </trkpt>
      <trkpt lat="45.50272" lon="3.03543">
        <ele>665.566491</ele>
        <time>2021-04-29T18:47:51.470Z</time>
      </trkpt>
      <trkpt lat="45.50243" lon="3.03518">
        <ele>668.472106</ele>
        <time>2021-04-29T18:48:12.784Z</time>
      </trkpt>
      <trkpt lat="45.50211" lon="3.03471">
        <ele>672.32529</ele>
        <time>2021-04-29T18:48:39.666Z</time>
      </trkpt>
      <trkpt lat="45.50181" lon="3.03409">
        <ele>676.74307</ele>
        <time>2021-04-29T18:49:07.796Z</time>
      </trkpt>
      <trkpt lat="45.50159" lon="3.0339">
        <ele>678.302496</ele>
        <time>2021-04-29T18:49:20.743Z</time>
      </trkpt>
      <trkpt lat="45.50103" lon="3.03365">
        <ele>680.346229</ele>
        <time>2021-04-29T18:49:45.867Z</time>
      </trkpt>
      <trkpt lat="45.50068" lon="3.03335">
        <ele>681.748943</ele>
        <time>2021-04-29T18:50:00.211Z</time>
      </trkpt>
      <trkpt lat="45.50053" lon="3.03293">
        <ele>682.888394</ele>
        <time>2021-04-29T18:50:10.280Z</time>
      </trkpt>
      <trkpt lat="45.50052" lon="3.03279">
        <ele>683.231333</ele>
        <time>2021-04-29T18:50:13.081Z</time>
      </trkpt>
      <trkpt lat="45.50059" lon="3.03257">
        <ele>683.806571</ele>
        <time>2021-04-29T18:50:17.334Z</time>
      </trkpt>
      <trkpt lat="45.50105" lon="3.03185">
        <ele>683.973111</ele>
        <time>2021-04-29T18:50:31.613Z</time>
      </trkpt>
      <trkpt lat="45.5012" lon="3.03139">
        <ele>683.903272</ele>
        <time>2021-04-29T18:50:38.565Z</time>
      </trkpt>
      <trkpt lat="45.50145" lon="3.03015">
        <ele>683.959662</ele>
        <time>2021-04-29T18:50:57.183Z</time>
      </trkpt>
      <trkpt lat="45.50139" lon="3.02987">
        <ele>684.635258</ele>
        <time>2021-04-29T18:51:02.324Z</time>
      </trkpt>
      <trkpt lat="45.50129" lon="3.0297">
        <ele>685.129773</ele>
        <time>2021-04-29T18:51:06.133Z</time>
      </trkpt>
      <trkpt lat="45.50092" lon="3.02945">
        <ele>686.44416</ele>
        <time>2021-04-29T18:51:18.152Z</time>
      </trkpt>
      <trkpt lat="45.49992" lon="3.02934">
        <ele>689.758955</ele>
        <time>2021-04-29T18:52:01.815Z</time>
      </trkpt>
      <trkpt lat="45.49894" lon="3.03021">
        <ele>695.425861</ele>
        <time>2021-04-29T18:52:53.298Z</time>
      </trkpt>
      <trkpt lat="45.4987" lon="3.03014">
        <ele>696.655251</ele>
        <time>2021-04-29T18:53:04.742Z</time>
      </trkpt>
      <trkpt lat="45.49852" lon="3.02984">
        <ele>698.013543</ele>
        <time>2021-04-29T18:53:14.573Z</time>
      </trkpt>
      <trkpt lat="45.49841" lon="3.02959">
        <ele>698.705618</ele>
        <time>2021-04-29T18:53:20.685Z</time>
      </trkpt>
      <trkpt lat="45.49827" lon="3.02925">
        <ele>699.323039</ele>
        <time>2021-04-29T18:53:30.630Z</time>
      </trkpt>
      <trkpt lat="45.49828" lon="3.02907">
        <ele>699.612332</ele>
        <time>2021-04-29T18:53:33.892Z</time>
      </trkpt>
      <trkpt lat="45.49837" lon="3.02881">
        <ele>700.067478</ele>
        <time>2021-04-29T18:53:41.173Z</time>
      </trkpt>
      <trkpt lat="45.49886" lon="3.02825">
        <ele>701.476211</ele>
        <time>2021-04-29T18:53:57.772Z</time>
      </trkpt>
      <trkpt lat="45.49908" lon="3.02786">
        <ele>702.274948</ele>
        <time>2021-04-29T18:54:07.338Z</time>
      </trkpt>
      <trkpt lat="45.49921" lon="3.02738">
        <ele>703.155638</ele>
        <time>2021-04-29T18:54:19.742Z</time>
      </trkpt>
      <trkpt lat="45.49923" lon="3.02698">
        <ele>703.865611</ele>
        <time>2021-04-29T18:54:30.063Z</time>
      </trkpt>
      <trkpt lat="45.49916" lon="3.02653">
        <ele>704.666339</ele>
        <time>2021-04-29T18:54:41.501Z</time>
      </trkpt>
      <trkpt lat="45.49895" lon="3.02598">
        <ele>705.763548</ele>
        <time>2021-04-29T18:54:56.509Z</time>
      </trkpt>
      <trkpt lat="45.49872" lon="3.02566">
        <ele>706.574757</ele>
        <time>2021-04-29T18:55:06.925Z</time>
      </trkpt>
      <trkpt lat="45.49829" lon="3.02532">
        <ele>706.665263</ele>
        <time>2021-04-29T18:55:21.183Z</time>
      </trkpt>
      <trkpt lat="45.49817" lon="3.0251">
        <ele>706.472991</ele>
        <time>2021-04-29T18:55:25.321Z</time>
      </trkpt>
      <trkpt lat="45.49812" lon="3.02484">
        <ele>706.281118</ele>
        <time>2021-04-29T18:55:28.912Z</time>
      </trkpt>
      <trkpt lat="45.49819" lon="3.02375">
        <ele>705.508313</ele>
        <time>2021-04-29T18:55:41.748Z</time>
      </trkpt>
      <trkpt lat="45.49813" lon="3.02324">
        <ele>705.327321</ele>
        <time>2021-04-29T18:55:48.160Z</time>
      </trkpt>
      <trkpt lat="45.49804" lon="3.02282">
        <ele>706.259878</ele>
        <time>2021-04-29T18:55:54.236Z</time>
      </trkpt>
      <trkpt lat="45.49777" lon="3.02242">
        <ele>707.427013</ele>
        <time>2021-04-29T18:56:03.583Z</time>
      </trkpt>
      <trkpt lat="45.49767" lon="3.02228">
        <ele>707.84092</ele>
        <time>2021-04-29T18:56:06.424Z</time>
      </trkpt>
      <trkpt lat="45.49761" lon="3.02215">
        <ele>708.174595</ele>
        <time>2021-04-29T18:56:12.460Z</time>
      </trkpt>
      <trkpt lat="45.49755" lon="3.02195">
        <ele>708.642115</ele>
        <time>2021-04-29T18:56:16.657Z</time>
      </trkpt>
      <trkpt lat="45.49742" lon="3.02061">
        <ele>713.075033</ele>
        <time>2021-04-29T18:57:04.620Z</time>
      </trkpt>
      <trkpt lat="45.49734" lon="3.02029">
        <ele>715.058864</ele>
        <time>2021-04-29T18:57:17.808Z</time>
      </trkpt>
      <trkpt lat="45.49727" lon="3.02012">
        <ele>716.202154</ele>
        <time>2021-04-29T18:57:28.842Z</time>
      </trkpt>
      <trkpt lat="45.49724" lon="3.0199">
        <ele>717.502004</ele>
        <time>2021-04-29T18:57:38.593Z</time>
      </trkpt>
      <trkpt lat="45.49717" lon="3.01948">
        <ele>720.07307</ele>
        <time>2021-04-29T18:57:57.737Z</time>
      </trkpt>
      <trkpt lat="45.49711" lon="3.01891">
        <ele>723.432947</ele>
        <time>2021-04-29T18:58:20.769Z</time>
      </trkpt>
      <trkpt lat="45.49704" lon="3.0187">
        <ele>724.777136</ele>
        <time>2021-04-29T18:58:29.787Z</time>
      </trkpt>
      <trkpt lat="45.49656" lon="3.01793">
        <ele>726.878407</ele>
        <time>2021-04-29T18:59:01.244Z</time>
      </trkpt>
      <trkpt lat="45.4964" lon="3.01758">
        <ele>727.445685</ele>
        <time>2021-04-29T18:59:10.453Z</time>
      </trkpt>
      <trkpt lat="45.49632" lon="3.01718">
        <ele>728.009937</ele>
        <time>2021-04-29T18:59:17.430Z</time>
      </trkpt>
      <trkpt lat="45.49632" lon="3.01679">
        <ele>728.551793</ele>
        <time>2021-04-29T18:59:22.863Z</time>
      </trkpt>
      <trkpt lat="45.49643" lon="3.0165">
        <ele>729.000228</ele>
        <time>2021-04-29T18:59:26.976Z</time>
      </trkpt>
      <trkpt lat="45.49661" lon="3.0163">
        <ele>728.932203</ele>
        <time>2021-04-29T18:59:30.842Z</time>
      </trkpt>
      <trkpt lat="45.49686" lon="3.01617">
        <ele>728.481731</ele>
        <time>2021-04-29T18:59:35.146Z</time>
      </trkpt>
      <trkpt lat="45.49765" lon="3.01625">
        <ele>727.126852</ele>
        <time>2021-04-29T18:59:48.390Z</time>
      </trkpt>
      <trkpt lat="45.49785" lon="3.01613">
        <ele>726.756246</ele>
        <time>2021-04-29T18:59:52.326Z</time>
      </trkpt>
      <trkpt lat="45.49799" lon="3.01589">
        <ele>726.384525</ele>
        <time>2021-04-29T18:59:56.717Z</time>
      </trkpt>
      <trkpt lat="45.49803" lon="3.01563">
        <ele>726.137443</ele>
        <time>2021-04-29T19:00:00.652Z</time>
      </trkpt>
      <trkpt lat="45.498" lon="3.01455">
        <ele>727.897512</ele>
        <time>2021-04-29T19:00:21.737Z</time>
      </trkpt>
      <trkpt lat="45.49807" lon="3.01418">
        <ele>728.535686</ele>
        <time>2021-04-29T19:00:30.885Z</time>
      </trkpt>
      <trkpt lat="45.49819" lon="3.01377">
        <ele>729.25523</ele>
        <time>2021-04-29T19:00:42.089Z</time>
      </trkpt>
      <trkpt lat="45.49886" lon="3.01273">
        <ele>732.321168</ele>
        <time>2021-04-29T19:01:19.781Z</time>
      </trkpt>
      <trkpt lat="45.49896" lon="3.01246">
        <ele>733.121471</ele>
        <time>2021-04-29T19:01:28.070Z</time>
      </trkpt>
      <trkpt lat="45.49899" lon="3.01176">
        <ele>734.951847</ele>
        <time>2021-04-29T19:01:46.903Z</time>
      </trkpt>
      <trkpt lat="45.49888" lon="3.011">
        <ele>737.007014</ele>
        <time>2021-04-29T19:02:06.986Z</time>
      </trkpt>
      <trkpt lat="45.49817" lon="3.01001">
        <ele>738.687001</ele>
        <time>2021-04-29T19:02:39.935Z</time>
      </trkpt>
      <trkpt lat="45.49751" lon="3.00887">
        <ele>739.60725</ele>
        <time>2021-04-29T19:03:04.968Z</time>
      </trkpt>
      <trkpt lat="45.49737" lon="3.00868">
        <ele>739.235045</ele>
        <time>2021-04-29T19:03:08.617Z</time>
      </trkpt>
      <trkpt lat="45.49706" lon="3.0084">
        <ele>738.525527</ele>
        <time>2021-04-29T19:03:15.239Z</time>
      </trkpt>
      <trkpt lat="45.49698" lon="3.0084">
        <ele>738.387535</ele>
        <time>2021-04-29T19:03:16.494Z</time>
      </trkpt>
      <trkpt lat="45.49575" lon="3.00769">
        <ele>735.455318</ele>
        <time>2021-04-29T19:03:38.547Z</time>
      </trkpt>
      <trkpt lat="45.49541" lon="3.00749">
        <ele>734.433444</ele>
        <time>2021-04-29T19:03:44.461Z</time>
      </trkpt>
      <trkpt lat="45.49422" lon="3.00633">
        <ele>730.777769</ele>
        <time>2021-04-29T19:04:08.529Z</time>
      </trkpt>
      <trkpt lat="45.49369" lon="3.00589">
        <ele>729.723668</ele>
        <time>2021-04-29T19:04:19.328Z</time>
      </trkpt>
      <trkpt lat="45.49349" lon="3.00574">
        <ele>729.324816</ele>
        <time>2021-04-29T19:04:23.441Z</time>
      </trkpt>
      <trkpt lat="45.49297" lon="3.00545">
        <ele>728.373455</ele>
        <time>2021-04-29T19:04:34.030Z</time>
      </trkpt>
      <trkpt lat="45.49217" lon="3.00468">
        <ele>728.979293</ele>
        <time>2021-04-29T19:04:56.385Z</time>
      </trkpt>
      <trkpt lat="45.49176" lon="3.00439">
        <ele>729.267391</ele>
        <time>2021-04-29T19:05:09.003Z</time>
      </trkpt>
      <trkpt lat="45.49145" lon="3.00424">
        <ele>729.473575</ele>
        <time>2021-04-29T19:05:18.360Z</time>
      </trkpt>
      <trkpt lat="45.49137" lon="3.00421">
        <ele>729.559483</ele>
        <time>2021-04-29T19:05:20.703Z</time>
      </trkpt>
      <trkpt lat="45.49035" lon="3.00328">
        <ele>731.597936</ele>
        <time>2021-04-29T19:05:55.568Z</time>
      </trkpt>
      <trkpt lat="45.48952" lon="3.00204">
        <ele>734.38896</ele>
        <time>2021-04-29T19:06:31.126Z</time>
      </trkpt>
      <trkpt lat="45.48924" lon="3.00175">
        <ele>735.387457</ele>
        <time>2021-04-29T19:06:42.365Z</time>
      </trkpt>
      <trkpt lat="45.48693" lon="2.99987">
        <ele>744.919315</ele>
        <time>2021-04-29T19:08:22.389Z</time>
      </trkpt>
      <trkpt lat="45.48616" lon="2.99858">
        <ele>749.800194</ele>
        <time>2021-04-29T19:09:09.906Z</time>
      </trkpt>
      <trkpt lat="45.48567" lon="2.99799">
        <ele>752.315962</ele>
        <time>2021-04-29T19:09:34.179Z</time>
      </trkpt>
      <trkpt lat="45.48523" lon="2.99768">
        <ele>753.750493</ele>
        <time>2021-04-29T19:09:51.956Z</time>
      </trkpt>
      <trkpt lat="45.48411" lon="2.99647">
        <ele>757.804542</ele>
        <time>2021-04-29T19:10:37.269Z</time>
      </trkpt>
      <trkpt lat="45.48397" lon="2.99625">
        <ele>758.398596</ele>
        <time>2021-04-29T19:10:43.786Z</time>
      </trkpt>
      <trkpt lat="45.48375" lon="2.99586">
        <ele>759.388577</ele>
        <time>2021-04-29T19:10:54.935Z</time>
      </trkpt>
      <trkpt lat="45.48338" lon="2.99535">
        <ele>760.859211</ele>
        <time>2021-04-29T19:11:11.875Z</time>
      </trkpt>
      <trkpt lat="45.48326" lon="2.99523">
        <ele>761.288658</ele>
        <time>2021-04-29T19:11:16.698Z</time>
      </trkpt>
      <trkpt lat="45.48244" lon="2.99487">
        <ele>763.998021</ele>
        <time>2021-04-29T19:11:48.879Z</time>
      </trkpt>
      <trkpt lat="45.48228" lon="2.99476">
        <ele>764.60133</ele>
        <time>2021-04-29T19:11:55.575Z</time>
      </trkpt>
      <trkpt lat="45.48194" lon="2.99435">
        <ele>766.123595</ele>
        <time>2021-04-29T19:12:12.252Z</time>
      </trkpt>
      <trkpt lat="45.48179" lon="2.99419">
        <ele>766.770682</ele>
        <time>2021-04-29T19:12:18.942Z</time>
      </trkpt>
      <trkpt lat="45.48161" lon="2.99403">
        <ele>767.493649</ele>
        <time>2021-04-29T19:12:26.645Z</time>
      </trkpt>
      <trkpt lat="45.48086" lon="2.99378">
        <ele>768.893576</ele>
        <time>2021-04-29T19:12:52.003Z</time>
      </trkpt>
      <trkpt lat="45.48045" lon="2.99342">
        <ele>769.250376</ele>
        <time>2021-04-29T19:13:05.762Z</time>
      </trkpt>
      <trkpt lat="45.47998" lon="2.99276">
        <ele>769.736317</ele>
        <time>2021-04-29T19:13:19.661Z</time>
      </trkpt>
      <trkpt lat="45.47947" lon="2.99158">
        <ele>768.407347</ele>
        <time>2021-04-29T19:13:36.970Z</time>
      </trkpt>
      <trkpt lat="45.47928" lon="2.99125">
        <ele>767.833264</ele>
        <time>2021-04-29T19:13:42.177Z</time>
      </trkpt>
      <trkpt lat="45.47853" lon="2.99025">
        <ele>766.217044</ele>
        <time>2021-04-29T19:13:59.964Z</time>
      </trkpt>
      <trkpt lat="45.47825" lon="2.98999">
        <ele>765.938056</ele>
        <time>2021-04-29T19:14:06.136Z</time>
      </trkpt>
      <trkpt lat="45.47787" lon="2.98977">
        <ele>765.598794</ele>
        <time>2021-04-29T19:14:14.092Z</time>
      </trkpt>
      <trkpt lat="45.47716" lon="2.98963">
        <ele>765.007809</ele>
        <time>2021-04-29T19:14:29.421Z</time>
      </trkpt>
      <trkpt lat="45.47682" lon="2.98961">
        <ele>765.547291</ele>
        <time>2021-04-29T19:14:38.218Z</time>
      </trkpt>
      <trkpt lat="45.47599" lon="2.98974">
        <ele>767.061964</ele>
        <time>2021-04-29T19:15:02.291Z</time>
      </trkpt>
      <trkpt lat="45.47567" lon="2.98961">
        <ele>767.669557</ele>
        <time>2021-04-29T19:15:12.725Z</time>
      </trkpt>
      <trkpt lat="45.47558" lon="2.98955">
        <ele>767.844215</ele>
        <time>2021-04-29T19:15:16.077Z</time>
      </trkpt>
      <trkpt lat="45.47373" lon="2.98831">
        <ele>774.444687</ele>
        <time>2021-04-29T19:16:28.641Z</time>
      </trkpt>
      <trkpt lat="45.47358" lon="2.98824">
        <ele>775.068102</ele>
        <time>2021-04-29T19:16:34.822Z</time>
      </trkpt>
      <trkpt lat="45.4729" lon="2.98807">
        <ele>777.861889</ele>
        <time>2021-04-29T19:17:02.231Z</time>
      </trkpt>
      <trkpt lat="45.47251" lon="2.98791">
        <ele>779.535429</ele>
        <time>2021-04-29T19:17:18.228Z</time>
      </trkpt>
      <trkpt lat="45.47222" lon="2.98779">
        <ele>780.75136</ele>
        <time>2021-04-29T19:17:29.663Z</time>
      </trkpt>
      <trkpt lat="45.47214" lon="2.98775">
        <ele>781.087778</ele>
        <time>2021-04-29T19:17:32.952Z</time>
      </trkpt>
      <trkpt lat="45.4711" lon="2.98709">
        <ele>785.662577</ele>
        <time>2021-04-29T19:18:16.651Z</time>
      </trkpt>
      <trkpt lat="45.47085" lon="2.98709">
        <ele>786.671638</ele>
        <time>2021-04-29T19:18:25.831Z</time>
      </trkpt>
      <trkpt lat="45.47007" lon="2.98734">
        <ele>789.683202</ele>
        <time>2021-04-29T19:18:56.153Z</time>
      </trkpt>
      <trkpt lat="45.46922" lon="2.98772">
        <ele>792.617051</ele>
        <time>2021-04-29T19:19:32.101Z</time>
      </trkpt>
      <trkpt lat="45.46905" lon="2.98781">
        <ele>793.2291</ele>
        <time>2021-04-29T19:19:38.586Z</time>
      </trkpt>
      <trkpt lat="45.46891" lon="2.98784">
        <ele>793.690631</ele>
        <time>2021-04-29T19:19:43.034Z</time>
      </trkpt>
      <trkpt lat="45.46845" lon="2.98782">
        <ele>794.797785</ele>
        <time>2021-04-29T19:19:55.438Z</time>
      </trkpt>
      <trkpt lat="45.4681" lon="2.98772">
        <ele>794.85256</ele>
        <time>2021-04-29T19:20:03.713Z</time>
      </trkpt>
      <trkpt lat="45.46802" lon="2.98769">
        <ele>794.864087</ele>
        <time>2021-04-29T19:20:05.145Z</time>
      </trkpt>
      <trkpt lat="45.46789" lon="2.9876">
        <ele>794.887576</ele>
        <time>2021-04-29T19:20:09.892Z</time>
      </trkpt>
      <trkpt lat="45.46778" lon="2.98756">
        <ele>794.905193</ele>
        <time>2021-04-29T19:20:12.406Z</time>
      </trkpt>
      <trkpt lat="45.46762" lon="2.9875">
        <ele>794.930121</ele>
        <time>2021-04-29T19:20:15.991Z</time>
      </trkpt>
      <trkpt lat="45.46741" lon="2.98742">
        <ele>794.963337</ele>
        <time>2021-04-29T19:20:21.178Z</time>
      </trkpt>
      <trkpt lat="45.46731" lon="2.98742">
        <ele>794.97858</ele>
        <time>2021-04-29T19:20:22.851Z</time>
      </trkpt>
      <trkpt lat="45.4673" lon="2.98742">
        <ele>794.981044</ele>
        <time>2021-04-29T19:20:23.144Z</time>
      </trkpt>
      <trkpt lat="45.46719" lon="2.98741">
        <ele>794.996752</ele>
        <time>2021-04-29T19:20:26.010Z</time>
      </trkpt>
      <trkpt lat="45.46695" lon="2.98746">
        <ele>795.03473</ele>
        <time>2021-04-29T19:20:30.393Z</time>
      </trkpt>
      <trkpt lat="45.46684" lon="2.9875">
        <ele>795.05262</ele>
        <time>2021-04-29T19:20:33.532Z</time>
      </trkpt>
      <trkpt lat="45.46663" lon="2.98762">
        <ele>795.140521</ele>
        <time>2021-04-29T19:20:37.400Z</time>
      </trkpt>
      <trkpt lat="45.46649" lon="2.98772">
        <ele>795.20404</ele>
        <time>2021-04-29T19:20:41.130Z</time>
      </trkpt>
      <trkpt lat="45.46596" lon="2.98817">
        <ele>795.459536</ele>
        <time>2021-04-29T19:20:53.629Z</time>
      </trkpt>
      <trkpt lat="45.46571" lon="2.98826">
        <ele>795.563263</ele>
        <time>2021-04-29T19:21:00.487Z</time>
      </trkpt>
      <trkpt lat="45.46528" lon="2.98832">
        <ele>795.739647</ele>
        <time>2021-04-29T19:21:13.458Z</time>
      </trkpt>
      <trkpt lat="45.46477" lon="2.98839">
        <ele>796.469571</ele>
        <time>2021-04-29T19:21:29.100Z</time>
      </trkpt>
      <trkpt lat="45.4643" lon="2.98842">
        <ele>797.283328</ele>
        <time>2021-04-29T19:21:42.350Z</time>
      </trkpt>
      <trkpt lat="45.4641" lon="2.98837">
        <ele>797.640594</ele>
        <time>2021-04-29T19:21:48.240Z</time>
      </trkpt>
      <trkpt lat="45.46286" lon="2.98769">
        <ele>800.43052</ele>
        <time>2021-04-29T19:22:26.716Z</time>
      </trkpt>
      <trkpt lat="45.4605" lon="2.98718">
        <ele>807.081064</ele>
        <time>2021-04-29T19:23:48.875Z</time>
      </trkpt>
      <trkpt lat="45.4602" lon="2.98705">
        <ele>808.026626</ele>
        <time>2021-04-29T19:23:59.975Z</time>
      </trkpt>
      <trkpt lat="45.45889" lon="2.98601">
        <ele>812.232634</ele>
        <time>2021-04-29T19:24:49.696Z</time>
      </trkpt>
      <trkpt lat="45.45835" lon="2.98532">
        <ele>814.208464</ele>
        <time>2021-04-29T19:25:13.696Z</time>
      </trkpt>
      <trkpt lat="45.45771" lon="2.98493">
        <ele>816.087501</ele>
        <time>2021-04-29T19:25:37.307Z</time>
      </trkpt>
      <trkpt lat="45.45741" lon="2.98477">
        <ele>816.943283</ele>
        <time>2021-04-29T19:25:48.088Z</time>
      </trkpt>
      <trkpt lat="45.45654" lon="2.98429">
        <ele>819.702683</ele>
        <time>2021-04-29T19:26:17.040Z</time>
      </trkpt>
      <trkpt lat="45.4563" lon="2.98415">
        <ele>820.614106</ele>
        <time>2021-04-29T19:26:26.024Z</time>
      </trkpt>
      <trkpt lat="45.45621" lon="2.984">
        <ele>821.107979</ele>
        <time>2021-04-29T19:26:30.923Z</time>
      </trkpt>
      <trkpt lat="45.45615" lon="2.98385">
        <ele>821.536137</ele>
        <time>2021-04-29T19:26:35.951Z</time>
      </trkpt>
      <trkpt lat="45.45614" lon="2.98379">
        <ele>821.697049</ele>
        <time>2021-04-29T19:26:37.279Z</time>
      </trkpt>
      <trkpt lat="45.45613" lon="2.98365">
        <ele>822.048124</ele>
        <time>2021-04-29T19:26:40.663Z</time>
      </trkpt>
      <trkpt lat="45.45613" lon="2.98349">
        <ele>822.439447</ele>
        <time>2021-04-29T19:26:44.580Z</time>
      </trkpt>
      <trkpt lat="45.4561" lon="2.98328">
        <ele>822.984403</ele>
        <time>2021-04-29T19:26:50.559Z</time>
      </trkpt>
      <trkpt lat="45.45595" lon="2.98296">
        <ele>823.9335</ele>
        <time>2021-04-29T19:27:00.759Z</time>
      </trkpt>
      <trkpt lat="45.45587" lon="2.98207">
        <ele>826.678352</ele>
        <time>2021-04-29T19:27:25.846Z</time>
      </trkpt>
      <trkpt lat="45.45558" lon="2.98136">
        <ele>829.74888</ele>
        <time>2021-04-29T19:27:51.463Z</time>
      </trkpt>
      <trkpt lat="45.45558" lon="2.98112">
        <ele>830.647134</ele>
        <time>2021-04-29T19:27:59.456Z</time>
      </trkpt>
      <trkpt lat="45.4557" lon="2.98053">
        <ele>832.932727</ele>
        <time>2021-04-29T19:28:19.711Z</time>
      </trkpt>
      <trkpt lat="45.45555" lon="2.98019">
        <ele>834.404388</ele>
        <time>2021-04-29T19:28:32.586Z</time>
      </trkpt>
      <trkpt lat="45.452" lon="2.97604">
        <ele>853.55785</ele>
        <time>2021-04-29T19:31:33.384Z</time>
      </trkpt>
      <trkpt lat="45.45139" lon="2.97539">
        <ele>856.068983</ele>
        <time>2021-04-29T19:31:57.781Z</time>
      </trkpt>
      <trkpt lat="45.45078" lon="2.9746">
        <ele>857.767148</ele>
        <time>2021-04-29T19:32:21.868Z</time>
      </trkpt>
      <trkpt lat="45.44989" lon="2.97321">
        <ele>860.541364</ele>
        <time>2021-04-29T19:33:00.644Z</time>
      </trkpt>
      <trkpt lat="45.44905" lon="2.97173">
        <ele>864.367701</ele>
        <time>2021-04-29T19:33:47.259Z</time>
      </trkpt>
      <trkpt lat="45.44901" lon="2.97167">
        <ele>864.505837</ele>
        <time>2021-04-29T19:33:49.570Z</time>
      </trkpt>
      <trkpt lat="45.4488" lon="2.97129">
        <ele>865.431767</ele>
        <time>2021-04-29T19:34:01.724Z</time>
      </trkpt>
      <trkpt lat="45.44446" lon="2.96366">
        <ele>883.169449</ele>
        <time>2021-04-29T19:37:43.821Z</time>
      </trkpt>
      <trkpt lat="45.44434" lon="2.96346">
        <ele>883.71636</ele>
        <time>2021-04-29T19:37:50.112Z</time>
      </trkpt>
      <trkpt lat="45.44308" lon="2.96125">
        <ele>891.583576</ele>
        <time>2021-04-29T19:39:05.274Z</time>
      </trkpt>
      <trkpt lat="45.44299" lon="2.96093">
        <ele>892.847513</ele>
        <time>2021-04-29T19:39:15.402Z</time>
      </trkpt>
      <trkpt lat="45.4429" lon="2.96001">
        <ele>896.214125</ele>
        <time>2021-04-29T19:39:43.284Z</time>
      </trkpt>
      <trkpt lat="45.44287" lon="2.95969">
        <ele>897.397633</ele>
        <time>2021-04-29T19:39:53.864Z</time>
      </trkpt>
      <trkpt lat="45.4429" lon="2.95936">
        <ele>898.62298</ele>
        <time>2021-04-29T19:40:04.525Z</time>
      </trkpt>
      <trkpt lat="45.44327" lon="2.95831">
        <ele>903.089605</ele>
        <time>2021-04-29T19:40:44.231Z</time>
      </trkpt>
      <trkpt lat="45.44335" lon="2.95793">
        <ele>904.610142</ele>
        <time>2021-04-29T19:40:57.158Z</time>
      </trkpt>
      <trkpt lat="45.44333" lon="2.95661">
        <ele>909.535913</ele>
        <time>2021-04-29T19:41:36.313Z</time>
      </trkpt>
      <trkpt lat="45.44323" lon="2.95623">
        <ele>910.362805</ele>
        <time>2021-04-29T19:41:47.486Z</time>
      </trkpt>
      <trkpt lat="45.44248" lon="2.95448">
        <ele>914.56886</ele>
        <time>2021-04-29T19:42:34.676Z</time>
      </trkpt>
      <trkpt lat="45.44132" lon="2.9524">
        <ele>917.461169</ele>
        <time>2021-04-29T19:43:24.823Z</time>
      </trkpt>
      <trkpt lat="45.44089" lon="2.95161">
        <ele>919.463342</ele>
        <time>2021-04-29T19:43:47.719Z</time>
      </trkpt>
      <trkpt lat="45.44025" lon="2.95047">
        <ele>922.384298</ele>
        <time>2021-04-29T19:44:24.195Z</time>
      </trkpt>
      <trkpt lat="45.4401" lon="2.95012">
        <ele>923.350468</ele>
        <time>2021-04-29T19:44:34.813Z</time>
      </trkpt>
      <trkpt lat="45.43999" lon="2.9496">
        <ele>924.625036</ele>
        <time>2021-04-29T19:44:48.494Z</time>
      </trkpt>
      <trkpt lat="45.44003" lon="2.9471">
        <ele>930.822265</ele>
        <time>2021-04-29T19:45:50.838Z</time>
      </trkpt>
      <trkpt lat="45.44008" lon="2.94395">
        <ele>939.476941</ele>
        <time>2021-04-29T19:47:16.170Z</time>
      </trkpt>
      <trkpt lat="45.44017" lon="2.93942">
        <ele>952.602572</ele>
        <time>2021-04-29T19:49:18.272Z</time>
      </trkpt>
      <trkpt lat="45.4402" lon="2.93922">
        <ele>953.240158</ele>
        <time>2021-04-29T19:49:24.134Z</time>
      </trkpt>
      <trkpt lat="45.44053" lon="2.93845">
        <ele>956.111679</ele>
        <time>2021-04-29T19:49:49.953Z</time>
      </trkpt>
      <trkpt lat="45.4406" lon="2.93826">
        <ele>956.790154</ele>
        <time>2021-04-29T19:49:56.462Z</time>
      </trkpt>
      <trkpt lat="45.44063" lon="2.93811">
        <ele>957.281533</ele>
        <time>2021-04-29T19:50:00.750Z</time>
      </trkpt>
      <trkpt lat="45.44059" lon="2.93719">
        <ele>960.505013</ele>
        <time>2021-04-29T19:50:28.279Z</time>
      </trkpt>
      <trkpt lat="45.44102" lon="2.93654">
        <ele>963.726036</ele>
        <time>2021-04-29T19:50:55.884Z</time>
      </trkpt>
      <trkpt lat="45.44121" lon="2.93619">
        <ele>965.350142</ele>
        <time>2021-04-29T19:51:08.992Z</time>
      </trkpt>
      <trkpt lat="45.44143" lon="2.93579">
        <ele>967.155186</ele>
        <time>2021-04-29T19:51:23.615Z</time>
      </trkpt>
      <trkpt lat="45.4416" lon="2.93538">
        <ele>969.010189</ele>
        <time>2021-04-29T19:51:37.609Z</time>
      </trkpt>
      <trkpt lat="45.44164" lon="2.93527">
        <ele>969.546993</ele>
        <time>2021-04-29T19:51:42.199Z</time>
      </trkpt>
      <trkpt lat="45.44182" lon="2.93479">
        <ele>971.682631</ele>
        <time>2021-04-29T19:51:59.984Z</time>
      </trkpt>
      <trkpt lat="45.44192" lon="2.93435">
        <ele>973.497742</ele>
        <time>2021-04-29T19:52:14.957Z</time>
      </trkpt>
      <trkpt lat="45.44188" lon="2.93328">
        <ele>977.6673</ele>
        <time>2021-04-29T19:52:49.552Z</time>
      </trkpt>
      <trkpt lat="45.44197" lon="2.93291">
        <ele>978.851386</ele>
        <time>2021-04-29T19:53:00.528Z</time>
      </trkpt>
      <trkpt lat="45.44199" lon="2.9328">
        <ele>979.189394</ele>
        <time>2021-04-29T19:53:04.789Z</time>
      </trkpt>
      <trkpt lat="45.44205" lon="2.93254">
        <ele>980.025944</ele>
        <time>2021-04-29T19:53:11.925Z</time>
      </trkpt>
      <trkpt lat="45.44206" lon="2.93216">
        <ele>981.172862</ele>
        <time>2021-04-29T19:53:22.562Z</time>
      </trkpt>
      <trkpt lat="45.4418" lon="2.93128">
        <ele>984.020406</ele>
        <time>2021-04-29T19:53:48.043Z</time>
      </trkpt>
      <trkpt lat="45.44176" lon="2.93095">
        <ele>985.05131</ele>
        <time>2021-04-29T19:53:56.572Z</time>
      </trkpt>
      <trkpt lat="45.44172" lon="2.92984">
        <ele>987.202832</ele>
        <time>2021-04-29T19:54:24.065Z</time>
      </trkpt>
      <trkpt lat="45.44174" lon="2.92958">
        <ele>987.694648</ele>
        <time>2021-04-29T19:54:29.881Z</time>
      </trkpt>
      <trkpt lat="45.44192" lon="2.92907">
        <ele>988.763009</ele>
        <time>2021-04-29T19:54:42.143Z</time>
      </trkpt>
      <trkpt lat="45.442" lon="2.92874">
        <ele>989.412056</ele>
        <time>2021-04-29T19:54:49.776Z</time>
      </trkpt>
      <trkpt lat="45.44194" lon="2.92834">
        <ele>990.130837</ele>
        <time>2021-04-29T19:54:58.660Z</time>
      </trkpt>
      <trkpt lat="45.44192" lon="2.92819">
        <ele>990.335033</ele>
        <time>2021-04-29T19:55:02.279Z</time>
      </trkpt>
      <trkpt lat="45.44181" lon="2.92772">
        <ele>990.945172</ele>
        <time>2021-04-29T19:55:12.857Z</time>
      </trkpt>
      <trkpt lat="45.44172" lon="2.92738">
        <ele>991.410157</ele>
        <time>2021-04-29T19:55:20.698Z</time>
      </trkpt>
      <trkpt lat="45.44166" lon="2.92728">
        <ele>991.579363</ele>
        <time>2021-04-29T19:55:23.307Z</time>
      </trkpt>
      <trkpt lat="45.4417" lon="2.92718">
        <ele>991.723932</ele>
        <time>2021-04-29T19:55:25.904Z</time>
      </trkpt>
      <trkpt lat="45.44173" lon="2.92709">
        <ele>991.846074</ele>
        <time>2021-04-29T19:55:27.879Z</time>
      </trkpt>
      <trkpt lat="45.44174" lon="2.92703">
        <ele>991.926893</ele>
        <time>2021-04-29T19:55:29.284Z</time>
      </trkpt>
      <trkpt lat="45.4417" lon="2.92688">
        <ele>992.118318</ele>
        <time>2021-04-29T19:55:32.303Z</time>
      </trkpt>
      <trkpt lat="45.44165" lon="2.92671">
        <ele>992.355526</ele>
        <time>2021-04-29T19:55:36.207Z</time>
      </trkpt>
      <trkpt lat="45.44161" lon="2.92657">
        <ele>992.540875</ele>
        <time>2021-04-29T19:55:39.109Z</time>
      </trkpt>
      <trkpt lat="45.44163" lon="2.92631">
        <ele>992.876725</ele>
        <time>2021-04-29T19:55:44.009Z</time>
      </trkpt>
      <trkpt lat="45.44163" lon="2.92631">
        <ele>992.876725</ele>
        <time>2021-04-29T19:55:44.070Z</time>
      </trkpt>
      <trkpt lat="45.44171" lon="2.92618">
        <ele>993.096731</ele>
        <time>2021-04-29T19:55:47.478Z</time>
      </trkpt>
      <trkpt lat="45.44253" lon="2.9252">
        <ele>993.914439</ele>
        <time>2021-04-29T19:56:16.591Z</time>
      </trkpt>
      <trkpt lat="45.44269" lon="2.92502">
        <ele>994.051063</ele>
        <time>2021-04-29T19:56:21.311Z</time>
      </trkpt>
      <trkpt lat="45.44271" lon="2.92487">
        <ele>994.12384</ele>
        <time>2021-04-29T19:56:24.156Z</time>
      </trkpt>
      <trkpt lat="45.44293" lon="2.92439">
        <ele>994.392162</ele>
        <time>2021-04-29T19:56:32.499Z</time>
      </trkpt>
      <trkpt lat="45.44309" lon="2.92409">
        <ele>994.528495</ele>
        <time>2021-04-29T19:56:37.941Z</time>
      </trkpt>
      <trkpt lat="45.4433" lon="2.92369">
        <ele>994.670108</ele>
        <time>2021-04-29T19:56:45.468Z</time>
      </trkpt>
      <trkpt lat="45.44339" lon="2.9235">
        <ele>994.737449</ele>
        <time>2021-04-29T19:56:49.458Z</time>
      </trkpt>
      <trkpt lat="45.44352" lon="2.92335">
        <ele>994.804493</ele>
        <time>2021-04-29T19:56:54.162Z</time>
      </trkpt>
      <trkpt lat="45.44358" lon="2.92315">
        <ele>994.866046</ele>
        <time>2021-04-29T19:56:58.830Z</time>
      </trkpt>
      <trkpt lat="45.44358" lon="2.92311">
        <ele>994.87923</ele>
        <time>2021-04-29T19:56:59.886Z</time>
      </trkpt>
      <trkpt lat="45.44357" lon="2.92296">
        <ele>994.920475</ele>
        <time>2021-04-29T19:57:03.047Z</time>
      </trkpt>
      <trkpt lat="45.44352" lon="2.9228">
        <ele>994.969065</ele>
        <time>2021-04-29T19:57:06.354Z</time>
      </trkpt>
      <trkpt lat="45.44353" lon="2.92265">
        <ele>995.013181</ele>
        <time>2021-04-29T19:57:09.244Z</time>
      </trkpt>
      <trkpt lat="45.44347" lon="2.92239">
        <ele>995.091355</ele>
        <time>2021-04-29T19:57:13.969Z</time>
      </trkpt>
      <trkpt lat="45.4433" lon="2.92201">
        <ele>995.408473</ele>
        <time>2021-04-29T19:57:22.631Z</time>
      </trkpt>
      <trkpt lat="45.44282" lon="2.92146">
        <ele>997.42652</ele>
        <time>2021-04-29T19:57:41.385Z</time>
      </trkpt>
      <trkpt lat="45.44272" lon="2.92112">
        <ele>998.261262</ele>
        <time>2021-04-29T19:57:50.185Z</time>
      </trkpt>
      <trkpt lat="45.44269" lon="2.92064">
        <ele>999.381804</ele>
        <time>2021-04-29T19:58:03.466Z</time>
      </trkpt>
      <trkpt lat="45.44261" lon="2.92039">
        <ele>999.992034</ele>
        <time>2021-04-29T19:58:10.926Z</time>
      </trkpt>
      <trkpt lat="45.44246" lon="2.92019">
        <ele>1000.664739</ele>
        <time>2021-04-29T19:58:19.202Z</time>
      </trkpt>
      <trkpt lat="45.44195" lon="2.91979">
        <ele>1003.756861</ele>
        <time>2021-04-29T19:58:44.326Z</time>
      </trkpt>
      <trkpt lat="45.44132" lon="2.91882">
        <ele>1009.235692</ele>
        <time>2021-04-29T19:59:27.313Z</time>
      </trkpt>
      <trkpt lat="45.44107" lon="2.91852">
        <ele>1011.155318</ele>
        <time>2021-04-29T19:59:42.926Z</time>
      </trkpt>
      <trkpt lat="45.4395" lon="2.91711">
        <ele>1023.969783</ele>
        <time>2021-04-29T20:01:16.593Z</time>
      </trkpt>
      <trkpt lat="45.43868" lon="2.91624">
        <ele>1030.761622</ele>
        <time>2021-04-29T20:02:07.905Z</time>
      </trkpt>
      <trkpt lat="45.43858" lon="2.91615">
        <ele>1031.551266</ele>
        <time>2021-04-29T20:02:14.576Z</time>
      </trkpt>
      <trkpt lat="45.4384" lon="2.916">
        <ele>1032.901305</ele>
        <time>2021-04-29T20:02:23.419Z</time>
      </trkpt>
      <trkpt lat="45.43819" lon="2.9159">
        <ele>1034.426759</ele>
        <time>2021-04-29T20:02:34.476Z</time>
      </trkpt>
      <trkpt lat="45.43801" lon="2.91592">
        <ele>1035.602647</ele>
        <time>2021-04-29T20:02:42.041Z</time>
      </trkpt>
      <trkpt lat="45.43779" lon="2.91614">
        <ele>1037.198103</ele>
        <time>2021-04-29T20:02:54.839Z</time>
      </trkpt>
      <trkpt lat="45.43755" lon="2.91626">
        <ele>1038.651371</ele>
        <time>2021-04-29T20:03:07.035Z</time>
      </trkpt>
      <trkpt lat="45.43734" lon="2.91621">
        <ele>1039.851243</ele>
        <time>2021-04-29T20:03:16.302Z</time>
      </trkpt>
      <trkpt lat="45.43696" lon="2.91591">
        <ele>1042.300948</ele>
        <time>2021-04-29T20:03:35.228Z</time>
      </trkpt>
      <trkpt lat="45.43521" lon="2.91397">
        <ele>1054.977993</ele>
        <time>2021-04-29T20:05:14.206Z</time>
      </trkpt>
      <trkpt lat="45.43499" lon="2.91388">
        <ele>1056.273924</ele>
        <time>2021-04-29T20:05:24.781Z</time>
      </trkpt>
      <trkpt lat="45.43374" lon="2.91385">
        <ele>1063.950034</ele>
        <time>2021-04-29T20:06:25.151Z</time>
      </trkpt>
      <trkpt lat="45.43345" lon="2.91368">
        <ele>1065.917246</ele>
        <time>2021-04-29T20:06:39.576Z</time>
      </trkpt>
      <trkpt lat="45.43328" lon="2.91353">
        <ele>1067.115796</ele>
        <time>2021-04-29T20:06:48.783Z</time>
      </trkpt>
      <trkpt lat="45.43262" lon="2.91291">
        <ele>1072.321374</ele>
        <time>2021-04-29T20:07:23.872Z</time>
      </trkpt>
      <trkpt lat="45.43254" lon="2.91294">
        <ele>1072.858271</ele>
        <time>2021-04-29T20:07:27.358Z</time>
      </trkpt>
      <trkpt lat="45.43245" lon="2.91296">
        <ele>1073.429526</ele>
        <time>2021-04-29T20:07:31.982Z</time>
      </trkpt>
      <trkpt lat="45.4318" lon="2.91315">
        <ele>1077.870627</ele>
        <time>2021-04-29T20:08:05.663Z</time>
      </trkpt>
      <trkpt lat="45.43164" lon="2.91324">
        <ele>1078.987324</ele>
        <time>2021-04-29T20:08:14.288Z</time>
      </trkpt>
      <trkpt lat="45.43018" lon="2.91366">
        <ele>1092.729071</ele>
        <time>2021-04-29T20:09:42.109Z</time>
      </trkpt>
      <trkpt lat="45.42998" lon="2.91406">
        <ele>1095.969798</ele>
        <time>2021-04-29T20:10:05.991Z</time>
      </trkpt>
      <trkpt lat="45.42979" lon="2.91413">
        <ele>1098.171446</ele>
        <time>2021-04-29T20:10:19.563Z</time>
      </trkpt>
      <trkpt lat="45.42962" lon="2.91405">
        <ele>1100.309585</ele>
        <time>2021-04-29T20:10:31.827Z</time>
      </trkpt>
      <trkpt lat="45.42929" lon="2.91356">
        <ele>1106.075694</ele>
        <time>2021-04-29T20:11:04.673Z</time>
      </trkpt>
      <trkpt lat="45.42903" lon="2.9133">
        <ele>1109.856345</ele>
        <time>2021-04-29T20:11:28.261Z</time>
      </trkpt>
      <trkpt lat="45.42835" lon="2.91319">
        <ele>1118.189878</ele>
        <time>2021-04-29T20:12:20.626Z</time>
      </trkpt>
      <trkpt lat="45.42775" lon="2.91352">
        <ele>1125.538191</ele>
        <time>2021-04-29T20:13:04.245Z</time>
      </trkpt>
      <trkpt lat="45.42766" lon="2.91351">
        <ele>1126.606574</ele>
        <time>2021-04-29T20:13:12.964Z</time>
      </trkpt>
      <trkpt lat="45.42761" lon="2.91351">
        <ele>1127.245285</ele>
        <time>2021-04-29T20:13:16.355Z</time>
      </trkpt>
      <trkpt lat="45.42752" lon="2.91356">
        <ele>1128.357617</ele>
        <time>2021-04-29T20:13:21.947Z</time>
      </trkpt>
      <trkpt lat="45.42749" lon="2.91359">
        <ele>1128.788293</ele>
        <time>2021-04-29T20:13:24.097Z</time>
      </trkpt>
      <trkpt lat="45.42737" lon="2.91381">
        <ele>1131.038272</ele>
        <time>2021-04-29T20:13:39.440Z</time>
      </trkpt>
      <trkpt lat="45.4273" lon="2.91399">
        <ele>1132.739072</ele>
        <time>2021-04-29T20:13:47.891Z</time>
      </trkpt>
      <trkpt lat="45.42723" lon="2.91445">
        <ele>1136.567585</ele>
        <time>2021-04-29T20:14:10.818Z</time>
      </trkpt>
      <trkpt lat="45.42721" lon="2.91507">
        <ele>1141.115577</ele>
        <time>2021-04-29T20:14:39.432Z</time>
      </trkpt>
      <trkpt lat="45.42703" lon="2.91583">
        <ele>1146.527425</ele>
        <time>2021-04-29T20:15:16.871Z</time>
      </trkpt>
      <trkpt lat="45.42674" lon="2.91597">
        <ele>1149.409853</ele>
        <time>2021-04-29T20:15:34.097Z</time>
      </trkpt>
      <trkpt lat="45.42417" lon="2.91562">
        <ele>1171.631715</ele>
        <time>2021-04-29T20:18:02.441Z</time>
      </trkpt>
      <trkpt lat="45.424" lon="2.91563">
        <ele>1172.528654</ele>
        <time>2021-04-29T20:18:12.217Z</time>
      </trkpt>
      <trkpt lat="45.42389" lon="2.91561">
        <ele>1173.092244</ele>
        <time>2021-04-29T20:18:17.287Z</time>
      </trkpt>
      <trkpt lat="45.42365" lon="2.91564">
        <ele>1174.326968</ele>
        <time>2021-04-29T20:18:29.749Z</time>
      </trkpt>
      <trkpt lat="45.42347" lon="2.91565">
        <ele>1175.258955</ele>
        <time>2021-04-29T20:18:37.479Z</time>
      </trkpt>
      <trkpt lat="45.4234" lon="2.91566">
        <ele>1175.62641</ele>
        <time>2021-04-29T20:18:41.254Z</time>
      </trkpt>
      <trkpt lat="45.42331" lon="2.91534">
        <ele>1176.855805</ele>
        <time>2021-04-29T20:18:51.385Z</time>
      </trkpt>
      <trkpt lat="45.4234" lon="2.91566">
        <ele>1178.0852</ele>
        <time>2021-04-29T20:19:01.831Z</time>
      </trkpt>
      <trkpt lat="45.42335" lon="2.91576">
        <ele>1178.523476</ele>
        <time>2021-04-29T20:19:04.727Z</time>
      </trkpt>
      <trkpt lat="45.42336" lon="2.91588">
        <ele>1178.949441</ele>
        <time>2021-04-29T20:19:07.543Z</time>
      </trkpt>
      <trkpt lat="45.42342" lon="2.91607">
        <ele>1179.712573</ele>
        <time>2021-04-29T20:19:13.761Z</time>
      </trkpt>
      <trkpt lat="45.42353" lon="2.91628">
        <ele>1180.450165</ele>
        <time>2021-04-29T20:19:19.210Z</time>
      </trkpt>
      <trkpt lat="45.42362" lon="2.91647">
        <ele>1180.369027</ele>
        <time>2021-04-29T20:19:24.057Z</time>
      </trkpt>
      <trkpt lat="45.42377" lon="2.91678">
        <ele>1180.232113</ele>
        <time>2021-04-29T20:19:30.529Z</time>
      </trkpt>
      <trkpt lat="45.42408" lon="2.9172">
        <ele>1180.01589</ele>
        <time>2021-04-29T20:19:39.806Z</time>
      </trkpt>
      <trkpt lat="45.42457" lon="2.91803">
        <ele>1179.628345</ele>
        <time>2021-04-29T20:19:54.591Z</time>
      </trkpt>
      <trkpt lat="45.42527" lon="2.91969">
        <ele>1176.247644</ele>
        <time>2021-04-29T20:20:18.234Z</time>
      </trkpt>
      <trkpt lat="45.4264" lon="2.92318">
        <ele>1169.667408</ele>
        <time>2021-04-29T20:21:05.496Z</time>
      </trkpt>
      <trkpt lat="45.42655" lon="2.924">
        <ele>1169.415767</ele>
        <time>2021-04-29T20:21:18.077Z</time>
      </trkpt>
      <trkpt lat="45.42654" lon="2.92494">
        <ele>1169.136189</ele>
        <time>2021-04-29T20:21:34.383Z</time>
      </trkpt>
      <trkpt lat="45.42668" lon="2.92579">
        <ele>1169.54294</ele>
        <time>2021-04-29T20:21:51.836Z</time>
      </trkpt>
      <trkpt lat="45.42688" lon="2.92811">
        <ele>1171.640499</ele>
        <time>2021-04-29T20:22:39.688Z</time>
      </trkpt>
      <trkpt lat="45.42704" lon="2.9295">
        <ele>1172.63612</ele>
        <time>2021-04-29T20:23:06.379Z</time>
      </trkpt>
      <trkpt lat="45.42707" lon="2.93075">
        <ele>1173.628308</ele>
        <time>2021-04-29T20:23:28.834Z</time>
      </trkpt>
      <trkpt lat="45.42777" lon="2.93339">
        <ele>1176.942506</ele>
        <time>2021-04-29T20:24:27.036Z</time>
      </trkpt>
      <trkpt lat="45.42723" lon="2.93389">
        <ele>1178.602429</ele>
        <time>2021-04-29T20:24:49.728Z</time>
      </trkpt>
      <trkpt lat="45.42704" lon="2.93424">
        <ele>1179.396553</ele>
        <time>2021-04-29T20:25:00.751Z</time>
      </trkpt>
      <trkpt lat="45.42661" lon="2.93574">
        <ele>1181.957547</ele>
        <time>2021-04-29T20:25:41.105Z</time>
      </trkpt>
      <trkpt lat="45.42627" lon="2.93712">
        <ele>1184.126711</ele>
        <time>2021-04-29T20:26:11.505Z</time>
      </trkpt>
      <trkpt lat="45.42608" lon="2.93769">
        <ele>1184.398751</ele>
        <time>2021-04-29T20:26:23.079Z</time>
      </trkpt>
      <trkpt lat="45.42571" lon="2.93838">
        <ele>1184.763521</ele>
        <time>2021-04-29T20:26:38.176Z</time>
      </trkpt>
      <trkpt lat="45.42549" lon="2.93864">
        <ele>1184.940164</ele>
        <time>2021-04-29T20:26:45.382Z</time>
      </trkpt>
      <trkpt lat="45.42479" lon="2.9391">
        <ele>1185.255661</ele>
        <time>2021-04-29T20:27:03.947Z</time>
      </trkpt>
      <trkpt lat="45.42402" lon="2.94">
        <ele>1185.371694</ele>
        <time>2021-04-29T20:27:28.371Z</time>
      </trkpt>
      <trkpt lat="45.42262" lon="2.94148">
        <ele>1184.193144</ele>
        <time>2021-04-29T20:28:07.028Z</time>
      </trkpt>
      <trkpt lat="45.42117" lon="2.94377">
        <ele>1179.140727</ele>
        <time>2021-04-29T20:28:45.648Z</time>
      </trkpt>
      <trkpt lat="45.42084" lon="2.94468">
        <ele>1176.41669</ele>
        <time>2021-04-29T20:28:57.294Z</time>
      </trkpt>
      <trkpt lat="45.42089" lon="2.9453">
        <ele>1174.598236</ele>
        <time>2021-04-29T20:29:04.326Z</time>
      </trkpt>
      <trkpt lat="45.42086" lon="2.94596">
        <ele>1172.644774</ele>
        <time>2021-04-29T20:29:11.863Z</time>
      </trkpt>
      <trkpt lat="45.42089" lon="2.94674">
        <ele>1170.746018</ele>
        <time>2021-04-29T20:29:20.756Z</time>
      </trkpt>
      <trkpt lat="45.42044" lon="2.9489">
        <ele>1167.652679</ele>
        <time>2021-04-29T20:29:49.909Z</time>
      </trkpt>
      <trkpt lat="45.42032" lon="2.94924">
        <ele>1168.132409</ele>
        <time>2021-04-29T20:29:57.590Z</time>
      </trkpt>
      <trkpt lat="45.42031" lon="2.94928">
        <ele>1168.20343</ele>
        <time>2021-04-29T20:29:58.511Z</time>
      </trkpt>
      <trkpt lat="45.42029" lon="2.94945">
        <ele>1168.50814</ele>
        <time>2021-04-29T20:30:01.477Z</time>
      </trkpt>
      <trkpt lat="45.42026" lon="2.94952">
        <ele>1168.661831</ele>
        <time>2021-04-29T20:30:03.693Z</time>
      </trkpt>
      <trkpt lat="45.42007" lon="2.94968">
        <ele>1169.195728</ele>
        <time>2021-04-29T20:30:09.925Z</time>
      </trkpt>
      <trkpt lat="45.4197" lon="2.95">
        <ele>1170.290032</ele>
        <time>2021-04-29T20:30:24.300Z</time>
      </trkpt>
      <trkpt lat="45.41952" lon="2.95034">
        <ele>1171.031226</ele>
        <time>2021-04-29T20:30:35.891Z</time>
      </trkpt>
      <trkpt lat="45.41943" lon="2.95065">
        <ele>1171.618805</ele>
        <time>2021-04-29T20:30:45.042Z</time>
      </trkpt>
      <trkpt lat="45.41947" lon="2.95069">
        <ele>1171.753496</ele>
        <time>2021-04-29T20:30:48.068Z</time>
      </trkpt>
      <trkpt lat="45.41959" lon="2.95044">
        <ele>1172.575341</ele>
        <time>2021-04-29T20:30:56.986Z</time>
      </trkpt>
      <trkpt lat="45.41947" lon="2.95069">
        <ele>1173.775094</ele>
        <time>2021-04-29T20:31:06.266Z</time>
      </trkpt>
      <trkpt lat="45.4194" lon="2.95084">
        <ele>1174.508503</ele>
        <time>2021-04-29T20:31:11.151Z</time>
      </trkpt>
      <trkpt lat="45.41911" lon="2.95147">
        <ele>1177.454912</ele>
        <time>2021-04-29T20:31:34.747Z</time>
      </trkpt>
      <trkpt lat="45.41897" lon="2.95187">
        <ele>1179.213224</ele>
        <time>2021-04-29T20:31:48.609Z</time>
      </trkpt>
      <trkpt lat="45.41879" lon="2.95288">
        <ele>1183.545787</ele>
        <time>2021-04-29T20:32:23.844Z</time>
      </trkpt>
      <trkpt lat="45.4186" lon="2.95327">
        <ele>1185.765942</ele>
        <time>2021-04-29T20:32:40.292Z</time>
      </trkpt>
      <trkpt lat="45.41827" lon="2.95434">
        <ele>1191.233888</ele>
        <time>2021-04-29T20:33:19.655Z</time>
      </trkpt>
      <trkpt lat="45.41799" lon="2.95457">
        <ele>1193.396968</ele>
        <time>2021-04-29T20:33:35.420Z</time>
      </trkpt>
      <trkpt lat="45.41749" lon="2.95468">
        <ele>1197.109158</ele>
        <time>2021-04-29T20:34:02.296Z</time>
      </trkpt>
      <trkpt lat="45.41685" lon="2.95506">
        <ele>1202.358629</ele>
        <time>2021-04-29T20:34:37.630Z</time>
      </trkpt>
      <trkpt lat="45.41661" lon="2.95533">
        <ele>1204.649822</ele>
        <time>2021-04-29T20:34:53.421Z</time>
      </trkpt>
      <trkpt lat="45.41648" lon="2.95539">
        <ele>1205.712297</ele>
        <time>2021-04-29T20:35:02.420Z</time>
      </trkpt>
      <trkpt lat="45.41576" lon="2.95562">
        <ele>1211.047792</ele>
        <time>2021-04-29T20:35:43.258Z</time>
      </trkpt>
      <trkpt lat="45.41561" lon="2.95585">
        <ele>1212.586242</ele>
        <time>2021-04-29T20:35:54.578Z</time>
      </trkpt>
      <trkpt lat="45.41539" lon="2.95639">
        <ele>1215.701206</ele>
        <time>2021-04-29T20:36:19.331Z</time>
      </trkpt>
      <trkpt lat="45.41526" lon="2.95676">
        <ele>1217.718884</ele>
        <time>2021-04-29T20:36:33.107Z</time>
      </trkpt>
      <trkpt lat="45.41526" lon="2.95676">
        <ele>1217.718884</ele>
        <time>2021-04-29T20:36:33.252Z</time>
      </trkpt>
      <trkpt lat="45.41526" lon="2.95676">
        <ele>1217.718884</ele>
        <time>2021-04-29T20:36:33.269Z</time>
      </trkpt>
      <trkpt lat="45.41515" lon="2.95641">
        <ele>1219.621484</ele>
        <time>2021-04-29T20:36:49.152Z</time>
      </trkpt>
      <trkpt lat="45.41481" lon="2.95599">
        <ele>1221.614211</ele>
        <time>2021-04-29T20:37:15.781Z</time>
      </trkpt>
      <trkpt lat="45.41417" lon="2.95533">
        <ele>1224.389781</ele>
        <time>2021-04-29T20:37:57.513Z</time>
      </trkpt>
      <trkpt lat="45.41396" lon="2.95496">
        <ele>1225.561599</ele>
        <time>2021-04-29T20:38:12.901Z</time>
      </trkpt>
      <trkpt lat="45.41373" lon="2.95439">
        <ele>1226.812168</ele>
        <time>2021-04-29T20:38:33.708Z</time>
      </trkpt>
      <trkpt lat="45.41283" lon="2.95277">
        <ele>1227.371085</ele>
        <time>2021-04-29T20:39:30.676Z</time>
      </trkpt>
      <trkpt lat="45.41168" lon="2.95159">
        <ele>1225.029343</ele>
        <time>2021-04-29T20:40:16.473Z</time>
      </trkpt>
      <trkpt lat="45.41145" lon="2.95012">
        <ele>1222.382896</ele>
        <time>2021-04-29T20:40:47.848Z</time>
      </trkpt>
      <trkpt lat="45.41139" lon="2.94924">
        <ele>1220.466199</ele>
        <time>2021-04-29T20:41:05.792Z</time>
      </trkpt>
      <trkpt lat="45.41162" lon="2.94851">
        <ele>1218.739519</ele>
        <time>2021-04-29T20:41:21.936Z</time>
      </trkpt>
      <trkpt lat="45.41189" lon="2.94743">
        <ele>1219.615504</ele>
        <time>2021-04-29T20:41:48.743Z</time>
      </trkpt>
      <trkpt lat="45.41213" lon="2.94667">
        <ele>1220.903558</ele>
        <time>2021-04-29T20:42:13.954Z</time>
      </trkpt>
      <trkpt lat="45.40841" lon="2.944">
        <ele>1246.645361</ele>
        <time>2021-04-29T20:46:47.179Z</time>
      </trkpt>
      <trkpt lat="45.40502" lon="2.9415">
        <ele>1257.101982</ele>
        <time>2021-04-29T20:49:54.056Z</time>
      </trkpt>
      <trkpt lat="45.4037" lon="2.94324">
        <ele>1253.464794</ele>
        <time>2021-04-29T20:50:47.882Z</time>
      </trkpt>
      <trkpt lat="45.40365" lon="2.94324">
        <ele>1253.293883</ele>
        <time>2021-04-29T20:50:49.455Z</time>
      </trkpt>
      <trkpt lat="45.4035" lon="2.94308">
        <ele>1252.676764</ele>
        <time>2021-04-29T20:50:54.776Z</time>
      </trkpt>
      <trkpt lat="45.40342" lon="2.94277">
        <ele>1251.888253</ele>
        <time>2021-04-29T20:51:01.727Z</time>
      </trkpt>
      <trkpt lat="45.40264" lon="2.94113">
        <ele>1246.54747</ele>
        <time>2021-04-29T20:51:42.848Z</time>
      </trkpt>
      <trkpt lat="45.40232" lon="2.94016">
        <ele>1242.147214</ele>
        <time>2021-04-29T20:52:02.886Z</time>
      </trkpt>
      <trkpt lat="45.40193" lon="2.93914">
        <ele>1237.213825</ele>
        <time>2021-04-29T20:52:24.465Z</time>
      </trkpt>
      <trkpt lat="45.40188" lon="2.93902">
        <ele>1236.446478</ele>
        <time>2021-04-29T20:52:26.846Z</time>
      </trkpt>
      <trkpt lat="45.4018" lon="2.93884">
        <ele>1235.252488</ele>
        <time>2021-04-29T20:52:30.636Z</time>
      </trkpt>
      <trkpt lat="45.40177" lon="2.93867">
        <ele>1234.29749</ele>
        <time>2021-04-29T20:52:33.832Z</time>
      </trkpt>
      <trkpt lat="45.40152" lon="2.93819">
        <ele>1230.943879</ele>
        <time>2021-04-29T20:52:44.429Z</time>
      </trkpt>
      <trkpt lat="45.40131" lon="2.937">
        <ele>1224.038952</ele>
        <time>2021-04-29T20:53:06.178Z</time>
      </trkpt>
      <trkpt lat="45.4011" lon="2.93639">
        <ele>1220.744417</ele>
        <time>2021-04-29T20:53:18.713Z</time>
      </trkpt>
      <trkpt lat="45.40089" lon="2.93603">
        <ele>1218.595423</ele>
        <time>2021-04-29T20:53:27.252Z</time>
      </trkpt>
      <trkpt lat="45.40057" lon="2.93583">
        <ele>1216.303222</ele>
        <time>2021-04-29T20:53:36.417Z</time>
      </trkpt>
      <trkpt lat="45.40026" lon="2.93547">
        <ele>1213.681299</ele>
        <time>2021-04-29T20:53:46.828Z</time>
      </trkpt>
      <trkpt lat="45.40001" lon="2.93545">
        <ele>1212.011793</ele>
        <time>2021-04-29T20:53:53.547Z</time>
      </trkpt>
      <trkpt lat="45.4" lon="2.9351">
        <ele>1210.972144</ele>
        <time>2021-04-29T20:54:00.186Z</time>
      </trkpt>
      <trkpt lat="45.40015" lon="2.93461">
        <ele>1209.891466</ele>
        <time>2021-04-29T20:54:10.724Z</time>
      </trkpt>
      <trkpt lat="45.40015" lon="2.93435">
        <ele>1209.365307</ele>
        <time>2021-04-29T20:54:16.119Z</time>
      </trkpt>
      <trkpt lat="45.40011" lon="2.93428">
        <ele>1209.192133</ele>
        <time>2021-04-29T20:54:17.787Z</time>
      </trkpt>
      <trkpt lat="45.39999" lon="2.93418">
        <ele>1208.789611</ele>
        <time>2021-04-29T20:54:21.949Z</time>
      </trkpt>
      <trkpt lat="45.3999" lon="2.93411">
        <ele>1208.487928</ele>
        <time>2021-04-29T20:54:25.160Z</time>
      </trkpt>
      <trkpt lat="45.39954" lon="2.93393">
        <ele>1207.390879</ele>
        <time>2021-04-29T20:54:37.153Z</time>
      </trkpt>
      <trkpt lat="45.39895" lon="2.93378">
        <ele>1206.583177</ele>
        <time>2021-04-29T20:54:57.290Z</time>
      </trkpt>
      <trkpt lat="45.39892" lon="2.93377">
        <ele>1206.63869</ele>
        <time>2021-04-29T20:54:58.553Z</time>
      </trkpt>
      <trkpt lat="45.39765" lon="2.93214">
        <ele>1209.79621</ele>
        <time>2021-04-29T20:56:17.268Z</time>
      </trkpt>
      <trkpt lat="45.3967" lon="2.93109">
        <ele>1213.889516</ele>
        <time>2021-04-29T20:57:19.396Z</time>
      </trkpt>
      <trkpt lat="45.39575" lon="2.93073">
        <ele>1216.975435</ele>
        <time>2021-04-29T20:58:10.325Z</time>
      </trkpt>
      <trkpt lat="45.39543" lon="2.93053">
        <ele>1217.984033</ele>
        <time>2021-04-29T20:58:27.661Z</time>
      </trkpt>
      <trkpt lat="45.39533" lon="2.93039">
        <ele>1218.381959</ele>
        <time>2021-04-29T20:58:34.419Z</time>
      </trkpt>
      <trkpt lat="45.39508" lon="2.92983">
        <ele>1219.738003</ele>
        <time>2021-04-29T20:58:57.534Z</time>
      </trkpt>
      <trkpt lat="45.39473" lon="2.92983">
        <ele>1220.64649</ele>
        <time>2021-04-29T20:59:13.388Z</time>
      </trkpt>
      <trkpt lat="45.39385" lon="2.92946">
        <ele>1220.959289</ele>
        <time>2021-04-29T20:59:50.599Z</time>
      </trkpt>
      <trkpt lat="45.39378" lon="2.92947">
        <ele>1220.981669</ele>
        <time>2021-04-29T20:59:53.767Z</time>
      </trkpt>
      <trkpt lat="45.39276" lon="2.9281">
        <ele>1220.290771</ele>
        <time>2021-04-29T21:00:21.059Z</time>
      </trkpt>
      <trkpt lat="45.39231" lon="2.92753">
        <ele>1219.360943</ele>
        <time>2021-04-29T21:00:31.797Z</time>
      </trkpt>
      <trkpt lat="45.39196" lon="2.92697">
        <ele>1218.557161</ele>
        <time>2021-04-29T21:00:41.088Z</time>
      </trkpt>
      <trkpt lat="45.39134" lon="2.92633">
        <ele>1216.752126</ele>
        <time>2021-04-29T21:00:54.906Z</time>
      </trkpt>
      <trkpt lat="45.39019" lon="2.92484">
        <ele>1212.783108</ele>
        <time>2021-04-29T21:01:20.942Z</time>
      </trkpt>
      <trkpt lat="45.38992" lon="2.92456">
        <ele>1211.809776</ele>
        <time>2021-04-29T21:01:26.194Z</time>
      </trkpt>
      <trkpt lat="45.38949" lon="2.92427">
        <ele>1210.439567</ele>
        <time>2021-04-29T21:01:33.597Z</time>
      </trkpt>
      <trkpt lat="45.38932" lon="2.92416">
        <ele>1209.90665</ele>
        <time>2021-04-29T21:01:36.604Z</time>
      </trkpt>
      <trkpt lat="45.38925" lon="2.92413">
        <ele>1209.679498</ele>
        <time>2021-04-29T21:01:39.058Z</time>
      </trkpt>
      <trkpt lat="45.38916" lon="2.92411">
        <ele>1209.418541</ele>
        <time>2021-04-29T21:01:40.503Z</time>
      </trkpt>
      <trkpt lat="45.38908" lon="2.92411">
        <ele>1209.206762</ele>
        <time>2021-04-29T21:01:41.716Z</time>
      </trkpt>
      <trkpt lat="45.3888" lon="2.92427">
        <ele>1209.361398</ele>
        <time>2021-04-29T21:01:47.376Z</time>
      </trkpt>
      <trkpt lat="45.38867" lon="2.92426">
        <ele>1209.608426</ele>
        <time>2021-04-29T21:01:49.778Z</time>
      </trkpt>
      <trkpt lat="45.38863" lon="2.92422">
        <ele>1209.69298</ele>
        <time>2021-04-29T21:01:50.528Z</time>
      </trkpt>
      <trkpt lat="45.38856" lon="2.92411">
        <ele>1209.880853</ele>
        <time>2021-04-29T21:01:54.166Z</time>
      </trkpt>
      <trkpt lat="45.38847" lon="2.9239">
        <ele>1210.206676</ele>
        <time>2021-04-29T21:01:57.519Z</time>
      </trkpt>
      <trkpt lat="45.38846" lon="2.92384">
        <ele>1210.279689</ele>
        <time>2021-04-29T21:01:58.272Z</time>
      </trkpt>
      <trkpt lat="45.38846" lon="2.92377">
        <ele>1210.369765</ele>
        <time>2021-04-29T21:01:59.103Z</time>
      </trkpt>
      <trkpt lat="45.38846" lon="2.9237">
        <ele>1210.472949</ele>
        <time>2021-04-29T21:02:01.460Z</time>
      </trkpt>
      <trkpt lat="45.38849" lon="2.92363">
        <ele>1210.577369</ele>
        <time>2021-04-29T21:02:03.412Z</time>
      </trkpt>
      <trkpt lat="45.38854" lon="2.92356">
        <ele>1210.701561</ele>
        <time>2021-04-29T21:02:04.928Z</time>
      </trkpt>
      <trkpt lat="45.38857" lon="2.9235">
        <ele>1210.803617</ele>
        <time>2021-04-29T21:02:06.272Z</time>
      </trkpt>
      <trkpt lat="45.38866" lon="2.92337">
        <ele>1211.036477</ele>
        <time>2021-04-29T21:02:09.333Z</time>
      </trkpt>
      <trkpt lat="45.38864" lon="2.92328">
        <ele>1211.149497</ele>
        <time>2021-04-29T21:02:12.619Z</time>
      </trkpt>
      <trkpt lat="45.38873" lon="2.92297">
        <ele>1211.584609</ele>
        <time>2021-04-29T21:02:20.995Z</time>
      </trkpt>
      <trkpt lat="45.38872" lon="2.92276">
        <ele>1211.860058</ele>
        <time>2021-04-29T21:02:27.943Z</time>
      </trkpt>
      <trkpt lat="45.38865" lon="2.92257">
        <ele>1212.142981</ele>
        <time>2021-04-29T21:02:34.523Z</time>
      </trkpt>
      <trkpt lat="45.3885" lon="2.92245">
        <ele>1212.948255</ele>
        <time>2021-04-29T21:02:41.988Z</time>
      </trkpt>
      <trkpt lat="45.38842" lon="2.92241">
        <ele>1213.579075</ele>
        <time>2021-04-29T21:02:46.922Z</time>
      </trkpt>
      <trkpt lat="45.38827" lon="2.92237">
        <ele>1214.612283</ele>
        <time>2021-04-29T21:02:53.666Z</time>
      </trkpt>
      <trkpt lat="45.38813" lon="2.92234">
        <ele>1215.656211</ele>
        <time>2021-04-29T21:03:02.597Z</time>
      </trkpt>
      <trkpt lat="45.38806" lon="2.92232">
        <ele>1216.121158</ele>
        <time>2021-04-29T21:03:06.306Z</time>
      </trkpt>
      <trkpt lat="45.38806" lon="2.92232">
        <ele>1216.121158</ele>
        <time>2021-04-29T21:03:06.317Z</time>
      </trkpt>
      <trkpt lat="45.38813" lon="2.92192">
        <ele>1218.128611</ele>
        <time>2021-04-29T21:03:22.245Z</time>
      </trkpt>
      <trkpt lat="45.38813" lon="2.92184">
        <ele>1218.523807</ele>
        <time>2021-04-29T21:03:25.235Z</time>
      </trkpt>
      <trkpt lat="45.38802" lon="2.92157">
        <ele>1220.059924</ele>
        <time>2021-04-29T21:03:36.328Z</time>
      </trkpt>
      <trkpt lat="45.38801" lon="2.92148">
        <ele>1220.536835</ele>
        <time>2021-04-29T21:03:39.823Z</time>
      </trkpt>
      <trkpt lat="45.38807" lon="2.92137">
        <ele>1221.249619</ele>
        <time>2021-04-29T21:03:45.382Z</time>
      </trkpt>
      <trkpt lat="45.38821" lon="2.92125">
        <ele>1222.373624</ele>
        <time>2021-04-29T21:03:53.181Z</time>
      </trkpt>
      <trkpt lat="45.38845" lon="2.92112">
        <ele>1224.232793</ele>
        <time>2021-04-29T21:04:06.864Z</time>
      </trkpt>
      <trkpt lat="45.38861" lon="2.92099">
        <ele>1225.334864</ele>
        <time>2021-04-29T21:04:17.273Z</time>
      </trkpt>
      <trkpt lat="45.38873" lon="2.92076">
        <ele>1226.284686</ele>
        <time>2021-04-29T21:04:27.146Z</time>
      </trkpt>
      <trkpt lat="45.38904" lon="2.91951">
        <ele>1230.741653</ele>
        <time>2021-04-29T21:05:10.752Z</time>
      </trkpt>
      <trkpt lat="45.38908" lon="2.91923">
        <ele>1231.668529</ele>
        <time>2021-04-29T21:05:17.370Z</time>
      </trkpt>
      <trkpt lat="45.38906" lon="2.91894">
        <ele>1232.66309</ele>
        <time>2021-04-29T21:05:24.483Z</time>
      </trkpt>
      <trkpt lat="45.38898" lon="2.91874">
        <ele>1233.420941</ele>
        <time>2021-04-29T21:05:35.560Z</time>
      </trkpt>
      <trkpt lat="45.38914" lon="2.91847">
        <ele>1232.907915</ele>
        <time>2021-04-29T21:05:53.264Z</time>
      </trkpt>
      <trkpt lat="45.38898" lon="2.91874">
        <ele>1232.177256</ele>
        <time>2021-04-29T21:06:10.968Z</time>
      </trkpt>
      <trkpt lat="45.38906" lon="2.91894">
        <ele>1231.720266</ele>
        <time>2021-04-29T21:06:22.045Z</time>
      </trkpt>
      <trkpt lat="45.38908" lon="2.91923">
        <ele>1231.120538</ele>
        <time>2021-04-29T21:06:25.505Z</time>
      </trkpt>
      <trkpt lat="45.38904" lon="2.91951">
        <ele>1230.561625</ele>
        <time>2021-04-29T21:06:28.738Z</time>
      </trkpt>
      <trkpt lat="45.38873" lon="2.92076">
        <ele>1227.107463</ele>
        <time>2021-04-29T21:06:42.686Z</time>
      </trkpt>
      <trkpt lat="45.38861" lon="2.92099">
        <ele>1225.690123</ele>
        <time>2021-04-29T21:06:45.567Z</time>
      </trkpt>
      <trkpt lat="45.38845" lon="2.92112">
        <ele>1224.416825</ele>
        <time>2021-04-29T21:06:48.064Z</time>
      </trkpt>
      <trkpt lat="45.38821" lon="2.92125">
        <ele>1222.548137</ele>
        <time>2021-04-29T21:06:51.755Z</time>
      </trkpt>
      <trkpt lat="45.38807" lon="2.92137">
        <ele>1221.418375</ele>
        <time>2021-04-29T21:06:54.081Z</time>
      </trkpt>
      <trkpt lat="45.38801" lon="2.92148">
        <ele>1220.701941</ele>
        <time>2021-04-29T21:06:55.485Z</time>
      </trkpt>
      <trkpt lat="45.38806" lon="2.92154">
        <ele>1220.234844</ele>
        <time>2021-04-29T21:06:56.450Z</time>
      </trkpt>
      <trkpt lat="45.38842" lon="2.92175">
        <ele>1217.464871</ele>
        <time>2021-04-29T21:07:02.212Z</time>
      </trkpt>
      <trkpt lat="45.38848" lon="2.92187">
        <ele>1216.742174</ele>
        <time>2021-04-29T21:07:03.821Z</time>
      </trkpt>
      <trkpt lat="45.38851" lon="2.922">
        <ele>1216.031424</ele>
        <time>2021-04-29T21:07:05.335Z</time>
      </trkpt>
      <trkpt lat="45.38851" lon="2.92214">
        <ele>1215.379576</ele>
        <time>2021-04-29T21:07:06.716Z</time>
      </trkpt>
      <trkpt lat="45.38848" lon="2.92226">
        <ele>1214.836748</ele>
        <time>2021-04-29T21:07:08.097Z</time>
      </trkpt>
      <trkpt lat="45.38848" lon="2.92226">
        <ele>1214.836748</ele>
        <time>2021-04-29T21:07:08.102Z</time>
      </trkpt>
      <trkpt lat="45.38845" lon="2.9223">
        <ele>1214.585535</ele>
        <time>2021-04-29T21:07:08.773Z</time>
      </trkpt>
      <trkpt lat="45.38843" lon="2.92234">
        <ele>1214.368702</ele>
        <time>2021-04-29T21:07:09.373Z</time>
      </trkpt>
      <trkpt lat="45.38842" lon="2.92241">
        <ele>1214.06978</ele>
        <time>2021-04-29T21:07:10.148Z</time>
      </trkpt>
      <trkpt lat="45.3885" lon="2.92245">
        <ele>1213.530511</ele>
        <time>2021-04-29T21:07:11.408Z</time>
      </trkpt>
      <trkpt lat="45.38865" lon="2.92257">
        <ele>1212.501925</ele>
        <time>2021-04-29T21:07:14.043Z</time>
      </trkpt>
      <trkpt lat="45.38872" lon="2.92276">
        <ele>1211.577527</ele>
        <time>2021-04-29T21:07:16.396Z</time>
      </trkpt>
      <trkpt lat="45.38873" lon="2.92297">
        <ele>1210.677551</ele>
        <time>2021-04-29T21:07:18.582Z</time>
      </trkpt>
      <trkpt lat="45.38864" lon="2.92328">
        <ele>1209.255903</ele>
        <time>2021-04-29T21:07:22.277Z</time>
      </trkpt>
      <trkpt lat="45.38866" lon="2.92337">
        <ele>1208.886633</ele>
        <time>2021-04-29T21:07:23.157Z</time>
      </trkpt>
      <trkpt lat="45.38877" lon="2.92328">
        <ele>1208.091807</ele>
        <time>2021-04-29T21:07:25.306Z</time>
      </trkpt>
      <trkpt lat="45.38913" lon="2.92292">
        <ele>1205.478468</ele>
        <time>2021-04-29T21:07:31.790Z</time>
      </trkpt>
      <trkpt lat="45.38923" lon="2.92285">
        <ele>1204.772259</ele>
        <time>2021-04-29T21:07:33.435Z</time>
      </trkpt>
      <trkpt lat="45.38943" lon="2.92277">
        <ele>1203.965469</ele>
        <time>2021-04-29T21:07:36.814Z</time>
      </trkpt>
      <trkpt lat="45.38975" lon="2.92274">
        <ele>1202.742626</ele>
        <time>2021-04-29T21:07:41.760Z</time>
      </trkpt>
      <trkpt lat="45.3905" lon="2.92268">
        <ele>1199.868719</ele>
        <time>2021-04-29T21:07:53.585Z</time>
      </trkpt>
      <trkpt lat="45.39104" lon="2.92244">
        <ele>1197.724373</ele>
        <time>2021-04-29T21:08:02.775Z</time>
      </trkpt>
      <trkpt lat="45.39182" lon="2.92205">
        <ele>1195.669666</ele>
        <time>2021-04-29T21:08:16.718Z</time>
      </trkpt>
      <trkpt lat="45.39297" lon="2.92147">
        <ele>1192.869928</ele>
        <time>2021-04-29T21:08:37.801Z</time>
      </trkpt>
      <trkpt lat="45.39385" lon="2.92102">
        <ele>1191.234657</ele>
        <time>2021-04-29T21:08:54.796Z</time>
      </trkpt>
      <trkpt lat="45.39411" lon="2.92079">
        <ele>1190.700285</ele>
        <time>2021-04-29T21:09:00.355Z</time>
      </trkpt>
      <trkpt lat="45.39566" lon="2.91727">
        <ele>1185.704667</ele>
        <time>2021-04-29T21:09:53.168Z</time>
      </trkpt>
      <trkpt lat="45.39568" lon="2.91725">
        <ele>1185.671753</ele>
        <time>2021-04-29T21:09:53.484Z</time>
      </trkpt>
      <trkpt lat="45.3959" lon="2.91708">
        <ele>1185.247544</ele>
        <time>2021-04-29T21:09:58.027Z</time>
      </trkpt>
      <trkpt lat="45.39687" lon="2.9168">
        <ele>1183.428886</ele>
        <time>2021-04-29T21:10:15.825Z</time>
      </trkpt>
      <trkpt lat="45.39713" lon="2.91655">
        <ele>1182.76178</ele>
        <time>2021-04-29T21:10:21.331Z</time>
      </trkpt>
      <trkpt lat="45.39777" lon="2.91568">
        <ele>1180.883419</ele>
        <time>2021-04-29T21:10:36.976Z</time>
      </trkpt>
      <trkpt lat="45.39798" lon="2.91538">
        <ele>1180.25084</ele>
        <time>2021-04-29T21:10:41.969Z</time>
      </trkpt>
      <trkpt lat="45.39804" lon="2.9153">
        <ele>1180.001631</ele>
        <time>2021-04-29T21:10:43.351Z</time>
      </trkpt>
      <trkpt lat="45.39849" lon="2.91458">
        <ele>1177.949594</ele>
        <time>2021-04-29T21:10:54.639Z</time>
      </trkpt>
      <trkpt lat="45.39867" lon="2.9142">
        <ele>1176.976464</ele>
        <time>2021-04-29T21:10:59.911Z</time>
      </trkpt>
      <trkpt lat="45.39874" lon="2.91405">
        <ele>1176.593909</ele>
        <time>2021-04-29T21:11:01.962Z</time>
      </trkpt>
      <trkpt lat="45.39904" lon="2.91341">
        <ele>1174.962594</ele>
        <time>2021-04-29T21:11:10.741Z</time>
      </trkpt>
      <trkpt lat="45.39915" lon="2.91304">
        <ele>1173.978928</ele>
        <time>2021-04-29T21:11:15.344Z</time>
      </trkpt>
      <trkpt lat="45.39911" lon="2.91277">
        <ele>1173.303406</ele>
        <time>2021-04-29T21:11:18.434Z</time>
      </trkpt>
      <trkpt lat="45.39882" lon="2.91185">
        <ele>1170.803731</ele>
        <time>2021-04-29T21:11:29.709Z</time>
      </trkpt>
      <trkpt lat="45.39846" lon="2.91104">
        <ele>1168.402388</ele>
        <time>2021-04-29T21:11:40.576Z</time>
      </trkpt>
      <trkpt lat="45.39857" lon="2.91043">
        <ele>1166.565869</ele>
        <time>2021-04-29T21:11:47.654Z</time>
      </trkpt>
      <trkpt lat="45.39852" lon="2.9099">
        <ele>1165.017379</ele>
        <time>2021-04-29T21:11:53.565Z</time>
      </trkpt>
      <trkpt lat="45.39861" lon="2.90949">
        <ele>1163.76223</ele>
        <time>2021-04-29T21:11:58.306Z</time>
      </trkpt>
      <trkpt lat="45.3986" lon="2.90928">
        <ele>1163.156331</ele>
        <time>2021-04-29T21:12:00.600Z</time>
      </trkpt>
      <trkpt lat="45.39843" lon="2.90876">
        <ele>1161.476977</ele>
        <time>2021-04-29T21:12:06.877Z</time>
      </trkpt>
      <trkpt lat="45.39846" lon="2.90809">
        <ele>1158.880913</ele>
        <time>2021-04-29T21:12:14.143Z</time>
      </trkpt>
      <trkpt lat="45.39881" lon="2.90744">
        <ele>1155.575225</ele>
        <time>2021-04-29T21:12:22.603Z</time>
      </trkpt>
      <trkpt lat="45.39907" lon="2.90718">
        <ele>1153.704801</ele>
        <time>2021-04-29T21:12:27.319Z</time>
      </trkpt>
      <trkpt lat="45.39981" lon="2.90686">
        <ele>1148.980669</ele>
        <time>2021-04-29T21:12:38.563Z</time>
      </trkpt>
      <trkpt lat="45.40035" lon="2.90649">
        <ele>1144.945948</ele>
        <time>2021-04-29T21:12:46.907Z</time>
      </trkpt>
      <trkpt lat="45.4009" lon="2.90642">
        <ele>1141.207446</ele>
        <time>2021-04-29T21:12:54.716Z</time>
      </trkpt>
      <trkpt lat="45.40115" lon="2.90617">
        <ele>1139.129278</ele>
        <time>2021-04-29T21:12:59.202Z</time>
      </trkpt>
      <trkpt lat="45.40126" lon="2.9059">
        <ele>1138.007987</ele>
        <time>2021-04-29T21:13:02.416Z</time>
      </trkpt>
      <trkpt lat="45.40132" lon="2.90569">
        <ele>1137.49343</ele>
        <time>2021-04-29T21:13:04.844Z</time>
      </trkpt>
      <trkpt lat="45.4014" lon="2.90543">
        <ele>1136.846614</ele>
        <time>2021-04-29T21:13:07.772Z</time>
      </trkpt>
      <trkpt lat="45.4015" lon="2.9053">
        <ele>1136.396537</ele>
        <time>2021-04-29T21:13:10.056Z</time>
      </trkpt>
      <trkpt lat="45.40153" lon="2.90528">
        <ele>1136.290589</ele>
        <time>2021-04-29T21:13:10.529Z</time>
      </trkpt>
      <trkpt lat="45.40158" lon="2.90525">
        <ele>1136.119294</ele>
        <time>2021-04-29T21:13:11.277Z</time>
      </trkpt>
      <trkpt lat="45.40283" lon="2.90478">
        <ele>1132.192474</ele>
        <time>2021-04-29T21:13:33.731Z</time>
      </trkpt>
      <trkpt lat="45.40306" lon="2.90458">
        <ele>1131.794078</ele>
        <time>2021-04-29T21:13:39.812Z</time>
      </trkpt>
      <trkpt lat="45.40313" lon="2.90429">
        <ele>1131.482346</ele>
        <time>2021-04-29T21:13:45.227Z</time>
      </trkpt>
      <trkpt lat="45.40297" lon="2.90368">
        <ele>1130.814581</ele>
        <time>2021-04-29T21:13:54.736Z</time>
      </trkpt>
      <trkpt lat="45.40297" lon="2.90257">
        <ele>1129.28375</ele>
        <time>2021-04-29T21:14:08.463Z</time>
      </trkpt>
      <trkpt lat="45.40297" lon="2.90219">
        <ele>1127.954394</ele>
        <time>2021-04-29T21:14:12.638Z</time>
      </trkpt>
      <trkpt lat="45.40298" lon="2.90136">
        <ele>1125.05017</ele>
        <time>2021-04-29T21:14:21.443Z</time>
      </trkpt>
      <trkpt lat="45.403" lon="2.90096">
        <ele>1123.635875</ele>
        <time>2021-04-29T21:14:25.670Z</time>
      </trkpt>
      <trkpt lat="45.40307" lon="2.90059">
        <ele>1122.282289</ele>
        <time>2021-04-29T21:14:29.657Z</time>
      </trkpt>
      <trkpt lat="45.4032" lon="2.90024">
        <ele>1120.930518</ele>
        <time>2021-04-29T21:14:33.581Z</time>
      </trkpt>
      <trkpt lat="45.40329" lon="2.89997">
        <ele>1119.655349</ele>
        <time>2021-04-29T21:14:36.640Z</time>
      </trkpt>
      <trkpt lat="45.4033" lon="2.89991">
        <ele>1119.395009</ele>
        <time>2021-04-29T21:14:37.253Z</time>
      </trkpt>
      <trkpt lat="45.40332" lon="2.89979">
        <ele>1118.883621</ele>
        <time>2021-04-29T21:14:38.485Z</time>
      </trkpt>
      <trkpt lat="45.40332" lon="2.89965">
        <ele>1118.298706</ele>
        <time>2021-04-29T21:14:39.879Z</time>
      </trkpt>
      <trkpt lat="45.40331" lon="2.89938">
        <ele>1117.15803</ele>
        <time>2021-04-29T21:14:42.613Z</time>
      </trkpt>
      <trkpt lat="45.40323" lon="2.899">
        <ele>1115.451098</ele>
        <time>2021-04-29T21:14:46.773Z</time>
      </trkpt>
      <trkpt lat="45.40283" lon="2.89854">
        <ele>1112.362381</ele>
        <time>2021-04-29T21:14:54.263Z</time>
      </trkpt>
      <trkpt lat="45.40272" lon="2.89834">
        <ele>1111.268146</ele>
        <time>2021-04-29T21:14:56.957Z</time>
      </trkpt>
      <trkpt lat="45.40249" lon="2.89756">
        <ele>1108.148704</ele>
        <time>2021-04-29T21:15:05.877Z</time>
      </trkpt>
      <trkpt lat="45.40229" lon="2.89723">
        <ele>1106.64903</ele>
        <time>2021-04-29T21:15:10.526Z</time>
      </trkpt>
      <trkpt lat="45.40205" lon="2.89578">
        <ele>1101.532516</ele>
        <time>2021-04-29T21:15:26.486Z</time>
      </trkpt>
      <trkpt lat="45.40186" lon="2.89535">
        <ele>1100.002155</ele>
        <time>2021-04-29T21:15:31.983Z</time>
      </trkpt>
      <trkpt lat="45.40171" lon="2.89474">
        <ele>1098.111179</ele>
        <time>2021-04-29T21:15:39.071Z</time>
      </trkpt>
      <trkpt lat="45.40154" lon="2.89436">
        <ele>1096.798671</ele>
        <time>2021-04-29T21:15:44.016Z</time>
      </trkpt>
      <trkpt lat="45.40119" lon="2.89333">
        <ele>1093.502628</ele>
        <time>2021-04-29T21:15:56.815Z</time>
      </trkpt>
      <trkpt lat="45.40094" lon="2.89286">
        <ele>1092.127778</ele>
        <time>2021-04-29T21:16:03.288Z</time>
      </trkpt>
      <trkpt lat="45.40084" lon="2.89257">
        <ele>1091.377856</ele>
        <time>2021-04-29T21:16:06.822Z</time>
      </trkpt>
      <trkpt lat="45.40059" lon="2.89129">
        <ele>1088.281524</ele>
        <time>2021-04-29T21:16:22.317Z</time>
      </trkpt>
      <trkpt lat="45.40058" lon="2.89124">
        <ele>1088.156193</ele>
        <time>2021-04-29T21:16:22.831Z</time>
      </trkpt>
      <trkpt lat="45.40022" lon="2.89118">
        <ele>1087.241112</ele>
        <time>2021-04-29T21:16:28.970Z</time>
      </trkpt>
      <trkpt lat="45.40009" lon="2.89116">
        <ele>1086.965261</ele>
        <time>2021-04-29T21:16:31.419Z</time>
      </trkpt>
      <trkpt lat="45.39995" lon="2.89114">
        <ele>1086.674286</ele>
        <time>2021-04-29T21:16:33.957Z</time>
      </trkpt>
      <trkpt lat="45.39979" lon="2.89105">
        <ele>1086.308628</ele>
        <time>2021-04-29T21:16:36.795Z</time>
      </trkpt>
      <trkpt lat="45.39886" lon="2.89038">
        <ele>1084.122128</ele>
        <time>2021-04-29T21:16:55.365Z</time>
      </trkpt>
      <trkpt lat="45.39835" lon="2.88958">
        <ele>1083.150565</ele>
        <time>2021-04-29T21:17:09.187Z</time>
      </trkpt>
      <trkpt lat="45.3973" lon="2.8884">
        <ele>1081.674569</ele>
        <time>2021-04-29T21:17:34.921Z</time>
      </trkpt>
      <trkpt lat="45.39667" lon="2.88808">
        <ele>1081.273376</ele>
        <time>2021-04-29T21:17:49.822Z</time>
      </trkpt>
      <trkpt lat="45.39621" lon="2.88784">
        <ele>1080.974622</ele>
        <time>2021-04-29T21:18:01.052Z</time>
      </trkpt>
      <trkpt lat="45.39601" lon="2.88764">
        <ele>1080.8276</ele>
        <time>2021-04-29T21:18:05.705Z</time>
      </trkpt>
      <trkpt lat="45.39576" lon="2.88722">
        <ele>1080.036232</ele>
        <time>2021-04-29T21:18:12.768Z</time>
      </trkpt>
      <trkpt lat="45.39563" lon="2.88688">
        <ele>1079.156803</ele>
        <time>2021-04-29T21:18:17.484Z</time>
      </trkpt>
      <trkpt lat="45.39551" lon="2.88651">
        <ele>1078.243861</ele>
        <time>2021-04-29T21:18:22.297Z</time>
      </trkpt>
      <trkpt lat="45.39546" lon="2.88615">
        <ele>1077.419942</ele>
        <time>2021-04-29T21:18:26.458Z</time>
      </trkpt>
      <trkpt lat="45.39543" lon="2.8859">
        <ele>1076.8495</ele>
        <time>2021-04-29T21:18:29.306Z</time>
      </trkpt>
      <trkpt lat="45.39537" lon="2.88549">
        <ele>1075.903982</ele>
        <time>2021-04-29T21:18:33.968Z</time>
      </trkpt>
      <trkpt lat="45.39523" lon="2.88516">
        <ele>1075.036061</ele>
        <time>2021-04-29T21:18:38.119Z</time>
      </trkpt>
      <trkpt lat="45.39472" lon="2.88463">
        <ele>1072.125614</ele>
        <time>2021-04-29T21:18:47.540Z</time>
      </trkpt>
      <trkpt lat="45.39383" lon="2.88325">
        <ele>1066.080769</ele>
        <time>2021-04-29T21:19:07.753Z</time>
      </trkpt>
      <trkpt lat="45.39365" lon="2.88281">
        <ele>1064.694704</ele>
        <time>2021-04-29T21:19:13.503Z</time>
      </trkpt>
      <trkpt lat="45.39354" lon="2.88206">
        <ele>1062.569814</ele>
        <time>2021-04-29T21:19:22.109Z</time>
      </trkpt>
      <trkpt lat="45.39353" lon="2.88201">
        <ele>1062.424387</ele>
        <time>2021-04-29T21:19:22.644Z</time>
      </trkpt>
      <trkpt lat="45.39349" lon="2.88187">
        <ele>1062.01279</ele>
        <time>2021-04-29T21:19:24.362Z</time>
      </trkpt>
      <trkpt lat="45.39316" lon="2.8814">
        <ele>1060.171747</ele>
        <time>2021-04-29T21:19:31.853Z</time>
      </trkpt>
      <trkpt lat="45.39309" lon="2.88121">
        <ele>1059.581219</ele>
        <time>2021-04-29T21:19:34.056Z</time>
      </trkpt>
      <trkpt lat="45.39305" lon="2.88092">
        <ele>1058.862774</ele>
        <time>2021-04-29T21:19:37.553Z</time>
      </trkpt>
      <trkpt lat="45.39302" lon="2.88071">
        <ele>1058.340416</ele>
        <time>2021-04-29T21:19:39.790Z</time>
      </trkpt>
      <trkpt lat="45.39299" lon="2.88047">
        <ele>1057.752292</ele>
        <time>2021-04-29T21:19:42.806Z</time>
      </trkpt>
      <trkpt lat="45.39296" lon="2.88022">
        <ele>1057.123422</ele>
        <time>2021-04-29T21:19:45.642Z</time>
      </trkpt>
      <trkpt lat="45.39289" lon="2.87997">
        <ele>1056.48589</ele>
        <time>2021-04-29T21:19:48.973Z</time>
      </trkpt>
      <trkpt lat="45.39258" lon="2.8796">
        <ele>1055.086541</ele>
        <time>2021-04-29T21:19:55.654Z</time>
      </trkpt>
      <trkpt lat="45.39253" lon="2.87954">
        <ele>1054.865208</ele>
        <time>2021-04-29T21:19:56.577Z</time>
      </trkpt>
      <trkpt lat="45.39204" lon="2.879">
        <ele>1052.809472</ele>
        <time>2021-04-29T21:20:06.469Z</time>
      </trkpt>
      <trkpt lat="45.39196" lon="2.87883">
        <ele>1052.382294</ele>
        <time>2021-04-29T21:20:08.659Z</time>
      </trkpt>
      <trkpt lat="45.39194" lon="2.87865">
        <ele>1051.988574</ele>
        <time>2021-04-29T21:20:11.007Z</time>
      </trkpt>
      <trkpt lat="45.39194" lon="2.87843">
        <ele>1051.536728</ele>
        <time>2021-04-29T21:20:13.619Z</time>
      </trkpt>
      <trkpt lat="45.39218" lon="2.87675">
        <ele>1047.99339</ele>
        <time>2021-04-29T21:20:34.547Z</time>
      </trkpt>
      <trkpt lat="45.3921" lon="2.87664">
        <ele>1047.506709</ele>
        <time>2021-04-29T21:20:36.446Z</time>
      </trkpt>
      <trkpt lat="45.39188" lon="2.87624">
        <ele>1046.016266</ele>
        <time>2021-04-29T21:20:42.127Z</time>
      </trkpt>
      <trkpt lat="45.39186" lon="2.87615">
        <ele>1045.731473</ele>
        <time>2021-04-29T21:20:43.209Z</time>
      </trkpt>
      <trkpt lat="45.39179" lon="2.87586">
        <ele>1044.86188</ele>
        <time>2021-04-29T21:20:46.525Z</time>
      </trkpt>
      <trkpt lat="45.39188" lon="2.87533">
        <ele>1043.238393</ele>
        <time>2021-04-29T21:20:52.737Z</time>
      </trkpt>
      <trkpt lat="45.3919" lon="2.87523">
        <ele>1042.936895</ele>
        <time>2021-04-29T21:20:53.856Z</time>
      </trkpt>
      <trkpt lat="45.39203" lon="2.87517">
        <ele>1042.362166</ele>
        <time>2021-04-29T21:20:56.116Z</time>
      </trkpt>
      <trkpt lat="45.39215" lon="2.87509">
        <ele>1041.814278</ele>
        <time>2021-04-29T21:20:58.171Z</time>
      </trkpt>
      <trkpt lat="45.39239" lon="2.87516">
        <ele>1040.76452</ele>
        <time>2021-04-29T21:21:02.604Z</time>
      </trkpt>
      <trkpt lat="45.39263" lon="2.87485">
        <ele>1039.812271</ele>
        <time>2021-04-29T21:21:08.045Z</time>
      </trkpt>
      <trkpt lat="45.39303" lon="2.87454">
        <ele>1038.580066</ele>
        <time>2021-04-29T21:21:15.667Z</time>
      </trkpt>
      <trkpt lat="45.39326" lon="2.87415">
        <ele>1037.614116</ele>
        <time>2021-04-29T21:21:21.403Z</time>
      </trkpt>
      <trkpt lat="45.39333" lon="2.87414">
        <ele>1037.400063</ele>
        <time>2021-04-29T21:21:22.701Z</time>
      </trkpt>
      <trkpt lat="45.39341" lon="2.87421">
        <ele>1037.145297</ele>
        <time>2021-04-29T21:21:24.323Z</time>
      </trkpt>
      <trkpt lat="45.39351" lon="2.87422">
        <ele>1036.875418</ele>
        <time>2021-04-29T21:21:26.119Z</time>
      </trkpt>
      <trkpt lat="45.39368" lon="2.87399">
        <ele>1036.23257</ele>
        <time>2021-04-29T21:21:30.564Z</time>
      </trkpt>
      <trkpt lat="45.39384" lon="2.87394">
        <ele>1035.789206</ele>
        <time>2021-04-29T21:21:33.837Z</time>
      </trkpt>
      <trkpt lat="45.39392" lon="2.874">
        <ele>1035.696554</ele>
        <time>2021-04-29T21:21:35.917Z</time>
      </trkpt>
      <trkpt lat="45.39393" lon="2.87401">
        <ele>1035.720545</ele>
        <time>2021-04-29T21:21:36.465Z</time>
      </trkpt>
      <trkpt lat="45.39392" lon="2.874">
        <ele>1035.744535</ele>
        <time>2021-04-29T21:21:36.621Z</time>
      </trkpt>
      <trkpt lat="45.39384" lon="2.87394">
        <ele>1035.95</ele>
        <time>2021-04-29T21:21:38.656Z</time>
      </trkpt>
      <trkpt lat="45.39368" lon="2.87399">
        <ele>1036.326223</ele>
        <time>2021-04-29T21:21:43.117Z</time>
      </trkpt>
      <trkpt lat="45.39351" lon="2.87422">
        <ele>1036.871721</ele>
        <time>2021-04-29T21:21:50.211Z</time>
      </trkpt>
      <trkpt lat="45.39341" lon="2.87421">
        <ele>1037.10073</ele>
        <time>2021-04-29T21:21:53.152Z</time>
      </trkpt>
      <trkpt lat="45.39333" lon="2.87414">
        <ele>1037.316916</ele>
        <time>2021-04-29T21:21:56.306Z</time>
      </trkpt>
      <trkpt lat="45.39326" lon="2.87415">
        <ele>1037.498554</ele>
        <time>2021-04-29T21:21:59.093Z</time>
      </trkpt>
      <trkpt lat="45.39303" lon="2.87454">
        <ele>1038.318225</ele>
        <time>2021-04-29T21:22:12.531Z</time>
      </trkpt>
      <trkpt lat="45.39263" lon="2.87485">
        <ele>1039.363831</ele>
        <time>2021-04-29T21:22:28.113Z</time>
      </trkpt>
      <trkpt lat="45.39239" lon="2.87516">
        <ele>1040.416742</ele>
        <time>2021-04-29T21:22:39.794Z</time>
      </trkpt>
      <trkpt lat="45.39218" lon="2.87675">
        <ele>1045.632232</ele>
        <time>2021-04-29T21:23:29.523Z</time>
      </trkpt>
      <trkpt lat="45.39194" lon="2.87843">
        <ele>1050.670173</ele>
        <time>2021-04-29T21:24:16.359Z</time>
      </trkpt>
      <trkpt lat="45.39194" lon="2.87865">
        <ele>1051.26851</ele>
        <time>2021-04-29T21:24:21.944Z</time>
      </trkpt>
      <trkpt lat="45.39196" lon="2.87883">
        <ele>1051.789876</ele>
        <time>2021-04-29T21:24:26.648Z</time>
      </trkpt>
      <trkpt lat="45.39204" lon="2.879">
        <ele>1052.355547</ele>
        <time>2021-04-29T21:24:32.851Z</time>
      </trkpt>
      <trkpt lat="45.39253" lon="2.87954">
        <ele>1054.765804</ele>
        <time>2021-04-29T21:24:55.652Z</time>
      </trkpt>
      <trkpt lat="45.39258" lon="2.8796">
        <ele>1055.013826</ele>
        <time>2021-04-29T21:24:58.853Z</time>
      </trkpt>
      <trkpt lat="45.39289" lon="2.87997">
        <ele>1056.472822</ele>
        <time>2021-04-29T21:25:12.659Z</time>
      </trkpt>
      <trkpt lat="45.39294" lon="2.88014">
        <ele>1056.919903</ele>
        <time>2021-04-29T21:25:16.233Z</time>
      </trkpt>
      <trkpt lat="45.39296" lon="2.88022">
        <ele>1057.137535</ele>
        <time>2021-04-29T21:25:17.993Z</time>
      </trkpt>
      <trkpt lat="45.39299" lon="2.88047">
        <ele>1057.793211</ele>
        <time>2021-04-29T21:25:25.182Z</time>
      </trkpt>
      <trkpt lat="45.39302" lon="2.88071">
        <ele>1058.406404</ele>
        <time>2021-04-29T21:25:30.278Z</time>
      </trkpt>
      <trkpt lat="45.39305" lon="2.88092">
        <ele>1058.951027</ele>
        <time>2021-04-29T21:25:37.160Z</time>
      </trkpt>
      <trkpt lat="45.39309" lon="2.88121">
        <ele>1059.693323</ele>
        <time>2021-04-29T21:25:43.786Z</time>
      </trkpt>
      <trkpt lat="45.39316" lon="2.8814">
        <ele>1060.236824</ele>
        <time>2021-04-29T21:25:50.892Z</time>
      </trkpt>
      <trkpt lat="45.39349" lon="2.88187">
        <ele>1061.986344</ele>
        <time>2021-04-29T21:26:08.301Z</time>
      </trkpt>
      <trkpt lat="45.39353" lon="2.88201">
        <ele>1062.412541</ele>
        <time>2021-04-29T21:26:11.969Z</time>
      </trkpt>
      <trkpt lat="45.39354" lon="2.88206">
        <ele>1062.563126</ele>
        <time>2021-04-29T21:26:13.872Z</time>
      </trkpt>
      <trkpt lat="45.39365" lon="2.88281">
        <ele>1064.763385</ele>
        <time>2021-04-29T21:26:34.165Z</time>
      </trkpt>
      <trkpt lat="45.39383" lon="2.88325">
        <ele>1066.198613</ele>
        <time>2021-04-29T21:26:46.738Z</time>
      </trkpt>
      <trkpt lat="45.39472" lon="2.88463">
        <ele>1071.959487</ele>
        <time>2021-04-29T21:27:40.360Z</time>
      </trkpt>
      <trkpt lat="45.39523" lon="2.88516">
        <ele>1074.912493</ele>
        <time>2021-04-29T21:28:08.221Z</time>
      </trkpt>
      <trkpt lat="45.39537" lon="2.88549">
        <ele>1076.176386</ele>
        <time>2021-04-29T21:28:19.377Z</time>
      </trkpt>
      <trkpt lat="45.39543" lon="2.8859">
        <ele>1077.36456</ele>
        <time>2021-04-29T21:28:30.544Z</time>
      </trkpt>
      <trkpt lat="45.39546" lon="2.88615">
        <ele>1077.767126</ele>
        <time>2021-04-29T21:28:37.109Z</time>
      </trkpt>
      <trkpt lat="45.39551" lon="2.88651">
        <ele>1078.348574</ele>
        <time>2021-04-29T21:28:46.337Z</time>
      </trkpt>
      <trkpt lat="45.39563" lon="2.88688">
        <ele>1078.992845</ele>
        <time>2021-04-29T21:28:55.688Z</time>
      </trkpt>
      <trkpt lat="45.39576" lon="2.88722">
        <ele>1079.613467</ele>
        <time>2021-04-29T21:29:04.352Z</time>
      </trkpt>
      <trkpt lat="45.39601" lon="2.88764">
        <ele>1080.492853</ele>
        <time>2021-04-29T21:29:15.555Z</time>
      </trkpt>
      <trkpt lat="45.39621" lon="2.88784">
        <ele>1081.041165</ele>
        <time>2021-04-29T21:29:21.931Z</time>
      </trkpt>
      <trkpt lat="45.3973" lon="2.8884">
        <ele>1081.836421</ele>
        <time>2021-04-29T21:29:47.150Z</time>
      </trkpt>
      <trkpt lat="45.39835" lon="2.88958">
        <ele>1083.120142</ele>
        <time>2021-04-29T21:30:22.874Z</time>
      </trkpt>
      <trkpt lat="45.39886" lon="2.89038">
        <ele>1084.216523</ele>
        <time>2021-04-29T21:30:44.344Z</time>
      </trkpt>
      <trkpt lat="45.39979" lon="2.89105">
        <ele>1086.309751</ele>
        <time>2021-04-29T21:31:15.138Z</time>
      </trkpt>
      <trkpt lat="45.39995" lon="2.89114">
        <ele>1086.730466</ele>
        <time>2021-04-29T21:31:21.285Z</time>
      </trkpt>
      <trkpt lat="45.40009" lon="2.89116">
        <ele>1087.065253</ele>
        <time>2021-04-29T21:31:25.167Z</time>
      </trkpt>
      <trkpt lat="45.40022" lon="2.89118">
        <ele>1087.382639</ele>
        <time>2021-04-29T21:31:28.771Z</time>
      </trkpt>
      <trkpt lat="45.40058" lon="2.89124">
        <ele>1088.260115</ele>
        <time>2021-04-29T21:31:40.569Z</time>
      </trkpt>
      <trkpt lat="45.40059" lon="2.89129">
        <ele>1088.35118</ele>
        <time>2021-04-29T21:31:43.037Z</time>
      </trkpt>
      <trkpt lat="45.40084" lon="2.89257">
        <ele>1091.315226</ele>
        <time>2021-04-29T21:32:14.442Z</time>
      </trkpt>
      <trkpt lat="45.40094" lon="2.89286">
        <ele>1092.137431</ele>
        <time>2021-04-29T21:32:23.261Z</time>
      </trkpt>
      <trkpt lat="45.40119" lon="2.89333">
        <ele>1093.644798</ele>
        <time>2021-04-29T21:32:39.230Z</time>
      </trkpt>
      <trkpt lat="45.40154" lon="2.89436">
        <ele>1096.744518</ele>
        <time>2021-04-29T21:33:09.429Z</time>
      </trkpt>
      <trkpt lat="45.40171" lon="2.89474">
        <ele>1098.119496</ele>
        <time>2021-04-29T21:33:21.667Z</time>
      </trkpt>
      <trkpt lat="45.40186" lon="2.89535">
        <ele>1100.100475</ele>
        <time>2021-04-29T21:33:39.523Z</time>
      </trkpt>
      <trkpt lat="45.40205" lon="2.89578">
        <ele>1101.651927</ele>
        <time>2021-04-29T21:33:53.777Z</time>
      </trkpt>
      <trkpt lat="45.40229" lon="2.89723">
        <ele>1106.680136</ele>
        <time>2021-04-29T21:34:37.471Z</time>
      </trkpt>
      <trkpt lat="45.40249" lon="2.89756">
        <ele>1108.255005</ele>
        <time>2021-04-29T21:34:50.375Z</time>
      </trkpt>
      <trkpt lat="45.40272" lon="2.89834">
        <ele>1111.275054</ele>
        <time>2021-04-29T21:35:15.242Z</time>
      </trkpt>
      <trkpt lat="45.40283" lon="2.89854">
        <ele>1112.205194</ele>
        <time>2021-04-29T21:35:23.383Z</time>
      </trkpt>
      <trkpt lat="45.40323" lon="2.899">
        <ele>1115.252287</ele>
        <time>2021-04-29T21:35:47.333Z</time>
      </trkpt>
      <trkpt lat="45.40331" lon="2.89938">
        <ele>1117.007122</ele>
        <time>2021-04-29T21:36:00.489Z</time>
      </trkpt>
      <trkpt lat="45.40332" lon="2.89965">
        <ele>1118.179809</ele>
        <time>2021-04-29T21:36:09.634Z</time>
      </trkpt>
      <trkpt lat="45.40332" lon="2.89979">
        <ele>1118.78114</ele>
        <time>2021-04-29T21:36:14.571Z</time>
      </trkpt>
      <trkpt lat="45.4033" lon="2.89991">
        <ele>1119.30688</ele>
        <time>2021-04-29T21:36:18.638Z</time>
      </trkpt>
      <trkpt lat="45.40329" lon="2.89997">
        <ele>1119.574526</ele>
        <time>2021-04-29T21:36:20.866Z</time>
      </trkpt>
      <trkpt lat="45.4032" lon="2.90024">
        <ele>1120.903307</ele>
        <time>2021-04-29T21:36:31.781Z</time>
      </trkpt>
      <trkpt lat="45.40307" lon="2.90059">
        <ele>1122.582567</ele>
        <time>2021-04-29T21:36:44.930Z</time>
      </trkpt>
      <trkpt lat="45.403" lon="2.90096">
        <ele>1124.159319</ele>
        <time>2021-04-29T21:36:57.463Z</time>
      </trkpt>
      <trkpt lat="45.40298" lon="2.90136">
        <ele>1125.268297</ele>
        <time>2021-04-29T21:37:10.009Z</time>
      </trkpt>
      <trkpt lat="45.40297" lon="2.90219">
        <ele>1127.545557</ele>
        <time>2021-04-29T21:37:34.702Z</time>
      </trkpt>
      <trkpt lat="45.40297" lon="2.90257">
        <ele>1128.587933</ele>
        <time>2021-04-29T21:37:44.934Z</time>
      </trkpt>
      <trkpt lat="45.40297" lon="2.90368">
        <ele>1131.23128</ele>
        <time>2021-04-29T21:38:08.881Z</time>
      </trkpt>
      <trkpt lat="45.40313" lon="2.90429">
        <ele>1131.819427</ele>
        <time>2021-04-29T21:38:19.847Z</time>
      </trkpt>
      <trkpt lat="45.40306" lon="2.90458">
        <ele>1132.093991</ele>
        <time>2021-04-29T21:38:24.115Z</time>
      </trkpt>
      <trkpt lat="45.40283" lon="2.90478">
        <ele>1132.444886</ele>
        <time>2021-04-29T21:38:30.137Z</time>
      </trkpt>
      <trkpt lat="45.40158" lon="2.90525">
        <ele>1136.08626</ele>
        <time>2021-04-29T21:39:10.379Z</time>
      </trkpt>
      <trkpt lat="45.40153" lon="2.90528">
        <ele>1136.324538</ele>
        <time>2021-04-29T21:39:12.930Z</time>
      </trkpt>
      <trkpt lat="45.4015" lon="2.9053">
        <ele>1136.471915</ele>
        <time>2021-04-29T21:39:14.557Z</time>
      </trkpt>
      <trkpt lat="45.4014" lon="2.90543">
        <ele>1137.097989</ele>
        <time>2021-04-29T21:39:19.114Z</time>
      </trkpt>
      <trkpt lat="45.40132" lon="2.90569">
        <ele>1137.997734</ele>
        <time>2021-04-29T21:39:27.875Z</time>
      </trkpt>
      <trkpt lat="45.40126" lon="2.9059">
        <ele>1138.713502</ele>
        <time>2021-04-29T21:39:34.074Z</time>
      </trkpt>
      <trkpt lat="45.40115" lon="2.90617">
        <ele>1139.73048</ele>
        <time>2021-04-29T21:39:44.977Z</time>
      </trkpt>
      <trkpt lat="45.4009" lon="2.90642">
        <ele>1141.128047</ele>
        <time>2021-04-29T21:39:58.963Z</time>
      </trkpt>
      <trkpt lat="45.40035" lon="2.90649">
        <ele>1144.690608</ele>
        <time>2021-04-29T21:40:27.428Z</time>
      </trkpt>
      <trkpt lat="45.39981" lon="2.90686">
        <ele>1148.774332</ele>
        <time>2021-04-29T21:40:59.236Z</time>
      </trkpt>
      <trkpt lat="45.39907" lon="2.90718">
        <ele>1154.062677</ele>
        <time>2021-04-29T21:41:36.093Z</time>
      </trkpt>
      <trkpt lat="45.39881" lon="2.90744">
        <ele>1155.75779</ele>
        <time>2021-04-29T21:41:51.205Z</time>
      </trkpt>
      <trkpt lat="45.39846" lon="2.90809">
        <ele>1158.753644</ele>
        <time>2021-04-29T21:42:16.832Z</time>
      </trkpt>
      <trkpt lat="45.39843" lon="2.90876">
        <ele>1161.266205</ele>
        <time>2021-04-29T21:42:36.989Z</time>
      </trkpt>
      <trkpt lat="45.3986" lon="2.90928">
        <ele>1163.397481</ele>
        <time>2021-04-29T21:42:53.123Z</time>
      </trkpt>
      <trkpt lat="45.39861" lon="2.90949">
        <ele>1163.962772</ele>
        <time>2021-04-29T21:42:58.856Z</time>
      </trkpt>
      <trkpt lat="45.39852" lon="2.9099">
        <ele>1165.132416</ele>
        <time>2021-04-29T21:43:10.616Z</time>
      </trkpt>
      <trkpt lat="45.39857" lon="2.91043">
        <ele>1166.575417</ele>
        <time>2021-04-29T21:43:24.842Z</time>
      </trkpt>
      <trkpt lat="45.39846" lon="2.91104">
        <ele>1168.286826</ele>
        <time>2021-04-29T21:43:41.293Z</time>
      </trkpt>
      <trkpt lat="45.39882" lon="2.91185">
        <ele>1170.833554</ele>
        <time>2021-04-29T21:44:05.737Z</time>
      </trkpt>
      <trkpt lat="45.39911" lon="2.91277">
        <ele>1173.268823</ele>
        <time>2021-04-29T21:44:31.859Z</time>
      </trkpt>
      <trkpt lat="45.39915" lon="2.91304">
        <ele>1173.926939</ele>
        <time>2021-04-29T21:44:38.731Z</time>
      </trkpt>
      <trkpt lat="45.39904" lon="2.91341">
        <ele>1174.904187</ele>
        <time>2021-04-29T21:44:48.784Z</time>
      </trkpt>
      <trkpt lat="45.39874" lon="2.91405">
        <ele>1176.720187</ele>
        <time>2021-04-29T21:45:07.859Z</time>
      </trkpt>
      <trkpt lat="45.39867" lon="2.9142">
        <ele>1177.069912</ele>
        <time>2021-04-29T21:45:12.376Z</time>
      </trkpt>
      <trkpt lat="45.39849" lon="2.91458">
        <ele>1177.95953</ele>
        <time>2021-04-29T21:45:23.634Z</time>
      </trkpt>
      <trkpt lat="45.39804" lon="2.9153">
        <ele>1179.835465</ele>
        <time>2021-04-29T21:45:46.523Z</time>
      </trkpt>
      <trkpt lat="45.39798" lon="2.91538">
        <ele>1180.063287</ele>
        <time>2021-04-29T21:45:49.301Z</time>
      </trkpt>
      <trkpt lat="45.39777" lon="2.91568">
        <ele>1180.875719</ele>
        <time>2021-04-29T21:45:58.717Z</time>
      </trkpt>
      <trkpt lat="45.39713" lon="2.91655">
        <ele>1182.786189</ele>
        <time>2021-04-29T21:46:25.599Z</time>
      </trkpt>
      <trkpt lat="45.39687" lon="2.9168">
        <ele>1183.397287</ele>
        <time>2021-04-29T21:46:35.255Z</time>
      </trkpt>
      <trkpt lat="45.3959" lon="2.91708">
        <ele>1185.2767</ele>
        <time>2021-04-29T21:47:04.157Z</time>
      </trkpt>
      <trkpt lat="45.39568" lon="2.91725">
        <ele>1185.696728</ele>
        <time>2021-04-29T21:47:11.245Z</time>
      </trkpt>
      <trkpt lat="45.39566" lon="2.91727">
        <ele>1185.729318</ele>
        <time>2021-04-29T21:47:11.878Z</time>
      </trkpt>
      <trkpt lat="45.39411" lon="2.92079">
        <ele>1190.670569</ele>
        <time>2021-04-29T21:48:36.871Z</time>
      </trkpt>
      <trkpt lat="45.39385" lon="2.92102">
        <ele>1191.199981</ele>
        <time>2021-04-29T21:48:45.653Z</time>
      </trkpt>
      <trkpt lat="45.39297" lon="2.92147">
        <ele>1192.952016</ele>
        <time>2021-04-29T21:49:12.564Z</time>
      </trkpt>
      <trkpt lat="45.39182" lon="2.92205">
        <ele>1195.576759</ele>
        <time>2021-04-29T21:49:50.083Z</time>
      </trkpt>
      <trkpt lat="45.39104" lon="2.92244">
        <ele>1197.834008</ele>
        <time>2021-04-29T21:50:17.236Z</time>
      </trkpt>
      <trkpt lat="45.3905" lon="2.92268">
        <ele>1199.39075</ele>
        <time>2021-04-29T21:50:37.821Z</time>
      </trkpt>
      <trkpt lat="45.38975" lon="2.92274">
        <ele>1201.40248</ele>
        <time>2021-04-29T21:51:03.479Z</time>
      </trkpt>
      <trkpt lat="45.38943" lon="2.92277">
        <ele>1202.258469</ele>
        <time>2021-04-29T21:51:13.258Z</time>
      </trkpt>
      <trkpt lat="45.38923" lon="2.92285">
        <ele>1202.817997</ele>
        <time>2021-04-29T21:51:19.406Z</time>
      </trkpt>
      <trkpt lat="45.38913" lon="2.92292">
        <ele>1203.133044</ele>
        <time>2021-04-29T21:51:23.655Z</time>
      </trkpt>
      <trkpt lat="45.38877" lon="2.92328">
        <ele>1204.317629</ele>
        <time>2021-04-29T21:51:37.048Z</time>
      </trkpt>
      <trkpt lat="45.38866" lon="2.92337">
        <ele>1204.733185</ele>
        <time>2021-04-29T21:51:40.930Z</time>
      </trkpt>
      <trkpt lat="45.38857" lon="2.9235">
        <ele>1205.130965</ele>
        <time>2021-04-29T21:51:45.657Z</time>
      </trkpt>
      <trkpt lat="45.38854" lon="2.92356">
        <ele>1205.305301</ele>
        <time>2021-04-29T21:51:47.627Z</time>
      </trkpt>
      <trkpt lat="45.38849" lon="2.92363">
        <ele>1205.51745</ele>
        <time>2021-04-29T21:51:50.085Z</time>
      </trkpt>
      <trkpt lat="45.38846" lon="2.9237">
        <ele>1205.695824</ele>
        <time>2021-04-29T21:51:51.895Z</time>
      </trkpt>
      <trkpt lat="45.38846" lon="2.92377">
        <ele>1205.872088</ele>
        <time>2021-04-29T21:51:53.534Z</time>
      </trkpt>
      <trkpt lat="45.38846" lon="2.92384">
        <ele>1206.025959</ele>
        <time>2021-04-29T21:51:55.479Z</time>
      </trkpt>
      <trkpt lat="45.38847" lon="2.9239">
        <ele>1206.150682</ele>
        <time>2021-04-29T21:51:57.051Z</time>
      </trkpt>
      <trkpt lat="45.38856" lon="2.92411">
        <ele>1206.707266</ele>
        <time>2021-04-29T21:52:03.772Z</time>
      </trkpt>
      <trkpt lat="45.38863" lon="2.92422">
        <ele>1207.028197</ele>
        <time>2021-04-29T21:52:06.822Z</time>
      </trkpt>
      <trkpt lat="45.38867" lon="2.92426">
        <ele>1207.172635</ele>
        <time>2021-04-29T21:52:08.697Z</time>
      </trkpt>
      <trkpt lat="45.3888" lon="2.92427">
        <ele>1207.594618</ele>
        <time>2021-04-29T21:52:13.692Z</time>
      </trkpt>
      <trkpt lat="45.38908" lon="2.92411">
        <ele>1208.554262</ele>
        <time>2021-04-29T21:52:23.750Z</time>
      </trkpt>
      <trkpt lat="45.38916" lon="2.92411">
        <ele>1208.785221</ele>
        <time>2021-04-29T21:52:26.336Z</time>
      </trkpt>
      <trkpt lat="45.38925" lon="2.92413">
        <ele>1209.069812</ele>
        <time>2021-04-29T21:52:29.687Z</time>
      </trkpt>
      <trkpt lat="45.38932" lon="2.92416">
        <ele>1209.317537</ele>
        <time>2021-04-29T21:52:32.021Z</time>
      </trkpt>
      <trkpt lat="45.38949" lon="2.92427">
        <ele>1209.89886</ele>
        <time>2021-04-29T21:52:38.415Z</time>
      </trkpt>
      <trkpt lat="45.38992" lon="2.92456">
        <ele>1211.400781</ele>
        <time>2021-04-29T21:52:56.566Z</time>
      </trkpt>
      <trkpt lat="45.39019" lon="2.92484">
        <ele>1212.467676</ele>
        <time>2021-04-29T21:53:09.571Z</time>
      </trkpt>
      <trkpt lat="45.39134" lon="2.92633">
        <ele>1216.817988</ele>
        <time>2021-04-29T21:54:01.269Z</time>
      </trkpt>
      <trkpt lat="45.39196" lon="2.92697">
        <ele>1218.474778</ele>
        <time>2021-04-29T21:54:23.690Z</time>
      </trkpt>
      <trkpt lat="45.39231" lon="2.92753">
        <ele>1219.594453</ele>
        <time>2021-04-29T21:54:39.424Z</time>
      </trkpt>
      <trkpt lat="45.39276" lon="2.9281">
        <ele>1220.812095</ele>
        <time>2021-04-29T21:54:58.061Z</time>
      </trkpt>
      <trkpt lat="45.39378" lon="2.92947">
        <ele>1223.312392</ele>
        <time>2021-04-29T21:55:40.635Z</time>
      </trkpt>
      <trkpt lat="45.39396" lon="2.92972">
        <ele>1223.538138</ele>
        <time>2021-04-29T21:55:48.044Z</time>
      </trkpt>
      <trkpt lat="45.39421" lon="2.93008">
        <ele>1223.844812</ele>
        <time>2021-04-29T21:55:57.611Z</time>
      </trkpt>
      <trkpt lat="45.39483" lon="2.93122">
        <ele>1224.620074</ele>
        <time>2021-04-29T21:56:21.282Z</time>
      </trkpt>
      <trkpt lat="45.39496" lon="2.93156">
        <ele>1224.525468</ele>
        <time>2021-04-29T21:56:26.752Z</time>
      </trkpt>
      <trkpt lat="45.39504" lon="2.93196">
        <ele>1224.422527</ele>
        <time>2021-04-29T21:56:32.617Z</time>
      </trkpt>
      <trkpt lat="45.39539" lon="2.9329">
        <ele>1224.158365</ele>
        <time>2021-04-29T21:56:47.746Z</time>
      </trkpt>
      <trkpt lat="45.39541" lon="2.93334">
        <ele>1224.050513</ele>
        <time>2021-04-29T21:56:54.111Z</time>
      </trkpt>
      <trkpt lat="45.39556" lon="2.93427">
        <ele>1224.698226</ele>
        <time>2021-04-29T21:57:09.481Z</time>
      </trkpt>
      <trkpt lat="45.39549" lon="2.93521">
        <ele>1225.455378</ele>
        <time>2021-04-29T21:57:27.514Z</time>
      </trkpt>
      <trkpt lat="45.39559" lon="2.93583">
        <ele>1225.973027</ele>
        <time>2021-04-29T21:57:41.406Z</time>
      </trkpt>
      <trkpt lat="45.3956" lon="2.93698">
        <ele>1227.541078</ele>
        <time>2021-04-29T21:58:07.829Z</time>
      </trkpt>
      <trkpt lat="45.39584" lon="2.93746">
        <ele>1228.396171</ele>
        <time>2021-04-29T21:58:21.210Z</time>
      </trkpt>
      <trkpt lat="45.396" lon="2.93791">
        <ele>1229.112005</ele>
        <time>2021-04-29T21:58:31.899Z</time>
      </trkpt>
      <trkpt lat="45.39632" lon="2.93848">
        <ele>1229.6947</ele>
        <time>2021-04-29T21:58:46.198Z</time>
      </trkpt>
      <trkpt lat="45.39666" lon="2.93954">
        <ele>1229.311072</ele>
        <time>2021-04-29T21:59:04.478Z</time>
      </trkpt>
      <trkpt lat="45.39753" lon="2.94161">
        <ele>1227.699796</ele>
        <time>2021-04-29T21:59:34.991Z</time>
      </trkpt>
      <trkpt lat="45.39758" lon="2.94213">
        <ele>1227.191609</ele>
        <time>2021-04-29T21:59:41.808Z</time>
      </trkpt>
      <trkpt lat="45.39742" lon="2.9428">
        <ele>1226.510304</ele>
        <time>2021-04-29T21:59:51.351Z</time>
      </trkpt>
      <trkpt lat="45.39757" lon="2.94358">
        <ele>1226.240629</ele>
        <time>2021-04-29T22:00:02.880Z</time>
      </trkpt>
      <trkpt lat="45.39748" lon="2.94379">
        <ele>1226.167798</ele>
        <time>2021-04-29T22:00:06.521Z</time>
      </trkpt>
      <trkpt lat="45.39685" lon="2.94469">
        <ele>1225.792491</ele>
        <time>2021-04-29T22:00:26.384Z</time>
      </trkpt>
      <trkpt lat="45.39681" lon="2.94485">
        <ele>1225.741673</ele>
        <time>2021-04-29T22:00:29.034Z</time>
      </trkpt>
      <trkpt lat="45.39684" lon="2.94505">
        <ele>1225.656523</ele>
        <time>2021-04-29T22:00:32.102Z</time>
      </trkpt>
      <trkpt lat="45.39745" lon="2.94646">
        <ele>1224.671683</ele>
        <time>2021-04-29T22:00:54.135Z</time>
      </trkpt>
      <trkpt lat="45.39751" lon="2.94673">
        <ele>1224.503467</ele>
        <time>2021-04-29T22:00:57.813Z</time>
      </trkpt>
      <trkpt lat="45.3975" lon="2.94696">
        <ele>1224.367575</ele>
        <time>2021-04-29T22:01:01.040Z</time>
      </trkpt>
      <trkpt lat="45.39743" lon="2.94742">
        <ele>1224.258975</ele>
        <time>2021-04-29T22:01:07.720Z</time>
      </trkpt>
      <trkpt lat="45.39741" lon="2.94754">
        <ele>1224.312975</ele>
        <time>2021-04-29T22:01:09.489Z</time>
      </trkpt>
      <trkpt lat="45.39737" lon="2.94764">
        <ele>1224.364088</ele>
        <time>2021-04-29T22:01:11.103Z</time>
      </trkpt>
      <trkpt lat="45.39728" lon="2.94781">
        <ele>1224.460254</ele>
        <time>2021-04-29T22:01:14.548Z</time>
      </trkpt>
      <trkpt lat="45.39686" lon="2.94818">
        <ele>1224.772996</ele>
        <time>2021-04-29T22:01:26.211Z</time>
      </trkpt>
      <trkpt lat="45.39674" lon="2.94834">
        <ele>1224.87646</ele>
        <time>2021-04-29T22:01:30.203Z</time>
      </trkpt>
      <trkpt lat="45.39647" lon="2.94912">
        <ele>1225.268259</ele>
        <time>2021-04-29T22:01:47.347Z</time>
      </trkpt>
      <trkpt lat="45.39635" lon="2.94921">
        <ele>1225.359441</ele>
        <time>2021-04-29T22:01:51.520Z</time>
      </trkpt>
      <trkpt lat="45.39601" lon="2.94923">
        <ele>1225.635149</ele>
        <time>2021-04-29T22:02:02.125Z</time>
      </trkpt>
      <trkpt lat="45.39591" lon="2.94932">
        <ele>1225.727584</ele>
        <time>2021-04-29T22:02:05.571Z</time>
      </trkpt>
      <trkpt lat="45.39566" lon="2.95053">
        <ele>1226.456365</ele>
        <time>2021-04-29T22:02:30.558Z</time>
      </trkpt>
      <trkpt lat="45.39605" lon="2.95289">
        <ele>1224.555265</ele>
        <time>2021-04-29T22:03:01.944Z</time>
      </trkpt>
      <trkpt lat="45.3964" lon="2.95424">
        <ele>1223.017189</ele>
        <time>2021-04-29T22:03:18.806Z</time>
      </trkpt>
      <trkpt lat="45.39683" lon="2.95529">
        <ele>1221.905917</ele>
        <time>2021-04-29T22:03:34.040Z</time>
      </trkpt>
      <trkpt lat="45.39685" lon="2.95559">
        <ele>1221.630865</ele>
        <time>2021-04-29T22:03:39.587Z</time>
      </trkpt>
      <trkpt lat="45.39671" lon="2.95611">
        <ele>1221.555269</ele>
        <time>2021-04-29T22:03:49.459Z</time>
      </trkpt>
      <trkpt lat="45.39672" lon="2.95633">
        <ele>1221.804959</ele>
        <time>2021-04-29T22:03:53.196Z</time>
      </trkpt>
      <trkpt lat="45.39708" lon="2.9572">
        <ele>1222.94416</ele>
        <time>2021-04-29T22:04:14.291Z</time>
      </trkpt>
      <trkpt lat="45.39712" lon="2.95732">
        <ele>1223.095637</ele>
        <time>2021-04-29T22:04:17.460Z</time>
      </trkpt>
      <trkpt lat="45.39715" lon="2.95743">
        <ele>1223.219063</ele>
        <time>2021-04-29T22:04:20.498Z</time>
      </trkpt>
      <trkpt lat="45.39719" lon="2.9579">
        <ele>1223.756604</ele>
        <time>2021-04-29T22:04:30.718Z</time>
      </trkpt>
      <trkpt lat="45.3972" lon="2.95918">
        <ele>1224.678957</ele>
        <time>2021-04-29T22:04:56.277Z</time>
      </trkpt>
      <trkpt lat="45.39728" lon="2.95945">
        <ele>1224.838402</ele>
        <time>2021-04-29T22:05:01.997Z</time>
      </trkpt>
      <trkpt lat="45.3978" lon="2.96026">
        <ele>1225.424233</ele>
        <time>2021-04-29T22:05:18.815Z</time>
      </trkpt>
      <trkpt lat="45.39817" lon="2.9608">
        <ele>1225.953285</ele>
        <time>2021-04-29T22:05:31.557Z</time>
      </trkpt>
      <trkpt lat="45.39823" lon="2.96089">
        <ele>1226.051205</ele>
        <time>2021-04-29T22:05:33.307Z</time>
      </trkpt>
      <trkpt lat="45.39828" lon="2.96098">
        <ele>1226.151975</ele>
        <time>2021-04-29T22:05:35.442Z</time>
      </trkpt>
      <trkpt lat="45.39832" lon="2.96107">
        <ele>1226.235836</ele>
        <time>2021-04-29T22:05:36.795Z</time>
      </trkpt>
      <trkpt lat="45.39822" lon="2.96107">
        <ele>1226.354153</ele>
        <time>2021-04-29T22:05:41.850Z</time>
      </trkpt>
      <trkpt lat="45.39796" lon="2.96111">
        <ele>1226.661023</ele>
        <time>2021-04-29T22:05:51.917Z</time>
      </trkpt>
      <trkpt lat="45.39784" lon="2.96121">
        <ele>1226.81942</ele>
        <time>2021-04-29T22:05:58.386Z</time>
      </trkpt>
      <trkpt lat="45.3977" lon="2.96145">
        <ele>1227.068127</ele>
        <time>2021-04-29T22:06:06.763Z</time>
      </trkpt>
      <trkpt lat="45.39758" lon="2.96202">
        <ele>1227.549692</ele>
        <time>2021-04-29T22:06:25.769Z</time>
      </trkpt>
      <trkpt lat="45.3972" lon="2.96256">
        <ele>1228.626794</ele>
        <time>2021-04-29T22:06:51.540Z</time>
      </trkpt>
      <trkpt lat="45.39701" lon="2.96266">
        <ele>1229.07364</ele>
        <time>2021-04-29T22:07:01.360Z</time>
      </trkpt>
      <trkpt lat="45.39614" lon="2.96232">
        <ele>1231.063239</ele>
        <time>2021-04-29T22:07:43.335Z</time>
      </trkpt>
      <trkpt lat="45.39599" lon="2.96215">
        <ele>1231.48265</ele>
        <time>2021-04-29T22:07:51.809Z</time>
      </trkpt>
      <trkpt lat="45.3958" lon="2.96162">
        <ele>1231.753346</ele>
        <time>2021-04-29T22:08:09.841Z</time>
      </trkpt>
      <trkpt lat="45.39304" lon="2.96201">
        <ele>1231.549026</ele>
        <time>2021-04-29T22:09:52.139Z</time>
      </trkpt>
      <trkpt lat="45.39278" lon="2.96214">
        <ele>1231.384699</ele>
        <time>2021-04-29T22:10:01.083Z</time>
      </trkpt>
      <trkpt lat="45.39244" lon="2.96219">
        <ele>1230.64585</ele>
        <time>2021-04-29T22:10:12.025Z</time>
      </trkpt>
      <trkpt lat="45.3922" lon="2.96233">
        <ele>1229.624594</ele>
        <time>2021-04-29T22:10:19.983Z</time>
      </trkpt>
      <trkpt lat="45.39172" lon="2.96242">
        <ele>1227.737364</ele>
        <time>2021-04-29T22:10:34.219Z</time>
      </trkpt>
      <trkpt lat="45.39128" lon="2.96235">
        <ele>1226.00971</ele>
        <time>2021-04-29T22:10:46.614Z</time>
      </trkpt>
      <trkpt lat="45.39043" lon="2.96191">
        <ele>1220.622824</ele>
        <time>2021-04-29T22:11:10.675Z</time>
      </trkpt>
      <trkpt lat="45.39002" lon="2.96186">
        <ele>1217.31566</ele>
        <time>2021-04-29T22:11:21.192Z</time>
      </trkpt>
      <trkpt lat="45.38907" lon="2.9614">
        <ele>1209.246857</ele>
        <time>2021-04-29T22:11:46.099Z</time>
      </trkpt>
      <trkpt lat="45.38877" lon="2.96134">
        <ele>1206.62791</ele>
        <time>2021-04-29T22:11:53.576Z</time>
      </trkpt>
      <trkpt lat="45.38816" lon="2.96142">
        <ele>1201.357997</ele>
        <time>2021-04-29T22:12:08.721Z</time>
      </trkpt>
      <trkpt lat="45.38785" lon="2.96149">
        <ele>1198.620982</ele>
        <time>2021-04-29T22:12:16.690Z</time>
      </trkpt>
      <trkpt lat="45.38751" lon="2.96176">
        <ele>1195.3188</ele>
        <time>2021-04-29T22:12:26.456Z</time>
      </trkpt>
      <trkpt lat="45.38738" lon="2.96196">
        <ele>1193.895443</ele>
        <time>2021-04-29T22:12:31.457Z</time>
      </trkpt>
      <trkpt lat="45.38745" lon="2.96263">
        <ele>1191.386931</ele>
        <time>2021-04-29T22:12:44.025Z</time>
      </trkpt>
      <trkpt lat="45.3874" lon="2.96314">
        <ele>1189.494599</ele>
        <time>2021-04-29T22:12:53.781Z</time>
      </trkpt>
      <trkpt lat="45.38731" lon="2.96355">
        <ele>1187.867452</ele>
        <time>2021-04-29T22:13:02.407Z</time>
      </trkpt>
      <trkpt lat="45.38727" lon="2.96365">
        <ele>1187.452537</ele>
        <time>2021-04-29T22:13:04.603Z</time>
      </trkpt>
      <trkpt lat="45.38714" lon="2.96379">
        <ele>1186.591705</ele>
        <time>2021-04-29T22:13:09.210Z</time>
      </trkpt>
      <trkpt lat="45.38557" lon="2.96434">
        <ele>1180.585512</ele>
        <time>2021-04-29T22:13:56.638Z</time>
      </trkpt>
      <trkpt lat="45.38527" lon="2.96428">
        <ele>1179.569914</ele>
        <time>2021-04-29T22:14:05.766Z</time>
      </trkpt>
      <trkpt lat="45.38491" lon="2.96407">
        <ele>1178.195388</ele>
        <time>2021-04-29T22:14:16.930Z</time>
      </trkpt>
      <trkpt lat="45.38458" lon="2.96398">
        <ele>1176.900883</ele>
        <time>2021-04-29T22:14:26.632Z</time>
      </trkpt>
      <trkpt lat="45.38429" lon="2.96399">
        <ele>1175.754753</ele>
        <time>2021-04-29T22:14:35.199Z</time>
      </trkpt>
      <trkpt lat="45.38409" lon="2.96383">
        <ele>1174.885081</ele>
        <time>2021-04-29T22:14:41.632Z</time>
      </trkpt>
      <trkpt lat="45.38393" lon="2.96383">
        <ele>1174.289211</ele>
        <time>2021-04-29T22:14:46.090Z</time>
      </trkpt>
      <trkpt lat="45.3838" lon="2.96393">
        <ele>1173.686569</ele>
        <time>2021-04-29T22:14:50.578Z</time>
      </trkpt>
      <trkpt lat="45.38366" lon="2.96407">
        <ele>1173.050974</ele>
        <time>2021-04-29T22:14:55.329Z</time>
      </trkpt>
      <trkpt lat="45.38361" lon="2.96424">
        <ele>1172.547741</ele>
        <time>2021-04-29T22:14:57.454Z</time>
      </trkpt>
      <trkpt lat="45.38287" lon="2.96543">
        <ele>1168.228093</ele>
        <time>2021-04-29T22:15:15.743Z</time>
      </trkpt>
      <trkpt lat="45.38254" lon="2.96605">
        <ele>1166.094465</ele>
        <time>2021-04-29T22:15:24.881Z</time>
      </trkpt>
      <trkpt lat="45.38237" lon="2.96634">
        <ele>1165.076926</ele>
        <time>2021-04-29T22:15:29.323Z</time>
      </trkpt>
      <trkpt lat="45.38225" lon="2.96656">
        <ele>1164.431319</ele>
        <time>2021-04-29T22:15:32.635Z</time>
      </trkpt>
      <trkpt lat="45.38191" lon="2.96707">
        <ele>1162.882441</ele>
        <time>2021-04-29T22:15:41.128Z</time>
      </trkpt>
      <trkpt lat="45.38183" lon="2.96716">
        <ele>1162.565628</ele>
        <time>2021-04-29T22:15:42.903Z</time>
      </trkpt>
      <trkpt lat="45.38177" lon="2.96724">
        <ele>1162.311176</ele>
        <time>2021-04-29T22:15:44.193Z</time>
      </trkpt>
      <trkpt lat="45.38149" lon="2.96753">
        <ele>1161.204239</ele>
        <time>2021-04-29T22:15:50.139Z</time>
      </trkpt>
      <trkpt lat="45.38107" lon="2.9678">
        <ele>1159.760768</ele>
        <time>2021-04-29T22:15:58.023Z</time>
      </trkpt>
      <trkpt lat="45.38059" lon="2.96853">
        <ele>1159.376256</ele>
        <time>2021-04-29T22:16:10.872Z</time>
      </trkpt>
      <trkpt lat="45.3805" lon="2.96876">
        <ele>1159.399441</ele>
        <time>2021-04-29T22:16:14.468Z</time>
      </trkpt>
      <trkpt lat="45.38045" lon="2.96888">
        <ele>1159.411742</ele>
        <time>2021-04-29T22:16:17.497Z</time>
      </trkpt>
      <trkpt lat="45.38039" lon="2.9691">
        <ele>1159.432918</ele>
        <time>2021-04-29T22:16:22.027Z</time>
      </trkpt>
      <trkpt lat="45.38032" lon="2.96921">
        <ele>1159.446013</ele>
        <time>2021-04-29T22:16:24.120Z</time>
      </trkpt>
      <trkpt lat="45.38023" lon="2.96911">
        <ele>1159.461448</ele>
        <time>2021-04-29T22:16:28.246Z</time>
      </trkpt>
      <trkpt lat="45.38" lon="2.96898">
        <ele>1159.492912</ele>
        <time>2021-04-29T22:16:34.030Z</time>
      </trkpt>
      <trkpt lat="45.37991" lon="2.96895">
        <ele>1159.50469</ele>
        <time>2021-04-29T22:16:37.737Z</time>
      </trkpt>
      <trkpt lat="45.37984" lon="2.96892">
        <ele>1159.51346</ele>
        <time>2021-04-29T22:16:40.424Z</time>
      </trkpt>
      <trkpt lat="45.37966" lon="2.96886">
        <ele>1159.62185</ele>
        <time>2021-04-29T22:16:44.934Z</time>
      </trkpt>
      <trkpt lat="45.3795" lon="2.96881">
        <ele>1160.264375</ele>
        <time>2021-04-29T22:16:51.605Z</time>
      </trkpt>
      <trkpt lat="45.37927" lon="2.96881">
        <ele>1161.20567</ele>
        <time>2021-04-29T22:16:58.341Z</time>
      </trkpt>
      <trkpt lat="45.37921" lon="2.96885">
        <ele>1161.460009</ele>
        <time>2021-04-29T22:17:01.567Z</time>
      </trkpt>
      <trkpt lat="45.37914" lon="2.96892">
        <ele>1161.793773</ele>
        <time>2021-04-29T22:17:05.155Z</time>
      </trkpt>
      <trkpt lat="45.37888" lon="2.96954">
        <ele>1163.806032</ele>
        <time>2021-04-29T22:17:23.804Z</time>
      </trkpt>
      <trkpt lat="45.37882" lon="2.96971">
        <ele>1164.321266</ele>
        <time>2021-04-29T22:17:30.198Z</time>
      </trkpt>
      <trkpt lat="45.37874" lon="2.96988">
        <ele>1164.874545</ele>
        <time>2021-04-29T22:17:35.985Z</time>
      </trkpt>
      <trkpt lat="45.37852" lon="2.97026">
        <ele>1166.25877</ele>
        <time>2021-04-29T22:17:51.861Z</time>
      </trkpt>
      <trkpt lat="45.37787" lon="2.97105">
        <ele>1169.353666</ele>
        <time>2021-04-29T22:18:24.924Z</time>
      </trkpt>
      <trkpt lat="45.37775" lon="2.97134">
        <ele>1170.182526</ele>
        <time>2021-04-29T22:18:33.713Z</time>
      </trkpt>
      <trkpt lat="45.37767" lon="2.97177">
        <ele>1171.30684</ele>
        <time>2021-04-29T22:18:44.523Z</time>
      </trkpt>
      <trkpt lat="45.37755" lon="2.97262">
        <ele>1173.269126</ele>
        <time>2021-04-29T22:19:04.515Z</time>
      </trkpt>
      <trkpt lat="45.37743" lon="2.97306">
        <ele>1173.807651</ele>
        <time>2021-04-29T22:19:15.057Z</time>
      </trkpt>
      <trkpt lat="45.37726" lon="2.97335">
        <ele>1174.226527</ele>
        <time>2021-04-29T22:19:23.000Z</time>
      </trkpt>
      <trkpt lat="45.37716" lon="2.97341">
        <ele>1174.400854</ele>
        <time>2021-04-29T22:19:26.358Z</time>
      </trkpt>
      <trkpt lat="45.3769" lon="2.97332">
        <ele>1174.836692</ele>
        <time>2021-04-29T22:19:34.069Z</time>
      </trkpt>
      <trkpt lat="45.3765" lon="2.97301">
        <ele>1175.560878</ele>
        <time>2021-04-29T22:19:45.906Z</time>
      </trkpt>
      <trkpt lat="45.37632" lon="2.97298">
        <ele>1175.851434</ele>
        <time>2021-04-29T22:19:50.473Z</time>
      </trkpt>
      <trkpt lat="45.37588" lon="2.97306">
        <ele>1176.10231</ele>
        <time>2021-04-29T22:20:01.418Z</time>
      </trkpt>
      <trkpt lat="45.37544" lon="2.97336">
        <ele>1176.278419</ele>
        <time>2021-04-29T22:20:12.861Z</time>
      </trkpt>
      <trkpt lat="45.37528" lon="2.97339">
        <ele>1176.335359</ele>
        <time>2021-04-29T22:20:16.473Z</time>
      </trkpt>
      <trkpt lat="45.375" lon="2.97313">
        <ele>1176.456242</ele>
        <time>2021-04-29T22:20:23.908Z</time>
      </trkpt>
      <trkpt lat="45.37452" lon="2.9724">
        <ele>1176.926342</ele>
        <time>2021-04-29T22:20:40.530Z</time>
      </trkpt>
      <trkpt lat="45.3742" lon="2.97219">
        <ele>1177.331756</ele>
        <time>2021-04-29T22:20:48.684Z</time>
      </trkpt>
      <trkpt lat="45.37403" lon="2.97223">
        <ele>1177.539781</ele>
        <time>2021-04-29T22:20:53.616Z</time>
      </trkpt>
      <trkpt lat="45.37384" lon="2.97234">
        <ele>1177.774158</ele>
        <time>2021-04-29T22:20:58.927Z</time>
      </trkpt>
      <trkpt lat="45.37372" lon="2.97235">
        <ele>1177.911472</ele>
        <time>2021-04-29T22:21:01.931Z</time>
      </trkpt>
      <trkpt lat="45.37366" lon="2.97235">
        <ele>1177.984217</ele>
        <time>2021-04-29T22:21:04.391Z</time>
      </trkpt>
      <trkpt lat="45.37344" lon="2.9722">
        <ele>1178.268708</ele>
        <time>2021-04-29T22:21:10.763Z</time>
      </trkpt>
      <trkpt lat="45.37295" lon="2.97161">
        <ele>1179.485369</ele>
        <time>2021-04-29T22:21:30.311Z</time>
      </trkpt>
      <trkpt lat="45.37286" lon="2.97144">
        <ele>1179.947772</ele>
        <time>2021-04-29T22:21:35.115Z</time>
      </trkpt>
      <trkpt lat="45.3728" lon="2.97137">
        <ele>1180.16229</ele>
        <time>2021-04-29T22:21:38.150Z</time>
      </trkpt>
      <trkpt lat="45.37265" lon="2.97128">
        <ele>1180.647738</ele>
        <time>2021-04-29T22:21:42.666Z</time>
      </trkpt>
      <trkpt lat="45.37246" lon="2.97131">
        <ele>1181.243972</ele>
        <time>2021-04-29T22:21:49.962Z</time>
      </trkpt>
      <trkpt lat="45.37173" lon="2.97181">
        <ele>1183.655957</ele>
        <time>2021-04-29T22:22:18.214Z</time>
      </trkpt>
      <trkpt lat="45.37068" lon="2.97227">
        <ele>1188.570872</ele>
        <time>2021-04-29T22:23:00.867Z</time>
      </trkpt>
      <trkpt lat="45.37062" lon="2.97229">
        <ele>1188.901725</ele>
        <time>2021-04-29T22:23:03.531Z</time>
      </trkpt>
      <trkpt lat="45.37052" lon="2.97231">
        <ele>1189.354966</ele>
        <time>2021-04-29T22:23:08.442Z</time>
      </trkpt>
      <trkpt lat="45.37014" lon="2.97221">
        <ele>1191.211594</ele>
        <time>2021-04-29T22:23:25.069Z</time>
      </trkpt>
      <trkpt lat="45.36956" lon="2.97184">
        <ele>1194.460789</ele>
        <time>2021-04-29T22:23:53.280Z</time>
      </trkpt>
      <trkpt lat="45.36901" lon="2.97166">
        <ele>1197.534038</ele>
        <time>2021-04-29T22:24:20.020Z</time>
      </trkpt>
      <trkpt lat="45.36778" lon="2.97164">
        <ele>1203.693655</ele>
        <time>2021-04-29T22:25:12.495Z</time>
      </trkpt>
      <trkpt lat="45.36695" lon="2.97135">
        <ele>1207.085952</ele>
        <time>2021-04-29T22:25:44.912Z</time>
      </trkpt>
      <trkpt lat="45.36677" lon="2.97122">
        <ele>1207.871027</ele>
        <time>2021-04-29T22:25:51.859Z</time>
      </trkpt>
      <trkpt lat="45.36623" lon="2.9706">
        <ele>1210.525637</ele>
        <time>2021-04-29T22:26:15.968Z</time>
      </trkpt>
      <trkpt lat="45.36566" lon="2.97055">
        <ele>1212.597974</ele>
        <time>2021-04-29T22:26:35.767Z</time>
      </trkpt>
      <trkpt lat="45.36551" lon="2.97055">
        <ele>1213.168647</ele>
        <time>2021-04-29T22:26:40.957Z</time>
      </trkpt>
      <trkpt lat="45.36542" lon="2.97051">
        <ele>1213.497789</ele>
        <time>2021-04-29T22:26:44.238Z</time>
      </trkpt>
      <trkpt lat="45.36533" lon="2.97045">
        <ele>1213.883118</ele>
        <time>2021-04-29T22:26:47.798Z</time>
      </trkpt>
      <trkpt lat="45.36525" lon="2.97034">
        <ele>1214.258071</ele>
        <time>2021-04-29T22:26:51.064Z</time>
      </trkpt>
      <trkpt lat="45.36505" lon="2.97017">
        <ele>1215.139934</ele>
        <time>2021-04-29T22:27:00.687Z</time>
      </trkpt>
      <trkpt lat="45.36417" lon="2.96939">
        <ele>1220.98419</ele>
        <time>2021-04-29T22:27:46.276Z</time>
      </trkpt>
      <trkpt lat="45.36404" lon="2.96934">
        <ele>1221.811817</ele>
        <time>2021-04-29T22:27:51.734Z</time>
      </trkpt>
      <trkpt lat="45.364" lon="2.96936">
        <ele>1222.052999</ele>
        <time>2021-04-29T22:27:53.197Z</time>
      </trkpt>
      <trkpt lat="45.36394" lon="2.96938">
        <ele>1222.417196</ele>
        <time>2021-04-29T22:27:55.958Z</time>
      </trkpt>
      <trkpt lat="45.36386" lon="2.96941">
        <ele>1222.985907</ele>
        <time>2021-04-29T22:28:01.881Z</time>
      </trkpt>
      <trkpt lat="45.36376" lon="2.96944">
        <ele>1223.620457</ele>
        <time>2021-04-29T22:28:06.314Z</time>
      </trkpt>
      <trkpt lat="45.36369" lon="2.96947">
        <ele>1224.051636</ele>
        <time>2021-04-29T22:28:09.804Z</time>
      </trkpt>
      <trkpt lat="45.36355" lon="2.96957">
        <ele>1225.042911</ele>
        <time>2021-04-29T22:28:17.369Z</time>
      </trkpt>
      <trkpt lat="45.36342" lon="2.96965">
        <ele>1225.91537</ele>
        <time>2021-04-29T22:28:23.615Z</time>
      </trkpt>
      <trkpt lat="45.36318" lon="2.96976">
        <ele>1227.578529</ele>
        <time>2021-04-29T22:28:37.439Z</time>
      </trkpt>
      <trkpt lat="45.36298" lon="2.96991">
        <ele>1229.618558</ele>
        <time>2021-04-29T22:28:49.176Z</time>
      </trkpt>
      <trkpt lat="45.36289" lon="2.97005">
        <ele>1230.784221</ele>
        <time>2021-04-29T22:28:58.346Z</time>
      </trkpt>
      <trkpt lat="45.36289" lon="2.97005">
        <ele>1230.784221</ele>
        <time>2021-04-29T22:28:58.374Z</time>
      </trkpt>
      <trkpt lat="45.3628" lon="2.96981">
        <ele>1232.507645</ele>
        <time>2021-04-29T22:29:09.960Z</time>
      </trkpt>
      <trkpt lat="45.36276" lon="2.96975">
        <ele>1233.009128</ele>
        <time>2021-04-29T22:29:13.226Z</time>
      </trkpt>
      <trkpt lat="45.36274" lon="2.9697">
        <ele>1233.428897</ele>
        <time>2021-04-29T22:29:16.489Z</time>
      </trkpt>
      <trkpt lat="45.36266" lon="2.9697">
        <ele>1234.123609</ele>
        <time>2021-04-29T22:29:22.270Z</time>
      </trkpt>
      <trkpt lat="45.36259" lon="2.96969">
        <ele>1234.707008</ele>
        <time>2021-04-29T22:29:25.921Z</time>
      </trkpt>
      <trkpt lat="45.36248" lon="2.96962">
        <ele>1235.765888</ele>
        <time>2021-04-29T22:29:33.581Z</time>
      </trkpt>
      <trkpt lat="45.36228" lon="2.96956">
        <ele>1237.655452</ele>
        <time>2021-04-29T22:29:46.680Z</time>
      </trkpt>
      <trkpt lat="45.36217" lon="2.9697">
        <ele>1238.916787</ele>
        <time>2021-04-29T22:29:55.484Z</time>
      </trkpt>
      <trkpt lat="45.36209" lon="2.96984">
        <ele>1240.043511</ele>
        <time>2021-04-29T22:30:03.932Z</time>
      </trkpt>
      <trkpt lat="45.36194" lon="2.96971">
        <ele>1241.657713</ele>
        <time>2021-04-29T22:30:13.997Z</time>
      </trkpt>
      <trkpt lat="45.36157" lon="2.9694">
        <ele>1244.553514</ele>
        <time>2021-04-29T22:30:37.137Z</time>
      </trkpt>
      <trkpt lat="45.36131" lon="2.96917">
        <ele>1246.067651</ele>
        <time>2021-04-29T22:30:52.037Z</time>
      </trkpt>
      <trkpt lat="45.36118" lon="2.96877">
        <ele>1247.640643</ele>
        <time>2021-04-29T22:31:06.496Z</time>
      </trkpt>
      <trkpt lat="45.36115" lon="2.96834">
        <ele>1249.160731</ele>
        <time>2021-04-29T22:31:20.059Z</time>
      </trkpt>
      <trkpt lat="45.36111" lon="2.96811">
        <ele>1249.974645</ele>
        <time>2021-04-29T22:31:26.179Z</time>
      </trkpt>
      <trkpt lat="45.361" lon="2.96747">
        <ele>1252.327687</ele>
        <time>2021-04-29T22:31:41.284Z</time>
      </trkpt>
      <trkpt lat="45.3608" lon="2.96674">
        <ele>1252.037753</ele>
        <time>2021-04-29T22:31:53.792Z</time>
      </trkpt>
      <trkpt lat="45.36062" lon="2.96638">
        <ele>1251.845961</ele>
        <time>2021-04-29T22:32:00.838Z</time>
      </trkpt>
      <trkpt lat="45.36028" lon="2.9659">
        <ele>1251.543079</ele>
        <time>2021-04-29T22:32:09.602Z</time>
      </trkpt>
      <trkpt lat="45.36014" lon="2.96536">
        <ele>1251.288335</ele>
        <time>2021-04-29T22:32:16.947Z</time>
      </trkpt>
      <trkpt lat="45.36008" lon="2.9651">
        <ele>1250.761591</ele>
        <time>2021-04-29T22:32:20.180Z</time>
      </trkpt>
      <trkpt lat="45.36002" lon="2.96493">
        <ele>1250.205154</ele>
        <time>2021-04-29T22:32:22.481Z</time>
      </trkpt>
      <trkpt lat="45.35993" lon="2.96472">
        <ele>1249.529367</ele>
        <time>2021-04-29T22:32:25.204Z</time>
      </trkpt>
      <trkpt lat="45.35965" lon="2.96421">
        <ele>1247.704574</ele>
        <time>2021-04-29T22:32:32.550Z</time>
      </trkpt>
      <trkpt lat="45.35941" lon="2.96373">
        <ele>1246.039524</ele>
        <time>2021-04-29T22:32:38.888Z</time>
      </trkpt>
      <trkpt lat="45.35923" lon="2.96325">
        <ele>1244.513018</ele>
        <time>2021-04-29T22:32:44.656Z</time>
      </trkpt>
      <trkpt lat="45.35918" lon="2.96307">
        <ele>1243.958657</ele>
        <time>2021-04-29T22:32:46.712Z</time>
      </trkpt>
      <trkpt lat="45.359" lon="2.96242">
        <ele>1241.936378</ele>
        <time>2021-04-29T22:32:54.017Z</time>
      </trkpt>
      <trkpt lat="45.35896" lon="2.96235">
        <ele>1241.651369</ele>
        <time>2021-04-29T22:32:55.012Z</time>
      </trkpt>
      <trkpt lat="45.3589" lon="2.96232">
        <ele>1241.386026</ele>
        <time>2021-04-29T22:32:55.903Z</time>
      </trkpt>
      <trkpt lat="45.35869" lon="2.96237">
        <ele>1240.477443</ele>
        <time>2021-04-29T22:32:59.293Z</time>
      </trkpt>
      <trkpt lat="45.35838" lon="2.9627">
        <ele>1238.869544</ele>
        <time>2021-04-29T22:33:05.202Z</time>
      </trkpt>
      <trkpt lat="45.35824" lon="2.96274">
        <ele>1238.271907</ele>
        <time>2021-04-29T22:33:07.380Z</time>
      </trkpt>
      <trkpt lat="45.35767" lon="2.96224">
        <ele>1236.573739</ele>
        <time>2021-04-29T22:33:19.052Z</time>
      </trkpt>
      <trkpt lat="45.35743" lon="2.96208">
        <ele>1236.586391</ele>
        <time>2021-04-29T22:33:24.493Z</time>
      </trkpt>
      <trkpt lat="45.35735" lon="2.96202">
        <ele>1236.590993</ele>
        <time>2021-04-29T22:33:26.732Z</time>
      </trkpt>
      <trkpt lat="45.35687" lon="2.9616">
        <ele>1236.617719</ele>
        <time>2021-04-29T22:33:40.289Z</time>
      </trkpt>
      <trkpt lat="45.35641" lon="2.96104">
        <ele>1236.646635</ele>
        <time>2021-04-29T22:33:56.388Z</time>
      </trkpt>
      <trkpt lat="45.35579" lon="2.95998">
        <ele>1238.034356</ele>
        <time>2021-04-29T22:34:24.585Z</time>
      </trkpt>
      <trkpt lat="45.35537" lon="2.95888">
        <ele>1239.302337</ele>
        <time>2021-04-29T22:34:48.822Z</time>
      </trkpt>
      <trkpt lat="45.35489" lon="2.95842">
        <ele>1240.101701</ele>
        <time>2021-04-29T22:35:04.862Z</time>
      </trkpt>
      <trkpt lat="45.35465" lon="2.95777">
        <ele>1240.828162</ele>
        <time>2021-04-29T22:35:19.476Z</time>
      </trkpt>
      <trkpt lat="45.35372" lon="2.95659">
        <ele>1242.45259</ele>
        <time>2021-04-29T22:35:54.174Z</time>
      </trkpt>
      <trkpt lat="45.3536" lon="2.95637">
        <ele>1242.679385</ele>
        <time>2021-04-29T22:35:59.099Z</time>
      </trkpt>
      <trkpt lat="45.3534" lon="2.95579">
        <ele>1243.232882</ele>
        <time>2021-04-29T22:36:11.590Z</time>
      </trkpt>
      <trkpt lat="45.35306" lon="2.95544">
        <ele>1243.742995</ele>
        <time>2021-04-29T22:36:22.731Z</time>
      </trkpt>
      <trkpt lat="45.35296" lon="2.95513">
        <ele>1244.109784</ele>
        <time>2021-04-29T22:36:28.480Z</time>
      </trkpt>
      <trkpt lat="45.35295" lon="2.95498">
        <ele>1244.328162</ele>
        <time>2021-04-29T22:36:31.420Z</time>
      </trkpt>
      <trkpt lat="45.35294" lon="2.95448">
        <ele>1245.074907</ele>
        <time>2021-04-29T22:36:41.336Z</time>
      </trkpt>
      <trkpt lat="45.35289" lon="2.95411">
        <ele>1245.632234</ele>
        <time>2021-04-29T22:36:48.968Z</time>
      </trkpt>
      <trkpt lat="45.35261" lon="2.95353">
        <ele>1246.677545</ele>
        <time>2021-04-29T22:37:04.275Z</time>
      </trkpt>
      <trkpt lat="45.35257" lon="2.95325">
        <ele>1247.095113</ele>
        <time>2021-04-29T22:37:10.891Z</time>
      </trkpt>
      <trkpt lat="45.35257" lon="2.95303">
        <ele>1247.424861</ele>
        <time>2021-04-29T22:37:16.022Z</time>
      </trkpt>
      <trkpt lat="45.35256" lon="2.95289">
        <ele>1247.637354</ele>
        <time>2021-04-29T22:37:19.963Z</time>
      </trkpt>
      <trkpt lat="45.35243" lon="2.95251">
        <ele>1248.896321</ele>
        <time>2021-04-29T22:37:29.601Z</time>
      </trkpt>
      <trkpt lat="45.35164" lon="2.95122">
        <ele>1254.52311</ele>
        <time>2021-04-29T22:38:19.935Z</time>
      </trkpt>
      <trkpt lat="45.35148" lon="2.9511">
        <ele>1255.371088</ele>
        <time>2021-04-29T22:38:28.045Z</time>
      </trkpt>
      <trkpt lat="45.35106" lon="2.95104">
        <ele>1257.626636</ele>
        <time>2021-04-29T22:38:47.413Z</time>
      </trkpt>
      <trkpt lat="45.3509" lon="2.95096">
        <ele>1258.583285</ele>
        <time>2021-04-29T22:38:55.139Z</time>
      </trkpt>
      <trkpt lat="45.35054" lon="2.95052">
        <ele>1261.324905</ele>
        <time>2021-04-29T22:39:17.250Z</time>
      </trkpt>
      <trkpt lat="45.34975" lon="2.94983">
        <ele>1266.597825</ele>
        <time>2021-04-29T22:39:59.496Z</time>
      </trkpt>
      <trkpt lat="45.34958" lon="2.94963">
        <ele>1267.614535</ele>
        <time>2021-04-29T22:40:09.170Z</time>
      </trkpt>
      <trkpt lat="45.34898" lon="2.94864">
        <ele>1271.85584</ele>
        <time>2021-04-29T22:40:47.033Z</time>
      </trkpt>
      <trkpt lat="45.34868" lon="2.94831">
        <ele>1273.585191</ele>
        <time>2021-04-29T22:41:01.425Z</time>
      </trkpt>
      <trkpt lat="45.34846" lon="2.94816">
        <ele>1274.710232</ele>
        <time>2021-04-29T22:41:10.484Z</time>
      </trkpt>
      <trkpt lat="45.34794" lon="2.94802">
        <ele>1276.493806</ele>
        <time>2021-04-29T22:41:29.960Z</time>
      </trkpt>
      <trkpt lat="45.34716" lon="2.94761">
        <ele>1279.273103</ele>
        <time>2021-04-29T22:41:59.673Z</time>
      </trkpt>
      <trkpt lat="45.34603" lon="2.94717">
        <ele>1282.643221</ele>
        <time>2021-04-29T22:42:39.486Z</time>
      </trkpt>
      <trkpt lat="45.34548" lon="2.94677">
        <ele>1284.255501</ele>
        <time>2021-04-29T22:42:59.762Z</time>
      </trkpt>
      <trkpt lat="45.34479" lon="2.94645">
        <ele>1285.930135</ele>
        <time>2021-04-29T22:43:22.165Z</time>
      </trkpt>
      <trkpt lat="45.3444" lon="2.94608">
        <ele>1286.784982</ele>
        <time>2021-04-29T22:43:35.601Z</time>
      </trkpt>
      <trkpt lat="45.34395" lon="2.94576">
        <ele>1287.726026</ele>
        <time>2021-04-29T22:43:50.427Z</time>
      </trkpt>
      <trkpt lat="45.34373" lon="2.94568">
        <ele>1288.147158</ele>
        <time>2021-04-29T22:43:57.159Z</time>
      </trkpt>
      <trkpt lat="45.34316" lon="2.94575">
        <ele>1289.101215</ele>
        <time>2021-04-29T22:44:13.955Z</time>
      </trkpt>
      <trkpt lat="45.34299" lon="2.9457">
        <ele>1289.341752</ele>
        <time>2021-04-29T22:44:18.782Z</time>
      </trkpt>
      <trkpt lat="45.34234" lon="2.94526">
        <ele>1290.38413</ele>
        <time>2021-04-29T22:44:38.980Z</time>
      </trkpt>
      <trkpt lat="45.34206" lon="2.94492">
        <ele>1290.909068</ele>
        <time>2021-04-29T22:44:49.086Z</time>
      </trkpt>
      <trkpt lat="45.34161" lon="2.9448">
        <ele>1291.500012</ele>
        <time>2021-04-29T22:45:01.729Z</time>
      </trkpt>
      <trkpt lat="45.34137" lon="2.94447">
        <ele>1291.835046</ele>
        <time>2021-04-29T22:45:10.611Z</time>
      </trkpt>
      <trkpt lat="45.34112" lon="2.94426">
        <ele>1292.121621</ele>
        <time>2021-04-29T22:45:17.902Z</time>
      </trkpt>
      <trkpt lat="45.34105" lon="2.94411">
        <ele>1292.245117</ele>
        <time>2021-04-29T22:45:20.885Z</time>
      </trkpt>
      <trkpt lat="45.34095" lon="2.94361">
        <ele>1292.611837</ele>
        <time>2021-04-29T22:45:29.569Z</time>
      </trkpt>
      <trkpt lat="45.34054" lon="2.94307">
        <ele>1293.294469</ele>
        <time>2021-04-29T22:45:44.298Z</time>
      </trkpt>
      <trkpt lat="45.34039" lon="2.94297">
        <ele>1293.897348</ele>
        <time>2021-04-29T22:45:48.306Z</time>
      </trkpt>
      <trkpt lat="45.34009" lon="2.94301">
        <ele>1295.005859</ele>
        <time>2021-04-29T22:45:58.289Z</time>
      </trkpt>
      <trkpt lat="45.33997" lon="2.94294">
        <ele>1295.484908</ele>
        <time>2021-04-29T22:46:03.649Z</time>
      </trkpt>
      <trkpt lat="45.33988" lon="2.94272">
        <ele>1296.156777</ele>
        <time>2021-04-29T22:46:09.198Z</time>
      </trkpt>
      <trkpt lat="45.33984" lon="2.94225">
        <ele>1297.376984</ele>
        <time>2021-04-29T22:46:21.422Z</time>
      </trkpt>
      <trkpt lat="45.33981" lon="2.94207">
        <ele>1297.848457</ele>
        <time>2021-04-29T22:46:25.588Z</time>
      </trkpt>
      <trkpt lat="45.33976" lon="2.94208">
        <ele>1298.024644</ele>
        <time>2021-04-29T22:46:28.995Z</time>
      </trkpt>
      <trkpt lat="45.33945" lon="2.94209">
        <ele>1299.173409</ele>
        <time>2021-04-29T22:46:40.829Z</time>
      </trkpt>
      <trkpt lat="45.33843" lon="2.94176">
        <ele>1307.553079</ele>
        <time>2021-04-29T22:47:35.345Z</time>
      </trkpt>
      <trkpt lat="45.3384" lon="2.94189">
        <ele>1308.370726</ele>
        <time>2021-04-29T22:47:42.366Z</time>
      </trkpt>
      <trkpt lat="45.33853" lon="2.94227">
        <ele>1310.969079</ele>
        <time>2021-04-29T22:47:59.888Z</time>
      </trkpt>
      <trkpt lat="45.33861" lon="2.94268">
        <ele>1313.573235</ele>
        <time>2021-04-29T22:48:18.442Z</time>
      </trkpt>
      <trkpt lat="45.33845" lon="2.94371">
        <ele>1321.569374</ele>
        <time>2021-04-29T22:49:08.193Z</time>
      </trkpt>
      <trkpt lat="45.33837" lon="2.94386">
        <ele>1323.078973</ele>
        <time>2021-04-29T22:49:17.552Z</time>
      </trkpt>
      <trkpt lat="45.33801" lon="2.94407">
        <ele>1327.489185</ele>
        <time>2021-04-29T22:49:44.954Z</time>
      </trkpt>
      <trkpt lat="45.33656" lon="2.9438">
        <ele>1343.24262</ele>
        <time>2021-04-29T22:51:25.996Z</time>
      </trkpt>
      <trkpt lat="45.33612" lon="2.94365">
        <ele>1347.722287</ele>
        <time>2021-04-29T22:51:54.284Z</time>
      </trkpt>
      <trkpt lat="45.33583" lon="2.94368">
        <ele>1350.603509</ele>
        <time>2021-04-29T22:52:11.421Z</time>
      </trkpt>
      <trkpt lat="45.33531" lon="2.94358">
        <ele>1355.112961</ele>
        <time>2021-04-29T22:52:39.587Z</time>
      </trkpt>
      <trkpt lat="45.33504" lon="2.94333">
        <ele>1357.06207</ele>
        <time>2021-04-29T22:52:55.028Z</time>
      </trkpt>
      <trkpt lat="45.33489" lon="2.94288">
        <ele>1359.171777</ele>
        <time>2021-04-29T22:53:10.444Z</time>
      </trkpt>
      <trkpt lat="45.33469" lon="2.94271">
        <ele>1360.575239</ele>
        <time>2021-04-29T22:53:20.590Z</time>
      </trkpt>
      <trkpt lat="45.33394" lon="2.94268">
        <ele>1365.201</ele>
        <time>2021-04-29T22:53:53.452Z</time>
      </trkpt>
      <trkpt lat="45.33349" lon="2.94278">
        <ele>1368.347588</ele>
        <time>2021-04-29T22:54:13.690Z</time>
      </trkpt>
      <trkpt lat="45.33317" lon="2.94297">
        <ele>1370.767956</ele>
        <time>2021-04-29T22:54:30.183Z</time>
      </trkpt>
      <trkpt lat="45.33248" lon="2.94359">
        <ele>1376.470038</ele>
        <time>2021-04-29T22:55:12.901Z</time>
      </trkpt>
      <trkpt lat="45.33233" lon="2.94383">
        <ele>1378.304304</ele>
        <time>2021-04-29T22:55:25.959Z</time>
      </trkpt>
      <trkpt lat="45.33209" lon="2.94443">
        <ele>1382.837674</ele>
        <time>2021-04-29T22:55:54.878Z</time>
      </trkpt>
      <trkpt lat="45.33199" lon="2.94454">
        <ele>1384.030716</ele>
        <time>2021-04-29T22:56:02.678Z</time>
      </trkpt>
      <trkpt lat="45.3302" lon="2.94593">
        <ele>1403.422891</ele>
        <time>2021-04-29T22:58:07.574Z</time>
      </trkpt>
      <trkpt lat="45.32952" lon="2.9469">
        <ele>1412.712987</ele>
        <time>2021-04-29T22:59:06.179Z</time>
      </trkpt>
      <trkpt lat="45.32927" lon="2.94746">
        <ele>1417.066644</ele>
        <time>2021-04-29T22:59:34.230Z</time>
      </trkpt>
      <trkpt lat="45.32866" lon="2.94839">
        <ele>1425.454527</ele>
        <time>2021-04-29T23:00:27.880Z</time>
      </trkpt>
      <trkpt lat="45.32846" lon="2.94898">
        <ele>1429.604079</ele>
        <time>2021-04-29T23:00:55.409Z</time>
      </trkpt>
      <trkpt lat="45.32832" lon="2.94917">
        <ele>1431.147219</ele>
        <time>2021-04-29T23:01:06.559Z</time>
      </trkpt>
      <trkpt lat="45.3274" lon="2.9493">
        <ele>1438.608375</ele>
        <time>2021-04-29T23:01:57.923Z</time>
      </trkpt>
      <trkpt lat="45.32703" lon="2.9492">
        <ele>1441.686003</ele>
        <time>2021-04-29T23:02:17.692Z</time>
      </trkpt>
      <trkpt lat="45.32641" lon="2.9489">
        <ele>1445.628788</ele>
        <time>2021-04-29T23:02:49.447Z</time>
      </trkpt>
      <trkpt lat="45.32528" lon="2.94899">
        <ele>1451.712846</ele>
        <time>2021-04-29T23:03:39.008Z</time>
      </trkpt>
      <trkpt lat="45.32412" lon="2.94911">
        <ele>1454.030264</ele>
        <time>2021-04-29T23:04:18.426Z</time>
      </trkpt>
      <trkpt lat="45.32139" lon="2.9494">
        <ele>1452.450468</ele>
        <time>2021-04-29T23:05:51.364Z</time>
      </trkpt>
      <trkpt lat="45.32058" lon="2.9491">
        <ele>1448.902332</ele>
        <time>2021-04-29T23:06:15.016Z</time>
      </trkpt>
      <trkpt lat="45.3204" lon="2.94911">
        <ele>1448.111818</ele>
        <time>2021-04-29T23:06:20.160Z</time>
      </trkpt>
      <trkpt lat="45.31985" lon="2.94924">
        <ele>1445.776916</ele>
        <time>2021-04-29T23:06:35.051Z</time>
      </trkpt>
      <trkpt lat="45.31957" lon="2.94952">
        <ele>1444.077058</ele>
        <time>2021-04-29T23:06:44.304Z</time>
      </trkpt>
      <trkpt lat="45.31949" lon="2.9497">
        <ele>1443.300751</ele>
        <time>2021-04-29T23:06:48.280Z</time>
      </trkpt>
      <trkpt lat="45.31944" lon="2.95024">
        <ele>1441.25917</ele>
        <time>2021-04-29T23:06:58.817Z</time>
      </trkpt>
      <trkpt lat="45.31965" lon="2.9512">
        <ele>1437.550923</ele>
        <time>2021-04-29T23:07:18.166Z</time>
      </trkpt>
      <trkpt lat="45.3197" lon="2.9518">
        <ele>1435.402353</ele>
        <time>2021-04-29T23:07:30.000Z</time>
      </trkpt>
      <trkpt lat="45.31966" lon="2.95205">
        <ele>1434.596691</ele>
        <time>2021-04-29T23:07:35.028Z</time>
      </trkpt>
      <trkpt lat="45.31957" lon="2.95219">
        <ele>1433.986995</ele>
        <time>2021-04-29T23:07:38.781Z</time>
      </trkpt>
      <trkpt lat="45.31941" lon="2.95227">
        <ele>1433.224476</ele>
        <time>2021-04-29T23:07:43.539Z</time>
      </trkpt>
      <trkpt lat="45.31921" lon="2.95228">
        <ele>1432.350696</ele>
        <time>2021-04-29T23:07:48.940Z</time>
      </trkpt>
      <trkpt lat="45.31882" lon="2.95245">
        <ele>1430.481587</ele>
        <time>2021-04-29T23:08:00.591Z</time>
      </trkpt>
      <trkpt lat="45.31868" lon="2.95262">
        <ele>1429.641591</ele>
        <time>2021-04-29T23:08:05.866Z</time>
      </trkpt>
      <trkpt lat="45.31853" lon="2.95303">
        <ele>1428.187904</ele>
        <time>2021-04-29T23:08:14.984Z</time>
      </trkpt>
      <trkpt lat="45.31844" lon="2.95383">
        <ele>1425.42958</ele>
        <time>2021-04-29T23:08:30.928Z</time>
      </trkpt>
      <trkpt lat="45.31829" lon="2.9541">
        <ele>1424.220005</ele>
        <time>2021-04-29T23:08:37.794Z</time>
      </trkpt>
      <trkpt lat="45.31806" lon="2.95422">
        <ele>1423.022081</ele>
        <time>2021-04-29T23:08:44.538Z</time>
      </trkpt>
      <trkpt lat="45.31648" lon="2.95387">
        <ele>1414.067485</ele>
        <time>2021-04-29T23:09:28.014Z</time>
      </trkpt>
      <trkpt lat="45.31541" lon="2.95287">
        <ele>1405.811451</ele>
        <time>2021-04-29T23:10:01.271Z</time>
      </trkpt>
      <trkpt lat="45.31517" lon="2.95278">
        <ele>1404.083383</ele>
        <time>2021-04-29T23:10:07.490Z</time>
      </trkpt>
      <trkpt lat="45.31487" lon="2.95278">
        <ele>1401.910397</ele>
        <time>2021-04-29T23:10:15.374Z</time>
      </trkpt>
      <trkpt lat="45.31438" lon="2.95278">
        <ele>1398.423626</ele>
        <time>2021-04-29T23:10:28.083Z</time>
      </trkpt>
      <trkpt lat="45.31404" lon="2.95279">
        <ele>1396.044472</ele>
        <time>2021-04-29T23:10:33.128Z</time>
      </trkpt>
      <trkpt lat="45.31391" lon="2.95282">
        <ele>1395.06558</ele>
        <time>2021-04-29T23:10:35.218Z</time>
      </trkpt>
      <trkpt lat="45.31379" lon="2.95311">
        <ele>1393.604082</ele>
        <time>2021-04-29T23:10:38.736Z</time>
      </trkpt>
      <trkpt lat="45.31344" lon="2.95321">
        <ele>1391.485903</ele>
        <time>2021-04-29T23:10:44.046Z</time>
      </trkpt>
      <trkpt lat="45.3133" lon="2.95307">
        <ele>1390.448006</ele>
        <time>2021-04-29T23:10:46.713Z</time>
      </trkpt>
      <trkpt lat="45.31322" lon="2.95284">
        <ele>1389.394999</ele>
        <time>2021-04-29T23:10:49.353Z</time>
      </trkpt>
      <trkpt lat="45.31318" lon="2.95252">
        <ele>1388.010903</ele>
        <time>2021-04-29T23:10:52.959Z</time>
      </trkpt>
      <trkpt lat="45.31318" lon="2.9521">
        <ele>1386.228506</ele>
        <time>2021-04-29T23:10:57.707Z</time>
      </trkpt>
      <trkpt lat="45.31311" lon="2.95197">
        <ele>1385.543224</ele>
        <time>2021-04-29T23:11:00.744Z</time>
      </trkpt>
      <trkpt lat="45.31265" lon="2.9517">
        <ele>1382.951865</ele>
        <time>2021-04-29T23:11:14.629Z</time>
      </trkpt>
      <trkpt lat="45.31171" lon="2.95165">
        <ele>1378.847905</ele>
        <time>2021-04-29T23:11:40.472Z</time>
      </trkpt>
      <trkpt lat="45.31122" lon="2.95184">
        <ele>1376.612056</ele>
        <time>2021-04-29T23:11:55.307Z</time>
      </trkpt>
      <trkpt lat="45.31108" lon="2.95166">
        <ele>1375.94679</ele>
        <time>2021-04-29T23:12:00.997Z</time>
      </trkpt>
      <trkpt lat="45.31099" lon="2.951">
        <ele>1374.833279</ele>
        <time>2021-04-29T23:12:14.941Z</time>
      </trkpt>
      <trkpt lat="45.31084" lon="2.95074">
        <ele>1374.273008</ele>
        <time>2021-04-29T23:12:22.035Z</time>
      </trkpt>
      <trkpt lat="45.30972" lon="2.94971">
        <ele>1371.840302</ele>
        <time>2021-04-29T23:13:04.396Z</time>
      </trkpt>
      <trkpt lat="45.30929" lon="2.94942">
        <ele>1371.752849</ele>
        <time>2021-04-29T23:13:21.099Z</time>
      </trkpt>
      <trkpt lat="45.3087" lon="2.9489">
        <ele>1371.624608</ele>
        <time>2021-04-29T23:13:47.260Z</time>
      </trkpt>
      <trkpt lat="45.3078" lon="2.9472">
        <ele>1373.697788</ele>
        <time>2021-04-29T23:14:51.552Z</time>
      </trkpt>
      <trkpt lat="45.30736" lon="2.94612">
        <ele>1375.625139</ele>
        <time>2021-04-29T23:15:33.110Z</time>
      </trkpt>
      <trkpt lat="45.30709" lon="2.94559">
        <ele>1377.060662</ele>
        <time>2021-04-29T23:15:55.448Z</time>
      </trkpt>
      <trkpt lat="45.30645" lon="2.94473">
        <ele>1379.772124</ele>
        <time>2021-04-29T23:16:39.237Z</time>
      </trkpt>
      <trkpt lat="45.30602" lon="2.94368">
        <ele>1382.504454</ele>
        <time>2021-04-29T23:17:24.727Z</time>
      </trkpt>
      <trkpt lat="45.30577" lon="2.94327">
        <ele>1383.738299</ele>
        <time>2021-04-29T23:17:44.582Z</time>
      </trkpt>
      <trkpt lat="45.30521" lon="2.94234">
        <ele>1386.164111</ele>
        <time>2021-04-29T23:18:14.606Z</time>
      </trkpt>
      <trkpt lat="45.30355" lon="2.93972">
        <ele>1383.594833</ele>
        <time>2021-04-29T23:19:07.080Z</time>
      </trkpt>
      <trkpt lat="45.30277" lon="2.93838">
        <ele>1378.121338</ele>
        <time>2021-04-29T23:19:25.007Z</time>
      </trkpt>
      <trkpt lat="45.30139" lon="2.93683">
        <ele>1364.070409</ele>
        <time>2021-04-29T23:19:49.424Z</time>
      </trkpt>
      <trkpt lat="45.30107" lon="2.93655">
        <ele>1361.332911</ele>
        <time>2021-04-29T23:19:54.709Z</time>
      </trkpt>
      <trkpt lat="45.30068" lon="2.9364">
        <ele>1358.364125</ele>
        <time>2021-04-29T23:20:00.502Z</time>
      </trkpt>
      <trkpt lat="45.29906" lon="2.9362">
        <ele>1347.026021</ele>
        <time>2021-04-29T23:20:24.055Z</time>
      </trkpt>
      <trkpt lat="45.29529" lon="2.9379">
        <ele>1320.702764</ele>
        <time>2021-04-29T23:21:20.988Z</time>
      </trkpt>
      <trkpt lat="45.29221" lon="2.93919">
        <ele>1301.65639</ele>
        <time>2021-04-29T23:22:07.676Z</time>
      </trkpt>
      <trkpt lat="45.29149" lon="2.93932">
        <ele>1298.270503</ele>
        <time>2021-04-29T23:22:19.072Z</time>
      </trkpt>
      <trkpt lat="45.28839" lon="2.93956">
        <ele>1290.383337</ele>
        <time>2021-04-29T23:23:12.263Z</time>
      </trkpt>
      <trkpt lat="45.28527" lon="2.94025">
        <ele>1285.057092</ele>
        <time>2021-04-29T23:24:09.027Z</time>
      </trkpt>
      <trkpt lat="45.27943" lon="2.94254">
        <ele>1278.029692</ele>
        <time>2021-04-29T23:26:05.390Z</time>
      </trkpt>
      <trkpt lat="45.27933" lon="2.94258">
        <ele>1277.895053</ele>
        <time>2021-04-29T23:26:07.491Z</time>
      </trkpt>
      <trkpt lat="45.27922" lon="2.9424">
        <ele>1277.667688</ele>
        <time>2021-04-29T23:26:10.421Z</time>
      </trkpt>
      <trkpt lat="45.27882" lon="2.94186">
        <ele>1276.604736</ele>
        <time>2021-04-29T23:26:20.275Z</time>
      </trkpt>
      <trkpt lat="45.2777" lon="2.94055">
        <ele>1272.668062</ele>
        <time>2021-04-29T23:26:44.447Z</time>
      </trkpt>
      <trkpt lat="45.27757" lon="2.94043">
        <ele>1272.166854</ele>
        <time>2021-04-29T23:26:47.026Z</time>
      </trkpt>
      <trkpt lat="45.27689" lon="2.94014">
        <ele>1269.448592</ele>
        <time>2021-04-29T23:26:58.245Z</time>
      </trkpt>
      <trkpt lat="45.27662" lon="2.93989">
        <ele>1268.206625</ele>
        <time>2021-04-29T23:27:03.329Z</time>
      </trkpt>
      <trkpt lat="45.27565" lon="2.93826">
        <ele>1261.856021</ele>
        <time>2021-04-29T23:27:26.673Z</time>
      </trkpt>
      <trkpt lat="45.275" lon="2.93739">
        <ele>1257.791126</ele>
        <time>2021-04-29T23:27:40.291Z</time>
      </trkpt>
      <trkpt lat="45.2745" lon="2.93583">
        <ele>1251.578314</ele>
        <time>2021-04-29T23:27:58.619Z</time>
      </trkpt>
      <trkpt lat="45.2744" lon="2.93568">
        <ele>1250.831303</ele>
        <time>2021-04-29T23:28:00.748Z</time>
      </trkpt>
      <trkpt lat="45.27434" lon="2.93559">
        <ele>1250.380754</ele>
        <time>2021-04-29T23:28:02.029Z</time>
      </trkpt>
      <trkpt lat="45.27377" lon="2.93499">
        <ele>1246.656454</ele>
        <time>2021-04-29T23:28:12.586Z</time>
      </trkpt>
      <trkpt lat="45.27367" lon="2.93482">
        <ele>1245.76668</ele>
        <time>2021-04-29T23:28:15.056Z</time>
      </trkpt>
      <trkpt lat="45.27347" lon="2.93403">
        <ele>1242.560525</ele>
        <time>2021-04-29T23:28:23.635Z</time>
      </trkpt>
      <trkpt lat="45.27311" lon="2.93334">
        <ele>1239.2412</ele>
        <time>2021-04-29T23:28:32.785Z</time>
      </trkpt>
      <trkpt lat="45.27288" lon="2.9327">
        <ele>1236.489906</ele>
        <time>2021-04-29T23:28:40.424Z</time>
      </trkpt>
      <trkpt lat="45.2726" lon="2.93176">
        <ele>1232.697654</ele>
        <time>2021-04-29T23:28:51.181Z</time>
      </trkpt>
      <trkpt lat="45.27261" lon="2.93096">
        <ele>1229.660502</ele>
        <time>2021-04-29T23:28:59.730Z</time>
      </trkpt>
      <trkpt lat="45.27235" lon="2.9296">
        <ele>1223.357164</ele>
        <time>2021-04-29T23:29:14.239Z</time>
      </trkpt>
      <trkpt lat="45.27235" lon="2.92942">
        <ele>1222.478557</ele>
        <time>2021-04-29T23:29:16.129Z</time>
      </trkpt>
      <trkpt lat="45.27234" lon="2.92921">
        <ele>1221.531308</ele>
        <time>2021-04-29T23:29:18.211Z</time>
      </trkpt>
      <trkpt lat="45.27241" lon="2.92863">
        <ele>1218.744183</ele>
        <time>2021-04-29T23:29:24.195Z</time>
      </trkpt>
      <trkpt lat="45.27246" lon="2.92789">
        <ele>1214.860882</ele>
        <time>2021-04-29T23:29:31.574Z</time>
      </trkpt>
      <trkpt lat="45.27229" lon="2.92723">
        <ele>1210.411023</ele>
        <time>2021-04-29T23:29:38.481Z</time>
      </trkpt>
      <trkpt lat="45.27219" lon="2.927">
        <ele>1208.705208</ele>
        <time>2021-04-29T23:29:41.093Z</time>
      </trkpt>
      <trkpt lat="45.27161" lon="2.92632">
        <ele>1201.985202</ele>
        <time>2021-04-29T23:29:51.404Z</time>
      </trkpt>
      <trkpt lat="45.27101" lon="2.92569">
        <ele>1196.0643</ele>
        <time>2021-04-29T23:30:01.674Z</time>
      </trkpt>
      <trkpt lat="45.27088" lon="2.92554">
        <ele>1194.817773</ele>
        <time>2021-04-29T23:30:03.880Z</time>
      </trkpt>
      <trkpt lat="45.27046" lon="2.925">
        <ele>1190.549558</ele>
        <time>2021-04-29T23:30:12.013Z</time>
      </trkpt>
      <trkpt lat="45.27042" lon="2.92497">
        <ele>1190.148274</ele>
        <time>2021-04-29T23:30:12.708Z</time>
      </trkpt>
      <trkpt lat="45.27025" lon="2.92484">
        <ele>1188.745887</ele>
        <time>2021-04-29T23:30:15.463Z</time>
      </trkpt>
      <trkpt lat="45.26993" lon="2.9246">
        <ele>1186.48098</ele>
        <time>2021-04-29T23:30:20.981Z</time>
      </trkpt>
      <trkpt lat="45.26966" lon="2.92457">
        <ele>1185.832812</ele>
        <time>2021-04-29T23:30:25.054Z</time>
      </trkpt>
      <trkpt lat="45.2691" lon="2.92445">
        <ele>1184.441777</ele>
        <time>2021-04-29T23:30:35.175Z</time>
      </trkpt>
      <trkpt lat="45.26851" lon="2.92468">
        <ele>1182.958431</ele>
        <time>2021-04-29T23:30:46.049Z</time>
      </trkpt>
      <trkpt lat="45.26829" lon="2.9247">
        <ele>1182.398583</ele>
        <time>2021-04-29T23:30:50.859Z</time>
      </trkpt>
      <trkpt lat="45.26726" lon="2.92456">
        <ele>1181.323502</ele>
        <time>2021-04-29T23:31:12.039Z</time>
      </trkpt>
      <trkpt lat="45.26682" lon="2.92464">
        <ele>1180.875605</ele>
        <time>2021-04-29T23:31:20.523Z</time>
      </trkpt>
      <trkpt lat="45.26667" lon="2.92466">
        <ele>1180.716774</ele>
        <time>2021-04-29T23:31:23.353Z</time>
      </trkpt>
      <trkpt lat="45.26542" lon="2.92437">
        <ele>1177.704776</ele>
        <time>2021-04-29T23:31:45.608Z</time>
      </trkpt>
      <trkpt lat="45.26425" lon="2.92415">
        <ele>1173.973329</ele>
        <time>2021-04-29T23:32:04.453Z</time>
      </trkpt>
      <trkpt lat="45.26391" lon="2.9242">
        <ele>1172.593826</ele>
        <time>2021-04-29T23:32:09.745Z</time>
      </trkpt>
      <trkpt lat="45.26375" lon="2.92431">
        <ele>1171.870403</ele>
        <time>2021-04-29T23:32:12.490Z</time>
      </trkpt>
      <trkpt lat="45.26318" lon="2.92497">
        <ele>1168.910335</ele>
        <time>2021-04-29T23:32:23.756Z</time>
      </trkpt>
      <trkpt lat="45.26281" lon="2.92595">
        <ele>1166.880457</ele>
        <time>2021-04-29T23:32:36.704Z</time>
      </trkpt>
      <trkpt lat="45.26274" lon="2.92631">
        <ele>1166.248492</ele>
        <time>2021-04-29T23:32:41.171Z</time>
      </trkpt>
      <trkpt lat="45.2626" lon="2.92733">
        <ele>1164.491036</ele>
        <time>2021-04-29T23:32:54.256Z</time>
      </trkpt>
      <trkpt lat="45.26241" lon="2.92777">
        <ele>1163.731957</ele>
        <time>2021-04-29T23:33:01.028Z</time>
      </trkpt>
      <trkpt lat="45.26211" lon="2.92803">
        <ele>1163.067799</ele>
        <time>2021-04-29T23:33:07.532Z</time>
      </trkpt>
      <trkpt lat="45.26136" lon="2.92819">
        <ele>1161.626493</ele>
        <time>2021-04-29T23:33:21.598Z</time>
      </trkpt>
      <trkpt lat="45.2606" lon="2.92865">
        <ele>1159.471612</ele>
        <time>2021-04-29T23:33:35.284Z</time>
      </trkpt>
      <trkpt lat="45.26014" lon="2.92905">
        <ele>1157.650245</ele>
        <time>2021-04-29T23:33:43.905Z</time>
      </trkpt>
      <trkpt lat="45.25961" lon="2.92981">
        <ele>1155.074285</ele>
        <time>2021-04-29T23:33:56.008Z</time>
      </trkpt>
      <trkpt lat="45.25925" lon="2.92986">
        <ele>1153.649865</ele>
        <time>2021-04-29T23:34:01.617Z</time>
      </trkpt>
      <trkpt lat="45.25882" lon="2.92971">
        <ele>1151.71328</ele>
        <time>2021-04-29T23:34:08.659Z</time>
      </trkpt>
      <trkpt lat="45.25814" lon="2.92975">
        <ele>1148.784985</ele>
        <time>2021-04-29T23:34:18.940Z</time>
      </trkpt>
      <trkpt lat="45.25737" lon="2.92949">
        <ele>1145.410326</ele>
        <time>2021-04-29T23:34:31.161Z</time>
      </trkpt>
      <trkpt lat="45.25704" lon="2.92944">
        <ele>1144.045602</ele>
        <time>2021-04-29T23:34:36.239Z</time>
      </trkpt>
      <trkpt lat="45.25682" lon="2.92956">
        <ele>1143.080087</ele>
        <time>2021-04-29T23:34:39.850Z</time>
      </trkpt>
      <trkpt lat="45.25613" lon="2.93034">
        <ele>1139.419286</ele>
        <time>2021-04-29T23:34:53.694Z</time>
      </trkpt>
      <trkpt lat="45.2551" lon="2.9309">
        <ele>1135.066946</ele>
        <time>2021-04-29T23:35:11.540Z</time>
      </trkpt>
      <trkpt lat="45.25417" lon="2.93161">
        <ele>1130.170802</ele>
        <time>2021-04-29T23:35:27.879Z</time>
      </trkpt>
      <trkpt lat="45.25335" lon="2.93257">
        <ele>1123.839346</ele>
        <time>2021-04-29T23:35:43.415Z</time>
      </trkpt>
      <trkpt lat="45.25302" lon="2.9328">
        <ele>1121.61476</ele>
        <time>2021-04-29T23:35:48.734Z</time>
      </trkpt>
      <trkpt lat="45.25062" lon="2.93361">
        <ele>1101.389125</ele>
        <time>2021-04-29T23:36:23.081Z</time>
      </trkpt>
      <trkpt lat="45.25009" lon="2.93401">
        <ele>1096.232134</ele>
        <time>2021-04-29T23:36:31.544Z</time>
      </trkpt>
      <trkpt lat="45.24767" lon="2.93513">
        <ele>1074.382697</ele>
        <time>2021-04-29T23:37:06.863Z</time>
      </trkpt>
      <trkpt lat="45.24731" lon="2.93509">
        <ele>1071.293708</ele>
        <time>2021-04-29T23:37:11.838Z</time>
      </trkpt>
      <trkpt lat="45.24554" lon="2.93486">
        <ele>1056.754518</ele>
        <time>2021-04-29T23:37:36.422Z</time>
      </trkpt>
      <trkpt lat="45.24491" lon="2.93482">
        <ele>1052.008382</ele>
        <time>2021-04-29T23:37:45.551Z</time>
      </trkpt>
      <trkpt lat="45.24459" lon="2.93489">
        <ele>1049.648374</ele>
        <time>2021-04-29T23:37:50.114Z</time>
      </trkpt>
      <trkpt lat="45.24358" lon="2.93545">
        <ele>1041.892276</ele>
        <time>2021-04-29T23:38:05.844Z</time>
      </trkpt>
      <trkpt lat="45.24327" lon="2.93554">
        <ele>1039.697875</ele>
        <time>2021-04-29T23:38:10.327Z</time>
      </trkpt>
      <trkpt lat="45.24308" lon="2.93552">
        <ele>1038.341796</ele>
        <time>2021-04-29T23:38:13.088Z</time>
      </trkpt>
      <trkpt lat="45.24232" lon="2.9352">
        <ele>1032.485853</ele>
        <time>2021-04-29T23:38:24.238Z</time>
      </trkpt>
      <trkpt lat="45.24206" lon="2.9352">
        <ele>1030.383294</ele>
        <time>2021-04-29T23:38:27.853Z</time>
      </trkpt>
      <trkpt lat="45.24" lon="2.93597">
        <ele>1013.188243</ele>
        <time>2021-04-29T23:38:57.514Z</time>
      </trkpt>
      <trkpt lat="45.23955" lon="2.93591">
        <ele>1009.583747</ele>
        <time>2021-04-29T23:39:03.855Z</time>
      </trkpt>
      <trkpt lat="45.23832" lon="2.93532">
        <ele>1000.739872</ele>
        <time>2021-04-29T23:39:22.487Z</time>
      </trkpt>
      <trkpt lat="45.23715" lon="2.93565">
        <ele>994.300015</ele>
        <time>2021-04-29T23:39:40.122Z</time>
      </trkpt>
      <trkpt lat="45.23686" lon="2.93565">
        <ele>993.56511</ele>
        <time>2021-04-29T23:39:44.855Z</time>
      </trkpt>
      <trkpt lat="45.2359" lon="2.93535">
        <ele>991.134976</ele>
        <time>2021-04-29T23:40:02.106Z</time>
      </trkpt>
      <trkpt lat="45.23543" lon="2.93564">
        <ele>990.483795</ele>
        <time>2021-04-29T23:40:12.920Z</time>
      </trkpt>
      <trkpt lat="45.23511" lon="2.93572">
        <ele>990.590222</ele>
        <time>2021-04-29T23:40:20.640Z</time>
      </trkpt>
      <trkpt lat="45.23474" lon="2.93564">
        <ele>990.711662</ele>
        <time>2021-04-29T23:40:30.048Z</time>
      </trkpt>
      <trkpt lat="45.23383" lon="2.93497">
        <ele>990.874315</ele>
        <time>2021-04-29T23:40:56.660Z</time>
      </trkpt>
      <trkpt lat="45.23235" lon="2.93466">
        <ele>989.657002</ele>
        <time>2021-04-29T23:41:25.877Z</time>
      </trkpt>
      <trkpt lat="45.23187" lon="2.93456">
        <ele>988.682015</ele>
        <time>2021-04-29T23:41:34.231Z</time>
      </trkpt>
      <trkpt lat="45.2318" lon="2.93446">
        <ele>988.42102</ele>
        <time>2021-04-29T23:41:35.948Z</time>
      </trkpt>
      <trkpt lat="45.23173" lon="2.93436">
        <ele>988.170687</ele>
        <time>2021-04-29T23:41:37.664Z</time>
      </trkpt>
      <trkpt lat="45.23168" lon="2.93434">
        <ele>988.034487</ele>
        <time>2021-04-29T23:41:38.544Z</time>
      </trkpt>
      <trkpt lat="45.2316" lon="2.9343">
        <ele>987.800536</ele>
        <time>2021-04-29T23:41:40.026Z</time>
      </trkpt>
      <trkpt lat="45.23134" lon="2.93427">
        <ele>987.142313</ele>
        <time>2021-04-29T23:41:44.389Z</time>
      </trkpt>
      <trkpt lat="45.23124" lon="2.93424">
        <ele>986.864434</ele>
        <time>2021-04-29T23:41:46.124Z</time>
      </trkpt>
      <trkpt lat="45.23085" lon="2.93427">
        <ele>985.855423</ele>
        <time>2021-04-29T23:41:52.609Z</time>
      </trkpt>
      <trkpt lat="45.23072" lon="2.93428">
        <ele>985.523476</ele>
        <time>2021-04-29T23:41:54.706Z</time>
      </trkpt>
      <trkpt lat="45.23005" lon="2.93432">
        <ele>983.424222</ele>
        <time>2021-04-29T23:42:05.582Z</time>
      </trkpt>
      <trkpt lat="45.22936" lon="2.93442">
        <ele>980.997232</ele>
        <time>2021-04-29T23:42:16.874Z</time>
      </trkpt>
      <trkpt lat="45.22921" lon="2.93444">
        <ele>980.476002</ele>
        <time>2021-04-29T23:42:19.217Z</time>
      </trkpt>
      <trkpt lat="45.22904" lon="2.93445">
        <ele>979.895665</ele>
        <time>2021-04-29T23:42:21.878Z</time>
      </trkpt>
      <trkpt lat="45.22872" lon="2.93448">
        <ele>978.794625</ele>
        <time>2021-04-29T23:42:26.872Z</time>
      </trkpt>
      <trkpt lat="45.2286" lon="2.93447">
        <ele>978.448883</ele>
        <time>2021-04-29T23:42:28.771Z</time>
      </trkpt>
      <trkpt lat="45.22848" lon="2.93445">
        <ele>978.168505</ele>
        <time>2021-04-29T23:42:30.623Z</time>
      </trkpt>
      <trkpt lat="45.22846" lon="2.93445">
        <ele>978.10998</ele>
        <time>2021-04-29T23:42:31.023Z</time>
      </trkpt>
      <trkpt lat="45.22815" lon="2.93441">
        <ele>977.356411</ele>
        <time>2021-04-29T23:42:36.034Z</time>
      </trkpt>
      <trkpt lat="45.22803" lon="2.9344">
        <ele>977.071043</ele>
        <time>2021-04-29T23:42:38.037Z</time>
      </trkpt>
      <trkpt lat="45.22796" lon="2.93439">
        <ele>976.890627</ele>
        <time>2021-04-29T23:42:39.296Z</time>
      </trkpt>
      <trkpt lat="45.22789" lon="2.93442">
        <ele>976.721446</ele>
        <time>2021-04-29T23:42:40.472Z</time>
      </trkpt>
      <trkpt lat="45.22778" lon="2.93447">
        <ele>976.418671</ele>
        <time>2021-04-29T23:42:42.678Z</time>
      </trkpt>
      <trkpt lat="45.22766" lon="2.93451">
        <ele>976.119634</ele>
        <time>2021-04-29T23:42:44.836Z</time>
      </trkpt>
      <trkpt lat="45.22758" lon="2.93451">
        <ele>975.925301</ele>
        <time>2021-04-29T23:42:46.120Z</time>
      </trkpt>
      <trkpt lat="45.22744" lon="2.93458">
        <ele>975.576182</ele>
        <time>2021-04-29T23:42:48.833Z</time>
      </trkpt>
      <trkpt lat="45.22732" lon="2.93468">
        <ele>975.233987</ele>
        <time>2021-04-29T23:42:51.356Z</time>
      </trkpt>
      <trkpt lat="45.22727" lon="2.93476">
        <ele>975.053931</ele>
        <time>2021-04-29T23:42:52.555Z</time>
      </trkpt>
      <trkpt lat="45.22723" lon="2.93486">
        <ele>974.856733</ele>
        <time>2021-04-29T23:42:54.213Z</time>
      </trkpt>
      <trkpt lat="45.22715" lon="2.93556">
        <ele>974.074515</ele>
        <time>2021-04-29T23:43:03.535Z</time>
      </trkpt>
      <trkpt lat="45.22705" lon="2.93571">
        <ele>973.970728</ele>
        <time>2021-04-29T23:43:06.096Z</time>
      </trkpt>
      <trkpt lat="45.22697" lon="2.93583">
        <ele>973.884863</ele>
        <time>2021-04-29T23:43:08.701Z</time>
      </trkpt>
      <trkpt lat="45.22693" lon="2.93589">
        <ele>973.839855</ele>
        <time>2021-04-29T23:43:09.972Z</time>
      </trkpt>
      <trkpt lat="45.2268" lon="2.93607">
        <ele>973.708242</ele>
        <time>2021-04-29T23:43:13.327Z</time>
      </trkpt>
      <trkpt lat="45.22663" lon="2.93619">
        <ele>973.571195</ele>
        <time>2021-04-29T23:43:17.674Z</time>
      </trkpt>
      <trkpt lat="45.22595" lon="2.93633">
        <ele>973.06049</ele>
        <time>2021-04-29T23:43:32.601Z</time>
      </trkpt>
      <trkpt lat="45.22572" lon="2.93644">
        <ele>972.820541</ele>
        <time>2021-04-29T23:43:37.445Z</time>
      </trkpt>
      <trkpt lat="45.22543" lon="2.93665">
        <ele>972.294186</ele>
        <time>2021-04-29T23:43:43.633Z</time>
      </trkpt>
      <trkpt lat="45.2247" lon="2.93736">
        <ele>970.882822</ele>
        <time>2021-04-29T23:43:59.325Z</time>
      </trkpt>
      <trkpt lat="45.22442" lon="2.93752">
        <ele>970.407561</ele>
        <time>2021-04-29T23:44:04.618Z</time>
      </trkpt>
      <trkpt lat="45.22417" lon="2.93757">
        <ele>970.007287</ele>
        <time>2021-04-29T23:44:09.063Z</time>
      </trkpt>
      <trkpt lat="45.22326" lon="2.93767">
        <ele>968.538522</ele>
        <time>2021-04-29T23:44:25.630Z</time>
      </trkpt>
      <trkpt lat="45.22163" lon="2.93846">
        <ele>965.681298</ele>
        <time>2021-04-29T23:44:56.967Z</time>
      </trkpt>
      <trkpt lat="45.22142" lon="2.93847">
        <ele>965.318199</ele>
        <time>2021-04-29T23:45:00.729Z</time>
      </trkpt>
      <trkpt lat="45.22025" lon="2.93829">
        <ele>963.725527</ele>
        <time>2021-04-29T23:45:21.688Z</time>
      </trkpt>
      <trkpt lat="45.21942" lon="2.93833">
        <ele>963.047666</ele>
        <time>2021-04-29T23:45:37.315Z</time>
      </trkpt>
      <trkpt lat="45.2193" lon="2.93829">
        <ele>962.945387</ele>
        <time>2021-04-29T23:45:39.793Z</time>
      </trkpt>
      <trkpt lat="45.21914" lon="2.93825">
        <ele>962.811369</ele>
        <time>2021-04-29T23:45:43.766Z</time>
      </trkpt>
      <trkpt lat="45.21904" lon="2.93823">
        <ele>962.73612</ele>
        <time>2021-04-29T23:45:46.045Z</time>
      </trkpt>
      <trkpt lat="45.21824" lon="2.93797">
        <ele>963.91044</ele>
        <time>2021-04-29T23:46:08.790Z</time>
      </trkpt>
      <trkpt lat="45.21739" lon="2.93769">
        <ele>965.46463</ele>
        <time>2021-04-29T23:46:36.406Z</time>
      </trkpt>
      <trkpt lat="45.21714" lon="2.93761">
        <ele>965.901475</ele>
        <time>2021-04-29T23:46:44.705Z</time>
      </trkpt>
      <trkpt lat="45.21612" lon="2.93728">
        <ele>967.233456</ele>
        <time>2021-04-29T23:47:16.804Z</time>
      </trkpt>
      <trkpt lat="45.21569" lon="2.93693">
        <ele>967.868582</ele>
        <time>2021-04-29T23:47:29.029Z</time>
      </trkpt>
      <trkpt lat="45.21534" lon="2.93677">
        <ele>967.965027</ele>
        <time>2021-04-29T23:47:36.740Z</time>
      </trkpt>
      <trkpt lat="45.21386" lon="2.9366">
        <ele>966.167185</ele>
        <time>2021-04-29T23:48:04.440Z</time>
      </trkpt>
      <trkpt lat="45.21279" lon="2.9363">
        <ele>964.4682</ele>
        <time>2021-04-29T23:48:23.583Z</time>
      </trkpt>
      <trkpt lat="45.21252" lon="2.93624">
        <ele>964.031151</ele>
        <time>2021-04-29T23:48:28.395Z</time>
      </trkpt>
      <trkpt lat="45.2122" lon="2.93617">
        <ele>963.512947</ele>
        <time>2021-04-29T23:48:34.297Z</time>
      </trkpt>
      <trkpt lat="45.21197" lon="2.93616">
        <ele>963.142217</ele>
        <time>2021-04-29T23:48:38.652Z</time>
      </trkpt>
      <trkpt lat="45.21184" lon="2.93621">
        <ele>963.049586</ele>
        <time>2021-04-29T23:48:41.207Z</time>
      </trkpt>
      <trkpt lat="45.21134" lon="2.93669">
        <ele>962.997583</ele>
        <time>2021-04-29T23:48:53.410Z</time>
      </trkpt>
      <trkpt lat="45.21113" lon="2.93677">
        <ele>962.979472</ele>
        <time>2021-04-29T23:48:57.941Z</time>
      </trkpt>
      <trkpt lat="45.20987" lon="2.93657">
        <ele>962.869245</ele>
        <time>2021-04-29T23:49:29.262Z</time>
      </trkpt>
      <trkpt lat="45.20931" lon="2.9364">
        <ele>962.817734</ele>
        <time>2021-04-29T23:49:43.499Z</time>
      </trkpt>
      <trkpt lat="45.20811" lon="2.93582">
        <ele>962.063898</ele>
        <time>2021-04-29T23:50:08.646Z</time>
      </trkpt>
      <trkpt lat="45.20718" lon="2.93483">
        <ele>960.18289</ele>
        <time>2021-04-29T23:50:28.725Z</time>
      </trkpt>
      <trkpt lat="45.207" lon="2.93473">
        <ele>959.872728</ele>
        <time>2021-04-29T23:50:32.153Z</time>
      </trkpt>
      <trkpt lat="45.20681" lon="2.93471">
        <ele>959.9384</ele>
        <time>2021-04-29T23:50:35.684Z</time>
      </trkpt>
      <trkpt lat="45.20661" lon="2.93482">
        <ele>960.084333</ele>
        <time>2021-04-29T23:50:39.770Z</time>
      </trkpt>
      <trkpt lat="45.20626" lon="2.93521">
        <ele>960.383895</ele>
        <time>2021-04-29T23:50:49.303Z</time>
      </trkpt>
      <trkpt lat="45.20583" lon="2.93592">
        <ele>960.834234</ele>
        <time>2021-04-29T23:51:07.903Z</time>
      </trkpt>
      <trkpt lat="45.20531" lon="2.93662">
        <ele>961.823351</ele>
        <time>2021-04-29T23:51:32.076Z</time>
      </trkpt>
      <trkpt lat="45.20512" lon="2.9368">
        <ele>962.272611</ele>
        <time>2021-04-29T23:51:40.170Z</time>
      </trkpt>
      <trkpt lat="45.20466" lon="2.93702">
        <ele>963.228996</ele>
        <time>2021-04-29T23:51:56.949Z</time>
      </trkpt>
      <trkpt lat="45.20429" lon="2.93708">
        <ele>963.951903</ele>
        <time>2021-04-29T23:52:08.068Z</time>
      </trkpt>
      <trkpt lat="45.20327" lon="2.93706">
        <ele>962.437191</ele>
        <time>2021-04-29T23:52:29.091Z</time>
      </trkpt>
      <trkpt lat="45.20197" lon="2.93684">
        <ele>957.822831</ele>
        <time>2021-04-29T23:52:49.136Z</time>
      </trkpt>
      <trkpt lat="45.20147" lon="2.93683">
        <ele>954.796024</ele>
        <time>2021-04-29T23:52:56.286Z</time>
      </trkpt>
      <trkpt lat="45.20102" lon="2.93693">
        <ele>952.032819</ele>
        <time>2021-04-29T23:53:02.802Z</time>
      </trkpt>
      <trkpt lat="45.20074" lon="2.9371">
        <ele>950.158308</ele>
        <time>2021-04-29T23:53:07.242Z</time>
      </trkpt>
      <trkpt lat="45.20039" lon="2.93745">
        <ele>947.6791</ele>
        <time>2021-04-29T23:53:13.465Z</time>
      </trkpt>
      <trkpt lat="45.19962" lon="2.93875">
        <ele>941.862798</ele>
        <time>2021-04-29T23:53:31.529Z</time>
      </trkpt>
      <trkpt lat="45.19926" lon="2.93956">
        <ele>939.086186</ele>
        <time>2021-04-29T23:53:42.261Z</time>
      </trkpt>
      <trkpt lat="45.19909" lon="2.94011">
        <ele>938.197769</ele>
        <time>2021-04-29T23:53:49.225Z</time>
      </trkpt>
      <trkpt lat="45.19897" lon="2.94053">
        <ele>937.520233</ele>
        <time>2021-04-29T23:53:54.699Z</time>
      </trkpt>
      <trkpt lat="45.1989" lon="2.94079">
        <ele>937.106593</ele>
        <time>2021-04-29T23:53:58.077Z</time>
      </trkpt>
      <trkpt lat="45.19794" lon="2.9441">
        <ele>934.860779</ele>
        <time>2021-04-29T23:54:48.843Z</time>
      </trkpt>
      <trkpt lat="45.19784" lon="2.94433">
        <ele>935.105892</ele>
        <time>2021-04-29T23:54:54.034Z</time>
      </trkpt>
      <trkpt lat="45.19752" lon="2.9447">
        <ele>935.615484</ele>
        <time>2021-04-29T23:55:05.070Z</time>
      </trkpt>
      <trkpt lat="45.19731" lon="2.94486">
        <ele>935.906559</ele>
        <time>2021-04-29T23:55:11.643Z</time>
      </trkpt>
      <trkpt lat="45.19696" lon="2.94515">
        <ele>936.413282</ele>
        <time>2021-04-29T23:55:23.579Z</time>
      </trkpt>
      <trkpt lat="45.19577" lon="2.94643">
        <ele>938.200909</ele>
        <time>2021-04-29T23:56:06.867Z</time>
      </trkpt>
      <trkpt lat="45.19541" lon="2.94675">
        <ele>938.69632</ele>
        <time>2021-04-29T23:56:17.967Z</time>
      </trkpt>
      <trkpt lat="45.19434" lon="2.9473">
        <ele>938.963499</ele>
        <time>2021-04-29T23:56:44.543Z</time>
      </trkpt>
      <trkpt lat="45.19046" lon="2.95063">
        <ele>937.595679</ele>
        <time>2021-04-29T23:58:18.883Z</time>
      </trkpt>
      <trkpt lat="45.19001" lon="2.95107">
        <ele>937.168296</ele>
        <time>2021-04-29T23:58:30.518Z</time>
      </trkpt>
      <trkpt lat="45.1897" lon="2.95132">
        <ele>936.864117</ele>
        <time>2021-04-29T23:58:37.658Z</time>
      </trkpt>
      <trkpt lat="45.18803" lon="2.95237">
        <ele>934.913987</ele>
        <time>2021-04-29T23:59:12.137Z</time>
      </trkpt>
      <trkpt lat="45.18726" lon="2.95303">
        <ele>933.738955</ele>
        <time>2021-04-29T23:59:28.527Z</time>
      </trkpt>
      <trkpt lat="45.18641" lon="2.95388">
        <ele>933.058742</ele>
        <time>2021-04-29T23:59:48.760Z</time>
      </trkpt>
      <trkpt lat="45.18326" lon="2.95655">
        <ele>931.917402</ele>
        <time>2021-04-30T00:01:09.733Z</time>
      </trkpt>
      <trkpt lat="45.1825" lon="2.95716">
        <ele>931.506343</ele>
        <time>2021-04-30T00:01:26.129Z</time>
      </trkpt>
      <trkpt lat="45.18211" lon="2.95741">
        <ele>931.454249</ele>
        <time>2021-04-30T00:01:34.400Z</time>
      </trkpt>
      <trkpt lat="45.18182" lon="2.95754">
        <ele>931.417752</ele>
        <time>2021-04-30T00:01:40.367Z</time>
      </trkpt>
      <trkpt lat="45.18132" lon="2.95756">
        <ele>931.357478</ele>
        <time>2021-04-30T00:01:50.550Z</time>
      </trkpt>
      <trkpt lat="45.17989" lon="2.9574">
        <ele>933.807309</ele>
        <time>2021-04-30T00:02:32.752Z</time>
      </trkpt>
      <trkpt lat="45.17965" lon="2.95742">
        <ele>934.448581</ele>
        <time>2021-04-30T00:02:41.985Z</time>
      </trkpt>
      <trkpt lat="45.17826" lon="2.95811">
        <ele>937.129196</ele>
        <time>2021-04-30T00:03:35.729Z</time>
      </trkpt>
      <trkpt lat="45.17761" lon="2.95825">
        <ele>937.986457</ele>
        <time>2021-04-30T00:03:52.133Z</time>
      </trkpt>
      <trkpt lat="45.17703" lon="2.95826">
        <ele>936.330787</ele>
        <time>2021-04-30T00:04:01.951Z</time>
      </trkpt>
      <trkpt lat="45.17647" lon="2.9581">
        <ele>932.729134</ele>
        <time>2021-04-30T00:04:10.593Z</time>
      </trkpt>
      <trkpt lat="45.17598" lon="2.95782">
        <ele>929.458802</ele>
        <time>2021-04-30T00:04:17.999Z</time>
      </trkpt>
      <trkpt lat="45.17571" lon="2.95777">
        <ele>927.804877</ele>
        <time>2021-04-30T00:04:21.661Z</time>
      </trkpt>
      <trkpt lat="45.17543" lon="2.95754">
        <ele>925.234547</ele>
        <time>2021-04-30T00:04:26.075Z</time>
      </trkpt>
      <trkpt lat="45.17501" lon="2.95749">
        <ele>921.530821</ele>
        <time>2021-04-30T00:04:31.833Z</time>
      </trkpt>
      <trkpt lat="45.17482" lon="2.95766">
        <ele>919.542116</ele>
        <time>2021-04-30T00:04:34.942Z</time>
      </trkpt>
      <trkpt lat="45.17471" lon="2.95791">
        <ele>917.721173</ele>
        <time>2021-04-30T00:04:37.810Z</time>
      </trkpt>
      <trkpt lat="45.17455" lon="2.95867">
        <ele>912.794073</ele>
        <time>2021-04-30T00:04:45.675Z</time>
      </trkpt>
      <trkpt lat="45.17438" lon="2.95908">
        <ele>910.271889</ele>
        <time>2021-04-30T00:04:50.374Z</time>
      </trkpt>
      <trkpt lat="45.17414" lon="2.95939">
        <ele>908.141854</ele>
        <time>2021-04-30T00:04:55.010Z</time>
      </trkpt>
      <trkpt lat="45.17365" lon="2.95987">
        <ele>904.231382</ele>
        <time>2021-04-30T00:05:03.645Z</time>
      </trkpt>
      <trkpt lat="45.17357" lon="2.96006">
        <ele>903.203081</ele>
        <time>2021-04-30T00:05:05.927Z</time>
      </trkpt>
      <trkpt lat="45.17352" lon="2.96038">
        <ele>901.673534</ele>
        <time>2021-04-30T00:05:09.377Z</time>
      </trkpt>
      <trkpt lat="45.17362" lon="2.96167">
        <ele>896.688506</ele>
        <time>2021-04-30T00:05:22.919Z</time>
      </trkpt>
      <trkpt lat="45.17371" lon="2.96293">
        <ele>892.306204</ele>
        <time>2021-04-30T00:05:36.569Z</time>
      </trkpt>
      <trkpt lat="45.17372" lon="2.96317">
        <ele>891.486098</ele>
        <time>2021-04-30T00:05:39.161Z</time>
      </trkpt>
      <trkpt lat="45.17361" lon="2.96468">
        <ele>888.091947</ele>
        <time>2021-04-30T00:05:56.430Z</time>
      </trkpt>
      <trkpt lat="45.17347" lon="2.96568">
        <ele>885.985057</ele>
        <time>2021-04-30T00:06:08.786Z</time>
      </trkpt>
      <trkpt lat="45.17296" lon="2.96766">
        <ele>884.19784</ele>
        <time>2021-04-30T00:06:35.706Z</time>
      </trkpt>
      <trkpt lat="45.17274" lon="2.9684">
        <ele>883.885762</ele>
        <time>2021-04-30T00:06:48.628Z</time>
      </trkpt>
      <trkpt lat="45.1726" lon="2.9691">
        <ele>884.675773</ele>
        <time>2021-04-30T00:07:04.376Z</time>
      </trkpt>
      <trkpt lat="45.17246" lon="2.96944">
        <ele>885.090799</ele>
        <time>2021-04-30T00:07:12.842Z</time>
      </trkpt>
      <trkpt lat="45.17232" lon="2.96979">
        <ele>885.535944</ele>
        <time>2021-04-30T00:07:21.277Z</time>
      </trkpt>
      <trkpt lat="45.1723" lon="2.96983">
        <ele>885.585632</ele>
        <time>2021-04-30T00:07:22.684Z</time>
      </trkpt>
      <trkpt lat="45.17218" lon="2.97016">
        <ele>885.980451</ele>
        <time>2021-04-30T00:07:29.979Z</time>
      </trkpt>
      <trkpt lat="45.17214" lon="2.97029">
        <ele>886.136919</ele>
        <time>2021-04-30T00:07:33.096Z</time>
      </trkpt>
      <trkpt lat="45.17208" lon="2.97047">
        <ele>886.348783</ele>
        <time>2021-04-30T00:07:36.826Z</time>
      </trkpt>
      <trkpt lat="45.17203" lon="2.97063">
        <ele>886.523054</ele>
        <time>2021-04-30T00:07:40.529Z</time>
      </trkpt>
      <trkpt lat="45.17198" lon="2.97077">
        <ele>886.639206</ele>
        <time>2021-04-30T00:07:43.790Z</time>
      </trkpt>
      <trkpt lat="45.17185" lon="2.97099">
        <ele>886.859355</ele>
        <time>2021-04-30T00:07:49.356Z</time>
      </trkpt>
      <trkpt lat="45.17159" lon="2.97122">
        <ele>887.184112</ele>
        <time>2021-04-30T00:07:57.686Z</time>
      </trkpt>
      <trkpt lat="45.17115" lon="2.97142">
        <ele>887.676628</ele>
        <time>2021-04-30T00:08:10.038Z</time>
      </trkpt>
      <trkpt lat="45.17097" lon="2.97155">
        <ele>887.886137</ele>
        <time>2021-04-30T00:08:14.849Z</time>
      </trkpt>
      <trkpt lat="45.17026" lon="2.97237">
        <ele>889.644529</ele>
        <time>2021-04-30T00:08:37.187Z</time>
      </trkpt>
      <trkpt lat="45.1701" lon="2.97267">
        <ele>890.403143</ele>
        <time>2021-04-30T00:08:44.939Z</time>
      </trkpt>
      <trkpt lat="45.16972" lon="2.97371">
        <ele>892.754151</ele>
        <time>2021-04-30T00:09:15.377Z</time>
      </trkpt>
      <trkpt lat="45.16927" lon="2.97449">
        <ele>895.304772</ele>
        <time>2021-04-30T00:09:45.594Z</time>
      </trkpt>
      <trkpt lat="45.16865" lon="2.9752">
        <ele>898.544866</ele>
        <time>2021-04-30T00:10:18.671Z</time>
      </trkpt>
      <trkpt lat="45.16836" lon="2.97544">
        <ele>899.920669</ele>
        <time>2021-04-30T00:10:31.953Z</time>
      </trkpt>
      <trkpt lat="45.16493" lon="2.97693">
        <ele>905.703441</ele>
        <time>2021-04-30T00:12:11.917Z</time>
      </trkpt>
      <trkpt lat="45.16419" lon="2.9773">
        <ele>905.762641</ele>
        <time>2021-04-30T00:12:32.100Z</time>
      </trkpt>
      <trkpt lat="45.16313" lon="2.97801">
        <ele>905.253293</ele>
        <time>2021-04-30T00:12:55.966Z</time>
      </trkpt>
      <trkpt lat="45.16255" lon="2.9783">
        <ele>902.76783</ele>
        <time>2021-04-30T00:13:06.235Z</time>
      </trkpt>
      <trkpt lat="45.16087" lon="2.97881">
        <ele>894.729937</ele>
        <time>2021-04-30T00:13:31.584Z</time>
      </trkpt>
      <trkpt lat="45.16065" lon="2.97892">
        <ele>893.5276</ele>
        <time>2021-04-30T00:13:35.018Z</time>
      </trkpt>
      <trkpt lat="45.16046" lon="2.97912">
        <ele>892.331588</ele>
        <time>2021-04-30T00:13:38.484Z</time>
      </trkpt>
      <trkpt lat="45.16033" lon="2.9794">
        <ele>891.132809</ele>
        <time>2021-04-30T00:13:42.027Z</time>
      </trkpt>
      <trkpt lat="45.16018" lon="2.98005">
        <ele>888.683589</ele>
        <time>2021-04-30T00:13:49.497Z</time>
      </trkpt>
      <trkpt lat="45.16006" lon="2.98034">
        <ele>887.648515</ele>
        <time>2021-04-30T00:13:53.277Z</time>
      </trkpt>
      <trkpt lat="45.15987" lon="2.98053">
        <ele>886.956137</ele>
        <time>2021-04-30T00:13:57.085Z</time>
      </trkpt>
      <trkpt lat="45.15963" lon="2.98063">
        <ele>886.234945</ele>
        <time>2021-04-30T00:14:01.105Z</time>
      </trkpt>
      <trkpt lat="45.15892" lon="2.98072">
        <ele>884.125715</ele>
        <time>2021-04-30T00:14:13.009Z</time>
      </trkpt>
      <trkpt lat="45.15839" lon="2.98109">
        <ele>882.357784</ele>
        <time>2021-04-30T00:14:23.225Z</time>
      </trkpt>
      <trkpt lat="45.15802" lon="2.98126">
        <ele>881.132686</ele>
        <time>2021-04-30T00:14:29.805Z</time>
      </trkpt>
      <trkpt lat="45.15777" lon="2.98125">
        <ele>880.326553</ele>
        <time>2021-04-30T00:14:34.054Z</time>
      </trkpt>
      <trkpt lat="45.15585" lon="2.98079">
        <ele>873.408162</ele>
        <time>2021-04-30T00:15:05.069Z</time>
      </trkpt>
      <trkpt lat="45.15557" lon="2.98066">
        <ele>872.272229</ele>
        <time>2021-04-30T00:15:09.428Z</time>
      </trkpt>
      <trkpt lat="45.15435" lon="2.9799">
        <ele>868.03055</ele>
        <time>2021-04-30T00:15:30.348Z</time>
      </trkpt>
      <trkpt lat="45.15392" lon="2.97973">
        <ele>866.950482</ele>
        <time>2021-04-30T00:15:37.899Z</time>
      </trkpt>
      <trkpt lat="45.15362" lon="2.9797">
        <ele>866.224124</ele>
        <time>2021-04-30T00:15:43.342Z</time>
      </trkpt>
      <trkpt lat="45.15288" lon="2.97979">
        <ele>865.06266</ele>
        <time>2021-04-30T00:15:58.849Z</time>
      </trkpt>
      <trkpt lat="45.15234" lon="2.97967">
        <ele>864.682822</ele>
        <time>2021-04-30T00:16:11.888Z</time>
      </trkpt>
      <trkpt lat="45.15184" lon="2.97933">
        <ele>864.305512</ele>
        <time>2021-04-30T00:16:23.630Z</time>
      </trkpt>
      <trkpt lat="45.1509" lon="2.97843">
        <ele>860.818767</ele>
        <time>2021-04-30T00:16:42.977Z</time>
      </trkpt>
      <trkpt lat="45.15044" lon="2.97809">
        <ele>858.707471</ele>
        <time>2021-04-30T00:16:50.987Z</time>
      </trkpt>
      <trkpt lat="45.14776" lon="2.97647">
        <ele>841.518888</ele>
        <time>2021-04-30T00:17:33.242Z</time>
      </trkpt>
      <trkpt lat="45.14734" lon="2.97641">
        <ele>838.938498</ele>
        <time>2021-04-30T00:17:39.440Z</time>
      </trkpt>
      <trkpt lat="45.14702" lon="2.97653">
        <ele>836.962756</ele>
        <time>2021-04-30T00:17:44.228Z</time>
      </trkpt>
      <trkpt lat="45.14662" lon="2.97686">
        <ele>834.200046</ele>
        <time>2021-04-30T00:17:51.209Z</time>
      </trkpt>
      <trkpt lat="45.14642" lon="2.97701">
        <ele>832.970269</ele>
        <time>2021-04-30T00:17:54.633Z</time>
      </trkpt>
      <trkpt lat="45.14495" lon="2.97795">
        <ele>824.07388</ele>
        <time>2021-04-30T00:18:18.900Z</time>
      </trkpt>
      <trkpt lat="45.14443" lon="2.9783">
        <ele>819.635166</ele>
        <time>2021-04-30T00:18:27.131Z</time>
      </trkpt>
      <trkpt lat="45.14421" lon="2.97841">
        <ele>817.866261</ele>
        <time>2021-04-30T00:18:30.320Z</time>
      </trkpt>
      <trkpt lat="45.14357" lon="2.97853">
        <ele>812.893315</ele>
        <time>2021-04-30T00:18:39.255Z</time>
      </trkpt>
      <trkpt lat="45.14259" lon="2.97865">
        <ele>806.418031</ele>
        <time>2021-04-30T00:18:52.895Z</time>
      </trkpt>
      <trkpt lat="45.14246" lon="2.97867">
        <ele>805.598188</ele>
        <time>2021-04-30T00:18:54.810Z</time>
      </trkpt>
      <trkpt lat="45.14222" lon="2.97874">
        <ele>804.071802</ele>
        <time>2021-04-30T00:18:58.349Z</time>
      </trkpt>
      <trkpt lat="45.14177" lon="2.97895">
        <ele>801.133664</ele>
        <time>2021-04-30T00:19:05.608Z</time>
      </trkpt>
      <trkpt lat="45.14119" lon="2.97936">
        <ele>799.079773</ele>
        <time>2021-04-30T00:19:16.506Z</time>
      </trkpt>
      <trkpt lat="45.13874" lon="2.98128">
        <ele>795.441782</ele>
        <time>2021-04-30T00:20:10.203Z</time>
      </trkpt>
      <trkpt lat="45.13849" lon="2.98164">
        <ele>795.105521</ele>
        <time>2021-04-30T00:20:17.208Z</time>
      </trkpt>
      <trkpt lat="45.13802" lon="2.98271">
        <ele>795.238421</ele>
        <time>2021-04-30T00:20:35.588Z</time>
      </trkpt>
      <trkpt lat="45.13788" lon="2.98296">
        <ele>795.271905</ele>
        <time>2021-04-30T00:20:40.215Z</time>
      </trkpt>
      <trkpt lat="45.13765" lon="2.98319">
        <ele>795.31456</ele>
        <time>2021-04-30T00:20:47.143Z</time>
      </trkpt>
      <trkpt lat="45.13698" lon="2.98379">
        <ele>796.278513</ele>
        <time>2021-04-30T00:21:09.558Z</time>
      </trkpt>
      <trkpt lat="45.13646" lon="2.98412">
        <ele>797.565132</ele>
        <time>2021-04-30T00:21:28.186Z</time>
      </trkpt>
      <trkpt lat="45.13616" lon="2.98415">
        <ele>798.260523</ele>
        <time>2021-04-30T00:21:38.650Z</time>
      </trkpt>
      <trkpt lat="45.13611" lon="2.98415">
        <ele>798.356387</ele>
        <time>2021-04-30T00:21:39.873Z</time>
      </trkpt>
      <trkpt lat="45.13603" lon="2.98415">
        <ele>798.543444</ele>
        <time>2021-04-30T00:21:42.348Z</time>
      </trkpt>
      <trkpt lat="45.13589" lon="2.9841">
        <ele>798.889455</ele>
        <time>2021-04-30T00:21:47.839Z</time>
      </trkpt>
      <trkpt lat="45.13571" lon="2.98404">
        <ele>799.304987</ele>
        <time>2021-04-30T00:21:52.878Z</time>
      </trkpt>
      <trkpt lat="45.13563" lon="2.98405">
        <ele>799.491938</ele>
        <time>2021-04-30T00:21:55.937Z</time>
      </trkpt>
      <trkpt lat="45.13555" lon="2.98405">
        <ele>799.700749</ele>
        <time>2021-04-30T00:21:58.680Z</time>
      </trkpt>
      <trkpt lat="45.13555" lon="2.98425">
        <ele>800.053342</ele>
        <time>2021-04-30T00:22:02.530Z</time>
      </trkpt>
      <trkpt lat="45.13563" lon="2.98424">
        <ele>800.254429</ele>
        <time>2021-04-30T00:22:04.681Z</time>
      </trkpt>
      <trkpt lat="45.13563" lon="2.98405">
        <ele>800.607049</ele>
        <time>2021-04-30T00:22:09.613Z</time>
      </trkpt>
      <trkpt lat="45.13563" lon="2.98405">
        <ele>800.607049</ele>
        <time>2021-04-30T00:22:09.614Z</time>
      </trkpt>
      <trkpt lat="45.13562" lon="2.98374">
        <ele>801.172484</ele>
        <time>2021-04-30T00:22:16.299Z</time>
      </trkpt>
      <trkpt lat="45.13548" lon="2.98245">
        <ele>803.541603</ele>
        <time>2021-04-30T00:22:48.217Z</time>
      </trkpt>
      <trkpt lat="45.13544" lon="2.98219">
        <ele>804.032928</ele>
        <time>2021-04-30T00:22:53.954Z</time>
      </trkpt>
      <trkpt lat="45.1354" lon="2.98198">
        <ele>804.323096</ele>
        <time>2021-04-30T00:22:58.165Z</time>
      </trkpt>
      <trkpt lat="45.13532" lon="2.98201">
        <ele>804.473502</ele>
        <time>2021-04-30T00:23:00.832Z</time>
      </trkpt>
      <trkpt lat="45.13507" lon="2.98212">
        <ele>804.929936</ele>
        <time>2021-04-30T00:23:08.315Z</time>
      </trkpt>
      <trkpt lat="45.13493" lon="2.98217">
        <ele>805.193722</ele>
        <time>2021-04-30T00:23:12.908Z</time>
      </trkpt>
      <trkpt lat="45.13481" lon="2.98215">
        <ele>805.413189</ele>
        <time>2021-04-30T00:23:16.600Z</time>
      </trkpt>
      <trkpt lat="45.13471" lon="2.98212">
        <ele>805.591973</ele>
        <time>2021-04-30T00:23:19.260Z</time>
      </trkpt>
      <trkpt lat="45.13396" lon="2.98175">
        <ele>807.011429</ele>
        <time>2021-04-30T00:23:42.394Z</time>
      </trkpt>
      <trkpt lat="45.13292" lon="2.98165">
        <ele>808.848996</ele>
        <time>2021-04-30T00:24:11.570Z</time>
      </trkpt>
      <trkpt lat="45.13283" lon="2.98159">
        <ele>809.020388</ele>
        <time>2021-04-30T00:24:14.560Z</time>
      </trkpt>
      <trkpt lat="45.13234" lon="2.98127">
        <ele>809.960388</ele>
        <time>2021-04-30T00:24:30.763Z</time>
      </trkpt>
      <trkpt lat="45.13171" lon="2.98083">
        <ele>810.700599</ele>
        <time>2021-04-30T00:24:51.938Z</time>
      </trkpt>
      <trkpt lat="45.13154" lon="2.9807">
        <ele>810.806353</ele>
        <time>2021-04-30T00:24:58.023Z</time>
      </trkpt>
      <trkpt lat="45.13138" lon="2.98059">
        <ele>810.904822</ele>
        <time>2021-04-30T00:25:03.078Z</time>
      </trkpt>
      <trkpt lat="45.13135" lon="2.98056">
        <ele>810.923388</ele>
        <time>2021-04-30T00:25:04.099Z</time>
      </trkpt>
      <trkpt lat="45.13115" lon="2.98039">
        <ele>811.053398</ele>
        <time>2021-04-30T00:25:10.171Z</time>
      </trkpt>
      <trkpt lat="45.13033" lon="2.97918">
        <ele>810.023395</ele>
        <time>2021-04-30T00:25:33.537Z</time>
      </trkpt>
      <trkpt lat="45.13024" lon="2.97904">
        <ele>809.576849</ele>
        <time>2021-04-30T00:25:35.629Z</time>
      </trkpt>
      <trkpt lat="45.13021" lon="2.97899">
        <ele>809.413887</ele>
        <time>2021-04-30T00:25:36.383Z</time>
      </trkpt>
      <trkpt lat="45.12978" lon="2.97833">
        <ele>807.299505</ele>
        <time>2021-04-30T00:25:46.244Z</time>
      </trkpt>
      <trkpt lat="45.12953" lon="2.97796">
        <ele>806.073094</ele>
        <time>2021-04-30T00:25:51.911Z</time>
      </trkpt>
      <trkpt lat="45.12949" lon="2.97789">
        <ele>805.875721</ele>
        <time>2021-04-30T00:25:52.839Z</time>
      </trkpt>
      <trkpt lat="45.12943" lon="2.9778">
        <ele>805.570965</ele>
        <time>2021-04-30T00:25:54.171Z</time>
      </trkpt>
      <trkpt lat="45.12909" lon="2.97739">
        <ele>804.261947</ele>
        <time>2021-04-30T00:26:01.005Z</time>
      </trkpt>
      <trkpt lat="45.12885" lon="2.97728">
        <ele>803.507797</ele>
        <time>2021-04-30T00:26:05.286Z</time>
      </trkpt>
      <trkpt lat="45.12879" lon="2.97726">
        <ele>803.326943</ele>
        <time>2021-04-30T00:26:06.163Z</time>
      </trkpt>
      <trkpt lat="45.12876" lon="2.97724">
        <ele>803.235772</ele>
        <time>2021-04-30T00:26:06.699Z</time>
      </trkpt>
      <trkpt lat="45.1287" lon="2.97719">
        <ele>803.034942</ele>
        <time>2021-04-30T00:26:08.024Z</time>
      </trkpt>
      <trkpt lat="45.12848" lon="2.97679">
        <ele>801.990162</ele>
        <time>2021-04-30T00:26:13.781Z</time>
      </trkpt>
      <trkpt lat="45.12836" lon="2.9757">
        <ele>800.391896</ele>
        <time>2021-04-30T00:26:27.685Z</time>
      </trkpt>
      <trkpt lat="45.12814" lon="2.97515">
        <ele>800.958536</ele>
        <time>2021-04-30T00:26:37.544Z</time>
      </trkpt>
      <trkpt lat="45.12802" lon="2.97501">
        <ele>801.164901</ele>
        <time>2021-04-30T00:26:40.853Z</time>
      </trkpt>
      <trkpt lat="45.12752" lon="2.9747">
        <ele>801.859391</ele>
        <time>2021-04-30T00:26:57.903Z</time>
      </trkpt>
      <trkpt lat="45.12735" lon="2.97457">
        <ele>802.115269</ele>
        <time>2021-04-30T00:27:03.824Z</time>
      </trkpt>
      <trkpt lat="45.12717" lon="2.97447">
        <ele>802.35464</ele>
        <time>2021-04-30T00:27:11.042Z</time>
      </trkpt>
      <trkpt lat="45.12665" lon="2.97432">
        <ele>804.813421</ele>
        <time>2021-04-30T00:27:30.156Z</time>
      </trkpt>
      <trkpt lat="45.1264" lon="2.97425">
        <ele>806.189457</ele>
        <time>2021-04-30T00:27:41.844Z</time>
      </trkpt>
      <trkpt lat="45.12627" lon="2.97428">
        <ele>806.935942</ele>
        <time>2021-04-30T00:27:49.119Z</time>
      </trkpt>
      <trkpt lat="45.12619" lon="2.97432">
        <ele>807.393039</ele>
        <time>2021-04-30T00:27:53.127Z</time>
      </trkpt>
      <trkpt lat="45.12615" lon="2.97435">
        <ele>807.638483</ele>
        <time>2021-04-30T00:27:55.711Z</time>
      </trkpt>
      <trkpt lat="45.12557" lon="2.97485">
        <ele>811.303805</ele>
        <time>2021-04-30T00:28:27.848Z</time>
      </trkpt>
      <trkpt lat="45.12542" lon="2.97498">
        <ele>812.254636</ele>
        <time>2021-04-30T00:28:35.368Z</time>
      </trkpt>
      <trkpt lat="45.12529" lon="2.97509">
        <ele>812.93955</ele>
        <time>2021-04-30T00:28:42.652Z</time>
      </trkpt>
      <trkpt lat="45.12515" lon="2.9752">
        <ele>813.708745</ele>
        <time>2021-04-30T00:28:49.539Z</time>
      </trkpt>
      <trkpt lat="45.12498" lon="2.97524">
        <ele>814.471562</ele>
        <time>2021-04-30T00:28:57.672Z</time>
      </trkpt>
      <trkpt lat="45.12492" lon="2.97535">
        <ele>814.933793</ele>
        <time>2021-04-30T00:29:01.861Z</time>
      </trkpt>
      <trkpt lat="45.12488" lon="2.9755">
        <ele>815.445491</ele>
        <time>2021-04-30T00:29:05.947Z</time>
      </trkpt>
      <trkpt lat="45.1249" lon="2.97625">
        <ele>817.879087</ele>
        <time>2021-04-30T00:29:26.818Z</time>
      </trkpt>
      <trkpt lat="45.12489" lon="2.97644">
        <ele>818.495846</ele>
        <time>2021-04-30T00:29:31.624Z</time>
      </trkpt>
      <trkpt lat="45.12486" lon="2.97671">
        <ele>819.394519</ele>
        <time>2021-04-30T00:29:39.987Z</time>
      </trkpt>
      <trkpt lat="45.1248" lon="2.97706">
        <ele>820.532031</ele>
        <time>2021-04-30T00:29:48.914Z</time>
      </trkpt>
      <trkpt lat="45.12466" lon="2.97777">
        <ele>822.799673</ele>
        <time>2021-04-30T00:30:07.268Z</time>
      </trkpt>
      <trkpt lat="45.12456" lon="2.97812">
        <ele>823.96454</ele>
        <time>2021-04-30T00:30:16.455Z</time>
      </trkpt>
      <trkpt lat="45.12454" lon="2.97818">
        <ele>824.166213</ele>
        <time>2021-04-30T00:30:18.753Z</time>
      </trkpt>
      <trkpt lat="45.12431" lon="2.97889">
        <ele>826.574318</ele>
        <time>2021-04-30T00:30:40.591Z</time>
      </trkpt>
      <trkpt lat="45.12393" lon="2.98011">
        <ele>831.537654</ele>
        <time>2021-04-30T00:31:23.446Z</time>
      </trkpt>
      <trkpt lat="45.12376" lon="2.98143">
        <ele>837.212832</ele>
        <time>2021-04-30T00:32:08.313Z</time>
      </trkpt>
      <trkpt lat="45.12345" lon="2.98229">
        <ele>840.905563</ele>
        <time>2021-04-30T00:32:40.207Z</time>
      </trkpt>
      <trkpt lat="45.12337" lon="2.98274">
        <ele>842.521435</ele>
        <time>2021-04-30T00:32:54.864Z</time>
      </trkpt>
      <trkpt lat="45.12339" lon="2.98359">
        <ele>845.490575</ele>
        <time>2021-04-30T00:33:20.336Z</time>
      </trkpt>
      <trkpt lat="45.12349" lon="2.98414">
        <ele>847.443185</ele>
        <time>2021-04-30T00:33:36.178Z</time>
      </trkpt>
      <trkpt lat="45.12424" lon="2.98799">
        <ele>855.426699</ele>
        <time>2021-04-30T00:35:09.167Z</time>
      </trkpt>
      <trkpt lat="45.12421" lon="2.9884">
        <ele>856.172261</ele>
        <time>2021-04-30T00:35:17.028Z</time>
      </trkpt>
      <trkpt lat="45.12411" lon="2.98881">
        <ele>856.955955</ele>
        <time>2021-04-30T00:35:26.677Z</time>
      </trkpt>
      <trkpt lat="45.12389" lon="2.98925">
        <ele>858.130998</ele>
        <time>2021-04-30T00:35:39.650Z</time>
      </trkpt>
      <trkpt lat="45.12359" lon="2.98956">
        <ele>859.787806</ele>
        <time>2021-04-30T00:35:52.940Z</time>
      </trkpt>
      <trkpt lat="45.1235" lon="2.98955">
        <ele>860.204595</ele>
        <time>2021-04-30T00:35:58.538Z</time>
      </trkpt>
      <trkpt lat="45.12321" lon="2.98962">
        <ele>861.525886</ele>
        <time>2021-04-30T00:36:08.005Z</time>
      </trkpt>
      <trkpt lat="45.12278" lon="2.99017">
        <ele>864.155489</ele>
        <time>2021-04-30T00:36:32.407Z</time>
      </trkpt>
      <trkpt lat="45.12271" lon="2.99048">
        <ele>865.192968</ele>
        <time>2021-04-30T00:36:43.845Z</time>
      </trkpt>
      <trkpt lat="45.12158" lon="2.99166">
        <ele>874.141363</ele>
        <time>2021-04-30T00:37:52.247Z</time>
      </trkpt>
      <trkpt lat="45.12142" lon="2.99195">
        <ele>875.830556</ele>
        <time>2021-04-30T00:38:04.918Z</time>
      </trkpt>
      <trkpt lat="45.1213" lon="2.9924">
        <ele>878.065151</ele>
        <time>2021-04-30T00:38:21.633Z</time>
      </trkpt>
      <trkpt lat="45.12102" lon="2.9935">
        <ele>883.627925</ele>
        <time>2021-04-30T00:39:02.787Z</time>
      </trkpt>
      <trkpt lat="45.12071" lon="2.99472">
        <ele>889.853496</ele>
        <time>2021-04-30T00:39:48.444Z</time>
      </trkpt>
      <trkpt lat="45.12059" lon="2.99539">
        <ele>892.973147</ele>
        <time>2021-04-30T00:40:11.132Z</time>
      </trkpt>
      <trkpt lat="45.12057" lon="2.99659">
        <ele>898.417627</ele>
        <time>2021-04-30T00:40:50.959Z</time>
      </trkpt>
      <trkpt lat="45.12048" lon="2.99704">
        <ele>900.552839</ele>
        <time>2021-04-30T00:41:06.708Z</time>
      </trkpt>
      <trkpt lat="45.12032" lon="2.99738">
        <ele>902.468974</ele>
        <time>2021-04-30T00:41:21.234Z</time>
      </trkpt>
      <trkpt lat="45.11983" lon="2.9981">
        <ele>907.062751</ele>
        <time>2021-04-30T00:41:57.880Z</time>
      </trkpt>
      <trkpt lat="45.11963" lon="2.99872">
        <ele>910.277559</ele>
        <time>2021-04-30T00:42:22.064Z</time>
      </trkpt>
      <trkpt lat="45.11938" lon="3">
        <ele>915.584222</ele>
        <time>2021-04-30T00:43:03.413Z</time>
      </trkpt>
      <trkpt lat="45.11935" lon="3.00012">
        <ele>916.023134</ele>
        <time>2021-04-30T00:43:07.072Z</time>
      </trkpt>
      <trkpt lat="45.11929" lon="3.00072">
        <ele>918.069461</ele>
        <time>2021-04-30T00:43:24.521Z</time>
      </trkpt>
      <trkpt lat="45.11938" lon="3.00161">
        <ele>921.139902</ele>
        <time>2021-04-30T00:43:50.302Z</time>
      </trkpt>
      <trkpt lat="45.11944" lon="3.00195">
        <ele>922.377669</ele>
        <time>2021-04-30T00:44:00.046Z</time>
      </trkpt>
      <trkpt lat="45.11967" lon="3.00287">
        <ele>925.770308</ele>
        <time>2021-04-30T00:44:26.531Z</time>
      </trkpt>
      <trkpt lat="45.12009" lon="3.0045">
        <ele>931.648689</ele>
        <time>2021-04-30T00:45:21.154Z</time>
      </trkpt>
      <trkpt lat="45.12036" lon="3.00507">
        <ele>933.673139</ele>
        <time>2021-04-30T00:45:42.268Z</time>
      </trkpt>
      <trkpt lat="45.12089" lon="3.00579">
        <ele>936.705791</ele>
        <time>2021-04-30T00:46:10.858Z</time>
      </trkpt>
      <trkpt lat="45.12248" lon="3.00758">
        <ele>941.891195</ele>
        <time>2021-04-30T00:47:14.233Z</time>
      </trkpt>
      <trkpt lat="45.12282" lon="3.00812">
        <ele>942.79938</ele>
        <time>2021-04-30T00:47:28.688Z</time>
      </trkpt>
      <trkpt lat="45.1231" lon="3.00899">
        <ele>943.883152</ele>
        <time>2021-04-30T00:47:47.172Z</time>
      </trkpt>
      <trkpt lat="45.12337" lon="3.01009">
        <ele>945.299698</ele>
        <time>2021-04-30T00:48:09.885Z</time>
      </trkpt>
      <trkpt lat="45.12404" lon="3.0116">
        <ele>948.984081</ele>
        <time>2021-04-30T00:48:52.216Z</time>
      </trkpt>
      <trkpt lat="45.12415" lon="3.01211">
        <ele>950.077956</ele>
        <time>2021-04-30T00:49:06.114Z</time>
      </trkpt>
      <trkpt lat="45.12448" lon="3.01481">
        <ele>956.723541</ele>
        <time>2021-04-30T00:50:19.805Z</time>
      </trkpt>
      <trkpt lat="45.12461" lon="3.01541">
        <ele>956.721654</ele>
        <time>2021-04-30T00:50:31.752Z</time>
      </trkpt>
      <trkpt lat="45.12488" lon="3.0161">
        <ele>956.719318</ele>
        <time>2021-04-30T00:50:43.744Z</time>
      </trkpt>
      <trkpt lat="45.12558" lon="3.0171">
        <ele>956.563577</ele>
        <time>2021-04-30T00:51:01.947Z</time>
      </trkpt>
      <trkpt lat="45.12572" lon="3.01756">
        <ele>956.317717</ele>
        <time>2021-04-30T00:51:08.487Z</time>
      </trkpt>
      <trkpt lat="45.12576" lon="3.01817">
        <ele>956.025009</ele>
        <time>2021-04-30T00:51:16.461Z</time>
      </trkpt>
      <trkpt lat="45.12566" lon="3.01864">
        <ele>955.784978</ele>
        <time>2021-04-30T00:51:23.494Z</time>
      </trkpt>
      <trkpt lat="45.1255" lon="3.019">
        <ele>955.57855</ele>
        <time>2021-04-30T00:51:30.244Z</time>
      </trkpt>
      <trkpt lat="45.12465" lon="3.02047">
        <ele>957.375594</ele>
        <time>2021-04-30T00:52:08.057Z</time>
      </trkpt>
      <trkpt lat="45.12383" lon="3.02157">
        <ele>959.013645</ele>
        <time>2021-04-30T00:52:43.331Z</time>
      </trkpt>
      <trkpt lat="45.12356" lon="3.02249">
        <ele>959.948758</ele>
        <time>2021-04-30T00:53:03.090Z</time>
      </trkpt>
      <trkpt lat="45.12347" lon="3.0228">
        <ele>960.259746</ele>
        <time>2021-04-30T00:53:09.207Z</time>
      </trkpt>
      <trkpt lat="45.12322" lon="3.02332">
        <ele>960.601177</ele>
        <time>2021-04-30T00:53:19.878Z</time>
      </trkpt>
      <trkpt lat="45.12304" lon="3.02356">
        <ele>960.391611</ele>
        <time>2021-04-30T00:53:25.490Z</time>
      </trkpt>
      <trkpt lat="45.12182" lon="3.02464">
        <ele>959.186659</ele>
        <time>2021-04-30T00:53:52.627Z</time>
      </trkpt>
      <trkpt lat="45.12085" lon="3.02599">
        <ele>956.927242</ele>
        <time>2021-04-30T00:54:17.248Z</time>
      </trkpt>
      <trkpt lat="45.1203" lon="3.0268">
        <ele>955.805567</ele>
        <time>2021-04-30T00:54:31.381Z</time>
      </trkpt>
      <trkpt lat="45.12014" lon="3.02713">
        <ele>955.487319</ele>
        <time>2021-04-30T00:54:36.616Z</time>
      </trkpt>
      <trkpt lat="45.12002" lon="3.02744">
        <ele>955.202479</ele>
        <time>2021-04-30T00:54:41.346Z</time>
      </trkpt>
      <trkpt lat="45.11994" lon="3.02773">
        <ele>954.956853</ele>
        <time>2021-04-30T00:54:45.433Z</time>
      </trkpt>
      <trkpt lat="45.1196" lon="3.02912">
        <ele>954.514363</ele>
        <time>2021-04-30T00:55:06.520Z</time>
      </trkpt>
      <trkpt lat="45.11932" lon="3.02961">
        <ele>954.944662</ele>
        <time>2021-04-30T00:55:16.957Z</time>
      </trkpt>
      <trkpt lat="45.11908" lon="3.02981">
        <ele>955.210217</ele>
        <time>2021-04-30T00:55:24.511Z</time>
      </trkpt>
      <trkpt lat="45.11801" lon="3.03055">
        <ele>957.075698</ele>
        <time>2021-04-30T00:56:00.594Z</time>
      </trkpt>
      <trkpt lat="45.11764" lon="3.03081">
        <ele>958.117518</ele>
        <time>2021-04-30T00:56:14.111Z</time>
      </trkpt>
      <trkpt lat="45.11591" lon="3.03209">
        <ele>962.991553</ele>
        <time>2021-04-30T00:57:19.079Z</time>
      </trkpt>
      <trkpt lat="45.11535" lon="3.03258">
        <ele>964.608709</ele>
        <time>2021-04-30T00:57:39.641Z</time>
      </trkpt>
      <trkpt lat="45.11487" lon="3.03309">
        <ele>965.709877</ele>
        <time>2021-04-30T00:57:57.770Z</time>
      </trkpt>
      <trkpt lat="45.11447" lon="3.03365">
        <ele>966.646644</ele>
        <time>2021-04-30T00:58:13.973Z</time>
      </trkpt>
      <trkpt lat="45.11414" lon="3.03422">
        <ele>967.525222</ele>
        <time>2021-04-30T00:58:28.747Z</time>
      </trkpt>
      <trkpt lat="45.11389" lon="3.03487">
        <ele>968.328063</ele>
        <time>2021-04-30T00:58:43.138Z</time>
      </trkpt>
      <trkpt lat="45.11372" lon="3.03555">
        <ele>969.054685</ele>
        <time>2021-04-30T00:58:57.004Z</time>
      </trkpt>
      <trkpt lat="45.11362" lon="3.03629">
        <ele>969.814577</ele>
        <time>2021-04-30T00:59:11.727Z</time>
      </trkpt>
      <trkpt lat="45.11358" lon="3.03758">
        <ele>971.285968</ele>
        <time>2021-04-30T00:59:37.950Z</time>
      </trkpt>
      <trkpt lat="45.11365" lon="3.03834">
        <ele>972.261545</ele>
        <time>2021-04-30T00:59:53.991Z</time>
      </trkpt>
      <trkpt lat="45.11385" lon="3.03989">
        <ele>974.412324</ele>
        <time>2021-04-30T01:00:27.274Z</time>
      </trkpt>
      <trkpt lat="45.11387" lon="3.03998">
        <ele>974.564188</ele>
        <time>2021-04-30T01:00:29.289Z</time>
      </trkpt>
      <trkpt lat="45.11422" lon="3.04162">
        <ele>977.358947</ele>
        <time>2021-04-30T01:01:07.077Z</time>
      </trkpt>
      <trkpt lat="45.11438" lon="3.04237">
        <ele>978.891189</ele>
        <time>2021-04-30T01:01:25.676Z</time>
      </trkpt>
      <trkpt lat="45.11447" lon="3.04312">
        <ele>980.565131</ele>
        <time>2021-04-30T01:01:44.729Z</time>
      </trkpt>
      <trkpt lat="45.11446" lon="3.04448">
        <ele>983.492598</ele>
        <time>2021-04-30T01:02:19.737Z</time>
      </trkpt>
      <trkpt lat="45.11446" lon="3.04501">
        <ele>983.737821</ele>
        <time>2021-04-30T01:02:32.033Z</time>
      </trkpt>
      <trkpt lat="45.11445" lon="3.04534">
        <ele>983.891415</ele>
        <time>2021-04-30T01:02:38.950Z</time>
      </trkpt>
      <trkpt lat="45.11442" lon="3.04619">
        <ele>984.286359</ele>
        <time>2021-04-30T01:02:53.011Z</time>
      </trkpt>
      <trkpt lat="45.1144" lon="3.04647">
        <ele>984.418696</ele>
        <time>2021-04-30T01:02:57.186Z</time>
      </trkpt>
      <trkpt lat="45.1144" lon="3.04666">
        <ele>984.504608</ele>
        <time>2021-04-30T01:02:59.618Z</time>
      </trkpt>
      <trkpt lat="45.11439" lon="3.04677">
        <ele>984.556209</ele>
        <time>2021-04-30T01:03:01.208Z</time>
      </trkpt>
      <trkpt lat="45.11437" lon="3.04706">
        <ele>984.576362</ele>
        <time>2021-04-30T01:03:04.905Z</time>
      </trkpt>
      <trkpt lat="45.11431" lon="3.04734">
        <ele>984.236506</ele>
        <time>2021-04-30T01:03:08.817Z</time>
      </trkpt>
      <trkpt lat="45.11431" lon="3.04734">
        <ele>984.236506</ele>
        <time>2021-04-30T01:03:08.840Z</time>
      </trkpt>
      <trkpt lat="45.11431" lon="3.04734">
        <ele>984.236506</ele>
        <time>2021-04-30T01:03:08.844Z</time>
      </trkpt>
      <trkpt lat="45.11426" lon="3.04742">
        <ele>984.121594</ele>
        <time>2021-04-30T01:03:10.115Z</time>
      </trkpt>
      <trkpt lat="45.11416" lon="3.04756">
        <ele>983.890836</ele>
        <time>2021-04-30T01:03:12.578Z</time>
      </trkpt>
      <trkpt lat="45.11327" lon="3.04841">
        <ele>982.172039</ele>
        <time>2021-04-30T01:03:31.366Z</time>
      </trkpt>
      <trkpt lat="45.11278" lon="3.04891">
        <ele>981.513331</ele>
        <time>2021-04-30T01:03:43.270Z</time>
      </trkpt>
      <trkpt lat="45.11244" lon="3.04908">
        <ele>981.258691</ele>
        <time>2021-04-30T01:03:50.736Z</time>
      </trkpt>
      <trkpt lat="45.11167" lon="3.04934">
        <ele>980.696174</ele>
        <time>2021-04-30T01:04:08.914Z</time>
      </trkpt>
      <trkpt lat="45.11137" lon="3.0495">
        <ele>980.39713</ele>
        <time>2021-04-30T01:04:15.007Z</time>
      </trkpt>
      <trkpt lat="45.11131" lon="3.04947">
        <ele>980.201141</ele>
        <time>2021-04-30T01:04:16.096Z</time>
      </trkpt>
      <trkpt lat="45.11117" lon="3.0495">
        <ele>979.701553</ele>
        <time>2021-04-30T01:04:18.700Z</time>
      </trkpt>
      <trkpt lat="45.11131" lon="3.04947">
        <ele>979.201965</ele>
        <time>2021-04-30T01:04:21.369Z</time>
      </trkpt>
      <trkpt lat="45.11137" lon="3.0495">
        <ele>979.005976</ele>
        <time>2021-04-30T01:04:22.416Z</time>
      </trkpt>
      <trkpt lat="45.11114" lon="3.04986">
        <ele>977.860822</ele>
        <time>2021-04-30T01:04:27.912Z</time>
      </trkpt>
      <trkpt lat="45.111" lon="3.05016">
        <ele>976.997079</ele>
        <time>2021-04-30T01:04:31.958Z</time>
      </trkpt>
      <trkpt lat="45.11093" lon="3.05035">
        <ele>976.484398</ele>
        <time>2021-04-30T01:04:34.390Z</time>
      </trkpt>
      <trkpt lat="45.11063" lon="3.05109">
        <ele>974.477072</ele>
        <time>2021-04-30T01:04:43.599Z</time>
      </trkpt>
      <trkpt lat="45.1105" lon="3.05158">
        <ele>972.927393</ele>
        <time>2021-04-30T01:04:49.351Z</time>
      </trkpt>
      <trkpt lat="45.11045" lon="3.05216">
        <ele>971.205251</ele>
        <time>2021-04-30T01:04:55.593Z</time>
      </trkpt>
      <trkpt lat="45.11051" lon="3.05277">
        <ele>969.390424</ele>
        <time>2021-04-30T01:05:02.208Z</time>
      </trkpt>
      <trkpt lat="45.11087" lon="3.0545">
        <ele>964.95411</ele>
        <time>2021-04-30T01:05:22.959Z</time>
      </trkpt>
      <trkpt lat="45.11089" lon="3.05507">
        <ele>963.821986</ele>
        <time>2021-04-30T01:05:29.648Z</time>
      </trkpt>
      <trkpt lat="45.11084" lon="3.05546">
        <ele>963.035446</ele>
        <time>2021-04-30T01:05:34.330Z</time>
      </trkpt>
      <trkpt lat="45.1107" lon="3.05601">
        <ele>961.84825</ele>
        <time>2021-04-30T01:05:41.426Z</time>
      </trkpt>
      <trkpt lat="45.10976" lon="3.05823">
        <ele>958.498874</ele>
        <time>2021-04-30T01:06:13.774Z</time>
      </trkpt>
      <trkpt lat="45.10754" lon="3.06142">
        <ele>956.754607</ele>
        <time>2021-04-30T01:07:18.150Z</time>
      </trkpt>
      <trkpt lat="45.10505" lon="3.06498">
        <ele>959.555134</ele>
        <time>2021-04-30T01:08:45.713Z</time>
      </trkpt>
      <trkpt lat="45.10329" lon="3.06749">
        <ele>966.767826</ele>
        <time>2021-04-30T01:10:14.388Z</time>
      </trkpt>
      <trkpt lat="45.10279" lon="3.06808">
        <ele>968.74165</ele>
        <time>2021-04-30T01:10:38.039Z</time>
      </trkpt>
      <trkpt lat="45.1024" lon="3.0682">
        <ele>969.972467</ele>
        <time>2021-04-30T01:10:51.938Z</time>
      </trkpt>
      <trkpt lat="45.10199" lon="3.06811">
        <ele>971.236723</ele>
        <time>2021-04-30T01:11:05.696Z</time>
      </trkpt>
      <trkpt lat="45.10181" lon="3.06803">
        <ele>971.731172</ele>
        <time>2021-04-30T01:11:11.937Z</time>
      </trkpt>
      <trkpt lat="45.10099" lon="3.06767">
        <ele>973.313601</ele>
        <time>2021-04-30T01:11:37.818Z</time>
      </trkpt>
      <trkpt lat="45.1007" lon="3.06755">
        <ele>973.879608</ele>
        <time>2021-04-30T01:11:46.691Z</time>
      </trkpt>
      <trkpt lat="45.10052" lon="3.06753">
        <ele>974.200608</ele>
        <time>2021-04-30T01:11:51.503Z</time>
      </trkpt>
      <trkpt lat="45.10014" lon="3.06765">
        <ele>974.921412</ele>
        <time>2021-04-30T01:12:02.271Z</time>
      </trkpt>
      <trkpt lat="45.09998" lon="3.06778">
        <ele>975.212391</ele>
        <time>2021-04-30T01:12:07.554Z</time>
      </trkpt>
      <trkpt lat="45.09925" lon="3.06837">
        <ele>976.483569</ele>
        <time>2021-04-30T01:12:30.573Z</time>
      </trkpt>
      <trkpt lat="45.09752" lon="3.07137">
        <ele>981.018758</ele>
        <time>2021-04-30T01:13:50.679Z</time>
      </trkpt>
      <trkpt lat="45.09749" lon="3.07142">
        <ele>981.079883</ele>
        <time>2021-04-30T01:13:52.444Z</time>
      </trkpt>
      <trkpt lat="45.09733" lon="3.07171">
        <ele>981.438223</ele>
        <time>2021-04-30T01:13:59.436Z</time>
      </trkpt>
      <trkpt lat="45.09684" lon="3.07273">
        <ele>982.630005</ele>
        <time>2021-04-30T01:14:23.738Z</time>
      </trkpt>
      <trkpt lat="45.09642" lon="3.07339">
        <ele>983.408676</ele>
        <time>2021-04-30T01:14:40.278Z</time>
      </trkpt>
      <trkpt lat="45.09581" lon="3.07411">
        <ele>984.088933</ele>
        <time>2021-04-30T01:15:01.085Z</time>
      </trkpt>
      <trkpt lat="45.09505" lon="3.07474">
        <ele>984.786031</ele>
        <time>2021-04-30T01:15:23.858Z</time>
      </trkpt>
      <trkpt lat="45.09481" lon="3.07505">
        <ele>984.607136</ele>
        <time>2021-04-30T01:15:31.364Z</time>
      </trkpt>
      <trkpt lat="45.09478" lon="3.07512">
        <ele>984.574322</ele>
        <time>2021-04-30T01:15:33.303Z</time>
      </trkpt>
      <trkpt lat="45.09472" lon="3.07524">
        <ele>984.520162</ele>
        <time>2021-04-30T01:15:35.386Z</time>
      </trkpt>
      <trkpt lat="45.09378" lon="3.07737">
        <ele>982.555036</ele>
        <time>2021-04-30T01:16:09.566Z</time>
      </trkpt>
      <trkpt lat="45.09292" lon="3.07854">
        <ele>979.531532</ele>
        <time>2021-04-30T01:16:29.251Z</time>
      </trkpt>
      <trkpt lat="45.09097" lon="3.08012">
        <ele>971.324761</ele>
        <time>2021-04-30T01:17:04.857Z</time>
      </trkpt>
      <trkpt lat="45.09051" lon="3.08034">
        <ele>969.498578</ele>
        <time>2021-04-30T01:17:12.624Z</time>
      </trkpt>
      <trkpt lat="45.09007" lon="3.0804">
        <ele>967.86383</ele>
        <time>2021-04-30T01:17:19.565Z</time>
      </trkpt>
      <trkpt lat="45.08994" lon="3.08042">
        <ele>967.356261</ele>
        <time>2021-04-30T01:17:21.637Z</time>
      </trkpt>
      <trkpt lat="45.08776" lon="3.08072">
        <ele>959.300589</ele>
        <time>2021-04-30T01:17:56.460Z</time>
      </trkpt>
      <trkpt lat="45.08737" lon="3.08069">
        <ele>957.763277</ele>
        <time>2021-04-30T01:18:02.814Z</time>
      </trkpt>
      <trkpt lat="45.08711" lon="3.08053">
        <ele>956.688896</ele>
        <time>2021-04-30T01:18:07.258Z</time>
      </trkpt>
      <trkpt lat="45.08682" lon="3.08026">
        <ele>955.331041</ele>
        <time>2021-04-30T01:18:12.805Z</time>
      </trkpt>
      <trkpt lat="45.0867" lon="3.08013">
        <ele>954.761818</ele>
        <time>2021-04-30T01:18:15.087Z</time>
      </trkpt>
      <trkpt lat="45.08634" lon="3.07952">
        <ele>952.593791</ele>
        <time>2021-04-30T01:18:23.893Z</time>
      </trkpt>
      <trkpt lat="45.08557" lon="3.07762">
        <ele>946.030847</ele>
        <time>2021-04-30T01:18:47.921Z</time>
      </trkpt>
      <trkpt lat="45.08534" lon="3.07715">
        <ele>944.301542</ele>
        <time>2021-04-30T01:18:54.227Z</time>
      </trkpt>
      <trkpt lat="45.08496" lon="3.07683">
        <ele>942.406534</ele>
        <time>2021-04-30T01:19:01.190Z</time>
      </trkpt>
      <trkpt lat="45.08447" lon="3.07583">
        <ele>938.694078</ele>
        <time>2021-04-30T01:19:14.712Z</time>
      </trkpt>
      <trkpt lat="45.08425" lon="3.07568">
        <ele>937.680513</ele>
        <time>2021-04-30T01:19:18.298Z</time>
      </trkpt>
      <trkpt lat="45.08395" lon="3.07565">
        <ele>936.265638</ele>
        <time>2021-04-30T01:19:22.811Z</time>
      </trkpt>
      <trkpt lat="45.08372" lon="3.07574">
        <ele>934.981314</ele>
        <time>2021-04-30T01:19:26.505Z</time>
      </trkpt>
      <trkpt lat="45.08364" lon="3.0758">
        <ele>934.481189</ele>
        <time>2021-04-30T01:19:27.883Z</time>
      </trkpt>
      <trkpt lat="45.08297" lon="3.07626">
        <ele>930.54008</ele>
        <time>2021-04-30T01:19:39.077Z</time>
      </trkpt>
      <trkpt lat="45.08264" lon="3.07653">
        <ele>928.497771</ele>
        <time>2021-04-30T01:19:44.746Z</time>
      </trkpt>
      <trkpt lat="45.08236" lon="3.07669">
        <ele>926.907891</ele>
        <time>2021-04-30T01:19:49.149Z</time>
      </trkpt>
      <trkpt lat="45.08183" lon="3.07655">
        <ele>924.146285</ele>
        <time>2021-04-30T01:19:56.948Z</time>
      </trkpt>
      <trkpt lat="45.08156" lon="3.07652">
        <ele>922.765047</ele>
        <time>2021-04-30T01:20:00.835Z</time>
      </trkpt>
      <trkpt lat="45.08073" lon="3.0764">
        <ele>918.53438</ele>
        <time>2021-04-30T01:20:13.911Z</time>
      </trkpt>
      <trkpt lat="45.08066" lon="3.07638">
        <ele>918.188205</ele>
        <time>2021-04-30T01:20:14.891Z</time>
      </trkpt>
      <trkpt lat="45.08059" lon="3.07635">
        <ele>918.179699</ele>
        <time>2021-04-30T01:20:16.059Z</time>
      </trkpt>
      <trkpt lat="45.08049" lon="3.07626">
        <ele>918.174034</ele>
        <time>2021-04-30T01:20:18.299Z</time>
      </trkpt>
      <trkpt lat="45.08043" lon="3.07607">
        <ele>918.166995</ele>
        <time>2021-04-30T01:20:20.934Z</time>
      </trkpt>
      <trkpt lat="45.08041" lon="3.07585">
        <ele>918.159559</ele>
        <time>2021-04-30T01:20:23.553Z</time>
      </trkpt>
      <trkpt lat="45.08038" lon="3.07554">
        <ele>918.149029</ele>
        <time>2021-04-30T01:20:28.093Z</time>
      </trkpt>
      <trkpt lat="45.08027" lon="3.07485">
        <ele>918.125424</ele>
        <time>2021-04-30T01:20:39.195Z</time>
      </trkpt>
      <trkpt lat="45.08023" lon="3.07461">
        <ele>918.11681</ele>
        <time>2021-04-30T01:20:45.144Z</time>
      </trkpt>
      <trkpt lat="45.08008" lon="3.07355">
        <ele>918.734892</ele>
        <time>2021-04-30T01:21:10.413Z</time>
      </trkpt>
      <trkpt lat="45.07993" lon="3.07325">
        <ele>919.20244</ele>
        <time>2021-04-30T01:21:18.961Z</time>
      </trkpt>
      <trkpt lat="45.07983" lon="3.07319">
        <ele>919.403043</ele>
        <time>2021-04-30T01:21:22.734Z</time>
      </trkpt>
      <trkpt lat="45.07951" lon="3.07332">
        <ele>920.009244</ele>
        <time>2021-04-30T01:21:33.813Z</time>
      </trkpt>
      <trkpt lat="45.07801" lon="3.07455">
        <ele>921.278476</ele>
        <time>2021-04-30T01:22:16.876Z</time>
      </trkpt>
      <trkpt lat="45.07714" lon="3.07573">
        <ele>920.656192</ele>
        <time>2021-04-30T01:22:40.301Z</time>
      </trkpt>
      <trkpt lat="45.07609" lon="3.07678">
        <ele>918.853538</ele>
        <time>2021-04-30T01:23:03.736Z</time>
      </trkpt>
      <trkpt lat="45.07383" lon="3.07859">
        <ele>914.645091</ele>
        <time>2021-04-30T01:23:50.879Z</time>
      </trkpt>
      <trkpt lat="45.07339" lon="3.07881">
        <ele>913.905363</ele>
        <time>2021-04-30T01:23:59.290Z</time>
      </trkpt>
      <trkpt lat="45.07009" lon="3.08003">
        <ele>908.529861</ele>
        <time>2021-04-30T01:25:01.420Z</time>
      </trkpt>
      <trkpt lat="45.06964" lon="3.08013">
        <ele>907.818356</ele>
        <time>2021-04-30T01:25:10.001Z</time>
      </trkpt>
      <trkpt lat="45.06941" lon="3.08015">
        <ele>907.468436</ele>
        <time>2021-04-30T01:25:14.137Z</time>
      </trkpt>
      <trkpt lat="45.06915" lon="3.0802">
        <ele>906.956437</ele>
        <time>2021-04-30T01:25:18.910Z</time>
      </trkpt>
      <trkpt lat="45.06892" lon="3.0803">
        <ele>906.371232</ele>
        <time>2021-04-30T01:25:23.279Z</time>
      </trkpt>
      <trkpt lat="45.06852" lon="3.08056">
        <ele>905.323219</ele>
        <time>2021-04-30T01:25:30.936Z</time>
      </trkpt>
      <trkpt lat="45.06825" lon="3.08081">
        <ele>904.543431</ele>
        <time>2021-04-30T01:25:36.502Z</time>
      </trkpt>
      <trkpt lat="45.06803" lon="3.08099">
        <ele>903.911946</ele>
        <time>2021-04-30T01:25:40.948Z</time>
      </trkpt>
      <trkpt lat="45.06792" lon="3.08108">
        <ele>903.625826</ele>
        <time>2021-04-30T01:25:42.851Z</time>
      </trkpt>
      <trkpt lat="45.06741" lon="3.08142">
        <ele>901.799851</ele>
        <time>2021-04-30T01:25:52.050Z</time>
      </trkpt>
      <trkpt lat="45.06711" lon="3.08158">
        <ele>900.421449</ele>
        <time>2021-04-30T01:25:57.201Z</time>
      </trkpt>
      <trkpt lat="45.06546" lon="3.08247">
        <ele>893.175006</ele>
        <time>2021-04-30T01:26:24.103Z</time>
      </trkpt>
      <trkpt lat="45.06495" lon="3.08279">
        <ele>890.95831</ele>
        <time>2021-04-30T01:26:32.839Z</time>
      </trkpt>
      <trkpt lat="45.06436" lon="3.08341">
        <ele>888.125356</ele>
        <time>2021-04-30T01:26:44.552Z</time>
      </trkpt>
      <trkpt lat="45.06391" lon="3.08369">
        <ele>887.018384</ele>
        <time>2021-04-30T01:26:52.872Z</time>
      </trkpt>
      <trkpt lat="45.06362" lon="3.084">
        <ele>886.193731</ele>
        <time>2021-04-30T01:26:59.304Z</time>
      </trkpt>
      <trkpt lat="45.06355" lon="3.08405">
        <ele>886.018889</ele>
        <time>2021-04-30T01:27:00.609Z</time>
      </trkpt>
      <trkpt lat="45.06217" lon="3.08457">
        <ele>882.218537</ele>
        <time>2021-04-30T01:27:26.265Z</time>
      </trkpt>
      <trkpt lat="45.06196" lon="3.08455">
        <ele>881.536715</ele>
        <time>2021-04-30T01:27:30.025Z</time>
      </trkpt>
      <trkpt lat="45.06176" lon="3.08443">
        <ele>880.858693</ele>
        <time>2021-04-30T01:27:33.719Z</time>
      </trkpt>
      <trkpt lat="45.06014" lon="3.08242">
        <ele>870.248165</ele>
        <time>2021-04-30T01:28:06.314Z</time>
      </trkpt>
      <trkpt lat="45.05977" lon="3.08211">
        <ele>867.588323</ele>
        <time>2021-04-30T01:28:12.396Z</time>
      </trkpt>
      <trkpt lat="45.05919" lon="3.08191">
        <ele>861.997292</ele>
        <time>2021-04-30T01:28:20.640Z</time>
      </trkpt>
      <trkpt lat="45.05902" lon="3.0819">
        <ele>860.333383</ele>
        <time>2021-04-30T01:28:23.002Z</time>
      </trkpt>
      <trkpt lat="45.05889" lon="3.08189">
        <ele>859.130481</ele>
        <time>2021-04-30T01:28:24.723Z</time>
      </trkpt>
      <trkpt lat="45.05782" lon="3.08179">
        <ele>849.377064</ele>
        <time>2021-04-30T01:28:39.299Z</time>
      </trkpt>
      <trkpt lat="45.0576" lon="3.08176">
        <ele>847.744742</ele>
        <time>2021-04-30T01:28:42.298Z</time>
      </trkpt>
      <trkpt lat="45.05747" lon="3.08174">
        <ele>846.780328</ele>
        <time>2021-04-30T01:28:44.051Z</time>
      </trkpt>
      <trkpt lat="45.05714" lon="3.08177">
        <ele>844.320064</ele>
        <time>2021-04-30T01:28:48.662Z</time>
      </trkpt>
      <trkpt lat="45.05685" lon="3.08191">
        <ele>842.070306</ele>
        <time>2021-04-30T01:28:53.021Z</time>
      </trkpt>
      <trkpt lat="45.05663" lon="3.08208">
        <ele>840.208037</ele>
        <time>2021-04-30T01:28:56.689Z</time>
      </trkpt>
      <trkpt lat="45.05639" lon="3.08238">
        <ele>837.795903</ele>
        <time>2021-04-30T01:29:01.550Z</time>
      </trkpt>
      <trkpt lat="45.05637" lon="3.08241">
        <ele>837.554182</ele>
        <time>2021-04-30T01:29:02.045Z</time>
      </trkpt>
      <trkpt lat="45.05603" lon="3.08279">
        <ele>835.788697</ele>
        <time>2021-04-30T01:29:08.715Z</time>
      </trkpt>
      <trkpt lat="45.05594" lon="3.08288">
        <ele>835.317418</ele>
        <time>2021-04-30T01:29:10.734Z</time>
      </trkpt>
      <trkpt lat="45.05576" lon="3.08301">
        <ele>834.532082</ele>
        <time>2021-04-30T01:29:13.817Z</time>
      </trkpt>
      <trkpt lat="45.05539" lon="3.08313">
        <ele>833.021628</ele>
        <time>2021-04-30T01:29:19.884Z</time>
      </trkpt>
      <trkpt lat="45.0551" lon="3.08309">
        <ele>831.837638</ele>
        <time>2021-04-30T01:29:24.633Z</time>
      </trkpt>
      <trkpt lat="45.05492" lon="3.08301">
        <ele>831.09217</ele>
        <time>2021-04-30T01:29:27.652Z</time>
      </trkpt>
      <trkpt lat="45.05472" lon="3.08285">
        <ele>830.129841</ele>
        <time>2021-04-30T01:29:31.319Z</time>
      </trkpt>
      <trkpt lat="45.05366" lon="3.08127">
        <ele>822.4555</ele>
        <time>2021-04-30T01:29:54.698Z</time>
      </trkpt>
      <trkpt lat="45.05333" lon="3.0809">
        <ele>820.203833</ele>
        <time>2021-04-30T01:30:00.820Z</time>
      </trkpt>
      <trkpt lat="45.05271" lon="3.0804">
        <ele>816.068959</ele>
        <time>2021-04-30T01:30:11.204Z</time>
      </trkpt>
      <trkpt lat="45.05248" lon="3.08036">
        <ele>814.739666</ele>
        <time>2021-04-30T01:30:14.552Z</time>
      </trkpt>
      <trkpt lat="45.05174" lon="3.08045">
        <ele>810.423986</ele>
        <time>2021-04-30T01:30:25.642Z</time>
      </trkpt>
      <trkpt lat="45.05057" lon="3.08008">
        <ele>804.249561</ele>
        <time>2021-04-30T01:30:43.700Z</time>
      </trkpt>
      <trkpt lat="45.05004" lon="3.07984">
        <ele>801.471569</ele>
        <time>2021-04-30T01:30:52.049Z</time>
      </trkpt>
      <trkpt lat="45.04988" lon="3.07983">
        <ele>801.08549</ele>
        <time>2021-04-30T01:30:54.366Z</time>
      </trkpt>
      <trkpt lat="45.04957" lon="3.07993">
        <ele>800.300919</ele>
        <time>2021-04-30T01:30:59.214Z</time>
      </trkpt>
      <trkpt lat="45.0491" lon="3.08041">
        <ele>798.844945</ele>
        <time>2021-04-30T01:31:08.787Z</time>
      </trkpt>
      <trkpt lat="45.04885" lon="3.08084">
        <ele>797.868903</ele>
        <time>2021-04-30T01:31:16.375Z</time>
      </trkpt>
      <trkpt lat="45.04881" lon="3.08091">
        <ele>797.715251</ele>
        <time>2021-04-30T01:31:17.525Z</time>
      </trkpt>
      <trkpt lat="45.04872" lon="3.08109">
        <ele>797.333389</ele>
        <time>2021-04-30T01:31:21.166Z</time>
      </trkpt>
      <trkpt lat="45.0487" lon="3.08116">
        <ele>797.184977</ele>
        <time>2021-04-30T01:31:22.430Z</time>
      </trkpt>
      <trkpt lat="45.04867" lon="3.08123">
        <ele>797.077926</ele>
        <time>2021-04-30T01:31:24.163Z</time>
      </trkpt>
      <trkpt lat="45.04856" lon="3.08174">
        <ele>797.674479</ele>
        <time>2021-04-30T01:31:33.279Z</time>
      </trkpt>
      <trkpt lat="45.04848" lon="3.08195">
        <ele>797.931513</ele>
        <time>2021-04-30T01:31:37.087Z</time>
      </trkpt>
      <trkpt lat="45.0482" lon="3.08242">
        <ele>798.619611</ele>
        <time>2021-04-30T01:31:49.103Z</time>
      </trkpt>
      <trkpt lat="45.04814" lon="3.08255">
        <ele>798.793022</ele>
        <time>2021-04-30T01:31:52.632Z</time>
      </trkpt>
      <trkpt lat="45.04808" lon="3.08272">
        <ele>799.009643</ele>
        <time>2021-04-30T01:31:56.542Z</time>
      </trkpt>
      <trkpt lat="45.04805" lon="3.08292">
        <ele>799.230444</ele>
        <time>2021-04-30T01:32:01.488Z</time>
      </trkpt>
      <trkpt lat="45.0481" lon="3.08327">
        <ele>799.633805</ele>
        <time>2021-04-30T01:32:10.523Z</time>
      </trkpt>
      <trkpt lat="45.04808" lon="3.0837">
        <ele>800.326655</ele>
        <time>2021-04-30T01:32:21.239Z</time>
      </trkpt>
      <trkpt lat="45.04793" lon="3.08397">
        <ele>801.077153</ele>
        <time>2021-04-30T01:32:29.886Z</time>
      </trkpt>
      <trkpt lat="45.04778" lon="3.08415">
        <ele>801.7116</ele>
        <time>2021-04-30T01:32:36.083Z</time>
      </trkpt>
      <trkpt lat="45.04766" lon="3.08429">
        <ele>802.218998</ele>
        <time>2021-04-30T01:32:41.832Z</time>
      </trkpt>
      <trkpt lat="45.04739" lon="3.08456">
        <ele>803.273712</ele>
        <time>2021-04-30T01:32:51.995Z</time>
      </trkpt>
      <trkpt lat="45.04692" lon="3.08488">
        <ele>804.911347</ele>
        <time>2021-04-30T01:33:09.964Z</time>
      </trkpt>
      <trkpt lat="45.04641" lon="3.08502">
        <ele>807.230622</ele>
        <time>2021-04-30T01:33:30.928Z</time>
      </trkpt>
      <trkpt lat="45.04634" lon="3.08503">
        <ele>807.632069</ele>
        <time>2021-04-30T01:33:34.489Z</time>
      </trkpt>
      <trkpt lat="45.04618" lon="3.08506">
        <ele>808.511252</ele>
        <time>2021-04-30T01:33:40.856Z</time>
      </trkpt>
      <trkpt lat="45.04609" lon="3.08505">
        <ele>809.013597</ele>
        <time>2021-04-30T01:33:44.916Z</time>
      </trkpt>
      <trkpt lat="45.04575" lon="3.08503">
        <ele>810.85397</ele>
        <time>2021-04-30T01:34:00.870Z</time>
      </trkpt>
      <trkpt lat="45.04568" lon="3.08501">
        <ele>811.234565</ele>
        <time>2021-04-30T01:34:04.835Z</time>
      </trkpt>
      <trkpt lat="45.04505" lon="3.08461">
        <ele>815.02013</ele>
        <time>2021-04-30T01:34:35.022Z</time>
      </trkpt>
      <trkpt lat="45.04466" lon="3.08435">
        <ele>817.208114</ele>
        <time>2021-04-30T01:34:55.708Z</time>
      </trkpt>
      <trkpt lat="45.04464" lon="3.08439">
        <ele>817.376026</ele>
        <time>2021-04-30T01:34:58.419Z</time>
      </trkpt>
      <trkpt lat="45.04448" lon="3.08472">
        <ele>818.77019</ele>
        <time>2021-04-30T01:35:10.010Z</time>
      </trkpt>
      <trkpt lat="45.04464" lon="3.08439">
        <ele>820.164353</ele>
        <time>2021-04-30T01:35:22.583Z</time>
      </trkpt>
      <trkpt lat="45.04466" lon="3.08435">
        <ele>820.332265</ele>
        <time>2021-04-30T01:35:23.099Z</time>
      </trkpt>
      <trkpt lat="45.04434" lon="3.08416">
        <ele>822.044094</ele>
        <time>2021-04-30T01:35:37.477Z</time>
      </trkpt>
      <trkpt lat="45.04432" lon="3.08415">
        <ele>822.162832</ele>
        <time>2021-04-30T01:35:37.943Z</time>
      </trkpt>
      <trkpt lat="45.04428" lon="3.08413">
        <ele>822.359552</ele>
        <time>2021-04-30T01:35:39.589Z</time>
      </trkpt>
      <trkpt lat="45.04418" lon="3.08406">
        <ele>822.931614</ele>
        <time>2021-04-30T01:35:45.331Z</time>
      </trkpt>
      <trkpt lat="45.04394" lon="3.08391">
        <ele>824.240458</ele>
        <time>2021-04-30T01:35:54.499Z</time>
      </trkpt>
      <trkpt lat="45.04345" lon="3.08362">
        <ele>826.585334</ele>
        <time>2021-04-30T01:36:14.652Z</time>
      </trkpt>
      <trkpt lat="45.04257" lon="3.08243">
        <ele>831.999539</ele>
        <time>2021-04-30T01:37:03.125Z</time>
      </trkpt>
      <trkpt lat="45.04158" lon="3.08134">
        <ele>838.656007</ele>
        <time>2021-04-30T01:37:58.884Z</time>
      </trkpt>
      <trkpt lat="45.04141" lon="3.08121">
        <ele>839.648628</ele>
        <time>2021-04-30T01:38:07.010Z</time>
      </trkpt>
      <trkpt lat="45.04126" lon="3.08118">
        <ele>840.479786</ele>
        <time>2021-04-30T01:38:13.885Z</time>
      </trkpt>
      <trkpt lat="45.0412" lon="3.0812">
        <ele>840.819172</ele>
        <time>2021-04-30T01:38:16.333Z</time>
      </trkpt>
      <trkpt lat="45.04114" lon="3.08124">
        <ele>841.175964</ele>
        <time>2021-04-30T01:38:18.957Z</time>
      </trkpt>
      <trkpt lat="45.0411" lon="3.0813">
        <ele>841.484153</ele>
        <time>2021-04-30T01:38:21.756Z</time>
      </trkpt>
      <trkpt lat="45.04105" lon="3.0814">
        <ele>841.916399</ele>
        <time>2021-04-30T01:38:26.971Z</time>
      </trkpt>
      <trkpt lat="45.04096" lon="3.08178">
        <ele>843.290783</ele>
        <time>2021-04-30T01:38:38.547Z</time>
      </trkpt>
      <trkpt lat="45.04104" lon="3.08211">
        <ele>844.439426</ele>
        <time>2021-04-30T01:38:49.105Z</time>
      </trkpt>
      <trkpt lat="45.04155" lon="3.08295">
        <ele>848.163916</ele>
        <time>2021-04-30T01:39:21.792Z</time>
      </trkpt>
      <trkpt lat="45.04162" lon="3.08307">
        <ele>848.696428</ele>
        <time>2021-04-30T01:39:27.963Z</time>
      </trkpt>
      <trkpt lat="45.04167" lon="3.08334">
        <ele>849.646932</ele>
        <time>2021-04-30T01:39:34.720Z</time>
      </trkpt>
      <trkpt lat="45.04159" lon="3.0836">
        <ele>850.577769</ele>
        <time>2021-04-30T01:39:41.916Z</time>
      </trkpt>
      <trkpt lat="45.0413" lon="3.08412">
        <ele>852.228764</ele>
        <time>2021-04-30T01:39:57.792Z</time>
      </trkpt>
      <trkpt lat="45.04121" lon="3.08443">
        <ele>853.070599</ele>
        <time>2021-04-30T01:40:06.579Z</time>
      </trkpt>
      <trkpt lat="45.04138" lon="3.08516">
        <ele>854.987085</ele>
        <time>2021-04-30T01:40:26.675Z</time>
      </trkpt>
      <trkpt lat="45.04136" lon="3.08551">
        <ele>855.868144</ele>
        <time>2021-04-30T01:40:35.841Z</time>
      </trkpt>
      <trkpt lat="45.04117" lon="3.08586">
        <ele>856.963035</ele>
        <time>2021-04-30T01:40:46.849Z</time>
      </trkpt>
      <trkpt lat="45.04102" lon="3.086">
        <ele>857.556509</ele>
        <time>2021-04-30T01:40:53.061Z</time>
      </trkpt>
      <trkpt lat="45.04065" lon="3.08612">
        <ele>858.789</ele>
        <time>2021-04-30T01:41:06.365Z</time>
      </trkpt>
      <trkpt lat="45.04041" lon="3.0862">
        <ele>859.602093</ele>
        <time>2021-04-30T01:41:15.441Z</time>
      </trkpt>
      <trkpt lat="45.04017" lon="3.08643">
        <ele>860.554044</ele>
        <time>2021-04-30T01:41:25.609Z</time>
      </trkpt>
      <trkpt lat="45.03957" lon="3.08726">
        <ele>863.284888</ele>
        <time>2021-04-30T01:41:55.494Z</time>
      </trkpt>
      <trkpt lat="45.03943" lon="3.08742">
        <ele>863.839098</ele>
        <time>2021-04-30T01:42:01.686Z</time>
      </trkpt>
      <trkpt lat="45.03927" lon="3.08751">
        <ele>864.36848</ele>
        <time>2021-04-30T01:42:07.967Z</time>
      </trkpt>
      <trkpt lat="45.03906" lon="3.08749">
        <ele>864.992791</ele>
        <time>2021-04-30T01:42:14.308Z</time>
      </trkpt>
      <trkpt lat="45.0384" lon="3.08727">
        <ele>867.032645</ele>
        <time>2021-04-30T01:42:36.362Z</time>
      </trkpt>
      <trkpt lat="45.03831" lon="3.08727">
        <ele>867.332523</ele>
        <time>2021-04-30T01:42:40.530Z</time>
      </trkpt>
      <trkpt lat="45.03813" lon="3.08728">
        <ele>867.850447</ele>
        <time>2021-04-30T01:42:46.306Z</time>
      </trkpt>
      <trkpt lat="45.0374" lon="3.08735">
        <ele>870.467256</ele>
        <time>2021-04-30T01:43:12.946Z</time>
      </trkpt>
      <trkpt lat="45.03727" lon="3.08728">
        <ele>870.973134</ele>
        <time>2021-04-30T01:43:18.220Z</time>
      </trkpt>
      <trkpt lat="45.03716" lon="3.08724">
        <ele>871.370916</ele>
        <time>2021-04-30T01:43:23.220Z</time>
      </trkpt>
      <trkpt lat="45.03678" lon="3.08693">
        <ele>872.986874</ele>
        <time>2021-04-30T01:43:39.795Z</time>
      </trkpt>
      <trkpt lat="45.03638" lon="3.08691">
        <ele>874.440919</ele>
        <time>2021-04-30T01:43:53.632Z</time>
      </trkpt>
      <trkpt lat="45.03614" lon="3.08698">
        <ele>875.259992</ele>
        <time>2021-04-30T01:44:03.017Z</time>
      </trkpt>
      <trkpt lat="45.03577" lon="3.08718">
        <ele>876.428011</ele>
        <time>2021-04-30T01:44:17.044Z</time>
      </trkpt>
      <trkpt lat="45.03567" lon="3.08726">
        <ele>876.76165</ele>
        <time>2021-04-30T01:44:20.772Z</time>
      </trkpt>
      <trkpt lat="45.03502" lon="3.08775">
        <ele>878.962286</ele>
        <time>2021-04-30T01:44:46.320Z</time>
      </trkpt>
      <trkpt lat="45.03491" lon="3.088">
        <ele>879.581932</ele>
        <time>2021-04-30T01:44:53.956Z</time>
      </trkpt>
      <trkpt lat="45.03475" lon="3.08868">
        <ele>880.80899</ele>
        <time>2021-04-30T01:45:08.856Z</time>
      </trkpt>
      <trkpt lat="45.03473" lon="3.08878">
        <ele>880.963454</ele>
        <time>2021-04-30T01:45:11.425Z</time>
      </trkpt>
      <trkpt lat="45.03471" lon="3.08877">
        <ele>880.999088</ele>
        <time>2021-04-30T01:45:12.034Z</time>
      </trkpt>
      <trkpt lat="45.03466" lon="3.08877">
        <ele>881.102608</ele>
        <time>2021-04-30T01:45:13.367Z</time>
      </trkpt>
      <trkpt lat="45.03465" lon="3.08878">
        <ele>881.136924</ele>
        <time>2021-04-30T01:45:13.974Z</time>
      </trkpt>
      <trkpt lat="45.03462" lon="3.0888">
        <ele>881.190999</ele>
        <time>2021-04-30T01:45:14.755Z</time>
      </trkpt>
      <trkpt lat="45.03461" lon="3.08883">
        <ele>881.244746</ele>
        <time>2021-04-30T01:45:15.421Z</time>
      </trkpt>
      <trkpt lat="45.0346" lon="3.08887">
        <ele>881.298545</ele>
        <time>2021-04-30T01:45:16.189Z</time>
      </trkpt>
      <trkpt lat="45.0346" lon="3.0889">
        <ele>881.349776</ele>
        <time>2021-04-30T01:45:16.830Z</time>
      </trkpt>
      <trkpt lat="45.03461" lon="3.08894">
        <ele>881.401569</ele>
        <time>2021-04-30T01:45:17.471Z</time>
      </trkpt>
      <trkpt lat="45.03462" lon="3.08897">
        <ele>881.452934</ele>
        <time>2021-04-30T01:45:18.024Z</time>
      </trkpt>
      <trkpt lat="45.03464" lon="3.08899">
        <ele>881.50536</ele>
        <time>2021-04-30T01:45:18.709Z</time>
      </trkpt>
      <trkpt lat="45.03467" lon="3.089">
        <ele>881.558039</ele>
        <time>2021-04-30T01:45:19.314Z</time>
      </trkpt>
      <trkpt lat="45.03462" lon="3.08923">
        <ele>881.902006</ele>
        <time>2021-04-30T01:45:24.757Z</time>
      </trkpt>
      <trkpt lat="45.03447" lon="3.08999">
        <ele>883.058316</ele>
        <time>2021-04-30T01:45:41.190Z</time>
      </trkpt>
      <trkpt lat="45.0344" lon="3.09038">
        <ele>883.65532</ele>
        <time>2021-04-30T01:45:50.532Z</time>
      </trkpt>
      <trkpt lat="45.0342" lon="3.09138">
        <ele>884.159651</ele>
        <time>2021-04-30T01:46:13.352Z</time>
      </trkpt>
      <trkpt lat="45.03402" lon="3.09231">
        <ele>884.43245</ele>
        <time>2021-04-30T01:46:32.262Z</time>
      </trkpt>
      <trkpt lat="45.03395" lon="3.09255">
        <ele>884.505409</ele>
        <time>2021-04-30T01:46:37.607Z</time>
      </trkpt>
      <trkpt lat="45.03387" lon="3.09303">
        <ele>884.459447</ele>
        <time>2021-04-30T01:46:44.095Z</time>
      </trkpt>
      <trkpt lat="45.03388" lon="3.09321">
        <ele>883.064352</ele>
        <time>2021-04-30T01:46:46.236Z</time>
      </trkpt>
      <trkpt lat="45.03383" lon="3.09377">
        <ele>878.917977</ele>
        <time>2021-04-30T01:46:52.554Z</time>
      </trkpt>
      <trkpt lat="45.03372" lon="3.09455">
        <ele>872.986376</ele>
        <time>2021-04-30T01:47:00.527Z</time>
      </trkpt>
      <trkpt lat="45.03371" lon="3.09461">
        <ele>872.520591</ele>
        <time>2021-04-30T01:47:01.116Z</time>
      </trkpt>
      <trkpt lat="45.03371" lon="3.09461">
        <ele>872.520591</ele>
        <time>2021-04-30T01:47:01.133Z</time>
      </trkpt>
      <trkpt lat="45.03367" lon="3.09464">
        <ele>871.983484</ele>
        <time>2021-04-30T01:47:01.776Z</time>
      </trkpt>
      <trkpt lat="45.03354" lon="3.09465">
        <ele>870.620808</ele>
        <time>2021-04-30T01:47:03.443Z</time>
      </trkpt>
      <trkpt lat="45.03355" lon="3.09476">
        <ele>869.762921</ele>
        <time>2021-04-30T01:47:04.581Z</time>
      </trkpt>
      <trkpt lat="45.03356" lon="3.09489">
        <ele>868.815135</ele>
        <time>2021-04-30T01:47:05.779Z</time>
      </trkpt>
      <trkpt lat="45.03358" lon="3.09505">
        <ele>867.618198</ele>
        <time>2021-04-30T01:47:07.218Z</time>
      </trkpt>
      <trkpt lat="45.03359" lon="3.09521">
        <ele>866.444894</ele>
        <time>2021-04-30T01:47:08.685Z</time>
      </trkpt>
      <trkpt lat="45.03363" lon="3.09524">
        <ele>866.006026</ele>
        <time>2021-04-30T01:47:09.231Z</time>
      </trkpt>
      <trkpt lat="45.03361" lon="3.0954">
        <ele>864.354128</ele>
        <time>2021-04-30T01:47:10.731Z</time>
      </trkpt>
      <trkpt lat="45.0336" lon="3.09559">
        <ele>862.114579</ele>
        <time>2021-04-30T01:47:12.534Z</time>
      </trkpt>
      <trkpt lat="45.03358" lon="3.09577">
        <ele>859.896293</ele>
        <time>2021-04-30T01:47:14.390Z</time>
      </trkpt>
      <trkpt lat="45.0334" lon="3.09619">
        <ele>854.154067</ele>
        <time>2021-04-30T01:47:19.049Z</time>
      </trkpt>
      <trkpt lat="45.03334" lon="3.09615">
        <ele>853.165875</ele>
        <time>2021-04-30T01:47:19.882Z</time>
      </trkpt>
      <trkpt lat="45.03323" lon="3.09607">
        <ele>851.000527</ele>
        <time>2021-04-30T01:47:21.608Z</time>
      </trkpt>
      <trkpt lat="45.0332" lon="3.09605">
        <ele>850.404109</ele>
        <time>2021-04-30T01:47:22.095Z</time>
      </trkpt>
      <trkpt lat="45.03314" lon="3.096">
        <ele>849.379735</ele>
        <time>2021-04-30T01:47:22.928Z</time>
      </trkpt>
      <trkpt lat="45.03293" lon="3.09563">
        <ele>843.724234</ele>
        <time>2021-04-30T01:47:27.517Z</time>
      </trkpt>
      <trkpt lat="45.03255" lon="3.09511">
        <ele>835.078813</ele>
        <time>2021-04-30T01:47:34.625Z</time>
      </trkpt>
      <trkpt lat="45.03211" lon="3.09451">
        <ele>826.544998</ele>
        <time>2021-04-30T01:47:42.967Z</time>
      </trkpt>
      <trkpt lat="45.03189" lon="3.09422">
        <ele>822.379395</ele>
        <time>2021-04-30T01:47:47.158Z</time>
      </trkpt>
      <trkpt lat="45.03181" lon="3.09395">
        <ele>819.500257</ele>
        <time>2021-04-30T01:47:50.060Z</time>
      </trkpt>
      <trkpt lat="45.03177" lon="3.09392">
        <ele>818.91937</ele>
        <time>2021-04-30T01:47:50.620Z</time>
      </trkpt>
      <trkpt lat="45.03171" lon="3.09424">
        <ele>815.610778</ele>
        <time>2021-04-30T01:47:53.783Z</time>
      </trkpt>
      <trkpt lat="45.0317" lon="3.0943">
        <ele>815.077548</ele>
        <time>2021-04-30T01:47:54.336Z</time>
      </trkpt>
      <trkpt lat="45.0317" lon="3.09441">
        <ele>813.981544</ele>
        <time>2021-04-30T01:47:55.377Z</time>
      </trkpt>
      <trkpt lat="45.03178" lon="3.09499">
        <ele>808.632959</ele>
        <time>2021-04-30T01:48:01.175Z</time>
      </trkpt>
      <trkpt lat="45.03179" lon="3.09546">
        <ele>804.944111</ele>
        <time>2021-04-30T01:48:05.782Z</time>
      </trkpt>
      <trkpt lat="45.03179" lon="3.0957">
        <ele>803.096133</ele>
        <time>2021-04-30T01:48:08.096Z</time>
      </trkpt>
      <trkpt lat="45.03183" lon="3.09601">
        <ele>800.602809</ele>
        <time>2021-04-30T01:48:11.176Z</time>
      </trkpt>
      <trkpt lat="45.03199" lon="3.09659">
        <ele>795.701575</ele>
        <time>2021-04-30T01:48:17.458Z</time>
      </trkpt>
      <trkpt lat="45.03233" lon="3.09745">
        <ele>789.31567</ele>
        <time>2021-04-30T01:48:27.678Z</time>
      </trkpt>
      <trkpt lat="45.03236" lon="3.09756">
        <ele>788.834471</ele>
        <time>2021-04-30T01:48:28.927Z</time>
      </trkpt>
      <trkpt lat="45.03237" lon="3.09762">
        <ele>788.593038</ele>
        <time>2021-04-30T01:48:29.548Z</time>
      </trkpt>
      <trkpt lat="45.0325" lon="3.0982">
        <ele>786.198208</ele>
        <time>2021-04-30T01:48:36.169Z</time>
      </trkpt>
      <trkpt lat="45.03269" lon="3.09851">
        <ele>784.580711</ele>
        <time>2021-04-30T01:48:40.810Z</time>
      </trkpt>
      <trkpt lat="45.0327" lon="3.09854">
        <ele>784.428135</ele>
        <time>2021-04-30T01:48:41.210Z</time>
      </trkpt>
      <trkpt lat="45.03275" lon="3.09862">
        <ele>784.035615</ele>
        <time>2021-04-30T01:48:42.386Z</time>
      </trkpt>
      <trkpt lat="45.03284" lon="3.09876">
        <ele>783.249137</ele>
        <time>2021-04-30T01:48:44.726Z</time>
      </trkpt>
      <trkpt lat="45.03291" lon="3.09869">
        <ele>782.786204</ele>
        <time>2021-04-30T01:48:45.953Z</time>
      </trkpt>
      <trkpt lat="45.033" lon="3.09862">
        <ele>782.213478</ele>
        <time>2021-04-30T01:48:47.469Z</time>
      </trkpt>
      <trkpt lat="45.03301" lon="3.09861">
        <ele>782.12038</ele>
        <time>2021-04-30T01:48:47.765Z</time>
      </trkpt>
      <trkpt lat="45.033" lon="3.09862">
        <ele>782.027283</ele>
        <time>2021-04-30T01:48:48.001Z</time>
      </trkpt>
      <trkpt lat="45.03291" lon="3.09869">
        <ele>781.454557</ele>
        <time>2021-04-30T01:48:49.683Z</time>
      </trkpt>
      <trkpt lat="45.03284" lon="3.09876">
        <ele>780.991623</ele>
        <time>2021-04-30T01:48:50.944Z</time>
      </trkpt>
      <trkpt lat="45.03282" lon="3.09887">
        <ele>780.564645</ele>
        <time>2021-04-30T01:48:52.186Z</time>
      </trkpt>
      <trkpt lat="45.03283" lon="3.09897">
        <ele>780.375014</ele>
        <time>2021-04-30T01:48:53.248Z</time>
      </trkpt>
      <trkpt lat="45.033" lon="3.09919">
        <ele>779.75693</ele>
        <time>2021-04-30T01:48:57.269Z</time>
      </trkpt>
      <trkpt lat="45.03319" lon="3.09952">
        <ele>778.94625</ele>
        <time>2021-04-30T01:49:02.407Z</time>
      </trkpt>
      <trkpt lat="45.03336" lon="3.09979">
        <ele>778.245956</ele>
        <time>2021-04-30T01:49:06.899Z</time>
      </trkpt>
      <trkpt lat="45.03352" lon="3.10006">
        <ele>777.561473</ele>
        <time>2021-04-30T01:49:11.493Z</time>
      </trkpt>
      <trkpt lat="45.03349" lon="3.10017">
        <ele>777.328429</ele>
        <time>2021-04-30T01:49:12.967Z</time>
      </trkpt>
      <trkpt lat="45.03344" lon="3.10054">
        <ele>776.601265</ele>
        <time>2021-04-30T01:49:17.627Z</time>
      </trkpt>
      <trkpt lat="45.03344" lon="3.10059">
        <ele>776.497411</ele>
        <time>2021-04-30T01:49:18.258Z</time>
      </trkpt>
      <trkpt lat="45.03342" lon="3.1006">
        <ele>776.449244</ele>
        <time>2021-04-30T01:49:18.564Z</time>
      </trkpt>
      <trkpt lat="45.03339" lon="3.10065">
        <ele>776.315989</ele>
        <time>2021-04-30T01:49:19.422Z</time>
      </trkpt>
      <trkpt lat="45.03338" lon="3.10068">
        <ele>776.257073</ele>
        <time>2021-04-30T01:49:19.823Z</time>
      </trkpt>
      <trkpt lat="45.03338" lon="3.10071">
        <ele>776.197411</ele>
        <time>2021-04-30T01:49:20.212Z</time>
      </trkpt>
      <trkpt lat="45.03343" lon="3.1008">
        <ele>775.969325</ele>
        <time>2021-04-30T01:49:21.701Z</time>
      </trkpt>
      <trkpt lat="45.03346" lon="3.1008">
        <ele>775.909351</ele>
        <time>2021-04-30T01:49:22.074Z</time>
      </trkpt>
      <trkpt lat="45.03346" lon="3.10085">
        <ele>775.798924</ele>
        <time>2021-04-30T01:49:22.769Z</time>
      </trkpt>
      <trkpt lat="45.03347" lon="3.10091">
        <ele>775.697014</ele>
        <time>2021-04-30T01:49:23.487Z</time>
      </trkpt>
      <trkpt lat="45.03348" lon="3.1012">
        <ele>775.434552</ele>
        <time>2021-04-30T01:49:27.194Z</time>
      </trkpt>
      <trkpt lat="45.03349" lon="3.1013">
        <ele>775.345879</ele>
        <time>2021-04-30T01:49:28.465Z</time>
      </trkpt>
      <trkpt lat="45.0335" lon="3.10142">
        <ele>775.237536</ele>
        <time>2021-04-30T01:49:29.997Z</time>
      </trkpt>
      <trkpt lat="45.03351" lon="3.10155">
        <ele>775.128195</ele>
        <time>2021-04-30T01:49:31.501Z</time>
      </trkpt>
      <trkpt lat="45.03351" lon="3.10166">
        <ele>775.02252</ele>
        <time>2021-04-30T01:49:33.085Z</time>
      </trkpt>
      <trkpt lat="45.03352" lon="3.10176">
        <ele>774.938292</ele>
        <time>2021-04-30T01:49:34.361Z</time>
      </trkpt>
      <trkpt lat="45.03353" lon="3.1019">
        <ele>774.814616</ele>
        <time>2021-04-30T01:49:36.139Z</time>
      </trkpt>
      <trkpt lat="45.03373" lon="3.10589">
        <ele>772.089839</ele>
        <time>2021-04-30T01:50:31.567Z</time>
      </trkpt>
      <trkpt lat="45.03374" lon="3.106">
        <ele>772.04552</ele>
        <time>2021-04-30T01:50:33.093Z</time>
      </trkpt>
      <trkpt lat="45.03376" lon="3.10634">
        <ele>772.116693</ele>
        <time>2021-04-30T01:50:37.956Z</time>
      </trkpt>
      <trkpt lat="45.0339" lon="3.10921">
        <ele>773.234138</ele>
        <time>2021-04-30T01:51:28.143Z</time>
      </trkpt>
      <trkpt lat="45.03391" lon="3.10932">
        <ele>773.336093</ele>
        <time>2021-04-30T01:51:30.024Z</time>
      </trkpt>
      <trkpt lat="45.03392" lon="3.1096">
        <ele>773.599129</ele>
        <time>2021-04-30T01:51:35.551Z</time>
      </trkpt>
      <trkpt lat="45.03393" lon="3.10978">
        <ele>773.76439</ele>
        <time>2021-04-30T01:51:40.100Z</time>
      </trkpt>
      <trkpt lat="45.03392" lon="3.11003">
        <ele>774.001535</ele>
        <time>2021-04-30T01:51:44.657Z</time>
      </trkpt>
      <trkpt lat="45.03392" lon="3.11012">
        <ele>774.08301</ele>
        <time>2021-04-30T01:51:46.319Z</time>
      </trkpt>
      <trkpt lat="45.03391" lon="3.11018">
        <ele>774.139263</ele>
        <time>2021-04-30T01:51:48.613Z</time>
      </trkpt>
      <trkpt lat="45.03381" lon="3.11065">
        <ele>774.593462</ele>
        <time>2021-04-30T01:51:58.243Z</time>
      </trkpt>
      <trkpt lat="45.03374" lon="3.11079">
        <ele>774.762815</ele>
        <time>2021-04-30T01:52:01.914Z</time>
      </trkpt>
      <trkpt lat="45.03355" lon="3.11094">
        <ele>774.967256</ele>
        <time>2021-04-30T01:52:07.487Z</time>
      </trkpt>
      <trkpt lat="45.03311" lon="3.11115">
        <ele>775.030608</ele>
        <time>2021-04-30T01:52:21.060Z</time>
      </trkpt>
      <trkpt lat="45.03301" lon="3.11122">
        <ele>775.045951</ele>
        <time>2021-04-30T01:52:23.866Z</time>
      </trkpt>
      <trkpt lat="45.03293" lon="3.11129">
        <ele>775.059271</ele>
        <time>2021-04-30T01:52:25.983Z</time>
      </trkpt>
      <trkpt lat="45.03274" lon="3.11148">
        <ele>775.091232</ele>
        <time>2021-04-30T01:52:31.925Z</time>
      </trkpt>
      <trkpt lat="45.03254" lon="3.11179">
        <ele>775.131492</ele>
        <time>2021-04-30T01:52:37.568Z</time>
      </trkpt>
      <trkpt lat="45.03212" lon="3.11265">
        <ele>775.398568</ele>
        <time>2021-04-30T01:52:51.175Z</time>
      </trkpt>
      <trkpt lat="45.03125" lon="3.11384">
        <ele>776.544016</ele>
        <time>2021-04-30T01:53:18.711Z</time>
      </trkpt>
      <trkpt lat="45.03112" lon="3.11421">
        <ele>776.819876</ele>
        <time>2021-04-30T01:53:30.551Z</time>
      </trkpt>
      <trkpt lat="45.0311" lon="3.1143">
        <ele>776.883387</ele>
        <time>2021-04-30T01:53:32.016Z</time>
      </trkpt>
      <trkpt lat="45.03109" lon="3.1144">
        <ele>777.130155</ele>
        <time>2021-04-30T01:53:35.814Z</time>
      </trkpt>
      <trkpt lat="45.0311" lon="3.11466">
        <ele>777.9863</ele>
        <time>2021-04-30T01:53:43.413Z</time>
      </trkpt>
      <trkpt lat="45.03113" lon="3.11481">
        <ele>778.485538</ele>
        <time>2021-04-30T01:53:46.518Z</time>
      </trkpt>
      <trkpt lat="45.03119" lon="3.11499">
        <ele>779.154627</ele>
        <time>2021-04-30T01:53:54.150Z</time>
      </trkpt>
      <trkpt lat="45.03133" lon="3.11533">
        <ele>780.444282</ele>
        <time>2021-04-30T01:54:04.835Z</time>
      </trkpt>
      <trkpt lat="45.03143" lon="3.11555">
        <ele>781.282458</ele>
        <time>2021-04-30T01:54:13.232Z</time>
      </trkpt>
      <trkpt lat="45.03154" lon="3.1158">
        <ele>782.263739</ele>
        <time>2021-04-30T01:54:22.641Z</time>
      </trkpt>
      <trkpt lat="45.03238" lon="3.11804">
        <ele>789.61096</ele>
        <time>2021-04-30T01:55:35.960Z</time>
      </trkpt>
      <trkpt lat="45.03281" lon="3.12047">
        <ele>795.586552</ele>
        <time>2021-04-30T01:56:31.687Z</time>
      </trkpt>
      <trkpt lat="45.03285" lon="3.12063">
        <ele>795.973939</ele>
        <time>2021-04-30T01:56:35.725Z</time>
      </trkpt>
      <trkpt lat="45.03307" lon="3.12146">
        <ele>797.983443</ele>
        <time>2021-04-30T01:57:02.425Z</time>
      </trkpt>
      <trkpt lat="45.03337" lon="3.12267">
        <ele>801.498717</ele>
        <time>2021-04-30T01:57:37.179Z</time>
      </trkpt>
      <trkpt lat="45.03341" lon="3.12291">
        <ele>802.166278</ele>
        <time>2021-04-30T01:57:45.340Z</time>
      </trkpt>
      <trkpt lat="45.03346" lon="3.12321">
        <ele>803.023488</ele>
        <time>2021-04-30T01:57:52.398Z</time>
      </trkpt>
      <trkpt lat="45.03354" lon="3.12407">
        <ele>805.226595</ele>
        <time>2021-04-30T01:58:13.761Z</time>
      </trkpt>
      <trkpt lat="45.03359" lon="3.1254">
        <ele>807.959112</ele>
        <time>2021-04-30T01:58:44.371Z</time>
      </trkpt>
      <trkpt lat="45.03359" lon="3.1258">
        <ele>808.777715</ele>
        <time>2021-04-30T01:58:52.453Z</time>
      </trkpt>
      <trkpt lat="45.03358" lon="3.12605">
        <ele>809.293073</ele>
        <time>2021-04-30T01:58:58.652Z</time>
      </trkpt>
      <trkpt lat="45.03348" lon="3.12702">
        <ele>811.796051</ele>
        <time>2021-04-30T01:59:25.137Z</time>
      </trkpt>
      <trkpt lat="45.03324" lon="3.12809">
        <ele>814.963456</ele>
        <time>2021-04-30T01:59:58.048Z</time>
      </trkpt>
      <trkpt lat="45.03319" lon="3.12827">
        <ele>815.507981</ele>
        <time>2021-04-30T02:00:03.844Z</time>
      </trkpt>
      <trkpt lat="45.03314" lon="3.12841">
        <ele>815.940731</ele>
        <time>2021-04-30T02:00:08.056Z</time>
      </trkpt>
      <trkpt lat="45.03298" lon="3.1288">
        <ele>817.134174</ele>
        <time>2021-04-30T02:00:19.067Z</time>
      </trkpt>
      <trkpt lat="45.03285" lon="3.12909">
        <ele>817.586164</ele>
        <time>2021-04-30T02:00:26.848Z</time>
      </trkpt>
      <trkpt lat="45.03281" lon="3.12915">
        <ele>817.70504</ele>
        <time>2021-04-30T02:00:29.312Z</time>
      </trkpt>
      <trkpt lat="45.03269" lon="3.12932">
        <ele>818.011886</ele>
        <time>2021-04-30T02:00:34.403Z</time>
      </trkpt>
      <trkpt lat="45.03265" lon="3.12935">
        <ele>818.108857</ele>
        <time>2021-04-30T02:00:35.762Z</time>
      </trkpt>
      <trkpt lat="45.03263" lon="3.12935">
        <ele>818.135239</ele>
        <time>2021-04-30T02:00:36.290Z</time>
      </trkpt>
      <trkpt lat="45.03251" lon="3.12942">
        <ele>818.375865</ele>
        <time>2021-04-30T02:00:41.059Z</time>
      </trkpt>
      <trkpt lat="45.03248" lon="3.12949">
        <ele>818.481777</ele>
        <time>2021-04-30T02:00:43.014Z</time>
      </trkpt>
      <trkpt lat="45.03248" lon="3.12956">
        <ele>818.576446</ele>
        <time>2021-04-30T02:00:44.634Z</time>
      </trkpt>
      <trkpt lat="45.03248" lon="3.12962">
        <ele>818.65912</ele>
        <time>2021-04-30T02:00:45.669Z</time>
      </trkpt>
      <trkpt lat="45.03248" lon="3.12974">
        <ele>818.806036</ele>
        <time>2021-04-30T02:00:47.721Z</time>
      </trkpt>
      <trkpt lat="45.03236" lon="3.13003">
        <ele>819.244662</ele>
        <time>2021-04-30T02:00:55.745Z</time>
      </trkpt>
      <trkpt lat="45.03229" lon="3.13022">
        <ele>819.53879</ele>
        <time>2021-04-30T02:00:59.352Z</time>
      </trkpt>
      <trkpt lat="45.03209" lon="3.13063">
        <ele>820.189385</ele>
        <time>2021-04-30T02:01:07.982Z</time>
      </trkpt>
      <trkpt lat="45.03178" lon="3.13135">
        <ele>820.660546</ele>
        <time>2021-04-30T02:01:21.737Z</time>
      </trkpt>
      <trkpt lat="45.0316" lon="3.1319">
        <ele>820.868405</ele>
        <time>2021-04-30T02:01:31.373Z</time>
      </trkpt>
      <trkpt lat="45.03147" lon="3.1325">
        <ele>821.087806</ele>
        <time>2021-04-30T02:01:42.471Z</time>
      </trkpt>
      <trkpt lat="45.03136" lon="3.13327">
        <ele>821.364475</ele>
        <time>2021-04-30T02:01:56.536Z</time>
      </trkpt>
      <trkpt lat="45.0313" lon="3.13384">
        <ele>821.584316</ele>
        <time>2021-04-30T02:02:06.773Z</time>
      </trkpt>
      <trkpt lat="45.03127" lon="3.13401">
        <ele>821.647164</ele>
        <time>2021-04-30T02:02:09.488Z</time>
      </trkpt>
      <trkpt lat="45.03121" lon="3.13429">
        <ele>821.758999</ele>
        <time>2021-04-30T02:02:14.690Z</time>
      </trkpt>
      <trkpt lat="45.03119" lon="3.13435">
        <ele>821.783606</ele>
        <time>2021-04-30T02:02:15.667Z</time>
      </trkpt>
      <trkpt lat="45.03117" lon="3.13436">
        <ele>821.796984</ele>
        <time>2021-04-30T02:02:16.210Z</time>
      </trkpt>
      <trkpt lat="45.03113" lon="3.1344">
        <ele>821.820102</ele>
        <time>2021-04-30T02:02:17.234Z</time>
      </trkpt>
      <trkpt lat="45.0311" lon="3.13445">
        <ele>821.845088</ele>
        <time>2021-04-30T02:02:18.239Z</time>
      </trkpt>
      <trkpt lat="45.03109" lon="3.13453">
        <ele>821.876993</ele>
        <time>2021-04-30T02:02:19.778Z</time>
      </trkpt>
      <trkpt lat="45.03109" lon="3.13461">
        <ele>821.906566</ele>
        <time>2021-04-30T02:02:21.158Z</time>
      </trkpt>
      <trkpt lat="45.03104" lon="3.13463">
        <ele>821.934945</ele>
        <time>2021-04-30T02:02:22.671Z</time>
      </trkpt>
      <trkpt lat="45.031" lon="3.13465">
        <ele>821.959006</ele>
        <time>2021-04-30T02:02:23.969Z</time>
      </trkpt>
      <trkpt lat="45.03099" lon="3.13466">
        <ele>821.961908</ele>
        <time>2021-04-30T02:02:24.064Z</time>
      </trkpt>
      <trkpt lat="45.03093" lon="3.13478">
        <ele>822.020496</ele>
        <time>2021-04-30T02:02:26.588Z</time>
      </trkpt>
      <trkpt lat="45.03098" lon="3.13519">
        <ele>822.176587</ele>
        <time>2021-04-30T02:02:34.023Z</time>
      </trkpt>
      <trkpt lat="45.03096" lon="3.13557">
        <ele>822.309004</ele>
        <time>2021-04-30T02:02:40.259Z</time>
      </trkpt>
      <trkpt lat="45.03094" lon="3.13567">
        <ele>822.337343</ele>
        <time>2021-04-30T02:02:42.024Z</time>
      </trkpt>
      <trkpt lat="45.03093" lon="3.13571">
        <ele>822.348476</ele>
        <time>2021-04-30T02:02:42.582Z</time>
      </trkpt>
      <trkpt lat="45.03078" lon="3.13611">
        <ele>822.473065</ele>
        <time>2021-04-30T02:02:50.074Z</time>
      </trkpt>
      <trkpt lat="45.03071" lon="3.13625">
        <ele>822.521209</ele>
        <time>2021-04-30T02:02:52.683Z</time>
      </trkpt>
      <trkpt lat="45.03063" lon="3.13638">
        <ele>822.567546</ele>
        <time>2021-04-30T02:02:55.491Z</time>
      </trkpt>
      <trkpt lat="45.03061" lon="3.13647">
        <ele>822.593151</ele>
        <time>2021-04-30T02:02:57.432Z</time>
      </trkpt>
      <trkpt lat="45.03059" lon="3.13654">
        <ele>822.613322</ele>
        <time>2021-04-30T02:02:58.856Z</time>
      </trkpt>
      <trkpt lat="45.03053" lon="3.13686">
        <ele>822.70487</ele>
        <time>2021-04-30T02:03:04.272Z</time>
      </trkpt>
      <trkpt lat="45.03053" lon="3.13688">
        <ele>822.709783</ele>
        <time>2021-04-30T02:03:04.833Z</time>
      </trkpt>
      <trkpt lat="45.03054" lon="3.1369">
        <ele>822.717033</ele>
        <time>2021-04-30T02:03:05.247Z</time>
      </trkpt>
      <trkpt lat="45.03057" lon="3.13694">
        <ele>822.731896</ele>
        <time>2021-04-30T02:03:06.275Z</time>
      </trkpt>
      <trkpt lat="45.03062" lon="3.13697">
        <ele>822.751312</ele>
        <time>2021-04-30T02:03:07.630Z</time>
      </trkpt>
      <trkpt lat="45.03086" lon="3.1371">
        <ele>822.851303</ele>
        <time>2021-04-30T02:03:13.883Z</time>
      </trkpt>
      <trkpt lat="45.03079" lon="3.1379">
        <ele>823.071645</ele>
        <time>2021-04-30T02:03:28.497Z</time>
      </trkpt>
      <trkpt lat="45.03063" lon="3.13814">
        <ele>823.159406</ele>
        <time>2021-04-30T02:03:34.658Z</time>
      </trkpt>
      <trkpt lat="45.0307" lon="3.13914">
        <ele>823.429616</ele>
        <time>2021-04-30T02:03:50.977Z</time>
      </trkpt>
      <trkpt lat="45.03072" lon="3.13919">
        <ele>823.443864</ele>
        <time>2021-04-30T02:03:51.928Z</time>
      </trkpt>
      <trkpt lat="45.03078" lon="3.13925">
        <ele>823.47085</ele>
        <time>2021-04-30T02:03:53.679Z</time>
      </trkpt>
      <trkpt lat="45.03077" lon="3.13933">
        <ele>823.492798</ele>
        <time>2021-04-30T02:03:55.324Z</time>
      </trkpt>
      <trkpt lat="45.03071" lon="3.13994">
        <ele>823.656425</ele>
        <time>2021-04-30T02:04:06.678Z</time>
      </trkpt>
      <trkpt lat="45.03068" lon="3.14021">
        <ele>823.461529</ele>
        <time>2021-04-30T02:04:11.213Z</time>
      </trkpt>
      <trkpt lat="45.03063" lon="3.1407">
        <ele>823.105243</ele>
        <time>2021-04-30T02:04:19.097Z</time>
      </trkpt>
      <trkpt lat="45.03058" lon="3.14091">
        <ele>822.952414</ele>
        <time>2021-04-30T02:04:22.414Z</time>
      </trkpt>
      <trkpt lat="45.03053" lon="3.14102">
        <ele>822.854602</ele>
        <time>2021-04-30T02:04:24.349Z</time>
      </trkpt>
      <trkpt lat="45.03046" lon="3.14111">
        <ele>822.76068</ele>
        <time>2021-04-30T02:04:26.069Z</time>
      </trkpt>
      <trkpt lat="45.0304" lon="3.14113">
        <ele>822.70097</ele>
        <time>2021-04-30T02:04:27.612Z</time>
      </trkpt>
      <trkpt lat="45.03021" lon="3.14113">
        <ele>822.513454</ele>
        <time>2021-04-30T02:04:31.100Z</time>
      </trkpt>
      <trkpt lat="45.03011" lon="3.14116">
        <ele>822.412376</ele>
        <time>2021-04-30T02:04:32.787Z</time>
      </trkpt>
      <trkpt lat="45.03004" lon="3.14122">
        <ele>822.327627</ele>
        <time>2021-04-30T02:04:34.797Z</time>
      </trkpt>
      <trkpt lat="45.02996" lon="3.14129">
        <ele>822.235365</ele>
        <time>2021-04-30T02:04:36.370Z</time>
      </trkpt>
      <trkpt lat="45.02978" lon="3.14162">
        <ele>821.93258</ele>
        <time>2021-04-30T02:04:41.628Z</time>
      </trkpt>
      <trkpt lat="45.02957" lon="3.14272">
        <ele>818.462522</ele>
        <time>2021-04-30T02:04:54.682Z</time>
      </trkpt>
      <trkpt lat="45.02938" lon="3.14323">
        <ele>816.51217</ele>
        <time>2021-04-30T02:05:00.903Z</time>
      </trkpt>
      <trkpt lat="45.02911" lon="3.1436">
        <ele>814.744568</ele>
        <time>2021-04-30T02:05:06.321Z</time>
      </trkpt>
      <trkpt lat="45.0287" lon="3.14389">
        <ele>812.278539</ele>
        <time>2021-04-30T02:05:12.936Z</time>
      </trkpt>
      <trkpt lat="45.02842" lon="3.14397">
        <ele>810.40052</ele>
        <time>2021-04-30T02:05:17.037Z</time>
      </trkpt>
      <trkpt lat="45.02756" lon="3.14393">
        <ele>804.761964</ele>
        <time>2021-04-30T02:05:29.363Z</time>
      </trkpt>
      <trkpt lat="45.02707" lon="3.14413">
        <ele>801.429514</ele>
        <time>2021-04-30T02:05:36.784Z</time>
      </trkpt>
      <trkpt lat="45.02673" lon="3.14418">
        <ele>799.910354</ele>
        <time>2021-04-30T02:05:41.821Z</time>
      </trkpt>
      <trkpt lat="45.02635" lon="3.14401">
        <ele>798.138284</ele>
        <time>2021-04-30T02:05:47.797Z</time>
      </trkpt>
      <trkpt lat="45.02595" lon="3.14352">
        <ele>795.789758</ele>
        <time>2021-04-30T02:05:55.998Z</time>
      </trkpt>
      <trkpt lat="45.02586" lon="3.14347">
        <ele>795.355499</ele>
        <time>2021-04-30T02:05:57.524Z</time>
      </trkpt>
      <trkpt lat="45.02568" lon="3.14335">
        <ele>794.445337</ele>
        <time>2021-04-30T02:06:00.669Z</time>
      </trkpt>
      <trkpt lat="45.02478" lon="3.14318">
        <ele>793.863292</ele>
        <time>2021-04-30T02:06:16.908Z</time>
      </trkpt>
      <trkpt lat="45.02445" lon="3.14333">
        <ele>794.047513</ele>
        <time>2021-04-30T02:06:25.468Z</time>
      </trkpt>
      <trkpt lat="45.02439" lon="3.14338">
        <ele>794.082029</ele>
        <time>2021-04-30T02:06:26.655Z</time>
      </trkpt>
      <trkpt lat="45.0243" lon="3.1433">
        <ele>794.140465</ele>
        <time>2021-04-30T02:06:29.316Z</time>
      </trkpt>
      <trkpt lat="45.02413" lon="3.14321">
        <ele>794.235226</ele>
        <time>2021-04-30T02:06:36.325Z</time>
      </trkpt>
      <trkpt lat="45.0243" lon="3.1433">
        <ele>794.329987</ele>
        <time>2021-04-30T02:06:41.041Z</time>
      </trkpt>
      <trkpt lat="45.02439" lon="3.14338">
        <ele>794.388423</ele>
        <time>2021-04-30T02:06:45.165Z</time>
      </trkpt>
      <trkpt lat="45.02434" lon="3.14346">
        <ele>794.426634</ele>
        <time>2021-04-30T02:06:48.989Z</time>
      </trkpt>
      <trkpt lat="45.02421" lon="3.14379">
        <ele>795.825168</ele>
        <time>2021-04-30T02:06:58.085Z</time>
      </trkpt>
      <trkpt lat="45.02367" lon="3.14629">
        <ele>807.248667</ele>
        <time>2021-04-30T02:08:29.889Z</time>
      </trkpt>
      <trkpt lat="45.02349" lon="3.14667">
        <ele>809.353515</ele>
        <time>2021-04-30T02:08:46.251Z</time>
      </trkpt>
      <trkpt lat="45.02332" lon="3.14689">
        <ele>810.904881</ele>
        <time>2021-04-30T02:08:58.142Z</time>
      </trkpt>
      <trkpt lat="45.02296" lon="3.14714">
        <ele>813.511148</ele>
        <time>2021-04-30T02:09:17.546Z</time>
      </trkpt>
      <trkpt lat="45.02208" lon="3.14755">
        <ele>819.202301</ele>
        <time>2021-04-30T02:10:00.765Z</time>
      </trkpt>
      <trkpt lat="45.02162" lon="3.14758">
        <ele>821.694428</ele>
        <time>2021-04-30T02:10:21.016Z</time>
      </trkpt>
      <trkpt lat="45.02093" lon="3.1474">
        <ele>825.503712</ele>
        <time>2021-04-30T02:10:50.906Z</time>
      </trkpt>
      <trkpt lat="45.01927" lon="3.14782">
        <ele>834.351475</ele>
        <time>2021-04-30T02:12:03.091Z</time>
      </trkpt>
      <trkpt lat="45.01887" lon="3.14798">
        <ele>836.528098</ele>
        <time>2021-04-30T02:12:21.494Z</time>
      </trkpt>
      <trkpt lat="45.01776" lon="3.14875">
        <ele>843.234336</ele>
        <time>2021-04-30T02:13:16.110Z</time>
      </trkpt>
      <trkpt lat="45.01746" lon="3.14903">
        <ele>845.181187</ele>
        <time>2021-04-30T02:13:31.799Z</time>
      </trkpt>
      <trkpt lat="45.01703" lon="3.14959">
        <ele>848.321059</ele>
        <time>2021-04-30T02:13:57.144Z</time>
      </trkpt>
      <trkpt lat="45.01646" lon="3.15061">
        <ele>853.297799</ele>
        <time>2021-04-30T02:14:37.308Z</time>
      </trkpt>
      <trkpt lat="45.01455" lon="3.15342">
        <ele>868.273428</ele>
        <time>2021-04-30T02:16:40.205Z</time>
      </trkpt>
      <trkpt lat="45.01412" lon="3.15396">
        <ele>871.088209</ele>
        <time>2021-04-30T02:17:05.102Z</time>
      </trkpt>
      <trkpt lat="45.01351" lon="3.15461">
        <ele>874.813713</ele>
        <time>2021-04-30T02:17:36.078Z</time>
      </trkpt>
      <trkpt lat="45.01299" lon="3.15518">
        <ele>876.922611</ele>
        <time>2021-04-30T02:17:59.977Z</time>
      </trkpt>
      <trkpt lat="45.01268" lon="3.15545">
        <ele>878.072918</ele>
        <time>2021-04-30T02:18:11.997Z</time>
      </trkpt>
      <trkpt lat="45.01217" lon="3.15562">
        <ele>879.745751</ele>
        <time>2021-04-30T02:18:29.183Z</time>
      </trkpt>
      <trkpt lat="45.0121" lon="3.15562">
        <ele>879.965367</ele>
        <time>2021-04-30T02:18:32.043Z</time>
      </trkpt>
      <trkpt lat="45.012" lon="3.1556">
        <ele>880.267351</ele>
        <time>2021-04-30T02:18:34.721Z</time>
      </trkpt>
      <trkpt lat="45.01179" lon="3.15551">
        <ele>880.917329</ele>
        <time>2021-04-30T02:18:41.960Z</time>
      </trkpt>
      <trkpt lat="45.0117" lon="3.15547">
        <ele>881.19718</ele>
        <time>2021-04-30T02:18:45.363Z</time>
      </trkpt>
      <trkpt lat="45.01167" lon="3.1556">
        <ele>881.480865</ele>
        <time>2021-04-30T02:18:48.669Z</time>
      </trkpt>
      <trkpt lat="45.01171" lon="3.15593">
        <ele>882.161454</ele>
        <time>2021-04-30T02:18:56.989Z</time>
      </trkpt>
      <trkpt lat="45.01179" lon="3.15613">
        <ele>882.629716</ele>
        <time>2021-04-30T02:19:02.557Z</time>
      </trkpt>
      <trkpt lat="45.01204" lon="3.15675">
        <ele>884.085998</ele>
        <time>2021-04-30T02:19:20.086Z</time>
      </trkpt>
      <trkpt lat="45.01206" lon="3.15686">
        <ele>884.32313</ele>
        <time>2021-04-30T02:19:23.007Z</time>
      </trkpt>
      <trkpt lat="45.01207" lon="3.1572">
        <ele>885.019881</ele>
        <time>2021-04-30T02:19:31.021Z</time>
      </trkpt>
      <trkpt lat="45.01208" lon="3.15766">
        <ele>885.750862</ele>
        <time>2021-04-30T02:19:41.994Z</time>
      </trkpt>
      <trkpt lat="45.01209" lon="3.15808">
        <ele>885.957111</ele>
        <time>2021-04-30T02:19:51.880Z</time>
      </trkpt>
      <trkpt lat="45.01212" lon="3.15937">
        <ele>886.592638</ele>
        <time>2021-04-30T02:20:16.034Z</time>
      </trkpt>
      <trkpt lat="45.01212" lon="3.15947">
        <ele>886.642958</ele>
        <time>2021-04-30T02:20:17.399Z</time>
      </trkpt>
      <trkpt lat="45.01213" lon="3.1601">
        <ele>886.865643</ele>
        <time>2021-04-30T02:20:25.990Z</time>
      </trkpt>
      <trkpt lat="45.01214" lon="3.16144">
        <ele>884.479345</ele>
        <time>2021-04-30T02:20:42.009Z</time>
      </trkpt>
      <trkpt lat="45.01224" lon="3.16342">
        <ele>881.144563</ele>
        <time>2021-04-30T02:21:05.209Z</time>
      </trkpt>
      <trkpt lat="45.01233" lon="3.16412">
        <ele>880.0568</ele>
        <time>2021-04-30T02:21:13.944Z</time>
      </trkpt>
      <trkpt lat="45.01245" lon="3.16511">
        <ele>878.506757</ele>
        <time>2021-04-30T02:21:26.849Z</time>
      </trkpt>
      <trkpt lat="45.01247" lon="3.16528">
        <ele>878.361363</ele>
        <time>2021-04-30T02:21:29.136Z</time>
      </trkpt>
      <trkpt lat="45.01265" lon="3.16679">
        <ele>877.150486</ele>
        <time>2021-04-30T02:21:49.803Z</time>
      </trkpt>
      <trkpt lat="45.01265" lon="3.16741">
        <ele>876.658315</ele>
        <time>2021-04-30T02:21:58.317Z</time>
      </trkpt>
      <trkpt lat="45.01249" lon="3.16824">
        <ele>876.334648</ele>
        <time>2021-04-30T02:22:10.162Z</time>
      </trkpt>
      <trkpt lat="45.01197" lon="3.17024">
        <ele>876.088314</ele>
        <time>2021-04-30T02:22:42.245Z</time>
      </trkpt>
      <trkpt lat="45.01126" lon="3.17301">
        <ele>878.417077</ele>
        <time>2021-04-30T02:23:41.159Z</time>
      </trkpt>
      <trkpt lat="45.01047" lon="3.17609">
        <ele>878.859902</ele>
        <time>2021-04-30T02:24:39.773Z</time>
      </trkpt>
      <trkpt lat="45.00952" lon="3.17995">
        <ele>872.362797</ele>
        <time>2021-04-30T02:25:28.280Z</time>
      </trkpt>
      <trkpt lat="45.00898" lon="3.18194">
        <ele>867.372271</ele>
        <time>2021-04-30T02:25:52.595Z</time>
      </trkpt>
      <trkpt lat="45.00887" lon="3.18259">
        <ele>865.749062</ele>
        <time>2021-04-30T02:26:00.273Z</time>
      </trkpt>
      <trkpt lat="45.0093" lon="3.1857">
        <ele>857.61867</ele>
        <time>2021-04-30T02:26:36.471Z</time>
      </trkpt>
      <trkpt lat="45.00934" lon="3.18631">
        <ele>855.916928</ele>
        <time>2021-04-30T02:26:43.245Z</time>
      </trkpt>
      <trkpt lat="45.00924" lon="3.18685">
        <ele>854.357875</ele>
        <time>2021-04-30T02:26:49.378Z</time>
      </trkpt>
      <trkpt lat="45.00827" lon="3.18953">
        <ele>844.089811</ele>
        <time>2021-04-30T02:27:21.563Z</time>
      </trkpt>
      <trkpt lat="45.00814" lon="3.19022">
        <ele>841.946332</ele>
        <time>2021-04-30T02:27:29.278Z</time>
      </trkpt>
      <trkpt lat="45.00813" lon="3.19059">
        <ele>840.872344</ele>
        <time>2021-04-30T02:27:33.215Z</time>
      </trkpt>
      <trkpt lat="45.00834" lon="3.1921">
        <ele>837.309001</ele>
        <time>2021-04-30T02:27:50.738Z</time>
      </trkpt>
      <trkpt lat="45.00842" lon="3.19273">
        <ele>836.998588</ele>
        <time>2021-04-30T02:27:58.743Z</time>
      </trkpt>
      <trkpt lat="45.00841" lon="3.19303">
        <ele>836.85107</ele>
        <time>2021-04-30T02:28:02.843Z</time>
      </trkpt>
      <trkpt lat="45.00822" lon="3.19441">
        <ele>836.777046</ele>
        <time>2021-04-30T02:28:28.004Z</time>
      </trkpt>
      <trkpt lat="45.00765" lon="3.19762">
        <ele>845.155157</ele>
        <time>2021-04-30T02:29:55.771Z</time>
      </trkpt>
      <trkpt lat="45.00715" lon="3.19926">
        <ele>850.638914</ele>
        <time>2021-04-30T02:30:47.261Z</time>
      </trkpt>
      <trkpt lat="45.00707" lon="3.19986">
        <ele>852.598327</ele>
        <time>2021-04-30T02:31:04.950Z</time>
      </trkpt>
      <trkpt lat="45.0071" lon="3.20037">
        <ele>854.210533</ele>
        <time>2021-04-30T02:31:19.536Z</time>
      </trkpt>
      <trkpt lat="45.00774" lon="3.20451">
        <ele>867.067033</ele>
        <time>2021-04-30T02:33:19.326Z</time>
      </trkpt>
      <trkpt lat="45.00775" lon="3.20509">
        <ele>868.440618</ele>
        <time>2021-04-30T02:33:34.275Z</time>
      </trkpt>
      <trkpt lat="45.00768" lon="3.20575">
        <ele>870.00957</ele>
        <time>2021-04-30T02:33:50.817Z</time>
      </trkpt>
      <trkpt lat="45.00732" lon="3.20666">
        <ele>872.191151</ele>
        <time>2021-04-30T02:34:15.553Z</time>
      </trkpt>
      <trkpt lat="45.00651" lon="3.20766">
        <ele>873.951503</ele>
        <time>2021-04-30T02:34:47.798Z</time>
      </trkpt>
      <trkpt lat="45.00628" lon="3.20813">
        <ele>874.617069</ele>
        <time>2021-04-30T02:34:58.508Z</time>
      </trkpt>
      <trkpt lat="45.00623" lon="3.20838">
        <ele>874.854333</ele>
        <time>2021-04-30T02:35:02.578Z</time>
      </trkpt>
      <trkpt lat="45.0062" lon="3.2085">
        <ele>874.844268</ele>
        <time>2021-04-30T02:35:04.757Z</time>
      </trkpt>
      <trkpt lat="45.00632" lon="3.20942">
        <ele>874.77275</ele>
        <time>2021-04-30T02:35:19.576Z</time>
      </trkpt>
      <trkpt lat="45.00668" lon="3.21009">
        <ele>874.708545</ele>
        <time>2021-04-30T02:35:32.377Z</time>
      </trkpt>
      <trkpt lat="45.00671" lon="3.21018">
        <ele>874.700958</ele>
        <time>2021-04-30T02:35:33.562Z</time>
      </trkpt>
      <trkpt lat="45.00681" lon="3.2105">
        <ele>874.674903</ele>
        <time>2021-04-30T02:35:38.703Z</time>
      </trkpt>
      <trkpt lat="45.00681" lon="3.21104">
        <ele>874.634463</ele>
        <time>2021-04-30T02:35:46.435Z</time>
      </trkpt>
      <trkpt lat="45.0067" lon="3.2115">
        <ele>874.598347</ele>
        <time>2021-04-30T02:35:53.489Z</time>
      </trkpt>
      <trkpt lat="45.00593" lon="3.21251">
        <ele>874.488451</ele>
        <time>2021-04-30T02:36:16.654Z</time>
      </trkpt>
      <trkpt lat="45.00576" lon="3.2129">
        <ele>874.836714</ele>
        <time>2021-04-30T02:36:24.625Z</time>
      </trkpt>
      <trkpt lat="45.00565" lon="3.2134">
        <ele>875.526706</ele>
        <time>2021-04-30T02:36:34.456Z</time>
      </trkpt>
      <trkpt lat="45.00568" lon="3.21395">
        <ele>876.249627</ele>
        <time>2021-04-30T02:36:45.523Z</time>
      </trkpt>
      <trkpt lat="45.0058" lon="3.21487">
        <ele>877.47911</ele>
        <time>2021-04-30T02:37:06.168Z</time>
      </trkpt>
      <trkpt lat="45.0062" lon="3.21725">
        <ele>883.772676</ele>
        <time>2021-04-30T02:38:11.125Z</time>
      </trkpt>
      <trkpt lat="45.00621" lon="3.21768">
        <ele>884.98784</ele>
        <time>2021-04-30T02:38:23.311Z</time>
      </trkpt>
      <trkpt lat="45.00621" lon="3.21771">
        <ele>885.078259</ele>
        <time>2021-04-30T02:38:24.447Z</time>
      </trkpt>
      <trkpt lat="45.00614" lon="3.2181">
        <ele>886.365461</ele>
        <time>2021-04-30T02:38:35.796Z</time>
      </trkpt>
      <trkpt lat="45.0049" lon="3.22127">
        <ele>897.12068</ele>
        <time>2021-04-30T02:40:20.366Z</time>
      </trkpt>
      <trkpt lat="45.00488" lon="3.22133">
        <ele>897.307151</ele>
        <time>2021-04-30T02:40:22.595Z</time>
      </trkpt>
      <trkpt lat="45.00427" lon="3.22273">
        <ele>900.154886</ele>
        <time>2021-04-30T02:40:58.365Z</time>
      </trkpt>
      <trkpt lat="45.00412" lon="3.22305">
        <ele>900.404776</ele>
        <time>2021-04-30T02:41:05.561Z</time>
      </trkpt>
      <trkpt lat="45.00407" lon="3.22311">
        <ele>900.471073</ele>
        <time>2021-04-30T02:41:07.495Z</time>
      </trkpt>
      <trkpt lat="45.00401" lon="3.22319">
        <ele>900.548729</ele>
        <time>2021-04-30T02:41:09.575Z</time>
      </trkpt>
      <trkpt lat="45.00387" lon="3.22328">
        <ele>900.68765</ele>
        <time>2021-04-30T02:41:12.879Z</time>
      </trkpt>
      <trkpt lat="45.004" lon="3.22345">
        <ele>900.845758</ele>
        <time>2021-04-30T02:41:17.175Z</time>
      </trkpt>
      <trkpt lat="45.004" lon="3.22345">
        <ele>900.845758</ele>
        <time>2021-04-30T02:41:17.272Z</time>
      </trkpt>
      <trkpt lat="45.004" lon="3.22345">
        <ele>900.845758</ele>
        <time>2021-04-30T02:41:17.283Z</time>
      </trkpt>
      <trkpt lat="45.00387" lon="3.22328">
        <ele>901.003866</ele>
        <time>2021-04-30T02:41:21.045Z</time>
      </trkpt>
      <trkpt lat="45.00346" lon="3.22334">
        <ele>901.335776</ele>
        <time>2021-04-30T02:41:30.169Z</time>
      </trkpt>
      <trkpt lat="45.00267" lon="3.22342">
        <ele>901.325265</ele>
        <time>2021-04-30T02:41:46.752Z</time>
      </trkpt>
      <trkpt lat="45.00251" lon="3.22337">
        <ele>901.323178</ele>
        <time>2021-04-30T02:41:50.717Z</time>
      </trkpt>
      <trkpt lat="45.00251" lon="3.22337">
        <ele>901.323178</ele>
        <time>2021-04-30T02:41:50.722Z</time>
      </trkpt>
      <trkpt lat="45.00251" lon="3.22337">
        <ele>901.323178</ele>
        <time>2021-04-30T02:41:50.771Z</time>
      </trkpt>
      <trkpt lat="45.00267" lon="3.22342">
        <ele>901.321091</ele>
        <time>2021-04-30T02:41:54.331Z</time>
      </trkpt>
      <trkpt lat="45.00346" lon="3.22334">
        <ele>901.505918</ele>
        <time>2021-04-30T02:42:11.763Z</time>
      </trkpt>
      <trkpt lat="45.00387" lon="3.22328">
        <ele>902.011212</ele>
        <time>2021-04-30T02:42:21.848Z</time>
      </trkpt>
      <trkpt lat="45.00401" lon="3.22319">
        <ele>902.190554</ele>
        <time>2021-04-30T02:42:26.039Z</time>
      </trkpt>
      <trkpt lat="45.00407" lon="3.22311">
        <ele>902.290806</ele>
        <time>2021-04-30T02:42:27.898Z</time>
      </trkpt>
      <trkpt lat="45.00401" lon="3.22319">
        <ele>902.391058</ele>
        <time>2021-04-30T02:42:30.098Z</time>
      </trkpt>
      <trkpt lat="45.00387" lon="3.22328">
        <ele>902.5704</ele>
        <time>2021-04-30T02:42:34.243Z</time>
      </trkpt>
      <trkpt lat="45.004" lon="3.22345">
        <ele>902.774512</ele>
        <time>2021-04-30T02:42:38.861Z</time>
      </trkpt>
      <trkpt lat="45.0045" lon="3.22414">
        <ele>903.833224</ele>
        <time>2021-04-30T02:42:59.998Z</time>
      </trkpt>
      <trkpt lat="45.00468" lon="3.22437">
        <ele>904.595575</ele>
        <time>2021-04-30T02:43:08.368Z</time>
      </trkpt>
      <trkpt lat="45.00486" lon="3.22464">
        <ele>905.407887</ele>
        <time>2021-04-30T02:43:17.037Z</time>
      </trkpt>
      <trkpt lat="45.00533" lon="3.22559">
        <ele>907.938499</ele>
        <time>2021-04-30T02:43:46.807Z</time>
      </trkpt>
      <trkpt lat="45.0055" lon="3.22581">
        <ele>908.660327</ele>
        <time>2021-04-30T02:43:55.313Z</time>
      </trkpt>
      <trkpt lat="45.00575" lon="3.22611">
        <ele>909.536609</ele>
        <time>2021-04-30T02:44:07.247Z</time>
      </trkpt>
      <trkpt lat="45.00623" lon="3.22651">
        <ele>910.858521</ele>
        <time>2021-04-30T02:44:26.473Z</time>
      </trkpt>
      <trkpt lat="45.00684" lon="3.22692">
        <ele>912.44476</ele>
        <time>2021-04-30T02:44:48.661Z</time>
      </trkpt>
      <trkpt lat="45.00845" lon="3.22717">
        <ele>912.547182</ele>
        <time>2021-04-30T02:45:27.609Z</time>
      </trkpt>
      <trkpt lat="45.00873" lon="3.22756">
        <ele>912.306027</ele>
        <time>2021-04-30T02:45:34.719Z</time>
      </trkpt>
      <trkpt lat="45.00885" lon="3.22786">
        <ele>911.826769</ele>
        <time>2021-04-30T02:45:41.717Z</time>
      </trkpt>
      <trkpt lat="45.00919" lon="3.22817">
        <ele>910.086323</ele>
        <time>2021-04-30T02:45:53.241Z</time>
      </trkpt>
      <trkpt lat="45.00965" lon="3.22891">
        <ele>907.050778</ele>
        <time>2021-04-30T02:46:12.463Z</time>
      </trkpt>
      <trkpt lat="45.00975" lon="3.22922">
        <ele>906.002407</ele>
        <time>2021-04-30T02:46:19.037Z</time>
      </trkpt>
      <trkpt lat="45.00971" lon="3.23037">
        <ele>903.764273</ele>
        <time>2021-04-30T02:46:42.038Z</time>
      </trkpt>
      <trkpt lat="45.00976" lon="3.23056">
        <ele>903.543842</ele>
        <time>2021-04-30T02:46:46.565Z</time>
      </trkpt>
      <trkpt lat="45.0099" lon="3.2307">
        <ele>903.285438</ele>
        <time>2021-04-30T02:46:51.905Z</time>
      </trkpt>
      <trkpt lat="45.01019" lon="3.23078">
        <ele>902.84857</ele>
        <time>2021-04-30T02:47:01.460Z</time>
      </trkpt>
      <trkpt lat="45.01023" lon="3.23088">
        <ele>902.736555</ele>
        <time>2021-04-30T02:47:03.974Z</time>
      </trkpt>
      <trkpt lat="45.01021" lon="3.231">
        <ele>902.602082</ele>
        <time>2021-04-30T02:47:07.133Z</time>
      </trkpt>
      <trkpt lat="45.00999" lon="3.23139">
        <ele>902.0794</ele>
        <time>2021-04-30T02:47:20.122Z</time>
      </trkpt>
      <trkpt lat="45.00972" lon="3.23152">
        <ele>901.917837</ele>
        <time>2021-04-30T02:47:31.780Z</time>
      </trkpt>
      <trkpt lat="45.00937" lon="3.23222">
        <ele>903.789749</ele>
        <time>2021-04-30T02:47:59.348Z</time>
      </trkpt>
      <trkpt lat="45.00906" lon="3.23346">
        <ele>906.683058</ele>
        <time>2021-04-30T02:48:47.196Z</time>
      </trkpt>
      <trkpt lat="45.0089" lon="3.23438">
        <ele>910.790496</ele>
        <time>2021-04-30T02:49:25.899Z</time>
      </trkpt>
      <trkpt lat="45.00889" lon="3.23484">
        <ele>913.229709</ele>
        <time>2021-04-30T02:49:46.225Z</time>
      </trkpt>
      <trkpt lat="45.00917" lon="3.23539">
        <ele>916.79503</ele>
        <time>2021-04-30T02:50:18.605Z</time>
      </trkpt>
      <trkpt lat="45.00928" lon="3.23652">
        <ele>924.23736</ele>
        <time>2021-04-30T02:51:20.814Z</time>
      </trkpt>
      <trkpt lat="45.00971" lon="3.23814">
        <ele>939.494763</ele>
        <time>2021-04-30T02:53:09.596Z</time>
      </trkpt>
      <trkpt lat="45.00986" lon="3.23839">
        <ele>942.343195</ele>
        <time>2021-04-30T02:53:30.911Z</time>
      </trkpt>
      <trkpt lat="45.01038" lon="3.23888">
        <ele>950.775448</ele>
        <time>2021-04-30T02:54:30.082Z</time>
      </trkpt>
      <trkpt lat="45.01052" lon="3.23915">
        <ele>953.971912</ele>
        <time>2021-04-30T02:54:51.492Z</time>
      </trkpt>
      <trkpt lat="45.01051" lon="3.23932">
        <ele>955.682103</ele>
        <time>2021-04-30T02:55:03.646Z</time>
      </trkpt>
      <trkpt lat="45.01027" lon="3.23991">
        <ele>962.145935</ele>
        <time>2021-04-30T02:55:47.313Z</time>
      </trkpt>
      <trkpt lat="45.01028" lon="3.24008">
        <ele>963.692782</ele>
        <time>2021-04-30T02:55:57.443Z</time>
      </trkpt>
      <trkpt lat="45.01059" lon="3.24042">
        <ele>968.836571</ele>
        <time>2021-04-30T02:56:32.286Z</time>
      </trkpt>
      <trkpt lat="45.01056" lon="3.241">
        <ele>973.948719</ele>
        <time>2021-04-30T02:57:08.553Z</time>
      </trkpt>
      <trkpt lat="45.01056" lon="3.24107">
        <ele>974.551546</ele>
        <time>2021-04-30T02:57:13.689Z</time>
      </trkpt>
      <trkpt lat="45.01107" lon="3.24212">
        <ele>985.645651</ele>
        <time>2021-04-30T02:58:30.560Z</time>
      </trkpt>
      <trkpt lat="45.01176" lon="3.24324">
        <ele>997.831671</ele>
        <time>2021-04-30T02:59:59.112Z</time>
      </trkpt>
      <trkpt lat="45.01213" lon="3.24376">
        <ele>1003.688477</ele>
        <time>2021-04-30T03:00:41.428Z</time>
      </trkpt>
      <trkpt lat="45.01244" lon="3.24443">
        <ele>1010.116323</ele>
        <time>2021-04-30T03:01:27.469Z</time>
      </trkpt>
      <trkpt lat="45.01332" lon="3.24598">
        <ele>1024.929608</ele>
        <time>2021-04-30T03:03:20.820Z</time>
      </trkpt>
      <trkpt lat="45.01361" lon="3.24612">
        <ele>1028.254047</ele>
        <time>2021-04-30T03:03:45.495Z</time>
      </trkpt>
      <trkpt lat="45.01394" lon="3.24661">
        <ele>1032.182597</ele>
        <time>2021-04-30T03:04:14.147Z</time>
      </trkpt>
      <trkpt lat="45.01398" lon="3.24669">
        <ele>1032.773911</ele>
        <time>2021-04-30T03:04:18.526Z</time>
      </trkpt>
      <trkpt lat="45.01411" lon="3.24697">
        <ele>1034.593335</ele>
        <time>2021-04-30T03:04:32.590Z</time>
      </trkpt>
      <trkpt lat="45.01442" lon="3.24766">
        <ele>1039.118189</ele>
        <time>2021-04-30T03:05:03.179Z</time>
      </trkpt>
      <trkpt lat="45.01445" lon="3.24776">
        <ele>1039.754258</ele>
        <time>2021-04-30T03:05:08.972Z</time>
      </trkpt>
      <trkpt lat="45.01448" lon="3.24784">
        <ele>1040.20002</ele>
        <time>2021-04-30T03:05:11.861Z</time>
      </trkpt>
      <trkpt lat="45.01443" lon="3.24808">
        <ele>1041.564503</ele>
        <time>2021-04-30T03:05:18.928Z</time>
      </trkpt>
      <trkpt lat="45.01404" lon="3.24838">
        <ele>1044.050399</ele>
        <time>2021-04-30T03:05:39.435Z</time>
      </trkpt>
      <trkpt lat="45.01349" lon="3.24905">
        <ele>1046.832224</ele>
        <time>2021-04-30T03:06:09.245Z</time>
      </trkpt>
      <trkpt lat="45.01346" lon="3.24908">
        <ele>1046.957258</ele>
        <time>2021-04-30T03:06:11.450Z</time>
      </trkpt>
      <trkpt lat="45.01341" lon="3.24915">
        <ele>1047.234974</ele>
        <time>2021-04-30T03:06:14.482Z</time>
      </trkpt>
      <trkpt lat="45.01317" lon="3.24951">
        <ele>1048.561571</ele>
        <time>2021-04-30T03:06:26.409Z</time>
      </trkpt>
      <trkpt lat="45.0128" lon="3.25004">
        <ele>1049.910591</ele>
        <time>2021-04-30T03:06:42.313Z</time>
      </trkpt>
      <trkpt lat="45.01198" lon="3.25073">
        <ele>1049.371226</ele>
        <time>2021-04-30T03:07:05.151Z</time>
      </trkpt>
      <trkpt lat="45.01194" lon="3.25076">
        <ele>1049.345906</ele>
        <time>2021-04-30T03:07:06.052Z</time>
      </trkpt>
      <trkpt lat="45.01167" lon="3.25103">
        <ele>1049.156247</ele>
        <time>2021-04-30T03:07:12.272Z</time>
      </trkpt>
      <trkpt lat="45.01122" lon="3.25148">
        <ele>1048.07641</ele>
        <time>2021-04-30T03:07:21.874Z</time>
      </trkpt>
      <trkpt lat="45.01048" lon="3.25249">
        <ele>1044.152161</ele>
        <time>2021-04-30T03:07:38.765Z</time>
      </trkpt>
      <trkpt lat="45.01032" lon="3.25258">
        <ele>1043.478187</ele>
        <time>2021-04-30T03:07:41.620Z</time>
      </trkpt>
      <trkpt lat="45.01003" lon="3.25263">
        <ele>1042.35645</ele>
        <time>2021-04-30T03:07:46.352Z</time>
      </trkpt>
      <trkpt lat="45.00686" lon="3.25259">
        <ele>1027.369263</ele>
        <time>2021-04-30T03:08:37.200Z</time>
      </trkpt>
      <trkpt lat="45.00659" lon="3.25253">
        <ele>1026.018669</ele>
        <time>2021-04-30T03:08:41.487Z</time>
      </trkpt>
      <trkpt lat="45.00474" lon="3.25165">
        <ele>1014.297107</ele>
        <time>2021-04-30T03:09:11.405Z</time>
      </trkpt>
      <trkpt lat="45.00403" lon="3.25187">
        <ele>1009.17364</ele>
        <time>2021-04-30T03:09:22.359Z</time>
      </trkpt>
      <trkpt lat="45.00309" lon="3.252">
        <ele>1002.473899</ele>
        <time>2021-04-30T03:09:36.454Z</time>
      </trkpt>
      <trkpt lat="45.0024" lon="3.25221">
        <ele>997.728984</ele>
        <time>2021-04-30T03:09:46.924Z</time>
      </trkpt>
      <trkpt lat="45.00214" lon="3.25222">
        <ele>995.98218</ele>
        <time>2021-04-30T03:09:50.890Z</time>
      </trkpt>
      <trkpt lat="45.00166" lon="3.25219">
        <ele>992.778688</ele>
        <time>2021-04-30T03:09:58.204Z</time>
      </trkpt>
      <trkpt lat="45.00172" lon="3.2525">
        <ele>991.272962</ele>
        <time>2021-04-30T03:10:01.674Z</time>
      </trkpt>
      <trkpt lat="45.00183" lon="3.25267">
        <ele>990.227027</ele>
        <time>2021-04-30T03:10:04.100Z</time>
      </trkpt>
      <trkpt lat="45.00257" lon="3.25288">
        <ele>986.10102</ele>
        <time>2021-04-30T03:10:15.734Z</time>
      </trkpt>
      <trkpt lat="45.00282" lon="3.25313">
        <ele>984.524042</ele>
        <time>2021-04-30T03:10:20.492Z</time>
      </trkpt>
      <trkpt lat="45.00301" lon="3.25348">
        <ele>982.908964</ele>
        <time>2021-04-30T03:10:25.429Z</time>
      </trkpt>
      <trkpt lat="45.00325" lon="3.25375">
        <ele>981.344395</ele>
        <time>2021-04-30T03:10:30.323Z</time>
      </trkpt>
      <trkpt lat="45.00378" lon="3.25393">
        <ele>979.619332</ele>
        <time>2021-04-30T03:10:39.420Z</time>
      </trkpt>
      <trkpt lat="45.00451" lon="3.25405">
        <ele>978.80598</ele>
        <time>2021-04-30T03:10:52.679Z</time>
      </trkpt>
      <trkpt lat="45.00619" lon="3.25539">
        <ele>980.50912</ele>
        <time>2021-04-30T03:11:46.238Z</time>
      </trkpt>
      <trkpt lat="45.00638" lon="3.25546">
        <ele>980.957546</ele>
        <time>2021-04-30T03:11:53.328Z</time>
      </trkpt>
      <trkpt lat="45.00685" lon="3.25513">
        <ele>982.263714</ele>
        <time>2021-04-30T03:12:14.218Z</time>
      </trkpt>
      <trkpt lat="45.00709" lon="3.25504">
        <ele>983.403677</ele>
        <time>2021-04-30T03:12:25.370Z</time>
      </trkpt>
      <trkpt lat="45.00726" lon="3.25507">
        <ele>984.173781</ele>
        <time>2021-04-30T03:12:32.227Z</time>
      </trkpt>
      <trkpt lat="45.00743" lon="3.25535">
        <ele>985.384173</ele>
        <time>2021-04-30T03:12:43.472Z</time>
      </trkpt>
      <trkpt lat="45.00783" lon="3.25546">
        <ele>987.207487</ele>
        <time>2021-04-30T03:13:00.515Z</time>
      </trkpt>
      <trkpt lat="45.00785" lon="3.25561">
        <ele>987.705105</ele>
        <time>2021-04-30T03:13:05.780Z</time>
      </trkpt>
      <trkpt lat="45.00782" lon="3.25572">
        <ele>988.088813</ele>
        <time>2021-04-30T03:13:09.573Z</time>
      </trkpt>
      <trkpt lat="45.0078" lon="3.25581">
        <ele>988.391755</ele>
        <time>2021-04-30T03:13:12.169Z</time>
      </trkpt>
      <trkpt lat="45.0074" lon="3.25592">
        <ele>990.23487</ele>
        <time>2021-04-30T03:13:28.901Z</time>
      </trkpt>
      <trkpt lat="45.0073" lon="3.25603">
        <ele>990.506277</ele>
        <time>2021-04-30T03:13:35.018Z</time>
      </trkpt>
      <trkpt lat="45.00664" lon="3.25767">
        <ele>993.405935</ele>
        <time>2021-04-30T03:14:17.382Z</time>
      </trkpt>
      <trkpt lat="45.00652" lon="3.25782">
        <ele>993.75476</ele>
        <time>2021-04-30T03:14:22.067Z</time>
      </trkpt>
      <trkpt lat="45.00642" lon="3.25794">
        <ele>994.046609</ele>
        <time>2021-04-30T03:14:24.678Z</time>
      </trkpt>
      <trkpt lat="45.00629" lon="3.25816">
        <ele>994.318267</ele>
        <time>2021-04-30T03:14:29.948Z</time>
      </trkpt>
      <trkpt lat="45.00617" lon="3.25829">
        <ele>994.475602</ele>
        <time>2021-04-30T03:14:32.930Z</time>
      </trkpt>
      <trkpt lat="45.00604" lon="3.25841">
        <ele>994.648468</ele>
        <time>2021-04-30T03:14:37.111Z</time>
      </trkpt>
      <trkpt lat="45.00602" lon="3.25843">
        <ele>994.672353</ele>
        <time>2021-04-30T03:14:37.482Z</time>
      </trkpt>
      <trkpt lat="45.00616" lon="3.2601">
        <ele>995.9677</ele>
        <time>2021-04-30T03:15:08.661Z</time>
      </trkpt>
      <trkpt lat="45.0065" lon="3.26097">
        <ele>998.850659</ele>
        <time>2021-04-30T03:15:35.311Z</time>
      </trkpt>
      <trkpt lat="45.00674" lon="3.26144">
        <ele>1000.749251</ele>
        <time>2021-04-30T03:15:53.476Z</time>
      </trkpt>
      <trkpt lat="45.00715" lon="3.26202">
        <ele>1003.494636</ele>
        <time>2021-04-30T03:16:20.812Z</time>
      </trkpt>
      <trkpt lat="45.00724" lon="3.26225">
        <ele>1004.365542</ele>
        <time>2021-04-30T03:16:29.546Z</time>
      </trkpt>
      <trkpt lat="45.00715" lon="3.26248">
        <ele>1005.215628</ele>
        <time>2021-04-30T03:16:37.913Z</time>
      </trkpt>
      <trkpt lat="45.00696" lon="3.2626">
        <ele>1006.163083</ele>
        <time>2021-04-30T03:16:47.047Z</time>
      </trkpt>
      <trkpt lat="45.0064" lon="3.26258">
        <ele>1008.764596</ele>
        <time>2021-04-30T03:17:10.842Z</time>
      </trkpt>
      <trkpt lat="45.00624" lon="3.26244">
        <ele>1009.62747</ele>
        <time>2021-04-30T03:17:18.092Z</time>
      </trkpt>
      <trkpt lat="45.00588" lon="3.26196">
        <ele>1011.935055</ele>
        <time>2021-04-30T03:17:38.334Z</time>
      </trkpt>
      <trkpt lat="45.00556" lon="3.2617">
        <ele>1013.595242</ele>
        <time>2021-04-30T03:17:52.556Z</time>
      </trkpt>
      <trkpt lat="45.0054" lon="3.26169">
        <ele>1014.248806</ele>
        <time>2021-04-30T03:17:57.470Z</time>
      </trkpt>
      <trkpt lat="45.00529" lon="3.26178">
        <ele>1014.79636</ele>
        <time>2021-04-30T03:18:03.498Z</time>
      </trkpt>
      <trkpt lat="45.00503" lon="3.26218">
        <ele>1016.425956</ele>
        <time>2021-04-30T03:18:18.619Z</time>
      </trkpt>
      <trkpt lat="45.00498" lon="3.26234">
        <ele>1016.962131</ele>
        <time>2021-04-30T03:18:23.081Z</time>
      </trkpt>
      <trkpt lat="45.00497" lon="3.26269">
        <ele>1017.997082</ele>
        <time>2021-04-30T03:18:33.383Z</time>
      </trkpt>
      <trkpt lat="45.00499" lon="3.26309">
        <ele>1019.198957</ele>
        <time>2021-04-30T03:18:44.574Z</time>
      </trkpt>
      <trkpt lat="45.00525" lon="3.26419">
        <ele>1022.965644</ele>
        <time>2021-04-30T03:19:20.050Z</time>
      </trkpt>
      <trkpt lat="45.00665" lon="3.26786">
        <ele>1037.307902</ele>
        <time>2021-04-30T03:21:24.464Z</time>
      </trkpt>
      <trkpt lat="45.00758" lon="3.26931">
        <ele>1046.080264</ele>
        <time>2021-04-30T03:22:29.191Z</time>
      </trkpt>
      <trkpt lat="45.00806" lon="3.27042">
        <ele>1052.944178</ele>
        <time>2021-04-30T03:23:20.260Z</time>
      </trkpt>
      <trkpt lat="45.00821" lon="3.27117">
        <ele>1057.820435</ele>
        <time>2021-04-30T03:23:52.306Z</time>
      </trkpt>
      <trkpt lat="45.00863" lon="3.27208">
        <ele>1064.668765</ele>
        <time>2021-04-30T03:24:39.010Z</time>
      </trkpt>
      <trkpt lat="45.009" lon="3.27277">
        <ele>1070.415775</ele>
        <time>2021-04-30T03:25:16.744Z</time>
      </trkpt>
      <trkpt lat="45.00961" lon="3.27446">
        <ele>1083.234649</ele>
        <time>2021-04-30T03:26:38.576Z</time>
      </trkpt>
      <trkpt lat="45.00968" lon="3.27457">
        <ele>1084.325833</ele>
        <time>2021-04-30T03:26:45.108Z</time>
      </trkpt>
      <trkpt lat="45.011" lon="3.27454">
        <ele>1097.71347</ele>
        <time>2021-04-30T03:28:09.146Z</time>
      </trkpt>
      <trkpt lat="45.01174" lon="3.27446">
        <ele>1105.459925</ele>
        <time>2021-04-30T03:28:58.370Z</time>
      </trkpt>
      <trkpt lat="45.01195" lon="3.27411">
        <ele>1108.957667</ele>
        <time>2021-04-30T03:29:20.199Z</time>
      </trkpt>
      <trkpt lat="45.01211" lon="3.27397">
        <ele>1110.962738</ele>
        <time>2021-04-30T03:29:30.048Z</time>
      </trkpt>
      <trkpt lat="45.01214" lon="3.274">
        <ele>1111.288903</ele>
        <time>2021-04-30T03:29:33.499Z</time>
      </trkpt>
      <trkpt lat="45.01228" lon="3.27416">
        <ele>1113.251758</ele>
        <time>2021-04-30T03:29:47.864Z</time>
      </trkpt>
      <trkpt lat="45.01228" lon="3.27416">
        <ele>1113.251758</ele>
        <time>2021-04-30T03:29:47.994Z</time>
      </trkpt>
      <trkpt lat="45.01228" lon="3.27416">
        <ele>1113.251758</ele>
        <time>2021-04-30T03:29:47.994Z</time>
      </trkpt>
      <trkpt lat="45.01237" lon="3.27406">
        <ele>1114.479634</ele>
        <time>2021-04-30T03:29:50.993Z</time>
      </trkpt>
      <trkpt lat="45.01252" lon="3.27506">
        <ele>1122.136436</ele>
        <time>2021-04-30T03:30:09.861Z</time>
      </trkpt>
      <trkpt lat="45.01267" lon="3.27607">
        <ele>1129.666592</ele>
        <time>2021-04-30T03:30:28.750Z</time>
      </trkpt>
      <trkpt lat="45.01282" lon="3.27707">
        <ele>1137.19673</ele>
        <time>2021-04-30T03:30:47.616Z</time>
      </trkpt>
      <trkpt lat="45.01297" lon="3.27807">
        <ele>1143.584953</ele>
        <time>2021-04-30T03:31:06.451Z</time>
      </trkpt>
      <trkpt lat="45.01348" lon="3.27885">
        <ele>1149.862289</ele>
        <time>2021-04-30T03:31:25.967Z</time>
      </trkpt>
      <trkpt lat="45.014" lon="3.27962">
        <ele>1155.813328</ele>
        <time>2021-04-30T03:31:45.477Z</time>
      </trkpt>
      <trkpt lat="45.01451" lon="3.2804">
        <ele>1161.151607</ele>
        <time>2021-04-30T03:32:04.982Z</time>
      </trkpt>
      <trkpt lat="45.01503" lon="3.28117">
        <ele>1166.48986</ele>
        <time>2021-04-30T03:32:24.482Z</time>
      </trkpt>
      <trkpt lat="45.01554" lon="3.28195">
        <ele>1170.504009</ele>
        <time>2021-04-30T03:32:43.976Z</time>
      </trkpt>
      <trkpt lat="45.01636" lon="3.2821">
        <ele>1174.824165</ele>
        <time>2021-04-30T03:33:05.241Z</time>
      </trkpt>
      <trkpt lat="45.01717" lon="3.28225">
        <ele>1177.525653</ele>
        <time>2021-04-30T03:33:26.493Z</time>
      </trkpt>
      <trkpt lat="45.01731" lon="3.28336">
        <ele>1179.429625</ele>
        <time>2021-04-30T03:33:47.231Z</time>
      </trkpt>
      <trkpt lat="45.01746" lon="3.28448">
        <ele>1181.294033</ele>
        <time>2021-04-30T03:34:07.989Z</time>
      </trkpt>
      <trkpt lat="45.0176" lon="3.28559">
        <ele>1183.10663</ele>
        <time>2021-04-30T03:34:28.725Z</time>
      </trkpt>
      <trkpt lat="45.01824" lon="3.2864">
        <ele>1186.38029</ele>
        <time>2021-04-30T03:34:51.019Z</time>
      </trkpt>
      <trkpt lat="45.01889" lon="3.28721">
        <ele>1193.364145</ele>
        <time>2021-04-30T03:35:13.362Z</time>
      </trkpt>
      <trkpt lat="45.01953" lon="3.28802">
        <ele>1201.816703</ele>
        <time>2021-04-30T03:35:35.758Z</time>
      </trkpt>
      <trkpt lat="45.02011" lon="3.28864">
        <ele>1214.807929</ele>
        <time>2021-04-30T03:35:54.729Z</time>
      </trkpt>
      <trkpt lat="45.02069" lon="3.28925">
        <ele>1227.791506</ele>
        <time>2021-04-30T03:36:13.802Z</time>
      </trkpt>
      <trkpt lat="45.02127" lon="3.28987">
        <ele>1243.432177</ele>
        <time>2021-04-30T03:36:32.988Z</time>
      </trkpt>
      <trkpt lat="45.022" lon="3.28989">
        <ele>1260.163637</ele>
        <time>2021-04-30T03:36:52.281Z</time>
      </trkpt>
      <trkpt lat="45.02273" lon="3.28991">
        <ele>1275.155256</ele>
        <time>2021-04-30T03:37:11.599Z</time>
      </trkpt>
      <trkpt lat="45.02346" lon="3.28993">
        <ele>1285.205135</ele>
        <time>2021-04-30T03:37:30.675Z</time>
      </trkpt>
      <trkpt lat="45.02336" lon="3.29">
        <ele>1286.72851</ele>
        <time>2021-04-30T03:37:33.542Z</time>
      </trkpt>
      <trkpt lat="45.02336" lon="3.29">
        <ele>1286.72851</ele>
        <time>2021-04-30T03:37:33.576Z</time>
      </trkpt>
      <trkpt lat="45.02336" lon="3.29">
        <ele>1286.72851</ele>
        <time>2021-04-30T03:37:33.997Z</time>
      </trkpt>
      <trkpt lat="45.02324" lon="3.28965">
        <ele>1290.569704</ele>
        <time>2021-04-30T03:37:49.643Z</time>
      </trkpt>
      <trkpt lat="45.02295" lon="3.28928">
        <ele>1295.931763</ele>
        <time>2021-04-30T03:38:14.168Z</time>
      </trkpt>
      <trkpt lat="45.02243" lon="3.28883">
        <ele>1300.483042</ele>
        <time>2021-04-30T03:38:53.125Z</time>
      </trkpt>
      <trkpt lat="45.02166" lon="3.28738">
        <ele>1308.456863</ele>
        <time>2021-04-30T03:40:02.605Z</time>
      </trkpt>
      <trkpt lat="45.02166" lon="3.28738">
        <ele>1308.456863</ele>
        <time>2021-04-30T03:40:03.009Z</time>
      </trkpt>
      <trkpt lat="45.02166" lon="3.28738">
        <ele>1308.456863</ele>
        <time>2021-04-30T03:40:03.009Z</time>
      </trkpt>
      <trkpt lat="45.022" lon="3.28701">
        <ele>1313.736066</ele>
        <time>2021-04-30T03:40:14.203Z</time>
      </trkpt>
      <trkpt lat="45.022" lon="3.28606">
        <ele>1321.99721</ele>
        <time>2021-04-30T03:40:31.740Z</time>
      </trkpt>
      <trkpt lat="45.022" lon="3.28511">
        <ele>1330.258354</ele>
        <time>2021-04-30T03:40:49.302Z</time>
      </trkpt>
      <trkpt lat="45.022" lon="3.28416">
        <ele>1338.089749</ele>
        <time>2021-04-30T03:41:06.830Z</time>
      </trkpt>
      <trkpt lat="45.02247" lon="3.28319">
        <ele>1347.780409</ele>
        <time>2021-04-30T03:41:28.521Z</time>
      </trkpt>
      <trkpt lat="45.02295" lon="3.28222">
        <ele>1355.217664</ele>
        <time>2021-04-30T03:41:50.187Z</time>
      </trkpt>
      <trkpt lat="45.02342" lon="3.28125">
        <ele>1361.221671</ele>
        <time>2021-04-30T03:42:11.808Z</time>
      </trkpt>
      <trkpt lat="45.0241" lon="3.28072">
        <ele>1365.354952</ele>
        <time>2021-04-30T03:42:31.823Z</time>
      </trkpt>
      <trkpt lat="45.02477" lon="3.28019">
        <ele>1367.427982</ele>
        <time>2021-04-30T03:42:51.816Z</time>
      </trkpt>
      <trkpt lat="45.02545" lon="3.27965">
        <ele>1369.28164</ele>
        <time>2021-04-30T03:43:11.802Z</time>
      </trkpt>
      <trkpt lat="45.02612" lon="3.27912">
        <ele>1368.731784</ele>
        <time>2021-04-30T03:43:31.796Z</time>
      </trkpt>
      <trkpt lat="45.02672" lon="3.27909">
        <ele>1368.304727</ele>
        <time>2021-04-30T03:43:47.315Z</time>
      </trkpt>
      <trkpt lat="45.02732" lon="3.27906">
        <ele>1367.897715</ele>
        <time>2021-04-30T03:44:02.833Z</time>
      </trkpt>
      <trkpt lat="45.02708" lon="3.27898">
        <ele>1367.742126</ele>
        <time>2021-04-30T03:44:09.240Z</time>
      </trkpt>
      <trkpt lat="45.02708" lon="3.27898">
        <ele>1367.742126</ele>
        <time>2021-04-30T03:44:09.240Z</time>
      </trkpt>
      <trkpt lat="45.02708" lon="3.27898">
        <ele>1367.742126</ele>
        <time>2021-04-30T03:44:09.335Z</time>
      </trkpt>
      <trkpt lat="45.02706" lon="3.27911">
        <ele>1367.68383</ele>
        <time>2021-04-30T03:44:13.180Z</time>
      </trkpt>
      <trkpt lat="45.02695" lon="3.27939">
        <ele>1367.542097</ele>
        <time>2021-04-30T03:44:21.891Z</time>
      </trkpt>
      <trkpt lat="45.0268" lon="3.28053">
        <ele>1367.027344</ele>
        <time>2021-04-30T03:44:50.615Z</time>
      </trkpt>
      <trkpt lat="45.02686" lon="3.28205">
        <ele>1365.920125</ele>
        <time>2021-04-30T03:45:31.067Z</time>
      </trkpt>
      <trkpt lat="45.0268" lon="3.28572">
        <ele>1360.583572</ele>
        <time>2021-04-30T03:46:51.772Z</time>
      </trkpt>
      <trkpt lat="45.02692" lon="3.28683">
        <ele>1356.871152</ele>
        <time>2021-04-30T03:47:14.190Z</time>
      </trkpt>
      <trkpt lat="45.02711" lon="3.28805">
        <ele>1352.488828</ele>
        <time>2021-04-30T03:47:38.176Z</time>
      </trkpt>
      <trkpt lat="45.0268" lon="3.29001">
        <ele>1344.926484</ele>
        <time>2021-04-30T03:48:16.339Z</time>
      </trkpt>
      <trkpt lat="45.02658" lon="3.29051">
        <ele>1342.681822</ele>
        <time>2021-04-30T03:48:27.685Z</time>
      </trkpt>
      <trkpt lat="45.02553" lon="3.29229">
        <ele>1335.882157</ele>
        <time>2021-04-30T03:49:14.009Z</time>
      </trkpt>
      <trkpt lat="45.02518" lon="3.29358">
        <ele>1333.141699</ele>
        <time>2021-04-30T03:49:43.231Z</time>
      </trkpt>
      <trkpt lat="45.02443" lon="3.29583">
        <ele>1330.353773</ele>
        <time>2021-04-30T03:50:40.045Z</time>
      </trkpt>
      <trkpt lat="45.02399" lon="3.29681">
        <ele>1329.988846</ele>
        <time>2021-04-30T03:51:09.789Z</time>
      </trkpt>
      <trkpt lat="45.0239" lon="3.29701">
        <ele>1329.912475</ele>
        <time>2021-04-30T03:51:16.393Z</time>
      </trkpt>
      <trkpt lat="45.02328" lon="3.29834">
        <ele>1331.200063</ele>
        <time>2021-04-30T03:52:02.488Z</time>
      </trkpt>
      <trkpt lat="45.023" lon="3.2991">
        <ele>1332.11407</ele>
        <time>2021-04-30T03:52:28.961Z</time>
      </trkpt>
      <trkpt lat="45.02259" lon="3.30139">
        <ele>1337.409634</ele>
        <time>2021-04-30T03:53:50.436Z</time>
      </trkpt>
      <trkpt lat="45.02256" lon="3.30216">
        <ele>1339.749751</ele>
        <time>2021-04-30T03:54:21.876Z</time>
      </trkpt>
      <trkpt lat="45.02258" lon="3.30258">
        <ele>1341.744098</ele>
        <time>2021-04-30T03:54:40.425Z</time>
      </trkpt>
      <trkpt lat="45.02252" lon="3.30311">
        <ele>1344.240573</ele>
        <time>2021-04-30T03:54:59.166Z</time>
      </trkpt>
      <trkpt lat="45.02235" lon="3.30437">
        <ele>1350.284695</ele>
        <time>2021-04-30T03:55:46.656Z</time>
      </trkpt>
      <trkpt lat="45.0223" lon="3.30476">
        <ele>1352.18746</ele>
        <time>2021-04-30T03:56:01.986Z</time>
      </trkpt>
      <trkpt lat="45.02217" lon="3.30547">
        <ele>1355.831377</ele>
        <time>2021-04-30T03:56:29.558Z</time>
      </trkpt>
      <trkpt lat="45.02204" lon="3.30565">
        <ele>1357.083796</ele>
        <time>2021-04-30T03:56:38.985Z</time>
      </trkpt>
      <trkpt lat="45.02167" lon="3.30581">
        <ele>1359.779816</ele>
        <time>2021-04-30T03:56:58.657Z</time>
      </trkpt>
      <trkpt lat="45.02065" lon="3.30608">
        <ele>1366.514115</ele>
        <time>2021-04-30T03:57:48.850Z</time>
      </trkpt>
      <trkpt lat="45.01883" lon="3.30689">
        <ele>1377.659794</ele>
        <time>2021-04-30T03:59:17.535Z</time>
      </trkpt>
      <trkpt lat="45.01689" lon="3.30865">
        <ele>1390.316257</ele>
        <time>2021-04-30T04:01:01.698Z</time>
      </trkpt>
      <trkpt lat="45.01586" lon="3.30907">
        <ele>1395.724532</ele>
        <time>2021-04-30T04:01:48.458Z</time>
      </trkpt>
      <trkpt lat="45.0151" lon="3.30959">
        <ele>1399.561124</ele>
        <time>2021-04-30T04:02:23.332Z</time>
      </trkpt>
      <trkpt lat="45.01424" lon="3.31008">
        <ele>1403.574948</ele>
        <time>2021-04-30T04:03:00.451Z</time>
      </trkpt>
      <trkpt lat="45.01335" lon="3.31076">
        <ele>1407.586038</ele>
        <time>2021-04-30T04:03:39.916Z</time>
      </trkpt>
      <trkpt lat="45.01307" lon="3.31102">
        <ele>1408.904238</ele>
        <time>2021-04-30T04:03:52.789Z</time>
      </trkpt>
      <trkpt lat="45.01286" lon="3.31133">
        <ele>1409.799963</ele>
        <time>2021-04-30T04:04:04.378Z</time>
      </trkpt>
      <trkpt lat="45.01267" lon="3.31172">
        <ele>1410.698457</ele>
        <time>2021-04-30T04:04:16.729Z</time>
      </trkpt>
      <trkpt lat="45.01247" lon="3.31237">
        <ele>1412.052259</ele>
        <time>2021-04-30T04:04:34.404Z</time>
      </trkpt>
      <trkpt lat="45.01229" lon="3.31338">
        <ele>1414.013346</ele>
        <time>2021-04-30T04:04:58.080Z</time>
      </trkpt>
      <trkpt lat="45.01135" lon="3.31661">
        <ele>1415.818261</ele>
        <time>2021-04-30T04:06:00.655Z</time>
      </trkpt>
      <trkpt lat="45.01064" lon="3.31982">
        <ele>1418.266685</ele>
        <time>2021-04-30T04:07:03.498Z</time>
      </trkpt>
      <trkpt lat="45.01047" lon="3.32071">
        <ele>1419.217699</ele>
        <time>2021-04-30T04:07:24.622Z</time>
      </trkpt>
      <trkpt lat="45.01028" lon="3.32229">
        <ele>1421.59503</ele>
        <time>2021-04-30T04:08:03.674Z</time>
      </trkpt>
      <trkpt lat="45.01012" lon="3.32306">
        <ele>1422.714618</ele>
        <time>2021-04-30T04:08:20.691Z</time>
      </trkpt>
      <trkpt lat="45.01005" lon="3.32381">
        <ele>1421.911917</ele>
        <time>2021-04-30T04:08:32.546Z</time>
      </trkpt>
      <trkpt lat="45.00985" lon="3.32453">
        <ele>1421.090259</ele>
        <time>2021-04-30T04:08:43.231Z</time>
      </trkpt>
      <trkpt lat="45.00976" lon="3.32466">
        <ele>1420.899877</ele>
        <time>2021-04-30T04:08:45.465Z</time>
      </trkpt>
      <trkpt lat="45.00936" lon="3.32463">
        <ele>1420.302938</ele>
        <time>2021-04-30T04:08:52.401Z</time>
      </trkpt>
      <trkpt lat="45.00858" lon="3.3245">
        <ele>1417.675235</ele>
        <time>2021-04-30T04:09:05.557Z</time>
      </trkpt>
      <trkpt lat="45.00769" lon="3.32419">
        <ele>1414.198326</ele>
        <time>2021-04-30T04:09:20.458Z</time>
      </trkpt>
      <trkpt lat="45.00711" lon="3.32388">
        <ele>1411.985459</ele>
        <time>2021-04-30T04:09:30.927Z</time>
      </trkpt>
      <trkpt lat="45.0066" lon="3.32345">
        <ele>1409.963747</ele>
        <time>2021-04-30T04:09:41.018Z</time>
      </trkpt>
      <trkpt lat="45.00624" lon="3.32326">
        <ele>1408.64141</ele>
        <time>2021-04-30T04:09:47.652Z</time>
      </trkpt>
      <trkpt lat="45.00458" lon="3.32337">
        <ele>1402.917257</ele>
        <time>2021-04-30T04:10:15.765Z</time>
      </trkpt>
      <trkpt lat="45.0041" lon="3.32347">
        <ele>1401.230476</ele>
        <time>2021-04-30T04:10:23.872Z</time>
      </trkpt>
      <trkpt lat="45.00275" lon="3.32438">
        <ele>1395.840058</ele>
        <time>2021-04-30T04:10:48.691Z</time>
      </trkpt>
      <trkpt lat="45.00212" lon="3.32473">
        <ele>1393.656682</ele>
        <time>2021-04-30T04:11:00.250Z</time>
      </trkpt>
      <trkpt lat="45.00161" lon="3.32483">
        <ele>1392.350387</ele>
        <time>2021-04-30T04:11:09.213Z</time>
      </trkpt>
      <trkpt lat="45.00022" lon="3.32485">
        <ele>1388.710521</ele>
        <time>2021-04-30T04:11:34.703Z</time>
      </trkpt>
      <trkpt lat="44.99959" lon="3.32503">
        <ele>1386.914613</ele>
        <time>2021-04-30T04:11:46.127Z</time>
      </trkpt>
      <trkpt lat="44.99902" lon="3.32538">
        <ele>1385.169622</ele>
        <time>2021-04-30T04:11:56.940Z</time>
      </trkpt>
      <trkpt lat="44.99892" lon="3.32544">
        <ele>1384.859876</ele>
        <time>2021-04-30T04:11:58.745Z</time>
      </trkpt>
      <trkpt lat="44.99711" lon="3.32628">
        <ele>1376.162962</ele>
        <time>2021-04-30T04:12:29.221Z</time>
      </trkpt>
      <trkpt lat="44.99666" lon="3.32633">
        <ele>1373.984982</ele>
        <time>2021-04-30T04:12:36.263Z</time>
      </trkpt>
      <trkpt lat="44.99642" lon="3.32622">
        <ele>1372.786209</ele>
        <time>2021-04-30T04:12:40.236Z</time>
      </trkpt>
      <trkpt lat="44.99604" lon="3.32593">
        <ele>1370.686619</ele>
        <time>2021-04-30T04:12:47.147Z</time>
      </trkpt>
      <trkpt lat="44.996" lon="3.3259">
        <ele>1370.46858</ele>
        <time>2021-04-30T04:12:47.846Z</time>
      </trkpt>
      <trkpt lat="44.99558" lon="3.32543">
        <ele>1367.915855</ele>
        <time>2021-04-30T04:12:56.420Z</time>
      </trkpt>
      <trkpt lat="44.99512" lon="3.3247">
        <ele>1365.698609</ele>
        <time>2021-04-30T04:13:07.781Z</time>
      </trkpt>
      <trkpt lat="44.99429" lon="3.32418">
        <ele>1362.881792</ele>
        <time>2021-04-30T04:13:23.809Z</time>
      </trkpt>
      <trkpt lat="44.99362" lon="3.32389">
        <ele>1362.061723</ele>
        <time>2021-04-30T04:13:36.710Z</time>
      </trkpt>
      <trkpt lat="44.99296" lon="3.32399">
        <ele>1361.934094</ele>
        <time>2021-04-30T04:13:51.184Z</time>
      </trkpt>
      <trkpt lat="44.99274" lon="3.32408">
        <ele>1361.889292</ele>
        <time>2021-04-30T04:13:56.993Z</time>
      </trkpt>
      <trkpt lat="44.99264" lon="3.32413">
        <ele>1361.868832</ele>
        <time>2021-04-30T04:13:59.817Z</time>
      </trkpt>
      <trkpt lat="44.99209" lon="3.32469">
        <ele>1362.702798</ele>
        <time>2021-04-30T04:14:19.607Z</time>
      </trkpt>
      <trkpt lat="44.99167" lon="3.32544">
        <ele>1364.519183</ele>
        <time>2021-04-30T04:14:43.853Z</time>
      </trkpt>
      <trkpt lat="44.99126" lon="3.32644">
        <ele>1366.633171</ele>
        <time>2021-04-30T04:15:13.627Z</time>
      </trkpt>
      <trkpt lat="44.99109" lon="3.32677">
        <ele>1367.006055</ele>
        <time>2021-04-30T04:15:23.477Z</time>
      </trkpt>
      <trkpt lat="44.99091" lon="3.32711">
        <ele>1367.392246</ele>
        <time>2021-04-30T04:15:33.106Z</time>
      </trkpt>
      <trkpt lat="44.98824" lon="3.32992">
        <ele>1369.512529</ele>
        <time>2021-04-30T04:16:56.042Z</time>
      </trkpt>
      <trkpt lat="44.98797" lon="3.33005">
        <ele>1369.453925</ele>
        <time>2021-04-30T04:17:02.268Z</time>
      </trkpt>
      <trkpt lat="44.98691" lon="3.33032">
        <ele>1369.229333</ele>
        <time>2021-04-30T04:17:25.746Z</time>
      </trkpt>
      <trkpt lat="44.98522" lon="3.33143">
        <ele>1368.121633</ele>
        <time>2021-04-30T04:18:05.392Z</time>
      </trkpt>
      <trkpt lat="44.98237" lon="3.33414">
        <ele>1364.652913</ele>
        <time>2021-04-30T04:19:15.285Z</time>
      </trkpt>
      <trkpt lat="44.98106" lon="3.33555">
        <ele>1361.401044</ele>
        <time>2021-04-30T04:19:45.237Z</time>
      </trkpt>
      <trkpt lat="44.98079" lon="3.33589">
        <ele>1360.639659</ele>
        <time>2021-04-30T04:19:51.802Z</time>
      </trkpt>
      <trkpt lat="44.98005" lon="3.33741">
        <ele>1358.095774</ele>
        <time>2021-04-30T04:20:15.924Z</time>
      </trkpt>
      <trkpt lat="44.98004" lon="3.33744">
        <ele>1358.036719</ele>
        <time>2021-04-30T04:20:16.427Z</time>
      </trkpt>
      <trkpt lat="44.97972" lon="3.33821">
        <ele>1356.790703</ele>
        <time>2021-04-30T04:20:28.503Z</time>
      </trkpt>
      <trkpt lat="44.97894" lon="3.34029">
        <ele>1353.355532</ele>
        <time>2021-04-30T04:20:59.270Z</time>
      </trkpt>
      <trkpt lat="44.97848" lon="3.34174">
        <ele>1349.784986</ele>
        <time>2021-04-30T04:21:18.800Z</time>
      </trkpt>
      <trkpt lat="44.97727" lon="3.34485">
        <ele>1339.772931</ele>
        <time>2021-04-30T04:22:00.033Z</time>
      </trkpt>
      <trkpt lat="44.97702" lon="3.34525">
        <ele>1338.103985</ele>
        <time>2021-04-30T04:22:06.011Z</time>
      </trkpt>
      <trkpt lat="44.97624" lon="3.34619">
        <ele>1333.618969</ele>
        <time>2021-04-30T04:22:22.427Z</time>
      </trkpt>
      <trkpt lat="44.97643" lon="3.34645">
        <ele>1332.469139</ele>
        <time>2021-04-30T04:22:26.576Z</time>
      </trkpt>
      <trkpt lat="44.97712" lon="3.34672">
        <ele>1331.246336</ele>
        <time>2021-04-30T04:22:38.494Z</time>
      </trkpt>
      <trkpt lat="44.97752" lon="3.34675">
        <ele>1330.602117</ele>
        <time>2021-04-30T04:22:46.034Z</time>
      </trkpt>
      <trkpt lat="44.97779" lon="3.34669">
        <ele>1330.165448</ele>
        <time>2021-04-30T04:22:51.755Z</time>
      </trkpt>
      <trkpt lat="44.97809" lon="3.34649">
        <ele>1329.636704</ele>
        <time>2021-04-30T04:22:59.119Z</time>
      </trkpt>
      <trkpt lat="44.97811" lon="3.34648">
        <ele>1329.605475</ele>
        <time>2021-04-30T04:22:59.680Z</time>
      </trkpt>
      <trkpt lat="44.97833" lon="3.34624">
        <ele>1329.25803</ele>
        <time>2021-04-30T04:23:05.885Z</time>
      </trkpt>
      <trkpt lat="44.97845" lon="3.34599">
        <ele>1329.021635</ele>
        <time>2021-04-30T04:23:10.695Z</time>
      </trkpt>
      <trkpt lat="44.97875" lon="3.34447">
        <ele>1327.80657</ele>
        <time>2021-04-30T04:23:32.422Z</time>
      </trkpt>
      <trkpt lat="44.97904" lon="3.34407">
        <ele>1327.025619</ele>
        <time>2021-04-30T04:23:39.499Z</time>
      </trkpt>
      <trkpt lat="44.97977" lon="3.34375">
        <ele>1324.361241</ele>
        <time>2021-04-30T04:23:51.755Z</time>
      </trkpt>
      <trkpt lat="44.98099" lon="3.34334">
        <ele>1319.779306</ele>
        <time>2021-04-30T04:24:11.282Z</time>
      </trkpt>
      <trkpt lat="44.98119" lon="3.34336">
        <ele>1318.960829</ele>
        <time>2021-04-30T04:24:14.413Z</time>
      </trkpt>
      <trkpt lat="44.98165" lon="3.34359">
        <ele>1316.955828</ele>
        <time>2021-04-30T04:24:22.036Z</time>
      </trkpt>
      <trkpt lat="44.98204" lon="3.3437">
        <ele>1315.37343</ele>
        <time>2021-04-30T04:24:28.127Z</time>
      </trkpt>
      <trkpt lat="44.98243" lon="3.34362">
        <ele>1313.748357</ele>
        <time>2021-04-30T04:24:34.452Z</time>
      </trkpt>
      <trkpt lat="44.98284" lon="3.3433">
        <ele>1311.91045</ele>
        <time>2021-04-30T04:24:41.877Z</time>
      </trkpt>
      <trkpt lat="44.98307" lon="3.34277">
        <ele>1310.149719</ele>
        <time>2021-04-30T04:24:49.040Z</time>
      </trkpt>
      <trkpt lat="44.98321" lon="3.34275">
        <ele>1309.602831</ele>
        <time>2021-04-30T04:24:51.121Z</time>
      </trkpt>
      <trkpt lat="44.98348" lon="3.34285">
        <ele>1308.494844</ele>
        <time>2021-04-30T04:24:55.521Z</time>
      </trkpt>
      <trkpt lat="44.98382" lon="3.3428">
        <ele>1307.14066</ele>
        <time>2021-04-30T04:25:00.756Z</time>
      </trkpt>
      <trkpt lat="44.98412" lon="3.34263">
        <ele>1305.623816</ele>
        <time>2021-04-30T04:25:05.646Z</time>
      </trkpt>
      <trkpt lat="44.98449" lon="3.34232">
        <ele>1303.408062</ele>
        <time>2021-04-30T04:25:12.352Z</time>
      </trkpt>
      <trkpt lat="44.98452" lon="3.3423">
        <ele>1303.231575</ele>
        <time>2021-04-30T04:25:12.828Z</time>
      </trkpt>
      <trkpt lat="44.98443" lon="3.34256">
        <ele>1302.187757</ele>
        <time>2021-04-30T04:25:16.128Z</time>
      </trkpt>
      <trkpt lat="44.98355" lon="3.3436">
        <ele>1296.187744</ele>
        <time>2021-04-30T04:25:33.992Z</time>
      </trkpt>
      <trkpt lat="44.98354" lon="3.34374">
        <ele>1295.608649</ele>
        <time>2021-04-30T04:25:35.510Z</time>
      </trkpt>
      <trkpt lat="44.98362" lon="3.34426">
        <ele>1293.46265</ele>
        <time>2021-04-30T04:25:41.326Z</time>
      </trkpt>
      <trkpt lat="44.98361" lon="3.34464">
        <ele>1291.96102</ele>
        <time>2021-04-30T04:25:45.412Z</time>
      </trkpt>
      <trkpt lat="44.98353" lon="3.34496">
        <ele>1290.588172</ele>
        <time>2021-04-30T04:25:49.131Z</time>
      </trkpt>
      <trkpt lat="44.98301" lon="3.34615">
        <ele>1286.360792</ele>
        <time>2021-04-30T04:26:04.642Z</time>
      </trkpt>
      <trkpt lat="44.98278" lon="3.34646">
        <ele>1285.630231</ele>
        <time>2021-04-30T04:26:09.892Z</time>
      </trkpt>
      <trkpt lat="44.98257" lon="3.34663">
        <ele>1285.061878</ele>
        <time>2021-04-30T04:26:14.086Z</time>
      </trkpt>
      <trkpt lat="44.98203" lon="3.34677">
        <ele>1283.810973</ele>
        <time>2021-04-30T04:26:25.017Z</time>
      </trkpt>
      <trkpt lat="44.9818" lon="3.34673">
        <ele>1283.266403</ele>
        <time>2021-04-30T04:26:30.608Z</time>
      </trkpt>
      <trkpt lat="44.98113" lon="3.34644">
        <ele>1286.145645</ele>
        <time>2021-04-30T04:26:54.151Z</time>
      </trkpt>
      <trkpt lat="44.98094" lon="3.34645">
        <ele>1287.021832</ele>
        <time>2021-04-30T04:27:02.396Z</time>
      </trkpt>
      <trkpt lat="44.98085" lon="3.34655">
        <ele>1287.574628</ele>
        <time>2021-04-30T04:27:06.729Z</time>
      </trkpt>
      <trkpt lat="44.98084" lon="3.34662">
        <ele>1287.779934</ele>
        <time>2021-04-30T04:27:09.139Z</time>
      </trkpt>
      <trkpt lat="44.98082" lon="3.34669">
        <ele>1288.037732</ele>
        <time>2021-04-30T04:27:11.617Z</time>
      </trkpt>
      <trkpt lat="44.98081" lon="3.34676">
        <ele>1288.258702</ele>
        <time>2021-04-30T04:27:14.833Z</time>
      </trkpt>
      <trkpt lat="44.98083" lon="3.34689">
        <ele>1288.701857</ele>
        <time>2021-04-30T04:27:18.604Z</time>
      </trkpt>
      <trkpt lat="44.98094" lon="3.34706">
        <ele>1289.452802</ele>
        <time>2021-04-30T04:27:26.089Z</time>
      </trkpt>
      <trkpt lat="44.98117" lon="3.34727">
        <ele>1290.694643</ele>
        <time>2021-04-30T04:27:39.522Z</time>
      </trkpt>
      <trkpt lat="44.98136" lon="3.34755">
        <ele>1292.367506</ele>
        <time>2021-04-30T04:27:54.740Z</time>
      </trkpt>
      <trkpt lat="44.982" lon="3.34815">
        <ele>1298.503127</ele>
        <time>2021-04-30T04:28:39.016Z</time>
      </trkpt>
      <trkpt lat="44.9828" lon="3.34877">
        <ele>1305.713159</ele>
        <time>2021-04-30T04:29:28.984Z</time>
      </trkpt>
      <trkpt lat="44.98321" lon="3.34932">
        <ele>1309.457434</ele>
        <time>2021-04-30T04:29:59.450Z</time>
      </trkpt>
      <trkpt lat="44.98343" lon="3.3497">
        <ele>1311.75123</ele>
        <time>2021-04-30T04:30:17.328Z</time>
      </trkpt>
      <trkpt lat="44.98364" lon="3.35032">
        <ele>1314.992192</ele>
        <time>2021-04-30T04:30:41.246Z</time>
      </trkpt>
      <trkpt lat="44.98383" lon="3.35061">
        <ele>1316.84686</ele>
        <time>2021-04-30T04:30:54.203Z</time>
      </trkpt>
      <trkpt lat="44.98413" lon="3.35083">
        <ele>1318.51259</ele>
        <time>2021-04-30T04:31:08.853Z</time>
      </trkpt>
      <trkpt lat="44.9851" lon="3.35117">
        <ele>1322.53116</ele>
        <time>2021-04-30T04:31:46.839Z</time>
      </trkpt>
      <trkpt lat="44.98564" lon="3.35171">
        <ele>1325.352657</ele>
        <time>2021-04-30T04:32:10.377Z</time>
      </trkpt>
      <trkpt lat="44.98587" lon="3.35214">
        <ele>1327.578374</ele>
        <time>2021-04-30T04:32:25.786Z</time>
      </trkpt>
      <trkpt lat="44.98589" lon="3.35239">
        <ele>1328.645671</ele>
        <time>2021-04-30T04:32:35.142Z</time>
      </trkpt>
      <trkpt lat="44.98583" lon="3.35266">
        <ele>1329.813241</ele>
        <time>2021-04-30T04:32:43.678Z</time>
      </trkpt>
      <trkpt lat="44.9857" lon="3.35294">
        <ele>1331.170368</ele>
        <time>2021-04-30T04:32:55.385Z</time>
      </trkpt>
      <trkpt lat="44.98562" lon="3.353">
        <ele>1331.730498</ele>
        <time>2021-04-30T04:32:59.179Z</time>
      </trkpt>
      <trkpt lat="44.98549" lon="3.3531">
        <ele>1332.590345</ele>
        <time>2021-04-30T04:33:08.012Z</time>
      </trkpt>
      <trkpt lat="44.98515" lon="3.35334">
        <ele>1334.769594</ele>
        <time>2021-04-30T04:33:26.747Z</time>
      </trkpt>
      <trkpt lat="44.98469" lon="3.3536">
        <ele>1338.586749</ele>
        <time>2021-04-30T04:33:52.244Z</time>
      </trkpt>
      <trkpt lat="44.98453" lon="3.3537">
        <ele>1340.067045</ele>
        <time>2021-04-30T04:34:02.972Z</time>
      </trkpt>
      <trkpt lat="44.98379" lon="3.35411">
        <ele>1346.558001</ele>
        <time>2021-04-30T04:34:48.369Z</time>
      </trkpt>
      <trkpt lat="44.98367" lon="3.35415">
        <ele>1347.503209</ele>
        <time>2021-04-30T04:34:55.300Z</time>
      </trkpt>
      <trkpt lat="44.98247" lon="3.35481">
        <ele>1358.02289</ele>
        <time>2021-04-30T04:36:09.228Z</time>
      </trkpt>
      <trkpt lat="44.98211" lon="3.35499">
        <ele>1361.095973</ele>
        <time>2021-04-30T04:36:29.916Z</time>
      </trkpt>
      <trkpt lat="44.98192" lon="3.35508">
        <ele>1362.73125</ele>
        <time>2021-04-30T04:36:41.279Z</time>
      </trkpt>
      <trkpt lat="44.98057" lon="3.3558">
        <ele>1372.582529</ele>
        <time>2021-04-30T04:37:55.964Z</time>
      </trkpt>
      <trkpt lat="44.97972" lon="3.3564">
        <ele>1377.969207</ele>
        <time>2021-04-30T04:38:38.532Z</time>
      </trkpt>
      <trkpt lat="44.97949" lon="3.3565">
        <ele>1378.975562</ele>
        <time>2021-04-30T04:38:48.670Z</time>
      </trkpt>
      <trkpt lat="44.97933" lon="3.35656">
        <ele>1379.666218</ele>
        <time>2021-04-30T04:38:55.653Z</time>
      </trkpt>
      <trkpt lat="44.97916" lon="3.35659">
        <ele>1380.380324</ele>
        <time>2021-04-30T04:39:02.381Z</time>
      </trkpt>
      <trkpt lat="44.97922" lon="3.35673">
        <ele>1380.859932</ele>
        <time>2021-04-30T04:39:08.334Z</time>
      </trkpt>
      <trkpt lat="44.97918" lon="3.35676">
        <ele>1381.051721</ele>
        <time>2021-04-30T04:39:11.192Z</time>
      </trkpt>
      <trkpt lat="44.97844" lon="3.35699">
        <ele>1384.106216</ele>
        <time>2021-04-30T04:39:50.669Z</time>
      </trkpt>
      <trkpt lat="44.97712" lon="3.35796">
        <ele>1386.935398</ele>
        <time>2021-04-30T04:40:55.934Z</time>
      </trkpt>
      <trkpt lat="44.97674" lon="3.35842">
        <ele>1387.922722</ele>
        <time>2021-04-30T04:41:16.107Z</time>
      </trkpt>
      <trkpt lat="44.97594" lon="3.36012">
        <ele>1390.877002</ele>
        <time>2021-04-30T04:42:20.474Z</time>
      </trkpt>
      <trkpt lat="44.97564" lon="3.36082">
        <ele>1393.380629</ele>
        <time>2021-04-30T04:42:50.767Z</time>
      </trkpt>
      <trkpt lat="44.97546" lon="3.36122">
        <ele>1395.003659</ele>
        <time>2021-04-30T04:43:09.698Z</time>
      </trkpt>
      <trkpt lat="44.97515" lon="3.36176">
        <ele>1397.391215</ele>
        <time>2021-04-30T04:43:38.571Z</time>
      </trkpt>
      <trkpt lat="44.9751" lon="3.36278">
        <ele>1400.810829</ele>
        <time>2021-04-30T04:44:23.783Z</time>
      </trkpt>
      <trkpt lat="44.97495" lon="3.36308">
        <ele>1401.978451</ele>
        <time>2021-04-30T04:44:39.503Z</time>
      </trkpt>
      <trkpt lat="44.97456" lon="3.36331">
        <ele>1403.86498</ele>
        <time>2021-04-30T04:45:03.426Z</time>
      </trkpt>
      <trkpt lat="44.97452" lon="3.36333">
        <ele>1404.03384</ele>
        <time>2021-04-30T04:45:06.026Z</time>
      </trkpt>
      <trkpt lat="44.97382" lon="3.36318">
        <ele>1407.227192</ele>
        <time>2021-04-30T04:45:43.185Z</time>
      </trkpt>
      <trkpt lat="44.97178" lon="3.3624">
        <ele>1413.066268</ele>
        <time>2021-04-30T04:47:19.065Z</time>
      </trkpt>
      <trkpt lat="44.97139" lon="3.36243">
        <ele>1415.127055</ele>
        <time>2021-04-30T04:47:39.528Z</time>
      </trkpt>
      <trkpt lat="44.97165" lon="3.36274">
        <ele>1416.911075</ele>
        <time>2021-04-30T04:47:58.606Z</time>
      </trkpt>
      <trkpt lat="44.9738" lon="3.36512">
        <ele>1434.555483</ele>
        <time>2021-04-30T04:50:56.982Z</time>
      </trkpt>
      <trkpt lat="44.9755" lon="3.36716">
        <ele>1450.169449</ele>
        <time>2021-04-30T04:53:24.775Z</time>
      </trkpt>
      <trkpt lat="44.97569" lon="3.36738">
        <ele>1451.658576</ele>
        <time>2021-04-30T04:53:40.437Z</time>
      </trkpt>
      <trkpt lat="44.97619" lon="3.36798">
        <ele>1455.728218</ele>
        <time>2021-04-30T04:54:20.884Z</time>
      </trkpt>
      <trkpt lat="44.97668" lon="3.36845">
        <ele>1458.958642</ele>
        <time>2021-04-30T04:54:54.827Z</time>
      </trkpt>
      <trkpt lat="44.97728" lon="3.3693">
        <ele>1462.050652</ele>
        <time>2021-04-30T04:55:40.077Z</time>
      </trkpt>
      <trkpt lat="44.97766" lon="3.37018">
        <ele>1464.71584</ele>
        <time>2021-04-30T04:56:15.320Z</time>
      </trkpt>
      <trkpt lat="44.97774" lon="3.37043">
        <ele>1465.085518</ele>
        <time>2021-04-30T04:56:24.620Z</time>
      </trkpt>
      <trkpt lat="44.97796" lon="3.37127">
        <ele>1465.853596</ele>
        <time>2021-04-30T04:56:53.247Z</time>
      </trkpt>
      <trkpt lat="44.97808" lon="3.37202">
        <ele>1466.518028</ele>
        <time>2021-04-30T04:57:16.135Z</time>
      </trkpt>
      <trkpt lat="44.97804" lon="3.37264">
        <ele>1467.048142</ele>
        <time>2021-04-30T04:57:33.091Z</time>
      </trkpt>
      <trkpt lat="44.97793" lon="3.37333">
        <ele>1465.899454</ele>
        <time>2021-04-30T04:57:50.111Z</time>
      </trkpt>
      <trkpt lat="44.9779" lon="3.37414">
        <ele>1464.383382</ele>
        <time>2021-04-30T04:58:08.138Z</time>
      </trkpt>
      <trkpt lat="44.97795" lon="3.37462">
        <ele>1463.488578</ele>
        <time>2021-04-30T04:58:18.120Z</time>
      </trkpt>
      <trkpt lat="44.97812" lon="3.37519">
        <ele>1462.302029</ele>
        <time>2021-04-30T04:58:30.383Z</time>
      </trkpt>
      <trkpt lat="44.97844" lon="3.3759">
        <ele>1458.836162</ele>
        <time>2021-04-30T04:58:46.606Z</time>
      </trkpt>
      <trkpt lat="44.97899" lon="3.37688">
        <ele>1453.756012</ele>
        <time>2021-04-30T04:59:09.412Z</time>
      </trkpt>
      <trkpt lat="44.97949" lon="3.37873">
        <ele>1450.806979</ele>
        <time>2021-04-30T04:59:49.302Z</time>
      </trkpt>
      <trkpt lat="44.97952" lon="3.37875">
        <ele>1450.770998</ele>
        <time>2021-04-30T04:59:50.067Z</time>
      </trkpt>
      <trkpt lat="44.97944" lon="3.37881">
        <ele>1450.672235</ele>
        <time>2021-04-30T04:59:54.180Z</time>
      </trkpt>
      <trkpt lat="44.97905" lon="3.37909">
        <ele>1450.19727</ele>
        <time>2021-04-30T05:00:14.987Z</time>
      </trkpt>
      <trkpt lat="44.97898" lon="3.37908">
        <ele>1450.123735</ele>
        <time>2021-04-30T05:00:18.958Z</time>
      </trkpt>
      <trkpt lat="44.97868" lon="3.37851">
        <ele>1453.805069</ele>
        <time>2021-04-30T05:00:49.646Z</time>
      </trkpt>
      <trkpt lat="44.97819" lon="3.37753">
        <ele>1461.331777</ele>
        <time>2021-04-30T05:01:57.765Z</time>
      </trkpt>
      <trkpt lat="44.97753" lon="3.37623">
        <ele>1470.273883</ele>
        <time>2021-04-30T05:03:27.075Z</time>
      </trkpt>
      <trkpt lat="44.97674" lon="3.37469">
        <ele>1478.735817</ele>
        <time>2021-04-30T05:04:47.659Z</time>
      </trkpt>
      <trkpt lat="44.97619" lon="3.3736">
        <ele>1479.654276</ele>
        <time>2021-04-30T05:05:29.231Z</time>
      </trkpt>
      <trkpt lat="44.97594" lon="3.37312">
        <ele>1480.053852</ele>
        <time>2021-04-30T05:05:43.976Z</time>
      </trkpt>
      <trkpt lat="44.97585" lon="3.37305">
        <ele>1480.15765</ele>
        <time>2021-04-30T05:05:47.336Z</time>
      </trkpt>
      <trkpt lat="44.9758" lon="3.37301">
        <ele>1480.211541</ele>
        <time>2021-04-30T05:05:49.064Z</time>
      </trkpt>
      <trkpt lat="44.97575" lon="3.37291">
        <ele>1480.294815</ele>
        <time>2021-04-30T05:05:52.124Z</time>
      </trkpt>
      <trkpt lat="44.97569" lon="3.37282">
        <ele>1480.031809</ele>
        <time>2021-04-30T05:05:55.093Z</time>
      </trkpt>
      <trkpt lat="44.97553" lon="3.37273">
        <ele>1479.219943</ele>
        <time>2021-04-30T05:06:00.232Z</time>
      </trkpt>
      <trkpt lat="44.97281" lon="3.37126">
        <ele>1464.633344</ele>
        <time>2021-04-30T05:07:19.098Z</time>
      </trkpt>
      <trkpt lat="44.97114" lon="3.37068">
        <ele>1455.307689</ele>
        <time>2021-04-30T05:08:05.525Z</time>
      </trkpt>
      <trkpt lat="44.97103" lon="3.37077">
        <ele>1454.6088</ele>
        <time>2021-04-30T05:08:09.033Z</time>
      </trkpt>
      <trkpt lat="44.97098" lon="3.37065">
        <ele>1454.085388</ele>
        <time>2021-04-30T05:08:11.730Z</time>
      </trkpt>
      <trkpt lat="44.97011" lon="3.37018">
        <ele>1449.204344</ele>
        <time>2021-04-30T05:08:37.418Z</time>
      </trkpt>
      <trkpt lat="44.96973" lon="3.36991">
        <ele>1447.021867</ele>
        <time>2021-04-30T05:08:49.124Z</time>
      </trkpt>
      <trkpt lat="44.96983" lon="3.36913">
        <ele>1444.132417</ele>
        <time>2021-04-30T05:09:04.618Z</time>
      </trkpt>
      <trkpt lat="44.97019" lon="3.36805">
        <ele>1437.933323</ele>
        <time>2021-04-30T05:09:27.104Z</time>
      </trkpt>
      <trkpt lat="44.97026" lon="3.36752">
        <ele>1434.908395</ele>
        <time>2021-04-30T05:09:36.949Z</time>
      </trkpt>
      <trkpt lat="44.97007" lon="3.36491">
        <ele>1417.319779</ele>
        <time>2021-04-30T05:10:22.593Z</time>
      </trkpt>
      <trkpt lat="44.96997" lon="3.36409">
        <ele>1411.105023</ele>
        <time>2021-04-30T05:10:36.740Z</time>
      </trkpt>
      <trkpt lat="44.96999" lon="3.3633">
        <ele>1404.759314</ele>
        <time>2021-04-30T05:10:50.355Z</time>
      </trkpt>
      <trkpt lat="44.96999" lon="3.36319">
        <ele>1403.862666</ele>
        <time>2021-04-30T05:10:52.159Z</time>
      </trkpt>
      <trkpt lat="44.96951" lon="3.36221">
        <ele>1394.038259</ele>
        <time>2021-04-30T05:11:12.498Z</time>
      </trkpt>
      <trkpt lat="44.96898" lon="3.36193">
        <ele>1387.644814</ele>
        <time>2021-04-30T05:11:25.900Z</time>
      </trkpt>
      <trkpt lat="44.96874" lon="3.36174">
        <ele>1384.840015</ele>
        <time>2021-04-30T05:11:32.467Z</time>
      </trkpt>
      <trkpt lat="44.9687" lon="3.36178">
        <ele>1384.350422</ele>
        <time>2021-04-30T05:11:33.577Z</time>
      </trkpt>
      <trkpt lat="44.96843" lon="3.36203">
        <ele>1381.070821</ele>
        <time>2021-04-30T05:11:41.409Z</time>
      </trkpt>
      <trkpt lat="44.96832" lon="3.36218">
        <ele>1379.47819</ele>
        <time>2021-04-30T05:11:45.246Z</time>
      </trkpt>
      <trkpt lat="44.96819" lon="3.36235">
        <ele>1377.659425</ele>
        <time>2021-04-30T05:11:49.550Z</time>
      </trkpt>
      <trkpt lat="44.96802" lon="3.36292">
        <ele>1373.223956</ele>
        <time>2021-04-30T05:12:00.220Z</time>
      </trkpt>
      <trkpt lat="44.96793" lon="3.36411">
        <ele>1367.104614</ele>
        <time>2021-04-30T05:12:21.967Z</time>
      </trkpt>
      <trkpt lat="44.96792" lon="3.36501">
        <ele>1363.35364</ele>
        <time>2021-04-30T05:12:39.567Z</time>
      </trkpt>
      <trkpt lat="44.96784" lon="3.3655">
        <ele>1361.294027</ele>
        <time>2021-04-30T05:12:49.647Z</time>
      </trkpt>
      <trkpt lat="44.96772" lon="3.36572">
        <ele>1360.128214</ele>
        <time>2021-04-30T05:12:55.346Z</time>
      </trkpt>
      <trkpt lat="44.96746" lon="3.36603">
        <ele>1357.805865</ele>
        <time>2021-04-30T05:13:04.858Z</time>
      </trkpt>
      <trkpt lat="44.96717" lon="3.36617">
        <ele>1355.709792</ele>
        <time>2021-04-30T05:13:13.134Z</time>
      </trkpt>
      <trkpt lat="44.96635" lon="3.3661">
        <ele>1350.001984</ele>
        <time>2021-04-30T05:13:34.741Z</time>
      </trkpt>
      <trkpt lat="44.96611" lon="3.36613">
        <ele>1348.374982</ele>
        <time>2021-04-30T05:13:40.696Z</time>
      </trkpt>
      <trkpt lat="44.96369" lon="3.36725">
        <ele>1318.278771</ele>
        <time>2021-04-30T05:14:41.548Z</time>
      </trkpt>
      <trkpt lat="44.96263" lon="3.36754">
        <ele>1303.172226</ele>
        <time>2021-04-30T05:15:06.484Z</time>
      </trkpt>
      <trkpt lat="44.96239" lon="3.36751">
        <ele>1299.624681</ele>
        <time>2021-04-30T05:15:12.069Z</time>
      </trkpt>
      <trkpt lat="44.96222" lon="3.36764">
        <ele>1296.761613</ele>
        <time>2021-04-30T05:15:16.503Z</time>
      </trkpt>
      <trkpt lat="44.96211" lon="3.36778">
        <ele>1294.600108</ele>
        <time>2021-04-30T05:15:19.805Z</time>
      </trkpt>
      <trkpt lat="44.96205" lon="3.36782">
        <ele>1293.551521</ele>
        <time>2021-04-30T05:15:20.752Z</time>
      </trkpt>
      <trkpt lat="44.96196" lon="3.36776">
        <ele>1292.088974</ele>
        <time>2021-04-30T05:15:22.090Z</time>
      </trkpt>
      <trkpt lat="44.96199" lon="3.36757">
        <ele>1290.088349</ele>
        <time>2021-04-30T05:15:23.910Z</time>
      </trkpt>
      <trkpt lat="44.96192" lon="3.36748">
        <ele>1288.687273</ele>
        <time>2021-04-30T05:15:25.185Z</time>
      </trkpt>
      <trkpt lat="44.96178" lon="3.36731">
        <ele>1285.909527</ele>
        <time>2021-04-30T05:15:27.734Z</time>
      </trkpt>
      <trkpt lat="44.96174" lon="3.36724">
        <ele>1284.982233</ele>
        <time>2021-04-30T05:15:28.582Z</time>
      </trkpt>
      <trkpt lat="44.96173" lon="3.36716">
        <ele>1284.055563</ele>
        <time>2021-04-30T05:15:29.413Z</time>
      </trkpt>
      <trkpt lat="44.96161" lon="3.36715">
        <ele>1282.39842</ele>
        <time>2021-04-30T05:15:30.923Z</time>
      </trkpt>
      <trkpt lat="44.96151" lon="3.36721">
        <ele>1280.736052</ele>
        <time>2021-04-30T05:15:32.463Z</time>
      </trkpt>
      <trkpt lat="44.96134" lon="3.36765">
        <ele>1275.510731</ele>
        <time>2021-04-30T05:15:37.243Z</time>
      </trkpt>
      <trkpt lat="44.96126" lon="3.36773">
        <ele>1274.262006</ele>
        <time>2021-04-30T05:15:38.680Z</time>
      </trkpt>
      <trkpt lat="44.96096" lon="3.36834">
        <ele>1268.450645</ele>
        <time>2021-04-30T05:15:45.956Z</time>
      </trkpt>
      <trkpt lat="44.96027" lon="3.36931">
        <ele>1257.674797</ele>
        <time>2021-04-30T05:15:59.679Z</time>
      </trkpt>
      <trkpt lat="44.95842" lon="3.36973">
        <ele>1243.445257</ele>
        <time>2021-04-30T05:16:27.357Z</time>
      </trkpt>
      <trkpt lat="44.95838" lon="3.36972">
        <ele>1243.168697</ele>
        <time>2021-04-30T05:16:27.888Z</time>
      </trkpt>
      <trkpt lat="44.95814" lon="3.36999">
        <ele>1241.964119</ele>
        <time>2021-04-30T05:16:33.295Z</time>
      </trkpt>
      <trkpt lat="44.95758" lon="3.37025">
        <ele>1240.717783</ele>
        <time>2021-04-30T05:16:43.541Z</time>
      </trkpt>
      <trkpt lat="44.95737" lon="3.37032">
        <ele>1240.266057</ele>
        <time>2021-04-30T05:16:47.307Z</time>
      </trkpt>
      <trkpt lat="44.95728" lon="3.37035">
        <ele>1240.058596</ele>
        <time>2021-04-30T05:16:49.705Z</time>
      </trkpt>
      <trkpt lat="44.95619" lon="3.37096">
        <ele>1237.800087</ele>
        <time>2021-04-30T05:17:16.676Z</time>
      </trkpt>
      <trkpt lat="44.95547" lon="3.37103">
        <ele>1236.620722</ele>
        <time>2021-04-30T05:17:30.901Z</time>
      </trkpt>
      <trkpt lat="44.95494" lon="3.37116">
        <ele>1235.735173</ele>
        <time>2021-04-30T05:17:40.306Z</time>
      </trkpt>
      <trkpt lat="44.9544" lon="3.37145">
        <ele>1233.079874</ele>
        <time>2021-04-30T05:17:49.767Z</time>
      </trkpt>
      <trkpt lat="44.95406" lon="3.37175">
        <ele>1231.101229</ele>
        <time>2021-04-30T05:17:56.079Z</time>
      </trkpt>
      <trkpt lat="44.95341" lon="3.37249">
        <ele>1226.945186</ele>
        <time>2021-04-30T05:18:09.017Z</time>
      </trkpt>
      <trkpt lat="44.95314" lon="3.3727">
        <ele>1225.099737</ele>
        <time>2021-04-30T05:18:13.770Z</time>
      </trkpt>
      <trkpt lat="44.95302" lon="3.37292">
        <ele>1223.874032</ele>
        <time>2021-04-30T05:18:16.825Z</time>
      </trkpt>
      <trkpt lat="44.95285" lon="3.37349">
        <ele>1221.203207</ele>
        <time>2021-04-30T05:18:23.483Z</time>
      </trkpt>
      <trkpt lat="44.95215" lon="3.37393">
        <ele>1216.509989</ele>
        <time>2021-04-30T05:18:35.166Z</time>
      </trkpt>
      <trkpt lat="44.9515" lon="3.37461">
        <ele>1211.047453</ele>
        <time>2021-04-30T05:18:47.488Z</time>
      </trkpt>
      <trkpt lat="44.95083" lon="3.37538">
        <ele>1205.051888</ele>
        <time>2021-04-30T05:19:00.541Z</time>
      </trkpt>
      <trkpt lat="44.95058" lon="3.3758">
        <ele>1202.335827</ele>
        <time>2021-04-30T05:19:06.296Z</time>
      </trkpt>
      <trkpt lat="44.9501" lon="3.37642">
        <ele>1197.573158</ele>
        <time>2021-04-30T05:19:15.934Z</time>
      </trkpt>
      <trkpt lat="44.94922" lon="3.37725">
        <ele>1189.836482</ele>
        <time>2021-04-30T05:19:31.799Z</time>
      </trkpt>
      <trkpt lat="44.94901" lon="3.37754">
        <ele>1187.913327</ele>
        <time>2021-04-30T05:19:36.076Z</time>
      </trkpt>
      <trkpt lat="44.94866" lon="3.37785">
        <ele>1185.228968</ele>
        <time>2021-04-30T05:19:42.196Z</time>
      </trkpt>
      <trkpt lat="44.94843" lon="3.37813">
        <ele>1183.181292</ele>
        <time>2021-04-30T05:19:46.881Z</time>
      </trkpt>
      <trkpt lat="44.94805" lon="3.37857">
        <ele>1179.921913</ele>
        <time>2021-04-30T05:19:54.470Z</time>
      </trkpt>
      <trkpt lat="44.94798" lon="3.37859">
        <ele>1179.466786</ele>
        <time>2021-04-30T05:19:55.489Z</time>
      </trkpt>
      <trkpt lat="44.9479" lon="3.37873">
        <ele>1178.637908</ele>
        <time>2021-04-30T05:19:57.401Z</time>
      </trkpt>
      <trkpt lat="44.94776" lon="3.37916">
        <ele>1176.650753</ele>
        <time>2021-04-30T05:20:02.724Z</time>
      </trkpt>
      <trkpt lat="44.94746" lon="3.37965">
        <ele>1174.053903</ele>
        <time>2021-04-30T05:20:09.958Z</time>
      </trkpt>
      <trkpt lat="44.94727" lon="3.38007">
        <ele>1172.073945</ele>
        <time>2021-04-30T05:20:15.430Z</time>
      </trkpt>
      <trkpt lat="44.94724" lon="3.38017">
        <ele>1171.638396</ele>
        <time>2021-04-30T05:20:16.585Z</time>
      </trkpt>
      <trkpt lat="44.94719" lon="3.38037">
        <ele>1170.744459</ele>
        <time>2021-04-30T05:20:19.074Z</time>
      </trkpt>
      <trkpt lat="44.94716" lon="3.38045">
        <ele>1170.424329</ele>
        <time>2021-04-30T05:20:19.936Z</time>
      </trkpt>
      <trkpt lat="44.94707" lon="3.38063">
        <ele>1169.493251</ele>
        <time>2021-04-30T05:20:22.458Z</time>
      </trkpt>
      <trkpt lat="44.9472" lon="3.38073">
        <ele>1168.623879</ele>
        <time>2021-04-30T05:20:25.123Z</time>
      </trkpt>
      <trkpt lat="44.94728" lon="3.38076">
        <ele>1168.199128</ele>
        <time>2021-04-30T05:20:26.309Z</time>
      </trkpt>
      <trkpt lat="44.9472" lon="3.38073">
        <ele>1167.717379</ele>
        <time>2021-04-30T05:20:27.373Z</time>
      </trkpt>
      <trkpt lat="44.94707" lon="3.38063">
        <ele>1166.585812</ele>
        <time>2021-04-30T05:20:29.694Z</time>
      </trkpt>
      <trkpt lat="44.94695" lon="3.38089">
        <ele>1164.985103</ele>
        <time>2021-04-30T05:20:32.916Z</time>
      </trkpt>
      <trkpt lat="44.94687" lon="3.38111">
        <ele>1163.700956</ele>
        <time>2021-04-30T05:20:35.652Z</time>
      </trkpt>
      <trkpt lat="44.94679" lon="3.38133">
        <ele>1162.417566</ele>
        <time>2021-04-30T05:20:38.218Z</time>
      </trkpt>
      <trkpt lat="44.94691" lon="3.38164">
        <ele>1160.574437</ele>
        <time>2021-04-30T05:20:41.994Z</time>
      </trkpt>
      <trkpt lat="44.94693" lon="3.38172">
        <ele>1160.098838</ele>
        <time>2021-04-30T05:20:42.956Z</time>
      </trkpt>
      <trkpt lat="44.94707" lon="3.38224">
        <ele>1157.220825</ele>
        <time>2021-04-30T05:20:48.774Z</time>
      </trkpt>
      <trkpt lat="44.94708" lon="3.38229">
        <ele>1156.947334</ele>
        <time>2021-04-30T05:20:49.265Z</time>
      </trkpt>
      <trkpt lat="44.94711" lon="3.38282">
        <ele>1154.132276</ele>
        <time>2021-04-30T05:20:54.741Z</time>
      </trkpt>
      <trkpt lat="44.94707" lon="3.38313">
        <ele>1152.331352</ele>
        <time>2021-04-30T05:20:58.166Z</time>
      </trkpt>
      <trkpt lat="44.94697" lon="3.38335">
        <ele>1150.851387</ele>
        <time>2021-04-30T05:21:00.808Z</time>
      </trkpt>
      <trkpt lat="44.94673" lon="3.38353">
        <ele>1148.687093</ele>
        <time>2021-04-30T05:21:04.780Z</time>
      </trkpt>
      <trkpt lat="44.9464" lon="3.38338">
        <ele>1145.926267</ele>
        <time>2021-04-30T05:21:09.873Z</time>
      </trkpt>
      <trkpt lat="44.94621" lon="3.38349">
        <ele>1144.272863</ele>
        <time>2021-04-30T05:21:12.872Z</time>
      </trkpt>
      <trkpt lat="44.94619" lon="3.38358">
        <ele>1143.786341</ele>
        <time>2021-04-30T05:21:13.791Z</time>
      </trkpt>
      <trkpt lat="44.94624" lon="3.38455">
        <ele>1138.781458</ele>
        <time>2021-04-30T05:21:24.281Z</time>
      </trkpt>
      <trkpt lat="44.94687" lon="3.38642">
        <ele>1129.895578</ele>
        <time>2021-04-30T05:21:46.929Z</time>
      </trkpt>
      <trkpt lat="44.94724" lon="3.38799">
        <ele>1122.68121</ele>
        <time>2021-04-30T05:22:05.001Z</time>
      </trkpt>
      <trkpt lat="44.9472" lon="3.38874">
        <ele>1119.372654</ele>
        <time>2021-04-30T05:22:13.143Z</time>
      </trkpt>
      <trkpt lat="44.94709" lon="3.38894">
        <ele>1118.258475</ele>
        <time>2021-04-30T05:22:15.885Z</time>
      </trkpt>
      <trkpt lat="44.946" lon="3.38996">
        <ele>1110.859814</ele>
        <time>2021-04-30T05:22:35.733Z</time>
      </trkpt>
      <trkpt lat="44.94588" lon="3.39023">
        <ele>1109.607452</ele>
        <time>2021-04-30T05:22:39.248Z</time>
      </trkpt>
      <trkpt lat="44.94582" lon="3.39052">
        <ele>1108.393362</ele>
        <time>2021-04-30T05:22:42.739Z</time>
      </trkpt>
      <trkpt lat="44.94584" lon="3.39093">
        <ele>1108.276393</ele>
        <time>2021-04-30T05:22:47.758Z</time>
      </trkpt>
      <trkpt lat="44.94567" lon="3.39163">
        <ele>1108.563913</ele>
        <time>2021-04-30T05:22:57.386Z</time>
      </trkpt>
      <trkpt lat="44.94545" lon="3.39232">
        <ele>1108.856322</ele>
        <time>2021-04-30T05:23:11.924Z</time>
      </trkpt>
      <trkpt lat="44.94504" lon="3.39312">
        <ele>1110.852791</ele>
        <time>2021-04-30T05:23:42.196Z</time>
      </trkpt>
      <trkpt lat="44.94512" lon="3.3936">
        <ele>1113.701686</ele>
        <time>2021-04-30T05:23:59.486Z</time>
      </trkpt>
      <trkpt lat="44.94521" lon="3.39411">
        <ele>1116.76478</ele>
        <time>2021-04-30T05:24:21.005Z</time>
      </trkpt>
      <trkpt lat="44.94524" lon="3.39423">
        <ele>1117.524158</ele>
        <time>2021-04-30T05:24:28.307Z</time>
      </trkpt>
      <trkpt lat="44.94528" lon="3.39462">
        <ele>1119.859545</ele>
        <time>2021-04-30T05:24:44.523Z</time>
      </trkpt>
      <trkpt lat="44.94524" lon="3.39481">
        <ele>1121.009737</ele>
        <time>2021-04-30T05:24:53.415Z</time>
      </trkpt>
      <trkpt lat="44.94499" lon="3.39547">
        <ele>1125.581042</ele>
        <time>2021-04-30T05:25:25.444Z</time>
      </trkpt>
      <trkpt lat="44.94475" lon="3.39586">
        <ele>1128.950006</ele>
        <time>2021-04-30T05:25:50.039Z</time>
      </trkpt>
      <trkpt lat="44.94472" lon="3.39588">
        <ele>1129.314794</ele>
        <time>2021-04-30T05:25:54.487Z</time>
      </trkpt>
      <trkpt lat="44.9444" lon="3.396">
        <ele>1132.403387</ele>
        <time>2021-04-30T05:26:14.040Z</time>
      </trkpt>
      <trkpt lat="44.94406" lon="3.39618">
        <ele>1135.832441</ele>
        <time>2021-04-30T05:26:35.354Z</time>
      </trkpt>
      <trkpt lat="44.94352" lon="3.39643">
        <ele>1141.070582</ele>
        <time>2021-04-30T05:27:08.312Z</time>
      </trkpt>
      <trkpt lat="44.9417" lon="3.39801">
        <ele>1157.2876</ele>
        <time>2021-04-30T05:29:01.347Z</time>
      </trkpt>
      <trkpt lat="44.94147" lon="3.39831">
        <ele>1159.617067</ele>
        <time>2021-04-30T05:29:17.654Z</time>
      </trkpt>
      <trkpt lat="44.94127" lon="3.39868">
        <ele>1162.091367</ele>
        <time>2021-04-30T05:29:35.031Z</time>
      </trkpt>
      <trkpt lat="44.94116" lon="3.39907">
        <ele>1164.337538</ele>
        <time>2021-04-30T05:29:50.909Z</time>
      </trkpt>
      <trkpt lat="44.94072" lon="3.39988">
        <ele>1169.570893</ele>
        <time>2021-04-30T05:30:29.738Z</time>
      </trkpt>
      <trkpt lat="44.94066" lon="3.40013">
        <ele>1170.890676</ele>
        <time>2021-04-30T05:30:40.401Z</time>
      </trkpt>
      <trkpt lat="44.94072" lon="3.40082">
        <ele>1174.261825</ele>
        <time>2021-04-30T05:31:06.844Z</time>
      </trkpt>
      <trkpt lat="44.94067" lon="3.401">
        <ele>1175.189714</ele>
        <time>2021-04-30T05:31:13.319Z</time>
      </trkpt>
      <trkpt lat="44.94057" lon="3.40104">
        <ele>1175.921897</ele>
        <time>2021-04-30T05:31:19.063Z</time>
      </trkpt>
      <trkpt lat="44.94034" lon="3.40089">
        <ele>1177.651922</ele>
        <time>2021-04-30T05:31:31.058Z</time>
      </trkpt>
      <trkpt lat="44.94015" lon="3.40075">
        <ele>1179.119232</ele>
        <time>2021-04-30T05:31:41.672Z</time>
      </trkpt>
      <trkpt lat="44.93989" lon="3.40057">
        <ele>1180.781126</ele>
        <time>2021-04-30T05:31:54.807Z</time>
      </trkpt>
      <trkpt lat="44.93951" lon="3.40038">
        <ele>1182.331754</ele>
        <time>2021-04-30T05:32:12.347Z</time>
      </trkpt>
      <trkpt lat="44.9392" lon="3.40034">
        <ele>1183.504209</ele>
        <time>2021-04-30T05:32:24.737Z</time>
      </trkpt>
      <trkpt lat="44.93825" lon="3.40039">
        <ele>1187.120888</ele>
        <time>2021-04-30T05:32:57.299Z</time>
      </trkpt>
      <trkpt lat="44.93798" lon="3.40057">
        <ele>1188.362956</ele>
        <time>2021-04-30T05:33:06.981Z</time>
      </trkpt>
      <trkpt lat="44.93754" lon="3.40124">
        <ele>1190.997554</ele>
        <time>2021-04-30T05:33:29.396Z</time>
      </trkpt>
      <trkpt lat="44.93714" lon="3.40148">
        <ele>1192.763877</ele>
        <time>2021-04-30T05:33:47.622Z</time>
      </trkpt>
      <trkpt lat="44.93704" lon="3.4016">
        <ele>1193.318564</ele>
        <time>2021-04-30T05:33:52.695Z</time>
      </trkpt>
      <trkpt lat="44.93693" lon="3.40179">
        <ele>1194.025726</ele>
        <time>2021-04-30T05:34:00.706Z</time>
      </trkpt>
      <trkpt lat="44.93686" lon="3.40219">
        <ele>1195.912794</ele>
        <time>2021-04-30T05:34:14.788Z</time>
      </trkpt>
      <trkpt lat="44.93684" lon="3.40221">
        <ele>1196.119647</ele>
        <time>2021-04-30T05:34:16.773Z</time>
      </trkpt>
      <trkpt lat="44.93657" lon="3.4025">
        <ele>1198.988781</ele>
        <time>2021-04-30T05:34:33.922Z</time>
      </trkpt>
      <trkpt lat="44.93658" lon="3.40276">
        <ele>1200.566741</ele>
        <time>2021-04-30T05:34:45.535Z</time>
      </trkpt>
      <trkpt lat="44.93641" lon="3.40312">
        <ele>1203.133151</ele>
        <time>2021-04-30T05:35:01.513Z</time>
      </trkpt>
      <trkpt lat="44.93643" lon="3.40358">
        <ele>1205.869825</ele>
        <time>2021-04-30T05:35:19.205Z</time>
      </trkpt>
      <trkpt lat="44.93635" lon="3.40375">
        <ele>1207.056213</ele>
        <time>2021-04-30T05:35:28.693Z</time>
      </trkpt>
      <trkpt lat="44.9357" lon="3.40434">
        <ele>1215.660566</ele>
        <time>2021-04-30T05:36:32.725Z</time>
      </trkpt>
      <trkpt lat="44.93525" lon="3.40455">
        <ele>1221.753624</ele>
        <time>2021-04-30T05:37:14.804Z</time>
      </trkpt>
      <trkpt lat="44.93503" lon="3.40466">
        <ele>1224.740429</ele>
        <time>2021-04-30T05:37:35.738Z</time>
      </trkpt>
      <trkpt lat="44.93489" lon="3.40481">
        <ele>1227.024235</ele>
        <time>2021-04-30T05:37:53.465Z</time>
      </trkpt>
      <trkpt lat="44.93489" lon="3.40521">
        <ele>1230.672116</ele>
        <time>2021-04-30T05:38:18.692Z</time>
      </trkpt>
      <trkpt lat="44.9348" lon="3.40553">
        <ele>1233.905525</ele>
        <time>2021-04-30T05:38:40.712Z</time>
      </trkpt>
      <trkpt lat="44.93447" lon="3.40592">
        <ele>1240.041466</ele>
        <time>2021-04-30T05:39:23.831Z</time>
      </trkpt>
      <trkpt lat="44.93357" lon="3.407">
        <ele>1256.793644</ele>
        <time>2021-04-30T05:41:18.207Z</time>
      </trkpt>
      <trkpt lat="44.93301" lon="3.40766">
        <ele>1263.992239</ele>
        <time>2021-04-30T05:42:18.897Z</time>
      </trkpt>
      <trkpt lat="44.93207" lon="3.4082">
        <ele>1273.139374</ele>
        <time>2021-04-30T05:43:29.062Z</time>
      </trkpt>
      <trkpt lat="44.93175" lon="3.40844">
        <ele>1275.391791</ele>
        <time>2021-04-30T05:43:50.527Z</time>
      </trkpt>
      <trkpt lat="44.93127" lon="3.40868">
        <ele>1277.231911</ele>
        <time>2021-04-30T05:44:18.821Z</time>
      </trkpt>
      <trkpt lat="44.92981" lon="3.41071">
        <ele>1283.591236</ele>
        <time>2021-04-30T05:45:54.011Z</time>
      </trkpt>
      <trkpt lat="44.92932" lon="3.41106">
        <ele>1284.96762</ele>
        <time>2021-04-30T05:46:18.976Z</time>
      </trkpt>
      <trkpt lat="44.92863" lon="3.41183">
        <ele>1288.329149</ele>
        <time>2021-04-30T05:47:03.341Z</time>
      </trkpt>
      <trkpt lat="44.92827" lon="3.41201">
        <ele>1290.059152</ele>
        <time>2021-04-30T05:47:24.293Z</time>
      </trkpt>
      <trkpt lat="44.92791" lon="3.41237">
        <ele>1292.043215</ele>
        <time>2021-04-30T05:47:49.821Z</time>
      </trkpt>
      <trkpt lat="44.92774" lon="3.41261">
        <ele>1293.131043</ele>
        <time>2021-04-30T05:48:04.306Z</time>
      </trkpt>
      <trkpt lat="44.92764" lon="3.41302">
        <ele>1294.522598</ele>
        <time>2021-04-30T05:48:23.353Z</time>
      </trkpt>
      <trkpt lat="44.92735" lon="3.41322">
        <ele>1295.956125</ele>
        <time>2021-04-30T05:48:42.602Z</time>
      </trkpt>
      <trkpt lat="44.92721" lon="3.41313">
        <ele>1296.674898</ele>
        <time>2021-04-30T05:48:51.937Z</time>
      </trkpt>
      <trkpt lat="44.92643" lon="3.41232">
        <ele>1301.059879</ele>
        <time>2021-04-30T05:49:46.409Z</time>
      </trkpt>
      <trkpt lat="44.92531" lon="3.41152">
        <ele>1302.083743</ele>
        <time>2021-04-30T05:50:40.355Z</time>
      </trkpt>
      <trkpt lat="44.92499" lon="3.41135">
        <ele>1302.1218</ele>
        <time>2021-04-30T05:50:51.611Z</time>
      </trkpt>
      <trkpt lat="44.92428" lon="3.41134">
        <ele>1300.766874</ele>
        <time>2021-04-30T05:51:13.004Z</time>
      </trkpt>
      <trkpt lat="44.92395" lon="3.41108">
        <ele>1298.951617</ele>
        <time>2021-04-30T05:51:24.057Z</time>
      </trkpt>
      <trkpt lat="44.92328" lon="3.41071">
        <ele>1295.587</ele>
        <time>2021-04-30T05:51:43.606Z</time>
      </trkpt>
      <trkpt lat="44.923" lon="3.41066">
        <ele>1294.261068</ele>
        <time>2021-04-30T05:51:51.163Z</time>
      </trkpt>
      <trkpt lat="44.92236" lon="3.41073">
        <ele>1290.097424</ele>
        <time>2021-04-30T05:52:07.988Z</time>
      </trkpt>
      <trkpt lat="44.92188" lon="3.41069">
        <ele>1286.821086</ele>
        <time>2021-04-30T05:52:20.324Z</time>
      </trkpt>
      <trkpt lat="44.92155" lon="3.41057">
        <ele>1284.451293</ele>
        <time>2021-04-30T05:52:29.171Z</time>
      </trkpt>
      <trkpt lat="44.92108" lon="3.41058">
        <ele>1281.229992</ele>
        <time>2021-04-30T05:52:41.304Z</time>
      </trkpt>
      <trkpt lat="44.92079" lon="3.4105">
        <ele>1279.506734</ele>
        <time>2021-04-30T05:52:48.920Z</time>
      </trkpt>
      <trkpt lat="44.92015" lon="3.41048">
        <ele>1275.748976</ele>
        <time>2021-04-30T05:53:05.715Z</time>
      </trkpt>
      <trkpt lat="44.91968" lon="3.41053">
        <ele>1272.983861</ele>
        <time>2021-04-30T05:53:18.378Z</time>
      </trkpt>
      <trkpt lat="44.91876" lon="3.4109">
        <ele>1270.367501</ele>
        <time>2021-04-30T05:53:45.958Z</time>
      </trkpt>
      <trkpt lat="44.91851" lon="3.41111">
        <ele>1270.142229</ele>
        <time>2021-04-30T05:53:55.307Z</time>
      </trkpt>
      <trkpt lat="44.91828" lon="3.41122">
        <ele>1269.948818</ele>
        <time>2021-04-30T05:54:03.903Z</time>
      </trkpt>
      <trkpt lat="44.91731" lon="3.41155">
        <ele>1270.93826</ele>
        <time>2021-04-30T05:54:48.177Z</time>
      </trkpt>
      <trkpt lat="44.91688" lon="3.41223">
        <ele>1274.03996</ele>
        <time>2021-04-30T05:55:23.782Z</time>
      </trkpt>
      <trkpt lat="44.91642" lon="3.41221">
        <ele>1276.251552</ele>
        <time>2021-04-30T05:55:50.899Z</time>
      </trkpt>
      <trkpt lat="44.91628" lon="3.41228">
        <ele>1276.943796</ele>
        <time>2021-04-30T05:55:59.500Z</time>
      </trkpt>
      <trkpt lat="44.91619" lon="3.41247">
        <ele>1277.746366</ele>
        <time>2021-04-30T05:56:09.476Z</time>
      </trkpt>
      <trkpt lat="44.91586" lon="3.41275">
        <ele>1280.962056</ele>
        <time>2021-04-30T05:56:36.878Z</time>
      </trkpt>
      <trkpt lat="44.91577" lon="3.41288">
        <ele>1282.05883</ele>
        <time>2021-04-30T05:56:45.379Z</time>
      </trkpt>
      <trkpt lat="44.91567" lon="3.41304">
        <ele>1283.427553</ele>
        <time>2021-04-30T05:56:57.544Z</time>
      </trkpt>
      <trkpt lat="44.91558" lon="3.41304">
        <ele>1284.2018</ele>
        <time>2021-04-30T05:57:03.018Z</time>
      </trkpt>
      <trkpt lat="44.91558" lon="3.41293">
        <ele>1284.903109</ele>
        <time>2021-04-30T05:57:08.422Z</time>
      </trkpt>
      <trkpt lat="44.91583" lon="3.41242">
        <ele>1288.867377</ele>
        <time>2021-04-30T05:57:41.374Z</time>
      </trkpt>
      <trkpt lat="44.91592" lon="3.41211">
        <ele>1291.001881</ele>
        <time>2021-04-30T05:57:58.791Z</time>
      </trkpt>
      <trkpt lat="44.9159" lon="3.41197">
        <ele>1291.875365</ele>
        <time>2021-04-30T05:58:06.230Z</time>
      </trkpt>
      <trkpt lat="44.91589" lon="3.41183">
        <ele>1292.792121</ele>
        <time>2021-04-30T05:58:15.484Z</time>
      </trkpt>
      <trkpt lat="44.91563" lon="3.41035">
        <ele>1303.452559</ele>
        <time>2021-04-30T05:59:40.376Z</time>
      </trkpt>
      <trkpt lat="44.91542" lon="3.4098">
        <ele>1307.903542</ele>
        <time>2021-04-30T06:00:15.952Z</time>
      </trkpt>
      <trkpt lat="44.91538" lon="3.40977">
        <ele>1308.401329</ele>
        <time>2021-04-30T06:00:19.597Z</time>
      </trkpt>
      <trkpt lat="44.91525" lon="3.41037">
        <ele>1312.747225</ele>
        <time>2021-04-30T06:00:51.757Z</time>
      </trkpt>
      <trkpt lat="44.91516" lon="3.41041">
        <ele>1313.560877</ele>
        <time>2021-04-30T06:00:58.743Z</time>
      </trkpt>
      <trkpt lat="44.915" lon="3.40993">
        <ele>1316.715532</ele>
        <time>2021-04-30T06:01:26.025Z</time>
      </trkpt>
      <trkpt lat="44.91485" lon="3.40969">
        <ele>1318.665703</ele>
        <time>2021-04-30T06:01:42.735Z</time>
      </trkpt>
      <trkpt lat="44.91477" lon="3.40944">
        <ele>1320.265125</ele>
        <time>2021-04-30T06:01:56.399Z</time>
      </trkpt>
      <trkpt lat="44.91467" lon="3.40892">
        <ele>1323.488642</ele>
        <time>2021-04-30T06:02:23.318Z</time>
      </trkpt>
      <trkpt lat="44.91461" lon="3.40794">
        <ele>1329.018721</ele>
        <time>2021-04-30T06:03:10.775Z</time>
      </trkpt>
      <trkpt lat="44.91425" lon="3.40646">
        <ele>1336.776294</ele>
        <time>2021-04-30T06:04:23.691Z</time>
      </trkpt>
      <trkpt lat="44.91278" lon="3.40382">
        <ele>1351.008151</ele>
        <time>2021-04-30T06:06:51.486Z</time>
      </trkpt>
      <trkpt lat="44.91175" lon="3.40178">
        <ele>1356.308429</ele>
        <time>2021-04-30T06:08:15.070Z</time>
      </trkpt>
      <trkpt lat="44.91167" lon="3.40164">
        <ele>1356.611775</ele>
        <time>2021-04-30T06:08:20.975Z</time>
      </trkpt>
      <trkpt lat="44.91133" lon="3.40113">
        <ele>1357.730624</ele>
        <time>2021-04-30T06:08:42.029Z</time>
      </trkpt>
      <trkpt lat="44.91109" lon="3.40064">
        <ele>1358.702282</ele>
        <time>2021-04-30T06:09:01.152Z</time>
      </trkpt>
      <trkpt lat="44.91089" lon="3.40236">
        <ele>1362.776171</ele>
        <time>2021-04-30T06:09:42.150Z</time>
      </trkpt>
      <trkpt lat="44.91078" lon="3.40283">
        <ele>1364.383385</ele>
        <time>2021-04-30T06:09:57.269Z</time>
      </trkpt>
      <trkpt lat="44.90968" lon="3.40343">
        <ele>1369.95195</ele>
        <time>2021-04-30T06:10:49.471Z</time>
      </trkpt>
      <trkpt lat="44.90959" lon="3.40354">
        <ele>1370.577771</ele>
        <time>2021-04-30T06:10:54.742Z</time>
      </trkpt>
      <trkpt lat="44.90821" lon="3.40966">
        <ele>1394.337321</ele>
        <time>2021-04-30T06:14:13.275Z</time>
      </trkpt>
      <trkpt lat="44.90796" lon="3.41145">
        <ele>1398.427803</ele>
        <time>2021-04-30T06:15:01.438Z</time>
      </trkpt>
      <trkpt lat="44.90795" lon="3.4115">
        <ele>1398.510776</ele>
        <time>2021-04-30T06:15:03.517Z</time>
      </trkpt>
      <trkpt lat="44.90758" lon="3.4145">
        <ele>1400.214958</ele>
        <time>2021-04-30T06:15:56.487Z</time>
      </trkpt>
      <trkpt lat="44.90732" lon="3.41547">
        <ele>1399.591081</ele>
        <time>2021-04-30T06:16:09.375Z</time>
      </trkpt>
      <trkpt lat="44.90715" lon="3.4159">
        <ele>1398.732788</ele>
        <time>2021-04-30T06:16:15.371Z</time>
      </trkpt>
      <trkpt lat="44.90686" lon="3.41633">
        <ele>1397.703797</ele>
        <time>2021-04-30T06:16:22.468Z</time>
      </trkpt>
      <trkpt lat="44.90635" lon="3.41692">
        <ele>1396.083219</ele>
        <time>2021-04-30T06:16:33.668Z</time>
      </trkpt>
      <trkpt lat="44.90628" lon="3.417">
        <ele>1395.859036</ele>
        <time>2021-04-30T06:16:35.139Z</time>
      </trkpt>
      <trkpt lat="44.90595" lon="3.41737">
        <ele>1394.952534</ele>
        <time>2021-04-30T06:16:42.161Z</time>
      </trkpt>
      <trkpt lat="44.90559" lon="3.41808">
        <ele>1393.648226</ele>
        <time>2021-04-30T06:16:52.707Z</time>
      </trkpt>
      <trkpt lat="44.9051" lon="3.41947">
        <ele>1391.514836</ele>
        <time>2021-04-30T06:17:12.712Z</time>
      </trkpt>
      <trkpt lat="44.90477" lon="3.42039">
        <ele>1390.516602</ele>
        <time>2021-04-30T06:17:26.413Z</time>
      </trkpt>
      <trkpt lat="44.90464" lon="3.42112">
        <ele>1389.787871</ele>
        <time>2021-04-30T06:17:36.524Z</time>
      </trkpt>
      <trkpt lat="44.90447" lon="3.42099">
        <ele>1389.522672</ele>
        <time>2021-04-30T06:17:43.286Z</time>
      </trkpt>
      <trkpt lat="44.90259" lon="3.42047">
        <ele>1385.769832</ele>
        <time>2021-04-30T06:18:44.078Z</time>
      </trkpt>
      <trkpt lat="44.90194" lon="3.42062">
        <ele>1383.399791</ele>
        <time>2021-04-30T06:19:02.991Z</time>
      </trkpt>
      <trkpt lat="44.90176" lon="3.42068">
        <ele>1382.716101</ele>
        <time>2021-04-30T06:19:08.393Z</time>
      </trkpt>
      <trkpt lat="44.90164" lon="3.42083">
        <ele>1382.142222</ele>
        <time>2021-04-30T06:19:12.898Z</time>
      </trkpt>
      <trkpt lat="44.90154" lon="3.42116">
        <ele>1381.220055</ele>
        <time>2021-04-30T06:19:20.158Z</time>
      </trkpt>
      <trkpt lat="44.90126" lon="3.42178">
        <ele>1379.346101</ele>
        <time>2021-04-30T06:19:34.873Z</time>
      </trkpt>
      <trkpt lat="44.90102" lon="3.42275">
        <ele>1377.592183</ele>
        <time>2021-04-30T06:19:56.008Z</time>
      </trkpt>
      <trkpt lat="44.9009" lon="3.42295">
        <ele>1377.147894</ele>
        <time>2021-04-30T06:20:01.620Z</time>
      </trkpt>
      <trkpt lat="44.9" lon="3.42318">
        <ele>1375.011302</ele>
        <time>2021-04-30T06:20:31.162Z</time>
      </trkpt>
      <trkpt lat="44.89643" lon="3.42378">
        <ele>1375.751741</ele>
        <time>2021-04-30T06:22:50.170Z</time>
      </trkpt>
      <trkpt lat="44.89579" lon="3.42407">
        <ele>1374.796329</ele>
        <time>2021-04-30T06:23:13.968Z</time>
      </trkpt>
      <trkpt lat="44.89539" lon="3.42406">
        <ele>1374.218836</ele>
        <time>2021-04-30T06:23:26.827Z</time>
      </trkpt>
      <trkpt lat="44.89425" lon="3.4239">
        <ele>1372.302682</ele>
        <time>2021-04-30T06:24:01.873Z</time>
      </trkpt>
      <trkpt lat="44.89402" lon="3.42393">
        <ele>1371.836732</ele>
        <time>2021-04-30T06:24:08.887Z</time>
      </trkpt>
      <trkpt lat="44.89397" lon="3.42393">
        <ele>1371.737709</ele>
        <time>2021-04-30T06:24:10.136Z</time>
      </trkpt>
      <trkpt lat="44.8937" lon="3.42413">
        <ele>1371.101874</ele>
        <time>2021-04-30T06:24:19.871Z</time>
      </trkpt>
      <trkpt lat="44.89279" lon="3.42553">
        <ele>1370.187285</ele>
        <time>2021-04-30T06:25:03.389Z</time>
      </trkpt>
      <trkpt lat="44.8926" lon="3.4257">
        <ele>1370.444065</ele>
        <time>2021-04-30T06:25:12.743Z</time>
      </trkpt>
      <trkpt lat="44.89204" lon="3.42593">
        <ele>1371.103722</ele>
        <time>2021-04-30T06:25:38.498Z</time>
      </trkpt>
      <trkpt lat="44.89175" lon="3.42638">
        <ele>1371.668694</ele>
        <time>2021-04-30T06:26:00.252Z</time>
      </trkpt>
      <trkpt lat="44.89158" lon="3.42707">
        <ele>1373.830088</ele>
        <time>2021-04-30T06:26:29.192Z</time>
      </trkpt>
      <trkpt lat="44.89161" lon="3.42812">
        <ele>1376.956686</ele>
        <time>2021-04-30T06:27:10.894Z</time>
      </trkpt>
      <trkpt lat="44.89163" lon="3.42845">
        <ele>1377.942857</ele>
        <time>2021-04-30T06:27:23.681Z</time>
      </trkpt>
      <trkpt lat="44.89163" lon="3.42855">
        <ele>1378.256613</ele>
        <time>2021-04-30T06:27:28.147Z</time>
      </trkpt>
      <trkpt lat="44.89179" lon="3.43017">
        <ele>1381.450185</ele>
        <time>2021-04-30T06:28:26.791Z</time>
      </trkpt>
      <trkpt lat="44.8915" lon="3.43145">
        <ele>1383.670922</ele>
        <time>2021-04-30T06:29:07.070Z</time>
      </trkpt>
      <trkpt lat="44.89118" lon="3.43198">
        <ele>1384.400033</ele>
        <time>2021-04-30T06:29:26.599Z</time>
      </trkpt>
      <trkpt lat="44.89012" lon="3.43343">
        <ele>1387.201912</ele>
        <time>2021-04-30T06:30:30.523Z</time>
      </trkpt>
      <trkpt lat="44.88934" lon="3.43431">
        <ele>1390.998672</ele>
        <time>2021-04-30T06:31:21.772Z</time>
      </trkpt>
      <trkpt lat="44.88767" lon="3.43658">
        <ele>1403.224384</ele>
        <time>2021-04-30T06:33:41.135Z</time>
      </trkpt>
      <trkpt lat="44.88747" lon="3.43678">
        <ele>1404.513227</ele>
        <time>2021-04-30T06:33:56.441Z</time>
      </trkpt>
      <trkpt lat="44.88733" lon="3.4369">
        <ele>1405.30751</ele>
        <time>2021-04-30T06:34:05.939Z</time>
      </trkpt>
      <trkpt lat="44.88722" lon="3.437">
        <ele>1406.024001</ele>
        <time>2021-04-30T06:34:14.704Z</time>
      </trkpt>
      <trkpt lat="44.88562" lon="3.43802">
        <ele>1414.090372</ele>
        <time>2021-04-30T06:35:53.598Z</time>
      </trkpt>
      <trkpt lat="44.88333" lon="3.4396">
        <ele>1420.918617</ele>
        <time>2021-04-30T06:37:53.594Z</time>
      </trkpt>
      <trkpt lat="44.88301" lon="3.43984">
        <ele>1421.699862</ele>
        <time>2021-04-30T06:38:09.627Z</time>
      </trkpt>
      <trkpt lat="44.88285" lon="3.43996">
        <ele>1422.09178</ele>
        <time>2021-04-30T06:38:17.466Z</time>
      </trkpt>
      <trkpt lat="44.88241" lon="3.44031">
        <ele>1422.208967</ele>
        <time>2021-04-30T06:38:38.220Z</time>
      </trkpt>
      <trkpt lat="44.88162" lon="3.44072">
        <ele>1422.37681</ele>
        <time>2021-04-30T06:39:10.394Z</time>
      </trkpt>
      <trkpt lat="44.8809" lon="3.44097">
        <ele>1421.754881</ele>
        <time>2021-04-30T06:39:35.993Z</time>
      </trkpt>
      <trkpt lat="44.87957" lon="3.44115">
        <ele>1418.351968</ele>
        <time>2021-04-30T06:40:16.469Z</time>
      </trkpt>
      <trkpt lat="44.87941" lon="3.44117">
        <ele>1417.942196</ele>
        <time>2021-04-30T06:40:21.116Z</time>
      </trkpt>
      <trkpt lat="44.87938" lon="3.44117">
        <ele>1417.831423</ele>
        <time>2021-04-30T06:40:22.109Z</time>
      </trkpt>
      <trkpt lat="44.87934" lon="3.44116">
        <ele>1417.619349</ele>
        <time>2021-04-30T06:40:23.119Z</time>
      </trkpt>
      <trkpt lat="44.87889" lon="3.4411">
        <ele>1415.215186</ele>
        <time>2021-04-30T06:40:35.597Z</time>
      </trkpt>
      <trkpt lat="44.87821" lon="3.44133">
        <ele>1411.42697</ele>
        <time>2021-04-30T06:40:54.479Z</time>
      </trkpt>
      <trkpt lat="44.87791" lon="3.44159">
        <ele>1409.526973</ele>
        <time>2021-04-30T06:41:03.764Z</time>
      </trkpt>
      <trkpt lat="44.87751" lon="3.44217">
        <ele>1406.617196</ele>
        <time>2021-04-30T06:41:19.016Z</time>
      </trkpt>
      <trkpt lat="44.8774" lon="3.44245">
        <ele>1405.499843</ele>
        <time>2021-04-30T06:41:25.195Z</time>
      </trkpt>
      <trkpt lat="44.87733" lon="3.44285">
        <ele>1404.118746</ele>
        <time>2021-04-30T06:41:32.948Z</time>
      </trkpt>
      <trkpt lat="44.87725" lon="3.44403">
        <ele>1400.032811</ele>
        <time>2021-04-30T06:41:56.542Z</time>
      </trkpt>
      <trkpt lat="44.87685" lon="3.4446">
        <ele>1398.422427</ele>
        <time>2021-04-30T06:42:13.480Z</time>
      </trkpt>
      <trkpt lat="44.87607" lon="3.44533">
        <ele>1396.273214</ele>
        <time>2021-04-30T06:42:42.941Z</time>
      </trkpt>
      <trkpt lat="44.87601" lon="3.44549">
        <ele>1395.974357</ele>
        <time>2021-04-30T06:42:47.198Z</time>
      </trkpt>
      <trkpt lat="44.87596" lon="3.44619">
        <ele>1394.966652</ele>
        <time>2021-04-30T06:43:03.428Z</time>
      </trkpt>
      <trkpt lat="44.87585" lon="3.44678">
        <ele>1394.244897</ele>
        <time>2021-04-30T06:43:17.510Z</time>
      </trkpt>
      <trkpt lat="44.87579" lon="3.44695">
        <ele>1394.016521</ele>
        <time>2021-04-30T06:43:21.924Z</time>
      </trkpt>
      <trkpt lat="44.87565" lon="3.44713">
        <ele>1393.699301</ele>
        <time>2021-04-30T06:43:28.081Z</time>
      </trkpt>
      <trkpt lat="44.87549" lon="3.44725">
        <ele>1393.407078</ele>
        <time>2021-04-30T06:43:33.708Z</time>
      </trkpt>
      <trkpt lat="44.87506" lon="3.4474">
        <ele>1392.662441</ele>
        <time>2021-04-30T06:43:47.982Z</time>
      </trkpt>
      <trkpt lat="44.87474" lon="3.44737">
        <ele>1392.140079</ele>
        <time>2021-04-30T06:43:58.188Z</time>
      </trkpt>
      <trkpt lat="44.87397" lon="3.44708">
        <ele>1390.889941</ele>
        <time>2021-04-30T06:44:23.370Z</time>
      </trkpt>
      <trkpt lat="44.87165" lon="3.44665">
        <ele>1387.425094</ele>
        <time>2021-04-30T06:45:40.326Z</time>
      </trkpt>
      <trkpt lat="44.87054" lon="3.4463">
        <ele>1384.86108</ele>
        <time>2021-04-30T06:46:16.915Z</time>
      </trkpt>
      <trkpt lat="44.87037" lon="3.44635">
        <ele>1384.407505</ele>
        <time>2021-04-30T06:46:22.900Z</time>
      </trkpt>
      <trkpt lat="44.87038" lon="3.44643">
        <ele>1384.24834</ele>
        <time>2021-04-30T06:46:24.455Z</time>
      </trkpt>
      <trkpt lat="44.8703" lon="3.44674">
        <ele>1383.64173</ele>
        <time>2021-04-30T06:46:31.690Z</time>
      </trkpt>
      <trkpt lat="44.87017" lon="3.44783">
        <ele>1380.76881</ele>
        <time>2021-04-30T06:46:54.356Z</time>
      </trkpt>
      <trkpt lat="44.87003" lon="3.44859">
        <ele>1377.467147</ele>
        <time>2021-04-30T06:47:09.103Z</time>
      </trkpt>
      <trkpt lat="44.86981" lon="3.44946">
        <ele>1373.519855</ele>
        <time>2021-04-30T06:47:26.428Z</time>
      </trkpt>
      <trkpt lat="44.86969" lon="3.44965">
        <ele>1372.461699</ele>
        <time>2021-04-30T06:47:31.032Z</time>
      </trkpt>
      <trkpt lat="44.86911" lon="3.44993">
        <ele>1367.938543</ele>
        <time>2021-04-30T06:47:46.862Z</time>
      </trkpt>
      <trkpt lat="44.86897" lon="3.45006">
        <ele>1366.613943</ele>
        <time>2021-04-30T06:47:51.157Z</time>
      </trkpt>
      <trkpt lat="44.86888" lon="3.45032">
        <ele>1364.963764</ele>
        <time>2021-04-30T06:47:56.488Z</time>
      </trkpt>
      <trkpt lat="44.86882" lon="3.45062">
        <ele>1363.1909</ele>
        <time>2021-04-30T06:48:02.195Z</time>
      </trkpt>
      <trkpt lat="44.86886" lon="3.45172">
        <ele>1357.026469</ele>
        <time>2021-04-30T06:48:21.826Z</time>
      </trkpt>
      <trkpt lat="44.86875" lon="3.45242">
        <ele>1352.693205</ele>
        <time>2021-04-30T06:48:34.633Z</time>
      </trkpt>
      <trkpt lat="44.8686" lon="3.45275">
        <ele>1350.31407</ele>
        <time>2021-04-30T06:48:41.643Z</time>
      </trkpt>
      <trkpt lat="44.86827" lon="3.45314">
        <ele>1346.683292</ele>
        <time>2021-04-30T06:48:52.369Z</time>
      </trkpt>
      <trkpt lat="44.86722" lon="3.4538">
        <ele>1338.213658</ele>
        <time>2021-04-30T06:49:21.719Z</time>
      </trkpt>
      <trkpt lat="44.86643" lon="3.4548">
        <ele>1331.653849</ele>
        <time>2021-04-30T06:49:50.047Z</time>
      </trkpt>
      <trkpt lat="44.86634" lon="3.45496">
        <ele>1330.74655</ele>
        <time>2021-04-30T06:49:54.069Z</time>
      </trkpt>
      <trkpt lat="44.86633" lon="3.45521">
        <ele>1330.261873</ele>
        <time>2021-04-30T06:49:59.263Z</time>
      </trkpt>
      <trkpt lat="44.86642" lon="3.45673">
        <ele>1327.232605</ele>
        <time>2021-04-30T06:50:32.019Z</time>
      </trkpt>
      <trkpt lat="44.86637" lon="3.45705">
        <ele>1326.567003</ele>
        <time>2021-04-30T06:50:39.317Z</time>
      </trkpt>
      <trkpt lat="44.86636" lon="3.45779">
        <ele>1325.38005</ele>
        <time>2021-04-30T06:50:56.902Z</time>
      </trkpt>
      <trkpt lat="44.8668" lon="3.45937">
        <ele>1323.513791</ele>
        <time>2021-04-30T06:51:35.368Z</time>
      </trkpt>
      <trkpt lat="44.86697" lon="3.46044">
        <ele>1322.953411</ele>
        <time>2021-04-30T06:52:01.186Z</time>
      </trkpt>
      <trkpt lat="44.86715" lon="3.46117">
        <ele>1322.992545</ele>
        <time>2021-04-30T06:52:21.248Z</time>
      </trkpt>
      <trkpt lat="44.86716" lon="3.46141">
        <ele>1323.004586</ele>
        <time>2021-04-30T06:52:27.238Z</time>
      </trkpt>
      <trkpt lat="44.86717" lon="3.46162">
        <ele>1323.014811</ele>
        <time>2021-04-30T06:52:33.313Z</time>
      </trkpt>
      <trkpt lat="44.86709" lon="3.46209">
        <ele>1323.039286</ele>
        <time>2021-04-30T06:52:47.171Z</time>
      </trkpt>
      <trkpt lat="44.86677" lon="3.46321">
        <ele>1324.864738</ele>
        <time>2021-04-30T06:53:25.102Z</time>
      </trkpt>
      <trkpt lat="44.86677" lon="3.465">
        <ele>1328.158748</ele>
        <time>2021-04-30T06:54:29.696Z</time>
      </trkpt>
      <trkpt lat="44.86654" lon="3.46567">
        <ele>1329.100709</ele>
        <time>2021-04-30T06:54:55.077Z</time>
      </trkpt>
      <trkpt lat="44.86654" lon="3.46575">
        <ele>1329.194276</ele>
        <time>2021-04-30T06:54:58.356Z</time>
      </trkpt>
      <trkpt lat="44.86657" lon="3.46591">
        <ele>1329.407468</ele>
        <time>2021-04-30T06:55:04.429Z</time>
      </trkpt>
      <trkpt lat="44.86671" lon="3.46679">
        <ele>1330.538137</ele>
        <time>2021-04-30T06:55:33.899Z</time>
      </trkpt>
      <trkpt lat="44.86677" lon="3.46824">
        <ele>1327.646144</ele>
        <time>2021-04-30T06:56:06.938Z</time>
      </trkpt>
      <trkpt lat="44.86685" lon="3.46902">
        <ele>1324.884445</ele>
        <time>2021-04-30T06:56:22.268Z</time>
      </trkpt>
      <trkpt lat="44.86684" lon="3.46904">
        <ele>1324.828317</ele>
        <time>2021-04-30T06:56:22.526Z</time>
      </trkpt>
      <trkpt lat="44.86684" lon="3.4694">
        <ele>1323.570226</ele>
        <time>2021-04-30T06:56:29.191Z</time>
      </trkpt>
      <trkpt lat="44.86683" lon="3.46967">
        <ele>1322.604497</ele>
        <time>2021-04-30T06:56:34.185Z</time>
      </trkpt>
      <trkpt lat="44.86634" lon="3.47134">
        <ele>1309.248606</ele>
        <time>2021-04-30T06:57:05.204Z</time>
      </trkpt>
      <trkpt lat="44.866" lon="3.47286">
        <ele>1296.386549</ele>
        <time>2021-04-30T06:57:32.303Z</time>
      </trkpt>
      <trkpt lat="44.86593" lon="3.47304">
        <ele>1294.596325</ele>
        <time>2021-04-30T06:57:35.869Z</time>
      </trkpt>
      <trkpt lat="44.86578" lon="3.4732">
        <ele>1292.344882</ele>
        <time>2021-04-30T06:57:40.354Z</time>
      </trkpt>
      <trkpt lat="44.8652" lon="3.47344">
        <ele>1285.065026</ele>
        <time>2021-04-30T06:57:54.694Z</time>
      </trkpt>
      <trkpt lat="44.86457" lon="3.47332">
        <ele>1277.588163</ele>
        <time>2021-04-30T06:58:09.698Z</time>
      </trkpt>
      <trkpt lat="44.86394" lon="3.473">
        <ele>1269.65139</ele>
        <time>2021-04-30T06:58:25.834Z</time>
      </trkpt>
      <trkpt lat="44.86389" lon="3.47302">
        <ele>1268.958833</ele>
        <time>2021-04-30T06:58:27.220Z</time>
      </trkpt>
      <trkpt lat="44.86388" lon="3.47308">
        <ele>1268.453947</ele>
        <time>2021-04-30T06:58:28.165Z</time>
      </trkpt>
      <trkpt lat="44.86421" lon="3.47365">
        <ele>1262.326425</ele>
        <time>2021-04-30T06:58:40.815Z</time>
      </trkpt>
      <trkpt lat="44.86422" lon="3.47402">
        <ele>1259.351946</ele>
        <time>2021-04-30T06:58:47.029Z</time>
      </trkpt>
      <trkpt lat="44.86411" lon="3.47484">
        <ele>1253.281921</ele>
        <time>2021-04-30T06:59:01.411Z</time>
      </trkpt>
      <trkpt lat="44.86361" lon="3.4757">
        <ele>1245.211036</ele>
        <time>2021-04-30T06:59:20.652Z</time>
      </trkpt>
      <trkpt lat="44.86332" lon="3.47685">
        <ele>1236.840173</ele>
        <time>2021-04-30T06:59:42.316Z</time>
      </trkpt>
      <trkpt lat="44.86311" lon="3.47726">
        <ele>1233.525148</ele>
        <time>2021-04-30T06:59:51.329Z</time>
      </trkpt>
      <trkpt lat="44.86306" lon="3.47745">
        <ele>1232.183154</ele>
        <time>2021-04-30T06:59:54.970Z</time>
      </trkpt>
      <trkpt lat="44.86307" lon="3.47773">
        <ele>1230.392868</ele>
        <time>2021-04-30T06:59:59.845Z</time>
      </trkpt>
      <trkpt lat="44.86322" lon="3.47805">
        <ele>1227.861814</ele>
        <time>2021-04-30T07:00:06.757Z</time>
      </trkpt>
      <trkpt lat="44.86371" lon="3.48049">
        <ele>1209.50017</ele>
        <time>2021-04-30T07:00:50.887Z</time>
      </trkpt>
      <trkpt lat="44.86365" lon="3.48067">
        <ele>1208.047378</ele>
        <time>2021-04-30T07:00:54.153Z</time>
      </trkpt>
      <trkpt lat="44.86353" lon="3.48078">
        <ele>1206.574491</ele>
        <time>2021-04-30T07:00:57.727Z</time>
      </trkpt>
      <trkpt lat="44.8632" lon="3.48095">
        <ele>1202.683032</ele>
        <time>2021-04-30T07:01:06.165Z</time>
      </trkpt>
      <trkpt lat="44.86304" lon="3.48097">
        <ele>1200.82785</ele>
        <time>2021-04-30T07:01:10.122Z</time>
      </trkpt>
      <trkpt lat="44.86297" lon="3.48096">
        <ele>1200.147528</ele>
        <time>2021-04-30T07:01:10.940Z</time>
      </trkpt>
      <trkpt lat="44.8629" lon="3.48099">
        <ele>1199.331825</ele>
        <time>2021-04-30T07:01:12.015Z</time>
      </trkpt>
      <trkpt lat="44.86285" lon="3.48112">
        <ele>1198.218093</ele>
        <time>2021-04-30T07:01:13.454Z</time>
      </trkpt>
      <trkpt lat="44.86317" lon="3.48207">
        <ele>1189.85323</ele>
        <time>2021-04-30T07:01:23.964Z</time>
      </trkpt>
      <trkpt lat="44.86339" lon="3.48236">
        <ele>1186.536626</ele>
        <time>2021-04-30T07:01:28.140Z</time>
      </trkpt>
      <trkpt lat="44.86403" lon="3.48265">
        <ele>1180.526346</ele>
        <time>2021-04-30T07:01:37.680Z</time>
      </trkpt>
      <trkpt lat="44.86411" lon="3.48284">
        <ele>1179.108016</ele>
        <time>2021-04-30T07:01:40.023Z</time>
      </trkpt>
      <trkpt lat="44.86414" lon="3.48308">
        <ele>1177.60858</ele>
        <time>2021-04-30T07:01:42.499Z</time>
      </trkpt>
      <trkpt lat="44.86412" lon="3.48328">
        <ele>1176.302114</ele>
        <time>2021-04-30T07:01:44.656Z</time>
      </trkpt>
      <trkpt lat="44.86388" lon="3.48388">
        <ele>1172.003262</ele>
        <time>2021-04-30T07:01:51.732Z</time>
      </trkpt>
      <trkpt lat="44.86373" lon="3.48455">
        <ele>1168.064149</ele>
        <time>2021-04-30T07:01:59.198Z</time>
      </trkpt>
      <trkpt lat="44.86363" lon="3.48527">
        <ele>1164.389696</ele>
        <time>2021-04-30T07:02:06.986Z</time>
      </trkpt>
      <trkpt lat="44.86357" lon="3.48546">
        <ele>1163.301114</ele>
        <time>2021-04-30T07:02:09.293Z</time>
      </trkpt>
      <trkpt lat="44.86335" lon="3.48587">
        <ele>1160.736345</ele>
        <time>2021-04-30T07:02:14.693Z</time>
      </trkpt>
      <trkpt lat="44.86284" lon="3.4865">
        <ele>1156.059425</ele>
        <time>2021-04-30T07:02:24.962Z</time>
      </trkpt>
      <trkpt lat="44.86238" lon="3.48699">
        <ele>1152.483234</ele>
        <time>2021-04-30T07:02:33.709Z</time>
      </trkpt>
      <trkpt lat="44.86238" lon="3.48699">
        <ele>1152.483234</ele>
        <time>2021-04-30T07:02:33.727Z</time>
      </trkpt>
      <trkpt lat="44.86226" lon="3.48712">
        <ele>1151.505575</ele>
        <time>2021-04-30T07:02:36.215Z</time>
      </trkpt>
      <trkpt lat="44.86197" lon="3.48737">
        <ele>1149.408717</ele>
        <time>2021-04-30T07:02:41.295Z</time>
      </trkpt>
      <trkpt lat="44.86178" lon="3.48742">
        <ele>1148.174708</ele>
        <time>2021-04-30T07:02:44.302Z</time>
      </trkpt>
      <trkpt lat="44.86165" lon="3.48758">
        <ele>1147.093348</ele>
        <time>2021-04-30T07:02:46.867Z</time>
      </trkpt>
      <trkpt lat="44.86159" lon="3.48764">
        <ele>1146.650454</ele>
        <time>2021-04-30T07:02:47.993Z</time>
      </trkpt>
      <trkpt lat="44.86158" lon="3.48769">
        <ele>1146.428669</ele>
        <time>2021-04-30T07:02:48.516Z</time>
      </trkpt>
      <trkpt lat="44.86155" lon="3.48775">
        <ele>1146.104787</ele>
        <time>2021-04-30T07:02:49.337Z</time>
      </trkpt>
      <trkpt lat="44.86153" lon="3.4882">
        <ele>1144.321772</ele>
        <time>2021-04-30T07:02:54.263Z</time>
      </trkpt>
      <trkpt lat="44.86147" lon="3.48846">
        <ele>1143.245837</ele>
        <time>2021-04-30T07:02:57.286Z</time>
      </trkpt>
      <trkpt lat="44.86143" lon="3.48861">
        <ele>1142.592006</ele>
        <time>2021-04-30T07:02:59.121Z</time>
      </trkpt>
      <trkpt lat="44.86143" lon="3.48861">
        <ele>1142.592006</ele>
        <time>2021-04-30T07:02:59.127Z</time>
      </trkpt>
      <trkpt lat="44.86143" lon="3.48861">
        <ele>1142.592006</ele>
        <time>2021-04-30T07:02:59.178Z</time>
      </trkpt>
      <trkpt lat="44.86137" lon="3.4886">
        <ele>1142.27536</ele>
        <time>2021-04-30T07:03:00.033Z</time>
      </trkpt>
      <trkpt lat="44.86122" lon="3.48857">
        <ele>1141.422899</ele>
        <time>2021-04-30T07:03:02.488Z</time>
      </trkpt>
      <trkpt lat="44.86117" lon="3.48858">
        <ele>1141.124501</ele>
        <time>2021-04-30T07:03:03.265Z</time>
      </trkpt>
      <trkpt lat="44.86115" lon="3.48854">
        <ele>1140.931035</ele>
        <time>2021-04-30T07:03:03.778Z</time>
      </trkpt>
      <trkpt lat="44.861" lon="3.48835">
        <ele>1139.8192</ele>
        <time>2021-04-30T07:03:06.974Z</time>
      </trkpt>
      <trkpt lat="44.86091" lon="3.4883">
        <ele>1139.269315</ele>
        <time>2021-04-30T07:03:08.460Z</time>
      </trkpt>
      <trkpt lat="44.86098" lon="3.48811">
        <ele>1138.436904</ele>
        <time>2021-04-30T07:03:10.835Z</time>
      </trkpt>
      <trkpt lat="44.861" lon="3.48802">
        <ele>1138.074489</ele>
        <time>2021-04-30T07:03:11.894Z</time>
      </trkpt>
      <trkpt lat="44.86099" lon="3.48791">
        <ele>1137.621072</ele>
        <time>2021-04-30T07:03:13.230Z</time>
      </trkpt>
      <trkpt lat="44.861" lon="3.4878">
        <ele>1137.189486</ele>
        <time>2021-04-30T07:03:14.391Z</time>
      </trkpt>
      <trkpt lat="44.86106" lon="3.48748">
        <ele>1135.939155</ele>
        <time>2021-04-30T07:03:18.137Z</time>
      </trkpt>
      <trkpt lat="44.86099" lon="3.48757">
        <ele>1135.564306</ele>
        <time>2021-04-30T07:03:19.464Z</time>
      </trkpt>
      <trkpt lat="44.86086" lon="3.48766">
        <ele>1134.942518</ele>
        <time>2021-04-30T07:03:21.684Z</time>
      </trkpt>
      <trkpt lat="44.86063" lon="3.48782">
        <ele>1133.864339</ele>
        <time>2021-04-30T07:03:25.407Z</time>
      </trkpt>
      <trkpt lat="44.86048" lon="3.488">
        <ele>1133.06185</ele>
        <time>2021-04-30T07:03:28.416Z</time>
      </trkpt>
      <trkpt lat="44.86039" lon="3.48827">
        <ele>1132.180856</ele>
        <time>2021-04-30T07:03:31.518Z</time>
      </trkpt>
      <trkpt lat="44.86022" lon="3.48961">
        <ele>1128.6432</ele>
        <time>2021-04-30T07:03:47.377Z</time>
      </trkpt>
      <trkpt lat="44.86021" lon="3.48968">
        <ele>1128.683523</ele>
        <time>2021-04-30T07:03:48.193Z</time>
      </trkpt>
      <trkpt lat="44.86014" lon="3.49033">
        <ele>1129.011046</ele>
        <time>2021-04-30T07:03:57.286Z</time>
      </trkpt>
      <trkpt lat="44.86008" lon="3.4904">
        <ele>1129.066643</ele>
        <time>2021-04-30T07:04:00.308Z</time>
      </trkpt>
      <trkpt lat="44.85981" lon="3.49057">
        <ele>1129.2773</ele>
        <time>2021-04-30T07:04:06.925Z</time>
      </trkpt>
      <trkpt lat="44.85957" lon="3.49085">
        <ele>1129.496254</ele>
        <time>2021-04-30T07:04:15.556Z</time>
      </trkpt>
      <trkpt lat="44.85945" lon="3.49104">
        <ele>1129.63008</ele>
        <time>2021-04-30T07:04:23.008Z</time>
      </trkpt>
      <trkpt lat="44.8592" lon="3.49108">
        <ele>1129.808962</ele>
        <time>2021-04-30T07:04:30.604Z</time>
      </trkpt>
      <trkpt lat="44.85903" lon="3.49111">
        <ele>1130.37502</ele>
        <time>2021-04-30T07:04:37.190Z</time>
      </trkpt>
      <trkpt lat="44.85814" lon="3.49125">
        <ele>1134.783945</ele>
        <time>2021-04-30T07:05:15.006Z</time>
      </trkpt>
      <trkpt lat="44.85759" lon="3.49139">
        <ele>1137.506102</ele>
        <time>2021-04-30T07:05:39.098Z</time>
      </trkpt>
      <trkpt lat="44.85572" lon="3.49222">
        <ele>1148.900254</ele>
        <time>2021-04-30T07:07:08.851Z</time>
      </trkpt>
      <trkpt lat="44.85475" lon="3.49263">
        <ele>1155.836961</ele>
        <time>2021-04-30T07:07:58.058Z</time>
      </trkpt>
      <trkpt lat="44.85451" lon="3.49284">
        <ele>1157.857039</ele>
        <time>2021-04-30T07:08:13.076Z</time>
      </trkpt>
      <trkpt lat="44.85438" lon="3.49315">
        <ele>1159.586976</ele>
        <time>2021-04-30T07:08:25.681Z</time>
      </trkpt>
      <trkpt lat="44.85439" lon="3.49355">
        <ele>1161.559426</ele>
        <time>2021-04-30T07:08:39.954Z</time>
      </trkpt>
      <trkpt lat="44.85444" lon="3.49405">
        <ele>1164.108676</ele>
        <time>2021-04-30T07:08:59.874Z</time>
      </trkpt>
      <trkpt lat="44.85435" lon="3.49447">
        <ele>1166.326438</ele>
        <time>2021-04-30T07:09:16.834Z</time>
      </trkpt>
      <trkpt lat="44.85408" lon="3.49546">
        <ele>1171.648306</ele>
        <time>2021-04-30T07:09:55.248Z</time>
      </trkpt>
      <trkpt lat="44.8541" lon="3.49571">
        <ele>1172.923946</ele>
        <time>2021-04-30T07:10:04.718Z</time>
      </trkpt>
      <trkpt lat="44.85392" lon="3.49579">
        <ele>1174.254956</ele>
        <time>2021-04-30T07:10:16.339Z</time>
      </trkpt>
      <trkpt lat="44.85373" lon="3.49585">
        <ele>1175.252621</ele>
        <time>2021-04-30T07:10:28.129Z</time>
      </trkpt>
      <trkpt lat="44.85331" lon="3.49571">
        <ele>1177.178891</ele>
        <time>2021-04-30T07:10:52.341Z</time>
      </trkpt>
      <trkpt lat="44.85284" lon="3.4957">
        <ele>1179.248938</ele>
        <time>2021-04-30T07:11:17.643Z</time>
      </trkpt>
      <trkpt lat="44.85236" lon="3.49558">
        <ele>1181.450843</ele>
        <time>2021-04-30T07:11:43.541Z</time>
      </trkpt>
      <trkpt lat="44.85218" lon="3.49561">
        <ele>1182.233267</ele>
        <time>2021-04-30T07:11:52.011Z</time>
      </trkpt>
      <trkpt lat="44.85113" lon="3.49599">
        <ele>1187.082484</ele>
        <time>2021-04-30T07:12:47.847Z</time>
      </trkpt>
      <trkpt lat="44.85101" lon="3.49609">
        <ele>1187.677443</ele>
        <time>2021-04-30T07:12:55.030Z</time>
      </trkpt>
      <trkpt lat="44.85073" lon="3.49656">
        <ele>1189.635195</ele>
        <time>2021-04-30T07:13:20.657Z</time>
      </trkpt>
      <trkpt lat="44.85061" lon="3.49664">
        <ele>1190.196925</ele>
        <time>2021-04-30T07:13:28.921Z</time>
      </trkpt>
      <trkpt lat="44.85052" lon="3.49667">
        <ele>1190.633289</ele>
        <time>2021-04-30T07:13:35.579Z</time>
      </trkpt>
      <trkpt lat="44.85002" lon="3.49654">
        <ele>1193.827159</ele>
        <time>2021-04-30T07:14:05.463Z</time>
      </trkpt>
      <trkpt lat="44.84992" lon="3.49651">
        <ele>1194.443919</ele>
        <time>2021-04-30T07:14:11.507Z</time>
      </trkpt>
      <trkpt lat="44.84988" lon="3.49653">
        <ele>1194.705376</ele>
        <time>2021-04-30T07:14:16.206Z</time>
      </trkpt>
      <trkpt lat="44.84919" lon="3.49741">
        <ele>1200.546719</ele>
        <time>2021-04-30T07:15:12.948Z</time>
      </trkpt>
      <trkpt lat="44.84855" lon="3.49727">
        <ele>1204.276613</ele>
        <time>2021-04-30T07:15:55.725Z</time>
      </trkpt>
      <trkpt lat="44.84821" lon="3.4969">
        <ele>1206.579598</ele>
        <time>2021-04-30T07:16:19.397Z</time>
      </trkpt>
      <trkpt lat="44.84805" lon="3.4966">
        <ele>1208.031269</ele>
        <time>2021-04-30T07:16:34.150Z</time>
      </trkpt>
      <trkpt lat="44.84795" lon="3.49661">
        <ele>1208.576355</ele>
        <time>2021-04-30T07:16:39.675Z</time>
      </trkpt>
      <trkpt lat="44.84665" lon="3.4978">
        <ele>1217.679771</ele>
        <time>2021-04-30T07:18:09.729Z</time>
      </trkpt>
      <trkpt lat="44.84625" lon="3.49793">
        <ele>1220.228052</ele>
        <time>2021-04-30T07:18:37.078Z</time>
      </trkpt>
      <trkpt lat="44.84579" lon="3.49818">
        <ele>1223.315462</ele>
        <time>2021-04-30T07:19:09.262Z</time>
      </trkpt>
      <trkpt lat="44.84549" lon="3.49825">
        <ele>1225.365892</ele>
        <time>2021-04-30T07:19:29.580Z</time>
      </trkpt>
      <trkpt lat="44.84517" lon="3.49831">
        <ele>1227.599917</ele>
        <time>2021-04-30T07:19:51.584Z</time>
      </trkpt>
      <trkpt lat="44.84469" lon="3.49862">
        <ele>1231.21718</ele>
        <time>2021-04-30T07:20:26.663Z</time>
      </trkpt>
      <trkpt lat="44.84333" lon="3.49805">
        <ele>1239.173441</ele>
        <time>2021-04-30T07:21:51.607Z</time>
      </trkpt>
      <trkpt lat="44.84302" lon="3.49816">
        <ele>1240.734811</ele>
        <time>2021-04-30T07:22:08.661Z</time>
      </trkpt>
      <trkpt lat="44.84293" lon="3.4981">
        <ele>1241.237974</ele>
        <time>2021-04-30T07:22:13.763Z</time>
      </trkpt>
      <trkpt lat="44.84288" lon="3.49803">
        <ele>1241.562084</ele>
        <time>2021-04-30T07:22:18.257Z</time>
      </trkpt>
      <trkpt lat="44.84266" lon="3.49732">
        <ele>1244.237465</ele>
        <time>2021-04-30T07:22:46.167Z</time>
      </trkpt>
      <trkpt lat="44.84238" lon="3.49701">
        <ele>1246.095983</ele>
        <time>2021-04-30T07:23:05.071Z</time>
      </trkpt>
      <trkpt lat="44.84206" lon="3.49613">
        <ele>1249.786688</ele>
        <time>2021-04-30T07:23:44.797Z</time>
      </trkpt>
      <trkpt lat="44.84146" lon="3.49532">
        <ele>1254.795204</ele>
        <time>2021-04-30T07:24:36.315Z</time>
      </trkpt>
      <trkpt lat="44.84104" lon="3.49511">
        <ele>1258.79372</ele>
        <time>2021-04-30T07:25:07.535Z</time>
      </trkpt>
      <trkpt lat="44.84002" lon="3.49557">
        <ele>1268.421978</ele>
        <time>2021-04-30T07:26:29.881Z</time>
      </trkpt>
      <trkpt lat="44.83955" lon="3.49558">
        <ele>1272.775326</ele>
        <time>2021-04-30T07:27:06.831Z</time>
      </trkpt>
      <trkpt lat="44.83893" lon="3.49551">
        <ele>1278.609</ele>
        <time>2021-04-30T07:27:55.267Z</time>
      </trkpt>
      <trkpt lat="44.83876" lon="3.49563">
        <ele>1280.344456</ele>
        <time>2021-04-30T07:28:09.501Z</time>
      </trkpt>
      <trkpt lat="44.83674" lon="3.49566">
        <ele>1297.492864</ele>
        <time>2021-04-30T07:30:29.367Z</time>
      </trkpt>
      <trkpt lat="44.83535" lon="3.49541">
        <ele>1309.394476</ele>
        <time>2021-04-30T07:32:07.656Z</time>
      </trkpt>
      <trkpt lat="44.83521" lon="3.49547">
        <ele>1310.678226</ele>
        <time>2021-04-30T07:32:19.146Z</time>
      </trkpt>
      <trkpt lat="44.83515" lon="3.49598">
        <ele>1313.871385</ele>
        <time>2021-04-30T07:32:46.640Z</time>
      </trkpt>
      <trkpt lat="44.83517" lon="3.49648">
        <ele>1316.758453</ele>
        <time>2021-04-30T07:33:12.283Z</time>
      </trkpt>
      <trkpt lat="44.83507" lon="3.49697">
        <ele>1319.085001</ele>
        <time>2021-04-30T07:33:38.389Z</time>
      </trkpt>
      <trkpt lat="44.83495" lon="3.49752">
        <ele>1321.653945</ele>
        <time>2021-04-30T07:34:06.686Z</time>
      </trkpt>
      <trkpt lat="44.83344" lon="3.49709">
        <ele>1329.54899</ele>
        <time>2021-04-30T07:35:31.230Z</time>
      </trkpt>
      <trkpt lat="44.83025" lon="3.49616">
        <ele>1339.96761</ele>
        <time>2021-04-30T07:38:03.821Z</time>
      </trkpt>
      <trkpt lat="44.82996" lon="3.49608">
        <ele>1342.053541</ele>
        <time>2021-04-30T07:38:20.814Z</time>
      </trkpt>
      <trkpt lat="44.82989" lon="3.49621">
        <ele>1342.881629</ele>
        <time>2021-04-30T07:38:30.151Z</time>
      </trkpt>
      <trkpt lat="44.82985" lon="3.49639">
        <ele>1343.870418</ele>
        <time>2021-04-30T07:38:38.297Z</time>
      </trkpt>
      <trkpt lat="44.82975" lon="3.49795">
        <ele>1352.085719</ele>
        <time>2021-04-30T07:39:58.992Z</time>
      </trkpt>
      <trkpt lat="44.82967" lon="3.49834">
        <ele>1354.775775</ele>
        <time>2021-04-30T07:40:22.862Z</time>
      </trkpt>
      <trkpt lat="44.82942" lon="3.49884">
        <ele>1358.787187</ele>
        <time>2021-04-30T07:40:55.979Z</time>
      </trkpt>
      <trkpt lat="44.8292" lon="3.49907">
        <ele>1361.363545</ele>
        <time>2021-04-30T07:41:16.845Z</time>
      </trkpt>
      <trkpt lat="44.82889" lon="3.49929">
        <ele>1364.577162</ele>
        <time>2021-04-30T07:41:41.920Z</time>
      </trkpt>
      <trkpt lat="44.82842" lon="3.49972">
        <ele>1369.179226</ele>
        <time>2021-04-30T07:42:21.563Z</time>
      </trkpt>
      <trkpt lat="44.82839" lon="3.49974">
        <ele>1369.398272</ele>
        <time>2021-04-30T07:42:24.772Z</time>
      </trkpt>
      <trkpt lat="44.82782" lon="3.50035">
        <ele>1374.026742</ele>
        <time>2021-04-30T07:43:13.359Z</time>
      </trkpt>
      <trkpt lat="44.82747" lon="3.50082">
        <ele>1377.099061</ele>
        <time>2021-04-30T07:43:41.957Z</time>
      </trkpt>
      <trkpt lat="44.82735" lon="3.50095">
        <ele>1378.056959</ele>
        <time>2021-04-30T07:43:50.829Z</time>
      </trkpt>
      <trkpt lat="44.82691" lon="3.50149">
        <ele>1380.316961</ele>
        <time>2021-04-30T07:44:19.779Z</time>
      </trkpt>
      <trkpt lat="44.82666" lon="3.50196">
        <ele>1381.324437</ele>
        <time>2021-04-30T07:44:39.239Z</time>
      </trkpt>
      <trkpt lat="44.82581" lon="3.50317">
        <ele>1384.097037</ele>
        <time>2021-04-30T07:45:33.240Z</time>
      </trkpt>
      <trkpt lat="44.82567" lon="3.50331">
        <ele>1384.393578</ele>
        <time>2021-04-30T07:45:39.817Z</time>
      </trkpt>
      <trkpt lat="44.82546" lon="3.50328">
        <ele>1384.742884</ele>
        <time>2021-04-30T07:45:49.239Z</time>
      </trkpt>
      <trkpt lat="44.82466" lon="3.50313">
        <ele>1386.119254</ele>
        <time>2021-04-30T07:46:24.019Z</time>
      </trkpt>
      <trkpt lat="44.82421" lon="3.50298">
        <ele>1386.929767</ele>
        <time>2021-04-30T07:46:44.696Z</time>
      </trkpt>
      <trkpt lat="44.82373" lon="3.50278">
        <ele>1388.052416</ele>
        <time>2021-04-30T07:47:07.739Z</time>
      </trkpt>
      <trkpt lat="44.82334" lon="3.5025">
        <ele>1389.055205</ele>
        <time>2021-04-30T07:47:27.829Z</time>
      </trkpt>
      <trkpt lat="44.82327" lon="3.50242">
        <ele>1389.254865</ele>
        <time>2021-04-30T07:47:31.998Z</time>
      </trkpt>
      <trkpt lat="44.82315" lon="3.50227">
        <ele>1389.61426</ele>
        <time>2021-04-30T07:47:39.235Z</time>
      </trkpt>
      <trkpt lat="44.82285" lon="3.50185">
        <ele>1390.5898</ele>
        <time>2021-04-30T07:47:59.116Z</time>
      </trkpt>
      <trkpt lat="44.82252" lon="3.5011">
        <ele>1392.257476</ele>
        <time>2021-04-30T07:48:28.593Z</time>
      </trkpt>
      <trkpt lat="44.8225" lon="3.50011">
        <ele>1394.220555</ele>
        <time>2021-04-30T07:49:02.707Z</time>
      </trkpt>
      <trkpt lat="44.82232" lon="3.49864">
        <ele>1397.017721</ele>
        <time>2021-04-30T07:49:54.851Z</time>
      </trkpt>
      <trkpt lat="44.82228" lon="3.49844">
        <ele>1397.371621</ele>
        <time>2021-04-30T07:50:02.008Z</time>
      </trkpt>
      <trkpt lat="44.822" lon="3.49808">
        <ele>1398.310031</ele>
        <time>2021-04-30T07:50:20.498Z</time>
      </trkpt>
      <trkpt lat="44.82107" lon="3.49738">
        <ele>1400.531422</ele>
        <time>2021-04-30T07:51:07.959Z</time>
      </trkpt>
      <trkpt lat="44.82048" lon="3.49682">
        <ele>1401.265393</ele>
        <time>2021-04-30T07:51:37.665Z</time>
      </trkpt>
      <trkpt lat="44.81963" lon="3.49616">
        <ele>1402.292887</ele>
        <time>2021-04-30T07:52:15.890Z</time>
      </trkpt>
      <trkpt lat="44.81888" lon="3.49602">
        <ele>1403.273943</ele>
        <time>2021-04-30T07:52:45.409Z</time>
      </trkpt>
      <trkpt lat="44.81843" lon="3.49606">
        <ele>1403.864103</ele>
        <time>2021-04-30T07:53:05.292Z</time>
      </trkpt>
      <trkpt lat="44.81771" lon="3.49633">
        <ele>1405.10746</ele>
        <time>2021-04-30T07:53:39.283Z</time>
      </trkpt>
      <trkpt lat="44.81761" lon="3.49637">
        <ele>1405.33117</ele>
        <time>2021-04-30T07:53:43.669Z</time>
      </trkpt>
      <trkpt lat="44.81726" lon="3.49638">
        <ele>1406.147955</ele>
        <time>2021-04-30T07:54:00.353Z</time>
      </trkpt>
      <trkpt lat="44.81724" lon="3.49646">
        <ele>1406.286772</ele>
        <time>2021-04-30T07:54:03.961Z</time>
      </trkpt>
      <trkpt lat="44.81703" lon="3.49694">
        <ele>1407.213915</ele>
        <time>2021-04-30T07:54:22.786Z</time>
      </trkpt>
      <trkpt lat="44.81699" lon="3.49712">
        <ele>1407.535572</ele>
        <time>2021-04-30T07:54:29.035Z</time>
      </trkpt>
      <trkpt lat="44.81717" lon="3.49752">
        <ele>1408.298929</ele>
        <time>2021-04-30T07:54:44.513Z</time>
      </trkpt>
      <trkpt lat="44.81736" lon="3.49761">
        <ele>1408.68934</ele>
        <time>2021-04-30T07:54:53.977Z</time>
      </trkpt>
      <trkpt lat="44.81749" lon="3.4977">
        <ele>1408.796017</ele>
        <time>2021-04-30T07:55:00.892Z</time>
      </trkpt>
      <trkpt lat="44.8174" lon="3.49944">
        <ele>1409.678659</ele>
        <time>2021-04-30T07:55:50.261Z</time>
      </trkpt>
      <trkpt lat="44.81726" lon="3.4994">
        <ele>1409.780352</ele>
        <time>2021-04-30T07:55:55.620Z</time>
      </trkpt>
      <trkpt lat="44.81702" lon="3.4995">
        <ele>1409.91622</ele>
        <time>2021-04-30T07:56:04.651Z</time>
      </trkpt>
      <trkpt lat="44.81611" lon="3.50029">
        <ele>1409.246957</ele>
        <time>2021-04-30T07:56:41.577Z</time>
      </trkpt>
      <trkpt lat="44.81559" lon="3.50063">
        <ele>1408.893473</ele>
        <time>2021-04-30T07:57:00.854Z</time>
      </trkpt>
      <trkpt lat="44.81541" lon="3.50071">
        <ele>1408.832507</ele>
        <time>2021-04-30T07:57:07.653Z</time>
      </trkpt>
      <trkpt lat="44.81471" lon="3.50069">
        <ele>1409.036056</ele>
        <time>2021-04-30T07:57:32.247Z</time>
      </trkpt>
      <trkpt lat="44.81427" lon="3.50057">
        <ele>1409.168441</ele>
        <time>2021-04-30T07:57:49.334Z</time>
      </trkpt>
      <trkpt lat="44.81376" lon="3.50033">
        <ele>1409.327439</ele>
        <time>2021-04-30T07:58:11.256Z</time>
      </trkpt>
      <trkpt lat="44.81349" lon="3.50005">
        <ele>1410.249707</ele>
        <time>2021-04-30T07:58:25.909Z</time>
      </trkpt>
      <trkpt lat="44.81311" lon="3.49959">
        <ele>1411.81472</ele>
        <time>2021-04-30T07:58:50.246Z</time>
      </trkpt>
      <trkpt lat="44.81244" lon="3.49831">
        <ele>1415.36649</ele>
        <time>2021-04-30T07:59:49.872Z</time>
      </trkpt>
      <trkpt lat="44.81235" lon="3.49813">
        <ele>1415.883844</ele>
        <time>2021-04-30T07:59:58.700Z</time>
      </trkpt>
      <trkpt lat="44.81205" lon="3.49813">
        <ele>1416.900526</ele>
        <time>2021-04-30T08:00:14.239Z</time>
      </trkpt>
      <trkpt lat="44.81123" lon="3.49836">
        <ele>1419.752424</ele>
        <time>2021-04-30T08:00:57.424Z</time>
      </trkpt>
      <trkpt lat="44.811" lon="3.49849">
        <ele>1420.591323</ele>
        <time>2021-04-30T08:01:09.777Z</time>
      </trkpt>
      <trkpt lat="44.81087" lon="3.49864">
        <ele>1421.109061</ele>
        <time>2021-04-30T08:01:17.811Z</time>
      </trkpt>
      <trkpt lat="44.81038" lon="3.50002">
        <ele>1422.424527</ele>
        <time>2021-04-30T08:02:03.767Z</time>
      </trkpt>
      <trkpt lat="44.81016" lon="3.50029">
        <ele>1422.766145</ele>
        <time>2021-04-30T08:02:15.154Z</time>
      </trkpt>
      <trkpt lat="44.80991" lon="3.50048">
        <ele>1423.114953</ele>
        <time>2021-04-30T08:02:26.709Z</time>
      </trkpt>
      <trkpt lat="44.80956" lon="3.50064">
        <ele>1423.068823</ele>
        <time>2021-04-30T08:02:41.163Z</time>
      </trkpt>
      <trkpt lat="44.80949" lon="3.50066">
        <ele>1423.029604</ele>
        <time>2021-04-30T08:02:43.680Z</time>
      </trkpt>
      <trkpt lat="44.80909" lon="3.50078">
        <ele>1422.774563</ele>
        <time>2021-04-30T08:02:58.798Z</time>
      </trkpt>
      <trkpt lat="44.80817" lon="3.50112">
        <ele>1422.18594</ele>
        <time>2021-04-30T08:03:31.107Z</time>
      </trkpt>
      <trkpt lat="44.80797" lon="3.5012">
        <ele>1421.830041</ele>
        <time>2021-04-30T08:03:37.590Z</time>
      </trkpt>
      <trkpt lat="44.8077" lon="3.50131">
        <ele>1420.979129</ele>
        <time>2021-04-30T08:03:46.712Z</time>
      </trkpt>
      <trkpt lat="44.80741" lon="3.50144">
        <ele>1420.086478</ele>
        <time>2021-04-30T08:03:56.008Z</time>
      </trkpt>
      <trkpt lat="44.807" lon="3.50153">
        <ele>1418.885925</ele>
        <time>2021-04-30T08:04:08.211Z</time>
      </trkpt>
      <trkpt lat="44.80525" lon="3.5016">
        <ele>1413.468124</ele>
        <time>2021-04-30T08:04:58.003Z</time>
      </trkpt>
      <trkpt lat="44.80454" lon="3.50177">
        <ele>1411.137119</ele>
        <time>2021-04-30T08:05:19.926Z</time>
      </trkpt>
      <trkpt lat="44.80412" lon="3.50165">
        <ele>1411.449457</ele>
        <time>2021-04-30T08:05:33.954Z</time>
      </trkpt>
      <trkpt lat="44.80381" lon="3.50146">
        <ele>1411.75711</ele>
        <time>2021-04-30T08:05:46.767Z</time>
      </trkpt>
      <trkpt lat="44.80373" lon="3.50142">
        <ele>1411.835404</ele>
        <time>2021-04-30T08:05:49.396Z</time>
      </trkpt>
      <trkpt lat="44.80371" lon="3.50129">
        <ele>1411.921005</ele>
        <time>2021-04-30T08:05:53.256Z</time>
      </trkpt>
      <trkpt lat="44.80364" lon="3.50101">
        <ele>1412.110189</ele>
        <time>2021-04-30T08:05:58.395Z</time>
      </trkpt>
      <trkpt lat="44.80343" lon="3.50048">
        <ele>1412.507454</ele>
        <time>2021-04-30T08:06:11.911Z</time>
      </trkpt>
      <trkpt lat="44.80317" lon="3.50007">
        <ele>1413.416877</ele>
        <time>2021-04-30T08:06:26.471Z</time>
      </trkpt>
      <trkpt lat="44.80293" lon="3.50007">
        <ele>1414.45382</ele>
        <time>2021-04-30T08:06:36.037Z</time>
      </trkpt>
      <trkpt lat="44.80283" lon="3.50013">
        <ele>1414.969809</ele>
        <time>2021-04-30T08:06:40.488Z</time>
      </trkpt>
      <trkpt lat="44.80237" lon="3.50067">
        <ele>1417.561937</ele>
        <time>2021-04-30T08:07:05.799Z</time>
      </trkpt>
      <trkpt lat="44.80214" lon="3.50086">
        <ele>1418.757008</ele>
        <time>2021-04-30T08:07:16.988Z</time>
      </trkpt>
      <trkpt lat="44.80124" lon="3.50101">
        <ele>1422.17427</ele>
        <time>2021-04-30T08:07:53.221Z</time>
      </trkpt>
      <trkpt lat="44.80094" lon="3.50097">
        <ele>1423.147826</ele>
        <time>2021-04-30T08:08:04.282Z</time>
      </trkpt>
      <trkpt lat="44.80028" lon="3.50049">
        <ele>1425.528443</ele>
        <time>2021-04-30T08:08:29.427Z</time>
      </trkpt>
      <trkpt lat="44.80018" lon="3.5004">
        <ele>1425.903414</ele>
        <time>2021-04-30T08:08:33.688Z</time>
      </trkpt>
      <trkpt lat="44.80014" lon="3.50091">
        <ele>1426.231848</ele>
        <time>2021-04-30T08:08:44.861Z</time>
      </trkpt>
      <trkpt lat="44.80008" lon="3.50157">
        <ele>1425.85495</ele>
        <time>2021-04-30T08:08:56.579Z</time>
      </trkpt>
      <trkpt lat="44.80009" lon="3.50178">
        <ele>1425.730259</ele>
        <time>2021-04-30T08:08:59.879Z</time>
      </trkpt>
      <trkpt lat="44.8" lon="3.50187">
        <ele>1425.637335</ele>
        <time>2021-04-30T08:09:02.821Z</time>
      </trkpt>
      <trkpt lat="44.79985" lon="3.50229">
        <ele>1425.368305</ele>
        <time>2021-04-30T08:09:09.427Z</time>
      </trkpt>
      <trkpt lat="44.79971" lon="3.5024">
        <ele>1425.241594</ele>
        <time>2021-04-30T08:09:12.228Z</time>
      </trkpt>
      <trkpt lat="44.79938" lon="3.50243">
        <ele>1424.969967</ele>
        <time>2021-04-30T08:09:18.112Z</time>
      </trkpt>
      <trkpt lat="44.79876" lon="3.5024">
        <ele>1422.069994</ele>
        <time>2021-04-30T08:09:27.841Z</time>
      </trkpt>
      <trkpt lat="44.79785" lon="3.50198">
        <ele>1417.420976</ele>
        <time>2021-04-30T08:09:42.514Z</time>
      </trkpt>
      <trkpt lat="44.79754" lon="3.50173">
        <ele>1416.178063</ele>
        <time>2021-04-30T08:09:48.350Z</time>
      </trkpt>
      <trkpt lat="44.79733" lon="3.5015">
        <ele>1416.143546</ele>
        <time>2021-04-30T08:09:52.971Z</time>
      </trkpt>
      <trkpt lat="44.79724" lon="3.5013">
        <ele>1416.121325</ele>
        <time>2021-04-30T08:09:55.845Z</time>
      </trkpt>
      <trkpt lat="44.79726" lon="3.50099">
        <ele>1416.092878</ele>
        <time>2021-04-30T08:10:00.344Z</time>
      </trkpt>
      <trkpt lat="44.79735" lon="3.50051">
        <ele>1416.047475</ele>
        <time>2021-04-30T08:10:08.318Z</time>
      </trkpt>
      <trkpt lat="44.79731" lon="3.50025">
        <ele>1416.022385</ele>
        <time>2021-04-30T08:10:13.152Z</time>
      </trkpt>
      <trkpt lat="44.7969" lon="3.49977">
        <ele>1416.158712</ele>
        <time>2021-04-30T08:10:33.220Z</time>
      </trkpt>
      <trkpt lat="44.79648" lon="3.49953">
        <ele>1418.262254</ele>
        <time>2021-04-30T08:10:53.915Z</time>
      </trkpt>
      <trkpt lat="44.79612" lon="3.49955">
        <ele>1419.905487</ele>
        <time>2021-04-30T08:11:09.615Z</time>
      </trkpt>
      <trkpt lat="44.79581" lon="3.49966">
        <ele>1421.38588</ele>
        <time>2021-04-30T08:11:23.517Z</time>
      </trkpt>
      <trkpt lat="44.79515" lon="3.49962">
        <ele>1424.38697</ele>
        <time>2021-04-30T08:11:50.806Z</time>
      </trkpt>
      <trkpt lat="44.79473" lon="3.49948">
        <ele>1425.805888</ele>
        <time>2021-04-30T08:12:08.021Z</time>
      </trkpt>
      <trkpt lat="44.79367" lon="3.49898">
        <ele>1429.452216</ele>
        <time>2021-04-30T08:12:45.979Z</time>
      </trkpt>
      <trkpt lat="44.79331" lon="3.49876">
        <ele>1430.810747</ele>
        <time>2021-04-30T08:12:59.739Z</time>
      </trkpt>
      <trkpt lat="44.79265" lon="3.49814">
        <ele>1433.754093</ele>
        <time>2021-04-30T08:13:29.150Z</time>
      </trkpt>
      <trkpt lat="44.79186" lon="3.49782">
        <ele>1436.778026</ele>
        <time>2021-04-30T08:14:01.594Z</time>
      </trkpt>
      <trkpt lat="44.79146" lon="3.49775">
        <ele>1438.508743</ele>
        <time>2021-04-30T08:14:18.082Z</time>
      </trkpt>
      <trkpt lat="44.78968" lon="3.49777">
        <ele>1445.634709</ele>
        <time>2021-04-30T08:15:30.987Z</time>
      </trkpt>
      <trkpt lat="44.78894" lon="3.49834">
        <ele>1447.914138</ele>
        <time>2021-04-30T08:16:00.619Z</time>
      </trkpt>
      <trkpt lat="44.78866" lon="3.49842">
        <ele>1448.676298</ele>
        <time>2021-04-30T08:16:09.188Z</time>
      </trkpt>
      <trkpt lat="44.78844" lon="3.49845">
        <ele>1449.278436</ele>
        <time>2021-04-30T08:16:15.605Z</time>
      </trkpt>
      <trkpt lat="44.78822" lon="3.49847">
        <ele>1449.38883</ele>
        <time>2021-04-30T08:16:21.506Z</time>
      </trkpt>
      <trkpt lat="44.7878" lon="3.4986">
        <ele>1449.166492</ele>
        <time>2021-04-30T08:16:31.819Z</time>
      </trkpt>
      <trkpt lat="44.78712" lon="3.49915">
        <ele>1448.762954</ele>
        <time>2021-04-30T08:16:47.996Z</time>
      </trkpt>
      <trkpt lat="44.78672" lon="3.49959">
        <ele>1448.424375</ele>
        <time>2021-04-30T08:16:57.528Z</time>
      </trkpt>
      <trkpt lat="44.78621" lon="3.50004">
        <ele>1447.526793</ele>
        <time>2021-04-30T08:17:08.725Z</time>
      </trkpt>
      <trkpt lat="44.78587" lon="3.50067">
        <ele>1446.684435</ele>
        <time>2021-04-30T08:17:19.550Z</time>
      </trkpt>
      <trkpt lat="44.78569" lon="3.50104">
        <ele>1446.216695</ele>
        <time>2021-04-30T08:17:25.645Z</time>
      </trkpt>
      <trkpt lat="44.78574" lon="3.50115">
        <ele>1446.080272</ele>
        <time>2021-04-30T08:17:28.836Z</time>
      </trkpt>
      <trkpt lat="44.7858" lon="3.50134">
        <ele>1445.854466</ele>
        <time>2021-04-30T08:17:33.881Z</time>
      </trkpt>
      <trkpt lat="44.78588" lon="3.50144">
        <ele>1445.734352</ele>
        <time>2021-04-30T08:17:37.223Z</time>
      </trkpt>
      <trkpt lat="44.78586" lon="3.50159">
        <ele>1445.603023</ele>
        <time>2021-04-30T08:17:41.304Z</time>
      </trkpt>
      <trkpt lat="44.7855" lon="3.50227">
        <ele>1444.914597</ele>
        <time>2021-04-30T08:18:01.490Z</time>
      </trkpt>
      <trkpt lat="44.78538" lon="3.50269">
        <ele>1444.544946</ele>
        <time>2021-04-30T08:18:12.518Z</time>
      </trkpt>
      <trkpt lat="44.7853" lon="3.50276">
        <ele>1444.434441</ele>
        <time>2021-04-30T08:18:15.811Z</time>
      </trkpt>
      <trkpt lat="44.78532" lon="3.50295">
        <ele>1444.284292</ele>
        <time>2021-04-30T08:18:20.420Z</time>
      </trkpt>
      <trkpt lat="44.78515" lon="3.50354">
        <ele>1443.720176</ele>
        <time>2021-04-30T08:18:35.678Z</time>
      </trkpt>
      <trkpt lat="44.78512" lon="3.50401">
        <ele>1442.618032</ele>
        <time>2021-04-30T08:18:46.226Z</time>
      </trkpt>
      <trkpt lat="44.78498" lon="3.5045">
        <ele>1441.364221</ele>
        <time>2021-04-30T08:18:57.788Z</time>
      </trkpt>
      <trkpt lat="44.78497" lon="3.50489">
        <ele>1440.454971</ele>
        <time>2021-04-30T08:19:05.970Z</time>
      </trkpt>
      <trkpt lat="44.78488" lon="3.50503">
        <ele>1440.005692</ele>
        <time>2021-04-30T08:19:09.920Z</time>
      </trkpt>
      <trkpt lat="44.78476" lon="3.50508">
        <ele>1439.58212</ele>
        <time>2021-04-30T08:19:13.636Z</time>
      </trkpt>
      <trkpt lat="44.78225" lon="3.50299">
        <ele>1425.206956</ele>
        <time>2021-04-30T08:20:32.845Z</time>
      </trkpt>
      <trkpt lat="44.78207" lon="3.5029">
        <ele>1424.144132</ele>
        <time>2021-04-30T08:20:38.058Z</time>
      </trkpt>
      <trkpt lat="44.78202" lon="3.50308">
        <ele>1423.421949</ele>
        <time>2021-04-30T08:20:41.734Z</time>
      </trkpt>
      <trkpt lat="44.78191" lon="3.50388">
        <ele>1420.302896</ele>
        <time>2021-04-30T08:20:57.318Z</time>
      </trkpt>
      <trkpt lat="44.78171" lon="3.50462">
        <ele>1417.718455</ele>
        <time>2021-04-30T08:21:12.541Z</time>
      </trkpt>
      <trkpt lat="44.78098" lon="3.50612">
        <ele>1413.016471</ele>
        <time>2021-04-30T08:21:49.637Z</time>
      </trkpt>
      <trkpt lat="44.78083" lon="3.50649">
        <ele>1412.113907</ele>
        <time>2021-04-30T08:21:59.114Z</time>
      </trkpt>
      <trkpt lat="44.78068" lon="3.50605">
        <ele>1412.500306</ele>
        <time>2021-04-30T08:22:10.840Z</time>
      </trkpt>
      <trkpt lat="44.78046" lon="3.50545">
        <ele>1413.028077</ele>
        <time>2021-04-30T08:22:28.996Z</time>
      </trkpt>
      <trkpt lat="44.78007" lon="3.50513">
        <ele>1413.532979</ele>
        <time>2021-04-30T08:22:48.703Z</time>
      </trkpt>
      <trkpt lat="44.78003" lon="3.50505">
        <ele>1413.613482</ele>
        <time>2021-04-30T08:22:52.060Z</time>
      </trkpt>
      <trkpt lat="44.78016" lon="3.50427">
        <ele>1414.866243</ele>
        <time>2021-04-30T08:23:22.320Z</time>
      </trkpt>
      <trkpt lat="44.78052" lon="3.50348">
        <ele>1418.116797</ele>
        <time>2021-04-30T08:24:00.632Z</time>
      </trkpt>
      <trkpt lat="44.78049" lon="3.50307">
        <ele>1419.566576</ele>
        <time>2021-04-30T08:24:18.052Z</time>
      </trkpt>
      <trkpt lat="44.78052" lon="3.50245">
        <ele>1421.699078</ele>
        <time>2021-04-30T08:24:43.605Z</time>
      </trkpt>
      <trkpt lat="44.78042" lon="3.50227">
        <ele>1422.525007</ele>
        <time>2021-04-30T08:24:53.401Z</time>
      </trkpt>
      <trkpt lat="44.78007" lon="3.50201">
        <ele>1424.249222</ele>
        <time>2021-04-30T08:25:16.112Z</time>
      </trkpt>
      <trkpt lat="44.78002" lon="3.50181">
        <ele>1424.895663</ele>
        <time>2021-04-30T08:25:24.766Z</time>
      </trkpt>
      <trkpt lat="44.78041" lon="3.50001">
        <ele>1430.545261</ele>
        <time>2021-04-30T08:26:36.377Z</time>
      </trkpt>
      <trkpt lat="44.78057" lon="3.49947">
        <ele>1431.404094</ele>
        <time>2021-04-30T08:26:56.375Z</time>
      </trkpt>
      <trkpt lat="44.78056" lon="3.49926">
        <ele>1431.715347</ele>
        <time>2021-04-30T08:27:03.491Z</time>
      </trkpt>
      <trkpt lat="44.78036" lon="3.49878">
        <ele>1432.535561</ele>
        <time>2021-04-30T08:27:21.640Z</time>
      </trkpt>
      <trkpt lat="44.77927" lon="3.49811">
        <ele>1434.369377</ele>
        <time>2021-04-30T08:28:11.557Z</time>
      </trkpt>
      <trkpt lat="44.77873" lon="3.49801">
        <ele>1434.539092</ele>
        <time>2021-04-30T08:28:32.381Z</time>
      </trkpt>
      <trkpt lat="44.77824" lon="3.49822">
        <ele>1434.698812</ele>
        <time>2021-04-30T08:28:51.366Z</time>
      </trkpt>
      <trkpt lat="44.77792" lon="3.49826">
        <ele>1434.801243</ele>
        <time>2021-04-30T08:29:03.329Z</time>
      </trkpt>
      <trkpt lat="44.77785" lon="3.49834">
        <ele>1434.815897</ele>
        <time>2021-04-30T08:29:06.401Z</time>
      </trkpt>
      <trkpt lat="44.77784" lon="3.49892">
        <ele>1434.777405</ele>
        <time>2021-04-30T08:29:21.230Z</time>
      </trkpt>
      <trkpt lat="44.77735" lon="3.49979">
        <ele>1434.703578</ele>
        <time>2021-04-30T08:29:49.920Z</time>
      </trkpt>
      <trkpt lat="44.77692" lon="3.50047">
        <ele>1434.663297</ele>
        <time>2021-04-30T08:30:14.068Z</time>
      </trkpt>
      <trkpt lat="44.77622" lon="3.50107">
        <ele>1434.803516</ele>
        <time>2021-04-30T08:30:44.984Z</time>
      </trkpt>
      <trkpt lat="44.77592" lon="3.50172">
        <ele>1434.897956</ele>
        <time>2021-04-30T08:31:05.814Z</time>
      </trkpt>
      <trkpt lat="44.77549" lon="3.50233">
        <ele>1434.625479</ele>
        <time>2021-04-30T08:31:28.986Z</time>
      </trkpt>
      <trkpt lat="44.77523" lon="3.50288">
        <ele>1434.017773</ele>
        <time>2021-04-30T08:31:46.054Z</time>
      </trkpt>
      <trkpt lat="44.77499" lon="3.50321">
        <ele>1433.577189</ele>
        <time>2021-04-30T08:31:57.341Z</time>
      </trkpt>
      <trkpt lat="44.77481" lon="3.50328">
        <ele>1433.334911</ele>
        <time>2021-04-30T08:32:03.338Z</time>
      </trkpt>
      <trkpt lat="44.77435" lon="3.50322">
        <ele>1432.73477</ele>
        <time>2021-04-30T08:32:17.324Z</time>
      </trkpt>
      <trkpt lat="44.77393" lon="3.50345">
        <ele>1431.139546</ele>
        <time>2021-04-30T08:32:30.676Z</time>
      </trkpt>
      <trkpt lat="44.77373" lon="3.5035">
        <ele>1430.311769</ele>
        <time>2021-04-30T08:32:36.631Z</time>
      </trkpt>
      <trkpt lat="44.77364" lon="3.50359">
        <ele>1429.86842</ele>
        <time>2021-04-30T08:32:39.681Z</time>
      </trkpt>
      <trkpt lat="44.77342" lon="3.50376">
        <ele>1428.840852</ele>
        <time>2021-04-30T08:32:46.929Z</time>
      </trkpt>
      <trkpt lat="44.77327" lon="3.50387">
        <ele>1428.135199</ele>
        <time>2021-04-30T08:32:51.704Z</time>
      </trkpt>
      <trkpt lat="44.77221" lon="3.5045">
        <ele>1423.660607</ele>
        <time>2021-04-30T08:33:23.209Z</time>
      </trkpt>
      <trkpt lat="44.77208" lon="3.50451">
        <ele>1423.193777</ele>
        <time>2021-04-30T08:33:26.957Z</time>
      </trkpt>
      <trkpt lat="44.77167" lon="3.5047">
        <ele>1421.654238</ele>
        <time>2021-04-30T08:33:39.066Z</time>
      </trkpt>
      <trkpt lat="44.77119" lon="3.50486">
        <ele>1419.87573</ele>
        <time>2021-04-30T08:33:53.780Z</time>
      </trkpt>
      <trkpt lat="44.77096" lon="3.50489">
        <ele>1419.028366</ele>
        <time>2021-04-30T08:34:01.077Z</time>
      </trkpt>
      <trkpt lat="44.77045" lon="3.50502">
        <ele>1418.768821</ele>
        <time>2021-04-30T08:34:17.391Z</time>
      </trkpt>
      <trkpt lat="44.76947" lon="3.50512">
        <ele>1418.713095</ele>
        <time>2021-04-30T08:34:54.256Z</time>
      </trkpt>
      <trkpt lat="44.76911" lon="3.50526">
        <ele>1418.711205</ele>
        <time>2021-04-30T08:35:10.695Z</time>
      </trkpt>
      <trkpt lat="44.76891" lon="3.50546">
        <ele>1419.370087</ele>
        <time>2021-04-30T08:35:22.052Z</time>
      </trkpt>
      <trkpt lat="44.76855" lon="3.50565">
        <ele>1420.369167</ele>
        <time>2021-04-30T08:35:39.749Z</time>
      </trkpt>
      <trkpt lat="44.7683" lon="3.5059">
        <ele>1421.205759</ele>
        <time>2021-04-30T08:35:55.040Z</time>
      </trkpt>
      <trkpt lat="44.76791" lon="3.50613">
        <ele>1422.315072</ele>
        <time>2021-04-30T08:36:15.782Z</time>
      </trkpt>
      <trkpt lat="44.76758" lon="3.50642">
        <ele>1423.346149</ele>
        <time>2021-04-30T08:36:35.218Z</time>
      </trkpt>
      <trkpt lat="44.7672" lon="3.50717">
        <ele>1425.13733</ele>
        <time>2021-04-30T08:37:07.288Z</time>
      </trkpt>
      <trkpt lat="44.76676" lon="3.50722">
        <ele>1426.3631</ele>
        <time>2021-04-30T08:37:29.061Z</time>
      </trkpt>
      <trkpt lat="44.76624" lon="3.50754">
        <ele>1427.930899</ele>
        <time>2021-04-30T08:37:55.678Z</time>
      </trkpt>
      <trkpt lat="44.76592" lon="3.50757">
        <ele>1428.744303</ele>
        <time>2021-04-30T08:38:09.864Z</time>
      </trkpt>
      <trkpt lat="44.76561" lon="3.50788">
        <ele>1429.623069</ele>
        <time>2021-04-30T08:38:27.584Z</time>
      </trkpt>
      <trkpt lat="44.76556" lon="3.50789">
        <ele>1429.72984</ele>
        <time>2021-04-30T08:38:29.913Z</time>
      </trkpt>
      <trkpt lat="44.76552" lon="3.50789">
        <ele>1429.829177</ele>
        <time>2021-04-30T08:38:31.865Z</time>
      </trkpt>
      <trkpt lat="44.76472" lon="3.50693">
        <ele>1432.256574</ele>
        <time>2021-04-30T08:39:20.573Z</time>
      </trkpt>
      <trkpt lat="44.76469" lon="3.50693">
        <ele>1432.323552</ele>
        <time>2021-04-30T08:39:21.869Z</time>
      </trkpt>
      <trkpt lat="44.76463" lon="3.50699">
        <ele>1432.504989</ele>
        <time>2021-04-30T08:39:25.191Z</time>
      </trkpt>
      <trkpt lat="44.76458" lon="3.50708">
        <ele>1432.680852</ele>
        <time>2021-04-30T08:39:29.657Z</time>
      </trkpt>
      <trkpt lat="44.76427" lon="3.50769">
        <ele>1433.734311</ele>
        <time>2021-04-30T08:39:53.838Z</time>
      </trkpt>
      <trkpt lat="44.76305" lon="3.50982">
        <ele>1436.798716</ele>
        <time>2021-04-30T08:41:20.426Z</time>
      </trkpt>
      <trkpt lat="44.76303" lon="3.50989">
        <ele>1436.848275</ele>
        <time>2021-04-30T08:41:22.660Z</time>
      </trkpt>
      <trkpt lat="44.76318" lon="3.51077">
        <ele>1437.416951</ele>
        <time>2021-04-30T08:41:47.784Z</time>
      </trkpt>
      <trkpt lat="44.76301" lon="3.5112">
        <ele>1437.730765</ele>
        <time>2021-04-30T08:42:00.938Z</time>
      </trkpt>
      <trkpt lat="44.76294" lon="3.51178">
        <ele>1437.430228</ele>
        <time>2021-04-30T08:42:15.866Z</time>
      </trkpt>
      <trkpt lat="44.76252" lon="3.51252">
        <ele>1436.849492</ele>
        <time>2021-04-30T08:42:39.044Z</time>
      </trkpt>
      <trkpt lat="44.76238" lon="3.5129">
        <ele>1436.589152</ele>
        <time>2021-04-30T08:42:49.188Z</time>
      </trkpt>
      <trkpt lat="44.76203" lon="3.51344">
        <ele>1436.036561</ele>
        <time>2021-04-30T08:43:06.490Z</time>
      </trkpt>
      <trkpt lat="44.76149" lon="3.51454">
        <ele>1434.167584</ele>
        <time>2021-04-30T08:43:36.773Z</time>
      </trkpt>
      <trkpt lat="44.76112" lon="3.51489">
        <ele>1433.284572</ele>
        <time>2021-04-30T08:43:50.724Z</time>
      </trkpt>
      <trkpt lat="44.76084" lon="3.51531">
        <ele>1432.425914</ele>
        <time>2021-04-30T08:44:03.163Z</time>
      </trkpt>
      <trkpt lat="44.76028" lon="3.51593">
        <ele>1430.531116</ele>
        <time>2021-04-30T08:44:24.898Z</time>
      </trkpt>
      <trkpt lat="44.75953" lon="3.51711">
        <ele>1427.624838</ele>
        <time>2021-04-30T08:44:58.699Z</time>
      </trkpt>
      <trkpt lat="44.75949" lon="3.51741">
        <ele>1427.155443</ele>
        <time>2021-04-30T08:45:05.170Z</time>
      </trkpt>
      <trkpt lat="44.75948" lon="3.51998">
        <ele>1424.037134</ele>
        <time>2021-04-30T08:46:02.354Z</time>
      </trkpt>
      <trkpt lat="44.75963" lon="3.52144">
        <ele>1424.267059</ele>
        <time>2021-04-30T08:46:41.010Z</time>
      </trkpt>
      <trkpt lat="44.75964" lon="3.52158">
        <ele>1424.289212</ele>
        <time>2021-04-30T08:46:44.912Z</time>
      </trkpt>
      <trkpt lat="44.75955" lon="3.5219">
        <ele>1424.342547</ele>
        <time>2021-04-30T08:46:54.324Z</time>
      </trkpt>
      <trkpt lat="44.75939" lon="3.52204">
        <ele>1425.409065</ele>
        <time>2021-04-30T08:47:02.264Z</time>
      </trkpt>
      <trkpt lat="44.75906" lon="3.52209">
        <ele>1427.673458</ele>
        <time>2021-04-30T08:47:17.361Z</time>
      </trkpt>
      <trkpt lat="44.75891" lon="3.52185">
        <ele>1429.238554</ele>
        <time>2021-04-30T08:47:29.854Z</time>
      </trkpt>
      <trkpt lat="44.75886" lon="3.52185">
        <ele>1429.547638</ele>
        <time>2021-04-30T08:47:32.127Z</time>
      </trkpt>
      <trkpt lat="44.75875" lon="3.52191">
        <ele>1430.393001</ele>
        <time>2021-04-30T08:47:39.496Z</time>
      </trkpt>
      <trkpt lat="44.75872" lon="3.52182">
        <ele>1430.888144</ele>
        <time>2021-04-30T08:47:43.264Z</time>
      </trkpt>
      <trkpt lat="44.75868" lon="3.52171">
        <ele>1431.471378</ele>
        <time>2021-04-30T08:47:47.740Z</time>
      </trkpt>
      <trkpt lat="44.75864" lon="3.52164">
        <ele>1431.896668</ele>
        <time>2021-04-30T08:47:50.854Z</time>
      </trkpt>
      <trkpt lat="44.75839" lon="3.52201">
        <ele>1434.413703</ele>
        <time>2021-04-30T08:48:17.663Z</time>
      </trkpt>
      <trkpt lat="44.75809" lon="3.52236">
        <ele>1437.232204</ele>
        <time>2021-04-30T08:48:42.503Z</time>
      </trkpt>
      <trkpt lat="44.75777" lon="3.52263">
        <ele>1440.988944</ele>
        <time>2021-04-30T08:49:07.667Z</time>
      </trkpt>
      <trkpt lat="44.75764" lon="3.52282">
        <ele>1442.852674</ele>
        <time>2021-04-30T08:49:20.178Z</time>
      </trkpt>
      <trkpt lat="44.75708" lon="3.52404">
        <ele>1453.064557</ele>
        <time>2021-04-30T08:50:28.479Z</time>
      </trkpt>
      <trkpt lat="44.75599" lon="3.52645">
        <ele>1466.861202</ele>
        <time>2021-04-30T08:52:10.472Z</time>
      </trkpt>
      <trkpt lat="44.75503" lon="3.52893">
        <ele>1472.418176</ele>
        <time>2021-04-30T08:53:18.376Z</time>
      </trkpt>
      <trkpt lat="44.75427" lon="3.52936">
        <ele>1472.824567</ele>
        <time>2021-04-30T08:53:38.317Z</time>
      </trkpt>
      <trkpt lat="44.75356" lon="3.53029">
        <ele>1473.285947</ele>
        <time>2021-04-30T08:53:58.987Z</time>
      </trkpt>
      <trkpt lat="44.75278" lon="3.5313">
        <ele>1473.728801</ele>
        <time>2021-04-30T08:54:24.783Z</time>
      </trkpt>
      <trkpt lat="44.75274" lon="3.53136">
        <ele>1473.752152</ele>
        <time>2021-04-30T08:54:26.845Z</time>
      </trkpt>
      <trkpt lat="44.75257" lon="3.53146">
        <ele>1473.829453</ele>
        <time>2021-04-30T08:54:31.673Z</time>
      </trkpt>
      <trkpt lat="44.7521" lon="3.53167">
        <ele>1474.218894</ele>
        <time>2021-04-30T08:54:45.378Z</time>
      </trkpt>
      <trkpt lat="44.75199" lon="3.53173">
        <ele>1474.353049</ele>
        <time>2021-04-30T08:54:49.633Z</time>
      </trkpt>
      <trkpt lat="44.75187" lon="3.53181">
        <ele>1474.492738</ele>
        <time>2021-04-30T08:54:53.019Z</time>
      </trkpt>
      <trkpt lat="44.75017" lon="3.53436">
        <ele>1475.71909</ele>
        <time>2021-04-30T08:56:00.432Z</time>
      </trkpt>
      <trkpt lat="44.74817" lon="3.53676">
        <ele>1470.289515</ele>
        <time>2021-04-30T08:56:47.887Z</time>
      </trkpt>
      <trkpt lat="44.74648" lon="3.53851">
        <ele>1460.915174</ele>
        <time>2021-04-30T08:57:21.712Z</time>
      </trkpt>
      <trkpt lat="44.74408" lon="3.53991">
        <ele>1446.437491</ele>
        <time>2021-04-30T08:58:01.903Z</time>
      </trkpt>
      <trkpt lat="44.74349" lon="3.5403">
        <ele>1442.876303</ele>
        <time>2021-04-30T08:58:11.959Z</time>
      </trkpt>
      <trkpt lat="44.74267" lon="3.54099">
        <ele>1438.326969</ele>
        <time>2021-04-30T08:58:26.892Z</time>
      </trkpt>
      <trkpt lat="44.73952" lon="3.54302">
        <ele>1425.674074</ele>
        <time>2021-04-30T08:59:24.638Z</time>
      </trkpt>
      <trkpt lat="44.73939" lon="3.54319">
        <ele>1425.186359</ele>
        <time>2021-04-30T08:59:27.766Z</time>
      </trkpt>
      <trkpt lat="44.73928" lon="3.54349">
        <ele>1424.510311</ele>
        <time>2021-04-30T08:59:32.024Z</time>
      </trkpt>
      <trkpt lat="44.73856" lon="3.54515">
        <ele>1425.132249</ele>
        <time>2021-04-30T09:00:01.550Z</time>
      </trkpt>
      <trkpt lat="44.73848" lon="3.54532">
        <ele>1425.367665</ele>
        <time>2021-04-30T09:00:06.231Z</time>
      </trkpt>
      <trkpt lat="44.73839" lon="3.5456">
        <ele>1425.724044</ele>
        <time>2021-04-30T09:00:14.860Z</time>
      </trkpt>
      <trkpt lat="44.73833" lon="3.54575">
        <ele>1425.9277</ele>
        <time>2021-04-30T09:00:21.257Z</time>
      </trkpt>
      <trkpt lat="44.73815" lon="3.54616">
        <ele>1426.733112</ele>
        <time>2021-04-30T09:00:40.573Z</time>
      </trkpt>
      <trkpt lat="44.7377" lon="3.54715">
        <ele>1433.015614</ele>
        <time>2021-04-30T09:01:33.828Z</time>
      </trkpt>
      <trkpt lat="44.73646" lon="3.54955">
        <ele>1449.983121</ele>
        <time>2021-04-30T09:04:08.007Z</time>
      </trkpt>
      <trkpt lat="44.73642" lon="3.54965">
        <ele>1450.623591</ele>
        <time>2021-04-30T09:04:14.584Z</time>
      </trkpt>
      <trkpt lat="44.73627" lon="3.55005">
        <ele>1453.381383</ele>
        <time>2021-04-30T09:04:36.090Z</time>
      </trkpt>
      <trkpt lat="44.73606" lon="3.55062">
        <ele>1456.562177</ele>
        <time>2021-04-30T09:05:05.991Z</time>
      </trkpt>
      <trkpt lat="44.73556" lon="3.5514">
        <ele>1460.940923</ele>
        <time>2021-04-30T09:05:53.066Z</time>
      </trkpt>
      <trkpt lat="44.73545" lon="3.55174">
        <ele>1462.495051</ele>
        <time>2021-04-30T09:06:07.997Z</time>
      </trkpt>
      <trkpt lat="44.73538" lon="3.55235">
        <ele>1465.091708</ele>
        <time>2021-04-30T09:06:32.441Z</time>
      </trkpt>
      <trkpt lat="44.73401" lon="3.55712">
        <ele>1482.231358</ele>
        <time>2021-04-30T09:09:56.501Z</time>
      </trkpt>
      <trkpt lat="44.73381" lon="3.55755">
        <ele>1483.677285</ele>
        <time>2021-04-30T09:10:17.014Z</time>
      </trkpt>
      <trkpt lat="44.73344" lon="3.55809">
        <ele>1485.761002</ele>
        <time>2021-04-30T09:10:46.705Z</time>
      </trkpt>
      <trkpt lat="44.73282" lon="3.55873">
        <ele>1488.764872</ele>
        <time>2021-04-30T09:11:26.862Z</time>
      </trkpt>
      <trkpt lat="44.73231" lon="3.55903">
        <ele>1489.604015</ele>
        <time>2021-04-30T09:11:52.632Z</time>
      </trkpt>
      <trkpt lat="44.73192" lon="3.55951">
        <ele>1489.822596</ele>
        <time>2021-04-30T09:12:14.057Z</time>
      </trkpt>
      <trkpt lat="44.73125" lon="3.56058">
        <ele>1489.946806</ele>
        <time>2021-04-30T09:12:48.908Z</time>
      </trkpt>
      <trkpt lat="44.73076" lon="3.56113">
        <ele>1488.476615</ele>
        <time>2021-04-30T09:13:08.166Z</time>
      </trkpt>
      <trkpt lat="44.73029" lon="3.56192">
        <ele>1486.750551</ele>
        <time>2021-04-30T09:13:30.300Z</time>
      </trkpt>
      <trkpt lat="44.72986" lon="3.56237">
        <ele>1485.508295</ele>
        <time>2021-04-30T09:13:46.305Z</time>
      </trkpt>
      <trkpt lat="44.72883" lon="3.56323">
        <ele>1482.775751</ele>
        <time>2021-04-30T09:14:23.178Z</time>
      </trkpt>
      <trkpt lat="44.7286" lon="3.5635">
        <ele>1482.09148</ele>
        <time>2021-04-30T09:14:32.770Z</time>
      </trkpt>
      <trkpt lat="44.72802" lon="3.56392">
        <ele>1480.522395</ele>
        <time>2021-04-30T09:14:53.874Z</time>
      </trkpt>
      <trkpt lat="44.72727" lon="3.56424">
        <ele>1478.658701</ele>
        <time>2021-04-30T09:15:18.110Z</time>
      </trkpt>
      <trkpt lat="44.72701" lon="3.56417">
        <ele>1478.02302</ele>
        <time>2021-04-30T09:15:26.056Z</time>
      </trkpt>
      <trkpt lat="44.72683" lon="3.56423">
        <ele>1477.570214</ele>
        <time>2021-04-30T09:15:31.681Z</time>
      </trkpt>
      <trkpt lat="44.7268" lon="3.56424">
        <ele>1477.456633</ele>
        <time>2021-04-30T09:15:32.498Z</time>
      </trkpt>
      <trkpt lat="44.72601" lon="3.56414">
        <ele>1473.786504</ele>
        <time>2021-04-30T09:15:55.142Z</time>
      </trkpt>
      <trkpt lat="44.72551" lon="3.56415">
        <ele>1471.504657</ele>
        <time>2021-04-30T09:16:08.762Z</time>
      </trkpt>
      <trkpt lat="44.72472" lon="3.5645">
        <ele>1467.947221</ele>
        <time>2021-04-30T09:16:31.036Z</time>
      </trkpt>
      <trkpt lat="44.72442" lon="3.5647">
        <ele>1466.708144</ele>
        <time>2021-04-30T09:16:39.923Z</time>
      </trkpt>
      <trkpt lat="44.72397" lon="3.56513">
        <ele>1464.627812</ele>
        <time>2021-04-30T09:16:55.626Z</time>
      </trkpt>
      <trkpt lat="44.72372" lon="3.56528">
        <ele>1463.589967</ele>
        <time>2021-04-30T09:17:03.710Z</time>
      </trkpt>
      <trkpt lat="44.72317" lon="3.56522">
        <ele>1462.511107</ele>
        <time>2021-04-30T09:17:21.629Z</time>
      </trkpt>
      <trkpt lat="44.72308" lon="3.56517">
        <ele>1462.546332</ele>
        <time>2021-04-30T09:17:24.663Z</time>
      </trkpt>
      <trkpt lat="44.72313" lon="3.56503">
        <ele>1462.585903</ele>
        <time>2021-04-30T09:17:26.777Z</time>
      </trkpt>
      <trkpt lat="44.72316" lon="3.56494">
        <ele>1462.614665</ele>
        <time>2021-04-30T09:17:28.597Z</time>
      </trkpt>
      <trkpt lat="44.72255" lon="3.56491">
        <ele>1462.846295</ele>
        <time>2021-04-30T09:17:51.420Z</time>
      </trkpt>
      <trkpt lat="44.72247" lon="3.56504">
        <ele>1462.894016</ele>
        <time>2021-04-30T09:17:57.067Z</time>
      </trkpt>
      <trkpt lat="44.7207" lon="3.56476">
        <ele>1465.300146</ele>
        <time>2021-04-30T09:19:17.118Z</time>
      </trkpt>
      <trkpt lat="44.71955" lon="3.56482">
        <ele>1467.142657</ele>
        <time>2021-04-30T09:20:06.796Z</time>
      </trkpt>
      <trkpt lat="44.71892" lon="3.56468">
        <ele>1468.034792</ele>
        <time>2021-04-30T09:20:33.848Z</time>
      </trkpt>
      <trkpt lat="44.71714" lon="3.56337">
        <ele>1470.699009</ele>
        <time>2021-04-30T09:21:58.404Z</time>
      </trkpt>
      <trkpt lat="44.716" lon="3.56271">
        <ele>1472.498957</ele>
        <time>2021-04-30T09:22:50.634Z</time>
      </trkpt>
      <trkpt lat="44.71524" lon="3.56185">
        <ele>1473.994272</ele>
        <time>2021-04-30T09:23:33.748Z</time>
      </trkpt>
      <trkpt lat="44.71504" lon="3.56168">
        <ele>1474.37141</ele>
        <time>2021-04-30T09:23:43.796Z</time>
      </trkpt>
      <trkpt lat="44.71493" lon="3.56159">
        <ele>1474.579589</ele>
        <time>2021-04-30T09:23:49.824Z</time>
      </trkpt>
      <trkpt lat="44.7119" lon="3.55875">
        <ele>1479.411208</ele>
        <time>2021-04-30T09:26:27.321Z</time>
      </trkpt>
      <trkpt lat="44.70922" lon="3.55866">
        <ele>1478.738813</ele>
        <time>2021-04-30T09:27:59.059Z</time>
      </trkpt>
      <trkpt lat="44.7085" lon="3.55827">
        <ele>1478.994269</ele>
        <time>2021-04-30T09:28:29.885Z</time>
      </trkpt>
      <trkpt lat="44.70811" lon="3.55827">
        <ele>1479.544149</ele>
        <time>2021-04-30T09:28:46.613Z</time>
      </trkpt>
      <trkpt lat="44.70694" lon="3.55852">
        <ele>1481.139399</ele>
        <time>2021-04-30T09:29:39.953Z</time>
      </trkpt>
      <trkpt lat="44.70578" lon="3.5587">
        <ele>1481.437359</ele>
        <time>2021-04-30T09:30:26.195Z</time>
      </trkpt>
      <trkpt lat="44.70556" lon="3.55873">
        <ele>1481.49312</ele>
        <time>2021-04-30T09:30:33.815Z</time>
      </trkpt>
      <trkpt lat="44.70493" lon="3.55892">
        <ele>1481.005825</ele>
        <time>2021-04-30T09:30:55.314Z</time>
      </trkpt>
      <trkpt lat="44.70261" lon="3.56039">
        <ele>1476.060054</ele>
        <time>2021-04-30T09:32:14.453Z</time>
      </trkpt>
      <trkpt lat="44.70149" lon="3.56138">
        <ele>1473.622739</ele>
        <time>2021-04-30T09:32:56.666Z</time>
      </trkpt>
      <trkpt lat="44.70137" lon="3.5616">
        <ele>1473.304388</ele>
        <time>2021-04-30T09:33:03.330Z</time>
      </trkpt>
      <trkpt lat="44.70135" lon="3.56189">
        <ele>1472.974727</ele>
        <time>2021-04-30T09:33:09.857Z</time>
      </trkpt>
      <trkpt lat="44.70111" lon="3.56294">
        <ele>1471.7062</ele>
        <time>2021-04-30T09:33:35.611Z</time>
      </trkpt>
      <trkpt lat="44.70049" lon="3.5644">
        <ele>1469.369758</ele>
        <time>2021-04-30T09:34:14.366Z</time>
      </trkpt>
      <trkpt lat="44.6994" lon="3.56676">
        <ele>1464.630997</ele>
        <time>2021-04-30T09:35:16.386Z</time>
      </trkpt>
      <trkpt lat="44.69879" lon="3.5678">
        <ele>1461.732832</ele>
        <time>2021-04-30T09:35:44.738Z</time>
      </trkpt>
      <trkpt lat="44.69876" lon="3.56786">
        <ele>1461.551888</ele>
        <time>2021-04-30T09:35:46.214Z</time>
      </trkpt>
      <trkpt lat="44.69874" lon="3.5679">
        <ele>1461.433865</ele>
        <time>2021-04-30T09:35:47.244Z</time>
      </trkpt>
      <trkpt lat="44.69826" lon="3.56815">
        <ele>1459.728035</ele>
        <time>2021-04-30T09:36:01.903Z</time>
      </trkpt>
      <trkpt lat="44.69804" lon="3.56834">
        <ele>1458.830416</ele>
        <time>2021-04-30T09:36:09.535Z</time>
      </trkpt>
      <trkpt lat="44.6979" lon="3.56854">
        <ele>1458.168587</ele>
        <time>2021-04-30T09:36:15.259Z</time>
      </trkpt>
      <trkpt lat="44.69696" lon="3.57016">
        <ele>1453.366118</ele>
        <time>2021-04-30T09:36:58.842Z</time>
      </trkpt>
      <trkpt lat="44.69641" lon="3.57092">
        <ele>1451.224566</ele>
        <time>2021-04-30T09:37:22.060Z</time>
      </trkpt>
      <trkpt lat="44.69559" lon="3.5726">
        <ele>1448.381382</ele>
        <time>2021-04-30T09:38:07.829Z</time>
      </trkpt>
      <trkpt lat="44.69435" lon="3.57478">
        <ele>1445.50667</ele>
        <time>2021-04-30T09:39:13.723Z</time>
      </trkpt>
      <trkpt lat="44.69176" lon="3.57882">
        <ele>1437.309042</ele>
        <time>2021-04-30T09:41:15.604Z</time>
      </trkpt>
      <trkpt lat="44.69092" lon="3.57999">
        <ele>1433.412013</ele>
        <time>2021-04-30T09:41:49.902Z</time>
      </trkpt>
      <trkpt lat="44.69074" lon="3.5803">
        <ele>1432.476966</ele>
        <time>2021-04-30T09:41:58.118Z</time>
      </trkpt>
      <trkpt lat="44.69046" lon="3.58113">
        <ele>1430.472228</ele>
        <time>2021-04-30T09:42:16.851Z</time>
      </trkpt>
      <trkpt lat="44.68979" lon="3.58497">
        <ele>1422.537266</ele>
        <time>2021-04-30T09:43:42.236Z</time>
      </trkpt>
      <trkpt lat="44.68956" lon="3.58595">
        <ele>1420.286986</ele>
        <time>2021-04-30T09:44:04.792Z</time>
      </trkpt>
      <trkpt lat="44.68889" lon="3.58803">
        <ele>1414.850753</ele>
        <time>2021-04-30T09:44:52.205Z</time>
      </trkpt>
      <trkpt lat="44.68869" lon="3.58841">
        <ele>1413.500974</ele>
        <time>2021-04-30T09:45:01.967Z</time>
      </trkpt>
      <trkpt lat="44.68827" lon="3.58891">
        <ele>1411.331367</ele>
        <time>2021-04-30T09:45:17.493Z</time>
      </trkpt>
      <trkpt lat="44.68729" lon="3.5904">
        <ele>1406.018891</ele>
        <time>2021-04-30T09:45:58.479Z</time>
      </trkpt>
      <trkpt lat="44.68703" lon="3.59138">
        <ele>1403.355591</ele>
        <time>2021-04-30T09:46:20.699Z</time>
      </trkpt>
      <trkpt lat="44.68688" lon="3.59202">
        <ele>1401.860389</ele>
        <time>2021-04-30T09:46:35.110Z</time>
      </trkpt>
      <trkpt lat="44.68678" lon="3.59258">
        <ele>1400.613543</ele>
        <time>2021-04-30T09:46:47.486Z</time>
      </trkpt>
      <trkpt lat="44.68655" lon="3.59341">
        <ele>1398.688043</ele>
        <time>2021-04-30T09:47:06.414Z</time>
      </trkpt>
      <trkpt lat="44.68617" lon="3.5943">
        <ele>1396.625418</ele>
        <time>2021-04-30T09:47:28.037Z</time>
      </trkpt>
      <trkpt lat="44.68562" lon="3.59468">
        <ele>1395.066979</ele>
        <time>2021-04-30T09:47:46.324Z</time>
      </trkpt>
      <trkpt lat="44.68551" lon="3.59494">
        <ele>1394.511073</ele>
        <time>2021-04-30T09:47:52.758Z</time>
      </trkpt>
      <trkpt lat="44.68473" lon="3.59433">
        <ele>1392.812307</ele>
        <time>2021-04-30T09:48:21.168Z</time>
      </trkpt>
      <trkpt lat="44.68415" lon="3.59388">
        <ele>1392.399037</ele>
        <time>2021-04-30T09:48:43.586Z</time>
      </trkpt>
      <trkpt lat="44.6832" lon="3.59244">
        <ele>1391.810191</ele>
        <time>2021-04-30T09:49:37.151Z</time>
      </trkpt>
      <trkpt lat="44.6826" lon="3.5913">
        <ele>1391.670887</ele>
        <time>2021-04-30T09:50:14.752Z</time>
      </trkpt>
      <trkpt lat="44.68197" lon="3.5905">
        <ele>1389.690394</ele>
        <time>2021-04-30T09:50:43.104Z</time>
      </trkpt>
      <trkpt lat="44.68148" lon="3.58933">
        <ele>1386.689828</ele>
        <time>2021-04-30T09:51:11.204Z</time>
      </trkpt>
      <trkpt lat="44.68108" lon="3.58912">
        <ele>1384.241867</ele>
        <time>2021-04-30T09:51:22.690Z</time>
      </trkpt>
      <trkpt lat="44.68065" lon="3.58876">
        <ele>1380.190475</ele>
        <time>2021-04-30T09:51:35.557Z</time>
      </trkpt>
      <trkpt lat="44.68042" lon="3.58864">
        <ele>1378.161862</ele>
        <time>2021-04-30T09:51:41.869Z</time>
      </trkpt>
      <trkpt lat="44.68003" lon="3.58855">
        <ele>1374.919002</ele>
        <time>2021-04-30T09:51:51.818Z</time>
      </trkpt>
      <trkpt lat="44.67868" lon="3.58777">
        <ele>1360.545412</ele>
        <time>2021-04-30T09:52:27.136Z</time>
      </trkpt>
      <trkpt lat="44.67843" lon="3.58753">
        <ele>1357.356258</ele>
        <time>2021-04-30T09:52:34.459Z</time>
      </trkpt>
      <trkpt lat="44.67807" lon="3.58713">
        <ele>1352.485597</ele>
        <time>2021-04-30T09:52:45.689Z</time>
      </trkpt>
      <trkpt lat="44.67813" lon="3.5868">
        <ele>1350.652369</ele>
        <time>2021-04-30T09:52:51.510Z</time>
      </trkpt>
      <trkpt lat="44.67795" lon="3.58596">
        <ele>1345.861859</ele>
        <time>2021-04-30T09:53:07.164Z</time>
      </trkpt>
      <trkpt lat="44.6776" lon="3.58516">
        <ele>1340.795812</ele>
        <time>2021-04-30T09:53:24.323Z</time>
      </trkpt>
      <trkpt lat="44.67734" lon="3.58438">
        <ele>1338.416726</ele>
        <time>2021-04-30T09:53:41.937Z</time>
      </trkpt>
      <trkpt lat="44.67701" lon="3.58385">
        <ele>1338.031596</ele>
        <time>2021-04-30T09:53:57.968Z</time>
      </trkpt>
      <trkpt lat="44.6764" lon="3.58358">
        <ele>1337.542069</ele>
        <time>2021-04-30T09:54:22.417Z</time>
      </trkpt>
      <trkpt lat="44.67574" lon="3.58341">
        <ele>1338.270178</ele>
        <time>2021-04-30T09:54:54.572Z</time>
      </trkpt>
      <trkpt lat="44.67532" lon="3.58321">
        <ele>1339.509322</ele>
        <time>2021-04-30T09:55:17.072Z</time>
      </trkpt>
      <trkpt lat="44.67498" lon="3.58299">
        <ele>1340.573069</ele>
        <time>2021-04-30T09:55:36.669Z</time>
      </trkpt>
      <trkpt lat="44.67476" lon="3.58262">
        <ele>1341.533097</ele>
        <time>2021-04-30T09:55:53.292Z</time>
      </trkpt>
      <trkpt lat="44.6747" lon="3.58253">
        <ele>1341.785742</ele>
        <time>2021-04-30T09:55:58.805Z</time>
      </trkpt>
      <trkpt lat="44.67455" lon="3.58289">
        <ele>1342.302496</ele>
        <time>2021-04-30T09:56:11.766Z</time>
      </trkpt>
      <trkpt lat="44.67412" lon="3.5838">
        <ele>1341.955088</ele>
        <time>2021-04-30T09:56:43.754Z</time>
      </trkpt>
      <trkpt lat="44.6736" lon="3.58527">
        <ele>1340.882325</ele>
        <time>2021-04-30T09:57:20.115Z</time>
      </trkpt>
      <trkpt lat="44.67294" lon="3.5866">
        <ele>1337.722686</ele>
        <time>2021-04-30T09:57:54.461Z</time>
      </trkpt>
      <trkpt lat="44.67238" lon="3.58792">
        <ele>1335.615866</ele>
        <time>2021-04-30T09:58:27.991Z</time>
      </trkpt>
      <trkpt lat="44.67198" lon="3.58906">
        <ele>1334.314114</ele>
        <time>2021-04-30T09:58:57.808Z</time>
      </trkpt>
      <trkpt lat="44.67183" lon="3.59249">
        <ele>1334.62905</ele>
        <time>2021-04-30T10:00:33.480Z</time>
      </trkpt>
      <trkpt lat="44.67172" lon="3.59304">
        <ele>1334.627643</ele>
        <time>2021-04-30T10:00:50.120Z</time>
      </trkpt>
      <trkpt lat="44.67174" lon="3.59401">
        <ele>1334.625256</ele>
        <time>2021-04-30T10:01:15.971Z</time>
      </trkpt>
      <trkpt lat="44.67155" lon="3.59512">
        <ele>1332.391203</ele>
        <time>2021-04-30T10:01:42.381Z</time>
      </trkpt>
      <trkpt lat="44.67105" lon="3.59648">
        <ele>1328.005077</ele>
        <time>2021-04-30T10:02:12.541Z</time>
      </trkpt>
      <trkpt lat="44.67038" lon="3.59775">
        <ele>1319.74852</ele>
        <time>2021-04-30T10:02:41.535Z</time>
      </trkpt>
      <trkpt lat="44.66986" lon="3.59862">
        <ele>1313.352001</ele>
        <time>2021-04-30T10:03:01.926Z</time>
      </trkpt>
      <trkpt lat="44.66951" lon="3.5994">
        <ele>1307.725923</ele>
        <time>2021-04-30T10:03:18.286Z</time>
      </trkpt>
      <trkpt lat="44.66922" lon="3.60005">
        <ele>1302.991887</ele>
        <time>2021-04-30T10:03:32.057Z</time>
      </trkpt>
      <trkpt lat="44.66913" lon="3.60014">
        <ele>1302.013543</ele>
        <time>2021-04-30T10:03:34.917Z</time>
      </trkpt>
      <trkpt lat="44.66881" lon="3.59978">
        <ele>1298.487183</ele>
        <time>2021-04-30T10:03:45.203Z</time>
      </trkpt>
      <trkpt lat="44.66871" lon="3.59956">
        <ele>1296.946571</ele>
        <time>2021-04-30T10:03:49.816Z</time>
      </trkpt>
      <trkpt lat="44.66848" lon="3.59778">
        <ele>1286.369135</ele>
        <time>2021-04-30T10:04:21.983Z</time>
      </trkpt>
      <trkpt lat="44.66826" lon="3.59728">
        <ele>1282.910834</ele>
        <time>2021-04-30T10:04:32.918Z</time>
      </trkpt>
      <trkpt lat="44.66823" lon="3.5972">
        <ele>1282.65491</ele>
        <time>2021-04-30T10:04:34.501Z</time>
      </trkpt>
      <trkpt lat="44.66821" lon="3.59716">
        <ele>1282.538629</ele>
        <time>2021-04-30T10:04:35.185Z</time>
      </trkpt>
      <trkpt lat="44.66809" lon="3.59694">
        <ele>1281.918417</ele>
        <time>2021-04-30T10:04:39.284Z</time>
      </trkpt>
      <trkpt lat="44.66806" lon="3.59665">
        <ele>1281.269042</ele>
        <time>2021-04-30T10:04:43.362Z</time>
      </trkpt>
      <trkpt lat="44.66775" lon="3.59652">
        <ele>1280.220982</ele>
        <time>2021-04-30T10:04:50.353Z</time>
      </trkpt>
      <trkpt lat="44.66766" lon="3.59645">
        <ele>1279.904098</ele>
        <time>2021-04-30T10:04:52.557Z</time>
      </trkpt>
      <trkpt lat="44.66774" lon="3.59601">
        <ele>1278.882867</ele>
        <time>2021-04-30T10:04:57.906Z</time>
      </trkpt>
      <trkpt lat="44.66777" lon="3.59559">
        <ele>1277.93165</ele>
        <time>2021-04-30T10:05:03.272Z</time>
      </trkpt>
      <trkpt lat="44.66782" lon="3.59521">
        <ele>1277.173727</ele>
        <time>2021-04-30T10:05:10.414Z</time>
      </trkpt>
      <trkpt lat="44.66768" lon="3.59511">
        <ele>1277.973465</ele>
        <time>2021-04-30T10:05:16.242Z</time>
      </trkpt>
      <trkpt lat="44.66764" lon="3.59485">
        <ele>1279.002123</ele>
        <time>2021-04-30T10:05:23.677Z</time>
      </trkpt>
      <trkpt lat="44.6676" lon="3.59478">
        <ele>1279.34905</ele>
        <time>2021-04-30T10:05:26.805Z</time>
      </trkpt>
      <trkpt lat="44.66754" lon="3.59471">
        <ele>1279.744646</ele>
        <time>2021-04-30T10:05:30.004Z</time>
      </trkpt>
      <trkpt lat="44.66749" lon="3.59458">
        <ele>1280.283934</ele>
        <time>2021-04-30T10:05:34.083Z</time>
      </trkpt>
      <trkpt lat="44.66745" lon="3.59445">
        <ele>1280.833491</ele>
        <time>2021-04-30T10:05:38.795Z</time>
      </trkpt>
      <trkpt lat="44.66741" lon="3.59406">
        <ele>1282.348561</ele>
        <time>2021-04-30T10:05:51.885Z</time>
      </trkpt>
      <trkpt lat="44.66742" lon="3.59389">
        <ele>1282.982139</ele>
        <time>2021-04-30T10:05:57.294Z</time>
      </trkpt>
      <trkpt lat="44.66763" lon="3.59347">
        <ele>1284.93274</ele>
        <time>2021-04-30T10:06:16.403Z</time>
      </trkpt>
      <trkpt lat="44.66772" lon="3.59311">
        <ele>1286.384333</ele>
        <time>2021-04-30T10:06:31.993Z</time>
      </trkpt>
      <trkpt lat="44.66769" lon="3.59298">
        <ele>1287.1727</ele>
        <time>2021-04-30T10:06:37.843Z</time>
      </trkpt>
      <trkpt lat="44.66758" lon="3.59288">
        <ele>1288.75816</ele>
        <time>2021-04-30T10:06:46.288Z</time>
      </trkpt>
      <trkpt lat="44.66708" lon="3.59259">
        <ele>1295.214624</ele>
        <time>2021-04-30T10:07:22.032Z</time>
      </trkpt>
      <trkpt lat="44.66698" lon="3.59248">
        <ele>1296.658143</ele>
        <time>2021-04-30T10:07:30.646Z</time>
      </trkpt>
      <trkpt lat="44.66703" lon="3.58978">
        <ele>1320.86785</ele>
        <time>2021-04-30T10:09:59.034Z</time>
      </trkpt>
      <trkpt lat="44.66714" lon="3.58897">
        <ele>1328.686984</ele>
        <time>2021-04-30T10:10:44.389Z</time>
      </trkpt>
      <trkpt lat="44.66706" lon="3.58785">
        <ele>1338.602827</ele>
        <time>2021-04-30T10:11:45.322Z</time>
      </trkpt>
      <trkpt lat="44.66707" lon="3.58628">
        <ele>1351.816121</ele>
        <time>2021-04-30T10:13:03.440Z</time>
      </trkpt>
      <trkpt lat="44.66699" lon="3.5858">
        <ele>1355.102659</ele>
        <time>2021-04-30T10:13:25.908Z</time>
      </trkpt>
      <trkpt lat="44.66685" lon="3.58553">
        <ele>1357.004619</ele>
        <time>2021-04-30T10:13:40.583Z</time>
      </trkpt>
      <trkpt lat="44.66642" lon="3.58519">
        <ele>1360.898452</ele>
        <time>2021-04-30T10:14:08.623Z</time>
      </trkpt>
      <trkpt lat="44.66597" lon="3.58465">
        <ele>1365.630224</ele>
        <time>2021-04-30T10:14:38.815Z</time>
      </trkpt>
      <trkpt lat="44.66573" lon="3.58413">
        <ele>1368.594907</ele>
        <time>2021-04-30T10:14:58.568Z</time>
      </trkpt>
      <trkpt lat="44.6651" lon="3.58305">
        <ele>1373.775567</ele>
        <time>2021-04-30T10:15:40.842Z</time>
      </trkpt>
      <trkpt lat="44.66502" lon="3.58304">
        <ele>1374.189595</ele>
        <time>2021-04-30T10:15:44.147Z</time>
      </trkpt>
      <trkpt lat="44.66459" lon="3.58326">
        <ele>1376.562453</ele>
        <time>2021-04-30T10:16:03.442Z</time>
      </trkpt>
      <trkpt lat="44.66338" lon="3.58354">
        <ele>1384.140546</ele>
        <time>2021-04-30T10:17:01.310Z</time>
      </trkpt>
      <trkpt lat="44.66302" lon="3.58357">
        <ele>1386.38358</ele>
        <time>2021-04-30T10:17:19.771Z</time>
      </trkpt>
      <trkpt lat="44.66294" lon="3.58353">
        <ele>1386.923589</ele>
        <time>2021-04-30T10:17:24.357Z</time>
      </trkpt>
      <trkpt lat="44.66257" lon="3.58202">
        <ele>1394.098905</ele>
        <time>2021-04-30T10:18:22.579Z</time>
      </trkpt>
      <trkpt lat="44.66232" lon="3.58139">
        <ele>1397.312662</ele>
        <time>2021-04-30T10:18:47.553Z</time>
      </trkpt>
      <trkpt lat="44.66109" lon="3.57997">
        <ele>1404.695508</ele>
        <time>2021-04-30T10:19:55.094Z</time>
      </trkpt>
      <trkpt lat="44.65971" lon="3.57916">
        <ele>1408.835785</ele>
        <time>2021-04-30T10:20:45.462Z</time>
      </trkpt>
      <trkpt lat="44.65936" lon="3.57822">
        <ele>1410.278354</ele>
        <time>2021-04-30T10:21:06.810Z</time>
      </trkpt>
      <trkpt lat="44.65844" lon="3.57649">
        <ele>1411.673713</ele>
        <time>2021-04-30T10:21:46.748Z</time>
      </trkpt>
      <trkpt lat="44.65784" lon="3.57621">
        <ele>1412.311611</ele>
        <time>2021-04-30T10:22:03.514Z</time>
      </trkpt>
      <trkpt lat="44.65742" lon="3.57604">
        <ele>1412.886186</ele>
        <time>2021-04-30T10:22:15.538Z</time>
      </trkpt>
      <trkpt lat="44.65747" lon="3.57584">
        <ele>1413.086706</ele>
        <time>2021-04-30T10:22:20.287Z</time>
      </trkpt>
      <trkpt lat="44.65742" lon="3.57604">
        <ele>1413.287225</ele>
        <time>2021-04-30T10:22:24.166Z</time>
      </trkpt>
      <trkpt lat="44.65742" lon="3.57604">
        <ele>1413.287225</ele>
        <time>2021-04-30T10:22:24.205Z</time>
      </trkpt>
      <trkpt lat="44.65742" lon="3.57604">
        <ele>1413.287225</ele>
        <time>2021-04-30T10:22:24.209Z</time>
      </trkpt>
      <trkpt lat="44.65747" lon="3.57584">
        <ele>1413.487744</ele>
        <time>2021-04-30T10:22:28.790Z</time>
      </trkpt>
      <trkpt lat="44.65748" lon="3.57579">
        <ele>1413.528025</ele>
        <time>2021-04-30T10:22:29.937Z</time>
      </trkpt>
      <trkpt lat="44.65759" lon="3.57508">
        <ele>1414.204331</ele>
        <time>2021-04-30T10:22:44.720Z</time>
      </trkpt>
      <trkpt lat="44.65762" lon="3.57437">
        <ele>1414.945177</ele>
        <time>2021-04-30T10:23:00.138Z</time>
      </trkpt>
      <trkpt lat="44.65758" lon="3.57358">
        <ele>1415.788971</ele>
        <time>2021-04-30T10:23:17.359Z</time>
      </trkpt>
      <trkpt lat="44.65761" lon="3.57296">
        <ele>1416.439532</ele>
        <time>2021-04-30T10:23:30.215Z</time>
      </trkpt>
      <trkpt lat="44.65771" lon="3.57255">
        <ele>1416.907491</ele>
        <time>2021-04-30T10:23:39.389Z</time>
      </trkpt>
      <trkpt lat="44.65824" lon="3.57135">
        <ele>1417.019706</ele>
        <time>2021-04-30T10:24:05.497Z</time>
      </trkpt>
      <trkpt lat="44.6584" lon="3.5709">
        <ele>1417.020143</ele>
        <time>2021-04-30T10:24:13.350Z</time>
      </trkpt>
      <trkpt lat="44.65849" lon="3.57059">
        <ele>1417.020442</ele>
        <time>2021-04-30T10:24:18.492Z</time>
      </trkpt>
      <trkpt lat="44.65865" lon="3.57002">
        <ele>1416.619784</ele>
        <time>2021-04-30T10:24:26.948Z</time>
      </trkpt>
      <trkpt lat="44.65892" lon="3.56945">
        <ele>1415.3926</ele>
        <time>2021-04-30T10:24:36.096Z</time>
      </trkpt>
      <trkpt lat="44.65994" lon="3.56838">
        <ele>1412.181929</ele>
        <time>2021-04-30T10:24:57.987Z</time>
      </trkpt>
      <trkpt lat="44.66016" lon="3.56801">
        <ele>1411.220845</ele>
        <time>2021-04-30T10:25:03.804Z</time>
      </trkpt>
      <trkpt lat="44.66025" lon="3.56771">
        <ele>1410.589072</ele>
        <time>2021-04-30T10:25:07.905Z</time>
      </trkpt>
      <trkpt lat="44.66036" lon="3.56675">
        <ele>1408.681874</ele>
        <time>2021-04-30T10:25:19.975Z</time>
      </trkpt>
      <trkpt lat="44.66043" lon="3.56666">
        <ele>1408.433275</ele>
        <time>2021-04-30T10:25:21.520Z</time>
      </trkpt>
      <trkpt lat="44.66047" lon="3.5666">
        <ele>1408.272453</ele>
        <time>2021-04-30T10:25:22.434Z</time>
      </trkpt>
      <trkpt lat="44.66117" lon="3.56643">
        <ele>1407.662161</ele>
        <time>2021-04-30T10:25:35.866Z</time>
      </trkpt>
      <trkpt lat="44.66138" lon="3.56645">
        <ele>1407.70922</ele>
        <time>2021-04-30T10:25:40.755Z</time>
      </trkpt>
      <trkpt lat="44.66145" lon="3.56625">
        <ele>1407.744743</ele>
        <time>2021-04-30T10:25:43.685Z</time>
      </trkpt>
      <trkpt lat="44.66138" lon="3.56596">
        <ele>1407.793742</ele>
        <time>2021-04-30T10:25:49.574Z</time>
      </trkpt>
      <trkpt lat="44.66071" lon="3.5649">
        <ele>1409.018356</ele>
        <time>2021-04-30T10:26:20.078Z</time>
      </trkpt>
      <trkpt lat="44.66076" lon="3.56487">
        <ele>1409.235919</ele>
        <time>2021-04-30T10:26:21.962Z</time>
      </trkpt>
      <trkpt lat="44.66106" lon="3.56528">
        <ele>1411.006266</ele>
        <time>2021-04-30T10:26:37.465Z</time>
      </trkpt>
      <trkpt lat="44.6615" lon="3.56566">
        <ele>1413.177574</ele>
        <time>2021-04-30T10:26:58.323Z</time>
      </trkpt>
      <trkpt lat="44.6624" lon="3.5663">
        <ele>1418.763839</ele>
        <time>2021-04-30T10:27:45.739Z</time>
      </trkpt>
      <trkpt lat="44.66263" lon="3.56641">
        <ele>1420.537886</ele>
        <time>2021-04-30T10:27:58.346Z</time>
      </trkpt>
      <trkpt lat="44.66326" lon="3.56616">
        <ele>1425.245491</ele>
        <time>2021-04-30T10:28:33.340Z</time>
      </trkpt>
      <trkpt lat="44.66579" lon="3.56458">
        <ele>1447.225268</ele>
        <time>2021-04-30T10:31:09.626Z</time>
      </trkpt>
      <trkpt lat="44.66607" lon="3.56417">
        <ele>1450.231257</ele>
        <time>2021-04-30T10:31:31.284Z</time>
      </trkpt>
      <trkpt lat="44.66621" lon="3.56385">
        <ele>1452.192116</ele>
        <time>2021-04-30T10:31:45.157Z</time>
      </trkpt>
      <trkpt lat="44.66601" lon="3.5616">
        <ele>1463.072615</ele>
        <time>2021-04-30T10:33:05.337Z</time>
      </trkpt>
      <trkpt lat="44.66591" lon="3.56139">
        <ele>1464.172687</ele>
        <time>2021-04-30T10:33:13.661Z</time>
      </trkpt>
      <trkpt lat="44.66577" lon="3.56126">
        <ele>1465.234473</ele>
        <time>2021-04-30T10:33:21.688Z</time>
      </trkpt>
      <trkpt lat="44.66443" lon="3.56119">
        <ele>1473.102682</ele>
        <time>2021-04-30T10:34:24.418Z</time>
      </trkpt>
      <trkpt lat="44.66428" lon="3.561">
        <ele>1474.236335</ele>
        <time>2021-04-30T10:34:33.709Z</time>
      </trkpt>
      <trkpt lat="44.66421" lon="3.56064">
        <ele>1475.710688</ele>
        <time>2021-04-30T10:34:45.785Z</time>
      </trkpt>
      <trkpt lat="44.66464" lon="3.55845">
        <ele>1483.616299</ele>
        <time>2021-04-30T10:35:55.777Z</time>
      </trkpt>
      <trkpt lat="44.66469" lon="3.55788">
        <ele>1485.514789</ele>
        <time>2021-04-30T10:36:12.274Z</time>
      </trkpt>
      <trkpt lat="44.66448" lon="3.55683">
        <ele>1487.829901</ele>
        <time>2021-04-30T10:36:41.699Z</time>
      </trkpt>
      <trkpt lat="44.66438" lon="3.55668">
        <ele>1488.166013</ele>
        <time>2021-04-30T10:36:46.746Z</time>
      </trkpt>
      <trkpt lat="44.6641" lon="3.55555">
        <ele>1490.136087</ele>
        <time>2021-04-30T10:37:13.869Z</time>
      </trkpt>
      <trkpt lat="44.66375" lon="3.552">
        <ele>1490.18253</ele>
        <time>2021-04-30T10:38:14.006Z</time>
      </trkpt>
      <trkpt lat="44.66378" lon="3.5517">
        <ele>1489.805201</ele>
        <time>2021-04-30T10:38:18.142Z</time>
      </trkpt>
      <trkpt lat="44.66388" lon="3.55147">
        <ele>1489.463944</ele>
        <time>2021-04-30T10:38:21.813Z</time>
      </trkpt>
      <trkpt lat="44.66443" lon="3.5507">
        <ele>1488.102405</ele>
        <time>2021-04-30T10:38:35.803Z</time>
      </trkpt>
      <trkpt lat="44.66546" lon="3.54893">
        <ele>1480.99342</ele>
        <time>2021-04-30T10:39:02.385Z</time>
      </trkpt>
      <trkpt lat="44.66585" lon="3.54776">
        <ele>1474.995028</ele>
        <time>2021-04-30T10:39:16.351Z</time>
      </trkpt>
      <trkpt lat="44.66595" lon="3.54761">
        <ele>1473.940157</ele>
        <time>2021-04-30T10:39:18.493Z</time>
      </trkpt>
      <trkpt lat="44.66622" lon="3.54763">
        <ele>1471.907696</ele>
        <time>2021-04-30T10:39:22.565Z</time>
      </trkpt>
      <trkpt lat="44.66648" lon="3.54775">
        <ele>1469.897226</ele>
        <time>2021-04-30T10:39:26.511Z</time>
      </trkpt>
      <trkpt lat="44.66665" lon="3.54801">
        <ele>1468.040643</ele>
        <time>2021-04-30T10:39:30.166Z</time>
      </trkpt>
      <trkpt lat="44.66681" lon="3.54805">
        <ele>1466.808717</ele>
        <time>2021-04-30T10:39:32.585Z</time>
      </trkpt>
      <trkpt lat="44.66711" lon="3.548">
        <ele>1464.880824</ele>
        <time>2021-04-30T10:39:36.936Z</time>
      </trkpt>
      <trkpt lat="44.66721" lon="3.54787">
        <ele>1464.025843</ele>
        <time>2021-04-30T10:39:38.922Z</time>
      </trkpt>
      <trkpt lat="44.66739" lon="3.54738">
        <ele>1461.528588</ele>
        <time>2021-04-30T10:39:44.825Z</time>
      </trkpt>
      <trkpt lat="44.66754" lon="3.54701">
        <ele>1459.620112</ele>
        <time>2021-04-30T10:39:49.367Z</time>
      </trkpt>
      <trkpt lat="44.66731" lon="3.54675">
        <ele>1457.718754</ele>
        <time>2021-04-30T10:39:53.812Z</time>
      </trkpt>
      <trkpt lat="44.66661" lon="3.54534">
        <ele>1453.632342</ele>
        <time>2021-04-30T10:40:13.209Z</time>
      </trkpt>
      <trkpt lat="44.66655" lon="3.54502">
        <ele>1453.211956</ele>
        <time>2021-04-30T10:40:17.826Z</time>
      </trkpt>
      <trkpt lat="44.66664" lon="3.54479">
        <ele>1452.878158</ele>
        <time>2021-04-30T10:40:21.467Z</time>
      </trkpt>
      <trkpt lat="44.66674" lon="3.54471">
        <ele>1452.685049</ele>
        <time>2021-04-30T10:40:23.588Z</time>
      </trkpt>
      <trkpt lat="44.6673" lon="3.54469">
        <ele>1452.053013</ele>
        <time>2021-04-30T10:40:36.866Z</time>
      </trkpt>
      <trkpt lat="44.66758" lon="3.54457">
        <ele>1452.63534</ele>
        <time>2021-04-30T10:40:45.408Z</time>
      </trkpt>
      <trkpt lat="44.66787" lon="3.54414">
        <ele>1453.459567</ele>
        <time>2021-04-30T10:40:57.912Z</time>
      </trkpt>
      <trkpt lat="44.66797" lon="3.54369">
        <ele>1454.109574</ele>
        <time>2021-04-30T10:41:08.100Z</time>
      </trkpt>
      <trkpt lat="44.66798" lon="3.54335">
        <ele>1454.580557</ele>
        <time>2021-04-30T10:41:16.042Z</time>
      </trkpt>
      <trkpt lat="44.66795" lon="3.54296">
        <ele>1455.134142</ele>
        <time>2021-04-30T10:41:25.307Z</time>
      </trkpt>
      <trkpt lat="44.66693" lon="3.5432">
        <ele>1458.419055</ele>
        <time>2021-04-30T10:42:16.274Z</time>
      </trkpt>
      <trkpt lat="44.66663" lon="3.5432">
        <ele>1459.42875</ele>
        <time>2021-04-30T10:42:31.716Z</time>
      </trkpt>
      <trkpt lat="44.66551" lon="3.54265">
        <ele>1464.971824</ele>
        <time>2021-04-30T10:43:33.196Z</time>
      </trkpt>
      <trkpt lat="44.66453" lon="3.54191">
        <ele>1471.588114</ele>
        <time>2021-04-30T10:44:43.666Z</time>
      </trkpt>
      <trkpt lat="44.66359" lon="3.54105">
        <ele>1481.912501</ele>
        <time>2021-04-30T10:46:07.127Z</time>
      </trkpt>
      <trkpt lat="44.66211" lon="3.54011">
        <ele>1497.135722</ele>
        <time>2021-04-30T10:48:15.255Z</time>
      </trkpt>
      <trkpt lat="44.66144" lon="3.53979">
        <ele>1503.65233</ele>
        <time>2021-04-30T10:49:07.044Z</time>
      </trkpt>
      <trkpt lat="44.66028" lon="3.53936">
        <ele>1511.04475</ele>
        <time>2021-04-30T10:50:24.195Z</time>
      </trkpt>
      <trkpt lat="44.65972" lon="3.53931">
        <ele>1514.105656</ele>
        <time>2021-04-30T10:50:54.789Z</time>
      </trkpt>
      <trkpt lat="44.65942" lon="3.53931">
        <ele>1515.615159</ele>
        <time>2021-04-30T10:51:10.032Z</time>
      </trkpt>
      <trkpt lat="44.65919" lon="3.5393">
        <ele>1515.957805</ele>
        <time>2021-04-30T10:51:20.842Z</time>
      </trkpt>
      <trkpt lat="44.65689" lon="3.53968">
        <ele>1518.437319</ele>
        <time>2021-04-30T10:52:56.188Z</time>
      </trkpt>
      <trkpt lat="44.65599" lon="3.53966">
        <ele>1518.605891</ele>
        <time>2021-04-30T10:53:28.601Z</time>
      </trkpt>
      <trkpt lat="44.6553" lon="3.53932">
        <ele>1517.409111</ele>
        <time>2021-04-30T10:53:53.411Z</time>
      </trkpt>
      <trkpt lat="44.65524" lon="3.5393">
        <ele>1517.28768</ele>
        <time>2021-04-30T10:53:55.337Z</time>
      </trkpt>
      <trkpt lat="44.65442" lon="3.53859">
        <ele>1515.341901</ele>
        <time>2021-04-30T10:54:25.019Z</time>
      </trkpt>
      <trkpt lat="44.65402" lon="3.53811">
        <ele>1513.88027</ele>
        <time>2021-04-30T10:54:40.207Z</time>
      </trkpt>
      <trkpt lat="44.6538" lon="3.53788">
        <ele>1513.025076</ele>
        <time>2021-04-30T10:54:48.423Z</time>
      </trkpt>
      <trkpt lat="44.65374" lon="3.53781">
        <ele>1512.785073</ele>
        <time>2021-04-30T10:54:50.492Z</time>
      </trkpt>
      <trkpt lat="44.65363" lon="3.53768">
        <ele>1512.345571</ele>
        <time>2021-04-30T10:54:54.805Z</time>
      </trkpt>
      <trkpt lat="44.65352" lon="3.53764">
        <ele>1511.998592</ele>
        <time>2021-04-30T10:54:58.058Z</time>
      </trkpt>
      <trkpt lat="44.65335" lon="3.53758">
        <ele>1511.443846</ele>
        <time>2021-04-30T10:55:03.082Z</time>
      </trkpt>
      <trkpt lat="44.65168" lon="3.53747">
        <ele>1508.052564</ele>
        <time>2021-04-30T10:55:53.975Z</time>
      </trkpt>
      <trkpt lat="44.65084" lon="3.53715">
        <ele>1507.080223</ele>
        <time>2021-04-30T10:56:26.489Z</time>
      </trkpt>
      <trkpt lat="44.64968" lon="3.53635">
        <ele>1507.957261</ele>
        <time>2021-04-30T10:57:21.119Z</time>
      </trkpt>
      <trkpt lat="44.64949" lon="3.53622">
        <ele>1508.10082</ele>
        <time>2021-04-30T10:57:28.417Z</time>
      </trkpt>
      <trkpt lat="44.64947" lon="3.5362">
        <ele>1508.120535</ele>
        <time>2021-04-30T10:57:30.674Z</time>
      </trkpt>
      <trkpt lat="44.64919" lon="3.53599">
        <ele>1507.970799</ele>
        <time>2021-04-30T10:57:41.301Z</time>
      </trkpt>
      <trkpt lat="44.64918" lon="3.53598">
        <ele>1507.958794</ele>
        <time>2021-04-30T10:57:42.107Z</time>
      </trkpt>
      <trkpt lat="44.64919" lon="3.53599">
        <ele>1507.946788</ele>
        <time>2021-04-30T10:57:42.247Z</time>
      </trkpt>
      <trkpt lat="44.64947" lon="3.5362">
        <ele>1507.293799</ele>
        <time>2021-04-30T10:57:54.332Z</time>
      </trkpt>
      <trkpt lat="44.64949" lon="3.53622">
        <ele>1507.234318</ele>
        <time>2021-04-30T10:57:55.011Z</time>
      </trkpt>
      <trkpt lat="44.64948" lon="3.53645">
        <ele>1506.899387</ele>
        <time>2021-04-30T10:58:01.055Z</time>
      </trkpt>
      <trkpt lat="44.64972" lon="3.53724">
        <ele>1505.635985</ele>
        <time>2021-04-30T10:58:20.899Z</time>
      </trkpt>
      <trkpt lat="44.64994" lon="3.53759">
        <ele>1504.95654</ele>
        <time>2021-04-30T10:58:30.253Z</time>
      </trkpt>
      <trkpt lat="44.65017" lon="3.5381">
        <ele>1503.696204</ele>
        <time>2021-04-30T10:58:42.043Z</time>
      </trkpt>
      <trkpt lat="44.65012" lon="3.53838">
        <ele>1502.939782</ele>
        <time>2021-04-30T10:58:47.914Z</time>
      </trkpt>
      <trkpt lat="44.64992" lon="3.53869">
        <ele>1501.837741</ele>
        <time>2021-04-30T10:58:56.555Z</time>
      </trkpt>
      <trkpt lat="44.6494" lon="3.53934">
        <ele>1499.265179</ele>
        <time>2021-04-30T10:59:16.839Z</time>
      </trkpt>
      <trkpt lat="44.6489" lon="3.53996">
        <ele>1497.053215</ele>
        <time>2021-04-30T10:59:36.375Z</time>
      </trkpt>
      <trkpt lat="44.64846" lon="3.54031">
        <ele>1495.58476</ele>
        <time>2021-04-30T10:59:51.476Z</time>
      </trkpt>
      <trkpt lat="44.64779" lon="3.54059">
        <ele>1493.561385</ele>
        <time>2021-04-30T11:00:12.771Z</time>
      </trkpt>
      <trkpt lat="44.64692" lon="3.54036">
        <ele>1490.89174</ele>
        <time>2021-04-30T11:00:39.504Z</time>
      </trkpt>
      <trkpt lat="44.64551" lon="3.53978">
        <ele>1485.952266</ele>
        <time>2021-04-30T11:01:22.767Z</time>
      </trkpt>
      <trkpt lat="44.64491" lon="3.53944">
        <ele>1483.037243</ele>
        <time>2021-04-30T11:01:40.910Z</time>
      </trkpt>
      <trkpt lat="44.64466" lon="3.53921">
        <ele>1481.682551</ele>
        <time>2021-04-30T11:01:49.216Z</time>
      </trkpt>
      <trkpt lat="44.64413" lon="3.53857">
        <ele>1478.272509</ele>
        <time>2021-04-30T11:02:08.246Z</time>
      </trkpt>
      <trkpt lat="44.64392" lon="3.53855">
        <ele>1476.837817</ele>
        <time>2021-04-30T11:02:13.858Z</time>
      </trkpt>
      <trkpt lat="44.6438" lon="3.53865">
        <ele>1475.872045</ele>
        <time>2021-04-30T11:02:17.625Z</time>
      </trkpt>
      <trkpt lat="44.64364" lon="3.53929">
        <ele>1472.578982</ele>
        <time>2021-04-30T11:02:30.318Z</time>
      </trkpt>
      <trkpt lat="44.64364" lon="3.53982">
        <ele>1470.008047</ele>
        <time>2021-04-30T11:02:40.110Z</time>
      </trkpt>
      <trkpt lat="44.64371" lon="3.54032">
        <ele>1467.575898</ele>
        <time>2021-04-30T11:02:49.312Z</time>
      </trkpt>
      <trkpt lat="44.64368" lon="3.54057">
        <ele>1466.258979</ele>
        <time>2021-04-30T11:02:54.045Z</time>
      </trkpt>
      <trkpt lat="44.6435" lon="3.541">
        <ele>1463.578619</ele>
        <time>2021-04-30T11:03:02.944Z</time>
      </trkpt>
      <trkpt lat="44.6431" lon="3.5411">
        <ele>1460.447218</ele>
        <time>2021-04-30T11:03:13.310Z</time>
      </trkpt>
      <trkpt lat="44.64271" lon="3.5411">
        <ele>1457.448745</ele>
        <time>2021-04-30T11:03:23.215Z</time>
      </trkpt>
      <trkpt lat="44.64237" lon="3.54117">
        <ele>1454.780063</ele>
        <time>2021-04-30T11:03:32.096Z</time>
      </trkpt>
      <trkpt lat="44.64171" lon="3.5417">
        <ele>1449.684823</ele>
        <time>2021-04-30T11:03:51.603Z</time>
      </trkpt>
      <trkpt lat="44.6415" lon="3.54173">
        <ele>1448.313062</ele>
        <time>2021-04-30T11:03:57.330Z</time>
      </trkpt>
      <trkpt lat="44.64102" lon="3.54156">
        <ele>1445.218159</ele>
        <time>2021-04-30T11:04:10.347Z</time>
      </trkpt>
      <trkpt lat="44.64073" lon="3.54177">
        <ele>1443.158901</ele>
        <time>2021-04-30T11:04:19.167Z</time>
      </trkpt>
      <trkpt lat="44.64033" lon="3.54235">
        <ele>1440.441253</ele>
        <time>2021-04-30T11:04:34.908Z</time>
      </trkpt>
      <trkpt lat="44.63984" lon="3.54289">
        <ele>1438.218642</ele>
        <time>2021-04-30T11:04:52.533Z</time>
      </trkpt>
      <trkpt lat="44.63932" lon="3.5447">
        <ele>1434.601077</ele>
        <time>2021-04-30T11:05:35.161Z</time>
      </trkpt>
      <trkpt lat="44.63905" lon="3.54588">
        <ele>1433.64569</ele>
        <time>2021-04-30T11:06:05.935Z</time>
      </trkpt>
      <trkpt lat="44.63896" lon="3.54681">
        <ele>1433.029524</ele>
        <time>2021-04-30T11:06:30.715Z</time>
      </trkpt>
      <trkpt lat="44.63862" lon="3.54784">
        <ele>1432.445147</ele>
        <time>2021-04-30T11:07:00.130Z</time>
      </trkpt>
      <trkpt lat="44.63857" lon="3.54815">
        <ele>1432.280652</ele>
        <time>2021-04-30T11:07:08.058Z</time>
      </trkpt>
      <trkpt lat="44.63856" lon="3.54851">
        <ele>1432.092027</ele>
        <time>2021-04-30T11:07:16.869Z</time>
      </trkpt>
      <trkpt lat="44.63875" lon="3.54996">
        <ele>1428.796267</ele>
        <time>2021-04-30T11:07:49.146Z</time>
      </trkpt>
      <trkpt lat="44.63874" lon="3.55031">
        <ele>1427.857142</ele>
        <time>2021-04-30T11:07:56.213Z</time>
      </trkpt>
      <trkpt lat="44.63847" lon="3.5507">
        <ele>1426.398544</ele>
        <time>2021-04-30T11:08:06.894Z</time>
      </trkpt>
      <trkpt lat="44.63841" lon="3.55085">
        <ele>1425.931909</ele>
        <time>2021-04-30T11:08:10.251Z</time>
      </trkpt>
      <trkpt lat="44.6388" lon="3.55175">
        <ele>1421.45019</ele>
        <time>2021-04-30T11:08:30.195Z</time>
      </trkpt>
      <trkpt lat="44.63922" lon="3.55247">
        <ele>1416.920096</ele>
        <time>2021-04-30T11:08:47.348Z</time>
      </trkpt>
      <trkpt lat="44.63925" lon="3.55282">
        <ele>1415.202309</ele>
        <time>2021-04-30T11:08:53.783Z</time>
      </trkpt>
      <trkpt lat="44.63913" lon="3.5531">
        <ele>1413.630178</ele>
        <time>2021-04-30T11:08:59.660Z</time>
      </trkpt>
      <trkpt lat="44.63892" lon="3.55332">
        <ele>1411.695971</ele>
        <time>2021-04-30T11:09:06.352Z</time>
      </trkpt>
      <trkpt lat="44.63879" lon="3.55357">
        <ele>1409.934657</ele>
        <time>2021-04-30T11:09:12.053Z</time>
      </trkpt>
      <trkpt lat="44.63858" lon="3.55463">
        <ele>1403.760683</ele>
        <time>2021-04-30T11:09:32.050Z</time>
      </trkpt>
      <trkpt lat="44.63867" lon="3.55585">
        <ele>1397.0006</ele>
        <time>2021-04-30T11:09:54.183Z</time>
      </trkpt>
      <trkpt lat="44.63893" lon="3.55657">
        <ele>1392.647099</ele>
        <time>2021-04-30T11:10:08.904Z</time>
      </trkpt>
      <trkpt lat="44.63903" lon="3.55701">
        <ele>1390.162118</ele>
        <time>2021-04-30T11:10:17.338Z</time>
      </trkpt>
      <trkpt lat="44.639" lon="3.5575">
        <ele>1387.492318</ele>
        <time>2021-04-30T11:10:26.435Z</time>
      </trkpt>
      <trkpt lat="44.63886" lon="3.5581">
        <ele>1384.251684</ele>
        <time>2021-04-30T11:10:37.990Z</time>
      </trkpt>
      <trkpt lat="44.63869" lon="3.55859">
        <ele>1381.754263</ele>
        <time>2021-04-30T11:10:48.060Z</time>
      </trkpt>
      <trkpt lat="44.63838" lon="3.55903">
        <ele>1378.924412</ele>
        <time>2021-04-30T11:10:59.523Z</time>
      </trkpt>
      <trkpt lat="44.63721" lon="3.56014">
        <ele>1370.349722</ele>
        <time>2021-04-30T11:11:37.175Z</time>
      </trkpt>
      <trkpt lat="44.63508" lon="3.56123">
        <ele>1358.559591</ele>
        <time>2021-04-30T11:12:39.288Z</time>
      </trkpt>
      <trkpt lat="44.63396" lon="3.5617">
        <ele>1353.152924</ele>
        <time>2021-04-30T11:13:11.913Z</time>
      </trkpt>
      <trkpt lat="44.63299" lon="3.56199">
        <ele>1349.160063</ele>
        <time>2021-04-30T11:13:39.744Z</time>
      </trkpt>
      <trkpt lat="44.6325" lon="3.56216">
        <ele>1347.246567</ele>
        <time>2021-04-30T11:13:54.419Z</time>
      </trkpt>
      <trkpt lat="44.63211" lon="3.56163">
        <ele>1345.859518</ele>
        <time>2021-04-30T11:14:03.828Z</time>
      </trkpt>
      <trkpt lat="44.63183" lon="3.56138">
        <ele>1345.00843</ele>
        <time>2021-04-30T11:14:09.694Z</time>
      </trkpt>
      <trkpt lat="44.63139" lon="3.56116">
        <ele>1343.801962</ele>
        <time>2021-04-30T11:14:18.155Z</time>
      </trkpt>
      <trkpt lat="44.63091" lon="3.56102">
        <ele>1342.632581</ele>
        <time>2021-04-30T11:14:27.394Z</time>
      </trkpt>
      <trkpt lat="44.6303" lon="3.56075">
        <ele>1341.44397</ele>
        <time>2021-04-30T11:14:39.474Z</time>
      </trkpt>
      <trkpt lat="44.62955" lon="3.56062">
        <ele>1340.029765</ele>
        <time>2021-04-30T11:14:53.764Z</time>
      </trkpt>
      <trkpt lat="44.62849" lon="3.56065">
        <ele>1337.151451</ele>
        <time>2021-04-30T11:15:12.677Z</time>
      </trkpt>
      <trkpt lat="44.62819" lon="3.56076">
        <ele>1336.236536</ele>
        <time>2021-04-30T11:15:17.976Z</time>
      </trkpt>
      <trkpt lat="44.62768" lon="3.5607">
        <ele>1334.706747</ele>
        <time>2021-04-30T11:15:26.838Z</time>
      </trkpt>
      <trkpt lat="44.6275" lon="3.56068">
        <ele>1334.176325</ele>
        <time>2021-04-30T11:15:29.622Z</time>
      </trkpt>
      <trkpt lat="44.62657" lon="3.56111">
        <ele>1330.582043</ele>
        <time>2021-04-30T11:15:45.947Z</time>
      </trkpt>
      <trkpt lat="44.62623" lon="3.56112">
        <ele>1329.351357</ele>
        <time>2021-04-30T11:15:51.517Z</time>
      </trkpt>
      <trkpt lat="44.62613" lon="3.56108">
        <ele>1328.953839</ele>
        <time>2021-04-30T11:15:53.154Z</time>
      </trkpt>
      <trkpt lat="44.62584" lon="3.56125">
        <ele>1327.806853</ele>
        <time>2021-04-30T11:15:58.624Z</time>
      </trkpt>
      <trkpt lat="44.62573" lon="3.56129">
        <ele>1327.45105</ele>
        <time>2021-04-30T11:16:00.494Z</time>
      </trkpt>
      <trkpt lat="44.62573" lon="3.56129">
        <ele>1327.45105</ele>
        <time>2021-04-30T11:16:00.515Z</time>
      </trkpt>
      <trkpt lat="44.62573" lon="3.56129">
        <ele>1327.45105</ele>
        <time>2021-04-30T11:16:00.537Z</time>
      </trkpt>
      <trkpt lat="44.62584" lon="3.56125">
        <ele>1327.226543</ele>
        <time>2021-04-30T11:16:02.831Z</time>
      </trkpt>
      <trkpt lat="44.62613" lon="3.56108">
        <ele>1326.615601</ele>
        <time>2021-04-30T11:16:08.121Z</time>
      </trkpt>
      <trkpt lat="44.62608" lon="3.56072">
        <ele>1326.113004</ele>
        <time>2021-04-30T11:16:12.457Z</time>
      </trkpt>
      <trkpt lat="44.62602" lon="3.56021">
        <ele>1325.389942</ele>
        <time>2021-04-30T11:16:19.042Z</time>
      </trkpt>
      <trkpt lat="44.62592" lon="3.55993">
        <ele>1324.958281</ele>
        <time>2021-04-30T11:16:23.498Z</time>
      </trkpt>
      <trkpt lat="44.62577" lon="3.55985">
        <ele>1324.629558</ele>
        <time>2021-04-30T11:16:27.189Z</time>
      </trkpt>
      <trkpt lat="44.62554" lon="3.55998">
        <ele>1324.157144</ele>
        <time>2021-04-30T11:16:32.677Z</time>
      </trkpt>
      <trkpt lat="44.62532" lon="3.56024">
        <ele>1324.297904</ele>
        <time>2021-04-30T11:16:39.090Z</time>
      </trkpt>
      <trkpt lat="44.62523" lon="3.56031">
        <ele>1324.433792</ele>
        <time>2021-04-30T11:16:41.874Z</time>
      </trkpt>
      <trkpt lat="44.62508" lon="3.56044">
        <ele>1324.674974</ele>
        <time>2021-04-30T11:16:45.802Z</time>
      </trkpt>
      <trkpt lat="44.62493" lon="3.56048">
        <ele>1324.880552</ele>
        <time>2021-04-30T11:16:49.756Z</time>
      </trkpt>
      <trkpt lat="44.62483" lon="3.56046">
        <ele>1325.02217</ele>
        <time>2021-04-30T11:16:52.857Z</time>
      </trkpt>
      <trkpt lat="44.62468" lon="3.56032">
        <ele>1325.259452</ele>
        <time>2021-04-30T11:16:57.917Z</time>
      </trkpt>
      <trkpt lat="44.62467" lon="3.56022">
        <ele>1325.357048</ele>
        <time>2021-04-30T11:17:00.088Z</time>
      </trkpt>
      <trkpt lat="44.62467" lon="3.56015">
        <ele>1325.427454</ele>
        <time>2021-04-30T11:17:02.090Z</time>
      </trkpt>
      <trkpt lat="44.62496" lon="3.55941">
        <ele>1326.24589</ele>
        <time>2021-04-30T11:17:20.407Z</time>
      </trkpt>
      <trkpt lat="44.62487" lon="3.5592">
        <ele>1326.535974</ele>
        <time>2021-04-30T11:17:26.245Z</time>
      </trkpt>
      <trkpt lat="44.62473" lon="3.55915">
        <ele>1327.075686</ele>
        <time>2021-04-30T11:17:31.325Z</time>
      </trkpt>
      <trkpt lat="44.62461" lon="3.55918">
        <ele>1327.517067</ele>
        <time>2021-04-30T11:17:35.188Z</time>
      </trkpt>
      <trkpt lat="44.62453" lon="3.55929">
        <ele>1327.966584</ele>
        <time>2021-04-30T11:17:39.737Z</time>
      </trkpt>
      <trkpt lat="44.6245" lon="3.55941">
        <ele>1328.280083</ele>
        <time>2021-04-30T11:17:43.357Z</time>
      </trkpt>
      <trkpt lat="44.62436" lon="3.55995">
        <ele>1329.797827</ele>
        <time>2021-04-30T11:17:59.305Z</time>
      </trkpt>
      <trkpt lat="44.6241" lon="3.56034">
        <ele>1331.212775</ele>
        <time>2021-04-30T11:18:14.252Z</time>
      </trkpt>
      <trkpt lat="44.62385" lon="3.56054">
        <ele>1332.265179</ele>
        <time>2021-04-30T11:18:25.932Z</time>
      </trkpt>
      <trkpt lat="44.62369" lon="3.56059">
        <ele>1332.852642</ele>
        <time>2021-04-30T11:18:31.710Z</time>
      </trkpt>
      <trkpt lat="44.62369" lon="3.56059">
        <ele>1332.852642</ele>
        <time>2021-04-30T11:18:31.789Z</time>
      </trkpt>
      <trkpt lat="44.62357" lon="3.56035">
        <ele>1333.633639</ele>
        <time>2021-04-30T11:18:41.728Z</time>
      </trkpt>
      <trkpt lat="44.62354" lon="3.56029">
        <ele>1333.843359</ele>
        <time>2021-04-30T11:18:43.898Z</time>
      </trkpt>
      <trkpt lat="44.6235" lon="3.56023">
        <ele>1334.056374</ele>
        <time>2021-04-30T11:18:46.325Z</time>
      </trkpt>
      <trkpt lat="44.62341" lon="3.56009">
        <ele>1334.562854</ele>
        <time>2021-04-30T11:18:53.193Z</time>
      </trkpt>
      <trkpt lat="44.62324" lon="3.56001">
        <ele>1335.249677</ele>
        <time>2021-04-30T11:19:00.713Z</time>
      </trkpt>
      <trkpt lat="44.62308" lon="3.55994">
        <ele>1335.873792</ele>
        <time>2021-04-30T11:19:09.030Z</time>
      </trkpt>
      <trkpt lat="44.62241" lon="3.55964">
        <ele>1338.564375</ele>
        <time>2021-04-30T11:19:38.009Z</time>
      </trkpt>
      <trkpt lat="44.6223" lon="3.55951">
        <ele>1339.104111</ele>
        <time>2021-04-30T11:19:43.215Z</time>
      </trkpt>
      <trkpt lat="44.62218" lon="3.5595">
        <ele>1339.558848</ele>
        <time>2021-04-30T11:19:47.335Z</time>
      </trkpt>
      <trkpt lat="44.62201" lon="3.5597">
        <ele>1339.876335</ele>
        <time>2021-04-30T11:19:54.754Z</time>
      </trkpt>
      <trkpt lat="44.62178" lon="3.56011">
        <ele>1339.688906</ele>
        <time>2021-04-30T11:20:04.743Z</time>
      </trkpt>
      <trkpt lat="44.62163" lon="3.56036">
        <ele>1339.573026</ele>
        <time>2021-04-30T11:20:10.090Z</time>
      </trkpt>
      <trkpt lat="44.62172" lon="3.56043">
        <ele>1339.524752</ele>
        <time>2021-04-30T11:20:12.297Z</time>
      </trkpt>
      <trkpt lat="44.62184" lon="3.56052">
        <ele>1339.452892</ele>
        <time>2021-04-30T11:20:15.229Z</time>
      </trkpt>
      <trkpt lat="44.62216" lon="3.56102">
        <ele>1339.215563</ele>
        <time>2021-04-30T11:20:30.121Z</time>
      </trkpt>
      <trkpt lat="44.62217" lon="3.56106">
        <ele>1339.202176</ele>
        <time>2021-04-30T11:20:30.874Z</time>
      </trkpt>
      <trkpt lat="44.62227" lon="3.5613">
        <ele>1339.104335</ele>
        <time>2021-04-30T11:20:37.222Z</time>
      </trkpt>
      <trkpt lat="44.62227" lon="3.56153">
        <ele>1338.980779</ele>
        <time>2021-04-30T11:20:40.017Z</time>
      </trkpt>
      <trkpt lat="44.6221" lon="3.56214">
        <ele>1338.154005</ele>
        <time>2021-04-30T11:20:48.485Z</time>
      </trkpt>
      <trkpt lat="44.62205" lon="3.56238">
        <ele>1337.84497</ele>
        <time>2021-04-30T11:20:51.431Z</time>
      </trkpt>
      <trkpt lat="44.62196" lon="3.56283">
        <ele>1337.252047</ele>
        <time>2021-04-30T11:20:57.363Z</time>
      </trkpt>
      <trkpt lat="44.62189" lon="3.56303">
        <ele>1336.981863</ele>
        <time>2021-04-30T11:21:00.287Z</time>
      </trkpt>
      <trkpt lat="44.62174" lon="3.56376">
        <ele>1336.02564</ele>
        <time>2021-04-30T11:21:10.804Z</time>
      </trkpt>
      <trkpt lat="44.62147" lon="3.56702">
        <ele>1337.620932</ele>
        <time>2021-04-30T11:22:15.605Z</time>
      </trkpt>
      <trkpt lat="44.62147" lon="3.56778">
        <ele>1337.922448</ele>
        <time>2021-04-30T11:22:29.487Z</time>
      </trkpt>
      <trkpt lat="44.62137" lon="3.56895">
        <ele>1338.393207</ele>
        <time>2021-04-30T11:22:49.670Z</time>
      </trkpt>
      <trkpt lat="44.62121" lon="3.57054">
        <ele>1338.906035</ele>
        <time>2021-04-30T11:23:16.879Z</time>
      </trkpt>
      <trkpt lat="44.6211" lon="3.57105">
        <ele>1339.077992</ele>
        <time>2021-04-30T11:23:26.870Z</time>
      </trkpt>
      <trkpt lat="44.62102" lon="3.57134">
        <ele>1339.17551</ele>
        <time>2021-04-30T11:23:32.378Z</time>
      </trkpt>
      <trkpt lat="44.62101" lon="3.57153">
        <ele>1339.333114</ele>
        <time>2021-04-30T11:23:36.424Z</time>
      </trkpt>
      <trkpt lat="44.62082" lon="3.5723">
        <ele>1340.120767</ele>
        <time>2021-04-30T11:23:52.765Z</time>
      </trkpt>
      <trkpt lat="44.62032" lon="3.57378">
        <ele>1341.617403</ele>
        <time>2021-04-30T11:24:27.748Z</time>
      </trkpt>
      <trkpt lat="44.62019" lon="3.57436">
        <ele>1341.600484</ele>
        <time>2021-04-30T11:24:39.555Z</time>
      </trkpt>
      <trkpt lat="44.6201" lon="3.57508">
        <ele>1341.580521</ele>
        <time>2021-04-30T11:24:52.109Z</time>
      </trkpt>
      <trkpt lat="44.62008" lon="3.57577">
        <ele>1341.561304</ele>
        <time>2021-04-30T11:25:02.886Z</time>
      </trkpt>
      <trkpt lat="44.62018" lon="3.57781">
        <ele>1339.309516</ele>
        <time>2021-04-30T11:25:29.962Z</time>
      </trkpt>
      <trkpt lat="44.62011" lon="3.5785">
        <ele>1338.362859</ele>
        <time>2021-04-30T11:25:38.454Z</time>
      </trkpt>
      <trkpt lat="44.61997" lon="3.57901">
        <ele>1338.550827</ele>
        <time>2021-04-30T11:25:45.772Z</time>
      </trkpt>
      <trkpt lat="44.61982" lon="3.57931">
        <ele>1339.050888</ele>
        <time>2021-04-30T11:25:51.799Z</time>
      </trkpt>
      <trkpt lat="44.61941" lon="3.57968">
        <ele>1339.980495</ele>
        <time>2021-04-30T11:26:05.473Z</time>
      </trkpt>
      <trkpt lat="44.61899" lon="3.57984">
        <ele>1340.802669</ele>
        <time>2021-04-30T11:26:22.944Z</time>
      </trkpt>
      <trkpt lat="44.61892" lon="3.57987">
        <ele>1340.940501</ele>
        <time>2021-04-30T11:26:26.191Z</time>
      </trkpt>
      <trkpt lat="44.6186" lon="3.58003">
        <ele>1341.729605</ele>
        <time>2021-04-30T11:26:40.547Z</time>
      </trkpt>
      <trkpt lat="44.61832" lon="3.58027">
        <ele>1343.3161</ele>
        <time>2021-04-30T11:26:54.391Z</time>
      </trkpt>
      <trkpt lat="44.61816" lon="3.58053">
        <ele>1344.495274</ele>
        <time>2021-04-30T11:27:04.544Z</time>
      </trkpt>
      <trkpt lat="44.61804" lon="3.58075">
        <ele>1345.444932</ele>
        <time>2021-04-30T11:27:14.387Z</time>
      </trkpt>
      <trkpt lat="44.61797" lon="3.58092">
        <ele>1346.127126</ele>
        <time>2021-04-30T11:27:19.966Z</time>
      </trkpt>
      <trkpt lat="44.61769" lon="3.58213">
        <ele>1350.398517</ele>
        <time>2021-04-30T11:28:00.778Z</time>
      </trkpt>
      <trkpt lat="44.61704" lon="3.58357">
        <ele>1353.900245</ele>
        <time>2021-04-30T11:28:39.946Z</time>
      </trkpt>
      <trkpt lat="44.61666" lon="3.58399">
        <ele>1355.282863</ele>
        <time>2021-04-30T11:28:55.708Z</time>
      </trkpt>
      <trkpt lat="44.61583" lon="3.58443">
        <ele>1357.784684</ele>
        <time>2021-04-30T11:29:27.780Z</time>
      </trkpt>
      <trkpt lat="44.61546" lon="3.58481">
        <ele>1359.081947</ele>
        <time>2021-04-30T11:29:45.023Z</time>
      </trkpt>
      <trkpt lat="44.61516" lon="3.58551">
        <ele>1360.402646</ele>
        <time>2021-04-30T11:30:04.749Z</time>
      </trkpt>
      <trkpt lat="44.61506" lon="3.58626">
        <ele>1359.950467</ele>
        <time>2021-04-30T11:30:18.648Z</time>
      </trkpt>
      <trkpt lat="44.61507" lon="3.58638">
        <ele>1359.879286</ele>
        <time>2021-04-30T11:30:20.930Z</time>
      </trkpt>
      <trkpt lat="44.61501" lon="3.5876">
        <ele>1359.146994</ele>
        <time>2021-04-30T11:30:37.120Z</time>
      </trkpt>
      <trkpt lat="44.61496" lon="3.58795">
        <ele>1358.869322</ele>
        <time>2021-04-30T11:30:41.522Z</time>
      </trkpt>
      <trkpt lat="44.61488" lon="3.58823">
        <ele>1358.345729</ele>
        <time>2021-04-30T11:30:45.070Z</time>
      </trkpt>
      <trkpt lat="44.61475" lon="3.58851">
        <ele>1357.76829</ele>
        <time>2021-04-30T11:30:49.192Z</time>
      </trkpt>
      <trkpt lat="44.61463" lon="3.58865">
        <ele>1357.373959</ele>
        <time>2021-04-30T11:30:51.795Z</time>
      </trkpt>
      <trkpt lat="44.61447" lon="3.58889">
        <ele>1356.804482</ele>
        <time>2021-04-30T11:30:58.751Z</time>
      </trkpt>
      <trkpt lat="44.6137" lon="3.58955">
        <ele>1354.603132</ele>
        <time>2021-04-30T11:31:26.331Z</time>
      </trkpt>
      <trkpt lat="44.61299" lon="3.59006">
        <ele>1355.1002</ele>
        <time>2021-04-30T11:31:56.437Z</time>
      </trkpt>
      <trkpt lat="44.61067" lon="3.59259">
        <ele>1358.909451</ele>
        <time>2021-04-30T11:34:05.161Z</time>
      </trkpt>
      <trkpt lat="44.61006" lon="3.59354">
        <ele>1360.188685</ele>
        <time>2021-04-30T11:34:43.785Z</time>
      </trkpt>
      <trkpt lat="44.6096" lon="3.59461">
        <ele>1361.500909</ele>
        <time>2021-04-30T11:35:21.444Z</time>
      </trkpt>
      <trkpt lat="44.60946" lon="3.5954">
        <ele>1362.57545</ele>
        <time>2021-04-30T11:35:46.693Z</time>
      </trkpt>
      <trkpt lat="44.60957" lon="3.59609">
        <ele>1363.500397</ele>
        <time>2021-04-30T11:36:09.037Z</time>
      </trkpt>
      <trkpt lat="44.60984" lon="3.5968">
        <ele>1364.561172</ele>
        <time>2021-04-30T11:36:35.375Z</time>
      </trkpt>
      <trkpt lat="44.61001" lon="3.59753">
        <ele>1366.026938</ele>
        <time>2021-04-30T11:37:01.044Z</time>
      </trkpt>
      <trkpt lat="44.60993" lon="3.59822">
        <ele>1367.362916</ele>
        <time>2021-04-30T11:37:24.793Z</time>
      </trkpt>
      <trkpt lat="44.60973" lon="3.59907">
        <ele>1369.098029</ele>
        <time>2021-04-30T11:37:56.101Z</time>
      </trkpt>
      <trkpt lat="44.60969" lon="3.59948">
        <ele>1369.976304</ele>
        <time>2021-04-30T11:38:10.555Z</time>
      </trkpt>
      <trkpt lat="44.60969" lon="3.60043">
        <ele>1372.13023</ele>
        <time>2021-04-30T11:38:43.910Z</time>
      </trkpt>
      <trkpt lat="44.60944" lon="3.60238">
        <ele>1376.680988</ele>
        <time>2021-04-30T11:39:55.103Z</time>
      </trkpt>
      <trkpt lat="44.60965" lon="3.60366">
        <ele>1379.740005</ele>
        <time>2021-04-30T11:40:43.234Z</time>
      </trkpt>
      <trkpt lat="44.60947" lon="3.60474">
        <ele>1381.812321</ele>
        <time>2021-04-30T11:41:21.508Z</time>
      </trkpt>
      <trkpt lat="44.6094" lon="3.60501">
        <ele>1382.212192</ele>
        <time>2021-04-30T11:41:31.646Z</time>
      </trkpt>
      <trkpt lat="44.60898" lon="3.60442">
        <ele>1383.365613</ele>
        <time>2021-04-30T11:41:49.502Z</time>
      </trkpt>
      <trkpt lat="44.60859" lon="3.60381">
        <ele>1384.495835</ele>
        <time>2021-04-30T11:42:05.605Z</time>
      </trkpt>
      <trkpt lat="44.60855" lon="3.60372">
        <ele>1384.548848</ele>
        <time>2021-04-30T11:42:07.401Z</time>
      </trkpt>
      <trkpt lat="44.60843" lon="3.60342">
        <ele>1384.489979</ele>
        <time>2021-04-30T11:42:13.877Z</time>
      </trkpt>
      <trkpt lat="44.60828" lon="3.60281">
        <ele>1384.381679</ele>
        <time>2021-04-30T11:42:23.798Z</time>
      </trkpt>
      <trkpt lat="44.60805" lon="3.60116">
        <ele>1383.959786</ele>
        <time>2021-04-30T11:42:47.861Z</time>
      </trkpt>
      <trkpt lat="44.60782" lon="3.60056">
        <ele>1383.394788</ele>
        <time>2021-04-30T11:42:56.880Z</time>
      </trkpt>
      <trkpt lat="44.60561" lon="3.59737">
        <ele>1379.575777</ele>
        <time>2021-04-30T11:43:56.590Z</time>
      </trkpt>
      <trkpt lat="44.60533" lon="3.59677">
        <ele>1378.916088</ele>
        <time>2021-04-30T11:44:06.741Z</time>
      </trkpt>
      <trkpt lat="44.60511" lon="3.5961">
        <ele>1378.231956</ele>
        <time>2021-04-30T11:44:16.695Z</time>
      </trkpt>
      <trkpt lat="44.60512" lon="3.59598">
        <ele>1378.120933</ele>
        <time>2021-04-30T11:44:18.875Z</time>
      </trkpt>
      <trkpt lat="44.60492" lon="3.59633">
        <ele>1377.701323</ele>
        <time>2021-04-30T11:44:24.721Z</time>
      </trkpt>
      <trkpt lat="44.60436" lon="3.59755">
        <ele>1374.722651</ele>
        <time>2021-04-30T11:44:42.485Z</time>
      </trkpt>
      <trkpt lat="44.6031" lon="3.59873">
        <ele>1369.307509</ele>
        <time>2021-04-30T11:45:06.132Z</time>
      </trkpt>
      <trkpt lat="44.60254" lon="3.59978">
        <ele>1365.347748</ele>
        <time>2021-04-30T11:45:20.559Z</time>
      </trkpt>
      <trkpt lat="44.60213" lon="3.60043">
        <ele>1362.812761</ele>
        <time>2021-04-30T11:45:30.129Z</time>
      </trkpt>
      <trkpt lat="44.60142" lon="3.60148">
        <ele>1358.639495</ele>
        <time>2021-04-30T11:45:46.391Z</time>
      </trkpt>
      <trkpt lat="44.60091" lon="3.60214">
        <ele>1355.716705</ele>
        <time>2021-04-30T11:45:57.289Z</time>
      </trkpt>
      <trkpt lat="44.60078" lon="3.60238">
        <ele>1354.790367</ele>
        <time>2021-04-30T11:46:00.629Z</time>
      </trkpt>
      <trkpt lat="44.60073" lon="3.6026">
        <ele>1354.068644</ele>
        <time>2021-04-30T11:46:03.175Z</time>
      </trkpt>
      <trkpt lat="44.60069" lon="3.60275">
        <ele>1353.566644</ele>
        <time>2021-04-30T11:46:05.006Z</time>
      </trkpt>
      <trkpt lat="44.60065" lon="3.60304">
        <ele>1352.643888</ele>
        <time>2021-04-30T11:46:08.222Z</time>
      </trkpt>
      <trkpt lat="44.60061" lon="3.60399">
        <ele>1349.704669</ele>
        <time>2021-04-30T11:46:18.583Z</time>
      </trkpt>
      <trkpt lat="44.60051" lon="3.60422">
        <ele>1348.856461</ele>
        <time>2021-04-30T11:46:21.547Z</time>
      </trkpt>
      <trkpt lat="44.59932" lon="3.60652">
        <ele>1339.711994</ele>
        <time>2021-04-30T11:46:52.630Z</time>
      </trkpt>
      <trkpt lat="44.59861" lon="3.60776">
        <ele>1335.030751</ele>
        <time>2021-04-30T11:47:10.476Z</time>
      </trkpt>
      <trkpt lat="44.59829" lon="3.60815">
        <ele>1333.277145</ele>
        <time>2021-04-30T11:47:17.165Z</time>
      </trkpt>
      <trkpt lat="44.5975" lon="3.60933">
        <ele>1328.279979</ele>
        <time>2021-04-30T11:47:35.236Z</time>
      </trkpt>
      <trkpt lat="44.59668" lon="3.61077">
        <ele>1322.247598</ele>
        <time>2021-04-30T11:47:55.181Z</time>
      </trkpt>
      <trkpt lat="44.59554" lon="3.61223">
        <ele>1314.967844</ele>
        <time>2021-04-30T11:48:18.527Z</time>
      </trkpt>
      <trkpt lat="44.5952" lon="3.61281">
        <ele>1312.612819</ele>
        <time>2021-04-30T11:48:26.797Z</time>
      </trkpt>
      <trkpt lat="44.59475" lon="3.61399">
        <ele>1308.529561</ele>
        <time>2021-04-30T11:48:41.764Z</time>
      </trkpt>
      <trkpt lat="44.59447" lon="3.61455">
        <ele>1306.771121</ele>
        <time>2021-04-30T11:48:49.509Z</time>
      </trkpt>
      <trkpt lat="44.59385" lon="3.61538">
        <ele>1303.651053</ele>
        <time>2021-04-30T11:49:03.309Z</time>
      </trkpt>
      <trkpt lat="44.59288" lon="3.61648">
        <ele>1299.330696</ele>
        <time>2021-04-30T11:49:23.312Z</time>
      </trkpt>
      <trkpt lat="44.59254" lon="3.61716">
        <ele>1297.276182</ele>
        <time>2021-04-30T11:49:33.092Z</time>
      </trkpt>
      <trkpt lat="44.5922" lon="3.61766">
        <ele>1295.51224</ele>
        <time>2021-04-30T11:49:40.929Z</time>
      </trkpt>
      <trkpt lat="44.59142" lon="3.61834">
        <ele>1292.029862</ele>
        <time>2021-04-30T11:49:55.435Z</time>
      </trkpt>
      <trkpt lat="44.59127" lon="3.61856">
        <ele>1291.215869</ele>
        <time>2021-04-30T11:49:58.875Z</time>
      </trkpt>
      <trkpt lat="44.59119" lon="3.61879">
        <ele>1290.49721</ele>
        <time>2021-04-30T11:50:01.805Z</time>
      </trkpt>
      <trkpt lat="44.59117" lon="3.6195">
        <ele>1288.431953</ele>
        <time>2021-04-30T11:50:09.773Z</time>
      </trkpt>
      <trkpt lat="44.5911" lon="3.61987">
        <ele>1287.246079</ele>
        <time>2021-04-30T11:50:13.902Z</time>
      </trkpt>
      <trkpt lat="44.59082" lon="3.62032">
        <ele>1285.366008</ele>
        <time>2021-04-30T11:50:20.452Z</time>
      </trkpt>
      <trkpt lat="44.59072" lon="3.62118">
        <ele>1282.619731</ele>
        <time>2021-04-30T11:50:30.027Z</time>
      </trkpt>
      <trkpt lat="44.58943" lon="3.62384">
        <ele>1271.784791</ele>
        <time>2021-04-30T11:51:05.068Z</time>
      </trkpt>
      <trkpt lat="44.58934" lon="3.62416">
        <ele>1270.500082</ele>
        <time>2021-04-30T11:51:08.751Z</time>
      </trkpt>
      <trkpt lat="44.58936" lon="3.62484">
        <ele>1267.935018</ele>
        <time>2021-04-30T11:51:16.102Z</time>
      </trkpt>
      <trkpt lat="44.58926" lon="3.62555">
        <ele>1265.227579</ele>
        <time>2021-04-30T11:51:23.816Z</time>
      </trkpt>
      <trkpt lat="44.58915" lon="3.62579">
        <ele>1264.182442</ele>
        <time>2021-04-30T11:51:26.791Z</time>
      </trkpt>
      <trkpt lat="44.58891" lon="3.62603">
        <ele>1262.636792</ele>
        <time>2021-04-30T11:51:31.097Z</time>
      </trkpt>
      <trkpt lat="44.58698" lon="3.62727">
        <ele>1251.122271</ele>
        <time>2021-04-30T11:52:02.843Z</time>
      </trkpt>
      <trkpt lat="44.5867" lon="3.62753">
        <ele>1249.278936</ele>
        <time>2021-04-30T11:52:07.828Z</time>
      </trkpt>
      <trkpt lat="44.58645" lon="3.62791">
        <ele>1247.198665</ele>
        <time>2021-04-30T11:52:13.441Z</time>
      </trkpt>
      <trkpt lat="44.58585" lon="3.62903">
        <ele>1241.510599</ele>
        <time>2021-04-30T11:52:28.175Z</time>
      </trkpt>
      <trkpt lat="44.58542" lon="3.62959">
        <ele>1238.016259</ele>
        <time>2021-04-30T11:52:36.741Z</time>
      </trkpt>
      <trkpt lat="44.58452" lon="3.63023">
        <ele>1231.95579</ele>
        <time>2021-04-30T11:52:51.534Z</time>
      </trkpt>
      <trkpt lat="44.58432" lon="3.63042">
        <ele>1230.516315</ele>
        <time>2021-04-30T11:52:55.028Z</time>
      </trkpt>
      <trkpt lat="44.584" lon="3.63092">
        <ele>1227.618847</ele>
        <time>2021-04-30T11:53:02.079Z</time>
      </trkpt>
      <trkpt lat="44.58271" lon="3.63319">
        <ele>1214.784136</ele>
        <time>2021-04-30T11:53:32.268Z</time>
      </trkpt>
      <trkpt lat="44.58265" lon="3.63329">
        <ele>1214.211438</ele>
        <time>2021-04-30T11:53:33.551Z</time>
      </trkpt>
      <trkpt lat="44.58254" lon="3.63347">
        <ele>1213.132931</ele>
        <time>2021-04-30T11:53:36.024Z</time>
      </trkpt>
      <trkpt lat="44.58241" lon="3.63366">
        <ele>1211.942854</ele>
        <time>2021-04-30T11:53:38.810Z</time>
      </trkpt>
      <trkpt lat="44.58198" lon="3.63409">
        <ele>1209.311238</ele>
        <time>2021-04-30T11:53:46.451Z</time>
      </trkpt>
      <trkpt lat="44.58185" lon="3.63431">
        <ele>1208.417969</ele>
        <time>2021-04-30T11:53:49.446Z</time>
      </trkpt>
      <trkpt lat="44.58179" lon="3.63454">
        <ele>1207.613366</ele>
        <time>2021-04-30T11:53:52.151Z</time>
      </trkpt>
      <trkpt lat="44.58181" lon="3.63489">
        <ele>1206.51049</ele>
        <time>2021-04-30T11:53:55.920Z</time>
      </trkpt>
      <trkpt lat="44.58181" lon="3.63491">
        <ele>1206.44661</ele>
        <time>2021-04-30T11:53:56.118Z</time>
      </trkpt>
      <trkpt lat="44.58196" lon="3.63521">
        <ele>1205.273556</ele>
        <time>2021-04-30T11:54:00.504Z</time>
      </trkpt>
      <trkpt lat="44.58222" lon="3.6354">
        <ele>1203.969756</ele>
        <time>2021-04-30T11:54:05.362Z</time>
      </trkpt>
      <trkpt lat="44.58248" lon="3.63547">
        <ele>1202.856321</ele>
        <time>2021-04-30T11:54:09.691Z</time>
      </trkpt>
      <trkpt lat="44.58273" lon="3.63557">
        <ele>1202.134565</ele>
        <time>2021-04-30T11:54:14.093Z</time>
      </trkpt>
      <trkpt lat="44.58277" lon="3.63542">
        <ele>1201.825086</ele>
        <time>2021-04-30T11:54:17.010Z</time>
      </trkpt>
      <trkpt lat="44.58283" lon="3.63521">
        <ele>1201.387308</ele>
        <time>2021-04-30T11:54:20.484Z</time>
      </trkpt>
      <trkpt lat="44.58277" lon="3.63508">
        <ele>1201.082333</ele>
        <time>2021-04-30T11:54:23.006Z</time>
      </trkpt>
      <trkpt lat="44.58277" lon="3.635">
        <ele>1200.928539</ele>
        <time>2021-04-30T11:54:24.442Z</time>
      </trkpt>
      <trkpt lat="44.58277" lon="3.63508">
        <ele>1200.774746</ele>
        <time>2021-04-30T11:54:25.718Z</time>
      </trkpt>
      <trkpt lat="44.58283" lon="3.63521">
        <ele>1200.46977</ele>
        <time>2021-04-30T11:54:28.104Z</time>
      </trkpt>
      <trkpt lat="44.58277" lon="3.63542">
        <ele>1200.031992</ele>
        <time>2021-04-30T11:54:31.898Z</time>
      </trkpt>
      <trkpt lat="44.58273" lon="3.63557">
        <ele>1199.722513</ele>
        <time>2021-04-30T11:54:34.505Z</time>
      </trkpt>
      <trkpt lat="44.58288" lon="3.63579">
        <ele>1199.145356</ele>
        <time>2021-04-30T11:54:38.159Z</time>
      </trkpt>
      <trkpt lat="44.58295" lon="3.63602">
        <ele>1198.66012</ele>
        <time>2021-04-30T11:54:41.288Z</time>
      </trkpt>
      <trkpt lat="44.58297" lon="3.63641">
        <ele>1198.069799</ele>
        <time>2021-04-30T11:54:46.692Z</time>
      </trkpt>
      <trkpt lat="44.58297" lon="3.63649">
        <ele>1198.043856</ele>
        <time>2021-04-30T11:54:47.542Z</time>
      </trkpt>
      <trkpt lat="44.58295" lon="3.63673">
        <ele>1197.961306</ele>
        <time>2021-04-30T11:54:50.754Z</time>
      </trkpt>
      <trkpt lat="44.58285" lon="3.63683">
        <ele>1197.904626</ele>
        <time>2021-04-30T11:54:52.964Z</time>
      </trkpt>
      <trkpt lat="44.58281" lon="3.63687">
        <ele>1197.88283</ele>
        <time>2021-04-30T11:54:53.712Z</time>
      </trkpt>
      <trkpt lat="44.58278" lon="3.63691">
        <ele>1197.861035</ele>
        <time>2021-04-30T11:54:54.475Z</time>
      </trkpt>
      <trkpt lat="44.58289" lon="3.63701">
        <ele>1197.796681</ele>
        <time>2021-04-30T11:54:57.046Z</time>
      </trkpt>
      <trkpt lat="44.58298" lon="3.63711">
        <ele>1197.744654</ele>
        <time>2021-04-30T11:54:59.099Z</time>
      </trkpt>
      <trkpt lat="44.5831" lon="3.63725">
        <ele>1197.671003</ele>
        <time>2021-04-30T11:55:01.847Z</time>
      </trkpt>
      <trkpt lat="44.58335" lon="3.63766">
        <ele>1197.490614</ele>
        <time>2021-04-30T11:55:09.646Z</time>
      </trkpt>
      <trkpt lat="44.58367" lon="3.63845">
        <ele>1197.880637</ele>
        <time>2021-04-30T11:55:27.193Z</time>
      </trkpt>
      <trkpt lat="44.58389" lon="3.63915">
        <ele>1200.155889</ele>
        <time>2021-04-30T11:55:46.958Z</time>
      </trkpt>
      <trkpt lat="44.58393" lon="3.63947">
        <ele>1201.135425</ele>
        <time>2021-04-30T11:55:56.426Z</time>
      </trkpt>
      <trkpt lat="44.58396" lon="3.63975">
        <ele>1201.955354</ele>
        <time>2021-04-30T11:56:04.636Z</time>
      </trkpt>
      <trkpt lat="44.58397" lon="3.64002">
        <ele>1202.785235</ele>
        <time>2021-04-30T11:56:13.440Z</time>
      </trkpt>
      <trkpt lat="44.58396" lon="3.64036">
        <ele>1203.770562</ele>
        <time>2021-04-30T11:56:24.286Z</time>
      </trkpt>
      <trkpt lat="44.58393" lon="3.64072">
        <ele>1204.921761</ele>
        <time>2021-04-30T11:56:35.974Z</time>
      </trkpt>
      <trkpt lat="44.5839" lon="3.64107">
        <ele>1206.411853</ele>
        <time>2021-04-30T11:56:47.124Z</time>
      </trkpt>
      <trkpt lat="44.58384" lon="3.64186">
        <ele>1209.849649</ele>
        <time>2021-04-30T11:57:13.936Z</time>
      </trkpt>
      <trkpt lat="44.5838" lon="3.64238">
        <ele>1212.097959</ele>
        <time>2021-04-30T11:57:31.838Z</time>
      </trkpt>
      <trkpt lat="44.58372" lon="3.64298">
        <ele>1214.728789</ele>
        <time>2021-04-30T11:57:51.864Z</time>
      </trkpt>
      <trkpt lat="44.58352" lon="3.6435">
        <ele>1217.151911</ele>
        <time>2021-04-30T11:58:11.611Z</time>
      </trkpt>
      <trkpt lat="44.58336" lon="3.64374">
        <ele>1218.463641</ele>
        <time>2021-04-30T11:58:22.365Z</time>
      </trkpt>
      <trkpt lat="44.58314" lon="3.64411">
        <ele>1220.385397</ele>
        <time>2021-04-30T11:58:36.558Z</time>
      </trkpt>
      <trkpt lat="44.58309" lon="3.64419">
        <ele>1220.814092</ele>
        <time>2021-04-30T11:58:39.662Z</time>
      </trkpt>
      <trkpt lat="44.58291" lon="3.64463">
        <ele>1222.885745</ele>
        <time>2021-04-30T11:58:56.080Z</time>
      </trkpt>
      <trkpt lat="44.58287" lon="3.64486">
        <ele>1223.804088</ele>
        <time>2021-04-30T11:59:02.768Z</time>
      </trkpt>
      <trkpt lat="44.58271" lon="3.64491">
        <ele>1224.693836</ele>
        <time>2021-04-30T11:59:12.934Z</time>
      </trkpt>
      <trkpt lat="44.58267" lon="3.64523">
        <ele>1226.041735</ele>
        <time>2021-04-30T11:59:23.646Z</time>
      </trkpt>
      <trkpt lat="44.58273" lon="3.64566">
        <ele>1228.055238</ele>
        <time>2021-04-30T11:59:38.915Z</time>
      </trkpt>
      <trkpt lat="44.58282" lon="3.64574">
        <ele>1228.736229</ele>
        <time>2021-04-30T11:59:43.314Z</time>
      </trkpt>
      <trkpt lat="44.58308" lon="3.64583">
        <ele>1230.440255</ele>
        <time>2021-04-30T11:59:56.613Z</time>
      </trkpt>
      <trkpt lat="44.58321" lon="3.64583">
        <ele>1231.272279</ele>
        <time>2021-04-30T12:00:02.067Z</time>
      </trkpt>
      <trkpt lat="44.58325" lon="3.64587">
        <ele>1231.597559</ele>
        <time>2021-04-30T12:00:06.552Z</time>
      </trkpt>
      <trkpt lat="44.58321" lon="3.64639">
        <ele>1234.001619</ele>
        <time>2021-04-30T12:00:30.168Z</time>
      </trkpt>
      <trkpt lat="44.58334" lon="3.64808">
        <ele>1241.008191</ele>
        <time>2021-04-30T12:01:47.864Z</time>
      </trkpt>
      <trkpt lat="44.58346" lon="3.64917">
        <ele>1245.129276</ele>
        <time>2021-04-30T12:02:33.073Z</time>
      </trkpt>
      <trkpt lat="44.58353" lon="3.64938">
        <ele>1246.008856</ele>
        <time>2021-04-30T12:02:42.058Z</time>
      </trkpt>
      <trkpt lat="44.58349" lon="3.64951">
        <ele>1246.521103</ele>
        <time>2021-04-30T12:02:47.668Z</time>
      </trkpt>
      <trkpt lat="44.58272" lon="3.65275">
        <ele>1251.782189</ele>
        <time>2021-04-30T12:04:39.853Z</time>
      </trkpt>
      <trkpt lat="44.58242" lon="3.65362">
        <ele>1252.393222</ele>
        <time>2021-04-30T12:05:07.355Z</time>
      </trkpt>
      <trkpt lat="44.58074" lon="3.65784">
        <ele>1250.812176</ele>
        <time>2021-04-30T12:07:10.465Z</time>
      </trkpt>
      <trkpt lat="44.58058" lon="3.6581">
        <ele>1250.501804</ele>
        <time>2021-04-30T12:07:18.259Z</time>
      </trkpt>
      <trkpt lat="44.58031" lon="3.65853">
        <ele>1249.98812</ele>
        <time>2021-04-30T12:07:30.744Z</time>
      </trkpt>
      <trkpt lat="44.58024" lon="3.65863">
        <ele>1249.691888</ele>
        <time>2021-04-30T12:07:33.605Z</time>
      </trkpt>
      <trkpt lat="44.57995" lon="3.65899">
        <ele>1248.281022</ele>
        <time>2021-04-30T12:07:45.069Z</time>
      </trkpt>
      <trkpt lat="44.57907" lon="3.66021">
        <ele>1243.776147</ele>
        <time>2021-04-30T12:08:20.370Z</time>
      </trkpt>
      <trkpt lat="44.57827" lon="3.66141">
        <ele>1239.395295</ele>
        <time>2021-04-30T12:08:53.888Z</time>
      </trkpt>
      <trkpt lat="44.57793" lon="3.66222">
        <ele>1236.884902</ele>
        <time>2021-04-30T12:09:13.153Z</time>
      </trkpt>
      <trkpt lat="44.57773" lon="3.66329">
        <ele>1234.724043</ele>
        <time>2021-04-30T12:09:36.765Z</time>
      </trkpt>
      <trkpt lat="44.5777" lon="3.66366">
        <ele>1234.031248</ele>
        <time>2021-04-30T12:09:44.682Z</time>
      </trkpt>
      <trkpt lat="44.57765" lon="3.6645">
        <ele>1232.453345</ele>
        <time>2021-04-30T12:10:03.262Z</time>
      </trkpt>
      <trkpt lat="44.57761" lon="3.66511">
        <ele>1231.634429</ele>
        <time>2021-04-30T12:10:17.101Z</time>
      </trkpt>
      <trkpt lat="44.57756" lon="3.66528">
        <ele>1231.480846</ele>
        <time>2021-04-30T12:10:19.550Z</time>
      </trkpt>
      <trkpt lat="44.57605" lon="3.66847">
        <ele>1228.523273</ele>
        <time>2021-04-30T12:11:15.296Z</time>
      </trkpt>
      <trkpt lat="44.57427" lon="3.67243">
        <ele>1224.994148</ele>
        <time>2021-04-30T12:12:22.143Z</time>
      </trkpt>
      <trkpt lat="44.57294" lon="3.67587">
        <ele>1222.418686</ele>
        <time>2021-04-30T12:13:19.172Z</time>
      </trkpt>
      <trkpt lat="44.5711" lon="3.68058">
        <ele>1219.193362</ele>
        <time>2021-04-30T12:14:38.135Z</time>
      </trkpt>
      <trkpt lat="44.571" lon="3.68073">
        <ele>1219.065397</ele>
        <time>2021-04-30T12:14:41.233Z</time>
      </trkpt>
      <trkpt lat="44.57097" lon="3.68078">
        <ele>1219.023836</ele>
        <time>2021-04-30T12:14:42.121Z</time>
      </trkpt>
      <trkpt lat="44.57089" lon="3.68088">
        <ele>1218.931884</ele>
        <time>2021-04-30T12:14:44.351Z</time>
      </trkpt>
      <trkpt lat="44.56928" lon="3.68354">
        <ele>1216.612962</ele>
        <time>2021-04-30T12:15:34.992Z</time>
      </trkpt>
      <trkpt lat="44.56839" lon="3.68513">
        <ele>1215.205292</ele>
        <time>2021-04-30T12:16:03.681Z</time>
      </trkpt>
      <trkpt lat="44.56766" lon="3.68655">
        <ele>1214.551129</ele>
        <time>2021-04-30T12:16:29.838Z</time>
      </trkpt>
      <trkpt lat="44.56741" lon="3.68698">
        <ele>1214.577198</ele>
        <time>2021-04-30T12:16:38.812Z</time>
      </trkpt>
      <trkpt lat="44.56646" lon="3.68833">
        <ele>1214.600621</ele>
        <time>2021-04-30T12:17:13.804Z</time>
      </trkpt>
      <trkpt lat="44.56555" lon="3.68998">
        <ele>1214.381047</ele>
        <time>2021-04-30T12:17:46.835Z</time>
      </trkpt>
      <trkpt lat="44.56537" lon="3.69023">
        <ele>1214.18865</ele>
        <time>2021-04-30T12:17:51.882Z</time>
      </trkpt>
      <trkpt lat="44.56473" lon="3.69092">
        <ele>1213.587311</ele>
        <time>2021-04-30T12:18:07.685Z</time>
      </trkpt>
      <trkpt lat="44.56438" lon="3.69161">
        <ele>1213.205099</ele>
        <time>2021-04-30T12:18:20.203Z</time>
      </trkpt>
      <trkpt lat="44.5639" lon="3.6924">
        <ele>1214.478876</ele>
        <time>2021-04-30T12:18:39.434Z</time>
      </trkpt>
      <trkpt lat="44.56384" lon="3.69256">
        <ele>1214.696525</ele>
        <time>2021-04-30T12:18:42.984Z</time>
      </trkpt>
      <trkpt lat="44.5638" lon="3.69258">
        <ele>1214.762791</ele>
        <time>2021-04-30T12:18:44.133Z</time>
      </trkpt>
      <trkpt lat="44.56374" lon="3.69259">
        <ele>1214.865013</ele>
        <time>2021-04-30T12:18:45.890Z</time>
      </trkpt>
      <trkpt lat="44.56369" lon="3.6926">
        <ele>1214.956708</ele>
        <time>2021-04-30T12:18:47.562Z</time>
      </trkpt>
      <trkpt lat="44.56362" lon="3.69272">
        <ele>1215.141489</ele>
        <time>2021-04-30T12:18:53.297Z</time>
      </trkpt>
      <trkpt lat="44.56264" lon="3.69363">
        <ele>1218.002252</ele>
        <time>2021-04-30T12:19:51.951Z</time>
      </trkpt>
      <trkpt lat="44.56248" lon="3.69383">
        <ele>1218.708818</ele>
        <time>2021-04-30T12:20:03.590Z</time>
      </trkpt>
      <trkpt lat="44.56236" lon="3.6942">
        <ele>1219.650201</ele>
        <time>2021-04-30T12:20:18.416Z</time>
      </trkpt>
      <trkpt lat="44.56219" lon="3.69444">
        <ele>1220.438</ele>
        <time>2021-04-30T12:20:30.156Z</time>
      </trkpt>
      <trkpt lat="44.56191" lon="3.69467">
        <ele>1221.507798</ele>
        <time>2021-04-30T12:20:46.391Z</time>
      </trkpt>
      <trkpt lat="44.56161" lon="3.69482">
        <ele>1222.461176</ele>
        <time>2021-04-30T12:21:02.414Z</time>
      </trkpt>
      <trkpt lat="44.56078" lon="3.69507">
        <ele>1224.616736</ele>
        <time>2021-04-30T12:21:43.086Z</time>
      </trkpt>
      <trkpt lat="44.56006" lon="3.69561">
        <ele>1226.661396</ele>
        <time>2021-04-30T12:22:19.960Z</time>
      </trkpt>
      <trkpt lat="44.55889" lon="3.69664">
        <ele>1229.590221</ele>
        <time>2021-04-30T12:23:24.312Z</time>
      </trkpt>
      <trkpt lat="44.55865" lon="3.69694">
        <ele>1230.276016</ele>
        <time>2021-04-30T12:23:38.833Z</time>
      </trkpt>
      <trkpt lat="44.55852" lon="3.69719">
        <ele>1230.596764</ele>
        <time>2021-04-30T12:23:48.695Z</time>
      </trkpt>
      <trkpt lat="44.55776" lon="3.69922">
        <ele>1232.016648</ele>
        <time>2021-04-30T12:24:55.369Z</time>
      </trkpt>
      <trkpt lat="44.55756" lon="3.6996">
        <ele>1231.727776</ele>
        <time>2021-04-30T12:25:07.297Z</time>
      </trkpt>
      <trkpt lat="44.55698" lon="3.70039">
        <ele>1230.818813</ele>
        <time>2021-04-30T12:25:34.534Z</time>
      </trkpt>
      <trkpt lat="44.55633" lon="3.70111">
        <ele>1229.748704</ele>
        <time>2021-04-30T12:26:00.844Z</time>
      </trkpt>
      <trkpt lat="44.55494" lon="3.70308">
        <ele>1225.863458</ele>
        <time>2021-04-30T12:27:01.772Z</time>
      </trkpt>
      <trkpt lat="44.5541" lon="3.70439">
        <ele>1225.061629</ele>
        <time>2021-04-30T12:27:43.991Z</time>
      </trkpt>
      <trkpt lat="44.55366" lon="3.70552">
        <ele>1227.185933</ele>
        <time>2021-04-30T12:28:27.105Z</time>
      </trkpt>
      <trkpt lat="44.55328" lon="3.70584">
        <ele>1228.657998</ele>
        <time>2021-04-30T12:28:50.035Z</time>
      </trkpt>
      <trkpt lat="44.55312" lon="3.70607">
        <ele>1229.42457</ele>
        <time>2021-04-30T12:29:02.278Z</time>
      </trkpt>
      <trkpt lat="44.55303" lon="3.70627">
        <ele>1230.003817</ele>
        <time>2021-04-30T12:29:12.288Z</time>
      </trkpt>
      <trkpt lat="44.55299" lon="3.70649">
        <ele>1230.527973</ele>
        <time>2021-04-30T12:29:20.630Z</time>
      </trkpt>
      <trkpt lat="44.55294" lon="3.70796">
        <ele>1235.166129</ele>
        <time>2021-04-30T12:30:20.899Z</time>
      </trkpt>
      <trkpt lat="44.55258" lon="3.71035">
        <ele>1242.527758</ele>
        <time>2021-04-30T12:31:54.239Z</time>
      </trkpt>
      <trkpt lat="44.55254" lon="3.71047">
        <ele>1242.922315</ele>
        <time>2021-04-30T12:31:59.579Z</time>
      </trkpt>
      <trkpt lat="44.55253" lon="3.71069">
        <ele>1243.54021</ele>
        <time>2021-04-30T12:32:08.041Z</time>
      </trkpt>
      <trkpt lat="44.55249" lon="3.71116">
        <ele>1244.872514</ele>
        <time>2021-04-30T12:32:25.871Z</time>
      </trkpt>
      <trkpt lat="44.55263" lon="3.71478">
        <ele>1253.078504</ele>
        <time>2021-04-30T12:34:36.879Z</time>
      </trkpt>
      <trkpt lat="44.55258" lon="3.71582">
        <ele>1254.414475</ele>
        <time>2021-04-30T12:35:09.326Z</time>
      </trkpt>
      <trkpt lat="44.55241" lon="3.71718">
        <ele>1255.853995</ele>
        <time>2021-04-30T12:35:48.957Z</time>
      </trkpt>
      <trkpt lat="44.55233" lon="3.71854">
        <ele>1256.735747</ele>
        <time>2021-04-30T12:36:27.603Z</time>
      </trkpt>
      <trkpt lat="44.55232" lon="3.71911">
        <ele>1257.10842</ele>
        <time>2021-04-30T12:36:44.808Z</time>
      </trkpt>
      <trkpt lat="44.55238" lon="3.72007">
        <ele>1258.206341</ele>
        <time>2021-04-30T12:37:14.782Z</time>
      </trkpt>
      <trkpt lat="44.55228" lon="3.72032">
        <ele>1258.533253</ele>
        <time>2021-04-30T12:37:23.666Z</time>
      </trkpt>
      <trkpt lat="44.55193" lon="3.72073">
        <ele>1259.280929</ele>
        <time>2021-04-30T12:37:44.263Z</time>
      </trkpt>
      <trkpt lat="44.55083" lon="3.72279">
        <ele>1261.691837</ele>
        <time>2021-04-30T12:39:04.190Z</time>
      </trkpt>
      <trkpt lat="44.55004" lon="3.72534">
        <ele>1262.43701</ele>
        <time>2021-04-30T12:40:18.309Z</time>
      </trkpt>
      <trkpt lat="44.54871" lon="3.72901">
        <ele>1264.383485</ele>
        <time>2021-04-30T12:42:09.689Z</time>
      </trkpt>
      <trkpt lat="44.54855" lon="3.72944">
        <ele>1265.008933</ele>
        <time>2021-04-30T12:42:27.010Z</time>
      </trkpt>
      <trkpt lat="44.5484" lon="3.72964">
        <ele>1265.388405</ele>
        <time>2021-04-30T12:42:38.015Z</time>
      </trkpt>
      <trkpt lat="44.54795" lon="3.73007">
        <ele>1266.390241</ele>
        <time>2021-04-30T12:43:04.720Z</time>
      </trkpt>
      <trkpt lat="44.54774" lon="3.73025">
        <ele>1266.865516</ele>
        <time>2021-04-30T12:43:17.043Z</time>
      </trkpt>
      <trkpt lat="44.5475" lon="3.72999">
        <ele>1267.464871</ele>
        <time>2021-04-30T12:43:27.911Z</time>
      </trkpt>
      <trkpt lat="44.54735" lon="3.72984">
        <ele>1267.811255</ele>
        <time>2021-04-30T12:43:33.793Z</time>
      </trkpt>
      <trkpt lat="44.54719" lon="3.72934">
        <ele>1268.568584</ele>
        <time>2021-04-30T12:43:46.413Z</time>
      </trkpt>
      <trkpt lat="44.5466" lon="3.72779">
        <ele>1268.847038</ele>
        <time>2021-04-30T12:44:15.430Z</time>
      </trkpt>
      <trkpt lat="44.54626" lon="3.72733">
        <ele>1268.355509</ele>
        <time>2021-04-30T12:44:24.215Z</time>
      </trkpt>
      <trkpt lat="44.54557" lon="3.72675">
        <ele>1267.55197</ele>
        <time>2021-04-30T12:44:39.264Z</time>
      </trkpt>
      <trkpt lat="44.54516" lon="3.72655">
        <ele>1267.166551</ele>
        <time>2021-04-30T12:44:47.547Z</time>
      </trkpt>
      <trkpt lat="44.54402" lon="3.72678">
        <ele>1266.14171</ele>
        <time>2021-04-30T12:45:11.787Z</time>
      </trkpt>
      <trkpt lat="44.54387" lon="3.72654">
        <ele>1266.389961</ele>
        <time>2021-04-30T12:45:17.265Z</time>
      </trkpt>
      <trkpt lat="44.54366" lon="3.72584">
        <ele>1267.040389</ele>
        <time>2021-04-30T12:45:31.265Z</time>
      </trkpt>
      <trkpt lat="44.54355" lon="3.72563">
        <ele>1267.270529</ele>
        <time>2021-04-30T12:45:36.558Z</time>
      </trkpt>
      <trkpt lat="44.54316" lon="3.72519">
        <ele>1267.872688</ele>
        <time>2021-04-30T12:45:51.142Z</time>
      </trkpt>
      <trkpt lat="44.54204" lon="3.72457">
        <ele>1270.891976</ele>
        <time>2021-04-30T12:46:31.371Z</time>
      </trkpt>
      <trkpt lat="44.5416" lon="3.72449">
        <ele>1272.271825</ele>
        <time>2021-04-30T12:46:47.885Z</time>
      </trkpt>
      <trkpt lat="44.54145" lon="3.7244">
        <ele>1272.774142</ele>
        <time>2021-04-30T12:46:54.076Z</time>
      </trkpt>
      <trkpt lat="44.54128" lon="3.7241">
        <ele>1273.619131</ele>
        <time>2021-04-30T12:47:04.519Z</time>
      </trkpt>
      <trkpt lat="44.54024" lon="3.72348">
        <ele>1278.006235</ele>
        <time>2021-04-30T12:47:47.931Z</time>
      </trkpt>
      <trkpt lat="44.53975" lon="3.72278">
        <ele>1280.773508</ele>
        <time>2021-04-30T12:48:15.710Z</time>
      </trkpt>
      <trkpt lat="44.53949" lon="3.72213">
        <ele>1282.788864</ele>
        <time>2021-04-30T12:48:36.848Z</time>
      </trkpt>
      <trkpt lat="44.53915" lon="3.7216">
        <ele>1284.751242</ele>
        <time>2021-04-30T12:48:56.964Z</time>
      </trkpt>
      <trkpt lat="44.53903" lon="3.72144">
        <ele>1285.379813</ele>
        <time>2021-04-30T12:49:03.251Z</time>
      </trkpt>
      <trkpt lat="44.53878" lon="3.7214">
        <ele>1286.326757</ele>
        <time>2021-04-30T12:49:12.807Z</time>
      </trkpt>
      <trkpt lat="44.53811" lon="3.72107">
        <ele>1288.649757</ele>
        <time>2021-04-30T12:49:39.488Z</time>
      </trkpt>
      <trkpt lat="44.53627" lon="3.71959">
        <ele>1293.374954</ele>
        <time>2021-04-30T12:50:47.827Z</time>
      </trkpt>
      <trkpt lat="44.53523" lon="3.71867">
        <ele>1295.166103</ele>
        <time>2021-04-30T12:51:21.377Z</time>
      </trkpt>
      <trkpt lat="44.53408" lon="3.71748">
        <ele>1296.580976</ele>
        <time>2021-04-30T12:51:59.849Z</time>
      </trkpt>
      <trkpt lat="44.53219" lon="3.71674">
        <ele>1298.490897</ele>
        <time>2021-04-30T12:52:54.248Z</time>
      </trkpt>
      <trkpt lat="44.53167" lon="3.71626">
        <ele>1298.220079</ele>
        <time>2021-04-30T12:53:09.306Z</time>
      </trkpt>
      <trkpt lat="44.53101" lon="3.71552">
        <ele>1297.553677</ele>
        <time>2021-04-30T12:53:26.965Z</time>
      </trkpt>
      <trkpt lat="44.53052" lon="3.71483">
        <ele>1296.206105</ele>
        <time>2021-04-30T12:53:39.840Z</time>
      </trkpt>
      <trkpt lat="44.52988" lon="3.71411">
        <ele>1292.810125</ele>
        <time>2021-04-30T12:53:53.689Z</time>
      </trkpt>
      <trkpt lat="44.52937" lon="3.71371">
        <ele>1290.391822</ele>
        <time>2021-04-30T12:54:02.874Z</time>
      </trkpt>
      <trkpt lat="44.52859" lon="3.71344">
        <ele>1283.754829</ele>
        <time>2021-04-30T12:54:14.981Z</time>
      </trkpt>
      <trkpt lat="44.52627" lon="3.7128">
        <ele>1259.552557</ele>
        <time>2021-04-30T12:54:48.273Z</time>
      </trkpt>
      <trkpt lat="44.52604" lon="3.71264">
        <ele>1256.618308</ele>
        <time>2021-04-30T12:54:51.917Z</time>
      </trkpt>
      <trkpt lat="44.52567" lon="3.71247">
        <ele>1252.407266</ele>
        <time>2021-04-30T12:54:57.363Z</time>
      </trkpt>
      <trkpt lat="44.52537" lon="3.71232">
        <ele>1249.506224</ele>
        <time>2021-04-30T12:55:01.811Z</time>
      </trkpt>
      <trkpt lat="44.52504" lon="3.71234">
        <ele>1246.528523</ele>
        <time>2021-04-30T12:55:06.420Z</time>
      </trkpt>
      <trkpt lat="44.52431" lon="3.71207">
        <ele>1239.628266</ele>
        <time>2021-04-30T12:55:17.347Z</time>
      </trkpt>
      <trkpt lat="44.524" lon="3.71194">
        <ele>1236.597135</ele>
        <time>2021-04-30T12:55:22.325Z</time>
      </trkpt>
      <trkpt lat="44.52376" lon="3.71194">
        <ele>1235.24975</ele>
        <time>2021-04-30T12:55:25.951Z</time>
      </trkpt>
      <trkpt lat="44.52299" lon="3.71139">
        <ele>1230.431945</ele>
        <time>2021-04-30T12:55:39.367Z</time>
      </trkpt>
      <trkpt lat="44.52123" lon="3.7111">
        <ele>1222.226009</ele>
        <time>2021-04-30T12:56:07.672Z</time>
      </trkpt>
      <trkpt lat="44.52077" lon="3.71121">
        <ele>1220.362246</ele>
        <time>2021-04-30T12:56:15.420Z</time>
      </trkpt>
      <trkpt lat="44.51875" lon="3.71088">
        <ele>1214.90883</ele>
        <time>2021-04-30T12:56:51.755Z</time>
      </trkpt>
      <trkpt lat="44.51855" lon="3.71077">
        <ele>1214.333303</ele>
        <time>2021-04-30T12:56:55.762Z</time>
      </trkpt>
      <trkpt lat="44.51829" lon="3.71046">
        <ele>1213.434173</ele>
        <time>2021-04-30T12:57:01.932Z</time>
      </trkpt>
      <trkpt lat="44.51799" lon="3.71038">
        <ele>1212.601921</ele>
        <time>2021-04-30T12:57:07.611Z</time>
      </trkpt>
      <trkpt lat="44.51658" lon="3.71026">
        <ele>1207.271108</ele>
        <time>2021-04-30T12:57:32.165Z</time>
      </trkpt>
      <trkpt lat="44.51602" lon="3.71032">
        <ele>1203.76228</ele>
        <time>2021-04-30T12:57:40.647Z</time>
      </trkpt>
      <trkpt lat="44.51547" lon="3.71059">
        <ele>1200.175009</ele>
        <time>2021-04-30T12:57:49.345Z</time>
      </trkpt>
      <trkpt lat="44.51516" lon="3.71059">
        <ele>1197.733719</ele>
        <time>2021-04-30T12:57:53.957Z</time>
      </trkpt>
      <trkpt lat="44.51491" lon="3.71062">
        <ele>1195.057826</ele>
        <time>2021-04-30T12:57:57.514Z</time>
      </trkpt>
      <trkpt lat="44.51468" lon="3.71072">
        <ele>1192.491932</ele>
        <time>2021-04-30T12:58:00.885Z</time>
      </trkpt>
      <trkpt lat="44.51393" lon="3.71135">
        <ele>1182.945388</ele>
        <time>2021-04-30T12:58:13.265Z</time>
      </trkpt>
      <trkpt lat="44.51385" lon="3.71142">
        <ele>1181.974462</ele>
        <time>2021-04-30T12:58:14.487Z</time>
      </trkpt>
      <trkpt lat="44.51374" lon="3.71139">
        <ele>1180.742632</ele>
        <time>2021-04-30T12:58:16.053Z</time>
      </trkpt>
      <trkpt lat="44.51361" lon="3.71121">
        <ele>1178.713768</ele>
        <time>2021-04-30T12:58:18.562Z</time>
      </trkpt>
      <trkpt lat="44.51359" lon="3.71103">
        <ele>1177.066817</ele>
        <time>2021-04-30T12:58:20.407Z</time>
      </trkpt>
      <trkpt lat="44.51368" lon="3.71045">
        <ele>1171.819891</ele>
        <time>2021-04-30T12:58:26.370Z</time>
      </trkpt>
      <trkpt lat="44.51382" lon="3.71017">
        <ele>1168.857937</ele>
        <time>2021-04-30T12:58:29.697Z</time>
      </trkpt>
      <trkpt lat="44.51381" lon="3.71011">
        <ele>1168.279449</ele>
        <time>2021-04-30T12:58:30.357Z</time>
      </trkpt>
      <trkpt lat="44.51371" lon="3.71015">
        <ele>1166.969911</ele>
        <time>2021-04-30T12:58:31.832Z</time>
      </trkpt>
      <trkpt lat="44.51349" lon="3.71047">
        <ele>1163.094141</ele>
        <time>2021-04-30T12:58:36.152Z</time>
      </trkpt>
      <trkpt lat="44.51311" lon="3.71101">
        <ele>1156.474709</ele>
        <time>2021-04-30T12:58:43.718Z</time>
      </trkpt>
      <trkpt lat="44.51276" lon="3.7116">
        <ele>1150.667564</ele>
        <time>2021-04-30T12:58:51.251Z</time>
      </trkpt>
      <trkpt lat="44.51266" lon="3.71185">
        <ele>1148.549738</ele>
        <time>2021-04-30T12:58:54.032Z</time>
      </trkpt>
      <trkpt lat="44.51269" lon="3.712">
        <ele>1147.403853</ele>
        <time>2021-04-30T12:58:55.536Z</time>
      </trkpt>
      <trkpt lat="44.51288" lon="3.71239">
        <ele>1143.784389</ele>
        <time>2021-04-30T12:59:00.358Z</time>
      </trkpt>
      <trkpt lat="44.51306" lon="3.71259">
        <ele>1141.405222</ele>
        <time>2021-04-30T12:59:03.886Z</time>
      </trkpt>
      <trkpt lat="44.51306" lon="3.71265">
        <ele>1140.935141</ele>
        <time>2021-04-30T12:59:04.480Z</time>
      </trkpt>
      <trkpt lat="44.51303" lon="3.71267">
        <ele>1140.562813</ele>
        <time>2021-04-30T12:59:05.303Z</time>
      </trkpt>
      <trkpt lat="44.51246" lon="3.71233">
        <ele>1137.42222</ele>
        <time>2021-04-30T12:59:22.317Z</time>
      </trkpt>
      <trkpt lat="44.5121" lon="3.71201">
        <ele>1136.634606</ele>
        <time>2021-04-30T12:59:34.152Z</time>
      </trkpt>
      <trkpt lat="44.51209" lon="3.71192">
        <ele>1136.511826</ele>
        <time>2021-04-30T12:59:35.210Z</time>
      </trkpt>
      <trkpt lat="44.51216" lon="3.71155">
        <ele>1135.996385</ele>
        <time>2021-04-30T12:59:41.645Z</time>
      </trkpt>
      <trkpt lat="44.51243" lon="3.71003">
        <ele>1135.698052</ele>
        <time>2021-04-30T13:00:17.746Z</time>
      </trkpt>
      <trkpt lat="44.51243" lon="3.70974">
        <ele>1136.094028</ele>
        <time>2021-04-30T13:00:26.027Z</time>
      </trkpt>
      <trkpt lat="44.51239" lon="3.70966">
        <ele>1136.225808</ele>
        <time>2021-04-30T13:00:28.788Z</time>
      </trkpt>
      <trkpt lat="44.51229" lon="3.70961">
        <ele>1136.409022</ele>
        <time>2021-04-30T13:00:32.279Z</time>
      </trkpt>
      <trkpt lat="44.51192" lon="3.70963">
        <ele>1137.10949</ele>
        <time>2021-04-30T13:00:43.865Z</time>
      </trkpt>
      <trkpt lat="44.5112" lon="3.70986">
        <ele>1137.865594</ele>
        <time>2021-04-30T13:01:04.081Z</time>
      </trkpt>
      <trkpt lat="44.51046" lon="3.70999">
        <ele>1136.471629</ele>
        <time>2021-04-30T13:01:18.733Z</time>
      </trkpt>
      <trkpt lat="44.51021" lon="3.70999">
        <ele>1136.00865</ele>
        <time>2021-04-30T13:01:23.247Z</time>
      </trkpt>
      <trkpt lat="44.50996" lon="3.70983">
        <ele>1135.486971</ele>
        <time>2021-04-30T13:01:28.002Z</time>
      </trkpt>
      <trkpt lat="44.50977" lon="3.70962">
        <ele>1135.026075</ele>
        <time>2021-04-30T13:01:32.103Z</time>
      </trkpt>
      <trkpt lat="44.50962" lon="3.70935">
        <ele>1134.099447</ele>
        <time>2021-04-30T13:01:36.143Z</time>
      </trkpt>
      <trkpt lat="44.50957" lon="3.70931">
        <ele>1133.767471</ele>
        <time>2021-04-30T13:01:37.670Z</time>
      </trkpt>
      <trkpt lat="44.50929" lon="3.70887">
        <ele>1131.337528</ele>
        <time>2021-04-30T13:01:49.453Z</time>
      </trkpt>
      <trkpt lat="44.50912" lon="3.70849">
        <ele>1129.523146</ele>
        <time>2021-04-30T13:01:58.007Z</time>
      </trkpt>
      <trkpt lat="44.50897" lon="3.70832">
        <ele>1128.408806</ele>
        <time>2021-04-30T13:02:03.247Z</time>
      </trkpt>
      <trkpt lat="44.50882" lon="3.7082">
        <ele>1127.463782</ele>
        <time>2021-04-30T13:02:07.546Z</time>
      </trkpt>
      <trkpt lat="44.50806" lon="3.7079">
        <ele>1122.40327</ele>
        <time>2021-04-30T13:02:28.015Z</time>
      </trkpt>
      <trkpt lat="44.50716" lon="3.70745">
        <ele>1114.924199</ele>
        <time>2021-04-30T13:02:52.697Z</time>
      </trkpt>
      <trkpt lat="44.50656" lon="3.70694">
        <ele>1109.08377</ele>
        <time>2021-04-30T13:03:10.348Z</time>
      </trkpt>
      <trkpt lat="44.50617" lon="3.70635">
        <ele>1102.886043</ele>
        <time>2021-04-30T13:03:24.464Z</time>
      </trkpt>
      <trkpt lat="44.50561" lon="3.70611">
        <ele>1096.467683</ele>
        <time>2021-04-30T13:03:38.764Z</time>
      </trkpt>
      <trkpt lat="44.50537" lon="3.70594">
        <ele>1093.658265</ele>
        <time>2021-04-30T13:03:44.964Z</time>
      </trkpt>
      <trkpt lat="44.50439" lon="3.70486">
        <ele>1078.504711</ele>
        <time>2021-04-30T13:04:14.471Z</time>
      </trkpt>
      <trkpt lat="44.50361" lon="3.70432">
        <ele>1067.959169</ele>
        <time>2021-04-30T13:04:35.011Z</time>
      </trkpt>
      <trkpt lat="44.50316" lon="3.70382">
        <ele>1062.43415</ele>
        <time>2021-04-30T13:04:49.304Z</time>
      </trkpt>
      <trkpt lat="44.50298" lon="3.7037">
        <ele>1060.571044</ele>
        <time>2021-04-30T13:04:53.998Z</time>
      </trkpt>
      <trkpt lat="44.50278" lon="3.70359">
        <ele>1058.49544</ele>
        <time>2021-04-30T13:04:59.367Z</time>
      </trkpt>
      <trkpt lat="44.50269" lon="3.70357">
        <ele>1057.686242</ele>
        <time>2021-04-30T13:05:01.418Z</time>
      </trkpt>
      <trkpt lat="44.50238" lon="3.70353">
        <ele>1054.689146</ele>
        <time>2021-04-30T13:05:09.324Z</time>
      </trkpt>
      <trkpt lat="44.50198" lon="3.70361">
        <ele>1050.992615</ele>
        <time>2021-04-30T13:05:19.742Z</time>
      </trkpt>
      <trkpt lat="44.50178" lon="3.7037">
        <ele>1049.487271</ele>
        <time>2021-04-30T13:05:25.544Z</time>
      </trkpt>
      <trkpt lat="44.50174" lon="3.7037">
        <ele>1049.202025</ele>
        <time>2021-04-30T13:05:26.553Z</time>
      </trkpt>
      <trkpt lat="44.50172" lon="3.70367">
        <ele>1048.986626</ele>
        <time>2021-04-30T13:05:27.247Z</time>
      </trkpt>
      <trkpt lat="44.50207" lon="3.70213">
        <ele>1040.785651</ele>
        <time>2021-04-30T13:05:57.367Z</time>
      </trkpt>
      <trkpt lat="44.502" lon="3.70211">
        <ele>1040.302501</ele>
        <time>2021-04-30T13:05:59.244Z</time>
      </trkpt>
      <trkpt lat="44.50142" lon="3.70303">
        <ele>1034.568854</ele>
        <time>2021-04-30T13:06:21.945Z</time>
      </trkpt>
      <trkpt lat="44.50127" lon="3.70315">
        <ele>1033.47392</ele>
        <time>2021-04-30T13:06:26.143Z</time>
      </trkpt>
      <trkpt lat="44.50113" lon="3.70325">
        <ele>1032.491822</ele>
        <time>2021-04-30T13:06:30.314Z</time>
      </trkpt>
      <trkpt lat="44.50109" lon="3.70332">
        <ele>1032.091889</ele>
        <time>2021-04-30T13:06:32.787Z</time>
      </trkpt>
      <trkpt lat="44.50106" lon="3.70333">
        <ele>1031.910737</ele>
        <time>2021-04-30T13:06:34.018Z</time>
      </trkpt>
      <trkpt lat="44.50107" lon="3.70329">
        <ele>1031.721493</ele>
        <time>2021-04-30T13:06:34.692Z</time>
      </trkpt>
      <trkpt lat="44.50125" lon="3.70295">
        <ele>1029.840216</ele>
        <time>2021-04-30T13:06:43.257Z</time>
      </trkpt>
      <trkpt lat="44.50135" lon="3.70228">
        <ele>1026.953115</ele>
        <time>2021-04-30T13:06:56.371Z</time>
      </trkpt>
      <trkpt lat="44.50135" lon="3.70221">
        <ele>1026.731592</ele>
        <time>2021-04-30T13:06:57.953Z</time>
      </trkpt>
      <trkpt lat="44.50131" lon="3.70225">
        <ele>1026.500129</ele>
        <time>2021-04-30T13:06:59.521Z</time>
      </trkpt>
      <trkpt lat="44.50116" lon="3.70267">
        <ele>1025.144948</ele>
        <time>2021-04-30T13:07:08.888Z</time>
      </trkpt>
      <trkpt lat="44.5011" lon="3.70269">
        <ele>1024.863115</ele>
        <time>2021-04-30T13:07:10.673Z</time>
      </trkpt>
      <trkpt lat="44.50115" lon="3.7029">
        <ele>1024.213765</ele>
        <time>2021-04-30T13:07:13.208Z</time>
      </trkpt>
      <trkpt lat="44.50152" lon="3.70381">
        <ele>1021.15593</ele>
        <time>2021-04-30T13:07:25.795Z</time>
      </trkpt>
      <trkpt lat="44.50197" lon="3.70451">
        <ele>1019.591954</ele>
        <time>2021-04-30T13:07:37.129Z</time>
      </trkpt>
      <trkpt lat="44.5021" lon="3.70467">
        <ele>1019.413168</ele>
        <time>2021-04-30T13:07:39.788Z</time>
      </trkpt>
      <trkpt lat="44.50256" lon="3.70505">
        <ele>1018.881456</ele>
        <time>2021-04-30T13:07:48.813Z</time>
      </trkpt>
      <trkpt lat="44.50271" lon="3.70532">
        <ele>1018.633917</ele>
        <time>2021-04-30T13:07:52.776Z</time>
      </trkpt>
      <trkpt lat="44.50266" lon="3.70536">
        <ele>1018.576094</ele>
        <time>2021-04-30T13:07:54.235Z</time>
      </trkpt>
      <trkpt lat="44.50236" lon="3.70565">
        <ele>1018.20717</ele>
        <time>2021-04-30T13:08:08.042Z</time>
      </trkpt>
      <trkpt lat="44.50229" lon="3.70567">
        <ele>1018.493865</ele>
        <time>2021-04-30T13:08:11.047Z</time>
      </trkpt>
      <trkpt lat="44.50208" lon="3.70564">
        <ele>1020.548958</ele>
        <time>2021-04-30T13:08:20.693Z</time>
      </trkpt>
      <trkpt lat="44.50197" lon="3.70573">
        <ele>1021.75141</ele>
        <time>2021-04-30T13:08:25.903Z</time>
      </trkpt>
      <trkpt lat="44.50178" lon="3.70642">
        <ele>1026.878389</ele>
        <time>2021-04-30T13:08:57.208Z</time>
      </trkpt>
      <trkpt lat="44.50164" lon="3.70675">
        <ele>1029.560703</ele>
        <time>2021-04-30T13:09:14.269Z</time>
      </trkpt>
      <trkpt lat="44.50157" lon="3.70689">
        <ele>1030.754106</ele>
        <time>2021-04-30T13:09:26.915Z</time>
      </trkpt>
      <trkpt lat="44.50122" lon="3.70735">
        <ele>1035.366798</ele>
        <time>2021-04-30T13:10:03.263Z</time>
      </trkpt>
      <trkpt lat="44.50085" lon="3.70737">
        <ele>1038.9155</ele>
        <time>2021-04-30T13:10:32.829Z</time>
      </trkpt>
      <trkpt lat="44.50051" lon="3.70726">
        <ele>1042.258913</ele>
        <time>2021-04-30T13:11:00.546Z</time>
      </trkpt>
      <trkpt lat="44.50024" lon="3.70694">
        <ele>1045.610855</ele>
        <time>2021-04-30T13:11:25.959Z</time>
      </trkpt>
      <trkpt lat="44.49983" lon="3.70661">
        <ele>1050.134313</ele>
        <time>2021-04-30T13:11:48.021Z</time>
      </trkpt>
      <trkpt lat="44.49929" lon="3.70653">
        <ele>1052.848372</ele>
        <time>2021-04-30T13:12:08.449Z</time>
      </trkpt>
      <trkpt lat="44.49907" lon="3.7063">
        <ele>1052.915318</ele>
        <time>2021-04-30T13:12:16.463Z</time>
      </trkpt>
      <trkpt lat="44.49857" lon="3.706">
        <ele>1053.048608</ele>
        <time>2021-04-30T13:12:28.581Z</time>
      </trkpt>
      <trkpt lat="44.49827" lon="3.70548">
        <ele>1053.163467</ele>
        <time>2021-04-30T13:12:37.327Z</time>
      </trkpt>
      <trkpt lat="44.4981" lon="3.7049">
        <ele>1053.432399</ele>
        <time>2021-04-30T13:12:45.464Z</time>
      </trkpt>
      <trkpt lat="44.49783" lon="3.70465">
        <ele>1053.746951</ele>
        <time>2021-04-30T13:12:51.712Z</time>
      </trkpt>
      <trkpt lat="44.49764" lon="3.70473">
        <ele>1053.944296</ele>
        <time>2021-04-30T13:12:55.994Z</time>
      </trkpt>
      <trkpt lat="44.4969" lon="3.70583">
        <ele>1055.051326</ele>
        <time>2021-04-30T13:13:30.205Z</time>
      </trkpt>
      <trkpt lat="44.49649" lon="3.70622">
        <ele>1057.811789</ele>
        <time>2021-04-30T13:13:51.312Z</time>
      </trkpt>
      <trkpt lat="44.4963" lon="3.70634">
        <ele>1058.938667</ele>
        <time>2021-04-30T13:14:00.645Z</time>
      </trkpt>
      <trkpt lat="44.49569" lon="3.70647">
        <ele>1062.329603</ele>
        <time>2021-04-30T13:14:30.864Z</time>
      </trkpt>
      <trkpt lat="44.49484" lon="3.70706">
        <ele>1067.05381</ele>
        <time>2021-04-30T13:15:17.834Z</time>
      </trkpt>
      <trkpt lat="44.49437" lon="3.70698">
        <ele>1069.215267</ele>
        <time>2021-04-30T13:15:38.219Z</time>
      </trkpt>
      <trkpt lat="44.4939" lon="3.70714">
        <ele>1071.403562</ele>
        <time>2021-04-30T13:15:56.873Z</time>
      </trkpt>
      <trkpt lat="44.49343" lon="3.70709">
        <ele>1073.117265</ele>
        <time>2021-04-30T13:16:13.253Z</time>
      </trkpt>
      <trkpt lat="44.49291" lon="3.70679">
        <ele>1073.496039</ele>
        <time>2021-04-30T13:16:29.439Z</time>
      </trkpt>
      <trkpt lat="44.49249" lon="3.70631">
        <ele>1073.86069</ele>
        <time>2021-04-30T13:16:41.604Z</time>
      </trkpt>
      <trkpt lat="44.49222" lon="3.70614">
        <ele>1074.06215</ele>
        <time>2021-04-30T13:16:48.033Z</time>
      </trkpt>
      <trkpt lat="44.49204" lon="3.7062">
        <ele>1074.184279</ele>
        <time>2021-04-30T13:16:52.137Z</time>
      </trkpt>
      <trkpt lat="44.49137" lon="3.70674">
        <ele>1073.917879</ele>
        <time>2021-04-30T13:17:09.997Z</time>
      </trkpt>
      <trkpt lat="44.49093" lon="3.70695">
        <ele>1073.684998</ele>
        <time>2021-04-30T13:17:20.144Z</time>
      </trkpt>
      <trkpt lat="44.49071" lon="3.7069">
        <ele>1073.573553</ele>
        <time>2021-04-30T13:17:24.774Z</time>
      </trkpt>
      <trkpt lat="44.49026" lon="3.70651">
        <ele>1073.336885</ele>
        <time>2021-04-30T13:17:35.123Z</time>
      </trkpt>
      <trkpt lat="44.49007" lon="3.70642">
        <ele>1073.283371</ele>
        <time>2021-04-30T13:17:39.258Z</time>
      </trkpt>
      <trkpt lat="44.4895" lon="3.70663">
        <ele>1073.133139</ele>
        <time>2021-04-30T13:17:51.968Z</time>
      </trkpt>
      <trkpt lat="44.48865" lon="3.70655">
        <ele>1072.914688</ele>
        <time>2021-04-30T13:18:11.336Z</time>
      </trkpt>
      <trkpt lat="44.48836" lon="3.70666">
        <ele>1073.192749</ele>
        <time>2021-04-30T13:18:19.120Z</time>
      </trkpt>
      <trkpt lat="44.48805" lon="3.707">
        <ele>1073.686827</ele>
        <time>2021-04-30T13:18:30.387Z</time>
      </trkpt>
      <trkpt lat="44.48748" lon="3.70732">
        <ele>1074.44952</ele>
        <time>2021-04-30T13:18:48.405Z</time>
      </trkpt>
      <trkpt lat="44.48744" lon="3.70753">
        <ele>1074.640449</ele>
        <time>2021-04-30T13:18:52.668Z</time>
      </trkpt>
      <trkpt lat="44.48748" lon="3.70805">
        <ele>1075.107576</ele>
        <time>2021-04-30T13:19:03.970Z</time>
      </trkpt>
      <trkpt lat="44.48739" lon="3.70811">
        <ele>1075.1959</ele>
        <time>2021-04-30T13:19:06.800Z</time>
      </trkpt>
      <trkpt lat="44.48735" lon="3.7081">
        <ele>1075.232549</ele>
        <time>2021-04-30T13:19:11.003Z</time>
      </trkpt>
      <trkpt lat="44.48731" lon="3.70806">
        <ele>1075.269645</ele>
        <time>2021-04-30T13:19:11.654Z</time>
      </trkpt>
      <trkpt lat="44.4872" lon="3.70781">
        <ele>1075.43448</ele>
        <time>2021-04-30T13:19:17.352Z</time>
      </trkpt>
      <trkpt lat="44.48693" lon="3.7074">
        <ele>1075.748036</ele>
        <time>2021-04-30T13:19:28.331Z</time>
      </trkpt>
      <trkpt lat="44.48681" lon="3.70733">
        <ele>1075.845955</ele>
        <time>2021-04-30T13:19:31.862Z</time>
      </trkpt>
      <trkpt lat="44.48631" lon="3.70731">
        <ele>1076.239729</ele>
        <time>2021-04-30T13:19:44.166Z</time>
      </trkpt>
      <trkpt lat="44.48512" lon="3.70775">
        <ele>1077.005146</ele>
        <time>2021-04-30T13:20:13.491Z</time>
      </trkpt>
      <trkpt lat="44.48364" lon="3.70799">
        <ele>1077.784015</ele>
        <time>2021-04-30T13:20:53.113Z</time>
      </trkpt>
      <trkpt lat="44.48305" lon="3.70822">
        <ele>1078.078414</ele>
        <time>2021-04-30T13:21:09.264Z</time>
      </trkpt>
      <trkpt lat="44.48204" lon="3.70832">
        <ele>1078.385404</ele>
        <time>2021-04-30T13:21:32.974Z</time>
      </trkpt>
      <trkpt lat="44.48131" lon="3.70858">
        <ele>1078.370134</ele>
        <time>2021-04-30T13:21:48.782Z</time>
      </trkpt>
      <trkpt lat="44.48041" lon="3.70846">
        <ele>1079.008792</ele>
        <time>2021-04-30T13:22:10.249Z</time>
      </trkpt>
      <trkpt lat="44.47997" lon="3.70842">
        <ele>1080.425447</ele>
        <time>2021-04-30T13:22:22.526Z</time>
      </trkpt>
      <trkpt lat="44.47986" lon="3.70841">
        <ele>1080.775544</ele>
        <time>2021-04-30T13:22:28.046Z</time>
      </trkpt>
      <trkpt lat="44.47972" lon="3.7084">
        <ele>1081.220573</ele>
        <time>2021-04-30T13:22:33.014Z</time>
      </trkpt>
      <trkpt lat="44.47963" lon="3.70835">
        <ele>1081.522276</ele>
        <time>2021-04-30T13:22:35.530Z</time>
      </trkpt>
      <trkpt lat="44.47961" lon="3.70832">
        <ele>1081.622519</ele>
        <time>2021-04-30T13:22:36.747Z</time>
      </trkpt>
      <trkpt lat="44.47953" lon="3.70884">
        <ele>1082.828283</ele>
        <time>2021-04-30T13:22:52.222Z</time>
      </trkpt>
      <trkpt lat="44.47949" lon="3.70905">
        <ele>1083.31064</ele>
        <time>2021-04-30T13:22:59.979Z</time>
      </trkpt>
      <trkpt lat="44.4794" lon="3.70934">
        <ele>1084.035502</ele>
        <time>2021-04-30T13:23:08.982Z</time>
      </trkpt>
      <trkpt lat="44.47917" lon="3.7096">
        <ele>1085.842778</ele>
        <time>2021-04-30T13:23:21.797Z</time>
      </trkpt>
      <trkpt lat="44.47912" lon="3.70964">
        <ele>1086.176683</ele>
        <time>2021-04-30T13:23:25.212Z</time>
      </trkpt>
      <trkpt lat="44.47905" lon="3.70973">
        <ele>1086.74784</ele>
        <time>2021-04-30T13:23:30.836Z</time>
      </trkpt>
      <trkpt lat="44.47865" lon="3.71011">
        <ele>1089.71401</ele>
        <time>2021-04-30T13:23:54.335Z</time>
      </trkpt>
      <trkpt lat="44.47811" lon="3.71086">
        <ele>1094.415356</ele>
        <time>2021-04-30T13:24:31.855Z</time>
      </trkpt>
      <trkpt lat="44.47668" lon="3.71415">
        <ele>1111.281049</ele>
        <time>2021-04-30T13:26:39.004Z</time>
      </trkpt>
      <trkpt lat="44.47663" lon="3.71423">
        <ele>1111.770597</ele>
        <time>2021-04-30T13:26:42.855Z</time>
      </trkpt>
      <trkpt lat="44.47637" lon="3.71474">
        <ele>1114.794646</ele>
        <time>2021-04-30T13:27:04.482Z</time>
      </trkpt>
      <trkpt lat="44.4762" lon="3.71511">
        <ele>1116.913967</ele>
        <time>2021-04-30T13:27:22.400Z</time>
      </trkpt>
      <trkpt lat="44.47575" lon="3.71581">
        <ele>1122.925732</ele>
        <time>2021-04-30T13:28:02.575Z</time>
      </trkpt>
      <trkpt lat="44.47557" lon="3.71629">
        <ele>1126.6163</ele>
        <time>2021-04-30T13:28:25.701Z</time>
      </trkpt>
      <trkpt lat="44.47551" lon="3.71644">
        <ele>1127.702734</ele>
        <time>2021-04-30T13:28:33.131Z</time>
      </trkpt>
      <trkpt lat="44.47547" lon="3.71649">
        <ele>1128.198553</ele>
        <time>2021-04-30T13:28:37.985Z</time>
      </trkpt>
      <trkpt lat="44.47534" lon="3.71644">
        <ele>1129.512369</ele>
        <time>2021-04-30T13:28:44.784Z</time>
      </trkpt>
      <trkpt lat="44.47511" lon="3.71603">
        <ele>1133.051079</ele>
        <time>2021-04-30T13:29:07.934Z</time>
      </trkpt>
      <trkpt lat="44.47495" lon="3.71599">
        <ele>1134.549181</ele>
        <time>2021-04-30T13:29:18.382Z</time>
      </trkpt>
      <trkpt lat="44.47465" lon="3.7165">
        <ele>1138.833341</ele>
        <time>2021-04-30T13:29:49.425Z</time>
      </trkpt>
      <trkpt lat="44.47459" lon="3.71708">
        <ele>1142.715523</ele>
        <time>2021-04-30T13:30:16.789Z</time>
      </trkpt>
      <trkpt lat="44.47429" lon="3.71793">
        <ele>1148.943707</ele>
        <time>2021-04-30T13:30:54.971Z</time>
      </trkpt>
      <trkpt lat="44.47383" lon="3.7188">
        <ele>1153.667267</ele>
        <time>2021-04-30T13:31:37.467Z</time>
      </trkpt>
      <trkpt lat="44.47378" lon="3.71899">
        <ele>1154.301094</ele>
        <time>2021-04-30T13:31:45.196Z</time>
      </trkpt>
      <trkpt lat="44.47379" lon="3.71911">
        <ele>1154.67636</ele>
        <time>2021-04-30T13:31:49.209Z</time>
      </trkpt>
      <trkpt lat="44.47443" lon="3.71978">
        <ele>1158.258568</ele>
        <time>2021-04-30T13:32:20.011Z</time>
      </trkpt>
      <trkpt lat="44.4745" lon="3.71997">
        <ele>1158.937874</ele>
        <time>2021-04-30T13:32:23.324Z</time>
      </trkpt>
      <trkpt lat="44.4745" lon="3.72002">
        <ele>1159.085156</ele>
        <time>2021-04-30T13:32:25.052Z</time>
      </trkpt>
      <trkpt lat="44.4745" lon="3.72007">
        <ele>1159.238817</ele>
        <time>2021-04-30T13:32:26.272Z</time>
      </trkpt>
      <trkpt lat="44.47423" lon="3.72069">
        <ele>1157.24823</ele>
        <time>2021-04-30T13:32:36.529Z</time>
      </trkpt>
      <trkpt lat="44.47422" lon="3.72073">
        <ele>1157.117999</ele>
        <time>2021-04-30T13:32:37.153Z</time>
      </trkpt>
      <trkpt lat="44.47419" lon="3.72086">
        <ele>1156.684855</ele>
        <time>2021-04-30T13:32:38.685Z</time>
      </trkpt>
      <trkpt lat="44.47409" lon="3.72167">
        <ele>1154.024164</ele>
        <time>2021-04-30T13:32:48.073Z</time>
      </trkpt>
      <trkpt lat="44.47406" lon="3.7219">
        <ele>1153.283437</ele>
        <time>2021-04-30T13:32:50.545Z</time>
      </trkpt>
      <trkpt lat="44.4739" lon="3.72232">
        <ele>1151.753253</ele>
        <time>2021-04-30T13:32:55.648Z</time>
      </trkpt>
      <trkpt lat="44.47388" lon="3.72234">
        <ele>1151.663167</ele>
        <time>2021-04-30T13:32:55.917Z</time>
      </trkpt>
      <trkpt lat="44.47378" lon="3.72248">
        <ele>1150.70649</ele>
        <time>2021-04-30T13:32:58.061Z</time>
      </trkpt>
      <trkpt lat="44.4733" lon="3.72303">
        <ele>1145.30697</ele>
        <time>2021-04-30T13:33:07.015Z</time>
      </trkpt>
      <trkpt lat="44.47292" lon="3.7233">
        <ele>1141.591945</ele>
        <time>2021-04-30T13:33:13.140Z</time>
      </trkpt>
      <trkpt lat="44.47275" lon="3.72333">
        <ele>1140.171132</ele>
        <time>2021-04-30T13:33:15.579Z</time>
      </trkpt>
      <trkpt lat="44.47237" lon="3.72322">
        <ele>1136.750977</ele>
        <time>2021-04-30T13:33:21.227Z</time>
      </trkpt>
      <trkpt lat="44.47196" lon="3.72327">
        <ele>1133.407004</ele>
        <time>2021-04-30T13:33:27.388Z</time>
      </trkpt>
      <trkpt lat="44.47102" lon="3.7245">
        <ele>1123.201151</ele>
        <time>2021-04-30T13:33:46.220Z</time>
      </trkpt>
      <trkpt lat="44.47072" lon="3.72458">
        <ele>1121.022879</ele>
        <time>2021-04-30T13:33:50.866Z</time>
      </trkpt>
      <trkpt lat="44.47066" lon="3.7246">
        <ele>1120.751654</ele>
        <time>2021-04-30T13:33:51.673Z</time>
      </trkpt>
      <trkpt lat="44.47063" lon="3.72467">
        <ele>1120.466984</ele>
        <time>2021-04-30T13:33:52.503Z</time>
      </trkpt>
      <trkpt lat="44.47066" lon="3.72483">
        <ele>1119.894232</ele>
        <time>2021-04-30T13:33:54.438Z</time>
      </trkpt>
      <trkpt lat="44.47071" lon="3.72487">
        <ele>1119.624042</ele>
        <time>2021-04-30T13:33:55.357Z</time>
      </trkpt>
      <trkpt lat="44.471" lon="3.72495">
        <ele>1118.213686</ele>
        <time>2021-04-30T13:33:59.785Z</time>
      </trkpt>
      <trkpt lat="44.47126" lon="3.72516">
        <ele>1116.78755</ele>
        <time>2021-04-30T13:34:04.318Z</time>
      </trkpt>
      <trkpt lat="44.4716" lon="3.72528">
        <ele>1115.095437</ele>
        <time>2021-04-30T13:34:09.886Z</time>
      </trkpt>
      <trkpt lat="44.47172" lon="3.72538">
        <ele>1114.478364</ele>
        <time>2021-04-30T13:34:12.404Z</time>
      </trkpt>
      <trkpt lat="44.4723" lon="3.72648">
        <ele>1115.117821</ele>
        <time>2021-04-30T13:34:34.576Z</time>
      </trkpt>
      <trkpt lat="44.4724" lon="3.72671">
        <ele>1115.806859</ele>
        <time>2021-04-30T13:34:41.576Z</time>
      </trkpt>
      <trkpt lat="44.47231" lon="3.72678">
        <ele>1116.166869</ele>
        <time>2021-04-30T13:34:45.670Z</time>
      </trkpt>
      <trkpt lat="44.47224" lon="3.72686">
        <ele>1116.509643</ele>
        <time>2021-04-30T13:34:49.458Z</time>
      </trkpt>
      <trkpt lat="44.47203" lon="3.7271">
        <ele>1117.454579</ele>
        <time>2021-04-30T13:35:01.580Z</time>
      </trkpt>
      <trkpt lat="44.47168" lon="3.72732">
        <ele>1118.847801</ele>
        <time>2021-04-30T13:35:20.403Z</time>
      </trkpt>
      <trkpt lat="44.47133" lon="3.72736">
        <ele>1121.318385</ele>
        <time>2021-04-30T13:35:38.950Z</time>
      </trkpt>
      <trkpt lat="44.47098" lon="3.72738">
        <ele>1124.397469</ele>
        <time>2021-04-30T13:35:58.820Z</time>
      </trkpt>
      <trkpt lat="44.47071" lon="3.72738">
        <ele>1126.845051</ele>
        <time>2021-04-30T13:36:15.776Z</time>
      </trkpt>
      <trkpt lat="44.46955" lon="3.72705">
        <ele>1137.430135</ele>
        <time>2021-04-30T13:37:26.096Z</time>
      </trkpt>
      <trkpt lat="44.46776" lon="3.72708">
        <ele>1154.157593</ele>
        <time>2021-04-30T13:39:13.822Z</time>
      </trkpt>
      <trkpt lat="44.46727" lon="3.72703">
        <ele>1158.466696</ele>
        <time>2021-04-30T13:39:43.374Z</time>
      </trkpt>
      <trkpt lat="44.46686" lon="3.72716">
        <ele>1162.078306</ele>
        <time>2021-04-30T13:40:07.483Z</time>
      </trkpt>
      <trkpt lat="44.46584" lon="3.72649">
        <ele>1170.583399</ele>
        <time>2021-04-30T13:41:08.542Z</time>
      </trkpt>
      <trkpt lat="44.46574" lon="3.72646">
        <ele>1171.196175</ele>
        <time>2021-04-30T13:41:13.559Z</time>
      </trkpt>
      <trkpt lat="44.46549" lon="3.72654">
        <ele>1172.694795</ele>
        <time>2021-04-30T13:41:25.939Z</time>
      </trkpt>
      <trkpt lat="44.46535" lon="3.72648">
        <ele>1173.534512</ele>
        <time>2021-04-30T13:41:32.241Z</time>
      </trkpt>
      <trkpt lat="44.4652" lon="3.72621">
        <ele>1174.956778</ele>
        <time>2021-04-30T13:41:43.086Z</time>
      </trkpt>
      <trkpt lat="44.46505" lon="3.72575">
        <ele>1177.053833</ele>
        <time>2021-04-30T13:41:57.736Z</time>
      </trkpt>
      <trkpt lat="44.46499" lon="3.72569">
        <ele>1177.506234</ele>
        <time>2021-04-30T13:42:00.261Z</time>
      </trkpt>
      <trkpt lat="44.4648" lon="3.72566">
        <ele>1178.543163</ele>
        <time>2021-04-30T13:42:06.959Z</time>
      </trkpt>
      <trkpt lat="44.46398" lon="3.7259">
        <ele>1182.289215</ele>
        <time>2021-04-30T13:42:37.764Z</time>
      </trkpt>
      <trkpt lat="44.46367" lon="3.72575">
        <ele>1183.737784</ele>
        <time>2021-04-30T13:42:50.620Z</time>
      </trkpt>
      <trkpt lat="44.46349" lon="3.72556">
        <ele>1184.738332</ele>
        <time>2021-04-30T13:42:59.590Z</time>
      </trkpt>
      <trkpt lat="44.46338" lon="3.72546">
        <ele>1185.331763</ele>
        <time>2021-04-30T13:43:05.442Z</time>
      </trkpt>
      <trkpt lat="44.46322" lon="3.72538">
        <ele>1186.056816</ele>
        <time>2021-04-30T13:43:12.376Z</time>
      </trkpt>
      <trkpt lat="44.46303" lon="3.72549">
        <ele>1187.386472</ele>
        <time>2021-04-30T13:43:21.855Z</time>
      </trkpt>
      <trkpt lat="44.46253" lon="3.72662">
        <ele>1194.340163</ele>
        <time>2021-04-30T13:44:10.596Z</time>
      </trkpt>
      <trkpt lat="44.46207" lon="3.72706">
        <ele>1198.404289</ele>
        <time>2021-04-30T13:44:42.957Z</time>
      </trkpt>
      <trkpt lat="44.46145" lon="3.72732">
        <ele>1202.31037</ele>
        <time>2021-04-30T13:45:17.070Z</time>
      </trkpt>
      <trkpt lat="44.46129" lon="3.72729">
        <ele>1203.245296</ele>
        <time>2021-04-30T13:45:24.958Z</time>
      </trkpt>
      <trkpt lat="44.46092" lon="3.72704">
        <ele>1205.553627</ele>
        <time>2021-04-30T13:45:42.812Z</time>
      </trkpt>
      <trkpt lat="44.46069" lon="3.72702">
        <ele>1206.876639</ele>
        <time>2021-04-30T13:45:52.370Z</time>
      </trkpt>
      <trkpt lat="44.46018" lon="3.72737">
        <ele>1209.908498</ele>
        <time>2021-04-30T13:46:14.460Z</time>
      </trkpt>
      <trkpt lat="44.45976" lon="3.72774">
        <ele>1211.439945</ele>
        <time>2021-04-30T13:46:31.127Z</time>
      </trkpt>
      <trkpt lat="44.45918" lon="3.72794">
        <ele>1213.298704</ele>
        <time>2021-04-30T13:46:50.035Z</time>
      </trkpt>
      <trkpt lat="44.45907" lon="3.72814">
        <ele>1213.872853</ele>
        <time>2021-04-30T13:46:56.209Z</time>
      </trkpt>
      <trkpt lat="44.45898" lon="3.72867">
        <ele>1215.077498</ele>
        <time>2021-04-30T13:47:09.661Z</time>
      </trkpt>
      <trkpt lat="44.4587" lon="3.72924">
        <ele>1217.418753</ele>
        <time>2021-04-30T13:47:28.295Z</time>
      </trkpt>
      <trkpt lat="44.45837" lon="3.72978">
        <ele>1219.942564</ele>
        <time>2021-04-30T13:47:48.848Z</time>
      </trkpt>
      <trkpt lat="44.45804" lon="3.73003">
        <ele>1221.818548</ele>
        <time>2021-04-30T13:48:04.466Z</time>
      </trkpt>
      <trkpt lat="44.4579" lon="3.7302">
        <ele>1222.739776</ele>
        <time>2021-04-30T13:48:12.642Z</time>
      </trkpt>
      <trkpt lat="44.45783" lon="3.73061">
        <ele>1224.248167</ele>
        <time>2021-04-30T13:48:26.954Z</time>
      </trkpt>
      <trkpt lat="44.4578" lon="3.7319">
        <ele>1231.744517</ele>
        <time>2021-04-30T13:49:16.180Z</time>
      </trkpt>
      <trkpt lat="44.45747" lon="3.73373">
        <ele>1243.130625</ele>
        <time>2021-04-30T13:50:35.344Z</time>
      </trkpt>
      <trkpt lat="44.45751" lon="3.73404">
        <ele>1245.169898</ele>
        <time>2021-04-30T13:50:49.038Z</time>
      </trkpt>
      <trkpt lat="44.45757" lon="3.73419">
        <ele>1246.26447</ele>
        <time>2021-04-30T13:50:56.431Z</time>
      </trkpt>
      <trkpt lat="44.45814" lon="3.73485">
        <ele>1252.897857</ele>
        <time>2021-04-30T13:51:40.086Z</time>
      </trkpt>
      <trkpt lat="44.45822" lon="3.73505">
        <ele>1254.351363</ele>
        <time>2021-04-30T13:51:49.205Z</time>
      </trkpt>
      <trkpt lat="44.45819" lon="3.73516">
        <ele>1255.093657</ele>
        <time>2021-04-30T13:51:53.799Z</time>
      </trkpt>
      <trkpt lat="44.45811" lon="3.73522">
        <ele>1255.809639</ele>
        <time>2021-04-30T13:51:58.596Z</time>
      </trkpt>
      <trkpt lat="44.45756" lon="3.73499">
        <ele>1260.530673</ele>
        <time>2021-04-30T13:52:28.933Z</time>
      </trkpt>
      <trkpt lat="44.45719" lon="3.73511">
        <ele>1263.643007</ele>
        <time>2021-04-30T13:52:48.935Z</time>
      </trkpt>
      <trkpt lat="44.45705" lon="3.73528">
        <ele>1265.12269</ele>
        <time>2021-04-30T13:52:58.836Z</time>
      </trkpt>
      <trkpt lat="44.45678" lon="3.73612">
        <ele>1270.57028</ele>
        <time>2021-04-30T13:53:36.295Z</time>
      </trkpt>
      <trkpt lat="44.45673" lon="3.73689">
        <ele>1275.653181</ele>
        <time>2021-04-30T13:54:08.550Z</time>
      </trkpt>
      <trkpt lat="44.45688" lon="3.7374">
        <ele>1279.262045</ele>
        <time>2021-04-30T13:54:31.495Z</time>
      </trkpt>
      <trkpt lat="44.45692" lon="3.73786">
        <ele>1282.338691</ele>
        <time>2021-04-30T13:54:51.441Z</time>
      </trkpt>
      <trkpt lat="44.45677" lon="3.73916">
        <ele>1291.156193</ele>
        <time>2021-04-30T13:55:48.842Z</time>
      </trkpt>
      <trkpt lat="44.45685" lon="3.74054">
        <ele>1300.578507</ele>
        <time>2021-04-30T13:56:48.799Z</time>
      </trkpt>
      <trkpt lat="44.45679" lon="3.74173">
        <ele>1307.876446</ele>
        <time>2021-04-30T13:57:40.014Z</time>
      </trkpt>
      <trkpt lat="44.45678" lon="3.74201">
        <ele>1309.492144</ele>
        <time>2021-04-30T13:57:50.948Z</time>
      </trkpt>
      <trkpt lat="44.45677" lon="3.74215">
        <ele>1310.294333</ele>
        <time>2021-04-30T13:57:57.633Z</time>
      </trkpt>
      <trkpt lat="44.45673" lon="3.74231">
        <ele>1311.265554</ele>
        <time>2021-04-30T13:58:03.686Z</time>
      </trkpt>
      <trkpt lat="44.45661" lon="3.74247">
        <ele>1312.566157</ele>
        <time>2021-04-30T13:58:12.553Z</time>
      </trkpt>
      <trkpt lat="44.45646" lon="3.74249">
        <ele>1313.784361</ele>
        <time>2021-04-30T13:58:20.935Z</time>
      </trkpt>
      <trkpt lat="44.45632" lon="3.74235">
        <ele>1315.137202</ele>
        <time>2021-04-30T13:58:29.491Z</time>
      </trkpt>
      <trkpt lat="44.45576" lon="3.74018">
        <ele>1325.184476</ele>
        <time>2021-04-30T13:59:45.045Z</time>
      </trkpt>
      <trkpt lat="44.45528" lon="3.73905">
        <ele>1330.422754</ele>
        <time>2021-04-30T14:00:23.737Z</time>
      </trkpt>
      <trkpt lat="44.45516" lon="3.73881">
        <ele>1331.569676</ele>
        <time>2021-04-30T14:00:31.957Z</time>
      </trkpt>
      <trkpt lat="44.45513" lon="3.73874">
        <ele>1331.870806</ele>
        <time>2021-04-30T14:00:33.885Z</time>
      </trkpt>
      <trkpt lat="44.45508" lon="3.73863">
        <ele>1332.421781</ele>
        <time>2021-04-30T14:00:39.300Z</time>
      </trkpt>
      <trkpt lat="44.45492" lon="3.73844">
        <ele>1333.562322</ele>
        <time>2021-04-30T14:00:47.677Z</time>
      </trkpt>
      <trkpt lat="44.45468" lon="3.73845">
        <ele>1334.891033</ele>
        <time>2021-04-30T14:00:58.901Z</time>
      </trkpt>
      <trkpt lat="44.454" lon="3.73897">
        <ele>1339.410583</ele>
        <time>2021-04-30T14:01:35.436Z</time>
      </trkpt>
      <trkpt lat="44.45289" lon="3.73951">
        <ele>1347.40331</ele>
        <time>2021-04-30T14:02:34.399Z</time>
      </trkpt>
      <trkpt lat="44.45211" lon="3.74019">
        <ele>1354.203505</ele>
        <time>2021-04-30T14:03:19.251Z</time>
      </trkpt>
      <trkpt lat="44.45121" lon="3.74147">
        <ele>1364.413629</ele>
        <time>2021-04-30T14:04:29.546Z</time>
      </trkpt>
      <trkpt lat="44.45101" lon="3.74167">
        <ele>1367.069196</ele>
        <time>2021-04-30T14:04:44.879Z</time>
      </trkpt>
      <trkpt lat="44.45094" lon="3.74182">
        <ele>1368.474735</ele>
        <time>2021-04-30T14:04:53.208Z</time>
      </trkpt>
      <trkpt lat="44.45091" lon="3.74206">
        <ele>1370.310637</ele>
        <time>2021-04-30T14:05:04.351Z</time>
      </trkpt>
      <trkpt lat="44.45097" lon="3.74272">
        <ele>1375.376112</ele>
        <time>2021-04-30T14:05:35.955Z</time>
      </trkpt>
      <trkpt lat="44.45125" lon="3.744">
        <ele>1385.341701</ele>
        <time>2021-04-30T14:06:41.694Z</time>
      </trkpt>
      <trkpt lat="44.45125" lon="3.74421">
        <ele>1386.748017</ele>
        <time>2021-04-30T14:06:51.851Z</time>
      </trkpt>
      <trkpt lat="44.45121" lon="3.74428">
        <ele>1387.406538</ele>
        <time>2021-04-30T14:06:56.437Z</time>
      </trkpt>
      <trkpt lat="44.4511" lon="3.7443">
        <ele>1388.437617</ele>
        <time>2021-04-30T14:07:03.742Z</time>
      </trkpt>
      <trkpt lat="44.45075" lon="3.74379">
        <ele>1393.091152</ele>
        <time>2021-04-30T14:07:34.725Z</time>
      </trkpt>
      <trkpt lat="44.45042" lon="3.74355">
        <ele>1396.564453</ele>
        <time>2021-04-30T14:07:56.076Z</time>
      </trkpt>
      <trkpt lat="44.45031" lon="3.74356">
        <ele>1397.544125</ele>
        <time>2021-04-30T14:08:01.712Z</time>
      </trkpt>
      <trkpt lat="44.45027" lon="3.74369">
        <ele>1398.517572</ele>
        <time>2021-04-30T14:08:07.414Z</time>
      </trkpt>
      <trkpt lat="44.45061" lon="3.74423">
        <ele>1401.935906</ele>
        <time>2021-04-30T14:08:33.209Z</time>
      </trkpt>
      <trkpt lat="44.45153" lon="3.74685">
        <ele>1411.728732</ele>
        <time>2021-04-30T14:09:55.715Z</time>
      </trkpt>
      <trkpt lat="44.45176" lon="3.74723">
        <ele>1413.121893</ele>
        <time>2021-04-30T14:10:07.782Z</time>
      </trkpt>
      <trkpt lat="44.45182" lon="3.74732">
        <ele>1413.462861</ele>
        <time>2021-04-30T14:10:10.365Z</time>
      </trkpt>
      <trkpt lat="44.45185" lon="3.7476">
        <ele>1414.237048</ele>
        <time>2021-04-30T14:10:17.070Z</time>
      </trkpt>
      <trkpt lat="44.45175" lon="3.74776">
        <ele>1414.815907</ele>
        <time>2021-04-30T14:10:22.534Z</time>
      </trkpt>
      <trkpt lat="44.45166" lon="3.74782">
        <ele>1415.228641</ele>
        <time>2021-04-30T14:10:26.274Z</time>
      </trkpt>
      <trkpt lat="44.45151" lon="3.74781">
        <ele>1415.792897</ele>
        <time>2021-04-30T14:10:32.331Z</time>
      </trkpt>
      <trkpt lat="44.45045" lon="3.74763">
        <ele>1422.17013</ele>
        <time>2021-04-30T14:11:18.295Z</time>
      </trkpt>
      <trkpt lat="44.45032" lon="3.74758">
        <ele>1423.014093</ele>
        <time>2021-04-30T14:11:25.049Z</time>
      </trkpt>
      <trkpt lat="44.44997" lon="3.74744">
        <ele>1425.274912</ele>
        <time>2021-04-30T14:11:43.390Z</time>
      </trkpt>
      <trkpt lat="44.44944" lon="3.74725">
        <ele>1429.236952</ele>
        <time>2021-04-30T14:12:12.221Z</time>
      </trkpt>
      <trkpt lat="44.44856" lon="3.74706">
        <ele>1437.648246</ele>
        <time>2021-04-30T14:13:05.736Z</time>
      </trkpt>
      <trkpt lat="44.44793" lon="3.74698">
        <ele>1443.659939</ele>
        <time>2021-04-30T14:13:46.426Z</time>
      </trkpt>
      <trkpt lat="44.44744" lon="3.74701">
        <ele>1448.595062</ele>
        <time>2021-04-30T14:14:16.804Z</time>
      </trkpt>
      <trkpt lat="44.4472" lon="3.74707">
        <ele>1451.152343</ele>
        <time>2021-04-30T14:14:32.454Z</time>
      </trkpt>
      <trkpt lat="44.44698" lon="3.74719">
        <ele>1453.59357</ele>
        <time>2021-04-30T14:14:47.260Z</time>
      </trkpt>
      <trkpt lat="44.44545" lon="3.74827">
        <ele>1470.358124</ele>
        <time>2021-04-30T14:16:37.686Z</time>
      </trkpt>
      <trkpt lat="44.44532" lon="3.74835">
        <ele>1471.614859</ele>
        <time>2021-04-30T14:16:46.317Z</time>
      </trkpt>
      <trkpt lat="44.4453" lon="3.74837">
        <ele>1471.884159</ele>
        <time>2021-04-30T14:16:47.814Z</time>
      </trkpt>
      <trkpt lat="44.44508" lon="3.7485">
        <ele>1474.02472</ele>
        <time>2021-04-30T14:17:01.010Z</time>
      </trkpt>
      <trkpt lat="44.44393" lon="3.74927">
        <ele>1482.659763</ele>
        <time>2021-04-30T14:18:07.690Z</time>
      </trkpt>
      <trkpt lat="44.44207" lon="3.75131">
        <ele>1490.657164</ele>
        <time>2021-04-30T14:19:27.725Z</time>
      </trkpt>
      <trkpt lat="44.44087" lon="3.75184">
        <ele>1492.981186</ele>
        <time>2021-04-30T14:20:00.242Z</time>
      </trkpt>
      <trkpt lat="44.44036" lon="3.7519">
        <ele>1493.769996</ele>
        <time>2021-04-30T14:20:14.055Z</time>
      </trkpt>
      <trkpt lat="44.4391" lon="3.75178">
        <ele>1496.415375</ele>
        <time>2021-04-30T14:20:53.910Z</time>
      </trkpt>
      <trkpt lat="44.43889" lon="3.75181">
        <ele>1496.976913</ele>
        <time>2021-04-30T14:21:01.309Z</time>
      </trkpt>
      <trkpt lat="44.43861" lon="3.75187">
        <ele>1497.73392</ele>
        <time>2021-04-30T14:21:11.100Z</time>
      </trkpt>
      <trkpt lat="44.43803" lon="3.75212">
        <ele>1499.345182</ele>
        <time>2021-04-30T14:21:31.520Z</time>
      </trkpt>
      <trkpt lat="44.43677" lon="3.75305">
        <ele>1503.05636</ele>
        <time>2021-04-30T14:22:17.115Z</time>
      </trkpt>
      <trkpt lat="44.43594" lon="3.75319">
        <ele>1505.50974</ele>
        <time>2021-04-30T14:22:44.848Z</time>
      </trkpt>
      <trkpt lat="44.43566" lon="3.75331">
        <ele>1506.462692</ele>
        <time>2021-04-30T14:22:55.001Z</time>
      </trkpt>
      <trkpt lat="44.43546" lon="3.75352">
        <ele>1507.278639</ele>
        <time>2021-04-30T14:23:03.888Z</time>
      </trkpt>
      <trkpt lat="44.435" lon="3.75427">
        <ele>1509.585924</ele>
        <time>2021-04-30T14:23:29.903Z</time>
      </trkpt>
      <trkpt lat="44.43379" lon="3.75563">
        <ele>1514.832142</ele>
        <time>2021-04-30T14:24:26.926Z</time>
      </trkpt>
      <trkpt lat="44.43376" lon="3.75567">
        <ele>1514.967649</ele>
        <time>2021-04-30T14:24:28.314Z</time>
      </trkpt>
      <trkpt lat="44.43371" lon="3.75574">
        <ele>1515.223088</ele>
        <time>2021-04-30T14:24:30.944Z</time>
      </trkpt>
      <trkpt lat="44.4336" lon="3.75588">
        <ele>1515.729811</ele>
        <time>2021-04-30T14:24:35.926Z</time>
      </trkpt>
      <trkpt lat="44.43347" lon="3.75634">
        <ele>1516.682971</ele>
        <time>2021-04-30T14:24:47.462Z</time>
      </trkpt>
      <trkpt lat="44.43353" lon="3.75756">
        <ele>1518.700879</ele>
        <time>2021-04-30T14:25:14.874Z</time>
      </trkpt>
      <trkpt lat="44.43344" lon="3.75849">
        <ele>1520.264716</ele>
        <time>2021-04-30T14:25:35.409Z</time>
      </trkpt>
      <trkpt lat="44.43328" lon="3.75909">
        <ele>1521.209728</ele>
        <time>2021-04-30T14:25:49.559Z</time>
      </trkpt>
      <trkpt lat="44.43289" lon="3.76004">
        <ele>1522.817368</ele>
        <time>2021-04-30T14:26:14.287Z</time>
      </trkpt>
      <trkpt lat="44.43274" lon="3.76052">
        <ele>1523.589317</ele>
        <time>2021-04-30T14:26:25.625Z</time>
      </trkpt>
      <trkpt lat="44.43252" lon="3.76148">
        <ele>1524.346527</ele>
        <time>2021-04-30T14:26:45.955Z</time>
      </trkpt>
      <trkpt lat="44.43247" lon="3.76211">
        <ele>1524.629027</ele>
        <time>2021-04-30T14:26:57.464Z</time>
      </trkpt>
      <trkpt lat="44.43249" lon="3.76231">
        <ele>1524.718513</ele>
        <time>2021-04-30T14:27:01.074Z</time>
      </trkpt>
      <trkpt lat="44.43249" lon="3.76246">
        <ele>1524.78792</ele>
        <time>2021-04-30T14:27:03.400Z</time>
      </trkpt>
      <trkpt lat="44.43239" lon="3.76318">
        <ele>1525.116892</ele>
        <time>2021-04-30T14:27:15.155Z</time>
      </trkpt>
      <trkpt lat="44.43227" lon="3.76351">
        <ele>1525.028117</ele>
        <time>2021-04-30T14:27:20.469Z</time>
      </trkpt>
      <trkpt lat="44.43214" lon="3.76367">
        <ele>1524.92134</ele>
        <time>2021-04-30T14:27:24.117Z</time>
      </trkpt>
      <trkpt lat="44.43072" lon="3.765">
        <ele>1524.017224</ele>
        <time>2021-04-30T14:27:58.122Z</time>
      </trkpt>
      <trkpt lat="44.43046" lon="3.7651">
        <ele>1524.002178</ele>
        <time>2021-04-30T14:28:03.494Z</time>
      </trkpt>
      <trkpt lat="44.43014" lon="3.76505">
        <ele>1523.983845</ele>
        <time>2021-04-30T14:28:10.128Z</time>
      </trkpt>
      <trkpt lat="44.4296" lon="3.76482">
        <ele>1523.951538</ele>
        <time>2021-04-30T14:28:22.292Z</time>
      </trkpt>
      <trkpt lat="44.42912" lon="3.76462">
        <ele>1524.308554</ele>
        <time>2021-04-30T14:28:34.759Z</time>
      </trkpt>
      <trkpt lat="44.42882" lon="3.76454">
        <ele>1525.109519</ele>
        <time>2021-04-30T14:28:43.832Z</time>
      </trkpt>
      <trkpt lat="44.42809" lon="3.76452">
        <ele>1527.042973</ele>
        <time>2021-04-30T14:29:07.660Z</time>
      </trkpt>
      <trkpt lat="44.42748" lon="3.76452">
        <ele>1528.664963</ele>
        <time>2021-04-30T14:29:29.829Z</time>
      </trkpt>
      <trkpt lat="44.42739" lon="3.76455">
        <ele>1529.099687</ele>
        <time>2021-04-30T14:29:33.524Z</time>
      </trkpt>
      <trkpt lat="44.42638" lon="3.76526">
        <ele>1534.595049</ele>
        <time>2021-04-30T14:30:21.540Z</time>
      </trkpt>
      <trkpt lat="44.42594" lon="3.76537">
        <ele>1536.77373</ele>
        <time>2021-04-30T14:30:41.620Z</time>
      </trkpt>
      <trkpt lat="44.42519" lon="3.76541">
        <ele>1539.71821</ele>
        <time>2021-04-30T14:31:12.132Z</time>
      </trkpt>
      <trkpt lat="44.42502" lon="3.76544">
        <ele>1540.360149</ele>
        <time>2021-04-30T14:31:19.461Z</time>
      </trkpt>
      <trkpt lat="44.42499" lon="3.76545">
        <ele>1540.479216</ele>
        <time>2021-04-30T14:31:20.585Z</time>
      </trkpt>
      <trkpt lat="44.42486" lon="3.76557">
        <ele>1541.037058</ele>
        <time>2021-04-30T14:31:25.736Z</time>
      </trkpt>
      <trkpt lat="44.42482" lon="3.76563">
        <ele>1541.263015</ele>
        <time>2021-04-30T14:31:28.287Z</time>
      </trkpt>
      <trkpt lat="44.42475" lon="3.76586">
        <ele>1541.910576</ele>
        <time>2021-04-30T14:31:34.816Z</time>
      </trkpt>
      <trkpt lat="44.42468" lon="3.76698">
        <ele>1544.09789</ele>
        <time>2021-04-30T14:32:01.382Z</time>
      </trkpt>
      <trkpt lat="44.4244" lon="3.76788">
        <ele>1544.037259</ele>
        <time>2021-04-30T14:32:18.741Z</time>
      </trkpt>
      <trkpt lat="44.42432" lon="3.76807">
        <ele>1544.024149</ele>
        <time>2021-04-30T14:32:21.554Z</time>
      </trkpt>
      <trkpt lat="44.4241" lon="3.76853">
        <ele>1543.989782</ele>
        <time>2021-04-30T14:32:29.055Z</time>
      </trkpt>
      <trkpt lat="44.42391" lon="3.76887">
        <ele>1543.963378</ele>
        <time>2021-04-30T14:32:34.572Z</time>
      </trkpt>
      <trkpt lat="44.42384" lon="3.769">
        <ele>1543.719281</ele>
        <time>2021-04-30T14:32:36.748Z</time>
      </trkpt>
      <trkpt lat="44.42369" lon="3.76925">
        <ele>1543.067932</ele>
        <time>2021-04-30T14:32:40.878Z</time>
      </trkpt>
      <trkpt lat="44.42318" lon="3.76968">
        <ele>1541.452252</ele>
        <time>2021-04-30T14:32:51.028Z</time>
      </trkpt>
      <trkpt lat="44.42245" lon="3.77011">
        <ele>1539.320951</ele>
        <time>2021-04-30T14:33:03.816Z</time>
      </trkpt>
      <trkpt lat="44.42222" lon="3.77018">
        <ele>1538.553764</ele>
        <time>2021-04-30T14:33:07.649Z</time>
      </trkpt>
      <trkpt lat="44.42123" lon="3.77017">
        <ele>1535.109929</ele>
        <time>2021-04-30T14:33:23.474Z</time>
      </trkpt>
      <trkpt lat="44.42032" lon="3.77027">
        <ele>1531.843816</ele>
        <time>2021-04-30T14:33:38.069Z</time>
      </trkpt>
      <trkpt lat="44.41936" lon="3.7705">
        <ele>1528.139131</ele>
        <time>2021-04-30T14:33:53.581Z</time>
      </trkpt>
      <trkpt lat="44.41882" lon="3.77086">
        <ele>1525.836061</ele>
        <time>2021-04-30T14:34:03.033Z</time>
      </trkpt>
      <trkpt lat="44.41819" lon="3.77111">
        <ele>1522.945756</ele>
        <time>2021-04-30T14:34:13.138Z</time>
      </trkpt>
      <trkpt lat="44.41722" lon="3.77194">
        <ele>1517.900738</ele>
        <time>2021-04-30T14:34:30.487Z</time>
      </trkpt>
      <trkpt lat="44.41665" lon="3.77227">
        <ele>1514.713179</ele>
        <time>2021-04-30T14:34:40.048Z</time>
      </trkpt>
      <trkpt lat="44.41614" lon="3.77246">
        <ele>1512.026347</ele>
        <time>2021-04-30T14:34:48.048Z</time>
      </trkpt>
      <trkpt lat="44.41491" lon="3.77338">
        <ele>1504.420846</ele>
        <time>2021-04-30T14:35:08.647Z</time>
      </trkpt>
      <trkpt lat="44.41482" lon="3.77344">
        <ele>1503.856754</ele>
        <time>2021-04-30T14:35:10.036Z</time>
      </trkpt>
      <trkpt lat="44.41476" lon="3.77346">
        <ele>1503.512389</ele>
        <time>2021-04-30T14:35:10.963Z</time>
      </trkpt>
      <trkpt lat="44.41468" lon="3.77347">
        <ele>1503.062461</ele>
        <time>2021-04-30T14:35:12.091Z</time>
      </trkpt>
      <trkpt lat="44.41451" lon="3.77339">
        <ele>1502.041561</ele>
        <time>2021-04-30T14:35:14.781Z</time>
      </trkpt>
      <trkpt lat="44.41444" lon="3.77329">
        <ele>1501.453163</ele>
        <time>2021-04-30T14:35:16.299Z</time>
      </trkpt>
      <trkpt lat="44.4142" lon="3.77242">
        <ele>1497.684431</ele>
        <time>2021-04-30T14:35:26.166Z</time>
      </trkpt>
      <trkpt lat="44.41406" lon="3.77216">
        <ele>1496.429023</ele>
        <time>2021-04-30T14:35:29.628Z</time>
      </trkpt>
      <trkpt lat="44.41324" lon="3.77151">
        <ele>1491.405311</ele>
        <time>2021-04-30T14:35:43.740Z</time>
      </trkpt>
      <trkpt lat="44.41293" lon="3.77126">
        <ele>1489.522336</ele>
        <time>2021-04-30T14:35:49.139Z</time>
      </trkpt>
      <trkpt lat="44.41279" lon="3.77119">
        <ele>1488.776473</ele>
        <time>2021-04-30T14:35:51.315Z</time>
      </trkpt>
      <trkpt lat="44.41249" lon="3.77115">
        <ele>1487.378054</ele>
        <time>2021-04-30T14:35:56.024Z</time>
      </trkpt>
      <trkpt lat="44.41219" lon="3.7712">
        <ele>1486.017936</ele>
        <time>2021-04-30T14:36:00.597Z</time>
      </trkpt>
      <trkpt lat="44.41252" lon="3.77152">
        <ele>1484.207193</ele>
        <time>2021-04-30T14:36:11.594Z</time>
      </trkpt>
      <trkpt lat="44.41291" lon="3.77189">
        <ele>1482.046964</ele>
        <time>2021-04-30T14:36:24.747Z</time>
      </trkpt>
      <trkpt lat="44.41318" lon="3.77246">
        <ele>1480.062423</ele>
        <time>2021-04-30T14:36:38.761Z</time>
      </trkpt>
      <trkpt lat="44.41305" lon="3.77302">
        <ele>1478.684607</ele>
        <time>2021-04-30T14:36:50.931Z</time>
      </trkpt>
      <trkpt lat="44.41275" lon="3.77365">
        <ele>1476.915692</ele>
        <time>2021-04-30T14:37:06.715Z</time>
      </trkpt>
      <trkpt lat="44.41285" lon="3.77467">
        <ele>1474.796033</ele>
        <time>2021-04-30T14:37:28.816Z</time>
      </trkpt>
      <trkpt lat="44.41327" lon="3.77569">
        <ele>1474.517003</ele>
        <time>2021-04-30T14:37:57.414Z</time>
      </trkpt>
      <trkpt lat="44.4137" lon="3.77607">
        <ele>1474.349149</ele>
        <time>2021-04-30T14:38:17.747Z</time>
      </trkpt>
      <trkpt lat="44.41423" lon="3.77667">
        <ele>1474.359694</ele>
        <time>2021-04-30T14:38:46.347Z</time>
      </trkpt>
      <trkpt lat="44.41435" lon="3.77685">
        <ele>1474.426171</ele>
        <time>2021-04-30T14:38:53.587Z</time>
      </trkpt>
      <trkpt lat="44.41451" lon="3.77714">
        <ele>1474.528976</ele>
        <time>2021-04-30T14:39:04.011Z</time>
      </trkpt>
      <trkpt lat="44.41451" lon="3.77724">
        <ele>1474.557018</ele>
        <time>2021-04-30T14:39:07.091Z</time>
      </trkpt>
      <trkpt lat="44.41446" lon="3.77732">
        <ele>1474.585462</ele>
        <time>2021-04-30T14:39:10.502Z</time>
      </trkpt>
      <trkpt lat="44.41437" lon="3.77738">
        <ele>1474.624409</ele>
        <time>2021-04-30T14:39:14.409Z</time>
      </trkpt>
      <trkpt lat="44.41429" lon="3.77738">
        <ele>1474.655109</ele>
        <time>2021-04-30T14:39:16.950Z</time>
      </trkpt>
      <trkpt lat="44.41386" lon="3.77711">
        <ele>1474.841085</ele>
        <time>2021-04-30T14:39:35.491Z</time>
      </trkpt>
      <trkpt lat="44.41355" lon="3.77708">
        <ele>1474.814403</ele>
        <time>2021-04-30T14:39:46.210Z</time>
      </trkpt>
      <trkpt lat="44.41288" lon="3.77716">
        <ele>1473.764695</ele>
        <time>2021-04-30T14:40:08.310Z</time>
      </trkpt>
      <trkpt lat="44.41258" lon="3.7773">
        <ele>1473.282311</ele>
        <time>2021-04-30T14:40:18.115Z</time>
      </trkpt>
      <trkpt lat="44.4116" lon="3.7772">
        <ele>1471.592452</ele>
        <time>2021-04-30T14:40:49.368Z</time>
      </trkpt>
      <trkpt lat="44.40921" lon="3.77727">
        <ele>1465.200422</ele>
        <time>2021-04-30T14:42:03.055Z</time>
      </trkpt>
      <trkpt lat="44.40794" lon="3.77772">
        <ele>1460.333409</ele>
        <time>2021-04-30T14:42:39.470Z</time>
      </trkpt>
      <trkpt lat="44.40676" lon="3.77757">
        <ele>1455.497575</ele>
        <time>2021-04-30T14:43:12.450Z</time>
      </trkpt>
      <trkpt lat="44.40656" lon="3.77759">
        <ele>1454.679008</ele>
        <time>2021-04-30T14:43:18.320Z</time>
      </trkpt>
      <trkpt lat="44.40565" lon="3.77883">
        <ele>1453.041783</ele>
        <time>2021-04-30T14:44:00.291Z</time>
      </trkpt>
      <trkpt lat="44.40534" lon="3.77942">
        <ele>1452.446615</ele>
        <time>2021-04-30T14:44:20.258Z</time>
      </trkpt>
      <trkpt lat="44.40496" lon="3.77946">
        <ele>1451.900021</ele>
        <time>2021-04-30T14:44:34.582Z</time>
      </trkpt>
      <trkpt lat="44.40445" lon="3.77908">
        <ele>1451.051034</ele>
        <time>2021-04-30T14:44:54.871Z</time>
      </trkpt>
      <trkpt lat="44.40334" lon="3.77882">
        <ele>1448.659089</ele>
        <time>2021-04-30T14:45:29.477Z</time>
      </trkpt>
      <trkpt lat="44.40286" lon="3.77858">
        <ele>1446.206515</ele>
        <time>2021-04-30T14:45:43.736Z</time>
      </trkpt>
      <trkpt lat="44.40251" lon="3.7779">
        <ele>1443.374365</ele>
        <time>2021-04-30T14:45:59.876Z</time>
      </trkpt>
      <trkpt lat="44.40192" lon="3.7775">
        <ele>1440.054202</ele>
        <time>2021-04-30T14:46:17.623Z</time>
      </trkpt>
      <trkpt lat="44.39972" lon="3.77784">
        <ele>1427.174141</ele>
        <time>2021-04-30T14:47:17.209Z</time>
      </trkpt>
      <trkpt lat="44.39811" lon="3.77746">
        <ele>1416.338869</ele>
        <time>2021-04-30T14:48:00.057Z</time>
      </trkpt>
      <trkpt lat="44.39692" lon="3.77593">
        <ele>1403.653791</ele>
        <time>2021-04-30T14:48:41.145Z</time>
      </trkpt>
      <trkpt lat="44.39655" lon="3.77505">
        <ele>1397.152289</ele>
        <time>2021-04-30T14:48:59.369Z</time>
      </trkpt>
      <trkpt lat="44.39618" lon="3.77473">
        <ele>1393.243142</ele>
        <time>2021-04-30T14:49:10.276Z</time>
      </trkpt>
      <trkpt lat="44.39562" lon="3.77469">
        <ele>1388.085224</ele>
        <time>2021-04-30T14:49:24.178Z</time>
      </trkpt>
      <trkpt lat="44.3951" lon="3.77434">
        <ele>1382.461666</ele>
        <time>2021-04-30T14:49:38.425Z</time>
      </trkpt>
      <trkpt lat="44.39315" lon="3.7741">
        <ele>1365.563661</ele>
        <time>2021-04-30T14:50:26.467Z</time>
      </trkpt>
      <trkpt lat="44.3925" lon="3.77383">
        <ele>1360.590074</ele>
        <time>2021-04-30T14:50:44.245Z</time>
      </trkpt>
      <trkpt lat="44.39207" lon="3.77375">
        <ele>1358.990548</ele>
        <time>2021-04-30T14:50:56.604Z</time>
      </trkpt>
      <trkpt lat="44.39157" lon="3.77457">
        <ele>1358.749889</ele>
        <time>2021-04-30T14:51:23.203Z</time>
      </trkpt>
      <trkpt lat="44.39128" lon="3.77543">
        <ele>1358.541534</ele>
        <time>2021-04-30T14:51:52.251Z</time>
      </trkpt>
      <trkpt lat="44.39073" lon="3.77575">
        <ele>1358.893612</ele>
        <time>2021-04-30T14:52:23.160Z</time>
      </trkpt>
      <trkpt lat="44.39023" lon="3.77639">
        <ele>1359.439856</ele>
        <time>2021-04-30T14:52:51.889Z</time>
      </trkpt>
      <trkpt lat="44.3899" lon="3.77718">
        <ele>1359.929382</ele>
        <time>2021-04-30T14:53:14.759Z</time>
      </trkpt>
      <trkpt lat="44.3899" lon="3.77776">
        <ele>1358.625792</ele>
        <time>2021-04-30T14:53:27.534Z</time>
      </trkpt>
      <trkpt lat="44.39008" lon="3.7781">
        <ele>1357.66772</ele>
        <time>2021-04-30T14:53:36.515Z</time>
      </trkpt>
      <trkpt lat="44.39089" lon="3.77888">
        <ele>1354.571084</ele>
        <time>2021-04-30T14:54:04.668Z</time>
      </trkpt>
      <trkpt lat="44.39148" lon="3.77907">
        <ele>1352.404191</ele>
        <time>2021-04-30T14:54:21.767Z</time>
      </trkpt>
      <trkpt lat="44.39168" lon="3.78087">
        <ele>1347.597965</ele>
        <time>2021-04-30T14:54:59.491Z</time>
      </trkpt>
      <trkpt lat="44.39197" lon="3.78119">
        <ele>1346.447278</ele>
        <time>2021-04-30T14:55:10.417Z</time>
      </trkpt>
      <trkpt lat="44.39224" lon="3.78134">
        <ele>1345.526994</ele>
        <time>2021-04-30T14:55:19.144Z</time>
      </trkpt>
      <trkpt lat="44.39218" lon="3.78233">
        <ele>1343.328585</ele>
        <time>2021-04-30T14:55:40.110Z</time>
      </trkpt>
      <trkpt lat="44.39145" lon="3.78319">
        <ele>1341.337836</ele>
        <time>2021-04-30T14:56:09.228Z</time>
      </trkpt>
      <trkpt lat="44.39134" lon="3.78325">
        <ele>1341.176161</ele>
        <time>2021-04-30T14:56:13.107Z</time>
      </trkpt>
      <trkpt lat="44.39105" lon="3.78409">
        <ele>1340.289164</ele>
        <time>2021-04-30T14:56:35.580Z</time>
      </trkpt>
      <trkpt lat="44.39102" lon="3.78491">
        <ele>1339.653872</ele>
        <time>2021-04-30T14:56:56.865Z</time>
      </trkpt>
      <trkpt lat="44.39133" lon="3.78549">
        <ele>1339.56093</ele>
        <time>2021-04-30T14:57:16.456Z</time>
      </trkpt>
      <trkpt lat="44.39132" lon="3.78568">
        <ele>1339.535522</ele>
        <time>2021-04-30T14:57:21.838Z</time>
      </trkpt>
      <trkpt lat="44.39101" lon="3.7863">
        <ele>1339.438751</ele>
        <time>2021-04-30T14:57:41.966Z</time>
      </trkpt>
      <trkpt lat="44.39054" lon="3.78685">
        <ele>1339.210852</ele>
        <time>2021-04-30T14:58:03.764Z</time>
      </trkpt>
      <trkpt lat="44.39015" lon="3.78708">
        <ele>1338.773831</ele>
        <time>2021-04-30T14:58:17.841Z</time>
      </trkpt>
      <trkpt lat="44.38994" lon="3.78748">
        <ele>1338.400918</ele>
        <time>2021-04-30T14:58:29.548Z</time>
      </trkpt>
      <trkpt lat="44.38982" lon="3.78787">
        <ele>1338.081352</ele>
        <time>2021-04-30T14:58:39.662Z</time>
      </trkpt>
      <trkpt lat="44.3898" lon="3.78838">
        <ele>1337.701713</ele>
        <time>2021-04-30T14:58:51.738Z</time>
      </trkpt>
      <trkpt lat="44.39002" lon="3.78873">
        <ele>1337.519639</ele>
        <time>2021-04-30T14:59:02.782Z</time>
      </trkpt>
      <trkpt lat="44.39046" lon="3.7889">
        <ele>1337.674538</ele>
        <time>2021-04-30T14:59:18.676Z</time>
      </trkpt>
      <trkpt lat="44.39192" lon="3.789">
        <ele>1338.773585</ele>
        <time>2021-04-30T15:00:17.647Z</time>
      </trkpt>
      <trkpt lat="44.39232" lon="3.78928">
        <ele>1340.077832</ele>
        <time>2021-04-30T15:00:38.172Z</time>
      </trkpt>
      <trkpt lat="44.39264" lon="3.78937">
        <ele>1341.036383</ele>
        <time>2021-04-30T15:00:53.713Z</time>
      </trkpt>
      <trkpt lat="44.39316" lon="3.78935">
        <ele>1342.560249</ele>
        <time>2021-04-30T15:01:21.355Z</time>
      </trkpt>
      <trkpt lat="44.39351" lon="3.78957">
        <ele>1343.816103</ele>
        <time>2021-04-30T15:01:42.073Z</time>
      </trkpt>
      <trkpt lat="44.39399" lon="3.78974">
        <ele>1345.992983</ele>
        <time>2021-04-30T15:02:09.266Z</time>
      </trkpt>
      <trkpt lat="44.39421" lon="3.7899">
        <ele>1347.087126</ele>
        <time>2021-04-30T15:02:23.992Z</time>
      </trkpt>
      <trkpt lat="44.39424" lon="3.79013">
        <ele>1347.806452</ele>
        <time>2021-04-30T15:02:32.489Z</time>
      </trkpt>
      <trkpt lat="44.39422" lon="3.79037">
        <ele>1348.541549</ele>
        <time>2021-04-30T15:02:42.756Z</time>
      </trkpt>
      <trkpt lat="44.39415" lon="3.79057">
        <ele>1349.257717</ele>
        <time>2021-04-30T15:02:51.161Z</time>
      </trkpt>
      <trkpt lat="44.39383" lon="3.79102">
        <ele>1351.195755</ele>
        <time>2021-04-30T15:03:16.313Z</time>
      </trkpt>
      <trkpt lat="44.39294" lon="3.79177">
        <ele>1353.877897</ele>
        <time>2021-04-30T15:04:08.610Z</time>
      </trkpt>
      <trkpt lat="44.3927" lon="3.79209">
        <ele>1354.725993</ele>
        <time>2021-04-30T15:04:22.712Z</time>
      </trkpt>
      <trkpt lat="44.39211" lon="3.79246">
        <ele>1356.106061</ele>
        <time>2021-04-30T15:04:49.731Z</time>
      </trkpt>
      <trkpt lat="44.39196" lon="3.79277">
        <ele>1356.460069</ele>
        <time>2021-04-30T15:05:00.543Z</time>
      </trkpt>
      <trkpt lat="44.39194" lon="3.79305">
        <ele>1356.732979</ele>
        <time>2021-04-30T15:05:08.796Z</time>
      </trkpt>
      <trkpt lat="44.39199" lon="3.79355">
        <ele>1357.211718</ele>
        <time>2021-04-30T15:05:23.456Z</time>
      </trkpt>
      <trkpt lat="44.39204" lon="3.79368">
        <ele>1357.356262</ele>
        <time>2021-04-30T15:05:28.003Z</time>
      </trkpt>
      <trkpt lat="44.3927" lon="3.79454">
        <ele>1359.006846</ele>
        <time>2021-04-30T15:06:07.261Z</time>
      </trkpt>
      <trkpt lat="44.39279" lon="3.7952">
        <ele>1360.419121</ele>
        <time>2021-04-30T15:06:30.575Z</time>
      </trkpt>
      <trkpt lat="44.3926" lon="3.79615">
        <ele>1362.497701</ele>
        <time>2021-04-30T15:07:06.294Z</time>
      </trkpt>
      <trkpt lat="44.39225" lon="3.7969">
        <ele>1364.433036</ele>
        <time>2021-04-30T15:07:39.415Z</time>
      </trkpt>
      <trkpt lat="44.39183" lon="3.79752">
        <ele>1366.342743</ele>
        <time>2021-04-30T15:08:10.982Z</time>
      </trkpt>
      <trkpt lat="44.39177" lon="3.79769">
        <ele>1366.754207</ele>
        <time>2021-04-30T15:08:17.580Z</time>
      </trkpt>
      <trkpt lat="44.39181" lon="3.79832">
        <ele>1368.15382</ele>
        <time>2021-04-30T15:08:39.725Z</time>
      </trkpt>
      <trkpt lat="44.39173" lon="3.79847">
        <ele>1368.56736</ele>
        <time>2021-04-30T15:08:46.097Z</time>
      </trkpt>
      <trkpt lat="44.39106" lon="3.79864">
        <ele>1370.054435</ele>
        <time>2021-04-30T15:09:17.279Z</time>
      </trkpt>
      <trkpt lat="44.3905" lon="3.79919">
        <ele>1371.302322</ele>
        <time>2021-04-30T15:09:46.557Z</time>
      </trkpt>
      <trkpt lat="44.39008" lon="3.79972">
        <ele>1372.352491</ele>
        <time>2021-04-30T15:10:10.427Z</time>
      </trkpt>
      <trkpt lat="44.38999" lon="3.79997">
        <ele>1372.810012</ele>
        <time>2021-04-30T15:10:19.434Z</time>
      </trkpt>
      <trkpt lat="44.38979" lon="3.8013">
        <ele>1375.166564</ele>
        <time>2021-04-30T15:11:06.513Z</time>
      </trkpt>
      <trkpt lat="44.38982" lon="3.80174">
        <ele>1375.931197</ele>
        <time>2021-04-30T15:11:21.736Z</time>
      </trkpt>
      <trkpt lat="44.38974" lon="3.80219">
        <ele>1376.733195</ele>
        <time>2021-04-30T15:11:37.623Z</time>
      </trkpt>
      <trkpt lat="44.38963" lon="3.80259">
        <ele>1376.911789</ele>
        <time>2021-04-30T15:11:51.737Z</time>
      </trkpt>
      <trkpt lat="44.38923" lon="3.80292">
        <ele>1377.141582</ele>
        <time>2021-04-30T15:12:11.555Z</time>
      </trkpt>
      <trkpt lat="44.38882" lon="3.80313">
        <ele>1377.360036</ele>
        <time>2021-04-30T15:12:29.311Z</time>
      </trkpt>
      <trkpt lat="44.38844" lon="3.80321">
        <ele>1377.548932</ele>
        <time>2021-04-30T15:12:43.015Z</time>
      </trkpt>
      <trkpt lat="44.38776" lon="3.80356">
        <ele>1376.268194</ele>
        <time>2021-04-30T15:13:05.308Z</time>
      </trkpt>
      <trkpt lat="44.38733" lon="3.80363">
        <ele>1375.069582</ele>
        <time>2021-04-30T15:13:18.237Z</time>
      </trkpt>
      <trkpt lat="44.38685" lon="3.80413">
        <ele>1373.439091</ele>
        <time>2021-04-30T15:13:35.877Z</time>
      </trkpt>
      <trkpt lat="44.38669" lon="3.80452">
        <ele>1372.541455</ele>
        <time>2021-04-30T15:13:45.413Z</time>
      </trkpt>
      <trkpt lat="44.38671" lon="3.80485">
        <ele>1371.831774</ele>
        <time>2021-04-30T15:13:52.307Z</time>
      </trkpt>
      <trkpt lat="44.38672" lon="3.80498">
        <ele>1371.536226</ele>
        <time>2021-04-30T15:13:55.243Z</time>
      </trkpt>
      <trkpt lat="44.38668" lon="3.80511">
        <ele>1371.241192</ele>
        <time>2021-04-30T15:13:57.931Z</time>
      </trkpt>
      <trkpt lat="44.38654" lon="3.80558">
        <ele>1370.134369</ele>
        <time>2021-04-30T15:14:08.649Z</time>
      </trkpt>
      <trkpt lat="44.38642" lon="3.80605">
        <ele>1369.070704</ele>
        <time>2021-04-30T15:14:19.097Z</time>
      </trkpt>
      <trkpt lat="44.3864" lon="3.80555">
        <ele>1367.99491</ele>
        <time>2021-04-30T15:14:29.870Z</time>
      </trkpt>
      <trkpt lat="44.38631" lon="3.80507">
        <ele>1366.989837</ele>
        <time>2021-04-30T15:14:40.954Z</time>
      </trkpt>
      <trkpt lat="44.38631" lon="3.80507">
        <ele>1366.989837</ele>
        <time>2021-04-30T15:14:40.965Z</time>
      </trkpt>
      <trkpt lat="44.38631" lon="3.80497">
        <ele>1366.81831</ele>
        <time>2021-04-30T15:14:42.158Z</time>
      </trkpt>
      <trkpt lat="44.38628" lon="3.80443">
        <ele>1365.89585</ele>
        <time>2021-04-30T15:14:48.867Z</time>
      </trkpt>
      <trkpt lat="44.38643" lon="3.80394">
        <ele>1365.001876</ele>
        <time>2021-04-30T15:14:55.305Z</time>
      </trkpt>
      <trkpt lat="44.38676" lon="3.80359">
        <ele>1364.025497</ele>
        <time>2021-04-30T15:15:02.384Z</time>
      </trkpt>
      <trkpt lat="44.38727" lon="3.80321">
        <ele>1362.537618</ele>
        <time>2021-04-30T15:15:12.474Z</time>
      </trkpt>
      <trkpt lat="44.38821" lon="3.80272">
        <ele>1359.327024</ele>
        <time>2021-04-30T15:15:29.360Z</time>
      </trkpt>
      <trkpt lat="44.38831" lon="3.80263">
        <ele>1358.953528</ele>
        <time>2021-04-30T15:15:31.220Z</time>
      </trkpt>
      <trkpt lat="44.38852" lon="3.80217">
        <ele>1357.715779</ele>
        <time>2021-04-30T15:15:37.311Z</time>
      </trkpt>
      <trkpt lat="44.38856" lon="3.80176">
        <ele>1356.604307</ele>
        <time>2021-04-30T15:15:41.880Z</time>
      </trkpt>
      <trkpt lat="44.3885" lon="3.80152">
        <ele>1355.829674</ele>
        <time>2021-04-30T15:15:44.640Z</time>
      </trkpt>
      <trkpt lat="44.38826" lon="3.80128">
        <ele>1354.520891</ele>
        <time>2021-04-30T15:15:49.276Z</time>
      </trkpt>
      <trkpt lat="44.3879" lon="3.80114">
        <ele>1352.924949</ele>
        <time>2021-04-30T15:15:54.936Z</time>
      </trkpt>
      <trkpt lat="44.38703" lon="3.80102">
        <ele>1349.291685</ele>
        <time>2021-04-30T15:16:08.429Z</time>
      </trkpt>
      <trkpt lat="44.38677" lon="3.80088">
        <ele>1348.526803</ele>
        <time>2021-04-30T15:16:12.857Z</time>
      </trkpt>
      <trkpt lat="44.38659" lon="3.80057">
        <ele>1347.725682</ele>
        <time>2021-04-30T15:16:17.609Z</time>
      </trkpt>
      <trkpt lat="44.38633" lon="3.79981">
        <ele>1346.078005</ele>
        <time>2021-04-30T15:16:27.790Z</time>
      </trkpt>
      <trkpt lat="44.38591" lon="3.79932">
        <ele>1344.573171</ele>
        <time>2021-04-30T15:16:37.430Z</time>
      </trkpt>
      <trkpt lat="44.38582" lon="3.79914">
        <ele>1344.220045</ele>
        <time>2021-04-30T15:16:40.210Z</time>
      </trkpt>
      <trkpt lat="44.38561" lon="3.79846">
        <ele>1343.023776</ele>
        <time>2021-04-30T15:16:49.747Z</time>
      </trkpt>
      <trkpt lat="44.38535" lon="3.79775">
        <ele>1341.73713</ele>
        <time>2021-04-30T15:16:59.819Z</time>
      </trkpt>
      <trkpt lat="44.38522" lon="3.79757">
        <ele>1341.323268</ele>
        <time>2021-04-30T15:17:02.982Z</time>
      </trkpt>
      <trkpt lat="44.3842" lon="3.79723">
        <ele>1337.558865</ele>
        <time>2021-04-30T15:17:20.039Z</time>
      </trkpt>
      <trkpt lat="44.38291" lon="3.79702">
        <ele>1331.492412</ele>
        <time>2021-04-30T15:17:39.760Z</time>
      </trkpt>
      <trkpt lat="44.38244" lon="3.79687">
        <ele>1328.307493</ele>
        <time>2021-04-30T15:17:46.767Z</time>
      </trkpt>
      <trkpt lat="44.38149" lon="3.79567">
        <ele>1319.915765</ele>
        <time>2021-04-30T15:18:05.005Z</time>
      </trkpt>
      <trkpt lat="44.38077" lon="3.79467">
        <ele>1313.409621</ele>
        <time>2021-04-30T15:18:19.518Z</time>
      </trkpt>
      <trkpt lat="44.38028" lon="3.79438">
        <ele>1309.983844</ele>
        <time>2021-04-30T15:18:27.284Z</time>
      </trkpt>
      <trkpt lat="44.37922" lon="3.79328">
        <ele>1304.268615</ele>
        <time>2021-04-30T15:18:47.589Z</time>
      </trkpt>
      <trkpt lat="44.37896" lon="3.79298">
        <ele>1302.866079</ele>
        <time>2021-04-30T15:18:53.159Z</time>
      </trkpt>
      <trkpt lat="44.37844" lon="3.79247">
        <ele>1300.69638</ele>
        <time>2021-04-30T15:19:03.841Z</time>
      </trkpt>
      <trkpt lat="44.37774" lon="3.79175">
        <ele>1298.16195</ele>
        <time>2021-04-30T15:19:18.333Z</time>
      </trkpt>
      <trkpt lat="44.37737" lon="3.79155">
        <ele>1296.982719</ele>
        <time>2021-04-30T15:19:25.002Z</time>
      </trkpt>
      <trkpt lat="44.37686" lon="3.79142">
        <ele>1294.87852</ele>
        <time>2021-04-30T15:19:33.371Z</time>
      </trkpt>
      <trkpt lat="44.37631" lon="3.79145">
        <ele>1292.444717</ele>
        <time>2021-04-30T15:19:41.851Z</time>
      </trkpt>
      <trkpt lat="44.37541" lon="3.79127">
        <ele>1288.275832</ele>
        <time>2021-04-30T15:19:55.625Z</time>
      </trkpt>
      <trkpt lat="44.37466" lon="3.79105">
        <ele>1282.873982</ele>
        <time>2021-04-30T15:20:06.956Z</time>
      </trkpt>
      <trkpt lat="44.37392" lon="3.7911">
        <ele>1277.651979</ele>
        <time>2021-04-30T15:20:17.339Z</time>
      </trkpt>
      <trkpt lat="44.37332" lon="3.79067">
        <ele>1272.3081</ele>
        <time>2021-04-30T15:20:26.607Z</time>
      </trkpt>
      <trkpt lat="44.37325" lon="3.79059">
        <ele>1271.509762</ele>
        <time>2021-04-30T15:20:27.834Z</time>
      </trkpt>
      <trkpt lat="44.37323" lon="3.79054">
        <ele>1271.183212</ele>
        <time>2021-04-30T15:20:28.335Z</time>
      </trkpt>
      <trkpt lat="44.37325" lon="3.79016">
        <ele>1268.795326</ele>
        <time>2021-04-30T15:20:32.293Z</time>
      </trkpt>
      <trkpt lat="44.37323" lon="3.79005">
        <ele>1268.11003</ele>
        <time>2021-04-30T15:20:33.333Z</time>
      </trkpt>
      <trkpt lat="44.37228" lon="3.78881">
        <ele>1258.288106</ele>
        <time>2021-04-30T15:20:51.447Z</time>
      </trkpt>
      <trkpt lat="44.37216" lon="3.78858">
        <ele>1257.196146</ele>
        <time>2021-04-30T15:20:54.379Z</time>
      </trkpt>
      <trkpt lat="44.37201" lon="3.78812">
        <ele>1255.287324</ele>
        <time>2021-04-30T15:20:59.886Z</time>
      </trkpt>
      <trkpt lat="44.37197" lon="3.78703">
        <ele>1251.186155</ele>
        <time>2021-04-30T15:21:12.292Z</time>
      </trkpt>
      <trkpt lat="44.37204" lon="3.78632">
        <ele>1250.060459</ele>
        <time>2021-04-30T15:21:21.064Z</time>
      </trkpt>
      <trkpt lat="44.37226" lon="3.7851">
        <ele>1248.412172</ele>
        <time>2021-04-30T15:21:37.670Z</time>
      </trkpt>
      <trkpt lat="44.37234" lon="3.78413">
        <ele>1247.173202</ele>
        <time>2021-04-30T15:21:50.839Z</time>
      </trkpt>
      <trkpt lat="44.37276" lon="3.78289">
        <ele>1245.549181</ele>
        <time>2021-04-30T15:22:08.557Z</time>
      </trkpt>
      <trkpt lat="44.37309" lon="3.7821">
        <ele>1244.511249</ele>
        <time>2021-04-30T15:22:20.205Z</time>
      </trkpt>
      <trkpt lat="44.37317" lon="3.78173">
        <ele>1244.208684</ele>
        <time>2021-04-30T15:22:25.084Z</time>
      </trkpt>
      <trkpt lat="44.37316" lon="3.78126">
        <ele>1243.832732</ele>
        <time>2021-04-30T15:22:31.278Z</time>
      </trkpt>
      <trkpt lat="44.37329" lon="3.78027">
        <ele>1243.039371</ele>
        <time>2021-04-30T15:22:45.100Z</time>
      </trkpt>
      <trkpt lat="44.37365" lon="3.77931">
        <ele>1242.427213</ele>
        <time>2021-04-30T15:23:02.126Z</time>
      </trkpt>
      <trkpt lat="44.37389" lon="3.77886">
        <ele>1242.231945</ele>
        <time>2021-04-30T15:23:10.980Z</time>
      </trkpt>
      <trkpt lat="44.37428" lon="3.77832">
        <ele>1241.96599</ele>
        <time>2021-04-30T15:23:22.462Z</time>
      </trkpt>
      <trkpt lat="44.37441" lon="3.77801">
        <ele>1241.839357</ele>
        <time>2021-04-30T15:23:27.722Z</time>
      </trkpt>
      <trkpt lat="44.37434" lon="3.77769">
        <ele>1241.607808</ele>
        <time>2021-04-30T15:23:32.335Z</time>
      </trkpt>
      <trkpt lat="44.37378" lon="3.77625">
        <ele>1238.072294</ele>
        <time>2021-04-30T15:23:53.082Z</time>
      </trkpt>
      <trkpt lat="44.37393" lon="3.77539">
        <ele>1235.880204</ele>
        <time>2021-04-30T15:24:02.801Z</time>
      </trkpt>
      <trkpt lat="44.37384" lon="3.77467">
        <ele>1231.578112</ele>
        <time>2021-04-30T15:24:10.196Z</time>
      </trkpt>
      <trkpt lat="44.37373" lon="3.77444">
        <ele>1229.935932</ele>
        <time>2021-04-30T15:24:13.000Z</time>
      </trkpt>
      <trkpt lat="44.37361" lon="3.77431">
        <ele>1228.687903</ele>
        <time>2021-04-30T15:24:15.102Z</time>
      </trkpt>
      <trkpt lat="44.37303" lon="3.77379">
        <ele>1222.993685</ele>
        <time>2021-04-30T15:24:24.601Z</time>
      </trkpt>
      <trkpt lat="44.37287" lon="3.77365">
        <ele>1221.426159</ele>
        <time>2021-04-30T15:24:27.157Z</time>
      </trkpt>
      <trkpt lat="44.37237" lon="3.77332">
        <ele>1215.113402</ele>
        <time>2021-04-30T15:24:34.537Z</time>
      </trkpt>
      <trkpt lat="44.37153" lon="3.77302">
        <ele>1205.118653</ele>
        <time>2021-04-30T15:24:46.097Z</time>
      </trkpt>
      <trkpt lat="44.37045" lon="3.77291">
        <ele>1192.73637</ele>
        <time>2021-04-30T15:25:00.553Z</time>
      </trkpt>
      <trkpt lat="44.37006" lon="3.773">
        <ele>1188.288822</ele>
        <time>2021-04-30T15:25:05.747Z</time>
      </trkpt>
      <trkpt lat="44.3698" lon="3.77294">
        <ele>1185.330036</ele>
        <time>2021-04-30T15:25:09.196Z</time>
      </trkpt>
      <trkpt lat="44.36812" lon="3.77171">
        <ele>1165.04478</ele>
        <time>2021-04-30T15:25:34.824Z</time>
      </trkpt>
      <trkpt lat="44.36802" lon="3.77155">
        <ele>1163.451425</ele>
        <time>2021-04-30T15:25:36.914Z</time>
      </trkpt>
      <trkpt lat="44.36799" lon="3.77136">
        <ele>1162.035793</ele>
        <time>2021-04-30T15:25:38.783Z</time>
      </trkpt>
      <trkpt lat="44.3681" lon="3.77085">
        <ele>1158.441216</ele>
        <time>2021-04-30T15:25:44.010Z</time>
      </trkpt>
      <trkpt lat="44.36821" lon="3.77055">
        <ele>1156.17925</ele>
        <time>2021-04-30T15:25:47.369Z</time>
      </trkpt>
      <trkpt lat="44.36811" lon="3.7698">
        <ele>1151.091602</ele>
        <time>2021-04-30T15:25:54.927Z</time>
      </trkpt>
      <trkpt lat="44.36811" lon="3.76905">
        <ele>1146.07168</ele>
        <time>2021-04-30T15:26:02.354Z</time>
      </trkpt>
      <trkpt lat="44.36827" lon="3.76819">
        <ele>1140.054668</ele>
        <time>2021-04-30T15:26:11.021Z</time>
      </trkpt>
      <trkpt lat="44.36832" lon="3.76759">
        <ele>1135.860722</ele>
        <time>2021-04-30T15:26:17.014Z</time>
      </trkpt>
      <trkpt lat="44.36857" lon="3.76708">
        <ele>1131.701228</ele>
        <time>2021-04-30T15:26:22.914Z</time>
      </trkpt>
      <trkpt lat="44.36864" lon="3.76683">
        <ele>1129.809905</ele>
        <time>2021-04-30T15:26:25.603Z</time>
      </trkpt>
      <trkpt lat="44.36866" lon="3.76655">
        <ele>1127.910704</ele>
        <time>2021-04-30T15:26:28.263Z</time>
      </trkpt>
      <trkpt lat="44.36864" lon="3.76636">
        <ele>1126.893855</ele>
        <time>2021-04-30T15:26:30.278Z</time>
      </trkpt>
      <trkpt lat="44.36797" lon="3.76546">
        <ele>1121.085392</ele>
        <time>2021-04-30T15:26:43.582Z</time>
      </trkpt>
      <trkpt lat="44.3679" lon="3.76529">
        <ele>1120.207651</ele>
        <time>2021-04-30T15:26:47.368Z</time>
      </trkpt>
      <trkpt lat="44.36791" lon="3.76512">
        <ele>1119.41371</ele>
        <time>2021-04-30T15:26:49.129Z</time>
      </trkpt>
      <trkpt lat="44.36791" lon="3.7651">
        <ele>1119.335238</ele>
        <time>2021-04-30T15:26:49.320Z</time>
      </trkpt>
      <trkpt lat="44.36796" lon="3.76493">
        <ele>1118.513298</ele>
        <time>2021-04-30T15:26:54.004Z</time>
      </trkpt>
      <trkpt lat="44.36831" lon="3.76447">
        <ele>1115.511102</ele>
        <time>2021-04-30T15:27:01.072Z</time>
      </trkpt>
      <trkpt lat="44.3684" lon="3.76429">
        <ele>1114.510855</ele>
        <time>2021-04-30T15:27:03.259Z</time>
      </trkpt>
      <trkpt lat="44.36846" lon="3.76409">
        <ele>1113.532293</ele>
        <time>2021-04-30T15:27:07.976Z</time>
      </trkpt>
      <trkpt lat="44.3685" lon="3.76399">
        <ele>1113.045056</ele>
        <time>2021-04-30T15:27:09.029Z</time>
      </trkpt>
      <trkpt lat="44.36856" lon="3.7636">
        <ele>1111.221577</ele>
        <time>2021-04-30T15:27:13.761Z</time>
      </trkpt>
      <trkpt lat="44.36861" lon="3.76326">
        <ele>1109.693802</ele>
        <time>2021-04-30T15:27:17.203Z</time>
      </trkpt>
      <trkpt lat="44.36863" lon="3.76305">
        <ele>1108.735656</ele>
        <time>2021-04-30T15:27:19.491Z</time>
      </trkpt>
      <trkpt lat="44.36855" lon="3.76255">
        <ele>1106.430899</ele>
        <time>2021-04-30T15:27:24.730Z</time>
      </trkpt>
      <trkpt lat="44.36863" lon="3.76215">
        <ele>1104.436514</ele>
        <time>2021-04-30T15:27:29.069Z</time>
      </trkpt>
      <trkpt lat="44.36853" lon="3.76187">
        <ele>1102.640219</ele>
        <time>2021-04-30T15:27:32.039Z</time>
      </trkpt>
      <trkpt lat="44.36843" lon="3.76183">
        <ele>1101.788178</ele>
        <time>2021-04-30T15:27:33.483Z</time>
      </trkpt>
      <trkpt lat="44.36823" lon="3.7618">
        <ele>1100.140602</ele>
        <time>2021-04-30T15:27:36.203Z</time>
      </trkpt>
      <trkpt lat="44.36771" lon="3.76172">
        <ele>1095.904305</ele>
        <time>2021-04-30T15:27:43.417Z</time>
      </trkpt>
      <trkpt lat="44.36751" lon="3.76159">
        <ele>1094.044111</ele>
        <time>2021-04-30T15:27:46.628Z</time>
      </trkpt>
      <trkpt lat="44.36747" lon="3.76141">
        <ele>1092.988499</ele>
        <time>2021-04-30T15:27:48.516Z</time>
      </trkpt>
      <trkpt lat="44.36751" lon="3.75984">
        <ele>1084.880541</ele>
        <time>2021-04-30T15:28:04.807Z</time>
      </trkpt>
      <trkpt lat="44.36746" lon="3.75953">
        <ele>1083.360856</ele>
        <time>2021-04-30T15:28:08.215Z</time>
      </trkpt>
      <trkpt lat="44.36738" lon="3.75936">
        <ele>1082.361928</ele>
        <time>2021-04-30T15:28:10.445Z</time>
      </trkpt>
      <trkpt lat="44.36728" lon="3.7593">
        <ele>1081.628933</ele>
        <time>2021-04-30T15:28:11.961Z</time>
      </trkpt>
      <trkpt lat="44.36712" lon="3.75939">
        <ele>1080.464329</ele>
        <time>2021-04-30T15:28:14.444Z</time>
      </trkpt>
      <trkpt lat="44.36666" lon="3.75991">
        <ele>1075.984187</ele>
        <time>2021-04-30T15:28:22.735Z</time>
      </trkpt>
      <trkpt lat="44.36616" lon="3.76035">
        <ele>1070.757595</ele>
        <time>2021-04-30T15:28:30.957Z</time>
      </trkpt>
      <trkpt lat="44.36605" lon="3.76044">
        <ele>1069.673461</ele>
        <time>2021-04-30T15:28:32.604Z</time>
      </trkpt>
      <trkpt lat="44.36586" lon="3.76057">
        <ele>1067.733885</ele>
        <time>2021-04-30T15:28:35.644Z</time>
      </trkpt>
      <trkpt lat="44.36507" lon="3.76092">
        <ele>1059.988675</ele>
        <time>2021-04-30T15:28:46.935Z</time>
      </trkpt>
      <trkpt lat="44.36424" lon="3.76155">
        <ele>1049.356998</ele>
        <time>2021-04-30T15:28:59.704Z</time>
      </trkpt>
      <trkpt lat="44.36397" lon="3.76159">
        <ele>1046.345077</ele>
        <time>2021-04-30T15:29:03.303Z</time>
      </trkpt>
      <trkpt lat="44.3638" lon="3.76175">
        <ele>1044.019221</ele>
        <time>2021-04-30T15:29:06.097Z</time>
      </trkpt>
      <trkpt lat="44.36364" lon="3.76198">
        <ele>1041.414128</ele>
        <time>2021-04-30T15:29:09.072Z</time>
      </trkpt>
      <trkpt lat="44.36345" lon="3.76222">
        <ele>1037.964418</ele>
        <time>2021-04-30T15:29:12.438Z</time>
      </trkpt>
      <trkpt lat="44.3627" lon="3.76322">
        <ele>1024.000368</ele>
        <time>2021-04-30T15:29:25.972Z</time>
      </trkpt>
      <trkpt lat="44.36246" lon="3.76344">
        <ele>1020.06635</ele>
        <time>2021-04-30T15:29:29.756Z</time>
      </trkpt>
      <trkpt lat="44.36222" lon="3.76345">
        <ele>1016.970612</ele>
        <time>2021-04-30T15:29:32.876Z</time>
      </trkpt>
      <trkpt lat="44.36211" lon="3.76333">
        <ele>1015.354253</ele>
        <time>2021-04-30T15:29:34.742Z</time>
      </trkpt>
      <trkpt lat="44.36192" lon="3.7629">
        <ele>1011.192049</ele>
        <time>2021-04-30T15:29:39.556Z</time>
      </trkpt>
      <trkpt lat="44.3616" lon="3.76248">
        <ele>1006.206552</ele>
        <time>2021-04-30T15:29:45.350Z</time>
      </trkpt>
      <trkpt lat="44.36145" lon="3.76182">
        <ele>1000.502731</ele>
        <time>2021-04-30T15:29:52.060Z</time>
      </trkpt>
      <trkpt lat="44.36139" lon="3.7611">
        <ele>995.840543</ele>
        <time>2021-04-30T15:29:59.210Z</time>
      </trkpt>
      <trkpt lat="44.36147" lon="3.75991">
        <ele>990.88055</ele>
        <time>2021-04-30T15:30:11.582Z</time>
      </trkpt>
      <trkpt lat="44.3614" lon="3.75843">
        <ele>986.261146</ele>
        <time>2021-04-30T15:30:28.820Z</time>
      </trkpt>
      <trkpt lat="44.36146" lon="3.75764">
        <ele>985.557605</ele>
        <time>2021-04-30T15:30:39.806Z</time>
      </trkpt>
      <trkpt lat="44.36166" lon="3.75696">
        <ele>984.903332</ele>
        <time>2021-04-30T15:30:51.721Z</time>
      </trkpt>
      <trkpt lat="44.36194" lon="3.75656">
        <ele>984.232701</ele>
        <time>2021-04-30T15:31:01.788Z</time>
      </trkpt>
      <trkpt lat="44.36261" lon="3.7563">
        <ele>980.355386</ele>
        <time>2021-04-30T15:31:13.618Z</time>
      </trkpt>
      <trkpt lat="44.36302" lon="3.7563">
        <ele>978.024175</ele>
        <time>2021-04-30T15:31:19.596Z</time>
      </trkpt>
      <trkpt lat="44.36315" lon="3.75624">
        <ele>977.235513</ele>
        <time>2021-04-30T15:31:21.519Z</time>
      </trkpt>
      <trkpt lat="44.36338" lon="3.75601">
        <ele>975.671025</ele>
        <time>2021-04-30T15:31:25.342Z</time>
      </trkpt>
      <trkpt lat="44.36359" lon="3.75575">
        <ele>973.722883</ele>
        <time>2021-04-30T15:31:29.477Z</time>
      </trkpt>
      <trkpt lat="44.36361" lon="3.7557">
        <ele>973.166649</ele>
        <time>2021-04-30T15:31:30.026Z</time>
      </trkpt>
      <trkpt lat="44.36376" lon="3.75536">
        <ele>969.484418</ele>
        <time>2021-04-30T15:31:33.957Z</time>
      </trkpt>
      <trkpt lat="44.36375" lon="3.75487">
        <ele>964.829386</ele>
        <time>2021-04-30T15:31:38.623Z</time>
      </trkpt>
      <trkpt lat="44.36409" lon="3.75339">
        <ele>950.286729</ele>
        <time>2021-04-30T15:31:53.007Z</time>
      </trkpt>
      <trkpt lat="44.36412" lon="3.7526">
        <ele>943.994701</ele>
        <time>2021-04-30T15:32:00.643Z</time>
      </trkpt>
      <trkpt lat="44.36412" lon="3.75212">
        <ele>940.247665</ele>
        <time>2021-04-30T15:32:05.200Z</time>
      </trkpt>
      <trkpt lat="44.36402" lon="3.75075">
        <ele>930.151976</ele>
        <time>2021-04-30T15:32:18.662Z</time>
      </trkpt>
      <trkpt lat="44.36394" lon="3.75034">
        <ele>928.701113</ele>
        <time>2021-04-30T15:32:22.968Z</time>
      </trkpt>
      <trkpt lat="44.36393" lon="3.75009">
        <ele>927.801728</ele>
        <time>2021-04-30T15:32:25.634Z</time>
      </trkpt>
      <trkpt lat="44.36391" lon="3.74976">
        <ele>926.68372</ele>
        <time>2021-04-30T15:32:29.194Z</time>
      </trkpt>
      <trkpt lat="44.364" lon="3.74905">
        <ele>924.163686</ele>
        <time>2021-04-30T15:32:37.392Z</time>
      </trkpt>
      <trkpt lat="44.36401" lon="3.74819">
        <ele>921.678341</ele>
        <time>2021-04-30T15:32:47.919Z</time>
      </trkpt>
      <trkpt lat="44.36409" lon="3.74747">
        <ele>920.568531</ele>
        <time>2021-04-30T15:33:02.739Z</time>
      </trkpt>
      <trkpt lat="44.36417" lon="3.74714">
        <ele>920.03827</ele>
        <time>2021-04-30T15:33:07.260Z</time>
      </trkpt>
      <trkpt lat="44.36443" lon="3.74685">
        <ele>919.335078</ele>
        <time>2021-04-30T15:33:13.917Z</time>
      </trkpt>
      <trkpt lat="44.36478" lon="3.74665">
        <ele>918.533586</ele>
        <time>2021-04-30T15:33:20.060Z</time>
      </trkpt>
      <trkpt lat="44.36495" lon="3.74664">
        <ele>918.011432</ele>
        <time>2021-04-30T15:33:22.493Z</time>
      </trkpt>
      <trkpt lat="44.36497" lon="3.74664">
        <ele>917.855958</ele>
        <time>2021-04-30T15:33:22.765Z</time>
      </trkpt>
      <trkpt lat="44.36514" lon="3.7467">
        <ele>916.379784</ele>
        <time>2021-04-30T15:33:25.357Z</time>
      </trkpt>
      <trkpt lat="44.3652" lon="3.74666">
        <ele>915.862786</ele>
        <time>2021-04-30T15:33:26.188Z</time>
      </trkpt>
      <trkpt lat="44.36522" lon="3.7466">
        <ele>915.477502</ele>
        <time>2021-04-30T15:33:27.947Z</time>
      </trkpt>
      <trkpt lat="44.36509" lon="3.74653">
        <ele>914.36986</ele>
        <time>2021-04-30T15:33:29.898Z</time>
      </trkpt>
      <trkpt lat="44.365" lon="3.74651">
        <ele>913.630577</ele>
        <time>2021-04-30T15:33:31.176Z</time>
      </trkpt>
      <trkpt lat="44.36489" lon="3.74649">
        <ele>912.708034</ele>
        <time>2021-04-30T15:33:32.685Z</time>
      </trkpt>
      <trkpt lat="44.36437" lon="3.74647">
        <ele>908.41392</ele>
        <time>2021-04-30T15:33:39.933Z</time>
      </trkpt>
      <trkpt lat="44.36416" lon="3.74652">
        <ele>906.688155</ele>
        <time>2021-04-30T15:33:42.842Z</time>
      </trkpt>
      <trkpt lat="44.36406" lon="3.74655">
        <ele>905.861064</ele>
        <time>2021-04-30T15:33:44.171Z</time>
      </trkpt>
      <trkpt lat="44.3639" lon="3.74667">
        <ele>904.338212</ele>
        <time>2021-04-30T15:33:46.709Z</time>
      </trkpt>
      <trkpt lat="44.36381" lon="3.7469">
        <ele>903.351137</ele>
        <time>2021-04-30T15:33:49.232Z</time>
      </trkpt>
      <trkpt lat="44.36375" lon="3.74726">
        <ele>902.820619</ele>
        <time>2021-04-30T15:33:52.719Z</time>
      </trkpt>
      <trkpt lat="44.36369" lon="3.74729">
        <ele>902.686221</ele>
        <time>2021-04-30T15:33:53.662Z</time>
      </trkpt>
      <trkpt lat="44.36367" lon="3.74728">
        <ele>902.639696</ele>
        <time>2021-04-30T15:33:53.951Z</time>
      </trkpt>
      <trkpt lat="44.36364" lon="3.74725">
        <ele>902.567507</ele>
        <time>2021-04-30T15:33:54.549Z</time>
      </trkpt>
      <trkpt lat="44.36364" lon="3.74713">
        <ele>902.388569</ele>
        <time>2021-04-30T15:33:55.889Z</time>
      </trkpt>
      <trkpt lat="44.36381" lon="3.74637">
        <ele>901.227834</ele>
        <time>2021-04-30T15:34:05.388Z</time>
      </trkpt>
      <trkpt lat="44.36399" lon="3.74557">
        <ele>899.989793</ele>
        <time>2021-04-30T15:34:26.997Z</time>
      </trkpt>
      <trkpt lat="44.36413" lon="3.74542">
        <ele>900.664227</ele>
        <time>2021-04-30T15:34:34.273Z</time>
      </trkpt>
      <trkpt lat="44.36423" lon="3.74532">
        <ele>901.67875</ele>
        <time>2021-04-30T15:34:41.006Z</time>
      </trkpt>
      <trkpt lat="44.36433" lon="3.74532">
        <ele>902.414696</ele>
        <time>2021-04-30T15:34:45.495Z</time>
      </trkpt>
      <trkpt lat="44.36454" lon="3.74544">
        <ele>904.209911</ele>
        <time>2021-04-30T15:34:59.868Z</time>
      </trkpt>
      <trkpt lat="44.36524" lon="3.746">
        <ele>910.64818</ele>
        <time>2021-04-30T15:35:49.176Z</time>
      </trkpt>
      <trkpt lat="44.36547" lon="3.74607">
        <ele>912.557495</ele>
        <time>2021-04-30T15:36:03.891Z</time>
      </trkpt>
      <trkpt lat="44.36582" lon="3.74601">
        <ele>914.521813</ele>
        <time>2021-04-30T15:36:24.767Z</time>
      </trkpt>
      <trkpt lat="44.36592" lon="3.74601">
        <ele>914.715158</ele>
        <time>2021-04-30T15:36:30.240Z</time>
      </trkpt>
      <trkpt lat="44.36623" lon="3.74614">
        <ele>915.396371</ele>
        <time>2021-04-30T15:36:42.725Z</time>
      </trkpt>
      <trkpt lat="44.36625" lon="3.74618">
        <ele>915.466037</ele>
        <time>2021-04-30T15:36:44.862Z</time>
      </trkpt>
      <trkpt lat="44.36625" lon="3.74623">
        <ele>915.541184</ele>
        <time>2021-04-30T15:36:46.550Z</time>
      </trkpt>
      <trkpt lat="44.36616" lon="3.74629">
        <ele>915.741267</ele>
        <time>2021-04-30T15:36:50.014Z</time>
      </trkpt>
      <trkpt lat="44.36577" lon="3.74621">
        <ele>916.564401</ele>
        <time>2021-04-30T15:37:01.896Z</time>
      </trkpt>
      <trkpt lat="44.36566" lon="3.74624">
        <ele>916.815675</ele>
        <time>2021-04-30T15:37:04.069Z</time>
      </trkpt>
      <trkpt lat="44.36566" lon="3.74624">
        <ele>916.815675</ele>
        <time>2021-04-30T15:37:04.082Z</time>
      </trkpt>
      <trkpt lat="44.36566" lon="3.74624">
        <ele>916.815675</ele>
        <time>2021-04-30T15:37:04.095Z</time>
      </trkpt>
      <trkpt lat="44.36577" lon="3.74621">
        <ele>917.066949</ele>
        <time>2021-04-30T15:37:07.926Z</time>
      </trkpt>
      <trkpt lat="44.36616" lon="3.74629">
        <ele>917.890084</ele>
        <time>2021-04-30T15:37:15.265Z</time>
      </trkpt>
      <trkpt lat="44.36625" lon="3.74623">
        <ele>917.588226</ele>
        <time>2021-04-30T15:37:16.865Z</time>
      </trkpt>
      <trkpt lat="44.36625" lon="3.74618">
        <ele>917.306563</ele>
        <time>2021-04-30T15:37:17.411Z</time>
      </trkpt>
      <trkpt lat="44.36623" lon="3.74614">
        <ele>917.045438</ele>
        <time>2021-04-30T15:37:17.897Z</time>
      </trkpt>
      <trkpt lat="44.36592" lon="3.74601">
        <ele>914.492115</ele>
        <time>2021-04-30T15:37:23.266Z</time>
      </trkpt>
      <trkpt lat="44.36582" lon="3.74601">
        <ele>913.767419</ele>
        <time>2021-04-30T15:37:24.600Z</time>
      </trkpt>
      <trkpt lat="44.36547" lon="3.74607">
        <ele>910.953401</ele>
        <time>2021-04-30T15:37:29.767Z</time>
      </trkpt>
      <trkpt lat="44.36524" lon="3.746">
        <ele>909.069702</ele>
        <time>2021-04-30T15:37:33.191Z</time>
      </trkpt>
      <trkpt lat="44.36454" lon="3.74544">
        <ele>902.742228</ele>
        <time>2021-04-30T15:37:44.586Z</time>
      </trkpt>
      <trkpt lat="44.36433" lon="3.74532">
        <ele>901.010453</ele>
        <time>2021-04-30T15:37:47.752Z</time>
      </trkpt>
      <trkpt lat="44.36423" lon="3.74532">
        <ele>900.300515</ele>
        <time>2021-04-30T15:37:49.119Z</time>
      </trkpt>
      <trkpt lat="44.36413" lon="3.74542">
        <ele>899.321843</ele>
        <time>2021-04-30T15:37:50.983Z</time>
      </trkpt>
      <trkpt lat="44.36399" lon="3.74557">
        <ele>897.983058</ele>
        <time>2021-04-30T15:37:53.505Z</time>
      </trkpt>
      <trkpt lat="44.36399" lon="3.74542">
        <ele>897.1571</ele>
        <time>2021-04-30T15:37:55.130Z</time>
      </trkpt>
      <trkpt lat="44.36397" lon="3.74535">
        <ele>896.762688</ele>
        <time>2021-04-30T15:37:55.861Z</time>
      </trkpt>
      <trkpt lat="44.36392" lon="3.74531">
        <ele>896.289254</ele>
        <time>2021-04-30T15:37:56.706Z</time>
      </trkpt>
      <trkpt lat="44.36384" lon="3.74529">
        <ele>895.685043</ele>
        <time>2021-04-30T15:37:57.809Z</time>
      </trkpt>
      <trkpt lat="44.36377" lon="3.74533">
        <ele>895.093444</ele>
        <time>2021-04-30T15:37:58.872Z</time>
      </trkpt>
      <trkpt lat="44.36352" lon="3.74585">
        <ele>891.620966</ele>
        <time>2021-04-30T15:38:05.490Z</time>
      </trkpt>
      <trkpt lat="44.36339" lon="3.74633">
        <ele>889.410332</ele>
        <time>2021-04-30T15:38:10.789Z</time>
      </trkpt>
      <trkpt lat="44.36342" lon="3.74685">
        <ele>888.016753</ele>
        <time>2021-04-30T15:38:16.756Z</time>
      </trkpt>
      <trkpt lat="44.36342" lon="3.74687">
        <ele>887.966543</ele>
        <time>2021-04-30T15:38:16.988Z</time>
      </trkpt>
      <trkpt lat="44.36339" lon="3.747">
        <ele>887.613317</ele>
        <time>2021-04-30T15:38:18.463Z</time>
      </trkpt>
      <trkpt lat="44.36336" lon="3.74703">
        <ele>887.46518</ele>
        <time>2021-04-30T15:38:19.274Z</time>
      </trkpt>
      <trkpt lat="44.36333" lon="3.74694">
        <ele>887.18034</ele>
        <time>2021-04-30T15:38:20.430Z</time>
      </trkpt>
      <trkpt lat="44.3631" lon="3.74634">
        <ele>885.402883</ele>
        <time>2021-04-30T15:38:28.755Z</time>
      </trkpt>
      <trkpt lat="44.36307" lon="3.74622">
        <ele>885.060375</ele>
        <time>2021-04-30T15:38:30.245Z</time>
      </trkpt>
      <trkpt lat="44.36305" lon="3.74595">
        <ele>884.356205</ele>
        <time>2021-04-30T15:38:33.438Z</time>
      </trkpt>
      <trkpt lat="44.36303" lon="3.74511">
        <ele>882.749001</ele>
        <time>2021-04-30T15:38:43.535Z</time>
      </trkpt>
      <trkpt lat="44.36303" lon="3.74471">
        <ele>882.249371</ele>
        <time>2021-04-30T15:38:47.959Z</time>
      </trkpt>
      <trkpt lat="44.36322" lon="3.74397">
        <ele>881.249919</ele>
        <time>2021-04-30T15:38:57.465Z</time>
      </trkpt>
      <trkpt lat="44.36328" lon="3.74373">
        <ele>880.920659</ele>
        <time>2021-04-30T15:39:01.130Z</time>
      </trkpt>
      <trkpt lat="44.36329" lon="3.74361">
        <ele>880.766877</ele>
        <time>2021-04-30T15:39:03.112Z</time>
      </trkpt>
      <trkpt lat="44.36333" lon="3.74358">
        <ele>880.679585</ele>
        <time>2021-04-30T15:39:04.130Z</time>
      </trkpt>
      <trkpt lat="44.36338" lon="3.74357">
        <ele>880.591349</ele>
        <time>2021-04-30T15:39:05.112Z</time>
      </trkpt>
      <trkpt lat="44.36344" lon="3.74353">
        <ele>880.480236</ele>
        <time>2021-04-30T15:39:06.376Z</time>
      </trkpt>
      <trkpt lat="44.36368" lon="3.74335">
        <ele>880.369198</ele>
        <time>2021-04-30T15:39:13.166Z</time>
      </trkpt>
      <trkpt lat="44.36371" lon="3.7433">
        <ele>880.499674</ele>
        <time>2021-04-30T15:39:14.223Z</time>
      </trkpt>
      <trkpt lat="44.36374" lon="3.74323">
        <ele>880.667981</ele>
        <time>2021-04-30T15:39:15.618Z</time>
      </trkpt>
      <trkpt lat="44.36375" lon="3.74316">
        <ele>880.798986</ele>
        <time>2021-04-30T15:39:17.029Z</time>
      </trkpt>
      <trkpt lat="44.36378" lon="3.74272">
        <ele>881.699805</ele>
        <time>2021-04-30T15:39:26.599Z</time>
      </trkpt>
      <trkpt lat="44.36382" lon="3.74265">
        <ele>881.865672</ele>
        <time>2021-04-30T15:39:28.674Z</time>
      </trkpt>
      <trkpt lat="44.36397" lon="3.74242">
        <ele>882.483986</ele>
        <time>2021-04-30T15:39:36.016Z</time>
      </trkpt>
      <trkpt lat="44.36413" lon="3.74226">
        <ele>883.03967</ele>
        <time>2021-04-30T15:39:43.188Z</time>
      </trkpt>
      <trkpt lat="44.36417" lon="3.74221">
        <ele>883.191753</ele>
        <time>2021-04-30T15:39:45.098Z</time>
      </trkpt>
      <trkpt lat="44.36449" lon="3.74186">
        <ele>884.324337</ele>
        <time>2021-04-30T15:39:59.467Z</time>
      </trkpt>
      <trkpt lat="44.36462" lon="3.74165">
        <ele>884.86838</ele>
        <time>2021-04-30T15:40:07.495Z</time>
      </trkpt>
      <trkpt lat="44.36467" lon="3.74159">
        <ele>885.049701</ele>
        <time>2021-04-30T15:40:10.480Z</time>
      </trkpt>
      <trkpt lat="44.3649" lon="3.74124">
        <ele>886.441494</ele>
        <time>2021-04-30T15:40:25.149Z</time>
      </trkpt>
      <trkpt lat="44.36553" lon="3.74045">
        <ele>890.0854</ele>
        <time>2021-04-30T15:40:59.860Z</time>
      </trkpt>
      <trkpt lat="44.36563" lon="3.74031">
        <ele>890.695177</ele>
        <time>2021-04-30T15:41:05.857Z</time>
      </trkpt>
      <trkpt lat="44.36583" lon="3.73999">
        <ele>891.995982</ele>
        <time>2021-04-30T15:41:17.222Z</time>
      </trkpt>
      <trkpt lat="44.36622" lon="3.73921">
        <ele>894.36786</ele>
        <time>2021-04-30T15:41:40.940Z</time>
      </trkpt>
      <trkpt lat="44.36645" lon="3.7384">
        <ele>896.317753</ele>
        <time>2021-04-30T15:42:02.453Z</time>
      </trkpt>
      <trkpt lat="44.36688" lon="3.73776">
        <ele>898.267745</ele>
        <time>2021-04-30T15:42:22.792Z</time>
      </trkpt>
      <trkpt lat="44.36688" lon="3.73761">
        <ele>898.665658</ele>
        <time>2021-04-30T15:42:26.487Z</time>
      </trkpt>
      <trkpt lat="44.36667" lon="3.73702">
        <ele>900.984931</ele>
        <time>2021-04-30T15:42:44.222Z</time>
      </trkpt>
      <trkpt lat="44.36667" lon="3.7366">
        <ele>902.49788</ele>
        <time>2021-04-30T15:42:56.637Z</time>
      </trkpt>
      <trkpt lat="44.36677" lon="3.73617">
        <ele>904.063655</ele>
        <time>2021-04-30T15:43:11.654Z</time>
      </trkpt>
      <trkpt lat="44.36689" lon="3.73589">
        <ele>905.23436</ele>
        <time>2021-04-30T15:43:22.885Z</time>
      </trkpt>
      <trkpt lat="44.36699" lon="3.73565">
        <ele>906.216458</ele>
        <time>2021-04-30T15:43:30.999Z</time>
      </trkpt>
      <trkpt lat="44.36704" lon="3.73546">
        <ele>906.914899</ele>
        <time>2021-04-30T15:43:38.067Z</time>
      </trkpt>
      <trkpt lat="44.3672" lon="3.73493">
        <ele>908.848947</ele>
        <time>2021-04-30T15:43:57.060Z</time>
      </trkpt>
      <trkpt lat="44.3673" lon="3.73462">
        <ele>909.955377</ele>
        <time>2021-04-30T15:44:06.555Z</time>
      </trkpt>
      <trkpt lat="44.36731" lon="3.73453">
        <ele>910.249575</ele>
        <time>2021-04-30T15:44:10.605Z</time>
      </trkpt>
      <trkpt lat="44.36729" lon="3.73443">
        <ele>910.565145</ele>
        <time>2021-04-30T15:44:13.954Z</time>
      </trkpt>
      <trkpt lat="44.36711" lon="3.73391">
        <ele>912.470958</ele>
        <time>2021-04-30T15:44:31.879Z</time>
      </trkpt>
      <trkpt lat="44.36689" lon="3.73376">
        <ele>913.552289</ele>
        <time>2021-04-30T15:44:41.679Z</time>
      </trkpt>
      <trkpt lat="44.36671" lon="3.73381">
        <ele>914.405341</ele>
        <time>2021-04-30T15:44:48.059Z</time>
      </trkpt>
      <trkpt lat="44.36624" lon="3.73412">
        <ele>915.488975</ele>
        <time>2021-04-30T15:45:05.082Z</time>
      </trkpt>
      <trkpt lat="44.36603" lon="3.7342">
        <ele>915.397624</ele>
        <time>2021-04-30T15:45:10.755Z</time>
      </trkpt>
      <trkpt lat="44.36582" lon="3.73423">
        <ele>915.309761</ele>
        <time>2021-04-30T15:45:15.300Z</time>
      </trkpt>
      <trkpt lat="44.36503" lon="3.73414">
        <ele>914.97754</ele>
        <time>2021-04-30T15:45:31.223Z</time>
      </trkpt>
      <trkpt lat="44.36377" lon="3.73475">
        <ele>910.889401</ele>
        <time>2021-04-30T15:45:52.317Z</time>
      </trkpt>
      <trkpt lat="44.36277" lon="3.73505">
        <ele>907.088394</ele>
        <time>2021-04-30T15:46:07.985Z</time>
      </trkpt>
      <trkpt lat="44.36164" lon="3.73496">
        <ele>903.693783</ele>
        <time>2021-04-30T15:46:26.143Z</time>
      </trkpt>
      <trkpt lat="44.36145" lon="3.73476">
        <ele>902.97208</ele>
        <time>2021-04-30T15:46:30.572Z</time>
      </trkpt>
      <trkpt lat="44.3614" lon="3.73454">
        <ele>902.477535</ele>
        <time>2021-04-30T15:46:33.728Z</time>
      </trkpt>
      <trkpt lat="44.36145" lon="3.7343">
        <ele>902.133419</ele>
        <time>2021-04-30T15:46:37.414Z</time>
      </trkpt>
      <trkpt lat="44.36154" lon="3.73413">
        <ele>901.861099</ele>
        <time>2021-04-30T15:46:40.568Z</time>
      </trkpt>
      <trkpt lat="44.36201" lon="3.73361">
        <ele>900.80894</ele>
        <time>2021-04-30T15:46:52.192Z</time>
      </trkpt>
      <trkpt lat="44.36235" lon="3.73306">
        <ele>899.897627</ele>
        <time>2021-04-30T15:47:01.454Z</time>
      </trkpt>
      <trkpt lat="44.36255" lon="3.73262">
        <ele>899.228195</ele>
        <time>2021-04-30T15:47:07.868Z</time>
      </trkpt>
      <trkpt lat="44.36264" lon="3.73213">
        <ele>897.860151</ele>
        <time>2021-04-30T15:47:13.741Z</time>
      </trkpt>
      <trkpt lat="44.36261" lon="3.7312">
        <ele>895.347531</ele>
        <time>2021-04-30T15:47:24.182Z</time>
      </trkpt>
      <trkpt lat="44.36233" lon="3.7304">
        <ele>892.925179</ele>
        <time>2021-04-30T15:47:33.912Z</time>
      </trkpt>
      <trkpt lat="44.3623" lon="3.73017">
        <ele>892.324595</ele>
        <time>2021-04-30T15:47:36.500Z</time>
      </trkpt>
      <trkpt lat="44.36252" lon="3.72823">
        <ele>888.692183</ele>
        <time>2021-04-30T15:48:00.166Z</time>
      </trkpt>
      <trkpt lat="44.36232" lon="3.72768">
        <ele>887.658585</ele>
        <time>2021-04-30T15:48:08.315Z</time>
      </trkpt>
      <trkpt lat="44.36219" lon="3.72756">
        <ele>887.465262</ele>
        <time>2021-04-30T15:48:11.220Z</time>
      </trkpt>
      <trkpt lat="44.36195" lon="3.72745">
        <ele>887.143758</ele>
        <time>2021-04-30T15:48:16.191Z</time>
      </trkpt>
      <trkpt lat="44.36188" lon="3.72723">
        <ele>886.92537</ele>
        <time>2021-04-30T15:48:19.650Z</time>
      </trkpt>
      <trkpt lat="44.36194" lon="3.727">
        <ele>886.706992</ele>
        <time>2021-04-30T15:48:23.316Z</time>
      </trkpt>
      <trkpt lat="44.36218" lon="3.72665">
        <ele>886.28116</ele>
        <time>2021-04-30T15:48:30.299Z</time>
      </trkpt>
      <trkpt lat="44.36221" lon="3.72651">
        <ele>886.154182</ele>
        <time>2021-04-30T15:48:32.375Z</time>
      </trkpt>
      <trkpt lat="44.36204" lon="3.72586">
        <ele>885.533597</ele>
        <time>2021-04-30T15:48:41.560Z</time>
      </trkpt>
      <trkpt lat="44.36206" lon="3.72561">
        <ele>885.071581</ele>
        <time>2021-04-30T15:48:44.711Z</time>
      </trkpt>
      <trkpt lat="44.36218" lon="3.72502">
        <ele>883.912049</ele>
        <time>2021-04-30T15:48:52.209Z</time>
      </trkpt>
      <trkpt lat="44.36246" lon="3.72422">
        <ele>882.237457</ele>
        <time>2021-04-30T15:49:02.755Z</time>
      </trkpt>
      <trkpt lat="44.36248" lon="3.72408">
        <ele>881.960315</ele>
        <time>2021-04-30T15:49:04.501Z</time>
      </trkpt>
      <trkpt lat="44.36243" lon="3.72373">
        <ele>881.299594</ele>
        <time>2021-04-30T15:49:08.651Z</time>
      </trkpt>
      <trkpt lat="44.36208" lon="3.72284">
        <ele>879.065439</ele>
        <time>2021-04-30T15:49:20.450Z</time>
      </trkpt>
      <trkpt lat="44.36197" lon="3.72249">
        <ele>878.160823</ele>
        <time>2021-04-30T15:49:24.959Z</time>
      </trkpt>
      <trkpt lat="44.36195" lon="3.72225">
        <ele>877.609859</ele>
        <time>2021-04-30T15:49:27.710Z</time>
      </trkpt>
      <trkpt lat="44.36206" lon="3.72164">
        <ele>876.135524</ele>
        <time>2021-04-30T15:49:35.148Z</time>
      </trkpt>
      <trkpt lat="44.36257" lon="3.72009">
        <ele>871.041596</ele>
        <time>2021-04-30T15:49:54.829Z</time>
      </trkpt>
      <trkpt lat="44.36251" lon="3.71982">
        <ele>870.097999</ele>
        <time>2021-04-30T15:49:57.945Z</time>
      </trkpt>
      <trkpt lat="44.36235" lon="3.71966">
        <ele>869.192122</ele>
        <time>2021-04-30T15:50:00.955Z</time>
      </trkpt>
      <trkpt lat="44.36178" lon="3.71985">
        <ele>866.425992</ele>
        <time>2021-04-30T15:50:09.587Z</time>
      </trkpt>
      <trkpt lat="44.36126" lon="3.71987">
        <ele>863.28499</ele>
        <time>2021-04-30T15:50:17.012Z</time>
      </trkpt>
      <trkpt lat="44.36112" lon="3.7198">
        <ele>862.364065</ele>
        <time>2021-04-30T15:50:19.152Z</time>
      </trkpt>
      <trkpt lat="44.36102" lon="3.7196">
        <ele>861.307338</ele>
        <time>2021-04-30T15:50:21.688Z</time>
      </trkpt>
      <trkpt lat="44.36105" lon="3.71932">
        <ele>860.080049</ele>
        <time>2021-04-30T15:50:24.594Z</time>
      </trkpt>
      <trkpt lat="44.36122" lon="3.71872">
        <ele>857.270251</ele>
        <time>2021-04-30T15:50:31.337Z</time>
      </trkpt>
      <trkpt lat="44.36129" lon="3.71797">
        <ele>855.046288</ele>
        <time>2021-04-30T15:50:39.505Z</time>
      </trkpt>
      <trkpt lat="44.36142" lon="3.71726">
        <ele>853.906312</ele>
        <time>2021-04-30T15:50:47.957Z</time>
      </trkpt>
      <trkpt lat="44.36132" lon="3.71688">
        <ele>853.275079</ele>
        <time>2021-04-30T15:50:53.172Z</time>
      </trkpt>
      <trkpt lat="44.36127" lon="3.71598">
        <ele>851.860177</ele>
        <time>2021-04-30T15:51:07.012Z</time>
      </trkpt>
      <trkpt lat="44.36111" lon="3.71529">
        <ele>851.529295</ele>
        <time>2021-04-30T15:51:20.663Z</time>
      </trkpt>
      <trkpt lat="44.36121" lon="3.71507">
        <ele>851.450564</ele>
        <time>2021-04-30T15:51:25.507Z</time>
      </trkpt>
      <trkpt lat="44.36215" lon="3.71444">
        <ele>851.006741</ele>
        <time>2021-04-30T15:51:47.732Z</time>
      </trkpt>
      <trkpt lat="44.36251" lon="3.71395">
        <ele>849.066758</ele>
        <time>2021-04-30T15:51:56.202Z</time>
      </trkpt>
      <trkpt lat="44.36304" lon="3.71217">
        <ele>842.311559</ele>
        <time>2021-04-30T15:52:16.642Z</time>
      </trkpt>
      <trkpt lat="44.36339" lon="3.71151">
        <ele>839.343678</ele>
        <time>2021-04-30T15:52:25.036Z</time>
      </trkpt>
      <trkpt lat="44.36347" lon="3.71084">
        <ele>836.883156</ele>
        <time>2021-04-30T15:52:32.153Z</time>
      </trkpt>
      <trkpt lat="44.3637" lon="3.71046">
        <ele>835.0753</ele>
        <time>2021-04-30T15:52:37.574Z</time>
      </trkpt>
      <trkpt lat="44.36377" lon="3.70994">
        <ele>833.160559</ele>
        <time>2021-04-30T15:52:43.664Z</time>
      </trkpt>
      <trkpt lat="44.36394" lon="3.70933">
        <ele>833.086836</ele>
        <time>2021-04-30T15:52:52.416Z</time>
      </trkpt>
      <trkpt lat="44.36401" lon="3.70866">
        <ele>833.129306</ele>
        <time>2021-04-30T15:53:03.977Z</time>
      </trkpt>
      <trkpt lat="44.36414" lon="3.70833">
        <ele>833.153266</ele>
        <time>2021-04-30T15:53:11.531Z</time>
      </trkpt>
      <trkpt lat="44.36469" lon="3.70763">
        <ele>832.745161</ele>
        <time>2021-04-30T15:53:33.335Z</time>
      </trkpt>
      <trkpt lat="44.36508" lon="3.70729">
        <ele>831.284245</ele>
        <time>2021-04-30T15:53:44.485Z</time>
      </trkpt>
      <trkpt lat="44.3654" lon="3.7072">
        <ele>830.230107</ele>
        <time>2021-04-30T15:53:50.651Z</time>
      </trkpt>
      <trkpt lat="44.36572" lon="3.7073">
        <ele>829.174645</ele>
        <time>2021-04-30T15:53:55.921Z</time>
      </trkpt>
      <trkpt lat="44.36588" lon="3.70723">
        <ele>828.651482</ele>
        <time>2021-04-30T15:53:58.303Z</time>
      </trkpt>
      <trkpt lat="44.36631" lon="3.70673">
        <ele>825.340417</ele>
        <time>2021-04-30T15:54:06.092Z</time>
      </trkpt>
      <trkpt lat="44.36653" lon="3.70631">
        <ele>821.053149</ele>
        <time>2021-04-30T15:54:11.076Z</time>
      </trkpt>
      <trkpt lat="44.36673" lon="3.70606">
        <ele>817.94365</ele>
        <time>2021-04-30T15:54:14.637Z</time>
      </trkpt>
      <trkpt lat="44.36689" lon="3.70544">
        <ele>812.481486</ele>
        <time>2021-04-30T15:54:20.861Z</time>
      </trkpt>
      <trkpt lat="44.36683" lon="3.70526">
        <ele>810.820524</ele>
        <time>2021-04-30T15:54:22.758Z</time>
      </trkpt>
      <trkpt lat="44.36669" lon="3.70519">
        <ele>809.061705</ele>
        <time>2021-04-30T15:54:24.757Z</time>
      </trkpt>
      <trkpt lat="44.36642" lon="3.70537">
        <ele>805.895187</ele>
        <time>2021-04-30T15:54:28.625Z</time>
      </trkpt>
      <trkpt lat="44.3663" lon="3.70536">
        <ele>804.879782</ele>
        <time>2021-04-30T15:54:30.151Z</time>
      </trkpt>
      <trkpt lat="44.36621" lon="3.70521">
        <ele>803.637934</ele>
        <time>2021-04-30T15:54:32.050Z</time>
      </trkpt>
      <trkpt lat="44.36619" lon="3.70504">
        <ele>802.566976</ele>
        <time>2021-04-30T15:54:33.697Z</time>
      </trkpt>
      <trkpt lat="44.36653" lon="3.70375">
        <ele>793.962244</ele>
        <time>2021-04-30T15:54:47.431Z</time>
      </trkpt>
      <trkpt lat="44.36684" lon="3.70225">
        <ele>787.450663</ele>
        <time>2021-04-30T15:55:04.705Z</time>
      </trkpt>
      <trkpt lat="44.36682" lon="3.70182">
        <ele>786.070356</ele>
        <time>2021-04-30T15:55:09.573Z</time>
      </trkpt>
      <trkpt lat="44.36671" lon="3.70117">
        <ele>783.908603</ele>
        <time>2021-04-30T15:55:17.132Z</time>
      </trkpt>
      <trkpt lat="44.36673" lon="3.70095">
        <ele>783.191359</ele>
        <time>2021-04-30T15:55:19.597Z</time>
      </trkpt>
      <trkpt lat="44.36682" lon="3.70052">
        <ele>781.166539</ele>
        <time>2021-04-30T15:55:24.485Z</time>
      </trkpt>
      <trkpt lat="44.3672" lon="3.70005">
        <ele>777.667538</ele>
        <time>2021-04-30T15:55:31.909Z</time>
      </trkpt>
      <trkpt lat="44.36719" lon="3.69984">
        <ele>776.593554</ele>
        <time>2021-04-30T15:55:34.102Z</time>
      </trkpt>
      <trkpt lat="44.36701" lon="3.69965">
        <ele>775.033556</ele>
        <time>2021-04-30T15:55:37.265Z</time>
      </trkpt>
      <trkpt lat="44.36603" lon="3.69915">
        <ele>767.49099</ele>
        <time>2021-04-30T15:55:51.794Z</time>
      </trkpt>
      <trkpt lat="44.36584" lon="3.6989">
        <ele>765.546293</ele>
        <time>2021-04-30T15:55:55.351Z</time>
      </trkpt>
      <trkpt lat="44.36568" lon="3.69854">
        <ele>763.244371</ele>
        <time>2021-04-30T15:55:59.609Z</time>
      </trkpt>
      <trkpt lat="44.36535" lon="3.69809">
        <ele>759.724474</ele>
        <time>2021-04-30T15:56:06.163Z</time>
      </trkpt>
      <trkpt lat="44.36525" lon="3.69786">
        <ele>758.26696</ele>
        <time>2021-04-30T15:56:08.907Z</time>
      </trkpt>
      <trkpt lat="44.36491" lon="3.69574">
        <ele>749.804912</ele>
        <time>2021-04-30T15:56:32.195Z</time>
      </trkpt>
      <trkpt lat="44.3648" lon="3.69537">
        <ele>748.362354</ele>
        <time>2021-04-30T15:56:36.674Z</time>
      </trkpt>
      <trkpt lat="44.36381" lon="3.69325">
        <ele>740.967247</ele>
        <time>2021-04-30T15:57:05.082Z</time>
      </trkpt>
      <trkpt lat="44.36369" lon="3.69287">
        <ele>739.802613</ele>
        <time>2021-04-30T15:57:09.904Z</time>
      </trkpt>
      <trkpt lat="44.36369" lon="3.69244">
        <ele>738.688389</ele>
        <time>2021-04-30T15:57:14.809Z</time>
      </trkpt>
      <trkpt lat="44.36362" lon="3.69203">
        <ele>737.60436</ele>
        <time>2021-04-30T15:57:19.604Z</time>
      </trkpt>
      <trkpt lat="44.36362" lon="3.69176">
        <ele>736.902173</ele>
        <time>2021-04-30T15:57:22.720Z</time>
      </trkpt>
      <trkpt lat="44.3637" lon="3.6908">
        <ele>734.390157</ele>
        <time>2021-04-30T15:57:33.895Z</time>
      </trkpt>
      <trkpt lat="44.36388" lon="3.68993">
        <ele>731.89467</ele>
        <time>2021-04-30T15:57:44.288Z</time>
      </trkpt>
      <trkpt lat="44.36408" lon="3.68957">
        <ele>730.614096</ele>
        <time>2021-04-30T15:57:49.460Z</time>
      </trkpt>
      <trkpt lat="44.36438" lon="3.68885">
        <ele>728.268748</ele>
        <time>2021-04-30T15:57:58.699Z</time>
      </trkpt>
      <trkpt lat="44.36441" lon="3.68849">
        <ele>727.255372</ele>
        <time>2021-04-30T15:58:02.662Z</time>
      </trkpt>
      <trkpt lat="44.36433" lon="3.6875">
        <ele>725.462971</ele>
        <time>2021-04-30T15:58:13.955Z</time>
      </trkpt>
      <trkpt lat="44.3642" lon="3.68715">
        <ele>724.87737</ele>
        <time>2021-04-30T15:58:18.516Z</time>
      </trkpt>
      <trkpt lat="44.36401" lon="3.68691">
        <ele>724.327616</ele>
        <time>2021-04-30T15:58:22.961Z</time>
      </trkpt>
      <trkpt lat="44.36345" lon="3.68657">
        <ele>723.045124</ele>
        <time>2021-04-30T15:58:34.915Z</time>
      </trkpt>
      <trkpt lat="44.36336" lon="3.68641">
        <ele>722.960247</ele>
        <time>2021-04-30T15:58:38.518Z</time>
      </trkpt>
      <trkpt lat="44.36335" lon="3.68623">
        <ele>723.149733</ele>
        <time>2021-04-30T15:58:42.114Z</time>
      </trkpt>
      <trkpt lat="44.36351" lon="3.68558">
        <ele>723.870141</ele>
        <time>2021-04-30T15:58:57.408Z</time>
      </trkpt>
      <trkpt lat="44.36448" lon="3.68502">
        <ele>725.398526</ele>
        <time>2021-04-30T15:59:30.027Z</time>
      </trkpt>
      <trkpt lat="44.3646" lon="3.68491">
        <ele>725.282595</ele>
        <time>2021-04-30T15:59:33.674Z</time>
      </trkpt>
      <trkpt lat="44.36478" lon="3.68461">
        <ele>724.400946</ele>
        <time>2021-04-30T15:59:40.187Z</time>
      </trkpt>
      <trkpt lat="44.36479" lon="3.6845">
        <ele>724.149191</ele>
        <time>2021-04-30T15:59:41.700Z</time>
      </trkpt>
      <trkpt lat="44.36477" lon="3.68437">
        <ele>723.862557</ele>
        <time>2021-04-30T15:59:43.355Z</time>
      </trkpt>
      <trkpt lat="44.3647" lon="3.68429">
        <ele>723.574249</ele>
        <time>2021-04-30T15:59:45.191Z</time>
      </trkpt>
      <trkpt lat="44.36461" lon="3.68425">
        <ele>723.293321</ele>
        <time>2021-04-30T15:59:46.970Z</time>
      </trkpt>
      <trkpt lat="44.36449" lon="3.68427">
        <ele>722.904127</ele>
        <time>2021-04-30T15:59:48.915Z</time>
      </trkpt>
      <trkpt lat="44.36413" lon="3.6845">
        <ele>721.646433</ele>
        <time>2021-04-30T15:59:55.237Z</time>
      </trkpt>
      <trkpt lat="44.36396" lon="3.6845">
        <ele>721.097933</ele>
        <time>2021-04-30T15:59:57.918Z</time>
      </trkpt>
      <trkpt lat="44.36343" lon="3.68423">
        <ele>718.599957</ele>
        <time>2021-04-30T16:00:05.978Z</time>
      </trkpt>
      <trkpt lat="44.3631" lon="3.68431">
        <ele>716.016835</ele>
        <time>2021-04-30T16:00:10.640Z</time>
      </trkpt>
      <trkpt lat="44.36272" lon="3.68459">
        <ele>712.802489</ele>
        <time>2021-04-30T16:00:16.534Z</time>
      </trkpt>
      <trkpt lat="44.3619" lon="3.68549">
        <ele>705.170545</ele>
        <time>2021-04-30T16:00:31.323Z</time>
      </trkpt>
      <trkpt lat="44.36176" lon="3.68555">
        <ele>704.406642</ele>
        <time>2021-04-30T16:00:33.409Z</time>
      </trkpt>
      <trkpt lat="44.36151" lon="3.68554">
        <ele>703.098212</ele>
        <time>2021-04-30T16:00:37.019Z</time>
      </trkpt>
      <trkpt lat="44.36141" lon="3.68547">
        <ele>702.531344</ele>
        <time>2021-04-30T16:00:38.612Z</time>
      </trkpt>
      <trkpt lat="44.36129" lon="3.68525">
        <ele>701.469831</ele>
        <time>2021-04-30T16:00:41.617Z</time>
      </trkpt>
      <trkpt lat="44.36135" lon="3.68425">
        <ele>697.667348</ele>
        <time>2021-04-30T16:00:52.816Z</time>
      </trkpt>
      <trkpt lat="44.36205" lon="3.68247">
        <ele>691.794655</ele>
        <time>2021-04-30T16:01:16.120Z</time>
      </trkpt>
      <trkpt lat="44.36209" lon="3.68083">
        <ele>687.332385</ele>
        <time>2021-04-30T16:01:34.391Z</time>
      </trkpt>
      <trkpt lat="44.36202" lon="3.68057">
        <ele>686.571577</ele>
        <time>2021-04-30T16:01:37.528Z</time>
      </trkpt>
      <trkpt lat="44.36177" lon="3.68024">
        <ele>685.291186</ele>
        <time>2021-04-30T16:01:42.805Z</time>
      </trkpt>
      <trkpt lat="44.36147" lon="3.68013">
        <ele>684.105816</ele>
        <time>2021-04-30T16:01:47.795Z</time>
      </trkpt>
      <trkpt lat="44.36127" lon="3.67993">
        <ele>683.173827</ele>
        <time>2021-04-30T16:01:51.841Z</time>
      </trkpt>
      <trkpt lat="44.36117" lon="3.6794">
        <ele>682.691237</ele>
        <time>2021-04-30T16:01:58.567Z</time>
      </trkpt>
      <trkpt lat="44.36082" lon="3.67862">
        <ele>682.271609</ele>
        <time>2021-04-30T16:02:11.420Z</time>
      </trkpt>
      <trkpt lat="44.36063" lon="3.67799">
        <ele>681.959847</ele>
        <time>2021-04-30T16:02:22.848Z</time>
      </trkpt>
      <trkpt lat="44.36062" lon="3.67781">
        <ele>681.879655</ele>
        <time>2021-04-30T16:02:26.061Z</time>
      </trkpt>
      <trkpt lat="44.36085" lon="3.67719">
        <ele>681.831372</ele>
        <time>2021-04-30T16:02:39.132Z</time>
      </trkpt>
      <trkpt lat="44.36123" lon="3.67657">
        <ele>682.012816</ele>
        <time>2021-04-30T16:02:54.102Z</time>
      </trkpt>
      <trkpt lat="44.36137" lon="3.6761">
        <ele>682.126107</ele>
        <time>2021-04-30T16:03:02.951Z</time>
      </trkpt>
      <trkpt lat="44.36163" lon="3.67552">
        <ele>682.278041</ele>
        <time>2021-04-30T16:03:13.778Z</time>
      </trkpt>
      <trkpt lat="44.36188" lon="3.67472">
        <ele>681.160282</ele>
        <time>2021-04-30T16:03:25.755Z</time>
      </trkpt>
      <trkpt lat="44.36204" lon="3.6739">
        <ele>679.891435</ele>
        <time>2021-04-30T16:03:36.675Z</time>
      </trkpt>
      <trkpt lat="44.36228" lon="3.67323">
        <ele>678.765101</ele>
        <time>2021-04-30T16:03:45.478Z</time>
      </trkpt>
      <trkpt lat="44.36263" lon="3.67265">
        <ele>676.528999</ele>
        <time>2021-04-30T16:03:54.002Z</time>
      </trkpt>
      <trkpt lat="44.36265" lon="3.67229">
        <ele>675.336281</ele>
        <time>2021-04-30T16:03:58.065Z</time>
      </trkpt>
      <trkpt lat="44.36261" lon="3.67217">
        <ele>674.921559</ele>
        <time>2021-04-30T16:03:59.417Z</time>
      </trkpt>
      <trkpt lat="44.36237" lon="3.67155">
        <ele>672.57309</ele>
        <time>2021-04-30T16:04:07.140Z</time>
      </trkpt>
      <trkpt lat="44.36213" lon="3.67099">
        <ele>670.436233</ele>
        <time>2021-04-30T16:04:14.125Z</time>
      </trkpt>
      <trkpt lat="44.36132" lon="3.67006">
        <ele>665.39331</ele>
        <time>2021-04-30T16:04:29.805Z</time>
      </trkpt>
      <trkpt lat="44.36095" lon="3.66983">
        <ele>663.475353</ele>
        <time>2021-04-30T16:04:35.931Z</time>
      </trkpt>
      <trkpt lat="44.36053" lon="3.66985">
        <ele>661.499719</ele>
        <time>2021-04-30T16:04:42.495Z</time>
      </trkpt>
      <trkpt lat="44.35973" lon="3.66953">
        <ele>659.081086</ele>
        <time>2021-04-30T16:04:55.759Z</time>
      </trkpt>
      <trkpt lat="44.35959" lon="3.66945">
        <ele>658.625899</ele>
        <time>2021-04-30T16:04:58.345Z</time>
      </trkpt>
      <trkpt lat="44.35918" lon="3.66895">
        <ele>657.058668</ele>
        <time>2021-04-30T16:05:07.552Z</time>
      </trkpt>
      <trkpt lat="44.35882" lon="3.66879">
        <ele>656.259355</ele>
        <time>2021-04-30T16:05:14.431Z</time>
      </trkpt>
      <trkpt lat="44.3584" lon="3.66875">
        <ele>655.984293</ele>
        <time>2021-04-30T16:05:22.230Z</time>
      </trkpt>
      <trkpt lat="44.35795" lon="3.66826">
        <ele>655.611751</ele>
        <time>2021-04-30T16:05:33.819Z</time>
      </trkpt>
      <trkpt lat="44.35727" lon="3.66788">
        <ele>655.154614</ele>
        <time>2021-04-30T16:05:50.431Z</time>
      </trkpt>
      <trkpt lat="44.35714" lon="3.66772">
        <ele>655.113933</ele>
        <time>2021-04-30T16:05:54.621Z</time>
      </trkpt>
      <trkpt lat="44.35702" lon="3.66742">
        <ele>655.056734</ele>
        <time>2021-04-30T16:06:00.473Z</time>
      </trkpt>
      <trkpt lat="44.35708" lon="3.66598">
        <ele>654.814874</ele>
        <time>2021-04-30T16:06:22.571Z</time>
      </trkpt>
      <trkpt lat="44.35701" lon="3.66551">
        <ele>654.644501</ele>
        <time>2021-04-30T16:06:29.522Z</time>
      </trkpt>
      <trkpt lat="44.35694" lon="3.66523">
        <ele>654.2711</ele>
        <time>2021-04-30T16:06:33.620Z</time>
      </trkpt>
      <trkpt lat="44.35692" lon="3.66502">
        <ele>654.002835</ele>
        <time>2021-04-30T16:06:36.573Z</time>
      </trkpt>
      <trkpt lat="44.35704" lon="3.66378">
        <ele>652.425523</ele>
        <time>2021-04-30T16:06:52.700Z</time>
      </trkpt>
      <trkpt lat="44.35706" lon="3.66268">
        <ele>650.632804</ele>
        <time>2021-04-30T16:07:05.955Z</time>
      </trkpt>
      <trkpt lat="44.35727" lon="3.66136">
        <ele>647.711645</ele>
        <time>2021-04-30T16:07:21.747Z</time>
      </trkpt>
      <trkpt lat="44.35727" lon="3.66114">
        <ele>647.218426</ele>
        <time>2021-04-30T16:07:24.389Z</time>
      </trkpt>
      <trkpt lat="44.3572" lon="3.661">
        <ele>646.868416</ele>
        <time>2021-04-30T16:07:26.248Z</time>
      </trkpt>
      <trkpt lat="44.35709" lon="3.66093">
        <ele>646.489219</ele>
        <time>2021-04-30T16:07:28.220Z</time>
      </trkpt>
      <trkpt lat="44.35641" lon="3.66087">
        <ele>645.18496</ele>
        <time>2021-04-30T16:07:39.443Z</time>
      </trkpt>
      <trkpt lat="44.35586" lon="3.66051">
        <ele>644.177166</ele>
        <time>2021-04-30T16:07:50.393Z</time>
      </trkpt>
      <trkpt lat="44.35559" lon="3.66019">
        <ele>643.584711</ele>
        <time>2021-04-30T16:07:57.476Z</time>
      </trkpt>
      <trkpt lat="44.35553" lon="3.66014">
        <ele>643.480704</ele>
        <time>2021-04-30T16:07:58.548Z</time>
      </trkpt>
      <trkpt lat="44.35547" lon="3.6601">
        <ele>643.370954</ele>
        <time>2021-04-30T16:08:00.688Z</time>
      </trkpt>
      <trkpt lat="44.35525" lon="3.65993">
        <ele>643.119492</ele>
        <time>2021-04-30T16:08:05.870Z</time>
      </trkpt>
      <trkpt lat="44.35518" lon="3.65965">
        <ele>643.113311</ele>
        <time>2021-04-30T16:08:11.005Z</time>
      </trkpt>
      <trkpt lat="44.35532" lon="3.65887">
        <ele>643.096355</ele>
        <time>2021-04-30T16:08:24.346Z</time>
      </trkpt>
      <trkpt lat="44.35538" lon="3.65871">
        <ele>643.092411</ele>
        <time>2021-04-30T16:08:28.008Z</time>
      </trkpt>
      <trkpt lat="44.35576" lon="3.65818">
        <ele>643.076523</ele>
        <time>2021-04-30T16:08:40.851Z</time>
      </trkpt>
      <trkpt lat="44.35612" lon="3.65754">
        <ele>642.261078</ele>
        <time>2021-04-30T16:08:52.326Z</time>
      </trkpt>
      <trkpt lat="44.35661" lon="3.65628">
        <ele>639.769891</ele>
        <time>2021-04-30T16:09:09.738Z</time>
      </trkpt>
      <trkpt lat="44.35673" lon="3.65564">
        <ele>638.573338</ele>
        <time>2021-04-30T16:09:17.275Z</time>
      </trkpt>
      <trkpt lat="44.3567" lon="3.65536">
        <ele>637.809324</ele>
        <time>2021-04-30T16:09:20.474Z</time>
      </trkpt>
      <trkpt lat="44.35614" lon="3.65339">
        <ele>632.170515</ele>
        <time>2021-04-30T16:09:44.505Z</time>
      </trkpt>
      <trkpt lat="44.35616" lon="3.65287">
        <ele>630.960295</ele>
        <time>2021-04-30T16:09:50.674Z</time>
      </trkpt>
      <trkpt lat="44.35627" lon="3.65243">
        <ele>629.905632</ele>
        <time>2021-04-30T16:09:55.895Z</time>
      </trkpt>
      <trkpt lat="44.35624" lon="3.6521">
        <ele>629.130731</ele>
        <time>2021-04-30T16:09:59.829Z</time>
      </trkpt>
      <trkpt lat="44.35614" lon="3.65191">
        <ele>628.604781</ele>
        <time>2021-04-30T16:10:02.442Z</time>
      </trkpt>
      <trkpt lat="44.35599" lon="3.65177">
        <ele>628.019742</ele>
        <time>2021-04-30T16:10:05.456Z</time>
      </trkpt>
      <trkpt lat="44.3557" lon="3.65177">
        <ele>627.086586</ele>
        <time>2021-04-30T16:10:10.238Z</time>
      </trkpt>
      <trkpt lat="44.3556" lon="3.65182">
        <ele>626.758147</ele>
        <time>2021-04-30T16:10:11.963Z</time>
      </trkpt>
      <trkpt lat="44.35558" lon="3.65183">
        <ele>626.689234</ele>
        <time>2021-04-30T16:10:12.309Z</time>
      </trkpt>
      <trkpt lat="44.35543" lon="3.65191">
        <ele>626.196208</ele>
        <time>2021-04-30T16:10:14.949Z</time>
      </trkpt>
      <trkpt lat="44.35529" lon="3.65198">
        <ele>625.843052</ele>
        <time>2021-04-30T16:10:17.494Z</time>
      </trkpt>
      <trkpt lat="44.35515" lon="3.652">
        <ele>625.5071</ele>
        <time>2021-04-30T16:10:19.856Z</time>
      </trkpt>
      <trkpt lat="44.35489" lon="3.6519">
        <ele>624.868135</ele>
        <time>2021-04-30T16:10:24.521Z</time>
      </trkpt>
      <trkpt lat="44.35445" lon="3.6514">
        <ele>623.530337</ele>
        <time>2021-04-30T16:10:34.123Z</time>
      </trkpt>
      <trkpt lat="44.35435" lon="3.65121">
        <ele>623.148537</ele>
        <time>2021-04-30T16:10:36.871Z</time>
      </trkpt>
      <trkpt lat="44.35428" lon="3.65096">
        <ele>622.700861</ele>
        <time>2021-04-30T16:10:40.032Z</time>
      </trkpt>
      <trkpt lat="44.35422" lon="3.65016">
        <ele>621.872472</ele>
        <time>2021-04-30T16:10:50.663Z</time>
      </trkpt>
      <trkpt lat="44.35422" lon="3.65008">
        <ele>621.841286</ele>
        <time>2021-04-30T16:10:51.864Z</time>
      </trkpt>
      <trkpt lat="44.3542" lon="3.64975">
        <ele>621.722574</ele>
        <time>2021-04-30T16:10:56.635Z</time>
      </trkpt>
      <trkpt lat="44.35419" lon="3.64938">
        <ele>621.591175</ele>
        <time>2021-04-30T16:11:01.970Z</time>
      </trkpt>
      <trkpt lat="44.3543" lon="3.64872">
        <ele>621.347356</ele>
        <time>2021-04-30T16:11:12.432Z</time>
      </trkpt>
      <trkpt lat="44.35444" lon="3.64748">
        <ele>621.482922</ele>
        <time>2021-04-30T16:11:33.415Z</time>
      </trkpt>
      <trkpt lat="44.35468" lon="3.64672">
        <ele>621.987497</ele>
        <time>2021-04-30T16:11:48.786Z</time>
      </trkpt>
      <trkpt lat="44.35473" lon="3.6463">
        <ele>622.248389</ele>
        <time>2021-04-30T16:11:57.164Z</time>
      </trkpt>
      <trkpt lat="44.35478" lon="3.64615">
        <ele>622.349512</ele>
        <time>2021-04-30T16:12:00.368Z</time>
      </trkpt>
      <trkpt lat="44.35513" lon="3.6457">
        <ele>622.894929</ele>
        <time>2021-04-30T16:12:13.517Z</time>
      </trkpt>
      <trkpt lat="44.35558" lon="3.64475">
        <ele>624.450736</ele>
        <time>2021-04-30T16:12:35.551Z</time>
      </trkpt>
      <trkpt lat="44.35627" lon="3.6426">
        <ele>628.293676</ele>
        <time>2021-04-30T16:13:30.711Z</time>
      </trkpt>
      <trkpt lat="44.35637" lon="3.64241">
        <ele>628.739913</ele>
        <time>2021-04-30T16:13:37.070Z</time>
      </trkpt>
      <trkpt lat="44.35647" lon="3.64234">
        <ele>629.051039</ele>
        <time>2021-04-30T16:13:40.433Z</time>
      </trkpt>
      <trkpt lat="44.35662" lon="3.64236">
        <ele>629.468358</ele>
        <time>2021-04-30T16:13:48.080Z</time>
      </trkpt>
      <trkpt lat="44.35698" lon="3.64251">
        <ele>630.465031</ele>
        <time>2021-04-30T16:14:00.433Z</time>
      </trkpt>
      <trkpt lat="44.35748" lon="3.64259">
        <ele>630.650453</ele>
        <time>2021-04-30T16:14:12.745Z</time>
      </trkpt>
      <trkpt lat="44.35799" lon="3.64287">
        <ele>630.247485</ele>
        <time>2021-04-30T16:14:27.288Z</time>
      </trkpt>
      <trkpt lat="44.35813" lon="3.6429">
        <ele>630.144726</ele>
        <time>2021-04-30T16:14:30.182Z</time>
      </trkpt>
      <trkpt lat="44.35819" lon="3.64287">
        <ele>630.101012</ele>
        <time>2021-04-30T16:14:31.165Z</time>
      </trkpt>
      <trkpt lat="44.35824" lon="3.64284">
        <ele>630.059524</ele>
        <time>2021-04-30T16:14:32.112Z</time>
      </trkpt>
      <trkpt lat="44.35831" lon="3.64276">
        <ele>629.992814</ele>
        <time>2021-04-30T16:14:33.734Z</time>
      </trkpt>
      <trkpt lat="44.35836" lon="3.64263">
        <ele>629.916422</ele>
        <time>2021-04-30T16:14:35.834Z</time>
      </trkpt>
      <trkpt lat="44.35836" lon="3.64262">
        <ele>629.911159</ele>
        <time>2021-04-30T16:14:35.933Z</time>
      </trkpt>
      <trkpt lat="44.35835" lon="3.64244">
        <ele>629.819806</ele>
        <time>2021-04-30T16:14:37.943Z</time>
      </trkpt>
      <trkpt lat="44.35813" lon="3.64197">
        <ele>629.291022</ele>
        <time>2021-04-30T16:14:44.544Z</time>
      </trkpt>
      <trkpt lat="44.35789" lon="3.64167">
        <ele>628.085377</ele>
        <time>2021-04-30T16:14:49.667Z</time>
      </trkpt>
      <trkpt lat="44.35719" lon="3.64146">
        <ele>625.435981</ele>
        <time>2021-04-30T16:15:00.574Z</time>
      </trkpt>
      <trkpt lat="44.35698" lon="3.64132">
        <ele>624.584664</ele>
        <time>2021-04-30T16:15:04.336Z</time>
      </trkpt>
      <trkpt lat="44.3568" lon="3.6411">
        <ele>623.702066</ele>
        <time>2021-04-30T16:15:08.241Z</time>
      </trkpt>
      <trkpt lat="44.35659" lon="3.64068">
        <ele>622.406354</ele>
        <time>2021-04-30T16:15:14.373Z</time>
      </trkpt>
      <trkpt lat="44.35645" lon="3.64013">
        <ele>621.094995</ele>
        <time>2021-04-30T16:15:21.121Z</time>
      </trkpt>
      <trkpt lat="44.35604" lon="3.63898">
        <ele>618.15219</ele>
        <time>2021-04-30T16:15:36.148Z</time>
      </trkpt>
      <trkpt lat="44.35568" lon="3.63853">
        <ele>616.751313</ele>
        <time>2021-04-30T16:15:43.931Z</time>
      </trkpt>
      <trkpt lat="44.35544" lon="3.63836">
        <ele>616.049545</ele>
        <time>2021-04-30T16:15:48.431Z</time>
      </trkpt>
      <trkpt lat="44.35507" lon="3.63784">
        <ele>614.71081</ele>
        <time>2021-04-30T16:15:57.161Z</time>
      </trkpt>
      <trkpt lat="44.35455" lon="3.63737">
        <ele>613.121066</ele>
        <time>2021-04-30T16:16:07.743Z</time>
      </trkpt>
      <trkpt lat="44.35448" lon="3.63721">
        <ele>612.784767</ele>
        <time>2021-04-30T16:16:10.025Z</time>
      </trkpt>
      <trkpt lat="44.35409" lon="3.63395">
        <ele>609.661028</ele>
        <time>2021-04-30T16:16:54.227Z</time>
      </trkpt>
      <trkpt lat="44.35409" lon="3.63321">
        <ele>609.314678</ele>
        <time>2021-04-30T16:17:04.676Z</time>
      </trkpt>
      <trkpt lat="44.35418" lon="3.63242">
        <ele>608.938038</ele>
        <time>2021-04-30T16:17:16.399Z</time>
      </trkpt>
      <trkpt lat="44.35411" lon="3.63179">
        <ele>609.289313</ele>
        <time>2021-04-30T16:17:26.920Z</time>
      </trkpt>
      <trkpt lat="44.35414" lon="3.6308">
        <ele>610.684194</ele>
        <time>2021-04-30T16:17:47.099Z</time>
      </trkpt>
      <trkpt lat="44.35403" lon="3.63053">
        <ele>611.125067</ele>
        <time>2021-04-30T16:17:54.457Z</time>
      </trkpt>
      <trkpt lat="44.3537" lon="3.62997">
        <ele>612.14946</ele>
        <time>2021-04-30T16:18:12.725Z</time>
      </trkpt>
      <trkpt lat="44.35361" lon="3.62994">
        <ele>612.329237</ele>
        <time>2021-04-30T16:18:15.949Z</time>
      </trkpt>
      <trkpt lat="44.35328" lon="3.63007">
        <ele>613.038316</ele>
        <time>2021-04-30T16:18:28.144Z</time>
      </trkpt>
      <trkpt lat="44.35282" lon="3.62982">
        <ele>614.082752</ele>
        <time>2021-04-30T16:18:46.041Z</time>
      </trkpt>
      <trkpt lat="44.35238" lon="3.62975">
        <ele>614.997644</ele>
        <time>2021-04-30T16:19:00.102Z</time>
      </trkpt>
      <trkpt lat="44.35175" lon="3.62991">
        <ele>615.812777</ele>
        <time>2021-04-30T16:19:16.604Z</time>
      </trkpt>
      <trkpt lat="44.35152" lon="3.63005">
        <ele>615.154811</ele>
        <time>2021-04-30T16:19:21.501Z</time>
      </trkpt>
      <trkpt lat="44.35066" lon="3.63106">
        <ele>612.25174</ele>
        <time>2021-04-30T16:19:39.686Z</time>
      </trkpt>
      <trkpt lat="44.3502" lon="3.63134">
        <ele>610.873145</ele>
        <time>2021-04-30T16:19:47.408Z</time>
      </trkpt>
      <trkpt lat="44.34982" lon="3.63136">
        <ele>609.724941</ele>
        <time>2021-04-30T16:19:53.356Z</time>
      </trkpt>
      <trkpt lat="44.34936" lon="3.63105">
        <ele>608.194806</ele>
        <time>2021-04-30T16:20:01.600Z</time>
      </trkpt>
      <trkpt lat="44.34931" lon="3.63087">
        <ele>607.78351</ele>
        <time>2021-04-30T16:20:03.902Z</time>
      </trkpt>
      <trkpt lat="44.34928" lon="3.63043">
        <ele>606.826984</ele>
        <time>2021-04-30T16:20:09.486Z</time>
      </trkpt>
      <trkpt lat="44.34931" lon="3.62931">
        <ele>605.176178</ele>
        <time>2021-04-30T16:20:24.409Z</time>
      </trkpt>
      <trkpt lat="44.34925" lon="3.62851">
        <ele>604.262601</ele>
        <time>2021-04-30T16:20:34.961Z</time>
      </trkpt>
      <trkpt lat="44.34894" lon="3.62791">
        <ele>603.415749</ele>
        <time>2021-04-30T16:20:44.420Z</time>
      </trkpt>
      <trkpt lat="44.34895" lon="3.62745">
        <ele>603.11948</ele>
        <time>2021-04-30T16:20:50.422Z</time>
      </trkpt>
      <trkpt lat="44.34906" lon="3.62684">
        <ele>602.998386</ele>
        <time>2021-04-30T16:20:58.647Z</time>
      </trkpt>
      <trkpt lat="44.34904" lon="3.62669">
        <ele>602.967991</ele>
        <time>2021-04-30T16:21:00.810Z</time>
      </trkpt>
      <trkpt lat="44.34891" lon="3.62641">
        <ele>602.90211</ele>
        <time>2021-04-30T16:21:05.144Z</time>
      </trkpt>
      <trkpt lat="44.34893" lon="3.62611">
        <ele>602.843147</ele>
        <time>2021-04-30T16:21:09.191Z</time>
      </trkpt>
      <trkpt lat="44.34885" lon="3.62562">
        <ele>602.746249</ele>
        <time>2021-04-30T16:21:16.046Z</time>
      </trkpt>
      <trkpt lat="44.34874" lon="3.62529">
        <ele>602.686286</ele>
        <time>2021-04-30T16:21:23.959Z</time>
      </trkpt>
      <trkpt lat="44.34883" lon="3.62399">
        <ele>607.728493</ele>
        <time>2021-04-30T16:22:05.008Z</time>
      </trkpt>
      <trkpt lat="44.3488" lon="3.62356">
        <ele>609.401472</ele>
        <time>2021-04-30T16:22:21.170Z</time>
      </trkpt>
      <trkpt lat="44.34877" lon="3.62324">
        <ele>610.638753</ele>
        <time>2021-04-30T16:22:33.246Z</time>
      </trkpt>
      <trkpt lat="44.34876" lon="3.6232">
        <ele>610.787879</ele>
        <time>2021-04-30T16:22:34.608Z</time>
      </trkpt>
      <trkpt lat="44.34857" lon="3.62229">
        <ele>612.742106</ele>
        <time>2021-04-30T16:23:06.580Z</time>
      </trkpt>
      <trkpt lat="44.34849" lon="3.62197">
        <ele>612.963078</ele>
        <time>2021-04-30T16:23:16.857Z</time>
      </trkpt>
      <trkpt lat="44.34834" lon="3.62164">
        <ele>613.222018</ele>
        <time>2021-04-30T16:23:26.039Z</time>
      </trkpt>
      <trkpt lat="44.34826" lon="3.62143">
        <ele>613.376483</ele>
        <time>2021-04-30T16:23:31.683Z</time>
      </trkpt>
      <trkpt lat="44.34817" lon="3.62122">
        <ele>613.541165</ele>
        <time>2021-04-30T16:23:35.978Z</time>
      </trkpt>
      <trkpt lat="44.34792" lon="3.62068">
        <ele>613.964184</ele>
        <time>2021-04-30T16:23:43.445Z</time>
      </trkpt>
      <trkpt lat="44.34739" lon="3.61968">
        <ele>606.47515</ele>
        <time>2021-04-30T16:23:55.694Z</time>
      </trkpt>
      <trkpt lat="44.34715" lon="3.61906">
        <ele>601.699684</ele>
        <time>2021-04-30T16:24:02.538Z</time>
      </trkpt>
      <trkpt lat="44.34711" lon="3.61899">
        <ele>601.088203</ele>
        <time>2021-04-30T16:24:03.376Z</time>
      </trkpt>
      <trkpt lat="44.34688" lon="3.61872">
        <ele>598.280195</ele>
        <time>2021-04-30T16:24:07.409Z</time>
      </trkpt>
      <trkpt lat="44.34672" lon="3.61855">
        <ele>596.44518</ele>
        <time>2021-04-30T16:24:10.066Z</time>
      </trkpt>
      <trkpt lat="44.34661" lon="3.61842">
        <ele>595.141944</ele>
        <time>2021-04-30T16:24:12.079Z</time>
      </trkpt>
      <trkpt lat="44.34645" lon="3.61816">
        <ele>592.960198</ele>
        <time>2021-04-30T16:24:15.425Z</time>
      </trkpt>
      <trkpt lat="44.34612" lon="3.61739">
        <ele>587.310039</ele>
        <time>2021-04-30T16:24:24.214Z</time>
      </trkpt>
      <trkpt lat="44.34558" lon="3.61609">
        <ele>579.204021</ele>
        <time>2021-04-30T16:24:39.612Z</time>
      </trkpt>
      <trkpt lat="44.3454" lon="3.61556">
        <ele>576.993555</ele>
        <time>2021-04-30T16:24:45.868Z</time>
      </trkpt>
      <trkpt lat="44.34526" lon="3.61496">
        <ele>574.637458</ele>
        <time>2021-04-30T16:24:52.638Z</time>
      </trkpt>
      <trkpt lat="44.34506" lon="3.61411">
        <ele>571.633853</ele>
        <time>2021-04-30T16:25:02.780Z</time>
      </trkpt>
      <trkpt lat="44.34485" lon="3.61345">
        <ele>571.03253</ele>
        <time>2021-04-30T16:25:11.248Z</time>
      </trkpt>
      <trkpt lat="44.34483" lon="3.61334">
        <ele>570.936069</ele>
        <time>2021-04-30T16:25:12.569Z</time>
      </trkpt>
      <trkpt lat="44.34485" lon="3.61297">
        <ele>570.63027</ele>
        <time>2021-04-30T16:25:17.189Z</time>
      </trkpt>
      <trkpt lat="44.34492" lon="3.61238">
        <ele>570.126025</ele>
        <time>2021-04-30T16:25:25.105Z</time>
      </trkpt>
      <trkpt lat="44.34507" lon="3.61086">
        <ele>571.835726</ele>
        <time>2021-04-30T16:26:02.900Z</time>
      </trkpt>
      <trkpt lat="44.34506" lon="3.61077">
        <ele>572.032915</ele>
        <time>2021-04-30T16:26:05.032Z</time>
      </trkpt>
      <trkpt lat="44.34499" lon="3.61059">
        <ele>572.529258</ele>
        <time>2021-04-30T16:26:11.848Z</time>
      </trkpt>
      <trkpt lat="44.34486" lon="3.61044">
        <ele>573.063371</ele>
        <time>2021-04-30T16:26:17.633Z</time>
      </trkpt>
      <trkpt lat="44.34447" lon="3.60999">
        <ele>574.664634</ele>
        <time>2021-04-30T16:26:36.198Z</time>
      </trkpt>
      <trkpt lat="44.34445" lon="3.60994">
        <ele>574.800973</ele>
        <time>2021-04-30T16:26:38.255Z</time>
      </trkpt>
      <trkpt lat="44.34443" lon="3.60974">
        <ele>575.254186</ele>
        <time>2021-04-30T16:26:41.861Z</time>
      </trkpt>
      <trkpt lat="44.34445" lon="3.60886">
        <ele>575.682247</ele>
        <time>2021-04-30T16:27:04.113Z</time>
      </trkpt>
      <trkpt lat="44.34454" lon="3.60844">
        <ele>575.833238</ele>
        <time>2021-04-30T16:27:14.669Z</time>
      </trkpt>
      <trkpt lat="44.34456" lon="3.60832">
        <ele>575.877142</ele>
        <time>2021-04-30T16:27:17.066Z</time>
      </trkpt>
      <trkpt lat="44.34457" lon="3.60824">
        <ele>575.902422</ele>
        <time>2021-04-30T16:27:17.933Z</time>
      </trkpt>
      <trkpt lat="44.34429" lon="3.60682">
        <ele>575.43126</ele>
        <time>2021-04-30T16:27:36.305Z</time>
      </trkpt>
      <trkpt lat="44.34426" lon="3.60611">
        <ele>573.991603</ele>
        <time>2021-04-30T16:27:44.371Z</time>
      </trkpt>
      <trkpt lat="44.34422" lon="3.60586">
        <ele>573.477786</ele>
        <time>2021-04-30T16:27:47.287Z</time>
      </trkpt>
      <trkpt lat="44.34417" lon="3.60572">
        <ele>573.168097</ele>
        <time>2021-04-30T16:27:49.080Z</time>
      </trkpt>
      <trkpt lat="44.34408" lon="3.60554">
        <ele>572.720619</ele>
        <time>2021-04-30T16:27:51.851Z</time>
      </trkpt>
      <trkpt lat="44.34406" lon="3.60548">
        <ele>572.592768</ele>
        <time>2021-04-30T16:27:52.590Z</time>
      </trkpt>
      <trkpt lat="44.34403" lon="3.60543">
        <ele>572.45864</ele>
        <time>2021-04-30T16:27:53.305Z</time>
      </trkpt>
      <trkpt lat="44.34387" lon="3.60511">
        <ele>571.67837</ele>
        <time>2021-04-30T16:27:58.175Z</time>
      </trkpt>
      <trkpt lat="44.34378" lon="3.60487">
        <ele>571.260508</ele>
        <time>2021-04-30T16:28:01.498Z</time>
      </trkpt>
      <trkpt lat="44.34373" lon="3.60474">
        <ele>571.426361</ele>
        <time>2021-04-30T16:28:03.474Z</time>
      </trkpt>
      <trkpt lat="44.34367" lon="3.60447">
        <ele>571.773725</ele>
        <time>2021-04-30T16:28:06.977Z</time>
      </trkpt>
      <trkpt lat="44.3436" lon="3.60421">
        <ele>572.107477</ele>
        <time>2021-04-30T16:28:10.973Z</time>
      </trkpt>
      <trkpt lat="44.34354" lon="3.60405">
        <ele>572.32288</ele>
        <time>2021-04-30T16:28:13.226Z</time>
      </trkpt>
      <trkpt lat="44.34351" lon="3.60393">
        <ele>572.481036</ele>
        <time>2021-04-30T16:28:15.751Z</time>
      </trkpt>
      <trkpt lat="44.34348" lon="3.60382">
        <ele>572.617654</ele>
        <time>2021-04-30T16:28:18.416Z</time>
      </trkpt>
      <trkpt lat="44.34343" lon="3.6036">
        <ele>572.899942</ele>
        <time>2021-04-30T16:28:22.959Z</time>
      </trkpt>
      <trkpt lat="44.34324" lon="3.60279">
        <ele>573.92432</ele>
        <time>2021-04-30T16:28:44.627Z</time>
      </trkpt>
      <trkpt lat="44.34322" lon="3.60235">
        <ele>575.351498</ele>
        <time>2021-04-30T16:28:58.630Z</time>
      </trkpt>
      <trkpt lat="44.34324" lon="3.6021">
        <ele>576.9075</ele>
        <time>2021-04-30T16:29:07.860Z</time>
      </trkpt>
      <trkpt lat="44.3433" lon="3.60168">
        <ele>579.574208</ele>
        <time>2021-04-30T16:29:25.420Z</time>
      </trkpt>
      <trkpt lat="44.34337" lon="3.60132">
        <ele>581.89827</ele>
        <time>2021-04-30T16:29:41.633Z</time>
      </trkpt>
      <trkpt lat="44.34372" lon="3.60051">
        <ele>587.811608</ele>
        <time>2021-04-30T16:30:25.094Z</time>
      </trkpt>
      <trkpt lat="44.34376" lon="3.5994">
        <ele>592.944046</ele>
        <time>2021-04-30T16:31:13.449Z</time>
      </trkpt>
      <trkpt lat="44.34361" lon="3.59893">
        <ele>594.927082</ele>
        <time>2021-04-30T16:31:32.184Z</time>
      </trkpt>
      <trkpt lat="44.34324" lon="3.59599">
        <ele>600.677761</ele>
        <time>2021-04-30T16:32:35.434Z</time>
      </trkpt>
      <trkpt lat="44.34317" lon="3.59576">
        <ele>600.814776</ele>
        <time>2021-04-30T16:32:38.581Z</time>
      </trkpt>
      <trkpt lat="44.34302" lon="3.59563">
        <ele>600.953552</ele>
        <time>2021-04-30T16:32:41.819Z</time>
      </trkpt>
      <trkpt lat="44.34284" lon="3.59559">
        <ele>601.090476</ele>
        <time>2021-04-30T16:32:45.040Z</time>
      </trkpt>
      <trkpt lat="44.34268" lon="3.59566">
        <ele>601.096103</ele>
        <time>2021-04-30T16:32:48.243Z</time>
      </trkpt>
      <trkpt lat="44.342" lon="3.5962">
        <ele>601.100523</ele>
        <time>2021-04-30T16:33:03.890Z</time>
      </trkpt>
      <trkpt lat="44.34131" lon="3.59661">
        <ele>601.104803</ele>
        <time>2021-04-30T16:33:21.524Z</time>
      </trkpt>
      <trkpt lat="44.34095" lon="3.59681">
        <ele>601.855445</ele>
        <time>2021-04-30T16:33:32.841Z</time>
      </trkpt>
      <trkpt lat="44.3399" lon="3.59702">
        <ele>604.672608</ele>
        <time>2021-04-30T16:34:10.124Z</time>
      </trkpt>
      <trkpt lat="44.33903" lon="3.59699">
        <ele>606.620066</ele>
        <time>2021-04-30T16:34:39.628Z</time>
      </trkpt>
      <trkpt lat="44.33784" lon="3.59685">
        <ele>608.771696</ele>
        <time>2021-04-30T16:35:15.671Z</time>
      </trkpt>
      <trkpt lat="44.33765" lon="3.59678">
        <ele>609.066545</ele>
        <time>2021-04-30T16:35:20.459Z</time>
      </trkpt>
      <trkpt lat="44.33695" lon="3.59612">
        <ele>606.599725</ele>
        <time>2021-04-30T16:35:36.998Z</time>
      </trkpt>
      <trkpt lat="44.33678" lon="3.59586">
        <ele>605.87386</ele>
        <time>2021-04-30T16:35:41.288Z</time>
      </trkpt>
      <trkpt lat="44.33666" lon="3.59559">
        <ele>605.205691</ele>
        <time>2021-04-30T16:35:44.886Z</time>
      </trkpt>
      <trkpt lat="44.33628" lon="3.59385">
        <ele>597.532658</ele>
        <time>2021-04-30T16:36:03.455Z</time>
      </trkpt>
      <trkpt lat="44.3361" lon="3.59348">
        <ele>595.115084</ele>
        <time>2021-04-30T16:36:07.897Z</time>
      </trkpt>
      <trkpt lat="44.33576" lon="3.59236">
        <ele>588.908166</ele>
        <time>2021-04-30T16:36:20.130Z</time>
      </trkpt>
      <trkpt lat="44.33572" lon="3.59208">
        <ele>587.687046</ele>
        <time>2021-04-30T16:36:23.056Z</time>
      </trkpt>
      <trkpt lat="44.33555" lon="3.58976">
        <ele>577.929641</ele>
        <time>2021-04-30T16:36:48.147Z</time>
      </trkpt>
      <trkpt lat="44.33557" lon="3.5894">
        <ele>576.53425</ele>
        <time>2021-04-30T16:36:52.214Z</time>
      </trkpt>
      <trkpt lat="44.33596" lon="3.58714">
        <ele>567.605958</ele>
        <time>2021-04-30T16:37:16.836Z</time>
      </trkpt>
      <trkpt lat="44.33595" lon="3.58698">
        <ele>566.996014</ele>
        <time>2021-04-30T16:37:18.475Z</time>
      </trkpt>
      <trkpt lat="44.33595" lon="3.58654">
        <ele>565.386775</ele>
        <time>2021-04-30T16:37:23.360Z</time>
      </trkpt>
      <trkpt lat="44.33597" lon="3.58644">
        <ele>564.991196</ele>
        <time>2021-04-30T16:37:24.406Z</time>
      </trkpt>
      <trkpt lat="44.33599" lon="3.58639">
        <ele>564.754152</ele>
        <time>2021-04-30T16:37:25.067Z</time>
      </trkpt>
      <trkpt lat="44.33602" lon="3.58632">
        <ele>564.491326</ele>
        <time>2021-04-30T16:37:25.838Z</time>
      </trkpt>
      <trkpt lat="44.33603" lon="3.58631">
        <ele>564.393269</ele>
        <time>2021-04-30T16:37:26.144Z</time>
      </trkpt>
      <trkpt lat="44.33605" lon="3.58628">
        <ele>564.253944</ele>
        <time>2021-04-30T16:37:26.574Z</time>
      </trkpt>
      <trkpt lat="44.33606" lon="3.58626">
        <ele>564.135964</ele>
        <time>2021-04-30T16:37:27.007Z</time>
      </trkpt>
      <trkpt lat="44.33608" lon="3.58616">
        <ele>563.792129</ele>
        <time>2021-04-30T16:37:29.021Z</time>
      </trkpt>
      <trkpt lat="44.33607" lon="3.58612">
        <ele>563.632984</ele>
        <time>2021-04-30T16:37:29.434Z</time>
      </trkpt>
      <trkpt lat="44.33605" lon="3.58608">
        <ele>563.436122</ele>
        <time>2021-04-30T16:37:29.978Z</time>
      </trkpt>
      <trkpt lat="44.33597" lon="3.58602">
        <ele>562.958158</ele>
        <time>2021-04-30T16:37:31.253Z</time>
      </trkpt>
      <trkpt lat="44.33593" lon="3.58602">
        <ele>562.770804</ele>
        <time>2021-04-30T16:37:31.763Z</time>
      </trkpt>
      <trkpt lat="44.3359" lon="3.58604">
        <ele>562.580585</ele>
        <time>2021-04-30T16:37:32.397Z</time>
      </trkpt>
      <trkpt lat="44.33587" lon="3.58607">
        <ele>562.379959</ele>
        <time>2021-04-30T16:37:32.993Z</time>
      </trkpt>
      <trkpt lat="44.33586" lon="3.58609">
        <ele>562.288992</ele>
        <time>2021-04-30T16:37:33.342Z</time>
      </trkpt>
      <trkpt lat="44.3358" lon="3.58611">
        <ele>561.990479</ele>
        <time>2021-04-30T16:37:35.410Z</time>
      </trkpt>
      <trkpt lat="44.33561" lon="3.58613">
        <ele>560.985844</ele>
        <time>2021-04-30T16:37:38.125Z</time>
      </trkpt>
      <trkpt lat="44.33538" lon="3.58614">
        <ele>560.05554</ele>
        <time>2021-04-30T16:37:41.960Z</time>
      </trkpt>
      <trkpt lat="44.33523" lon="3.58613">
        <ele>559.609335</ele>
        <time>2021-04-30T16:37:43.976Z</time>
      </trkpt>
      <trkpt lat="44.33469" lon="3.58622">
        <ele>557.943197</ele>
        <time>2021-04-30T16:37:53.293Z</time>
      </trkpt>
      <trkpt lat="44.33417" lon="3.58645">
        <ele>556.245035</ele>
        <time>2021-04-30T16:38:03.055Z</time>
      </trkpt>
      <trkpt lat="44.33378" lon="3.58674">
        <ele>554.898584</ele>
        <time>2021-04-30T16:38:10.247Z</time>
      </trkpt>
      <trkpt lat="44.3334" lon="3.58719">
        <ele>553.820262</ele>
        <time>2021-04-30T16:38:18.429Z</time>
      </trkpt>
      <trkpt lat="44.33309" lon="3.58766">
        <ele>552.831181</ele>
        <time>2021-04-30T16:38:26.133Z</time>
      </trkpt>
      <trkpt lat="44.33283" lon="3.58822">
        <ele>551.789674</ele>
        <time>2021-04-30T16:38:34.507Z</time>
      </trkpt>
      <trkpt lat="44.33217" lon="3.58998">
        <ele>549.297044</ele>
        <time>2021-04-30T16:39:02.318Z</time>
      </trkpt>
      <trkpt lat="44.33207" lon="3.59022">
        <ele>548.967365</ele>
        <time>2021-04-30T16:39:05.426Z</time>
      </trkpt>
      <trkpt lat="44.33195" lon="3.59046">
        <ele>548.63323</ele>
        <time>2021-04-30T16:39:09.516Z</time>
      </trkpt>
      <trkpt lat="44.33165" lon="3.59106">
        <ele>547.763917</ele>
        <time>2021-04-30T16:39:18.342Z</time>
      </trkpt>
      <trkpt lat="44.33156" lon="3.59116">
        <ele>547.564649</ele>
        <time>2021-04-30T16:39:21.981Z</time>
      </trkpt>
      <trkpt lat="44.3315" lon="3.59111">
        <ele>547.431343</ele>
        <time>2021-04-30T16:39:23.192Z</time>
      </trkpt>
      <trkpt lat="44.3314" lon="3.59107">
        <ele>547.264466</ele>
        <time>2021-04-30T16:39:24.664Z</time>
      </trkpt>
      <trkpt lat="44.33112" lon="3.59063">
        <ele>546.528972</ele>
        <time>2021-04-30T16:39:32.124Z</time>
      </trkpt>
      <trkpt lat="44.33107" lon="3.59057">
        <ele>546.414368</ele>
        <time>2021-04-30T16:39:34.163Z</time>
      </trkpt>
      <trkpt lat="44.33101" lon="3.59053">
        <ele>546.29323</ele>
        <time>2021-04-30T16:39:36.217Z</time>
      </trkpt>
      <trkpt lat="44.33094" lon="3.5905">
        <ele>546.162615</ele>
        <time>2021-04-30T16:39:37.426Z</time>
      </trkpt>
      <trkpt lat="44.33086" lon="3.59047">
        <ele>546.026224</ele>
        <time>2021-04-30T16:39:38.667Z</time>
      </trkpt>
      <trkpt lat="44.33077" lon="3.59047">
        <ele>545.872413</ele>
        <time>2021-04-30T16:39:40.192Z</time>
      </trkpt>
      <trkpt lat="44.3307" lon="3.59047">
        <ele>545.753876</ele>
        <time>2021-04-30T16:39:42.082Z</time>
      </trkpt>
      <trkpt lat="44.33063" lon="3.59048">
        <ele>545.617987</ele>
        <time>2021-04-30T16:39:43.489Z</time>
      </trkpt>
      <trkpt lat="44.32989" lon="3.59101">
        <ele>544.875533</ele>
        <time>2021-04-30T16:39:57.928Z</time>
      </trkpt>
      <trkpt lat="44.32958" lon="3.59125">
        <ele>544.797255</ele>
        <time>2021-04-30T16:40:06.542Z</time>
      </trkpt>
      <trkpt lat="44.32958" lon="3.59125">
        <ele>544.797255</ele>
        <time>2021-04-30T16:40:06.589Z</time>
      </trkpt>
      <trkpt lat="44.32956" lon="3.59121">
        <ele>544.79062</ele>
        <time>2021-04-30T16:40:07.388Z</time>
      </trkpt>
      <trkpt lat="44.32945" lon="3.59089">
        <ele>544.734557</ele>
        <time>2021-04-30T16:40:13.799Z</time>
      </trkpt>
      <trkpt lat="44.32931" lon="3.59098">
        <ele>544.702417</ele>
        <time>2021-04-30T16:40:17.363Z</time>
      </trkpt>
      <trkpt lat="44.32945" lon="3.59135">
        <ele>544.637829</ele>
        <time>2021-04-30T16:40:24.357Z</time>
      </trkpt>
      <trkpt lat="44.32915" lon="3.5916">
        <ele>544.623629</ele>
        <time>2021-04-30T16:40:32.455Z</time>
      </trkpt>
      <trkpt lat="44.32903" lon="3.59165">
        <ele>544.676954</ele>
        <time>2021-04-30T16:40:35.386Z</time>
      </trkpt>
      <trkpt lat="44.32901" lon="3.59166">
        <ele>544.688313</ele>
        <time>2021-04-30T16:40:35.999Z</time>
      </trkpt>
      <trkpt lat="44.3289" lon="3.59162">
        <ele>544.739991</ele>
        <time>2021-04-30T16:40:38.681Z</time>
      </trkpt>
      <trkpt lat="44.32885" lon="3.59156">
        <ele>544.768248</ele>
        <time>2021-04-30T16:40:40.148Z</time>
      </trkpt>
      <trkpt lat="44.32879" lon="3.59155">
        <ele>544.795306</ele>
        <time>2021-04-30T16:40:41.628Z</time>
      </trkpt>
      <trkpt lat="44.32874" lon="3.59157">
        <ele>544.818486</ele>
        <time>2021-04-30T16:40:42.934Z</time>
      </trkpt>
      <trkpt lat="44.32872" lon="3.5916">
        <ele>544.830876</ele>
        <time>2021-04-30T16:40:43.637Z</time>
      </trkpt>
      <trkpt lat="44.3287" lon="3.59169">
        <ele>544.861359</ele>
        <time>2021-04-30T16:40:45.277Z</time>
      </trkpt>
      <trkpt lat="44.32872" lon="3.59177">
        <ele>544.888399</ele>
        <time>2021-04-30T16:40:46.701Z</time>
      </trkpt>
      <trkpt lat="44.32868" lon="3.59196">
        <ele>544.950867</ele>
        <time>2021-04-30T16:40:49.989Z</time>
      </trkpt>
      <trkpt lat="44.32864" lon="3.592">
        <ele>544.972883</ele>
        <time>2021-04-30T16:40:51.240Z</time>
      </trkpt>
      <trkpt lat="44.32863" lon="3.592">
        <ele>544.976929</ele>
        <time>2021-04-30T16:40:51.465Z</time>
      </trkpt>
      <trkpt lat="44.32825" lon="3.5923">
        <ele>545.174062</ele>
        <time>2021-04-30T16:41:02.244Z</time>
      </trkpt>
      <trkpt lat="44.32806" lon="3.59245">
        <ele>545.269759</ele>
        <time>2021-04-30T16:41:07.485Z</time>
      </trkpt>
      <trkpt lat="44.32794" lon="3.59255">
        <ele>545.332853</ele>
        <time>2021-04-30T16:41:10.907Z</time>
      </trkpt>
      <trkpt lat="44.32775" lon="3.59271">
        <ele>545.418987</ele>
        <time>2021-04-30T16:41:16.071Z</time>
      </trkpt>
      <trkpt lat="44.32766" lon="3.59277">
        <ele>545.451713</ele>
        <time>2021-04-30T16:41:18.403Z</time>
      </trkpt>
      <trkpt lat="44.3269" lon="3.59335">
        <ele>545.741936</ele>
        <time>2021-04-30T16:41:39.033Z</time>
      </trkpt>
      <trkpt lat="44.32686" lon="3.59337">
        <ele>545.755582</ele>
        <time>2021-04-30T16:41:40.126Z</time>
      </trkpt>
      <trkpt lat="44.32634" lon="3.59378">
        <ele>545.955513</ele>
        <time>2021-04-30T16:41:54.035Z</time>
      </trkpt>
      <trkpt lat="44.32626" lon="3.59384">
        <ele>545.984345</ele>
        <time>2021-04-30T16:41:56.155Z</time>
      </trkpt>
      <trkpt lat="44.3262" lon="3.59389">
        <ele>545.978459</ele>
        <time>2021-04-30T16:41:57.719Z</time>
      </trkpt>
      <trkpt lat="44.32615" lon="3.59393">
        <ele>545.973479</ele>
        <time>2021-04-30T16:41:58.978Z</time>
      </trkpt>
      <trkpt lat="44.32601" lon="3.59404">
        <ele>545.958636</ele>
        <time>2021-04-30T16:42:02.723Z</time>
      </trkpt>
      <trkpt lat="44.32581" lon="3.59421">
        <ele>545.937126</ele>
        <time>2021-04-30T16:42:08.057Z</time>
      </trkpt>
      <trkpt lat="44.32576" lon="3.59425">
        <ele>545.931541</ele>
        <time>2021-04-30T16:42:09.501Z</time>
      </trkpt>
      <trkpt lat="44.32581" lon="3.59421">
        <ele>545.925957</ele>
        <time>2021-04-30T16:42:10.787Z</time>
      </trkpt>
      <trkpt lat="44.32601" lon="3.59404">
        <ele>545.904447</ele>
        <time>2021-04-30T16:42:15.974Z</time>
      </trkpt>
      <trkpt lat="44.32615" lon="3.59393">
        <ele>545.889604</ele>
        <time>2021-04-30T16:42:19.466Z</time>
      </trkpt>
      <trkpt lat="44.3262" lon="3.59389">
        <ele>545.884624</ele>
        <time>2021-04-30T16:42:20.649Z</time>
      </trkpt>
      <trkpt lat="44.32626" lon="3.59384">
        <ele>545.878737</ele>
        <time>2021-04-30T16:42:21.967Z</time>
      </trkpt>
      <trkpt lat="44.32634" lon="3.59378">
        <ele>545.870291</ele>
        <time>2021-04-30T16:42:23.982Z</time>
      </trkpt>
      <trkpt lat="44.32686" lon="3.59337">
        <ele>545.814797</ele>
        <time>2021-04-30T16:42:36.732Z</time>
      </trkpt>
      <trkpt lat="44.3269" lon="3.59335">
        <ele>545.81039</ele>
        <time>2021-04-30T16:42:37.517Z</time>
      </trkpt>
      <trkpt lat="44.32766" lon="3.59277">
        <ele>545.716655</ele>
        <time>2021-04-30T16:42:55.662Z</time>
      </trkpt>
      <trkpt lat="44.32775" lon="3.59271">
        <ele>545.706085</ele>
        <time>2021-04-30T16:42:57.712Z</time>
      </trkpt>
      <trkpt lat="44.32794" lon="3.59255">
        <ele>545.682408</ele>
        <time>2021-04-30T16:43:02.444Z</time>
      </trkpt>
      <trkpt lat="44.32806" lon="3.59245">
        <ele>545.667135</ele>
        <time>2021-04-30T16:43:05.635Z</time>
      </trkpt>
      <trkpt lat="44.32825" lon="3.5923">
        <ele>545.643971</ele>
        <time>2021-04-30T16:43:10.565Z</time>
      </trkpt>
      <trkpt lat="44.32863" lon="3.592">
        <ele>546.016673</ele>
        <time>2021-04-30T16:43:21.585Z</time>
      </trkpt>
      <trkpt lat="44.32864" lon="3.592">
        <ele>546.029143</ele>
        <time>2021-04-30T16:43:21.771Z</time>
      </trkpt>
      <trkpt lat="44.32868" lon="3.59196">
        <ele>546.096996</ele>
        <time>2021-04-30T16:43:22.927Z</time>
      </trkpt>
      <trkpt lat="44.32879" lon="3.59183">
        <ele>546.286939</ele>
        <time>2021-04-30T16:43:26.426Z</time>
      </trkpt>
      <trkpt lat="44.32886" lon="3.59181">
        <ele>546.394884</ele>
        <time>2021-04-30T16:43:28.464Z</time>
      </trkpt>
      <trkpt lat="44.32887" lon="3.5918">
        <ele>546.407947</ele>
        <time>2021-04-30T16:43:28.699Z</time>
      </trkpt>
      <trkpt lat="44.3289" lon="3.59176">
        <ele>546.463428</ele>
        <time>2021-04-30T16:43:29.829Z</time>
      </trkpt>
      <trkpt lat="44.32891" lon="3.59168">
        <ele>546.54116</ele>
        <time>2021-04-30T16:43:31.270Z</time>
      </trkpt>
      <trkpt lat="44.3289" lon="3.59162">
        <ele>546.605583</ele>
        <time>2021-04-30T16:43:32.398Z</time>
      </trkpt>
      <trkpt lat="44.32885" lon="3.59156">
        <ele>546.692668</ele>
        <time>2021-04-30T16:43:34.073Z</time>
      </trkpt>
      <trkpt lat="44.32879" lon="3.59155">
        <ele>546.776062</ele>
        <time>2021-04-30T16:43:35.678Z</time>
      </trkpt>
      <trkpt lat="44.32872" lon="3.59147">
        <ele>546.90556</ele>
        <time>2021-04-30T16:43:38.280Z</time>
      </trkpt>
      <trkpt lat="44.32867" lon="3.59141">
        <ele>546.998391</ele>
        <time>2021-04-30T16:43:40.303Z</time>
      </trkpt>
      <trkpt lat="44.32858" lon="3.59133">
        <ele>547.135821</ele>
        <time>2021-04-30T16:43:42.937Z</time>
      </trkpt>
      <trkpt lat="44.32858" lon="3.59133">
        <ele>547.139198</ele>
        <time>2021-04-30T16:43:43.025Z</time>
      </trkpt>
      <trkpt lat="44.32847" lon="3.59126">
        <ele>547.309765</ele>
        <time>2021-04-30T16:43:46.580Z</time>
      </trkpt>
      <trkpt lat="44.3284" lon="3.59128">
        <ele>547.403947</ele>
        <time>2021-04-30T16:43:48.483Z</time>
      </trkpt>
      <trkpt lat="44.3282" lon="3.59136">
        <ele>547.694997</ele>
        <time>2021-04-30T16:43:54.817Z</time>
      </trkpt>
      <trkpt lat="44.32796" lon="3.59149">
        <ele>548.046875</ele>
        <time>2021-04-30T16:44:02.954Z</time>
      </trkpt>
      <trkpt lat="44.32787" lon="3.59155">
        <ele>548.31736</ele>
        <time>2021-04-30T16:44:06.245Z</time>
      </trkpt>
      <trkpt lat="44.32766" lon="3.59171">
        <ele>549.145034</ele>
        <time>2021-04-30T16:44:14.405Z</time>
      </trkpt>
      <trkpt lat="44.32755" lon="3.59184">
        <ele>549.642586</ele>
        <time>2021-04-30T16:44:19.502Z</time>
      </trkpt>
      <trkpt lat="44.32748" lon="3.59193">
        <ele>549.974288</ele>
        <time>2021-04-30T16:44:23.106Z</time>
      </trkpt>
      <trkpt lat="44.32736" lon="3.59205">
        <ele>550.473492</ele>
        <time>2021-04-30T16:44:28.259Z</time>
      </trkpt>
      <trkpt lat="44.32716" lon="3.59223">
        <ele>551.301658</ele>
        <time>2021-04-30T16:44:36.951Z</time>
      </trkpt>
      <trkpt lat="44.32699" lon="3.59229">
        <ele>551.920371</ele>
        <time>2021-04-30T16:44:42.870Z</time>
      </trkpt>
      <trkpt lat="44.3269" lon="3.59217">
        <ele>552.324694</ele>
        <time>2021-04-30T16:44:47.372Z</time>
      </trkpt>
      <trkpt lat="44.3266" lon="3.59113">
        <ele>555.483633</ele>
        <time>2021-04-30T16:45:18.476Z</time>
      </trkpt>
      <trkpt lat="44.32651" lon="3.59113">
        <ele>555.951916</ele>
        <time>2021-04-30T16:45:22.397Z</time>
      </trkpt>
      <trkpt lat="44.32603" lon="3.5916">
        <ele>558.894457</ele>
        <time>2021-04-30T16:45:46.013Z</time>
      </trkpt>
      <trkpt lat="44.32596" lon="3.59163">
        <ele>559.241572</ele>
        <time>2021-04-30T16:45:49.388Z</time>
      </trkpt>
      <trkpt lat="44.32597" lon="3.5916">
        <ele>559.384151</ele>
        <time>2021-04-30T16:45:51.295Z</time>
      </trkpt>
      <trkpt lat="44.32595" lon="3.59127">
        <ele>560.557694</ele>
        <time>2021-04-30T16:46:00.389Z</time>
      </trkpt>
      <trkpt lat="44.32589" lon="3.59119">
        <ele>560.960165</ele>
        <time>2021-04-30T16:46:04.642Z</time>
      </trkpt>
      <trkpt lat="44.3257" lon="3.59086">
        <ele>562.480629</ele>
        <time>2021-04-30T16:46:21.126Z</time>
      </trkpt>
      <trkpt lat="44.32589" lon="3.59119">
        <ele>564.155947</ele>
        <time>2021-04-30T16:46:37.305Z</time>
      </trkpt>
      <trkpt lat="44.32509" lon="3.59081">
        <ele>569.451153</ele>
        <time>2021-04-30T16:47:11.736Z</time>
      </trkpt>
      <trkpt lat="44.32482" lon="3.59066">
        <ele>571.310634</ele>
        <time>2021-04-30T16:47:24.253Z</time>
      </trkpt>
      <trkpt lat="44.32458" lon="3.59067">
        <ele>572.771925</ele>
        <time>2021-04-30T16:47:35.430Z</time>
      </trkpt>
      <trkpt lat="44.32448" lon="3.59073">
        <ele>573.511287</ele>
        <time>2021-04-30T16:47:43.262Z</time>
      </trkpt>
      <trkpt lat="44.32437" lon="3.59084">
        <ele>574.314358</ele>
        <time>2021-04-30T16:47:48.910Z</time>
      </trkpt>
      <trkpt lat="44.3242" lon="3.59112">
        <ele>577.023694</ele>
        <time>2021-04-30T16:48:07.716Z</time>
      </trkpt>
      <trkpt lat="44.32408" lon="3.59126">
        <ele>578.840989</ele>
        <time>2021-04-30T16:48:15.803Z</time>
      </trkpt>
      <trkpt lat="44.32406" lon="3.59126">
        <ele>579.013385</ele>
        <time>2021-04-30T16:48:17.294Z</time>
      </trkpt>
      <trkpt lat="44.32387" lon="3.59126">
        <ele>581.252054</ele>
        <time>2021-04-30T16:48:30.950Z</time>
      </trkpt>
      <trkpt lat="44.32378" lon="3.59118">
        <ele>582.404822</ele>
        <time>2021-04-30T16:48:34.966Z</time>
      </trkpt>
      <trkpt lat="44.32377" lon="3.59112">
        <ele>582.911337</ele>
        <time>2021-04-30T16:48:38.492Z</time>
      </trkpt>
      <trkpt lat="44.3238" lon="3.59102">
        <ele>583.845448</ele>
        <time>2021-04-30T16:48:45.109Z</time>
      </trkpt>
      <trkpt lat="44.32392" lon="3.59073">
        <ele>586.538416</ele>
        <time>2021-04-30T16:48:58.575Z</time>
      </trkpt>
      <trkpt lat="44.32393" lon="3.59067">
        <ele>587.089739</ele>
        <time>2021-04-30T16:49:02.516Z</time>
      </trkpt>
      <trkpt lat="44.32396" lon="3.5905">
        <ele>588.464071</ele>
        <time>2021-04-30T16:49:10.999Z</time>
      </trkpt>
      <trkpt lat="44.32397" lon="3.59042">
        <ele>589.181574</ele>
        <time>2021-04-30T16:49:16.908Z</time>
      </trkpt>
      <trkpt lat="44.32398" lon="3.58994">
        <ele>593.148637</ele>
        <time>2021-04-30T16:49:41.164Z</time>
      </trkpt>
      <trkpt lat="44.32434" lon="3.58936">
        <ele>600.159606</ele>
        <time>2021-04-30T16:50:25.447Z</time>
      </trkpt>
      <trkpt lat="44.32442" lon="3.58905">
        <ele>603.31295</ele>
        <time>2021-04-30T16:50:49.414Z</time>
      </trkpt>
      <trkpt lat="44.32436" lon="3.58832">
        <ele>610.423823</ele>
        <time>2021-04-30T16:51:31.062Z</time>
      </trkpt>
      <trkpt lat="44.32409" lon="3.58741">
        <ele>619.684127</ele>
        <time>2021-04-30T16:52:17.670Z</time>
      </trkpt>
      <trkpt lat="44.32409" lon="3.5873">
        <ele>620.314686</ele>
        <time>2021-04-30T16:52:26.366Z</time>
      </trkpt>
      <trkpt lat="44.32416" lon="3.58721">
        <ele>621.066047</ele>
        <time>2021-04-30T16:52:33.197Z</time>
      </trkpt>
      <trkpt lat="44.32429" lon="3.58707">
        <ele>622.316344</ele>
        <time>2021-04-30T16:52:39.874Z</time>
      </trkpt>
      <trkpt lat="44.32459" lon="3.58668">
        <ele>625.559805</ele>
        <time>2021-04-30T16:53:05.128Z</time>
      </trkpt>
      <trkpt lat="44.32473" lon="3.58643">
        <ele>627.348746</ele>
        <time>2021-04-30T16:53:18.256Z</time>
      </trkpt>
      <trkpt lat="44.32473" lon="3.58623">
        <ele>628.474018</ele>
        <time>2021-04-30T16:53:25.060Z</time>
      </trkpt>
      <trkpt lat="44.32468" lon="3.58622">
        <ele>628.801144</ele>
        <time>2021-04-30T16:53:28.881Z</time>
      </trkpt>
      <trkpt lat="44.32463" lon="3.58625">
        <ele>629.252364</ele>
        <time>2021-04-30T16:53:33.265Z</time>
      </trkpt>
      <trkpt lat="44.32445" lon="3.58651">
        <ele>631.298447</ele>
        <time>2021-04-30T16:53:42.197Z</time>
      </trkpt>
      <trkpt lat="44.32395" lon="3.58668">
        <ele>634.92984</ele>
        <time>2021-04-30T16:54:02.923Z</time>
      </trkpt>
      <trkpt lat="44.32382" lon="3.58678">
        <ele>635.795326</ele>
        <time>2021-04-30T16:54:06.003Z</time>
      </trkpt>
      <trkpt lat="44.32367" lon="3.58732">
        <ele>638.259632</ele>
        <time>2021-04-30T16:54:21.321Z</time>
      </trkpt>
      <trkpt lat="44.32363" lon="3.58775">
        <ele>640.082477</ele>
        <time>2021-04-30T16:54:38.827Z</time>
      </trkpt>
      <trkpt lat="44.32333" lon="3.58824">
        <ele>642.865271</ele>
        <time>2021-04-30T16:54:56.000Z</time>
      </trkpt>
      <trkpt lat="44.32314" lon="3.58842">
        <ele>644.20172</ele>
        <time>2021-04-30T16:55:09.691Z</time>
      </trkpt>
      <trkpt lat="44.32307" lon="3.58846">
        <ele>645.007076</ele>
        <time>2021-04-30T16:55:11.572Z</time>
      </trkpt>
      <trkpt lat="44.32301" lon="3.58849">
        <ele>645.824045</ele>
        <time>2021-04-30T16:55:16.741Z</time>
      </trkpt>
      <trkpt lat="44.32296" lon="3.5885">
        <ele>646.383947</ele>
        <time>2021-04-30T16:55:22.142Z</time>
      </trkpt>
      <trkpt lat="44.32281" lon="3.5885">
        <ele>648.137599</ele>
        <time>2021-04-30T16:55:30.973Z</time>
      </trkpt>
      <trkpt lat="44.32226" lon="3.58823">
        <ele>655.213207</ele>
        <time>2021-04-30T16:56:13.963Z</time>
      </trkpt>
      <trkpt lat="44.32191" lon="3.58826">
        <ele>659.424547</ele>
        <time>2021-04-30T16:56:40.160Z</time>
      </trkpt>
      <trkpt lat="44.32172" lon="3.58836">
        <ele>661.837206</ele>
        <time>2021-04-30T16:56:52.199Z</time>
      </trkpt>
      <trkpt lat="44.32164" lon="3.58844">
        <ele>663.088043</ele>
        <time>2021-04-30T16:57:00.016Z</time>
      </trkpt>
      <trkpt lat="44.32145" lon="3.58861">
        <ele>665.742046</ele>
        <time>2021-04-30T16:57:20.477Z</time>
      </trkpt>
      <trkpt lat="44.32125" lon="3.58878">
        <ele>668.194218</ele>
        <time>2021-04-30T16:57:38.667Z</time>
      </trkpt>
      <trkpt lat="44.32077" lon="3.58898">
        <ele>673.562606</ele>
        <time>2021-04-30T16:58:14.132Z</time>
      </trkpt>
      <trkpt lat="44.32057" lon="3.5893">
        <ele>676.760408</ele>
        <time>2021-04-30T16:58:35.435Z</time>
      </trkpt>
      <trkpt lat="44.32051" lon="3.58926">
        <ele>677.477952</ele>
        <time>2021-04-30T16:58:38.892Z</time>
      </trkpt>
      <trkpt lat="44.32052" lon="3.58918">
        <ele>678.101585</ele>
        <time>2021-04-30T16:58:43.663Z</time>
      </trkpt>
      <trkpt lat="44.32073" lon="3.58881">
        <ele>681.637374</ele>
        <time>2021-04-30T16:59:03.953Z</time>
      </trkpt>
      <trkpt lat="44.32085" lon="3.5887">
        <ele>683.193153</ele>
        <time>2021-04-30T16:59:10.495Z</time>
      </trkpt>
      <trkpt lat="44.32089" lon="3.58867">
        <ele>683.703003</ele>
        <time>2021-04-30T16:59:13.249Z</time>
      </trkpt>
      <trkpt lat="44.32101" lon="3.58858">
        <ele>685.044007</ele>
        <time>2021-04-30T16:59:18.675Z</time>
      </trkpt>
      <trkpt lat="44.32156" lon="3.58775">
        <ele>690.996626</ele>
        <time>2021-04-30T16:59:56.271Z</time>
      </trkpt>
      <trkpt lat="44.32214" lon="3.5874">
        <ele>695.621609</ele>
        <time>2021-04-30T17:00:27.861Z</time>
      </trkpt>
      <trkpt lat="44.32228" lon="3.58723">
        <ele>696.941737</ele>
        <time>2021-04-30T17:00:39.578Z</time>
      </trkpt>
      <trkpt lat="44.32255" lon="3.58663">
        <ele>702.102718</ele>
        <time>2021-04-30T17:01:09.253Z</time>
      </trkpt>
      <trkpt lat="44.32254" lon="3.58566">
        <ele>709.901496</ele>
        <time>2021-04-30T17:01:55.591Z</time>
      </trkpt>
      <trkpt lat="44.32252" lon="3.58546">
        <ele>711.478612</ele>
        <time>2021-04-30T17:02:06.628Z</time>
      </trkpt>
      <trkpt lat="44.32254" lon="3.58533">
        <ele>712.504132</ele>
        <time>2021-04-30T17:02:13.125Z</time>
      </trkpt>
      <trkpt lat="44.32258" lon="3.5852">
        <ele>713.671396</ele>
        <time>2021-04-30T17:02:21.095Z</time>
      </trkpt>
      <trkpt lat="44.32303" lon="3.5846">
        <ele>720.432867</ele>
        <time>2021-04-30T17:03:06.319Z</time>
      </trkpt>
      <trkpt lat="44.32308" lon="3.58431">
        <ele>722.612015</ele>
        <time>2021-04-30T17:03:22.453Z</time>
      </trkpt>
      <trkpt lat="44.32307" lon="3.58419">
        <ele>723.473529</ele>
        <time>2021-04-30T17:03:27.352Z</time>
      </trkpt>
      <trkpt lat="44.32303" lon="3.58398">
        <ele>725.08069</ele>
        <time>2021-04-30T17:03:39.621Z</time>
      </trkpt>
      <trkpt lat="44.3231" lon="3.58324">
        <ele>730.521381</ele>
        <time>2021-04-30T17:04:10.377Z</time>
      </trkpt>
      <trkpt lat="44.32323" lon="3.58286">
        <ele>733.527953</ele>
        <time>2021-04-30T17:04:28.351Z</time>
      </trkpt>
      <trkpt lat="44.32336" lon="3.58268">
        <ele>735.412872</ele>
        <time>2021-04-30T17:04:38.618Z</time>
      </trkpt>
      <trkpt lat="44.32349" lon="3.58258">
        <ele>736.843107</ele>
        <time>2021-04-30T17:04:48.737Z</time>
      </trkpt>
      <trkpt lat="44.32355" lon="3.58255">
        <ele>737.320928</ele>
        <time>2021-04-30T17:04:49.886Z</time>
      </trkpt>
      <trkpt lat="44.32429" lon="3.58233">
        <ele>743.216818</ele>
        <time>2021-04-30T17:05:29.764Z</time>
      </trkpt>
      <trkpt lat="44.32448" lon="3.58216">
        <ele>745.026323</ele>
        <time>2021-04-30T17:05:42.744Z</time>
      </trkpt>
      <trkpt lat="44.32478" lon="3.5815">
        <ele>749.426089</ele>
        <time>2021-04-30T17:06:10.915Z</time>
      </trkpt>
      <trkpt lat="44.32519" lon="3.58108">
        <ele>753.806369</ele>
        <time>2021-04-30T17:06:38.556Z</time>
      </trkpt>
      <trkpt lat="44.32559" lon="3.58044">
        <ele>759.388087</ele>
        <time>2021-04-30T17:07:15.074Z</time>
      </trkpt>
      <trkpt lat="44.32583" lon="3.58021">
        <ele>762.002329</ele>
        <time>2021-04-30T17:07:32.705Z</time>
      </trkpt>
      <trkpt lat="44.32609" lon="3.57982">
        <ele>765.456726</ele>
        <time>2021-04-30T17:07:56.279Z</time>
      </trkpt>
      <trkpt lat="44.32625" lon="3.57948">
        <ele>767.959208</ele>
        <time>2021-04-30T17:08:14.078Z</time>
      </trkpt>
      <trkpt lat="44.32634" lon="3.57899">
        <ele>770.883339</ele>
        <time>2021-04-30T17:08:35.664Z</time>
      </trkpt>
      <trkpt lat="44.3264" lon="3.57889">
        <ele>771.629554</ele>
        <time>2021-04-30T17:08:40.981Z</time>
      </trkpt>
      <trkpt lat="44.32689" lon="3.57833">
        <ele>776.779032</ele>
        <time>2021-04-30T17:09:14.946Z</time>
      </trkpt>
      <trkpt lat="44.32729" lon="3.57806">
        <ele>780.403987</ele>
        <time>2021-04-30T17:09:37.169Z</time>
      </trkpt>
      <trkpt lat="44.32776" lon="3.57739">
        <ele>785.335272</ele>
        <time>2021-04-30T17:10:10.702Z</time>
      </trkpt>
      <trkpt lat="44.32807" lon="3.57716">
        <ele>787.893498</ele>
        <time>2021-04-30T17:10:29.262Z</time>
      </trkpt>
      <trkpt lat="44.32866" lon="3.5765">
        <ele>793.375076</ele>
        <time>2021-04-30T17:11:07.939Z</time>
      </trkpt>
      <trkpt lat="44.32885" lon="3.57637">
        <ele>794.926483</ele>
        <time>2021-04-30T17:11:19.136Z</time>
      </trkpt>
      <trkpt lat="44.3291" lon="3.57619">
        <ele>797.056063</ele>
        <time>2021-04-30T17:11:33.337Z</time>
      </trkpt>
      <trkpt lat="44.33054" lon="3.57522">
        <ele>809.274173</ele>
        <time>2021-04-30T17:12:57.756Z</time>
      </trkpt>
      <trkpt lat="44.3306" lon="3.57516">
        <ele>809.911888</ele>
        <time>2021-04-30T17:13:01.485Z</time>
      </trkpt>
      <trkpt lat="44.33056" lon="3.57504">
        <ele>810.689122</ele>
        <time>2021-04-30T17:13:06.403Z</time>
      </trkpt>
      <trkpt lat="44.33026" lon="3.57521">
        <ele>813.504615</ele>
        <time>2021-04-30T17:13:23.818Z</time>
      </trkpt>
      <trkpt lat="44.32925" lon="3.57554">
        <ele>822.49697</ele>
        <time>2021-04-30T17:14:24.069Z</time>
      </trkpt>
      <trkpt lat="44.3282" lon="3.57579">
        <ele>833.665359</ele>
        <time>2021-04-30T17:15:29.425Z</time>
      </trkpt>
      <trkpt lat="44.32768" lon="3.57623">
        <ele>840.17591</ele>
        <time>2021-04-30T17:16:13.238Z</time>
      </trkpt>
      <trkpt lat="44.32728" lon="3.57621">
        <ele>844.658048</ele>
        <time>2021-04-30T17:16:40.953Z</time>
      </trkpt>
      <trkpt lat="44.32717" lon="3.57627">
        <ele>846.045833</ele>
        <time>2021-04-30T17:16:47.026Z</time>
      </trkpt>
      <trkpt lat="44.32707" lon="3.57636">
        <ele>847.371027</ele>
        <time>2021-04-30T17:16:57.836Z</time>
      </trkpt>
      <trkpt lat="44.32686" lon="3.57668">
        <ele>850.932461</ele>
        <time>2021-04-30T17:17:16.835Z</time>
      </trkpt>
      <trkpt lat="44.32676" lon="3.57677">
        <ele>852.28111</ele>
        <time>2021-04-30T17:17:27.987Z</time>
      </trkpt>
      <trkpt lat="44.32666" lon="3.57685">
        <ele>853.650931</ele>
        <time>2021-04-30T17:17:33.723Z</time>
      </trkpt>
      <trkpt lat="44.3263" lon="3.57688">
        <ele>857.801615</ele>
        <time>2021-04-30T17:17:58.637Z</time>
      </trkpt>
      <trkpt lat="44.32615" lon="3.57695">
        <ele>859.56922</ele>
        <time>2021-04-30T17:18:10.300Z</time>
      </trkpt>
      <trkpt lat="44.32531" lon="3.5776">
        <ele>868.973242</ele>
        <time>2021-04-30T17:19:14.687Z</time>
      </trkpt>
      <trkpt lat="44.32524" lon="3.57754">
        <ele>869.681562</ele>
        <time>2021-04-30T17:19:19.811Z</time>
      </trkpt>
      <trkpt lat="44.32529" lon="3.5774">
        <ele>870.708523</ele>
        <time>2021-04-30T17:19:26.462Z</time>
      </trkpt>
      <trkpt lat="44.32575" lon="3.57705">
        <ele>875.21983</ele>
        <time>2021-04-30T17:19:54.128Z</time>
      </trkpt>
      <trkpt lat="44.32605" lon="3.57667">
        <ele>878.753331</ele>
        <time>2021-04-30T17:20:14.158Z</time>
      </trkpt>
      <trkpt lat="44.3264" lon="3.57644">
        <ele>880.99541</ele>
        <time>2021-04-30T17:20:31.961Z</time>
      </trkpt>
      <trkpt lat="44.32683" lon="3.57569">
        <ele>884.62734</ele>
        <time>2021-04-30T17:21:02.052Z</time>
      </trkpt>
      <trkpt lat="44.3274" lon="3.57531">
        <ele>887.913319</ele>
        <time>2021-04-30T17:21:26.871Z</time>
      </trkpt>
      <trkpt lat="44.32784" lon="3.57467">
        <ele>891.703377</ele>
        <time>2021-04-30T17:21:52.962Z</time>
      </trkpt>
      <trkpt lat="44.3286" lon="3.57432">
        <ele>896.657995</ele>
        <time>2021-04-30T17:22:29.235Z</time>
      </trkpt>
      <trkpt lat="44.32914" lon="3.57389">
        <ele>900.987089</ele>
        <time>2021-04-30T17:23:02.396Z</time>
      </trkpt>
      <trkpt lat="44.32952" lon="3.57343">
        <ele>906.763953</ele>
        <time>2021-04-30T17:23:31.206Z</time>
      </trkpt>
      <trkpt lat="44.33024" lon="3.57296">
        <ele>915.896409</ele>
        <time>2021-04-30T17:24:26.513Z</time>
      </trkpt>
      <trkpt lat="44.33058" lon="3.57253">
        <ele>921.241037</ele>
        <time>2021-04-30T17:25:07.096Z</time>
      </trkpt>
      <trkpt lat="44.33093" lon="3.57182">
        <ele>928.598775</ele>
        <time>2021-04-30T17:25:56.278Z</time>
      </trkpt>
      <trkpt lat="44.33099" lon="3.57161">
        <ele>930.508054</ele>
        <time>2021-04-30T17:26:07.688Z</time>
      </trkpt>
      <trkpt lat="44.33106" lon="3.57131">
        <ele>933.158642</ele>
        <time>2021-04-30T17:26:22.688Z</time>
      </trkpt>
      <trkpt lat="44.33109" lon="3.5711">
        <ele>934.967697</ele>
        <time>2021-04-30T17:26:31.896Z</time>
      </trkpt>
      <trkpt lat="44.33111" lon="3.57085">
        <ele>937.117017</ele>
        <time>2021-04-30T17:26:43.845Z</time>
      </trkpt>
      <trkpt lat="44.33115" lon="3.57066">
        <ele>938.823288</ele>
        <time>2021-04-30T17:26:52.566Z</time>
      </trkpt>
      <trkpt lat="44.3314" lon="3.57001">
        <ele>943.661539</ele>
        <time>2021-04-30T17:27:25.110Z</time>
      </trkpt>
      <trkpt lat="44.33178" lon="3.56948">
        <ele>947.112941</ele>
        <time>2021-04-30T17:27:52.647Z</time>
      </trkpt>
      <trkpt lat="44.3323" lon="3.56884">
        <ele>951.632282</ele>
        <time>2021-04-30T17:28:17.779Z</time>
      </trkpt>
      <trkpt lat="44.33272" lon="3.56825">
        <ele>956.140552</ele>
        <time>2021-04-30T17:28:45.573Z</time>
      </trkpt>
      <trkpt lat="44.33275" lon="3.56809">
        <ele>957.15624</ele>
        <time>2021-04-30T17:28:50.745Z</time>
      </trkpt>
      <trkpt lat="44.33269" lon="3.56808">
        <ele>957.715967</ele>
        <time>2021-04-30T17:28:55.120Z</time>
      </trkpt>
      <trkpt lat="44.33242" lon="3.5684">
        <ele>960.872494</ele>
        <time>2021-04-30T17:29:17.993Z</time>
      </trkpt>
      <trkpt lat="44.33216" lon="3.56859">
        <ele>963.427613</ele>
        <time>2021-04-30T17:29:35.670Z</time>
      </trkpt>
      <trkpt lat="44.3318" lon="3.56885">
        <ele>966.971653</ele>
        <time>2021-04-30T17:29:59.696Z</time>
      </trkpt>
      <trkpt lat="44.33173" lon="3.56889">
        <ele>967.620257</ele>
        <time>2021-04-30T17:30:07.473Z</time>
      </trkpt>
      <trkpt lat="44.331" lon="3.56935">
        <ele>974.283917</ele>
        <time>2021-04-30T17:30:54.130Z</time>
      </trkpt>
      <trkpt lat="44.33084" lon="3.56952">
        <ele>975.937691</ele>
        <time>2021-04-30T17:31:03.629Z</time>
      </trkpt>
      <trkpt lat="44.33029" lon="3.57101">
        <ele>985.753417</ele>
        <time>2021-04-30T17:32:08.532Z</time>
      </trkpt>
      <trkpt lat="44.33009" lon="3.57142">
        <ele>988.634854</ele>
        <time>2021-04-30T17:32:25.155Z</time>
      </trkpt>
      <trkpt lat="44.32977" lon="3.57178">
        <ele>991.970417</ele>
        <time>2021-04-30T17:32:45.821Z</time>
      </trkpt>
      <trkpt lat="44.32962" lon="3.57183">
        <ele>993.234991</ele>
        <time>2021-04-30T17:32:54.058Z</time>
      </trkpt>
      <trkpt lat="44.32962" lon="3.57168">
        <ele>994.134785</ele>
        <time>2021-04-30T17:33:00.619Z</time>
      </trkpt>
      <trkpt lat="44.32984" lon="3.57154">
        <ele>996.103536</ele>
        <time>2021-04-30T17:33:14.433Z</time>
      </trkpt>
      <trkpt lat="44.32994" lon="3.57139">
        <ele>997.26255</ele>
        <time>2021-04-30T17:33:23.384Z</time>
      </trkpt>
      <trkpt lat="44.33003" lon="3.57114">
        <ele>998.910884</ele>
        <time>2021-04-30T17:33:35.194Z</time>
      </trkpt>
      <trkpt lat="44.33018" lon="3.57033">
        <ele>1004.987592</ele>
        <time>2021-04-30T17:34:13.887Z</time>
      </trkpt>
      <trkpt lat="44.3302" lon="3.56982">
        <ele>1008.632982</ele>
        <time>2021-04-30T17:34:38.386Z</time>
      </trkpt>
      <trkpt lat="44.33017" lon="3.56936">
        <ele>1012.021025</ele>
        <time>2021-04-30T17:35:00.304Z</time>
      </trkpt>
      <trkpt lat="44.33008" lon="3.56887">
        <ele>1015.683202</ele>
        <time>2021-04-30T17:35:23.112Z</time>
      </trkpt>
      <trkpt lat="44.32992" lon="3.56843">
        <ele>1018.021401</ele>
        <time>2021-04-30T17:35:43.596Z</time>
      </trkpt>
      <trkpt lat="44.32984" lon="3.56832">
        <ele>1018.592147</ele>
        <time>2021-04-30T17:35:50.270Z</time>
      </trkpt>
      <trkpt lat="44.32977" lon="3.56824">
        <ele>1019.080113</ele>
        <time>2021-04-30T17:35:54.862Z</time>
      </trkpt>
      <trkpt lat="44.32975" lon="3.56823">
        <ele>1019.160079</ele>
        <time>2021-04-30T17:35:55.738Z</time>
      </trkpt>
      <trkpt lat="44.32967" lon="3.56818">
        <ele>1019.624201</ele>
        <time>2021-04-30T17:36:00.567Z</time>
      </trkpt>
      <trkpt lat="44.32861" lon="3.56789">
        <ele>1025.088864</ele>
        <time>2021-04-30T17:36:42.888Z</time>
      </trkpt>
      <trkpt lat="44.32842" lon="3.56784">
        <ele>1025.925126</ele>
        <time>2021-04-30T17:36:48.497Z</time>
      </trkpt>
      <trkpt lat="44.32819" lon="3.56773">
        <ele>1025.637805</ele>
        <time>2021-04-30T17:36:54.291Z</time>
      </trkpt>
      <trkpt lat="44.32795" lon="3.56743">
        <ele>1025.25367</ele>
        <time>2021-04-30T17:37:00.563Z</time>
      </trkpt>
      <trkpt lat="44.32784" lon="3.56693">
        <ele>1024.809073</ele>
        <time>2021-04-30T17:37:07.499Z</time>
      </trkpt>
      <trkpt lat="44.32779" lon="3.56677">
        <ele>1024.656142</ele>
        <time>2021-04-30T17:37:09.785Z</time>
      </trkpt>
      <trkpt lat="44.32772" lon="3.56662">
        <ele>1024.506514</ele>
        <time>2021-04-30T17:37:12.050Z</time>
      </trkpt>
      <trkpt lat="44.32756" lon="3.56641">
        <ele>1024.244458</ele>
        <time>2021-04-30T17:37:15.860Z</time>
      </trkpt>
      <trkpt lat="44.32641" lon="3.56539">
        <ele>1020.263512</ele>
        <time>2021-04-30T17:37:37.852Z</time>
      </trkpt>
      <trkpt lat="44.32623" lon="3.56512">
        <ele>1019.309663</ele>
        <time>2021-04-30T17:37:42.017Z</time>
      </trkpt>
      <trkpt lat="44.32605" lon="3.56453">
        <ele>1017.701734</ele>
        <time>2021-04-30T17:37:49.277Z</time>
      </trkpt>
      <trkpt lat="44.32596" lon="3.56438">
        <ele>1017.253216</ele>
        <time>2021-04-30T17:37:51.430Z</time>
      </trkpt>
      <trkpt lat="44.32587" lon="3.56428">
        <ele>1016.9462</ele>
        <time>2021-04-30T17:37:53.302Z</time>
      </trkpt>
      <trkpt lat="44.32575" lon="3.56418">
        <ele>1016.577894</ele>
        <time>2021-04-30T17:37:55.575Z</time>
      </trkpt>
      <trkpt lat="44.32562" lon="3.56412">
        <ele>1016.196554</ele>
        <time>2021-04-30T17:37:57.696Z</time>
      </trkpt>
      <trkpt lat="44.32521" lon="3.56399">
        <ele>1015.058279</ele>
        <time>2021-04-30T17:38:04.488Z</time>
      </trkpt>
      <trkpt lat="44.32496" lon="3.56397">
        <ele>1014.398096</ele>
        <time>2021-04-30T17:38:08.441Z</time>
      </trkpt>
      <trkpt lat="44.32419" lon="3.56435">
        <ele>1012.613989</ele>
        <time>2021-04-30T17:38:23.347Z</time>
      </trkpt>
      <trkpt lat="44.32384" lon="3.56442">
        <ele>1012.667046</ele>
        <time>2021-04-30T17:38:31.947Z</time>
      </trkpt>
      <trkpt lat="44.32362" lon="3.56435">
        <ele>1012.700217</ele>
        <time>2021-04-30T17:38:37.301Z</time>
      </trkpt>
      <trkpt lat="44.32326" lon="3.5642">
        <ele>1012.755884</ele>
        <time>2021-04-30T17:38:46.390Z</time>
      </trkpt>
      <trkpt lat="44.32295" lon="3.56404">
        <ele>1012.805415</ele>
        <time>2021-04-30T17:38:54.473Z</time>
      </trkpt>
      <trkpt lat="44.32263" lon="3.56378">
        <ele>1012.859528</ele>
        <time>2021-04-30T17:39:03.713Z</time>
      </trkpt>
      <trkpt lat="44.3224" lon="3.56357">
        <ele>1012.851395</ele>
        <time>2021-04-30T17:39:10.468Z</time>
      </trkpt>
      <trkpt lat="44.32164" lon="3.56271">
        <ele>1012.822075</ele>
        <time>2021-04-30T17:39:33.344Z</time>
      </trkpt>
      <trkpt lat="44.32147" lon="3.56258">
        <ele>1012.816267</ele>
        <time>2021-04-30T17:39:37.381Z</time>
      </trkpt>
      <trkpt lat="44.31991" lon="3.56205">
        <ele>1011.258936</ele>
        <time>2021-04-30T17:40:07.962Z</time>
      </trkpt>
      <trkpt lat="44.31901" lon="3.56189">
        <ele>1009.316265</ele>
        <time>2021-04-30T17:40:25.030Z</time>
      </trkpt>
      <trkpt lat="44.31762" lon="3.56126">
        <ele>1004.276896</ele>
        <time>2021-04-30T17:40:48.042Z</time>
      </trkpt>
      <trkpt lat="44.31726" lon="3.561">
        <ele>1001.897542</ele>
        <time>2021-04-30T17:40:54.020Z</time>
      </trkpt>
      <trkpt lat="44.31724" lon="3.56098">
        <ele>1001.716428</ele>
        <time>2021-04-30T17:40:54.422Z</time>
      </trkpt>
      <trkpt lat="44.31713" lon="3.56088">
        <ele>1000.967869</ele>
        <time>2021-04-30T17:40:56.307Z</time>
      </trkpt>
      <trkpt lat="44.31685" lon="3.56059">
        <ele>998.871733</ele>
        <time>2021-04-30T17:41:01.495Z</time>
      </trkpt>
      <trkpt lat="44.31664" lon="3.56042">
        <ele>997.459297</ele>
        <time>2021-04-30T17:41:04.957Z</time>
      </trkpt>
      <trkpt lat="44.3159" lon="3.56011">
        <ele>993.234841</ele>
        <time>2021-04-30T17:41:16.078Z</time>
      </trkpt>
      <trkpt lat="44.3156" lon="3.5599">
        <ele>991.895002</ele>
        <time>2021-04-30T17:41:21.065Z</time>
      </trkpt>
      <trkpt lat="44.31539" lon="3.55968">
        <ele>990.843598</ele>
        <time>2021-04-30T17:41:25.173Z</time>
      </trkpt>
      <trkpt lat="44.31495" lon="3.55902">
        <ele>988.295539</ele>
        <time>2021-04-30T17:41:35.689Z</time>
      </trkpt>
      <trkpt lat="44.31477" lon="3.55863">
        <ele>986.977237</ele>
        <time>2021-04-30T17:41:41.332Z</time>
      </trkpt>
      <trkpt lat="44.31466" lon="3.55843">
        <ele>986.589451</ele>
        <time>2021-04-30T17:41:44.426Z</time>
      </trkpt>
      <trkpt lat="44.31424" lon="3.55779">
        <ele>985.944967</ele>
        <time>2021-04-30T17:41:55.780Z</time>
      </trkpt>
      <trkpt lat="44.31346" lon="3.55708">
        <ele>984.982893</ele>
        <time>2021-04-30T17:42:14.443Z</time>
      </trkpt>
      <trkpt lat="44.31304" lon="3.55614">
        <ele>984.757464</ele>
        <time>2021-04-30T17:42:33.576Z</time>
      </trkpt>
      <trkpt lat="44.3129" lon="3.55596">
        <ele>984.734415</ele>
        <time>2021-04-30T17:42:37.480Z</time>
      </trkpt>
      <trkpt lat="44.31282" lon="3.55585">
        <ele>984.719635</ele>
        <time>2021-04-30T17:42:40.395Z</time>
      </trkpt>
      <trkpt lat="44.31275" lon="3.55573">
        <ele>984.705824</ele>
        <time>2021-04-30T17:42:42.933Z</time>
      </trkpt>
      <trkpt lat="44.31265" lon="3.55557">
        <ele>984.687345</ele>
        <time>2021-04-30T17:42:45.933Z</time>
      </trkpt>
      <trkpt lat="44.3126" lon="3.55548">
        <ele>984.67718</ele>
        <time>2021-04-30T17:42:47.914Z</time>
      </trkpt>
      <trkpt lat="44.31256" lon="3.55541">
        <ele>984.669124</ele>
        <time>2021-04-30T17:42:49.394Z</time>
      </trkpt>
      <trkpt lat="44.3125" lon="3.5552">
        <ele>984.648892</ele>
        <time>2021-04-30T17:42:52.612Z</time>
      </trkpt>
      <trkpt lat="44.31249" lon="3.55509">
        <ele>984.639089</ele>
        <time>2021-04-30T17:42:54.362Z</time>
      </trkpt>
      <trkpt lat="44.31246" lon="3.55474">
        <ele>984.476609</ele>
        <time>2021-04-30T17:42:59.553Z</time>
      </trkpt>
      <trkpt lat="44.31244" lon="3.55442">
        <ele>983.972609</ele>
        <time>2021-04-30T17:43:04.270Z</time>
      </trkpt>
      <trkpt lat="44.31255" lon="3.55372">
        <ele>982.861271</ele>
        <time>2021-04-30T17:43:13.632Z</time>
      </trkpt>
      <trkpt lat="44.31255" lon="3.55344">
        <ele>982.422343</ele>
        <time>2021-04-30T17:43:17.215Z</time>
      </trkpt>
      <trkpt lat="44.31232" lon="3.55259">
        <ele>981.000046</ele>
        <time>2021-04-30T17:43:27.807Z</time>
      </trkpt>
      <trkpt lat="44.31227" lon="3.55213">
        <ele>979.909874</ele>
        <time>2021-04-30T17:43:33.113Z</time>
      </trkpt>
      <trkpt lat="44.31216" lon="3.55194">
        <ele>979.195372</ele>
        <time>2021-04-30T17:43:35.844Z</time>
      </trkpt>
      <trkpt lat="44.31186" lon="3.5517">
        <ele>977.754763</ele>
        <time>2021-04-30T17:43:41.302Z</time>
      </trkpt>
      <trkpt lat="44.31141" lon="3.55152">
        <ele>975.836443</ele>
        <time>2021-04-30T17:43:48.526Z</time>
      </trkpt>
      <trkpt lat="44.31135" lon="3.55136">
        <ele>975.285173</ele>
        <time>2021-04-30T17:43:50.604Z</time>
      </trkpt>
      <trkpt lat="44.31143" lon="3.55113">
        <ele>974.539528</ele>
        <time>2021-04-30T17:43:53.384Z</time>
      </trkpt>
      <trkpt lat="44.3117" lon="3.55097">
        <ele>973.306593</ele>
        <time>2021-04-30T17:43:58.025Z</time>
      </trkpt>
      <trkpt lat="44.31177" lon="3.5508">
        <ele>972.882143</ele>
        <time>2021-04-30T17:44:00.228Z</time>
      </trkpt>
      <trkpt lat="44.31172" lon="3.55052">
        <ele>972.288377</ele>
        <time>2021-04-30T17:44:03.396Z</time>
      </trkpt>
      <trkpt lat="44.31131" lon="3.55">
        <ele>970.644326</ele>
        <time>2021-04-30T17:44:12.329Z</time>
      </trkpt>
      <trkpt lat="44.31126" lon="3.54968">
        <ele>969.955825</ele>
        <time>2021-04-30T17:44:16.159Z</time>
      </trkpt>
      <trkpt lat="44.31146" lon="3.54822">
        <ele>967.974263</ele>
        <time>2021-04-30T17:44:35.376Z</time>
      </trkpt>
      <trkpt lat="44.31154" lon="3.54805">
        <ele>967.96823</ele>
        <time>2021-04-30T17:44:38.339Z</time>
      </trkpt>
      <trkpt lat="44.3118" lon="3.54772">
        <ele>967.953136</ele>
        <time>2021-04-30T17:44:46.187Z</time>
      </trkpt>
      <trkpt lat="44.31184" lon="3.54751">
        <ele>967.946677</ele>
        <time>2021-04-30T17:44:49.886Z</time>
      </trkpt>
      <trkpt lat="44.31178" lon="3.54732">
        <ele>967.940162</ele>
        <time>2021-04-30T17:44:53.656Z</time>
      </trkpt>
      <trkpt lat="44.31146" lon="3.54692">
        <ele>967.922036</ele>
        <time>2021-04-30T17:45:04.743Z</time>
      </trkpt>
      <trkpt lat="44.31138" lon="3.54676">
        <ele>967.916174</ele>
        <time>2021-04-30T17:45:08.496Z</time>
      </trkpt>
      <trkpt lat="44.31097" lon="3.54546">
        <ele>968.933193</ele>
        <time>2021-04-30T17:45:36.831Z</time>
      </trkpt>
      <trkpt lat="44.31092" lon="3.54525">
        <ele>969.094726</ele>
        <time>2021-04-30T17:45:41.176Z</time>
      </trkpt>
      <trkpt lat="44.31089" lon="3.54439">
        <ele>969.728603</ele>
        <time>2021-04-30T17:45:56.699Z</time>
      </trkpt>
      <trkpt lat="44.31081" lon="3.544">
        <ele>969.77961</ele>
        <time>2021-04-30T17:46:03.499Z</time>
      </trkpt>
      <trkpt lat="44.31069" lon="3.54375">
        <ele>969.788935</ele>
        <time>2021-04-30T17:46:08.596Z</time>
      </trkpt>
      <trkpt lat="44.31063" lon="3.54366">
        <ele>969.792683</ele>
        <time>2021-04-30T17:46:10.529Z</time>
      </trkpt>
      <trkpt lat="44.31059" lon="3.5436">
        <ele>969.795206</ele>
        <time>2021-04-30T17:46:11.807Z</time>
      </trkpt>
      <trkpt lat="44.31056" lon="3.54339">
        <ele>969.801752</ele>
        <time>2021-04-30T17:46:15.272Z</time>
      </trkpt>
      <trkpt lat="44.31061" lon="3.54307">
        <ele>969.811594</ele>
        <time>2021-04-30T17:46:20.210Z</time>
      </trkpt>
      <trkpt lat="44.31057" lon="3.54279">
        <ele>969.820411</ele>
        <time>2021-04-30T17:46:24.690Z</time>
      </trkpt>
      <trkpt lat="44.30996" lon="3.5417">
        <ele>969.75076</ele>
        <time>2021-04-30T17:46:46.296Z</time>
      </trkpt>
      <trkpt lat="44.30996" lon="3.54144">
        <ele>969.707688</ele>
        <time>2021-04-30T17:46:50.223Z</time>
      </trkpt>
      <trkpt lat="44.31008" lon="3.54109">
        <ele>969.640856</ele>
        <time>2021-04-30T17:46:56.377Z</time>
      </trkpt>
      <trkpt lat="44.31007" lon="3.54092">
        <ele>969.612672</ele>
        <time>2021-04-30T17:46:59.086Z</time>
      </trkpt>
      <trkpt lat="44.31" lon="3.54055">
        <ele>969.546613</ele>
        <time>2021-04-30T17:47:05.534Z</time>
      </trkpt>
      <trkpt lat="44.3099" lon="3.54028">
        <ele>969.49581</ele>
        <time>2021-04-30T17:47:09.904Z</time>
      </trkpt>
      <trkpt lat="44.30978" lon="3.53932">
        <ele>969.015242</ele>
        <time>2021-04-30T17:47:23.931Z</time>
      </trkpt>
      <trkpt lat="44.30959" lon="3.53884">
        <ele>968.593822</ele>
        <time>2021-04-30T17:47:31.701Z</time>
      </trkpt>
      <trkpt lat="44.30959" lon="3.53875">
        <ele>968.528402</ele>
        <time>2021-04-30T17:47:33.385Z</time>
      </trkpt>
      <trkpt lat="44.30962" lon="3.53856">
        <ele>968.377611</ele>
        <time>2021-04-30T17:47:35.840Z</time>
      </trkpt>
      <trkpt lat="44.30966" lon="3.53801">
        <ele>967.951728</ele>
        <time>2021-04-30T17:47:43.428Z</time>
      </trkpt>
      <trkpt lat="44.30966" lon="3.53775">
        <ele>967.750106</ele>
        <time>2021-04-30T17:47:47.110Z</time>
      </trkpt>
      <trkpt lat="44.30964" lon="3.53756">
        <ele>967.602471</ele>
        <time>2021-04-30T17:47:49.439Z</time>
      </trkpt>
      <trkpt lat="44.30962" lon="3.53738">
        <ele>967.461165</ele>
        <time>2021-04-30T17:47:51.727Z</time>
      </trkpt>
      <trkpt lat="44.30969" lon="3.53704">
        <ele>967.076561</ele>
        <time>2021-04-30T17:47:56.309Z</time>
      </trkpt>
      <trkpt lat="44.31009" lon="3.53593">
        <ele>965.741661</ele>
        <time>2021-04-30T17:48:12.058Z</time>
      </trkpt>
      <trkpt lat="44.31009" lon="3.53571">
        <ele>965.503576</ele>
        <time>2021-04-30T17:48:15.048Z</time>
      </trkpt>
      <trkpt lat="44.31002" lon="3.53545">
        <ele>965.207789</ele>
        <time>2021-04-30T17:48:18.967Z</time>
      </trkpt>
      <trkpt lat="44.31007" lon="3.53509">
        <ele>964.812557</ele>
        <time>2021-04-30T17:48:24.068Z</time>
      </trkpt>
      <trkpt lat="44.31022" lon="3.53489">
        <ele>964.727701</ele>
        <time>2021-04-30T17:48:27.930Z</time>
      </trkpt>
      <trkpt lat="44.31101" lon="3.5344">
        <ele>964.491051</ele>
        <time>2021-04-30T17:48:45.182Z</time>
      </trkpt>
      <trkpt lat="44.31151" lon="3.53355">
        <ele>964.283586</ele>
        <time>2021-04-30T17:49:04.204Z</time>
      </trkpt>
      <trkpt lat="44.31156" lon="3.53321">
        <ele>964.262416</ele>
        <time>2021-04-30T17:49:10.705Z</time>
      </trkpt>
      <trkpt lat="44.31145" lon="3.53279">
        <ele>964.2351</ele>
        <time>2021-04-30T17:49:18.506Z</time>
      </trkpt>
      <trkpt lat="44.31143" lon="3.53245">
        <ele>964.213721</ele>
        <time>2021-04-30T17:49:23.967Z</time>
      </trkpt>
      <trkpt lat="44.31161" lon="3.53175">
        <ele>964.167741</ele>
        <time>2021-04-30T17:49:35.324Z</time>
      </trkpt>
      <trkpt lat="44.3116" lon="3.53125">
        <ele>964.136949</ele>
        <time>2021-04-30T17:49:42.612Z</time>
      </trkpt>
      <trkpt lat="44.31156" lon="3.53098">
        <ele>963.925175</ele>
        <time>2021-04-30T17:49:46.289Z</time>
      </trkpt>
      <trkpt lat="44.31154" lon="3.53088">
        <ele>963.800105</ele>
        <time>2021-04-30T17:49:47.913Z</time>
      </trkpt>
      <trkpt lat="44.3115" lon="3.53077">
        <ele>963.667666</ele>
        <time>2021-04-30T17:49:49.674Z</time>
      </trkpt>
      <trkpt lat="44.31123" lon="3.53037">
        <ele>963.05934</ele>
        <time>2021-04-30T17:49:56.977Z</time>
      </trkpt>
      <trkpt lat="44.31113" lon="3.5301">
        <ele>962.720956</ele>
        <time>2021-04-30T17:50:00.881Z</time>
      </trkpt>
      <trkpt lat="44.31104" lon="3.52944">
        <ele>961.969509</ele>
        <time>2021-04-30T17:50:09.387Z</time>
      </trkpt>
      <trkpt lat="44.31071" lon="3.52866">
        <ele>961.181468</ele>
        <time>2021-04-30T17:50:20.703Z</time>
      </trkpt>
      <trkpt lat="44.31064" lon="3.52839">
        <ele>961.04837</ele>
        <time>2021-04-30T17:50:24.541Z</time>
      </trkpt>
      <trkpt lat="44.31064" lon="3.52806">
        <ele>960.898995</ele>
        <time>2021-04-30T17:50:29.049Z</time>
      </trkpt>
      <trkpt lat="44.31053" lon="3.52786">
        <ele>960.781647</ele>
        <time>2021-04-30T17:50:32.631Z</time>
      </trkpt>
      <trkpt lat="44.31044" lon="3.52778">
        <ele>960.713103</ele>
        <time>2021-04-30T17:50:34.770Z</time>
      </trkpt>
      <trkpt lat="44.31017" lon="3.52768">
        <ele>960.528629</ele>
        <time>2021-04-30T17:50:40.624Z</time>
      </trkpt>
      <trkpt lat="44.309" lon="3.5275">
        <ele>960.698073</ele>
        <time>2021-04-30T17:51:08.618Z</time>
      </trkpt>
      <trkpt lat="44.3082" lon="3.52689">
        <ele>961.470092</ele>
        <time>2021-04-30T17:51:32.869Z</time>
      </trkpt>
      <trkpt lat="44.30812" lon="3.52681">
        <ele>961.547412</ele>
        <time>2021-04-30T17:51:35.430Z</time>
      </trkpt>
      <trkpt lat="44.30809" lon="3.52677">
        <ele>961.586839</ele>
        <time>2021-04-30T17:51:37.077Z</time>
      </trkpt>
      <trkpt lat="44.30788" lon="3.52616">
        <ele>961.972267</ele>
        <time>2021-04-30T17:51:49.897Z</time>
      </trkpt>
      <trkpt lat="44.3077" lon="3.52587">
        <ele>962.184822</ele>
        <time>2021-04-30T17:51:57.356Z</time>
      </trkpt>
      <trkpt lat="44.30719" lon="3.52551">
        <ele>962.631882</ele>
        <time>2021-04-30T17:52:11.962Z</time>
      </trkpt>
      <trkpt lat="44.30684" lon="3.52516">
        <ele>962.968833</ele>
        <time>2021-04-30T17:52:22.560Z</time>
      </trkpt>
      <trkpt lat="44.30635" lon="3.52488">
        <ele>963.046854</ele>
        <time>2021-04-30T17:52:34.438Z</time>
      </trkpt>
      <trkpt lat="44.30623" lon="3.52478">
        <ele>963.030001</ele>
        <time>2021-04-30T17:52:37.447Z</time>
      </trkpt>
      <trkpt lat="44.30613" lon="3.52464">
        <ele>963.011523</ele>
        <time>2021-04-30T17:52:40.688Z</time>
      </trkpt>
      <trkpt lat="44.30602" lon="3.52442">
        <ele>962.988554</ele>
        <time>2021-04-30T17:52:44.717Z</time>
      </trkpt>
      <trkpt lat="44.30599" lon="3.52429">
        <ele>962.976258</ele>
        <time>2021-04-30T17:52:46.866Z</time>
      </trkpt>
      <trkpt lat="44.30595" lon="3.52406">
        <ele>962.954786</ele>
        <time>2021-04-30T17:52:50.540Z</time>
      </trkpt>
      <trkpt lat="44.30585" lon="3.52362">
        <ele>962.914091</ele>
        <time>2021-04-30T17:52:57.488Z</time>
      </trkpt>
      <trkpt lat="44.30549" lon="3.52265">
        <ele>962.84585</ele>
        <time>2021-04-30T17:53:13.963Z</time>
      </trkpt>
      <trkpt lat="44.30503" lon="3.52167">
        <ele>962.798659</ele>
        <time>2021-04-30T17:53:32.270Z</time>
      </trkpt>
      <trkpt lat="44.30431" lon="3.52046">
        <ele>963.125032</ele>
        <time>2021-04-30T17:53:58.288Z</time>
      </trkpt>
      <trkpt lat="44.30366" lon="3.51908">
        <ele>963.841009</ele>
        <time>2021-04-30T17:54:27.771Z</time>
      </trkpt>
      <trkpt lat="44.30327" lon="3.51775">
        <ele>965.33921</ele>
        <time>2021-04-30T17:54:56.220Z</time>
      </trkpt>
      <trkpt lat="44.30283" lon="3.51601">
        <ele>967.51548</ele>
        <time>2021-04-30T17:55:35.682Z</time>
      </trkpt>
      <trkpt lat="44.30189" lon="3.51388">
        <ele>970.464929</ele>
        <time>2021-04-30T17:56:29.221Z</time>
      </trkpt>
      <trkpt lat="44.30168" lon="3.51306">
        <ele>971.086792</ele>
        <time>2021-04-30T17:56:45.728Z</time>
      </trkpt>
      <trkpt lat="44.30149" lon="3.51251">
        <ele>971.527375</ele>
        <time>2021-04-30T17:56:56.637Z</time>
      </trkpt>
      <trkpt lat="44.30112" lon="3.51158">
        <ele>971.382329</ele>
        <time>2021-04-30T17:57:13.411Z</time>
      </trkpt>
      <trkpt lat="44.3008" lon="3.51097">
        <ele>971.019343</ele>
        <time>2021-04-30T17:57:24.186Z</time>
      </trkpt>
      <trkpt lat="44.30031" lon="3.50952">
        <ele>969.862471</ele>
        <time>2021-04-30T17:57:45.782Z</time>
      </trkpt>
      <trkpt lat="44.29945" lon="3.50779">
        <ele>967.486847</ele>
        <time>2021-04-30T17:58:13.064Z</time>
      </trkpt>
      <trkpt lat="44.29896" lon="3.50705">
        <ele>966.220104</ele>
        <time>2021-04-30T17:58:26.323Z</time>
      </trkpt>
      <trkpt lat="44.29824" lon="3.50616">
        <ele>964.532588</ele>
        <time>2021-04-30T17:58:43.394Z</time>
      </trkpt>
      <trkpt lat="44.29795" lon="3.50581">
        <ele>963.652766</ele>
        <time>2021-04-30T17:58:50.259Z</time>
      </trkpt>
      <trkpt lat="44.29761" lon="3.50539">
        <ele>962.634884</ele>
        <time>2021-04-30T17:58:58.090Z</time>
      </trkpt>
      <trkpt lat="44.29723" lon="3.50478">
        <ele>961.31395</ele>
        <time>2021-04-30T17:59:08.153Z</time>
      </trkpt>
      <trkpt lat="44.29607" lon="3.50327">
        <ele>957.158813</ele>
        <time>2021-04-30T17:59:34.759Z</time>
      </trkpt>
      <trkpt lat="44.29526" lon="3.5018">
        <ele>953.508843</ele>
        <time>2021-04-30T17:59:56.817Z</time>
      </trkpt>
      <trkpt lat="44.29518" lon="3.50142">
        <ele>952.703779</ele>
        <time>2021-04-30T18:00:01.625Z</time>
      </trkpt>
      <trkpt lat="44.29534" lon="3.5008">
        <ele>951.396939</ele>
        <time>2021-04-30T18:00:09.470Z</time>
      </trkpt>
      <trkpt lat="44.29531" lon="3.50066">
        <ele>951.111708</ele>
        <time>2021-04-30T18:00:11.182Z</time>
      </trkpt>
      <trkpt lat="44.29508" lon="3.50012">
        <ele>950.043993</ele>
        <time>2021-04-30T18:00:18.710Z</time>
      </trkpt>
      <trkpt lat="44.29506" lon="3.49954">
        <ele>949.150476</ele>
        <time>2021-04-30T18:00:25.872Z</time>
      </trkpt>
      <trkpt lat="44.29501" lon="3.49924">
        <ele>948.683054</ele>
        <time>2021-04-30T18:00:29.657Z</time>
      </trkpt>
      <trkpt lat="44.29434" lon="3.49762">
        <ele>946.594775</ele>
        <time>2021-04-30T18:00:53.814Z</time>
      </trkpt>
      <trkpt lat="44.29419" lon="3.49749">
        <ele>946.512086</ele>
        <time>2021-04-30T18:00:57.388Z</time>
      </trkpt>
      <trkpt lat="44.29365" lon="3.49728">
        <ele>946.250683</ele>
        <time>2021-04-30T18:01:09.236Z</time>
      </trkpt>
      <trkpt lat="44.29335" lon="3.49709">
        <ele>946.100798</ele>
        <time>2021-04-30T18:01:16.559Z</time>
      </trkpt>
      <trkpt lat="44.2922" lon="3.49613">
        <ele>946.590372</ele>
        <time>2021-04-30T18:01:49.967Z</time>
      </trkpt>
      <trkpt lat="44.29195" lon="3.496">
        <ele>946.743601</ele>
        <time>2021-04-30T18:01:56.618Z</time>
      </trkpt>
      <trkpt lat="44.29172" lon="3.49594">
        <ele>946.884352</ele>
        <time>2021-04-30T18:02:02.621Z</time>
      </trkpt>
      <trkpt lat="44.29131" lon="3.49602">
        <ele>947.046129</ele>
        <time>2021-04-30T18:02:12.600Z</time>
      </trkpt>
      <trkpt lat="44.29118" lon="3.49598">
        <ele>947.062405</ele>
        <time>2021-04-30T18:02:15.700Z</time>
      </trkpt>
      <trkpt lat="44.29079" lon="3.49545">
        <ele>947.1301</ele>
        <time>2021-04-30T18:02:28.286Z</time>
      </trkpt>
      <trkpt lat="44.2904" lon="3.4952">
        <ele>947.183085</ele>
        <time>2021-04-30T18:02:37.757Z</time>
      </trkpt>
      <trkpt lat="44.29026" lon="3.49493">
        <ele>947.212988</ele>
        <time>2021-04-30T18:02:43.001Z</time>
      </trkpt>
      <trkpt lat="44.28987" lon="3.4945">
        <ele>947.249035</ele>
        <time>2021-04-30T18:02:53.670Z</time>
      </trkpt>
      <trkpt lat="44.28976" lon="3.49428">
        <ele>947.249991</ele>
        <time>2021-04-30T18:02:57.870Z</time>
      </trkpt>
      <trkpt lat="44.28919" lon="3.49257">
        <ele>947.256633</ele>
        <time>2021-04-30T18:03:27.847Z</time>
      </trkpt>
      <trkpt lat="44.28831" lon="3.48851">
        <ele>947.950447</ele>
        <time>2021-04-30T18:04:38.645Z</time>
      </trkpt>
      <trkpt lat="44.2875" lon="3.48641">
        <ele>948.631135</ele>
        <time>2021-04-30T18:05:18.810Z</time>
      </trkpt>
      <trkpt lat="44.28746" lon="3.48611">
        <ele>948.733619</ele>
        <time>2021-04-30T18:05:24.272Z</time>
      </trkpt>
      <trkpt lat="44.28754" lon="3.48543">
        <ele>948.960736</ele>
        <time>2021-04-30T18:05:36.676Z</time>
      </trkpt>
      <trkpt lat="44.28753" lon="3.48517">
        <ele>949.026901</ele>
        <time>2021-04-30T18:05:41.476Z</time>
      </trkpt>
      <trkpt lat="44.28746" lon="3.4845">
        <ele>949.19292</ele>
        <time>2021-04-30T18:05:53.301Z</time>
      </trkpt>
      <trkpt lat="44.28744" lon="3.48428">
        <ele>949.248016</ele>
        <time>2021-04-30T18:05:57.258Z</time>
      </trkpt>
      <trkpt lat="44.28738" lon="3.4838">
        <ele>949.366997</ele>
        <time>2021-04-30T18:06:05.467Z</time>
      </trkpt>
      <trkpt lat="44.28726" lon="3.48266">
        <ele>949.469168</ele>
        <time>2021-04-30T18:06:24.216Z</time>
      </trkpt>
      <trkpt lat="44.28695" lon="3.47978">
        <ele>948.563129</ele>
        <time>2021-04-30T18:07:06.565Z</time>
      </trkpt>
      <trkpt lat="44.28705" lon="3.4788">
        <ele>948.336454</ele>
        <time>2021-04-30T18:07:21.370Z</time>
      </trkpt>
      <trkpt lat="44.28702" lon="3.47783">
        <ele>948.148624</ele>
        <time>2021-04-30T18:07:36.768Z</time>
      </trkpt>
      <trkpt lat="44.28705" lon="3.47731">
        <ele>948.141089</ele>
        <time>2021-04-30T18:07:45.335Z</time>
      </trkpt>
      <trkpt lat="44.28703" lon="3.47714">
        <ele>948.138444</ele>
        <time>2021-04-30T18:07:48.383Z</time>
      </trkpt>
      <trkpt lat="44.28682" lon="3.47667">
        <ele>948.13046</ele>
        <time>2021-04-30T18:07:57.639Z</time>
      </trkpt>
      <trkpt lat="44.28681" lon="3.47652">
        <ele>948.128257</ele>
        <time>2021-04-30T18:08:00.186Z</time>
      </trkpt>
      <trkpt lat="44.28695" lon="3.47538">
        <ele>947.864191</ele>
        <time>2021-04-30T18:08:18.011Z</time>
      </trkpt>
      <trkpt lat="44.28694" lon="3.47457">
        <ele>946.859809</ele>
        <time>2021-04-30T18:08:29.457Z</time>
      </trkpt>
      <trkpt lat="44.28684" lon="3.47363">
        <ele>945.679669</ele>
        <time>2021-04-30T18:08:41.549Z</time>
      </trkpt>
      <trkpt lat="44.28658" lon="3.47262">
        <ele>943.617539</ele>
        <time>2021-04-30T18:08:54.090Z</time>
      </trkpt>
      <trkpt lat="44.28655" lon="3.47235">
        <ele>942.886802</ele>
        <time>2021-04-30T18:08:57.241Z</time>
      </trkpt>
      <trkpt lat="44.28656" lon="3.47187">
        <ele>941.629007</ele>
        <time>2021-04-30T18:09:02.714Z</time>
      </trkpt>
      <trkpt lat="44.28657" lon="3.47182">
        <ele>941.500967</ele>
        <time>2021-04-30T18:09:03.177Z</time>
      </trkpt>
      <trkpt lat="44.28663" lon="3.47135">
        <ele>940.252262</ele>
        <time>2021-04-30T18:09:08.633Z</time>
      </trkpt>
      <trkpt lat="44.28679" lon="3.46999">
        <ele>937.003955</ele>
        <time>2021-04-30T18:09:24.370Z</time>
      </trkpt>
      <trkpt lat="44.28694" lon="3.46876">
        <ele>934.447123</ele>
        <time>2021-04-30T18:09:39.111Z</time>
      </trkpt>
      <trkpt lat="44.28707" lon="3.46753">
        <ele>932.584745</ele>
        <time>2021-04-30T18:09:55.075Z</time>
      </trkpt>
      <trkpt lat="44.28667" lon="3.4673">
        <ele>931.99308</ele>
        <time>2021-04-30T18:10:03.024Z</time>
      </trkpt>
      <trkpt lat="44.28479" lon="3.46637">
        <ele>929.611122</ele>
        <time>2021-04-30T18:10:41.258Z</time>
      </trkpt>
      <trkpt lat="44.28424" lon="3.46602">
        <ele>928.971034</ele>
        <time>2021-04-30T18:10:53.049Z</time>
      </trkpt>
      <trkpt lat="44.28215" lon="3.46455">
        <ele>926.590751</ele>
        <time>2021-04-30T18:11:37.826Z</time>
      </trkpt>
      <trkpt lat="44.28102" lon="3.46359">
        <ele>925.61656</ele>
        <time>2021-04-30T18:12:04.237Z</time>
      </trkpt>
      <trkpt lat="44.28008" lon="3.46318">
        <ele>925.688563</ele>
        <time>2021-04-30T18:12:25.277Z</time>
      </trkpt>
      <trkpt lat="44.27476" lon="3.46011">
        <ele>929.045344</ele>
        <time>2021-04-30T18:14:45.988Z</time>
      </trkpt>
      <trkpt lat="44.27408" lon="3.45979">
        <ele>930.185072</ele>
        <time>2021-04-30T18:15:07.104Z</time>
      </trkpt>
      <trkpt lat="44.2734" lon="3.4596">
        <ele>932.181193</ele>
        <time>2021-04-30T18:15:29.327Z</time>
      </trkpt>
      <trkpt lat="44.27268" lon="3.45958">
        <ele>934.236604</ele>
        <time>2021-04-30T18:15:55.201Z</time>
      </trkpt>
      <trkpt lat="44.27215" lon="3.45949">
        <ele>936.050694</ele>
        <time>2021-04-30T18:16:15.678Z</time>
      </trkpt>
      <trkpt lat="44.27152" lon="3.45921">
        <ele>938.47009</ele>
        <time>2021-04-30T18:16:40.861Z</time>
      </trkpt>
      <trkpt lat="44.27108" lon="3.45909">
        <ele>940.10941</ele>
        <time>2021-04-30T18:16:57.337Z</time>
      </trkpt>
      <trkpt lat="44.27077" lon="3.45897">
        <ele>941.261252</ele>
        <time>2021-04-30T18:17:08.851Z</time>
      </trkpt>
      <trkpt lat="44.27003" lon="3.45885">
        <ele>943.027729</ele>
        <time>2021-04-30T18:17:34.348Z</time>
      </trkpt>
      <trkpt lat="44.26873" lon="3.45897">
        <ele>945.973628</ele>
        <time>2021-04-30T18:18:12.550Z</time>
      </trkpt>
      <trkpt lat="44.2684" lon="3.45884">
        <ele>946.618314</ele>
        <time>2021-04-30T18:18:22.279Z</time>
      </trkpt>
      <trkpt lat="44.26794" lon="3.4588">
        <ele>947.496629</ele>
        <time>2021-04-30T18:18:35.586Z</time>
      </trkpt>
      <trkpt lat="44.26697" lon="3.45883">
        <ele>949.593366</ele>
        <time>2021-04-30T18:19:05.508Z</time>
      </trkpt>
      <trkpt lat="44.26653" lon="3.45902">
        <ele>950.966533</ele>
        <time>2021-04-30T18:19:20.548Z</time>
      </trkpt>
      <trkpt lat="44.26626" lon="3.4592">
        <ele>951.858419</ele>
        <time>2021-04-30T18:19:30.592Z</time>
      </trkpt>
      <trkpt lat="44.26593" lon="3.4595">
        <ele>953.033077</ele>
        <time>2021-04-30T18:19:44.144Z</time>
      </trkpt>
      <trkpt lat="44.26526" lon="3.45988">
        <ele>955.245077</ele>
        <time>2021-04-30T18:20:11.705Z</time>
      </trkpt>
      <trkpt lat="44.26434" lon="3.46057">
        <ele>958.520795</ele>
        <time>2021-04-30T18:20:51.602Z</time>
      </trkpt>
      <trkpt lat="44.26416" lon="3.4607">
        <ele>959.158499</ele>
        <time>2021-04-30T18:20:58.380Z</time>
      </trkpt>
      <trkpt lat="44.26393" lon="3.46082">
        <ele>959.902783</ele>
        <time>2021-04-30T18:21:04.749Z</time>
      </trkpt>
      <trkpt lat="44.26368" lon="3.46086">
        <ele>959.594189</ele>
        <time>2021-04-30T18:21:10.536Z</time>
      </trkpt>
      <trkpt lat="44.26326" lon="3.46084">
        <ele>959.073358</ele>
        <time>2021-04-30T18:21:19.469Z</time>
      </trkpt>
      <trkpt lat="44.26313" lon="3.46079">
        <ele>958.897738</ele>
        <time>2021-04-30T18:21:22.923Z</time>
      </trkpt>
      <trkpt lat="44.26284" lon="3.46057">
        <ele>958.491162</ele>
        <time>2021-04-30T18:21:28.826Z</time>
      </trkpt>
      <trkpt lat="44.26276" lon="3.46036">
        <ele>958.281747</ele>
        <time>2021-04-30T18:21:31.693Z</time>
      </trkpt>
      <trkpt lat="44.26265" lon="3.45893">
        <ele>956.610836</ele>
        <time>2021-04-30T18:21:48.176Z</time>
      </trkpt>
      <trkpt lat="44.26252" lon="3.45881">
        <ele>956.303986</ele>
        <time>2021-04-30T18:21:50.594Z</time>
      </trkpt>
      <trkpt lat="44.262" lon="3.45874">
        <ele>955.276789</ele>
        <time>2021-04-30T18:21:59.718Z</time>
      </trkpt>
      <trkpt lat="44.26187" lon="3.45863">
        <ele>954.978687</ele>
        <time>2021-04-30T18:22:02.610Z</time>
      </trkpt>
      <trkpt lat="44.26154" lon="3.45795">
        <ele>954.559786</ele>
        <time>2021-04-30T18:22:16.003Z</time>
      </trkpt>
      <trkpt lat="44.26134" lon="3.45766">
        <ele>955.265909</ele>
        <time>2021-04-30T18:22:24.000Z</time>
      </trkpt>
      <trkpt lat="44.2611" lon="3.45732">
        <ele>956.101533</ele>
        <time>2021-04-30T18:22:34.437Z</time>
      </trkpt>
      <trkpt lat="44.261" lon="3.45724">
        <ele>956.38292</ele>
        <time>2021-04-30T18:22:38.164Z</time>
      </trkpt>
      <trkpt lat="44.26075" lon="3.45714">
        <ele>957.042074</ele>
        <time>2021-04-30T18:22:47.260Z</time>
      </trkpt>
      <trkpt lat="44.26062" lon="3.45718">
        <ele>957.356633</ele>
        <time>2021-04-30T18:22:51.777Z</time>
      </trkpt>
      <trkpt lat="44.26042" lon="3.45733">
        <ele>957.919569</ele>
        <time>2021-04-30T18:23:00.202Z</time>
      </trkpt>
      <trkpt lat="44.26015" lon="3.45746">
        <ele>958.648016</ele>
        <time>2021-04-30T18:23:11.055Z</time>
      </trkpt>
      <trkpt lat="44.25932" lon="3.45765">
        <ele>962.952076</ele>
        <time>2021-04-30T18:23:45.415Z</time>
      </trkpt>
      <trkpt lat="44.2583" lon="3.45796">
        <ele>968.470481</ele>
        <time>2021-04-30T18:24:31.971Z</time>
      </trkpt>
      <trkpt lat="44.25727" lon="3.45769">
        <ele>975.518192</ele>
        <time>2021-04-30T18:25:22.095Z</time>
      </trkpt>
      <trkpt lat="44.25711" lon="3.45764">
        <ele>976.64481</ele>
        <time>2021-04-30T18:25:31.115Z</time>
      </trkpt>
      <trkpt lat="44.25619" lon="3.45706">
        <ele>984.308269</ele>
        <time>2021-04-30T18:26:23.836Z</time>
      </trkpt>
      <trkpt lat="44.25511" lon="3.45665">
        <ele>993.754634</ele>
        <time>2021-04-30T18:27:27.238Z</time>
      </trkpt>
      <trkpt lat="44.25506" lon="3.45657">
        <ele>994.385463</ele>
        <time>2021-04-30T18:27:31.680Z</time>
      </trkpt>
      <trkpt lat="44.25508" lon="3.4564">
        <ele>995.502327</ele>
        <time>2021-04-30T18:27:39.284Z</time>
      </trkpt>
      <trkpt lat="44.25548" lon="3.4561">
        <ele>999.841325</ele>
        <time>2021-04-30T18:28:07.188Z</time>
      </trkpt>
      <trkpt lat="44.25557" lon="3.45574">
        <ele>1002.413804</ele>
        <time>2021-04-30T18:28:24.104Z</time>
      </trkpt>
      <trkpt lat="44.25549" lon="3.45444">
        <ele>1011.35336</ele>
        <time>2021-04-30T18:29:21.985Z</time>
      </trkpt>
      <trkpt lat="44.25526" lon="3.45364">
        <ele>1015.976227</ele>
        <time>2021-04-30T18:29:58.222Z</time>
      </trkpt>
      <trkpt lat="44.25489" lon="3.45208">
        <ele>1024.398848</ele>
        <time>2021-04-30T18:30:57.724Z</time>
      </trkpt>
      <trkpt lat="44.25473" lon="3.45086">
        <ele>1025.828252</ele>
        <time>2021-04-30T18:31:27.587Z</time>
      </trkpt>
      <trkpt lat="44.25473" lon="3.45035">
        <ele>1026.171906</ele>
        <time>2021-04-30T18:31:36.292Z</time>
      </trkpt>
      <trkpt lat="44.25475" lon="3.45002">
        <ele>1026.398444</ele>
        <time>2021-04-30T18:31:41.169Z</time>
      </trkpt>
      <trkpt lat="44.25479" lon="3.44971">
        <ele>1026.610782</ele>
        <time>2021-04-30T18:31:45.088Z</time>
      </trkpt>
      <trkpt lat="44.25493" lon="3.44942">
        <ele>1026.465184</ele>
        <time>2021-04-30T18:31:49.393Z</time>
      </trkpt>
      <trkpt lat="44.25527" lon="3.44899">
        <ele>1024.58329</ele>
        <time>2021-04-30T18:31:56.705Z</time>
      </trkpt>
      <trkpt lat="44.25531" lon="3.44861">
        <ele>1023.437862</ele>
        <time>2021-04-30T18:32:01.020Z</time>
      </trkpt>
      <trkpt lat="44.25527" lon="3.44837">
        <ele>1022.706066</ele>
        <time>2021-04-30T18:32:03.721Z</time>
      </trkpt>
      <trkpt lat="44.25514" lon="3.44807">
        <ele>1021.683636</ele>
        <time>2021-04-30T18:32:07.417Z</time>
      </trkpt>
      <trkpt lat="44.25448" lon="3.44732">
        <ele>1018.205562</ele>
        <time>2021-04-30T18:32:20.373Z</time>
      </trkpt>
      <trkpt lat="44.25386" lon="3.44685">
        <ele>1015.374989</ele>
        <time>2021-04-30T18:32:31.322Z</time>
      </trkpt>
      <trkpt lat="44.25362" lon="3.44654">
        <ele>1014.08463</ele>
        <time>2021-04-30T18:32:36.446Z</time>
      </trkpt>
      <trkpt lat="44.25343" lon="3.44559">
        <ele>1011.578412</ele>
        <time>2021-04-30T18:32:47.976Z</time>
      </trkpt>
      <trkpt lat="44.25367" lon="3.44435">
        <ele>1009.242035</ele>
        <time>2021-04-30T18:33:03.510Z</time>
      </trkpt>
      <trkpt lat="44.25363" lon="3.44399">
        <ele>1008.573138</ele>
        <time>2021-04-30T18:33:08.045Z</time>
      </trkpt>
      <trkpt lat="44.25312" lon="3.44247">
        <ele>1006.359814</ele>
        <time>2021-04-30T18:33:29.285Z</time>
      </trkpt>
      <trkpt lat="44.25307" lon="3.44236">
        <ele>1006.210884</ele>
        <time>2021-04-30T18:33:31.066Z</time>
      </trkpt>
      <trkpt lat="44.25268" lon="3.44212">
        <ele>1005.577419</ele>
        <time>2021-04-30T18:33:38.829Z</time>
      </trkpt>
      <trkpt lat="44.25246" lon="3.44168">
        <ele>1004.987482</ele>
        <time>2021-04-30T18:33:46.332Z</time>
      </trkpt>
      <trkpt lat="44.2523" lon="3.44114">
        <ele>1004.828181</ele>
        <time>2021-04-30T18:33:54.693Z</time>
      </trkpt>
      <trkpt lat="44.2522" lon="3.44055">
        <ele>1004.783791</ele>
        <time>2021-04-30T18:34:03.974Z</time>
      </trkpt>
      <trkpt lat="44.2519" lon="3.44014">
        <ele>1004.740779</ele>
        <time>2021-04-30T18:34:13.312Z</time>
      </trkpt>
      <trkpt lat="44.25147" lon="3.43916">
        <ele>1004.912784</ele>
        <time>2021-04-30T18:34:32.565Z</time>
      </trkpt>
      <trkpt lat="44.25109" lon="3.43871">
        <ele>1005.445842</ele>
        <time>2021-04-30T18:34:45.906Z</time>
      </trkpt>
      <trkpt lat="44.25043" lon="3.43822">
        <ele>1006.251326</ele>
        <time>2021-04-30T18:35:06.594Z</time>
      </trkpt>
      <trkpt lat="44.25032" lon="3.43811">
        <ele>1006.40261</ele>
        <time>2021-04-30T18:35:10.225Z</time>
      </trkpt>
      <trkpt lat="44.25025" lon="3.43799">
        <ele>1006.515007</ele>
        <time>2021-04-30T18:35:13.701Z</time>
      </trkpt>
      <trkpt lat="44.25013" lon="3.43768">
        <ele>1006.725359</ele>
        <time>2021-04-30T18:35:20.099Z</time>
      </trkpt>
      <trkpt lat="44.25009" lon="3.4373">
        <ele>1006.915948</ele>
        <time>2021-04-30T18:35:27.857Z</time>
      </trkpt>
      <trkpt lat="44.25004" lon="3.43677">
        <ele>1007.180433</ele>
        <time>2021-04-30T18:35:38.136Z</time>
      </trkpt>
      <trkpt lat="44.25007" lon="3.43616">
        <ele>1007.484916</ele>
        <time>2021-04-30T18:35:49.634Z</time>
      </trkpt>
      <trkpt lat="44.25022" lon="3.43515">
        <ele>1007.570808</ele>
        <time>2021-04-30T18:36:06.331Z</time>
      </trkpt>
      <trkpt lat="44.25054" lon="3.434">
        <ele>1006.312167</ele>
        <time>2021-04-30T18:36:22.465Z</time>
      </trkpt>
      <trkpt lat="44.25059" lon="3.43324">
        <ele>1005.527789</ele>
        <time>2021-04-30T18:36:32.207Z</time>
      </trkpt>
      <trkpt lat="44.25057" lon="3.4328">
        <ele>1004.983056</ele>
        <time>2021-04-30T18:36:37.733Z</time>
      </trkpt>
      <trkpt lat="44.25058" lon="3.43246">
        <ele>1004.483207</ele>
        <time>2021-04-30T18:36:41.980Z</time>
      </trkpt>
      <trkpt lat="44.25062" lon="3.43166">
        <ele>1003.310353</ele>
        <time>2021-04-30T18:36:51.699Z</time>
      </trkpt>
      <trkpt lat="44.25057" lon="3.43082">
        <ele>1002.057247</ele>
        <time>2021-04-30T18:37:02.215Z</time>
      </trkpt>
      <trkpt lat="44.25063" lon="3.43049">
        <ele>1001.576328</ele>
        <time>2021-04-30T18:37:06.811Z</time>
      </trkpt>
      <trkpt lat="44.25069" lon="3.43036">
        <ele>1001.478714</ele>
        <time>2021-04-30T18:37:08.729Z</time>
      </trkpt>
      <trkpt lat="44.25111" lon="3.42944">
        <ele>1000.793121</ele>
        <time>2021-04-30T18:37:23.978Z</time>
      </trkpt>
      <trkpt lat="44.25139" lon="3.42851">
        <ele>1000.160445</ele>
        <time>2021-04-30T18:37:38.614Z</time>
      </trkpt>
      <trkpt lat="44.25161" lon="3.42802">
        <ele>999.87486</ele>
        <time>2021-04-30T18:37:47.420Z</time>
      </trkpt>
      <trkpt lat="44.25184" lon="3.42737">
        <ele>999.592195</ele>
        <time>2021-04-30T18:37:58.491Z</time>
      </trkpt>
      <trkpt lat="44.25186" lon="3.42733">
        <ele>999.577105</ele>
        <time>2021-04-30T18:37:59.159Z</time>
      </trkpt>
      <trkpt lat="44.25183" lon="3.42704">
        <ele>999.46229</ele>
        <time>2021-04-30T18:38:03.305Z</time>
      </trkpt>
      <trkpt lat="44.25173" lon="3.42674">
        <ele>999.334083</ele>
        <time>2021-04-30T18:38:08.182Z</time>
      </trkpt>
      <trkpt lat="44.24993" lon="3.42424">
        <ele>998.472629</ele>
        <time>2021-04-30T18:38:59.141Z</time>
      </trkpt>
      <trkpt lat="44.2498" lon="3.42406">
        <ele>998.798594</ele>
        <time>2021-04-30T18:39:03.941Z</time>
      </trkpt>
      <trkpt lat="44.24647" lon="3.41945">
        <ele>1006.872267</ele>
        <time>2021-04-30T18:41:26.813Z</time>
      </trkpt>
      <trkpt lat="44.2464" lon="3.41924">
        <ele>1007.138556</ele>
        <time>2021-04-30T18:41:30.694Z</time>
      </trkpt>
      <trkpt lat="44.24632" lon="3.41862">
        <ele>1007.332989</ele>
        <time>2021-04-30T18:41:41.469Z</time>
      </trkpt>
      <trkpt lat="44.2463" lon="3.41849">
        <ele>1007.303185</ele>
        <time>2021-04-30T18:41:43.504Z</time>
      </trkpt>
      <trkpt lat="44.24625" lon="3.41812">
        <ele>1007.220483</ele>
        <time>2021-04-30T18:41:49.546Z</time>
      </trkpt>
      <trkpt lat="44.24606" lon="3.41658">
        <ele>1006.871964</ele>
        <time>2021-04-30T18:42:12.088Z</time>
      </trkpt>
      <trkpt lat="44.24611" lon="3.41608">
        <ele>1006.562815</ele>
        <time>2021-04-30T18:42:19.172Z</time>
      </trkpt>
      <trkpt lat="44.24617" lon="3.41589">
        <ele>1006.425098</ele>
        <time>2021-04-30T18:42:22.441Z</time>
      </trkpt>
      <trkpt lat="44.24623" lon="3.41571">
        <ele>1006.296812</ele>
        <time>2021-04-30T18:42:25.054Z</time>
      </trkpt>
      <trkpt lat="44.24644" lon="3.41506">
        <ele>1005.829148</ele>
        <time>2021-04-30T18:42:35.015Z</time>
      </trkpt>
      <trkpt lat="44.24661" lon="3.41379">
        <ele>1005.221055</ele>
        <time>2021-04-30T18:42:52.446Z</time>
      </trkpt>
      <trkpt lat="44.24721" lon="3.41195">
        <ele>1005.267359</ele>
        <time>2021-04-30T18:43:23.578Z</time>
      </trkpt>
      <trkpt lat="44.24729" lon="3.40957">
        <ele>1009.406263</ele>
        <time>2021-04-30T18:44:19.482Z</time>
      </trkpt>
      <trkpt lat="44.2479" lon="3.40721">
        <ele>1015.341713</ele>
        <time>2021-04-30T18:45:27.487Z</time>
      </trkpt>
      <trkpt lat="44.24808" lon="3.40582">
        <ele>1017.03947</ele>
        <time>2021-04-30T18:45:57.819Z</time>
      </trkpt>
      <trkpt lat="44.2482" lon="3.4052">
        <ele>1017.630109</ele>
        <time>2021-04-30T18:46:08.622Z</time>
      </trkpt>
      <trkpt lat="44.24849" lon="3.40409">
        <ele>1018.735479</ele>
        <time>2021-04-30T18:46:29.298Z</time>
      </trkpt>
      <trkpt lat="44.24853" lon="3.40396">
        <ele>1018.878608</ele>
        <time>2021-04-30T18:46:31.821Z</time>
      </trkpt>
      <trkpt lat="44.24865" lon="3.40331">
        <ele>1019.519026</ele>
        <time>2021-04-30T18:46:43.734Z</time>
      </trkpt>
      <trkpt lat="44.24879" lon="3.40294">
        <ele>1019.924183</ele>
        <time>2021-04-30T18:46:52.840Z</time>
      </trkpt>
      <trkpt lat="44.249" lon="3.40258">
        <ele>1020.381049</ele>
        <time>2021-04-30T18:47:03.545Z</time>
      </trkpt>
      <trkpt lat="44.24932" lon="3.40228">
        <ele>1020.876296</ele>
        <time>2021-04-30T18:47:15.320Z</time>
      </trkpt>
      <trkpt lat="44.24988" lon="3.40191">
        <ele>1021.651602</ele>
        <time>2021-04-30T18:47:33.554Z</time>
      </trkpt>
      <trkpt lat="44.24998" lon="3.40183">
        <ele>1021.789209</ele>
        <time>2021-04-30T18:47:37.691Z</time>
      </trkpt>
      <trkpt lat="44.25007" lon="3.40175">
        <ele>1021.929416</ele>
        <time>2021-04-30T18:47:40.432Z</time>
      </trkpt>
      <trkpt lat="44.25014" lon="3.40168">
        <ele>1022.034502</ele>
        <time>2021-04-30T18:47:42.409Z</time>
      </trkpt>
      <trkpt lat="44.25021" lon="3.40155">
        <ele>1022.175641</ele>
        <time>2021-04-30T18:47:45.778Z</time>
      </trkpt>
      <trkpt lat="44.25024" lon="3.40143">
        <ele>1022.287547</ele>
        <time>2021-04-30T18:47:48.213Z</time>
      </trkpt>
      <trkpt lat="44.25025" lon="3.40126">
        <ele>1022.438869</ele>
        <time>2021-04-30T18:47:50.956Z</time>
      </trkpt>
      <trkpt lat="44.25019" lon="3.40084">
        <ele>1022.821266</ele>
        <time>2021-04-30T18:47:58.188Z</time>
      </trkpt>
      <trkpt lat="44.25004" lon="3.39999">
        <ele>1022.552884</ele>
        <time>2021-04-30T18:48:12.337Z</time>
      </trkpt>
      <trkpt lat="44.24971" lon="3.39928">
        <ele>1022.076526</ele>
        <time>2021-04-30T18:48:23.571Z</time>
      </trkpt>
      <trkpt lat="44.24959" lon="3.39903">
        <ele>1021.907174</ele>
        <time>2021-04-30T18:48:27.373Z</time>
      </trkpt>
      <trkpt lat="44.24948" lon="3.39889">
        <ele>1021.795387</ele>
        <time>2021-04-30T18:48:30.276Z</time>
      </trkpt>
      <trkpt lat="44.24889" lon="3.39827">
        <ele>1021.24426</ele>
        <time>2021-04-30T18:48:45.061Z</time>
      </trkpt>
      <trkpt lat="44.24809" lon="3.39723">
        <ele>1020.461888</ele>
        <time>2021-04-30T18:49:07.309Z</time>
      </trkpt>
      <trkpt lat="44.24772" lon="3.39708">
        <ele>1020.21273</ele>
        <time>2021-04-30T18:49:14.906Z</time>
      </trkpt>
      <trkpt lat="44.2475" lon="3.39707">
        <ele>1020.109894</ele>
        <time>2021-04-30T18:49:19.124Z</time>
      </trkpt>
      <trkpt lat="44.24737" lon="3.39706">
        <ele>1020.045329</ele>
        <time>2021-04-30T18:49:21.915Z</time>
      </trkpt>
      <trkpt lat="44.24726" lon="3.39704">
        <ele>1019.997796</ele>
        <time>2021-04-30T18:49:23.809Z</time>
      </trkpt>
      <trkpt lat="44.24678" lon="3.39667">
        <ele>1019.739557</ele>
        <time>2021-04-30T18:49:35.114Z</time>
      </trkpt>
      <trkpt lat="44.24631" lon="3.39607">
        <ele>1019.442332</ele>
        <time>2021-04-30T18:49:48.464Z</time>
      </trkpt>
      <trkpt lat="44.24534" lon="3.39472">
        <ele>1020.147799</ele>
        <time>2021-04-30T18:50:21.585Z</time>
      </trkpt>
      <trkpt lat="44.24506" lon="3.39438">
        <ele>1020.351221</ele>
        <time>2021-04-30T18:50:31.693Z</time>
      </trkpt>
      <trkpt lat="44.24447" lon="3.39403">
        <ele>1020.49543</ele>
        <time>2021-04-30T18:50:48.455Z</time>
      </trkpt>
      <trkpt lat="44.24344" lon="3.39395">
        <ele>1020.674755</ele>
        <time>2021-04-30T18:51:11.856Z</time>
      </trkpt>
      <trkpt lat="44.24298" lon="3.39391">
        <ele>1020.319301</ele>
        <time>2021-04-30T18:51:20.802Z</time>
      </trkpt>
      <trkpt lat="44.24281" lon="3.39387">
        <ele>1020.05433</ele>
        <time>2021-04-30T18:51:24.117Z</time>
      </trkpt>
      <trkpt lat="44.24272" lon="3.39383">
        <ele>1019.891304</ele>
        <time>2021-04-30T18:51:26.056Z</time>
      </trkpt>
      <trkpt lat="44.24263" lon="3.39377">
        <ele>1019.733107</ele>
        <time>2021-04-30T18:51:27.731Z</time>
      </trkpt>
      <trkpt lat="44.24241" lon="3.39351">
        <ele>1019.26467</ele>
        <time>2021-04-30T18:51:33.181Z</time>
      </trkpt>
      <trkpt lat="44.24189" lon="3.39202">
        <ele>1017.120901</ele>
        <time>2021-04-30T18:51:53.753Z</time>
      </trkpt>
      <trkpt lat="44.2417" lon="3.39172">
        <ele>1016.435042</ele>
        <time>2021-04-30T18:51:58.733Z</time>
      </trkpt>
      <trkpt lat="44.24126" lon="3.39134">
        <ele>1015.219862</ele>
        <time>2021-04-30T18:52:07.453Z</time>
      </trkpt>
      <trkpt lat="44.23995" lon="3.39052">
        <ele>1011.880871</ele>
        <time>2021-04-30T18:52:31.896Z</time>
      </trkpt>
      <trkpt lat="44.23969" lon="3.39031">
        <ele>1011.21899</ele>
        <time>2021-04-30T18:52:37.183Z</time>
      </trkpt>
      <trkpt lat="44.2396" lon="3.39022">
        <ele>1010.961441</ele>
        <time>2021-04-30T18:52:39.099Z</time>
      </trkpt>
      <trkpt lat="44.2395" lon="3.39012">
        <ele>1010.688626</ele>
        <time>2021-04-30T18:52:41.370Z</time>
      </trkpt>
      <trkpt lat="44.23944" lon="3.39003">
        <ele>1010.486942</ele>
        <time>2021-04-30T18:52:43.038Z</time>
      </trkpt>
      <trkpt lat="44.23938" lon="3.38994">
        <ele>1010.281912</ele>
        <time>2021-04-30T18:52:44.615Z</time>
      </trkpt>
      <trkpt lat="44.23935" lon="3.38983">
        <ele>1010.09992</ele>
        <time>2021-04-30T18:52:46.088Z</time>
      </trkpt>
      <trkpt lat="44.2391" lon="3.38877">
        <ele>1007.904772</ele>
        <time>2021-04-30T18:52:59.860Z</time>
      </trkpt>
      <trkpt lat="44.23901" lon="3.38857">
        <ele>1007.406214</ele>
        <time>2021-04-30T18:53:02.727Z</time>
      </trkpt>
      <trkpt lat="44.23856" lon="3.38794">
        <ele>1005.5124</ele>
        <time>2021-04-30T18:53:13.215Z</time>
      </trkpt>
      <trkpt lat="44.23845" lon="3.38779">
        <ele>1005.034694</ele>
        <time>2021-04-30T18:53:15.841Z</time>
      </trkpt>
      <trkpt lat="44.23835" lon="3.38766">
        <ele>1004.611892</ele>
        <time>2021-04-30T18:53:18.038Z</time>
      </trkpt>
      <trkpt lat="44.23783" lon="3.3871">
        <ele>1001.314269</ele>
        <time>2021-04-30T18:53:28.285Z</time>
      </trkpt>
      <trkpt lat="44.23624" lon="3.3857">
        <ele>989.557919</ele>
        <time>2021-04-30T18:53:55.402Z</time>
      </trkpt>
      <trkpt lat="44.23619" lon="3.38567">
        <ele>989.143342</ele>
        <time>2021-04-30T18:53:56.173Z</time>
      </trkpt>
      <trkpt lat="44.23596" lon="3.3855">
        <ele>987.254293</ele>
        <time>2021-04-30T18:53:59.887Z</time>
      </trkpt>
      <trkpt lat="44.2344" lon="3.38494">
        <ele>976.546814</ele>
        <time>2021-04-30T18:54:22.616Z</time>
      </trkpt>
      <trkpt lat="44.23316" lon="3.38364">
        <ele>969.358866</ele>
        <time>2021-04-30T18:54:46.097Z</time>
      </trkpt>
      <trkpt lat="44.23207" lon="3.38246">
        <ele>967.166159</ele>
        <time>2021-04-30T18:55:13.264Z</time>
      </trkpt>
      <trkpt lat="44.2318" lon="3.38218">
        <ele>967.878354</ele>
        <time>2021-04-30T18:55:22.902Z</time>
      </trkpt>
      <trkpt lat="44.23156" lon="3.38193">
        <ele>968.532834</ele>
        <time>2021-04-30T18:55:32.485Z</time>
      </trkpt>
      <trkpt lat="44.23138" lon="3.38164">
        <ele>969.121753</ele>
        <time>2021-04-30T18:55:41.482Z</time>
      </trkpt>
      <trkpt lat="44.23105" lon="3.38009">
        <ele>971.107876</ele>
        <time>2021-04-30T18:56:21.337Z</time>
      </trkpt>
      <trkpt lat="44.23057" lon="3.37921">
        <ele>971.455946</ele>
        <time>2021-04-30T18:56:42.083Z</time>
      </trkpt>
      <trkpt lat="44.23037" lon="3.37861">
        <ele>971.661122</ele>
        <time>2021-04-30T18:56:51.547Z</time>
      </trkpt>
      <trkpt lat="44.23027" lon="3.37818">
        <ele>971.541692</ele>
        <time>2021-04-30T18:56:57.560Z</time>
      </trkpt>
      <trkpt lat="44.23013" lon="3.3777">
        <ele>970.467797</ele>
        <time>2021-04-30T18:57:03.886Z</time>
      </trkpt>
      <trkpt lat="44.22938" lon="3.37575">
        <ele>965.850038</ele>
        <time>2021-04-30T18:57:29.554Z</time>
      </trkpt>
      <trkpt lat="44.22741" lon="3.37115">
        <ele>955.558154</ele>
        <time>2021-04-30T18:58:34.114Z</time>
      </trkpt>
      <trkpt lat="44.22739" lon="3.37111">
        <ele>955.473074</ele>
        <time>2021-04-30T18:58:34.688Z</time>
      </trkpt>
      <trkpt lat="44.22613" lon="3.37225">
        <ele>952.207921</ele>
        <time>2021-04-30T18:59:00.728Z</time>
      </trkpt>
      <trkpt lat="44.22502" lon="3.37327">
        <ele>950.435177</ele>
        <time>2021-04-30T18:59:25.636Z</time>
      </trkpt>
      <trkpt lat="44.2239" lon="3.37431">
        <ele>949.701186</ele>
        <time>2021-04-30T18:59:52.559Z</time>
      </trkpt>
      <trkpt lat="44.22122" lon="3.37681">
        <ele>950.719431</ele>
        <time>2021-04-30T19:01:06.632Z</time>
      </trkpt>
      <trkpt lat="44.22069" lon="3.37745">
        <ele>951.637213</ele>
        <time>2021-04-30T19:01:27.421Z</time>
      </trkpt>
      <trkpt lat="44.22065" lon="3.3775">
        <ele>951.710698</ele>
        <time>2021-04-30T19:01:29.103Z</time>
      </trkpt>
      <trkpt lat="44.22015" lon="3.37812">
        <ele>952.935892</ele>
        <time>2021-04-30T19:01:50.610Z</time>
      </trkpt>
      <trkpt lat="44.2192" lon="3.37928">
        <ele>955.841115</ele>
        <time>2021-04-30T19:02:31.480Z</time>
      </trkpt>
      <trkpt lat="44.21785" lon="3.38093">
        <ele>958.961913</ele>
        <time>2021-04-30T19:03:23.162Z</time>
      </trkpt>
      <trkpt lat="44.2177" lon="3.38114">
        <ele>959.317635</ele>
        <time>2021-04-30T19:03:29.093Z</time>
      </trkpt>
      <trkpt lat="44.21733" lon="3.38174">
        <ele>960.307201</ele>
        <time>2021-04-30T19:03:45.181Z</time>
      </trkpt>
      <trkpt lat="44.21723" lon="3.38196">
        <ele>960.632125</ele>
        <time>2021-04-30T19:03:50.458Z</time>
      </trkpt>
      <trkpt lat="44.21706" lon="3.38227">
        <ele>961.115961</ele>
        <time>2021-04-30T19:03:58.480Z</time>
      </trkpt>
      <trkpt lat="44.21636" lon="3.38375">
        <ele>963.509448</ele>
        <time>2021-04-30T19:04:36.742Z</time>
      </trkpt>
      <trkpt lat="44.21594" lon="3.3844">
        <ele>964.801629</ele>
        <time>2021-04-30T19:04:56.248Z</time>
      </trkpt>
      <trkpt lat="44.21551" lon="3.38479">
        <ele>965.866777</ele>
        <time>2021-04-30T19:05:12.116Z</time>
      </trkpt>
      <trkpt lat="44.21477" lon="3.38522">
        <ele>967.147685</ele>
        <time>2021-04-30T19:05:36.223Z</time>
      </trkpt>
      <trkpt lat="44.21435" lon="3.38523">
        <ele>967.788483</ele>
        <time>2021-04-30T19:05:48.417Z</time>
      </trkpt>
      <trkpt lat="44.21388" lon="3.38509">
        <ele>968.53124</ele>
        <time>2021-04-30T19:06:02.076Z</time>
      </trkpt>
      <trkpt lat="44.21067" lon="3.38411">
        <ele>969.781034</ele>
        <time>2021-04-30T19:07:20.839Z</time>
      </trkpt>
      <trkpt lat="44.21034" lon="3.38408">
        <ele>969.769152</ele>
        <time>2021-04-30T19:07:27.522Z</time>
      </trkpt>
      <trkpt lat="44.21012" lon="3.38415">
        <ele>969.744412</ele>
        <time>2021-04-30T19:07:31.974Z</time>
      </trkpt>
      <trkpt lat="44.20849" lon="3.38535">
        <ele>966.323992</ele>
        <time>2021-04-30T19:08:05.355Z</time>
      </trkpt>
      <trkpt lat="44.20822" lon="3.38549">
        <ele>964.92367</ele>
        <time>2021-04-30T19:08:10.207Z</time>
      </trkpt>
      <trkpt lat="44.20677" lon="3.38572">
        <ele>957.861175</ele>
        <time>2021-04-30T19:08:31.994Z</time>
      </trkpt>
      <trkpt lat="44.20623" lon="3.38589">
        <ele>953.721611</ele>
        <time>2021-04-30T19:08:39.802Z</time>
      </trkpt>
      <trkpt lat="44.20574" lon="3.38616">
        <ele>949.831061</ele>
        <time>2021-04-30T19:08:47.098Z</time>
      </trkpt>
      <trkpt lat="44.20548" lon="3.38638">
        <ele>947.593363</ele>
        <time>2021-04-30T19:08:51.301Z</time>
      </trkpt>
      <trkpt lat="44.20523" lon="3.38673">
        <ele>944.991079</ele>
        <time>2021-04-30T19:08:56.264Z</time>
      </trkpt>
      <trkpt lat="44.20503" lon="3.38735">
        <ele>943.68907</ele>
        <time>2021-04-30T19:09:03.464Z</time>
      </trkpt>
      <trkpt lat="44.20499" lon="3.38798">
        <ele>942.801088</ele>
        <time>2021-04-30T19:09:10.665Z</time>
      </trkpt>
      <trkpt lat="44.20525" lon="3.38936">
        <ele>941.10449</ele>
        <time>2021-04-30T19:09:37.514Z</time>
      </trkpt>
      <trkpt lat="44.20532" lon="3.39015">
        <ele>941.691191</ele>
        <time>2021-04-30T19:09:56.494Z</time>
      </trkpt>
      <trkpt lat="44.20527" lon="3.39049">
        <ele>941.943424</ele>
        <time>2021-04-30T19:10:05.417Z</time>
      </trkpt>
      <trkpt lat="44.20517" lon="3.39068">
        <ele>942.119211</ele>
        <time>2021-04-30T19:10:09.955Z</time>
      </trkpt>
      <trkpt lat="44.20501" lon="3.39084">
        <ele>942.320588</ele>
        <time>2021-04-30T19:10:16.044Z</time>
      </trkpt>
      <trkpt lat="44.20482" lon="3.39091">
        <ele>942.51722</ele>
        <time>2021-04-30T19:10:20.131Z</time>
      </trkpt>
      <trkpt lat="44.20474" lon="3.39092">
        <ele>942.600697</ele>
        <time>2021-04-30T19:10:23.522Z</time>
      </trkpt>
      <trkpt lat="44.20459" lon="3.39095">
        <ele>942.753937</ele>
        <time>2021-04-30T19:10:25.987Z</time>
      </trkpt>
      <trkpt lat="44.20374" lon="3.3909">
        <ele>939.365972</ele>
        <time>2021-04-30T19:10:39.989Z</time>
      </trkpt>
      <trkpt lat="44.20291" lon="3.39134">
        <ele>935.359091</ele>
        <time>2021-04-30T19:10:52.883Z</time>
      </trkpt>
      <trkpt lat="44.20272" lon="3.39152">
        <ele>934.56805</ele>
        <time>2021-04-30T19:10:56.221Z</time>
      </trkpt>
      <trkpt lat="44.2026" lon="3.39175">
        <ele>934.147955</ele>
        <time>2021-04-30T19:10:59.333Z</time>
      </trkpt>
      <trkpt lat="44.20251" lon="3.39213">
        <ele>933.583276</ele>
        <time>2021-04-30T19:11:03.657Z</time>
      </trkpt>
      <trkpt lat="44.20252" lon="3.39277">
        <ele>932.669649</ele>
        <time>2021-04-30T19:11:11.154Z</time>
      </trkpt>
      <trkpt lat="44.20258" lon="3.39306">
        <ele>932.226319</ele>
        <time>2021-04-30T19:11:15.460Z</time>
      </trkpt>
      <trkpt lat="44.20309" lon="3.39456">
        <ele>932.433226</ele>
        <time>2021-04-30T19:11:53.374Z</time>
      </trkpt>
      <trkpt lat="44.20314" lon="3.39514">
        <ele>933.237613</ele>
        <time>2021-04-30T19:12:08.761Z</time>
      </trkpt>
      <trkpt lat="44.20309" lon="3.39528">
        <ele>933.468345</ele>
        <time>2021-04-30T19:12:13.119Z</time>
      </trkpt>
      <trkpt lat="44.20294" lon="3.39536">
        <ele>933.77201</ele>
        <time>2021-04-30T19:12:17.966Z</time>
      </trkpt>
      <trkpt lat="44.20231" lon="3.39536">
        <ele>933.902889</ele>
        <time>2021-04-30T19:12:33.934Z</time>
      </trkpt>
      <trkpt lat="44.20164" lon="3.39552">
        <ele>930.941113</ele>
        <time>2021-04-30T19:12:45.419Z</time>
      </trkpt>
      <trkpt lat="44.20079" lon="3.39562">
        <ele>927.212809</ele>
        <time>2021-04-30T19:12:57.739Z</time>
      </trkpt>
      <trkpt lat="44.20052" lon="3.39577">
        <ele>925.432439</ele>
        <time>2021-04-30T19:13:01.690Z</time>
      </trkpt>
      <trkpt lat="44.20031" lon="3.39604">
        <ele>923.365802</ele>
        <time>2021-04-30T19:13:05.714Z</time>
      </trkpt>
      <trkpt lat="44.20011" lon="3.39653">
        <ele>920.47493</ele>
        <time>2021-04-30T19:13:11.348Z</time>
      </trkpt>
      <trkpt lat="44.19966" lon="3.39814">
        <ele>912.623773</ele>
        <time>2021-04-30T19:13:29.353Z</time>
      </trkpt>
      <trkpt lat="44.19933" lon="3.39999">
        <ele>907.056828</ele>
        <time>2021-04-30T19:13:51.081Z</time>
      </trkpt>
      <trkpt lat="44.19924" lon="3.40071">
        <ele>905.818582</ele>
        <time>2021-04-30T19:14:00.425Z</time>
      </trkpt>
      <trkpt lat="44.19905" lon="3.40095">
        <ele>905.336725</ele>
        <time>2021-04-30T19:14:05.002Z</time>
      </trkpt>
      <trkpt lat="44.19857" lon="3.40121">
        <ele>904.348664</ele>
        <time>2021-04-30T19:14:14.311Z</time>
      </trkpt>
      <trkpt lat="44.19843" lon="3.40142">
        <ele>903.959973</ele>
        <time>2021-04-30T19:14:18.069Z</time>
      </trkpt>
      <trkpt lat="44.19841" lon="3.40159">
        <ele>903.724958</ele>
        <time>2021-04-30T19:14:20.310Z</time>
      </trkpt>
      <trkpt lat="44.19856" lon="3.40251">
        <ele>902.089072</ele>
        <time>2021-04-30T19:14:32.850Z</time>
      </trkpt>
      <trkpt lat="44.19856" lon="3.40309">
        <ele>900.924944</ele>
        <time>2021-04-30T19:14:40.527Z</time>
      </trkpt>
      <trkpt lat="44.19851" lon="3.40328">
        <ele>900.529522</ele>
        <time>2021-04-30T19:14:42.964Z</time>
      </trkpt>
      <trkpt lat="44.19834" lon="3.40344">
        <ele>899.970056</ele>
        <time>2021-04-30T19:14:46.339Z</time>
      </trkpt>
      <trkpt lat="44.19738" lon="3.40401">
        <ele>896.029325</ele>
        <time>2021-04-30T19:15:02.354Z</time>
      </trkpt>
      <trkpt lat="44.19701" lon="3.4043">
        <ele>893.735489</ele>
        <time>2021-04-30T19:15:08.685Z</time>
      </trkpt>
      <trkpt lat="44.19678" lon="3.40455">
        <ele>892.163537</ele>
        <time>2021-04-30T19:15:12.976Z</time>
      </trkpt>
      <trkpt lat="44.19659" lon="3.40496">
        <ele>890.296733</ele>
        <time>2021-04-30T19:15:18.059Z</time>
      </trkpt>
      <trkpt lat="44.19653" lon="3.40555">
        <ele>888.320163</ele>
        <time>2021-04-30T19:15:24.355Z</time>
      </trkpt>
      <trkpt lat="44.19669" lon="3.40686">
        <ele>886.12471</ele>
        <time>2021-04-30T19:15:39.449Z</time>
      </trkpt>
      <trkpt lat="44.19669" lon="3.40728">
        <ele>885.417268</ele>
        <time>2021-04-30T19:15:45.334Z</time>
      </trkpt>
      <trkpt lat="44.19639" lon="3.40863">
        <ele>885.009039</ele>
        <time>2021-04-30T19:16:12.786Z</time>
      </trkpt>
      <trkpt lat="44.19604" lon="3.40956">
        <ele>885.811971</ele>
        <time>2021-04-30T19:16:36.089Z</time>
      </trkpt>
      <trkpt lat="44.1957" lon="3.41031">
        <ele>885.681975</ele>
        <time>2021-04-30T19:16:51.973Z</time>
      </trkpt>
      <trkpt lat="44.19524" lon="3.41087">
        <ele>883.268027</ele>
        <time>2021-04-30T19:17:02.784Z</time>
      </trkpt>
      <trkpt lat="44.19502" lon="3.41106">
        <ele>882.267104</ele>
        <time>2021-04-30T19:17:06.709Z</time>
      </trkpt>
      <trkpt lat="44.19429" lon="3.41128">
        <ele>879.315136</ele>
        <time>2021-04-30T19:17:17.550Z</time>
      </trkpt>
      <trkpt lat="44.194" lon="3.41153">
        <ele>877.449938</ele>
        <time>2021-04-30T19:17:22.278Z</time>
      </trkpt>
      <trkpt lat="44.19375" lon="3.41197">
        <ele>875.175061</ele>
        <time>2021-04-30T19:17:28.011Z</time>
      </trkpt>
      <trkpt lat="44.19323" lon="3.41324">
        <ele>869.343518</ele>
        <time>2021-04-30T19:17:43.662Z</time>
      </trkpt>
      <trkpt lat="44.19311" lon="3.41367">
        <ele>869.00187</ele>
        <time>2021-04-30T19:17:49.607Z</time>
      </trkpt>
      <trkpt lat="44.1931" lon="3.41387">
        <ele>868.919842</ele>
        <time>2021-04-30T19:17:52.712Z</time>
      </trkpt>
      <trkpt lat="44.19339" lon="3.41577">
        <ele>867.95183</ele>
        <time>2021-04-30T19:18:28.280Z</time>
      </trkpt>
      <trkpt lat="44.19345" lon="3.41626">
        <ele>866.096711</ele>
        <time>2021-04-30T19:18:34.926Z</time>
      </trkpt>
      <trkpt lat="44.19343" lon="3.41659">
        <ele>864.862567</ele>
        <time>2021-04-30T19:18:38.800Z</time>
      </trkpt>
      <trkpt lat="44.19329" lon="3.41669">
        <ele>864.084486</ele>
        <time>2021-04-30T19:18:41.185Z</time>
      </trkpt>
      <trkpt lat="44.19318" lon="3.41663">
        <ele>863.468044</ele>
        <time>2021-04-30T19:18:42.968Z</time>
      </trkpt>
      <trkpt lat="44.19269" lon="3.416">
        <ele>860.006961</ele>
        <time>2021-04-30T19:18:52.472Z</time>
      </trkpt>
      <trkpt lat="44.19226" lon="3.41568">
        <ele>857.051435</ele>
        <time>2021-04-30T19:18:59.161Z</time>
      </trkpt>
      <trkpt lat="44.19203" lon="3.4156">
        <ele>855.447027</ele>
        <time>2021-04-30T19:19:02.397Z</time>
      </trkpt>
      <trkpt lat="44.19187" lon="3.41568">
        <ele>854.327873</ele>
        <time>2021-04-30T19:19:04.657Z</time>
      </trkpt>
      <trkpt lat="44.19179" lon="3.41583">
        <ele>853.421112</ele>
        <time>2021-04-30T19:19:06.527Z</time>
      </trkpt>
      <trkpt lat="44.19165" lon="3.41667">
        <ele>849.288972</ele>
        <time>2021-04-30T19:19:15.329Z</time>
      </trkpt>
      <trkpt lat="44.19178" lon="3.41712">
        <ele>846.917724</ele>
        <time>2021-04-30T19:19:20.852Z</time>
      </trkpt>
      <trkpt lat="44.19177" lon="3.41743">
        <ele>847.314623</ele>
        <time>2021-04-30T19:19:25.260Z</time>
      </trkpt>
      <trkpt lat="44.19169" lon="3.41764">
        <ele>847.80781</ele>
        <time>2021-04-30T19:19:32.035Z</time>
      </trkpt>
      <trkpt lat="44.19137" lon="3.41813">
        <ele>849.168112</ele>
        <time>2021-04-30T19:19:48.058Z</time>
      </trkpt>
      <trkpt lat="44.19122" lon="3.41888">
        <ele>850.782443</ele>
        <time>2021-04-30T19:20:12.447Z</time>
      </trkpt>
      <trkpt lat="44.19116" lon="3.41896">
        <ele>851.02646</ele>
        <time>2021-04-30T19:20:16.735Z</time>
      </trkpt>
      <trkpt lat="44.19108" lon="3.41902">
        <ele>851.283354</ele>
        <time>2021-04-30T19:20:19.520Z</time>
      </trkpt>
      <trkpt lat="44.19101" lon="3.41908">
        <ele>851.52093</ele>
        <time>2021-04-30T19:20:22.132Z</time>
      </trkpt>
      <trkpt lat="44.19098" lon="3.41914">
        <ele>851.668658</ele>
        <time>2021-04-30T19:20:27.342Z</time>
      </trkpt>
      <trkpt lat="44.19091" lon="3.41962">
        <ele>850.88199</ele>
        <time>2021-04-30T19:20:42.150Z</time>
      </trkpt>
      <trkpt lat="44.19078" lon="3.41978">
        <ele>850.147567</ele>
        <time>2021-04-30T19:20:49.286Z</time>
      </trkpt>
      <trkpt lat="44.19016" lon="3.41975">
        <ele>847.581267</ele>
        <time>2021-04-30T19:20:59.824Z</time>
      </trkpt>
      <trkpt lat="44.18967" lon="3.41964">
        <ele>845.508597</ele>
        <time>2021-04-30T19:21:06.646Z</time>
      </trkpt>
      <trkpt lat="44.18916" lon="3.41967">
        <ele>840.675952</ele>
        <time>2021-04-30T19:21:13.414Z</time>
      </trkpt>
      <trkpt lat="44.18907" lon="3.41963">
        <ele>839.347298</ele>
        <time>2021-04-30T19:21:14.573Z</time>
      </trkpt>
      <trkpt lat="44.18895" lon="3.41955">
        <ele>837.422117</ele>
        <time>2021-04-30T19:21:16.255Z</time>
      </trkpt>
      <trkpt lat="44.18848" lon="3.41926">
        <ele>829.909012</ele>
        <time>2021-04-30T19:21:23.000Z</time>
      </trkpt>
      <trkpt lat="44.18832" lon="3.41928">
        <ele>827.57937</ele>
        <time>2021-04-30T19:21:25.026Z</time>
      </trkpt>
      <trkpt lat="44.18819" lon="3.41937">
        <ele>825.524397</ele>
        <time>2021-04-30T19:21:26.875Z</time>
      </trkpt>
      <trkpt lat="44.18798" lon="3.41971">
        <ele>820.888731</ele>
        <time>2021-04-30T19:21:30.954Z</time>
      </trkpt>
      <trkpt lat="44.18753" lon="3.42084">
        <ele>811.593771</ele>
        <time>2021-04-30T19:21:43.371Z</time>
      </trkpt>
      <trkpt lat="44.1875" lon="3.42106">
        <ele>810.16559</ele>
        <time>2021-04-30T19:21:45.646Z</time>
      </trkpt>
      <trkpt lat="44.18756" lon="3.42168">
        <ele>806.157525</ele>
        <time>2021-04-30T19:21:52.169Z</time>
      </trkpt>
      <trkpt lat="44.18751" lon="3.42181">
        <ele>805.205893</ele>
        <time>2021-04-30T19:21:53.739Z</time>
      </trkpt>
      <trkpt lat="44.18693" lon="3.42216">
        <ele>800.890754</ele>
        <time>2021-04-30T19:22:03.153Z</time>
      </trkpt>
      <trkpt lat="44.18671" lon="3.42238">
        <ele>799.623508</ele>
        <time>2021-04-30T19:22:07.423Z</time>
      </trkpt>
      <trkpt lat="44.18652" lon="3.42276">
        <ele>798.124296</ele>
        <time>2021-04-30T19:22:12.594Z</time>
      </trkpt>
      <trkpt lat="44.18625" lon="3.4235">
        <ele>795.402374</ele>
        <time>2021-04-30T19:22:21.998Z</time>
      </trkpt>
      <trkpt lat="44.18601" lon="3.42383">
        <ele>793.787039</ele>
        <time>2021-04-30T19:22:27.233Z</time>
      </trkpt>
      <trkpt lat="44.18545" lon="3.42424">
        <ele>789.977326</ele>
        <time>2021-04-30T19:22:36.616Z</time>
      </trkpt>
      <trkpt lat="44.18506" lon="3.42485">
        <ele>786.36745</ele>
        <time>2021-04-30T19:22:45.321Z</time>
      </trkpt>
      <trkpt lat="44.18466" lon="3.42504">
        <ele>783.840228</ele>
        <time>2021-04-30T19:22:51.271Z</time>
      </trkpt>
      <trkpt lat="44.18416" lon="3.42562">
        <ele>778.073837</ele>
        <time>2021-04-30T19:23:00.426Z</time>
      </trkpt>
      <trkpt lat="44.18359" lon="3.42613">
        <ele>771.669517</ele>
        <time>2021-04-30T19:23:09.689Z</time>
      </trkpt>
      <trkpt lat="44.18346" lon="3.42629">
        <ele>770.009623</ele>
        <time>2021-04-30T19:23:12.060Z</time>
      </trkpt>
      <trkpt lat="44.18326" lon="3.42669">
        <ele>766.655689</ele>
        <time>2021-04-30T19:23:16.867Z</time>
      </trkpt>
      <trkpt lat="44.18266" lon="3.42709">
        <ele>759.549293</ele>
        <time>2021-04-30T19:23:25.611Z</time>
      </trkpt>
      <trkpt lat="44.18226" lon="3.42779">
        <ele>752.500438</ele>
        <time>2021-04-30T19:23:34.228Z</time>
      </trkpt>
      <trkpt lat="44.18209" lon="3.4284">
        <ele>747.338075</ele>
        <time>2021-04-30T19:23:40.606Z</time>
      </trkpt>
      <trkpt lat="44.18204" lon="3.42858">
        <ele>746.028601</ele>
        <time>2021-04-30T19:23:42.386Z</time>
      </trkpt>
      <trkpt lat="44.18202" lon="3.42868">
        <ele>745.477574</ele>
        <time>2021-04-30T19:23:43.426Z</time>
      </trkpt>
      <trkpt lat="44.18205" lon="3.42891">
        <ele>744.256528</ele>
        <time>2021-04-30T19:23:45.771Z</time>
      </trkpt>
      <trkpt lat="44.18232" lon="3.42923">
        <ele>741.649472</ele>
        <time>2021-04-30T19:23:50.716Z</time>
      </trkpt>
      <trkpt lat="44.18238" lon="3.42937">
        <ele>740.797732</ele>
        <time>2021-04-30T19:23:52.293Z</time>
      </trkpt>
      <trkpt lat="44.18235" lon="3.42952">
        <ele>739.98886</ele>
        <time>2021-04-30T19:23:53.859Z</time>
      </trkpt>
      <trkpt lat="44.18222" lon="3.42973">
        <ele>738.54911</ele>
        <time>2021-04-30T19:23:56.738Z</time>
      </trkpt>
      <trkpt lat="44.18213" lon="3.42985">
        <ele>737.633844</ele>
        <time>2021-04-30T19:23:58.496Z</time>
      </trkpt>
      <trkpt lat="44.1821" lon="3.42993">
        <ele>737.158421</ele>
        <time>2021-04-30T19:23:59.428Z</time>
      </trkpt>
      <trkpt lat="44.18205" lon="3.4303">
        <ele>735.209891</ele>
        <time>2021-04-30T19:24:03.355Z</time>
      </trkpt>
      <trkpt lat="44.18207" lon="3.43078">
        <ele>732.967542</ele>
        <time>2021-04-30T19:24:08.994Z</time>
      </trkpt>
      <trkpt lat="44.18212" lon="3.4311">
        <ele>732.184989</ele>
        <time>2021-04-30T19:24:12.792Z</time>
      </trkpt>
      <trkpt lat="44.18221" lon="3.43131">
        <ele>731.612279</ele>
        <time>2021-04-30T19:24:15.516Z</time>
      </trkpt>
      <trkpt lat="44.18231" lon="3.43148">
        <ele>731.081112</ele>
        <time>2021-04-30T19:24:18.087Z</time>
      </trkpt>
      <trkpt lat="44.18246" lon="3.43175">
        <ele>730.255367</ele>
        <time>2021-04-30T19:24:21.983Z</time>
      </trkpt>
      <trkpt lat="44.18361" lon="3.43431">
        <ele>723.347898</ele>
        <time>2021-04-30T19:24:58.298Z</time>
      </trkpt>
      <trkpt lat="44.18371" lon="3.43449">
        <ele>722.851102</ele>
        <time>2021-04-30T19:25:00.817Z</time>
      </trkpt>
      <trkpt lat="44.1838" lon="3.43469">
        <ele>722.316889</ele>
        <time>2021-04-30T19:25:03.593Z</time>
      </trkpt>
      <trkpt lat="44.18383" lon="3.43488">
        <ele>721.891796</ele>
        <time>2021-04-30T19:25:05.871Z</time>
      </trkpt>
      <trkpt lat="44.1838" lon="3.43496">
        <ele>721.694299</ele>
        <time>2021-04-30T19:25:06.829Z</time>
      </trkpt>
      <trkpt lat="44.18377" lon="3.435">
        <ele>721.534601</ele>
        <time>2021-04-30T19:25:07.483Z</time>
      </trkpt>
      <trkpt lat="44.18375" lon="3.43505">
        <ele>721.358979</ele>
        <time>2021-04-30T19:25:08.161Z</time>
      </trkpt>
      <trkpt lat="44.18375" lon="3.43505">
        <ele>721.358979</ele>
        <time>2021-04-30T19:25:08.168Z</time>
      </trkpt>
      <trkpt lat="44.18374" lon="3.43511">
        <ele>721.161928</ele>
        <time>2021-04-30T19:25:08.886Z</time>
      </trkpt>
      <trkpt lat="44.18375" lon="3.43518">
        <ele>720.964447</ele>
        <time>2021-04-30T19:25:09.688Z</time>
      </trkpt>
      <trkpt lat="44.18377" lon="3.43524">
        <ele>720.764262</ele>
        <time>2021-04-30T19:25:10.409Z</time>
      </trkpt>
      <trkpt lat="44.1838" lon="3.43528">
        <ele>720.563223</ele>
        <time>2021-04-30T19:25:11.189Z</time>
      </trkpt>
      <trkpt lat="44.18389" lon="3.43533">
        <ele>720.165357</ele>
        <time>2021-04-30T19:25:12.576Z</time>
      </trkpt>
      <trkpt lat="44.18393" lon="3.43532">
        <ele>719.961983</ele>
        <time>2021-04-30T19:25:13.309Z</time>
      </trkpt>
      <trkpt lat="44.18398" lon="3.43528">
        <ele>719.748274</ele>
        <time>2021-04-30T19:25:14.088Z</time>
      </trkpt>
      <trkpt lat="44.18401" lon="3.43523">
        <ele>719.53467</ele>
        <time>2021-04-30T19:25:14.829Z</time>
      </trkpt>
      <trkpt lat="44.18403" lon="3.43517">
        <ele>719.322192</ele>
        <time>2021-04-30T19:25:15.689Z</time>
      </trkpt>
      <trkpt lat="44.18403" lon="3.43511">
        <ele>719.140403</ele>
        <time>2021-04-30T19:25:16.365Z</time>
      </trkpt>
      <trkpt lat="44.184" lon="3.435">
        <ele>718.77366</ele>
        <time>2021-04-30T19:25:17.618Z</time>
      </trkpt>
      <trkpt lat="44.18397" lon="3.43496">
        <ele>718.590899</ele>
        <time>2021-04-30T19:25:18.290Z</time>
      </trkpt>
      <trkpt lat="44.18392" lon="3.43492">
        <ele>718.324485</ele>
        <time>2021-04-30T19:25:19.252Z</time>
      </trkpt>
      <trkpt lat="44.18385" lon="3.43492">
        <ele>718.059256</ele>
        <time>2021-04-30T19:25:20.165Z</time>
      </trkpt>
      <trkpt lat="44.1838" lon="3.43496">
        <ele>717.794182</ele>
        <time>2021-04-30T19:25:21.171Z</time>
      </trkpt>
      <trkpt lat="44.18377" lon="3.435">
        <ele>717.620507</ele>
        <time>2021-04-30T19:25:21.799Z</time>
      </trkpt>
      <trkpt lat="44.18375" lon="3.43505">
        <ele>717.444885</ele>
        <time>2021-04-30T19:25:22.424Z</time>
      </trkpt>
      <trkpt lat="44.18371" lon="3.43507">
        <ele>717.268171</ele>
        <time>2021-04-30T19:25:23.014Z</time>
      </trkpt>
      <trkpt lat="44.1835" lon="3.43496">
        <ele>716.316858</ele>
        <time>2021-04-30T19:25:26.396Z</time>
      </trkpt>
      <trkpt lat="44.18335" lon="3.43486">
        <ele>715.577035</ele>
        <time>2021-04-30T19:25:29.050Z</time>
      </trkpt>
      <trkpt lat="44.18251" lon="3.43425">
        <ele>711.911656</ele>
        <time>2021-04-30T19:25:44.102Z</time>
      </trkpt>
      <trkpt lat="44.18214" lon="3.43392">
        <ele>710.341226</ele>
        <time>2021-04-30T19:25:50.728Z</time>
      </trkpt>
      <trkpt lat="44.18142" lon="3.43291">
        <ele>707.040883</ele>
        <time>2021-04-30T19:26:07.530Z</time>
      </trkpt>
      <trkpt lat="44.18137" lon="3.43283">
        <ele>706.895547</ele>
        <time>2021-04-30T19:26:08.739Z</time>
      </trkpt>
      <trkpt lat="44.18135" lon="3.43277">
        <ele>706.795393</ele>
        <time>2021-04-30T19:26:09.743Z</time>
      </trkpt>
      <trkpt lat="44.18109" lon="3.43146">
        <ele>704.9414</ele>
        <time>2021-04-30T19:26:26.785Z</time>
      </trkpt>
      <trkpt lat="44.18106" lon="3.43138">
        <ele>704.803111</ele>
        <time>2021-04-30T19:26:28.083Z</time>
      </trkpt>
      <trkpt lat="44.18101" lon="3.43131">
        <ele>704.676221</ele>
        <time>2021-04-30T19:26:29.371Z</time>
      </trkpt>
      <trkpt lat="44.18095" lon="3.43125">
        <ele>704.535405</ele>
        <time>2021-04-30T19:26:30.840Z</time>
      </trkpt>
      <trkpt lat="44.18074" lon="3.43112">
        <ele>704.084116</ele>
        <time>2021-04-30T19:26:35.306Z</time>
      </trkpt>
      <trkpt lat="44.18014" lon="3.43076">
        <ele>703.908333</ele>
        <time>2021-04-30T19:26:48.611Z</time>
      </trkpt>
      <trkpt lat="44.17988" lon="3.43061">
        <ele>703.854008</ele>
        <time>2021-04-30T19:26:54.433Z</time>
      </trkpt>
      <trkpt lat="44.17956" lon="3.43042">
        <ele>703.789095</ele>
        <time>2021-04-30T19:27:02.012Z</time>
      </trkpt>
      <trkpt lat="44.17955" lon="3.43042">
        <ele>703.786551</ele>
        <time>2021-04-30T19:27:02.352Z</time>
      </trkpt>
      <trkpt lat="44.17938" lon="3.4303">
        <ele>703.749493</ele>
        <time>2021-04-30T19:27:07.135Z</time>
      </trkpt>
      <trkpt lat="44.17934" lon="3.43026">
        <ele>703.740801</ele>
        <time>2021-04-30T19:27:08.212Z</time>
      </trkpt>
      <trkpt lat="44.17933" lon="3.43019">
        <ele>703.731146</ele>
        <time>2021-04-30T19:27:09.346Z</time>
      </trkpt>
      <trkpt lat="44.17936" lon="3.43005">
        <ele>703.711393</ele>
        <time>2021-04-30T19:27:12.197Z</time>
      </trkpt>
      <trkpt lat="44.17939" lon="3.42989">
        <ele>703.68803</ele>
        <time>2021-04-30T19:27:14.965Z</time>
      </trkpt>
      <trkpt lat="44.17939" lon="3.42989">
        <ele>703.68803</ele>
        <time>2021-04-30T19:27:14.968Z</time>
      </trkpt>
      <trkpt lat="44.17942" lon="3.42976">
        <ele>703.758826</ele>
        <time>2021-04-30T19:27:16.876Z</time>
      </trkpt>
      <trkpt lat="44.17944" lon="3.42966">
        <ele>703.83638</ele>
        <time>2021-04-30T19:27:18.349Z</time>
      </trkpt>
      <trkpt lat="44.17944" lon="3.42966">
        <ele>703.83638</ele>
        <time>2021-04-30T19:27:18.367Z</time>
      </trkpt>
      <trkpt lat="44.17944" lon="3.42966">
        <ele>703.83638</ele>
        <time>2021-04-30T19:27:18.369Z</time>
      </trkpt>
      <trkpt lat="44.17952" lon="3.4293">
        <ele>704.121224</ele>
        <time>2021-04-30T19:27:25.569Z</time>
      </trkpt>
      <trkpt lat="44.17959" lon="3.42888">
        <ele>704.446467</ele>
        <time>2021-04-30T19:27:33.944Z</time>
      </trkpt>
      <trkpt lat="44.17963" lon="3.42874">
        <ele>704.558886</ele>
        <time>2021-04-30T19:27:36.255Z</time>
      </trkpt>
      <trkpt lat="44.17965" lon="3.42865">
        <ele>704.635257</ele>
        <time>2021-04-30T19:27:38.627Z</time>
      </trkpt>
      <trkpt lat="44.17968" lon="3.42857">
        <ele>704.69979</ele>
        <time>2021-04-30T19:27:40.816Z</time>
      </trkpt>
      <trkpt lat="44.17971" lon="3.42852">
        <ele>704.747102</ele>
        <time>2021-04-30T19:27:42.964Z</time>
      </trkpt>
      <trkpt lat="44.17975" lon="3.42848">
        <ele>704.804349</ele>
        <time>2021-04-30T19:27:44.808Z</time>
      </trkpt>
      <trkpt lat="44.17982" lon="3.42842">
        <ele>704.888629</ele>
        <time>2021-04-30T19:27:47.163Z</time>
      </trkpt>
      <trkpt lat="44.17992" lon="3.42831">
        <ele>705.030264</ele>
        <time>2021-04-30T19:27:50.447Z</time>
      </trkpt>
      <trkpt lat="44.17997" lon="3.42826">
        <ele>705.087098</ele>
        <time>2021-04-30T19:27:51.996Z</time>
      </trkpt>
      <trkpt lat="44.18001" lon="3.42826">
        <ele>705.132025</ele>
        <time>2021-04-30T19:27:53.943Z</time>
      </trkpt>
      <trkpt lat="44.18005" lon="3.42826">
        <ele>705.172657</ele>
        <time>2021-04-30T19:27:54.974Z</time>
      </trkpt>
      <trkpt lat="44.18027" lon="3.4283">
        <ele>705.407653</ele>
        <time>2021-04-30T19:28:00.703Z</time>
      </trkpt>
      <trkpt lat="44.18031" lon="3.42829">
        <ele>705.446956</ele>
        <time>2021-04-30T19:28:01.925Z</time>
      </trkpt>
      <trkpt lat="44.18034" lon="3.42828">
        <ele>705.483425</ele>
        <time>2021-04-30T19:28:02.867Z</time>
      </trkpt>
      <trkpt lat="44.18036" lon="3.42824">
        <ele>705.519062</ele>
        <time>2021-04-30T19:28:04.967Z</time>
      </trkpt>
      <trkpt lat="44.18089" lon="3.42684">
        <ele>706.232252</ele>
        <time>2021-04-30T19:28:33.868Z</time>
      </trkpt>
      <trkpt lat="44.18106" lon="3.42651">
        <ele>706.409373</ele>
        <time>2021-04-30T19:28:39.969Z</time>
      </trkpt>
      <trkpt lat="44.18116" lon="3.42631">
        <ele>706.51208</ele>
        <time>2021-04-30T19:28:44.119Z</time>
      </trkpt>
      <trkpt lat="44.18136" lon="3.42597">
        <ele>706.679544</ele>
        <time>2021-04-30T19:28:51.029Z</time>
      </trkpt>
      <trkpt lat="44.18146" lon="3.42582">
        <ele>706.708175</ele>
        <time>2021-04-30T19:28:55.158Z</time>
      </trkpt>
      <trkpt lat="44.18172" lon="3.42551">
        <ele>706.774555</ele>
        <time>2021-04-30T19:29:03.040Z</time>
      </trkpt>
      <trkpt lat="44.18179" lon="3.42545">
        <ele>706.789458</ele>
        <time>2021-04-30T19:29:04.520Z</time>
      </trkpt>
      <trkpt lat="44.18184" lon="3.42539">
        <ele>706.803178</ele>
        <time>2021-04-30T19:29:05.797Z</time>
      </trkpt>
      <trkpt lat="44.18211" lon="3.42509">
        <ele>706.869443</ele>
        <time>2021-04-30T19:29:13.490Z</time>
      </trkpt>
      <trkpt lat="44.18223" lon="3.42495">
        <ele>706.898881</ele>
        <time>2021-04-30T19:29:17.035Z</time>
      </trkpt>
      <trkpt lat="44.18246" lon="3.42466">
        <ele>706.95832</ele>
        <time>2021-04-30T19:29:23.488Z</time>
      </trkpt>
      <trkpt lat="44.18255" lon="3.42455">
        <ele>706.98191</ele>
        <time>2021-04-30T19:29:26.785Z</time>
      </trkpt>
      <trkpt lat="44.18282" lon="3.42427">
        <ele>707.26305</ele>
        <time>2021-04-30T19:29:34.612Z</time>
      </trkpt>
      <trkpt lat="44.18344" lon="3.42373">
        <ele>708.380853</ele>
        <time>2021-04-30T19:29:56.401Z</time>
      </trkpt>
      <trkpt lat="44.18384" lon="3.42343">
        <ele>709.07184</ele>
        <time>2021-04-30T19:30:10.110Z</time>
      </trkpt>
      <trkpt lat="44.18427" lon="3.42314">
        <ele>709.780189</ele>
        <time>2021-04-30T19:30:24.075Z</time>
      </trkpt>
      <trkpt lat="44.18461" lon="3.42283">
        <ele>710.025584</ele>
        <time>2021-04-30T19:30:35.519Z</time>
      </trkpt>
      <trkpt lat="44.18516" lon="3.42219">
        <ele>710.450526</ele>
        <time>2021-04-30T19:30:54.429Z</time>
      </trkpt>
      <trkpt lat="44.1855" lon="3.42144">
        <ele>710.829887</ele>
        <time>2021-04-30T19:31:07.943Z</time>
      </trkpt>
      <trkpt lat="44.18577" lon="3.42058">
        <ele>710.17716</ele>
        <time>2021-04-30T19:31:20.714Z</time>
      </trkpt>
      <trkpt lat="44.18584" lon="3.42032">
        <ele>709.9746</ele>
        <time>2021-04-30T19:31:24.496Z</time>
      </trkpt>
      <trkpt lat="44.18594" lon="3.41995">
        <ele>709.693325</ele>
        <time>2021-04-30T19:31:29.745Z</time>
      </trkpt>
      <trkpt lat="44.18606" lon="3.41952">
        <ele>709.365331</ele>
        <time>2021-04-30T19:31:35.754Z</time>
      </trkpt>
      <trkpt lat="44.18668" lon="3.41731">
        <ele>708.778178</ele>
        <time>2021-04-30T19:32:11.092Z</time>
      </trkpt>
      <trkpt lat="44.1872" lon="3.41611">
        <ele>708.418164</ele>
        <time>2021-04-30T19:32:36.566Z</time>
      </trkpt>
      <trkpt lat="44.18734" lon="3.41603">
        <ele>708.343292</ele>
        <time>2021-04-30T19:32:40.507Z</time>
      </trkpt>
      <trkpt lat="44.18909" lon="3.41594">
        <ele>705.782258</ele>
        <time>2021-04-30T19:33:13.270Z</time>
      </trkpt>
      <trkpt lat="44.1893" lon="3.4158">
        <ele>705.079299</ele>
        <time>2021-04-30T19:33:16.995Z</time>
      </trkpt>
      <trkpt lat="44.18962" lon="3.41546">
        <ele>703.897607</ele>
        <time>2021-04-30T19:33:23.210Z</time>
      </trkpt>
      <trkpt lat="44.18996" lon="3.41454">
        <ele>701.625049</ele>
        <time>2021-04-30T19:33:34.773Z</time>
      </trkpt>
      <trkpt lat="44.19045" lon="3.41346">
        <ele>698.682628</ele>
        <time>2021-04-30T19:33:49.261Z</time>
      </trkpt>
      <trkpt lat="44.19083" lon="3.41195">
        <ele>696.151598</ele>
        <time>2021-04-30T19:34:09.907Z</time>
      </trkpt>
      <trkpt lat="44.19097" lon="3.41118">
        <ele>695.548464</ele>
        <time>2021-04-30T19:34:21.261Z</time>
      </trkpt>
      <trkpt lat="44.19179" lon="3.40932">
        <ele>693.811046</ele>
        <time>2021-04-30T19:34:52.658Z</time>
      </trkpt>
      <trkpt lat="44.19222" lon="3.40857">
        <ele>693.010211</ele>
        <time>2021-04-30T19:35:05.385Z</time>
      </trkpt>
      <trkpt lat="44.1929" lon="3.40788">
        <ele>691.701811</ele>
        <time>2021-04-30T19:35:20.519Z</time>
      </trkpt>
      <trkpt lat="44.19351" lon="3.40709">
        <ele>690.296593</ele>
        <time>2021-04-30T19:35:35.201Z</time>
      </trkpt>
      <trkpt lat="44.19359" lon="3.40686">
        <ele>689.980752</ele>
        <time>2021-04-30T19:35:38.559Z</time>
      </trkpt>
      <trkpt lat="44.19366" lon="3.40605">
        <ele>689.267943</ele>
        <time>2021-04-30T19:35:49.366Z</time>
      </trkpt>
      <trkpt lat="44.19358" lon="3.40508">
        <ele>688.561865</ele>
        <time>2021-04-30T19:36:02.999Z</time>
      </trkpt>
      <trkpt lat="44.1936" lon="3.40451">
        <ele>688.147218</ele>
        <time>2021-04-30T19:36:11.308Z</time>
      </trkpt>
      <trkpt lat="44.19351" lon="3.40368">
        <ele>687.41091</ele>
        <time>2021-04-30T19:36:23.308Z</time>
      </trkpt>
      <trkpt lat="44.19358" lon="3.4027">
        <ele>686.388365</ele>
        <time>2021-04-30T19:36:36.698Z</time>
      </trkpt>
      <trkpt lat="44.19367" lon="3.40235">
        <ele>686.005089</ele>
        <time>2021-04-30T19:36:41.498Z</time>
      </trkpt>
      <trkpt lat="44.19382" lon="3.40204">
        <ele>685.613667</ele>
        <time>2021-04-30T19:36:46.341Z</time>
      </trkpt>
      <trkpt lat="44.19458" lon="3.40092">
        <ele>683.732292</ele>
        <time>2021-04-30T19:37:05.625Z</time>
      </trkpt>
      <trkpt lat="44.19467" lon="3.40072">
        <ele>683.429384</ele>
        <time>2021-04-30T19:37:08.572Z</time>
      </trkpt>
      <trkpt lat="44.19469" lon="3.40048">
        <ele>683.124291</ele>
        <time>2021-04-30T19:37:11.511Z</time>
      </trkpt>
      <trkpt lat="44.19456" lon="3.39842">
        <ele>681.83756</ele>
        <time>2021-04-30T19:37:39.506Z</time>
      </trkpt>
      <trkpt lat="44.1946" lon="3.39802">
        <ele>681.764465</ele>
        <time>2021-04-30T19:37:46.121Z</time>
      </trkpt>
      <trkpt lat="44.19569" lon="3.39633">
        <ele>682.69126</ele>
        <time>2021-04-30T19:38:29.620Z</time>
      </trkpt>
      <trkpt lat="44.19592" lon="3.39559">
        <ele>683.30963</ele>
        <time>2021-04-30T19:38:45.561Z</time>
      </trkpt>
      <trkpt lat="44.19595" lon="3.39502">
        <ele>683.444226</ele>
        <time>2021-04-30T19:38:56.010Z</time>
      </trkpt>
      <trkpt lat="44.19584" lon="3.3943">
        <ele>683.186083</ele>
        <time>2021-04-30T19:39:08.356Z</time>
      </trkpt>
      <trkpt lat="44.19582" lon="3.39318">
        <ele>682.797905</ele>
        <time>2021-04-30T19:39:24.114Z</time>
      </trkpt>
      <trkpt lat="44.19588" lon="3.39271">
        <ele>682.527666</ele>
        <time>2021-04-30T19:39:30.416Z</time>
      </trkpt>
      <trkpt lat="44.19607" lon="3.39229">
        <ele>681.879802</ele>
        <time>2021-04-30T19:39:36.598Z</time>
      </trkpt>
      <trkpt lat="44.19635" lon="3.39184">
        <ele>681.083618</ele>
        <time>2021-04-30T19:39:44.034Z</time>
      </trkpt>
      <trkpt lat="44.19737" lon="3.39068">
        <ele>678.924173</ele>
        <time>2021-04-30T19:40:07.437Z</time>
      </trkpt>
      <trkpt lat="44.19826" lon="3.38921">
        <ele>677.349489</ele>
        <time>2021-04-30T19:40:34.270Z</time>
      </trkpt>
      <trkpt lat="44.19857" lon="3.38882">
        <ele>676.876701</ele>
        <time>2021-04-30T19:40:42.659Z</time>
      </trkpt>
      <trkpt lat="44.19879" lon="3.38846">
        <ele>676.497306</ele>
        <time>2021-04-30T19:40:49.278Z</time>
      </trkpt>
      <trkpt lat="44.19928" lon="3.38688">
        <ele>675.095723</ele>
        <time>2021-04-30T19:41:12.254Z</time>
      </trkpt>
      <trkpt lat="44.19995" lon="3.38506">
        <ele>673.240337</ele>
        <time>2021-04-30T19:41:39.811Z</time>
      </trkpt>
      <trkpt lat="44.20011" lon="3.38364">
        <ele>672.239942</ele>
        <time>2021-04-30T19:42:00.022Z</time>
      </trkpt>
      <trkpt lat="44.20007" lon="3.38259">
        <ele>671.552605</ele>
        <time>2021-04-30T19:42:15.053Z</time>
      </trkpt>
      <trkpt lat="44.19997" lon="3.38172">
        <ele>670.590066</ele>
        <time>2021-04-30T19:42:27.140Z</time>
      </trkpt>
      <trkpt lat="44.19989" lon="3.38039">
        <ele>668.873136</ele>
        <time>2021-04-30T19:42:44.179Z</time>
      </trkpt>
      <trkpt lat="44.19991" lon="3.37989">
        <ele>668.219096</ele>
        <time>2021-04-30T19:42:50.419Z</time>
      </trkpt>
      <trkpt lat="44.20013" lon="3.37815">
        <ele>664.728005</ele>
        <time>2021-04-30T19:43:11.691Z</time>
      </trkpt>
      <trkpt lat="44.20006" lon="3.37697">
        <ele>662.254487</ele>
        <time>2021-04-30T19:43:25.616Z</time>
      </trkpt>
      <trkpt lat="44.20009" lon="3.37492">
        <ele>657.5906</ele>
        <time>2021-04-30T19:43:49.727Z</time>
      </trkpt>
      <trkpt lat="44.20028" lon="3.37394">
        <ele>655.001438</ele>
        <time>2021-04-30T19:44:01.478Z</time>
      </trkpt>
      <trkpt lat="44.20063" lon="3.37308">
        <ele>652.466392</ele>
        <time>2021-04-30T19:44:12.702Z</time>
      </trkpt>
      <trkpt lat="44.20079" lon="3.37253">
        <ele>650.952245</ele>
        <time>2021-04-30T19:44:19.471Z</time>
      </trkpt>
      <trkpt lat="44.20087" lon="3.3716">
        <ele>648.742014</ele>
        <time>2021-04-30T19:44:30.370Z</time>
      </trkpt>
      <trkpt lat="44.20118" lon="3.37054">
        <ele>646.060533</ele>
        <time>2021-04-30T19:44:43.738Z</time>
      </trkpt>
      <trkpt lat="44.20131" lon="3.36954">
        <ele>643.967366</ele>
        <time>2021-04-30T19:44:55.818Z</time>
      </trkpt>
      <trkpt lat="44.20156" lon="3.36891">
        <ele>642.597246</ele>
        <time>2021-04-30T19:45:04.731Z</time>
      </trkpt>
      <trkpt lat="44.2018" lon="3.36803">
        <ele>640.837335</ele>
        <time>2021-04-30T19:45:16.177Z</time>
      </trkpt>
      <trkpt lat="44.20202" lon="3.36579">
        <ele>636.813979</ele>
        <time>2021-04-30T19:45:43.363Z</time>
      </trkpt>
      <trkpt lat="44.20202" lon="3.36561">
        <ele>636.483207</ele>
        <time>2021-04-30T19:45:45.593Z</time>
      </trkpt>
      <trkpt lat="44.20203" lon="3.36534">
        <ele>636.011025</ele>
        <time>2021-04-30T19:45:49.168Z</time>
      </trkpt>
      <trkpt lat="44.20202" lon="3.36498">
        <ele>635.68384</ele>
        <time>2021-04-30T19:45:53.731Z</time>
      </trkpt>
      <trkpt lat="44.20202" lon="3.36465">
        <ele>635.423638</ele>
        <time>2021-04-30T19:45:58.152Z</time>
      </trkpt>
      <trkpt lat="44.20201" lon="3.36438">
        <ele>635.221455</ele>
        <time>2021-04-30T19:46:01.855Z</time>
      </trkpt>
      <trkpt lat="44.20194" lon="3.36346">
        <ele>634.506526</ele>
        <time>2021-04-30T19:46:14.600Z</time>
      </trkpt>
      <trkpt lat="44.20204" lon="3.36265">
        <ele>633.880246</ele>
        <time>2021-04-30T19:46:27.009Z</time>
      </trkpt>
      <trkpt lat="44.20204" lon="3.36215">
        <ele>633.511085</ele>
        <time>2021-04-30T19:46:34.898Z</time>
      </trkpt>
      <trkpt lat="44.20184" lon="3.36111">
        <ele>632.710071</ele>
        <time>2021-04-30T19:46:50.310Z</time>
      </trkpt>
      <trkpt lat="44.20193" lon="3.36055">
        <ele>632.285207</ele>
        <time>2021-04-30T19:46:57.732Z</time>
      </trkpt>
      <trkpt lat="44.20192" lon="3.36015">
        <ele>631.734049</ele>
        <time>2021-04-30T19:47:02.708Z</time>
      </trkpt>
      <trkpt lat="44.20187" lon="3.3597">
        <ele>630.733767</ele>
        <time>2021-04-30T19:47:08.440Z</time>
      </trkpt>
      <trkpt lat="44.20161" lon="3.35852">
        <ele>628.058368</ele>
        <time>2021-04-30T19:47:22.940Z</time>
      </trkpt>
      <trkpt lat="44.20145" lon="3.3571">
        <ele>624.433681</ele>
        <time>2021-04-30T19:47:39.324Z</time>
      </trkpt>
      <trkpt lat="44.20145" lon="3.35697">
        <ele>624.073101</ele>
        <time>2021-04-30T19:47:40.685Z</time>
      </trkpt>
      <trkpt lat="44.20145" lon="3.35688">
        <ele>623.818754</ele>
        <time>2021-04-30T19:47:41.732Z</time>
      </trkpt>
      <trkpt lat="44.20146" lon="3.35617">
        <ele>621.83941</ele>
        <time>2021-04-30T19:47:49.873Z</time>
      </trkpt>
      <trkpt lat="44.2015" lon="3.35593">
        <ele>621.156104</ele>
        <time>2021-04-30T19:47:52.491Z</time>
      </trkpt>
      <trkpt lat="44.20191" lon="3.35523">
        <ele>619.002403</ele>
        <time>2021-04-30T19:48:02.658Z</time>
      </trkpt>
      <trkpt lat="44.20216" lon="3.35463">
        <ele>617.724863</ele>
        <time>2021-04-30T19:48:11.017Z</time>
      </trkpt>
      <trkpt lat="44.20222" lon="3.35444">
        <ele>617.356692</ele>
        <time>2021-04-30T19:48:13.409Z</time>
      </trkpt>
      <trkpt lat="44.20226" lon="3.3543">
        <ele>617.064089</ele>
        <time>2021-04-30T19:48:15.331Z</time>
      </trkpt>
      <trkpt lat="44.20236" lon="3.35367">
        <ele>615.893746</ele>
        <time>2021-04-30T19:48:23.459Z</time>
      </trkpt>
      <trkpt lat="44.20233" lon="3.35327">
        <ele>615.170164</ele>
        <time>2021-04-30T19:48:28.489Z</time>
      </trkpt>
      <trkpt lat="44.20184" lon="3.35228">
        <ele>615.709501</ele>
        <time>2021-04-30T19:48:45.995Z</time>
      </trkpt>
      <trkpt lat="44.20175" lon="3.35192">
        <ele>615.910333</ele>
        <time>2021-04-30T19:48:53.441Z</time>
      </trkpt>
      <trkpt lat="44.20196" lon="3.3509">
        <ele>616.631345</ele>
        <time>2021-04-30T19:49:16.768Z</time>
      </trkpt>
      <trkpt lat="44.2023" lon="3.35008">
        <ele>618.882588</ele>
        <time>2021-04-30T19:49:41.257Z</time>
      </trkpt>
      <trkpt lat="44.20243" lon="3.34938">
        <ele>620.590227</ele>
        <time>2021-04-30T19:50:00.900Z</time>
      </trkpt>
      <trkpt lat="44.20232" lon="3.34905">
        <ele>621.451629</ele>
        <time>2021-04-30T19:50:10.447Z</time>
      </trkpt>
      <trkpt lat="44.20216" lon="3.34876">
        <ele>622.312234</ele>
        <time>2021-04-30T19:50:20.008Z</time>
      </trkpt>
      <trkpt lat="44.20175" lon="3.34823">
        <ele>622.782215</ele>
        <time>2021-04-30T19:50:39.340Z</time>
      </trkpt>
      <trkpt lat="44.20164" lon="3.34786">
        <ele>623.004696</ele>
        <time>2021-04-30T19:50:47.958Z</time>
      </trkpt>
      <trkpt lat="44.20144" lon="3.34669">
        <ele>623.665879</ele>
        <time>2021-04-30T19:51:06.187Z</time>
      </trkpt>
      <trkpt lat="44.20142" lon="3.34598">
        <ele>622.258533</ele>
        <time>2021-04-30T19:51:14.825Z</time>
      </trkpt>
      <trkpt lat="44.2015" lon="3.34523">
        <ele>620.277548</ele>
        <time>2021-04-30T19:51:23.447Z</time>
      </trkpt>
      <trkpt lat="44.20193" lon="3.34356">
        <ele>615.810121</ele>
        <time>2021-04-30T19:51:42.997Z</time>
      </trkpt>
      <trkpt lat="44.20205" lon="3.34246">
        <ele>613.239116</ele>
        <time>2021-04-30T19:51:55.842Z</time>
      </trkpt>
      <trkpt lat="44.20222" lon="3.34154">
        <ele>611.247725</ele>
        <time>2021-04-30T19:52:07.855Z</time>
      </trkpt>
      <trkpt lat="44.20243" lon="3.34105">
        <ele>610.749627</ele>
        <time>2021-04-30T19:52:15.377Z</time>
      </trkpt>
      <trkpt lat="44.20305" lon="3.3402">
        <ele>609.684242</ele>
        <time>2021-04-30T19:52:32.074Z</time>
      </trkpt>
      <trkpt lat="44.20333" lon="3.33966">
        <ele>609.133656</ele>
        <time>2021-04-30T19:52:41.555Z</time>
      </trkpt>
      <trkpt lat="44.20355" lon="3.33902">
        <ele>608.782552</ele>
        <time>2021-04-30T19:52:51.607Z</time>
      </trkpt>
      <trkpt lat="44.20367" lon="3.33824">
        <ele>608.381773</ele>
        <time>2021-04-30T19:53:03.150Z</time>
      </trkpt>
      <trkpt lat="44.20375" lon="3.33796">
        <ele>608.231662</ele>
        <time>2021-04-30T19:53:07.439Z</time>
      </trkpt>
      <trkpt lat="44.20477" lon="3.33591">
        <ele>607.07604</ele>
        <time>2021-04-30T19:53:44.312Z</time>
      </trkpt>
      <trkpt lat="44.20482" lon="3.33569">
        <ele>606.969701</ele>
        <time>2021-04-30T19:53:47.675Z</time>
      </trkpt>
      <trkpt lat="44.20483" lon="3.33518">
        <ele>606.656459</ele>
        <time>2021-04-30T19:53:54.883Z</time>
      </trkpt>
      <trkpt lat="44.20473" lon="3.33391">
        <ele>605.213983</ele>
        <time>2021-04-30T19:54:11.983Z</time>
      </trkpt>
      <trkpt lat="44.20449" lon="3.33273">
        <ele>603.748328</ele>
        <time>2021-04-30T19:54:27.504Z</time>
      </trkpt>
      <trkpt lat="44.20428" lon="3.33101">
        <ele>600.586909</ele>
        <time>2021-04-30T19:54:48.914Z</time>
      </trkpt>
      <trkpt lat="44.20374" lon="3.32926">
        <ele>596.807637</ele>
        <time>2021-04-30T19:55:11.465Z</time>
      </trkpt>
      <trkpt lat="44.20373" lon="3.32802">
        <ele>594.227267</ele>
        <time>2021-04-30T19:55:26.329Z</time>
      </trkpt>
      <trkpt lat="44.20331" lon="3.32601">
        <ele>589.877164</ele>
        <time>2021-04-30T19:55:51.304Z</time>
      </trkpt>
      <trkpt lat="44.20283" lon="3.32483">
        <ele>586.777489</ele>
        <time>2021-04-30T19:56:07.334Z</time>
      </trkpt>
      <trkpt lat="44.20246" lon="3.32415">
        <ele>584.768763</ele>
        <time>2021-04-30T19:56:17.212Z</time>
      </trkpt>
      <trkpt lat="44.20219" lon="3.32327">
        <ele>582.455862</ele>
        <time>2021-04-30T19:56:28.213Z</time>
      </trkpt>
      <trkpt lat="44.20186" lon="3.32271">
        <ele>580.578223</ele>
        <time>2021-04-30T19:56:36.609Z</time>
      </trkpt>
      <trkpt lat="44.20164" lon="3.32202">
        <ele>578.63979</ele>
        <time>2021-04-30T19:56:45.229Z</time>
      </trkpt>
      <trkpt lat="44.20148" lon="3.32092">
        <ele>575.965696</ele>
        <time>2021-04-30T19:56:58.057Z</time>
      </trkpt>
      <trkpt lat="44.20132" lon="3.32027">
        <ele>574.625857</ele>
        <time>2021-04-30T19:57:06.131Z</time>
      </trkpt>
      <trkpt lat="44.20122" lon="3.31918">
        <ele>572.500964</ele>
        <time>2021-04-30T19:57:19.491Z</time>
      </trkpt>
      <trkpt lat="44.20126" lon="3.31868">
        <ele>571.641705</ele>
        <time>2021-04-30T19:57:25.877Z</time>
      </trkpt>
      <trkpt lat="44.20122" lon="3.31763">
        <ele>570.811129</ele>
        <time>2021-04-30T19:57:39.935Z</time>
      </trkpt>
      <trkpt lat="44.20207" lon="3.31586">
        <ele>568.811359</ele>
        <time>2021-04-30T19:58:10.654Z</time>
      </trkpt>
      <trkpt lat="44.20239" lon="3.31541">
        <ele>568.036214</ele>
        <time>2021-04-30T19:58:19.170Z</time>
      </trkpt>
      <trkpt lat="44.20255" lon="3.31508">
        <ele>567.552797</ele>
        <time>2021-04-30T19:58:24.234Z</time>
      </trkpt>
      <trkpt lat="44.20271" lon="3.31487">
        <ele>567.179934</ele>
        <time>2021-04-30T19:58:28.058Z</time>
      </trkpt>
      <trkpt lat="44.20334" lon="3.31431">
        <ele>564.643829</ele>
        <time>2021-04-30T19:58:40.299Z</time>
      </trkpt>
      <trkpt lat="44.20392" lon="3.31364">
        <ele>561.283803</ele>
        <time>2021-04-30T19:58:51.922Z</time>
      </trkpt>
      <trkpt lat="44.20463" lon="3.31239">
        <ele>554.909317</ele>
        <time>2021-04-30T19:59:08.808Z</time>
      </trkpt>
      <trkpt lat="44.20477" lon="3.31199">
        <ele>552.780399</ele>
        <time>2021-04-30T19:59:13.410Z</time>
      </trkpt>
      <trkpt lat="44.20519" lon="3.31006">
        <ele>543.403354</ele>
        <time>2021-04-30T19:59:34.033Z</time>
      </trkpt>
      <trkpt lat="44.2053" lon="3.3097">
        <ele>541.671609</ele>
        <time>2021-04-30T19:59:38.097Z</time>
      </trkpt>
      <trkpt lat="44.20542" lon="3.30934">
        <ele>539.910098</ele>
        <time>2021-04-30T19:59:42.350Z</time>
      </trkpt>
      <trkpt lat="44.20593" lon="3.30836">
        <ele>534.871337</ele>
        <time>2021-04-30T19:59:55.283Z</time>
      </trkpt>
      <trkpt lat="44.20609" lon="3.30703">
        <ele>530.549782</ele>
        <time>2021-04-30T20:00:10.264Z</time>
      </trkpt>
      <trkpt lat="44.20653" lon="3.30516">
        <ele>524.533641</ele>
        <time>2021-04-30T20:00:32.336Z</time>
      </trkpt>
      <trkpt lat="44.20669" lon="3.30375">
        <ele>520.36416</ele>
        <time>2021-04-30T20:00:48.384Z</time>
      </trkpt>
      <trkpt lat="44.20688" lon="3.30295">
        <ele>518.261855</ele>
        <time>2021-04-30T20:00:57.990Z</time>
      </trkpt>
      <trkpt lat="44.20688" lon="3.30198">
        <ele>515.831185</ele>
        <time>2021-04-30T20:01:09.311Z</time>
      </trkpt>
      <trkpt lat="44.20714" lon="3.3011">
        <ele>513.628547</ele>
        <time>2021-04-30T20:01:20.329Z</time>
      </trkpt>
      <trkpt lat="44.20711" lon="3.30028">
        <ele>512.234643</ele>
        <time>2021-04-30T20:01:30.010Z</time>
      </trkpt>
      <trkpt lat="44.20689" lon="3.29945">
        <ele>510.716627</ele>
        <time>2021-04-30T20:01:40.943Z</time>
      </trkpt>
      <trkpt lat="44.20696" lon="3.29878">
        <ele>509.676507</ele>
        <time>2021-04-30T20:01:49.765Z</time>
      </trkpt>
      <trkpt lat="44.20699" lon="3.29852">
        <ele>509.62023</ele>
        <time>2021-04-30T20:01:53.332Z</time>
      </trkpt>
      <trkpt lat="44.20701" lon="3.29813">
        <ele>509.538436</ele>
        <time>2021-04-30T20:01:58.755Z</time>
      </trkpt>
      <trkpt lat="44.20724" lon="3.2962">
        <ele>509.046366</ele>
        <time>2021-04-30T20:02:31.970Z</time>
      </trkpt>
      <trkpt lat="44.20727" lon="3.29597">
        <ele>508.905473</ele>
        <time>2021-04-30T20:02:35.423Z</time>
      </trkpt>
      <trkpt lat="44.20729" lon="3.29579">
        <ele>508.788622</ele>
        <time>2021-04-30T20:02:38.182Z</time>
      </trkpt>
      <trkpt lat="44.20747" lon="3.29484">
        <ele>508.176487</ele>
        <time>2021-04-30T20:02:51.132Z</time>
      </trkpt>
      <trkpt lat="44.20752" lon="3.29462">
        <ele>508.029046</ele>
        <time>2021-04-30T20:02:55.798Z</time>
      </trkpt>
      <trkpt lat="44.20754" lon="3.2945">
        <ele>507.952323</ele>
        <time>2021-04-30T20:02:57.034Z</time>
      </trkpt>
      <trkpt lat="44.20739" lon="3.29366">
        <ele>507.000646</ele>
        <time>2021-04-30T20:03:12.073Z</time>
      </trkpt>
      <trkpt lat="44.20719" lon="3.29324">
        <ele>505.925302</ele>
        <time>2021-04-30T20:03:18.370Z</time>
      </trkpt>
      <trkpt lat="44.20711" lon="3.29315">
        <ele>505.625224</ele>
        <time>2021-04-30T20:03:19.707Z</time>
      </trkpt>
      <trkpt lat="44.20683" lon="3.29283">
        <ele>504.557527</ele>
        <time>2021-04-30T20:03:25.397Z</time>
      </trkpt>
      <trkpt lat="44.20672" lon="3.29271">
        <ele>504.140277</ele>
        <time>2021-04-30T20:03:27.630Z</time>
      </trkpt>
      <trkpt lat="44.20664" lon="3.29262">
        <ele>503.841892</ele>
        <time>2021-04-30T20:03:31.252Z</time>
      </trkpt>
      <trkpt lat="44.20658" lon="3.29251">
        <ele>503.560202</ele>
        <time>2021-04-30T20:03:32.566Z</time>
      </trkpt>
      <trkpt lat="44.20647" lon="3.29213">
        <ele>502.678428</ele>
        <time>2021-04-30T20:03:37.882Z</time>
      </trkpt>
      <trkpt lat="44.20639" lon="3.29157">
        <ele>501.545981</ele>
        <time>2021-04-30T20:03:44.437Z</time>
      </trkpt>
      <trkpt lat="44.2064" lon="3.29144">
        <ele>501.294337</ele>
        <time>2021-04-30T20:03:45.850Z</time>
      </trkpt>
      <trkpt lat="44.2064" lon="3.29116">
        <ele>500.75438</ele>
        <time>2021-04-30T20:03:50.883Z</time>
      </trkpt>
      <trkpt lat="44.20637" lon="3.29092">
        <ele>500.293799</ele>
        <time>2021-04-30T20:03:53.588Z</time>
      </trkpt>
      <trkpt lat="44.20634" lon="3.29084">
        <ele>500.115157</ele>
        <time>2021-04-30T20:03:54.590Z</time>
      </trkpt>
      <trkpt lat="44.20631" lon="3.29078">
        <ele>499.962629</ele>
        <time>2021-04-30T20:03:56.475Z</time>
      </trkpt>
      <trkpt lat="44.20577" lon="3.29011">
        <ele>498.025482</ele>
        <time>2021-04-30T20:04:08.034Z</time>
      </trkpt>
      <trkpt lat="44.20566" lon="3.29005">
        <ele>497.690894</ele>
        <time>2021-04-30T20:04:10.298Z</time>
      </trkpt>
      <trkpt lat="44.20479" lon="3.29021">
        <ele>496.073807</ele>
        <time>2021-04-30T20:04:25.428Z</time>
      </trkpt>
      <trkpt lat="44.20417" lon="3.29018">
        <ele>494.977171</ele>
        <time>2021-04-30T20:04:37.100Z</time>
      </trkpt>
      <trkpt lat="44.2038" lon="3.29">
        <ele>494.286536</ele>
        <time>2021-04-30T20:04:44.369Z</time>
      </trkpt>
      <trkpt lat="44.20282" lon="3.28935">
        <ele>492.718411</ele>
        <time>2021-04-30T20:05:04.298Z</time>
      </trkpt>
      <trkpt lat="44.20258" lon="3.28926">
        <ele>492.368396</ele>
        <time>2021-04-30T20:05:08.730Z</time>
      </trkpt>
      <trkpt lat="44.20223" lon="3.28937">
        <ele>491.854367</ele>
        <time>2021-04-30T20:05:15.304Z</time>
      </trkpt>
      <trkpt lat="44.2019" lon="3.28933">
        <ele>491.561386</ele>
        <time>2021-04-30T20:05:21.473Z</time>
      </trkpt>
      <trkpt lat="44.20164" lon="3.28953">
        <ele>491.386454</ele>
        <time>2021-04-30T20:05:27.148Z</time>
      </trkpt>
      <trkpt lat="44.20145" lon="3.28953">
        <ele>491.275297</ele>
        <time>2021-04-30T20:05:30.869Z</time>
      </trkpt>
      <trkpt lat="44.2006" lon="3.28881">
        <ele>490.696245</ele>
        <time>2021-04-30T20:05:51.547Z</time>
      </trkpt>
      <trkpt lat="44.20032" lon="3.28843">
        <ele>490.842056</ele>
        <time>2021-04-30T20:06:00.965Z</time>
      </trkpt>
      <trkpt lat="44.20026" lon="3.28818">
        <ele>490.97448</ele>
        <time>2021-04-30T20:06:05.691Z</time>
      </trkpt>
      <trkpt lat="44.20033" lon="3.28694">
        <ele>491.618391</ele>
        <time>2021-04-30T20:06:28.730Z</time>
      </trkpt>
      <trkpt lat="44.20029" lon="3.28606">
        <ele>491.9042</ele>
        <time>2021-04-30T20:06:45.571Z</time>
      </trkpt>
      <trkpt lat="44.20025" lon="3.28577">
        <ele>491.881328</ele>
        <time>2021-04-30T20:06:51.052Z</time>
      </trkpt>
      <trkpt lat="44.2" lon="3.28496">
        <ele>491.811263</ele>
        <time>2021-04-30T20:07:05.973Z</time>
      </trkpt>
      <trkpt lat="44.19997" lon="3.28458">
        <ele>491.781658</ele>
        <time>2021-04-30T20:07:11.564Z</time>
      </trkpt>
      <trkpt lat="44.20006" lon="3.28436">
        <ele>491.761627</ele>
        <time>2021-04-30T20:07:15.182Z</time>
      </trkpt>
      <trkpt lat="44.20029" lon="3.28404">
        <ele>491.676823</ele>
        <time>2021-04-30T20:07:21.282Z</time>
      </trkpt>
      <trkpt lat="44.20092" lon="3.28283">
        <ele>489.876462</ele>
        <time>2021-04-30T20:07:40.501Z</time>
      </trkpt>
      <trkpt lat="44.20096" lon="3.28239">
        <ele>489.336014</ele>
        <time>2021-04-30T20:07:46.110Z</time>
      </trkpt>
      <trkpt lat="44.20117" lon="3.28159">
        <ele>488.382122</ele>
        <time>2021-04-30T20:07:57.011Z</time>
      </trkpt>
      <trkpt lat="44.20116" lon="3.28097">
        <ele>487.786999</ele>
        <time>2021-04-30T20:08:05.266Z</time>
      </trkpt>
      <trkpt lat="44.20121" lon="3.28071">
        <ele>487.532892</ele>
        <time>2021-04-30T20:08:08.808Z</time>
      </trkpt>
      <trkpt lat="44.20187" lon="3.27909">
        <ele>485.712301</ele>
        <time>2021-04-30T20:08:34.340Z</time>
      </trkpt>
      <trkpt lat="44.20188" lon="3.279">
        <ele>485.614816</ele>
        <time>2021-04-30T20:08:35.715Z</time>
      </trkpt>
      <trkpt lat="44.20187" lon="3.27891">
        <ele>485.516294</ele>
        <time>2021-04-30T20:08:36.836Z</time>
      </trkpt>
      <trkpt lat="44.20173" lon="3.27867">
        <ele>485.205524</ele>
        <time>2021-04-30T20:08:41.162Z</time>
      </trkpt>
      <trkpt lat="44.20162" lon="3.27825">
        <ele>484.740741</ele>
        <time>2021-04-30T20:08:47.219Z</time>
      </trkpt>
      <trkpt lat="44.20141" lon="3.27788">
        <ele>484.245461</ele>
        <time>2021-04-30T20:08:53.319Z</time>
      </trkpt>
      <trkpt lat="44.20075" lon="3.27717">
        <ele>483.078908</ele>
        <time>2021-04-30T20:09:08.089Z</time>
      </trkpt>
      <trkpt lat="44.20066" lon="3.27696">
        <ele>482.833</ele>
        <time>2021-04-30T20:09:11.221Z</time>
      </trkpt>
      <trkpt lat="44.20063" lon="3.27669">
        <ele>482.557833</ele>
        <time>2021-04-30T20:09:15.015Z</time>
      </trkpt>
      <trkpt lat="44.20063" lon="3.27656">
        <ele>482.428135</ele>
        <time>2021-04-30T20:09:16.659Z</time>
      </trkpt>
      <trkpt lat="44.20064" lon="3.27642">
        <ele>482.289116</ele>
        <time>2021-04-30T20:09:18.465Z</time>
      </trkpt>
      <trkpt lat="44.20069" lon="3.27598">
        <ele>481.843856</ele>
        <time>2021-04-30T20:09:24.497Z</time>
      </trkpt>
      <trkpt lat="44.20055" lon="3.27549">
        <ele>481.319325</ele>
        <time>2021-04-30T20:09:31.702Z</time>
      </trkpt>
      <trkpt lat="44.20053" lon="3.27422">
        <ele>480.919003</ele>
        <time>2021-04-30T20:09:49.900Z</time>
      </trkpt>
      <trkpt lat="44.20063" lon="3.274">
        <ele>480.854554</ele>
        <time>2021-04-30T20:09:54.283Z</time>
      </trkpt>
      <trkpt lat="44.20094" lon="3.27363">
        <ele>480.719914</ele>
        <time>2021-04-30T20:10:03.456Z</time>
      </trkpt>
      <trkpt lat="44.20117" lon="3.273">
        <ele>480.589966</ele>
        <time>2021-04-30T20:10:14.890Z</time>
      </trkpt>
      <trkpt lat="44.20143" lon="3.27255">
        <ele>480.586767</ele>
        <time>2021-04-30T20:10:24.261Z</time>
      </trkpt>
      <trkpt lat="44.20162" lon="3.27201">
        <ele>480.583415</ele>
        <time>2021-04-30T20:10:34.061Z</time>
      </trkpt>
      <trkpt lat="44.20165" lon="3.27135">
        <ele>480.579693</ele>
        <time>2021-04-30T20:10:44.632Z</time>
      </trkpt>
      <trkpt lat="44.20177" lon="3.27085">
        <ele>480.591211</ele>
        <time>2021-04-30T20:10:52.516Z</time>
      </trkpt>
      <trkpt lat="44.20176" lon="3.27043">
        <ele>480.777227</ele>
        <time>2021-04-30T20:10:58.953Z</time>
      </trkpt>
      <trkpt lat="44.20195" lon="3.26939">
        <ele>481.247162</ele>
        <time>2021-04-30T20:11:16.958Z</time>
      </trkpt>
      <trkpt lat="44.20196" lon="3.26927">
        <ele>481.302235</ele>
        <time>2021-04-30T20:11:19.129Z</time>
      </trkpt>
      <trkpt lat="44.20197" lon="3.2692">
        <ele>481.335098</ele>
        <time>2021-04-30T20:11:20.340Z</time>
      </trkpt>
      <trkpt lat="44.20219" lon="3.26842">
        <ele>481.717976</ele>
        <time>2021-04-30T20:11:37.400Z</time>
      </trkpt>
      <trkpt lat="44.20237" lon="3.26689">
        <ele>482.971839</ele>
        <time>2021-04-30T20:12:09.602Z</time>
      </trkpt>
      <trkpt lat="44.20247" lon="3.26677">
        <ele>483.111105</ele>
        <time>2021-04-30T20:12:13.131Z</time>
      </trkpt>
      <trkpt lat="44.2029" lon="3.26658">
        <ele>483.625365</ele>
        <time>2021-04-30T20:12:25.120Z</time>
      </trkpt>
      <trkpt lat="44.20297" lon="3.26645">
        <ele>483.663325</ele>
        <time>2021-04-30T20:12:27.718Z</time>
      </trkpt>
      <trkpt lat="44.20297" lon="3.2663">
        <ele>483.566371</ele>
        <time>2021-04-30T20:12:29.879Z</time>
      </trkpt>
      <trkpt lat="44.20275" lon="3.26592">
        <ele>483.234244</ele>
        <time>2021-04-30T20:12:36.528Z</time>
      </trkpt>
      <trkpt lat="44.20237" lon="3.26553">
        <ele>482.794713</ele>
        <time>2021-04-30T20:12:44.780Z</time>
      </trkpt>
      <trkpt lat="44.20209" lon="3.26544">
        <ele>482.524857</ele>
        <time>2021-04-30T20:12:49.965Z</time>
      </trkpt>
      <trkpt lat="44.20153" lon="3.26559">
        <ele>482.089478</ele>
        <time>2021-04-30T20:13:00.329Z</time>
      </trkpt>
      <trkpt lat="44.20141" lon="3.26551">
        <ele>482.407463</ele>
        <time>2021-04-30T20:13:04.717Z</time>
      </trkpt>
      <trkpt lat="44.20133" lon="3.26538">
        <ele>482.699027</ele>
        <time>2021-04-30T20:13:07.511Z</time>
      </trkpt>
      <trkpt lat="44.20131" lon="3.26531">
        <ele>482.820439</ele>
        <time>2021-04-30T20:13:08.181Z</time>
      </trkpt>
      <trkpt lat="44.20132" lon="3.26519">
        <ele>483.037037</ele>
        <time>2021-04-30T20:13:13.395Z</time>
      </trkpt>
      <trkpt lat="44.2014" lon="3.2644">
        <ele>484.393154</ele>
        <time>2021-04-30T20:13:30.775Z</time>
      </trkpt>
      <trkpt lat="44.20074" lon="3.26286">
        <ele>487.241675</ele>
        <time>2021-04-30T20:14:21.018Z</time>
      </trkpt>
      <trkpt lat="44.20077" lon="3.26248">
        <ele>487.77523</ele>
        <time>2021-04-30T20:14:30.258Z</time>
      </trkpt>
      <trkpt lat="44.20091" lon="3.26183">
        <ele>488.733818</ele>
        <time>2021-04-30T20:14:43.084Z</time>
      </trkpt>
      <trkpt lat="44.20093" lon="3.26166">
        <ele>488.970743</ele>
        <time>2021-04-30T20:14:48.609Z</time>
      </trkpt>
      <trkpt lat="44.20092" lon="3.26154">
        <ele>489.131264</ele>
        <time>2021-04-30T20:14:49.819Z</time>
      </trkpt>
      <trkpt lat="44.20082" lon="3.2613">
        <ele>489.52412</ele>
        <time>2021-04-30T20:14:54.757Z</time>
      </trkpt>
      <trkpt lat="44.20052" lon="3.26091">
        <ele>489.983944</ele>
        <time>2021-04-30T20:15:05.017Z</time>
      </trkpt>
      <trkpt lat="44.20045" lon="3.26069">
        <ele>490.094378</ele>
        <time>2021-04-30T20:15:07.880Z</time>
      </trkpt>
      <trkpt lat="44.20043" lon="3.2605">
        <ele>490.183476</ele>
        <time>2021-04-30T20:15:10.304Z</time>
      </trkpt>
      <trkpt lat="44.20041" lon="3.26001">
        <ele>490.414101</ele>
        <time>2021-04-30T20:15:17.159Z</time>
      </trkpt>
      <trkpt lat="44.2002" lon="3.25948">
        <ele>490.697452</ele>
        <time>2021-04-30T20:15:26.128Z</time>
      </trkpt>
      <trkpt lat="44.19971" lon="3.25886">
        <ele>492.309603</ele>
        <time>2021-04-30T20:15:48.152Z</time>
      </trkpt>
      <trkpt lat="44.19967" lon="3.25877">
        <ele>492.755965</ele>
        <time>2021-04-30T20:15:52.446Z</time>
      </trkpt>
      <trkpt lat="44.19962" lon="3.25861">
        <ele>493.445548</ele>
        <time>2021-04-30T20:15:58.890Z</time>
      </trkpt>
      <trkpt lat="44.19953" lon="3.25799">
        <ele>496.060488</ele>
        <time>2021-04-30T20:16:22.298Z</time>
      </trkpt>
      <trkpt lat="44.1995" lon="3.25787">
        <ele>496.587224</ele>
        <time>2021-04-30T20:16:28.963Z</time>
      </trkpt>
      <trkpt lat="44.19949" lon="3.25778">
        <ele>496.95224</ele>
        <time>2021-04-30T20:16:32.862Z</time>
      </trkpt>
      <trkpt lat="44.19963" lon="3.25699">
        <ele>500.315609</ele>
        <time>2021-04-30T20:17:01.526Z</time>
      </trkpt>
      <trkpt lat="44.19969" lon="3.25653">
        <ele>501.415574</ele>
        <time>2021-04-30T20:17:16.135Z</time>
      </trkpt>
      <trkpt lat="44.19971" lon="3.25644">
        <ele>501.456637</ele>
        <time>2021-04-30T20:17:17.161Z</time>
      </trkpt>
      <trkpt lat="44.19991" lon="3.25553">
        <ele>501.864852</ele>
        <time>2021-04-30T20:17:35.755Z</time>
      </trkpt>
      <trkpt lat="44.1998" lon="3.2553">
        <ele>501.983964</ele>
        <time>2021-04-30T20:17:39.481Z</time>
      </trkpt>
      <trkpt lat="44.19973" lon="3.25527">
        <ele>502.026951</ele>
        <time>2021-04-30T20:17:42.350Z</time>
      </trkpt>
      <trkpt lat="44.19961" lon="3.25525">
        <ele>502.096441</ele>
        <time>2021-04-30T20:17:44.152Z</time>
      </trkpt>
      <trkpt lat="44.1993" lon="3.25524">
        <ele>502.28521</ele>
        <time>2021-04-30T20:17:51.332Z</time>
      </trkpt>
      <trkpt lat="44.19922" lon="3.25522">
        <ele>502.334952</ele>
        <time>2021-04-30T20:17:52.488Z</time>
      </trkpt>
      <trkpt lat="44.19916" lon="3.25518">
        <ele>502.375771</ele>
        <time>2021-04-30T20:17:53.652Z</time>
      </trkpt>
      <trkpt lat="44.19911" lon="3.25512">
        <ele>502.401085</ele>
        <time>2021-04-30T20:17:55.679Z</time>
      </trkpt>
      <trkpt lat="44.19907" lon="3.25502">
        <ele>502.39214</ele>
        <time>2021-04-30T20:17:58.067Z</time>
      </trkpt>
      <trkpt lat="44.19904" lon="3.25487">
        <ele>502.379327</ele>
        <time>2021-04-30T20:17:59.615Z</time>
      </trkpt>
      <trkpt lat="44.199" lon="3.25451">
        <ele>502.349066</ele>
        <time>2021-04-30T20:18:04.819Z</time>
      </trkpt>
      <trkpt lat="44.19903" lon="3.25403">
        <ele>502.310048</ele>
        <time>2021-04-30T20:18:10.507Z</time>
      </trkpt>
      <trkpt lat="44.19893" lon="3.25351">
        <ele>502.265837</ele>
        <time>2021-04-30T20:18:17.100Z</time>
      </trkpt>
      <trkpt lat="44.19898" lon="3.25274">
        <ele>502.203048</ele>
        <time>2021-04-30T20:18:36.029Z</time>
      </trkpt>
      <trkpt lat="44.19885" lon="3.25241">
        <ele>503.386225</ele>
        <time>2021-04-30T20:18:47.473Z</time>
      </trkpt>
      <trkpt lat="44.1983" lon="3.25161">
        <ele>507.565897</ele>
        <time>2021-04-30T20:19:25.670Z</time>
      </trkpt>
      <trkpt lat="44.19823" lon="3.25143">
        <ele>508.319514</ele>
        <time>2021-04-30T20:19:31.492Z</time>
      </trkpt>
      <trkpt lat="44.19821" lon="3.2512">
        <ele>509.158244</ele>
        <time>2021-04-30T20:19:39.021Z</time>
      </trkpt>
      <trkpt lat="44.19827" lon="3.25052">
        <ele>511.548134</ele>
        <time>2021-04-30T20:20:00.500Z</time>
      </trkpt>
      <trkpt lat="44.19827" lon="3.2505">
        <ele>511.531903</ele>
        <time>2021-04-30T20:20:00.946Z</time>
      </trkpt>
      <trkpt lat="44.19824" lon="3.25031">
        <ele>511.387335</ele>
        <time>2021-04-30T20:20:05.512Z</time>
      </trkpt>
      <trkpt lat="44.1982" lon="3.25012">
        <ele>511.237094</ele>
        <time>2021-04-30T20:20:13.372Z</time>
      </trkpt>
      <trkpt lat="44.19813" lon="3.24987">
        <ele>511.034441</ele>
        <time>2021-04-30T20:20:20.092Z</time>
      </trkpt>
      <trkpt lat="44.19805" lon="3.24955">
        <ele>510.773933</ele>
        <time>2021-04-30T20:20:30.428Z</time>
      </trkpt>
      <trkpt lat="44.19781" lon="3.24921">
        <ele>510.419228</ele>
        <time>2021-04-30T20:20:35.886Z</time>
      </trkpt>
      <trkpt lat="44.19778" lon="3.24917">
        <ele>510.36941</ele>
        <time>2021-04-30T20:20:36.677Z</time>
      </trkpt>
      <trkpt lat="44.19775" lon="3.24913">
        <ele>510.323185</ele>
        <time>2021-04-30T20:20:37.902Z</time>
      </trkpt>
      <trkpt lat="44.1976" lon="3.2489">
        <ele>510.093143</ele>
        <time>2021-04-30T20:20:41.019Z</time>
      </trkpt>
      <trkpt lat="44.19755" lon="3.24873">
        <ele>509.950382</ele>
        <time>2021-04-30T20:20:43.379Z</time>
      </trkpt>
      <trkpt lat="44.19748" lon="3.24852">
        <ele>509.776402</ele>
        <time>2021-04-30T20:20:45.634Z</time>
      </trkpt>
      <trkpt lat="44.19744" lon="3.24835">
        <ele>509.526763</ele>
        <time>2021-04-30T20:20:47.632Z</time>
      </trkpt>
      <trkpt lat="44.19743" lon="3.2483">
        <ele>509.356015</ele>
        <time>2021-04-30T20:20:48.245Z</time>
      </trkpt>
      <trkpt lat="44.19742" lon="3.24827">
        <ele>509.252196</ele>
        <time>2021-04-30T20:20:48.719Z</time>
      </trkpt>
      <trkpt lat="44.1974" lon="3.2482">
        <ele>509.034585</ele>
        <time>2021-04-30T20:20:49.531Z</time>
      </trkpt>
      <trkpt lat="44.19735" lon="3.24808">
        <ele>508.620209</ele>
        <time>2021-04-30T20:20:50.787Z</time>
      </trkpt>
      <trkpt lat="44.1973" lon="3.24799">
        <ele>508.268692</ele>
        <time>2021-04-30T20:20:51.904Z</time>
      </trkpt>
      <trkpt lat="44.19723" lon="3.24792">
        <ele>507.902416</ele>
        <time>2021-04-30T20:20:53.199Z</time>
      </trkpt>
      <trkpt lat="44.19713" lon="3.24787">
        <ele>507.492566</ele>
        <time>2021-04-30T20:20:54.782Z</time>
      </trkpt>
      <trkpt lat="44.197" lon="3.24785">
        <ele>506.92381</ele>
        <time>2021-04-30T20:20:56.502Z</time>
      </trkpt>
      <trkpt lat="44.19632" lon="3.24786">
        <ele>504.046394</ele>
        <time>2021-04-30T20:21:07.892Z</time>
      </trkpt>
      <trkpt lat="44.19618" lon="3.24764">
        <ele>503.153913</ele>
        <time>2021-04-30T20:21:15.447Z</time>
      </trkpt>
      <trkpt lat="44.19616" lon="3.24728">
        <ele>502.116084</ele>
        <time>2021-04-30T20:21:19.627Z</time>
      </trkpt>
      <trkpt lat="44.19616" lon="3.24682">
        <ele>503.391827</ele>
        <time>2021-04-30T20:21:25.608Z</time>
      </trkpt>
      <trkpt lat="44.19616" lon="3.24625">
        <ele>504.9553</ele>
        <time>2021-04-30T20:21:43.118Z</time>
      </trkpt>
      <trkpt lat="44.19612" lon="3.24615">
        <ele>505.267948</ele>
        <time>2021-04-30T20:21:47.241Z</time>
      </trkpt>
      <trkpt lat="44.19604" lon="3.24591">
        <ele>505.978403</ele>
        <time>2021-04-30T20:21:55.379Z</time>
      </trkpt>
      <trkpt lat="44.19607" lon="3.24552">
        <ele>507.061685</ele>
        <time>2021-04-30T20:22:08.238Z</time>
      </trkpt>
      <trkpt lat="44.19611" lon="3.24536">
        <ele>507.523897</ele>
        <time>2021-04-30T20:22:15.659Z</time>
      </trkpt>
      <trkpt lat="44.19608" lon="3.2452">
        <ele>507.976573</ele>
        <time>2021-04-30T20:22:21.358Z</time>
      </trkpt>
      <trkpt lat="44.19591" lon="3.24493">
        <ele>508.972373</ele>
        <time>2021-04-30T20:22:34.270Z</time>
      </trkpt>
      <trkpt lat="44.19536" lon="3.24452">
        <ele>507.738205</ele>
        <time>2021-04-30T20:22:56.601Z</time>
      </trkpt>
      <trkpt lat="44.19526" lon="3.24426">
        <ele>507.311733</ele>
        <time>2021-04-30T20:23:00.125Z</time>
      </trkpt>
      <trkpt lat="44.19504" lon="3.24292">
        <ele>505.219025</ele>
        <time>2021-04-30T20:23:14.756Z</time>
      </trkpt>
      <trkpt lat="44.19473" lon="3.24222">
        <ele>500.36218</ele>
        <time>2021-04-30T20:23:23.066Z</time>
      </trkpt>
      <trkpt lat="44.19442" lon="3.24193">
        <ele>497.315683</ele>
        <time>2021-04-30T20:23:28.213Z</time>
      </trkpt>
      <trkpt lat="44.19425" lon="3.24176">
        <ele>495.585592</ele>
        <time>2021-04-30T20:23:31.105Z</time>
      </trkpt>
      <trkpt lat="44.19407" lon="3.24157">
        <ele>493.75273</ele>
        <time>2021-04-30T20:23:34.196Z</time>
      </trkpt>
      <trkpt lat="44.19356" lon="3.24117">
        <ele>489.164986</ele>
        <time>2021-04-30T20:23:42.298Z</time>
      </trkpt>
      <trkpt lat="44.19305" lon="3.24017">
        <ele>482.794779</ele>
        <time>2021-04-30T20:23:54.544Z</time>
      </trkpt>
      <trkpt lat="44.19253" lon="3.23964">
        <ele>478.072214</ele>
        <time>2021-04-30T20:24:04.192Z</time>
      </trkpt>
      <trkpt lat="44.19207" lon="3.23856">
        <ele>473.890101</ele>
        <time>2021-04-30T20:24:17.891Z</time>
      </trkpt>
      <trkpt lat="44.19197" lon="3.23798">
        <ele>472.016505</ele>
        <time>2021-04-30T20:24:24.545Z</time>
      </trkpt>
      <trkpt lat="44.1916" lon="3.23675">
        <ele>467.982847</ele>
        <time>2021-04-30T20:24:39.769Z</time>
      </trkpt>
      <trkpt lat="44.19161" lon="3.23617">
        <ele>466.355706</ele>
        <time>2021-04-30T20:24:46.341Z</time>
      </trkpt>
      <trkpt lat="44.19139" lon="3.23558">
        <ele>464.519335</ele>
        <time>2021-04-30T20:24:53.741Z</time>
      </trkpt>
      <trkpt lat="44.19121" lon="3.23384">
        <ele>459.551997</ele>
        <time>2021-04-30T20:25:13.652Z</time>
      </trkpt>
      <trkpt lat="44.19123" lon="3.23233">
        <ele>455.210599</ele>
        <time>2021-04-30T20:25:30.926Z</time>
      </trkpt>
      <trkpt lat="44.19106" lon="3.23152">
        <ele>452.523733</ele>
        <time>2021-04-30T20:25:40.117Z</time>
      </trkpt>
      <trkpt lat="44.19108" lon="3.23076">
        <ele>450.089103</ele>
        <time>2021-04-30T20:25:48.514Z</time>
      </trkpt>
      <trkpt lat="44.19109" lon="3.23052">
        <ele>449.310669</ele>
        <time>2021-04-30T20:25:51.139Z</time>
      </trkpt>
      <trkpt lat="44.1911" lon="3.23047">
        <ele>449.153882</ele>
        <time>2021-04-30T20:25:51.718Z</time>
      </trkpt>
      <trkpt lat="44.19112" lon="3.23012">
        <ele>448.014852</ele>
        <time>2021-04-30T20:25:55.618Z</time>
      </trkpt>
      <trkpt lat="44.19123" lon="3.22901">
        <ele>445.419989</ele>
        <time>2021-04-30T20:26:08.136Z</time>
      </trkpt>
      <trkpt lat="44.19115" lon="3.22841">
        <ele>444.101241</ele>
        <time>2021-04-30T20:26:15.211Z</time>
      </trkpt>
      <trkpt lat="44.19119" lon="3.2282">
        <ele>443.623589</ele>
        <time>2021-04-30T20:26:17.855Z</time>
      </trkpt>
      <trkpt lat="44.19155" lon="3.22683">
        <ele>440.223079</ele>
        <time>2021-04-30T20:26:37.965Z</time>
      </trkpt>
      <trkpt lat="44.19173" lon="3.22642">
        <ele>439.021515</ele>
        <time>2021-04-30T20:26:43.445Z</time>
      </trkpt>
      <trkpt lat="44.19195" lon="3.22611">
        <ele>437.907631</ele>
        <time>2021-04-30T20:26:48.396Z</time>
      </trkpt>
      <trkpt lat="44.19204" lon="3.22602">
        <ele>437.520894</ele>
        <time>2021-04-30T20:26:50.787Z</time>
      </trkpt>
      <trkpt lat="44.19213" lon="3.22594">
        <ele>437.150016</ele>
        <time>2021-04-30T20:26:52.207Z</time>
      </trkpt>
      <trkpt lat="44.19221" lon="3.22585">
        <ele>436.781305</ele>
        <time>2021-04-30T20:26:54.123Z</time>
      </trkpt>
      <trkpt lat="44.19224" lon="3.22576">
        <ele>436.540028</ele>
        <time>2021-04-30T20:26:55.181Z</time>
      </trkpt>
      <trkpt lat="44.19225" lon="3.22568">
        <ele>436.322125</ele>
        <time>2021-04-30T20:26:56.699Z</time>
      </trkpt>
      <trkpt lat="44.19225" lon="3.2256">
        <ele>436.117657</ele>
        <time>2021-04-30T20:26:57.585Z</time>
      </trkpt>
      <trkpt lat="44.19225" lon="3.22553">
        <ele>435.951277</ele>
        <time>2021-04-30T20:26:58.188Z</time>
      </trkpt>
      <trkpt lat="44.19206" lon="3.22512">
        <ele>433.79418</ele>
        <time>2021-04-30T20:27:03.457Z</time>
      </trkpt>
      <trkpt lat="44.19194" lon="3.22435">
        <ele>429.841976</ele>
        <time>2021-04-30T20:27:11.688Z</time>
      </trkpt>
      <trkpt lat="44.19198" lon="3.22335">
        <ele>424.819921</ele>
        <time>2021-04-30T20:27:21.607Z</time>
      </trkpt>
      <trkpt lat="44.1921" lon="3.22293">
        <ele>422.837182</ele>
        <time>2021-04-30T20:27:26.316Z</time>
      </trkpt>
      <trkpt lat="44.19208" lon="3.22268">
        <ele>422.198001</ele>
        <time>2021-04-30T20:27:29.218Z</time>
      </trkpt>
      <trkpt lat="44.19205" lon="3.22262">
        <ele>421.99484</ele>
        <time>2021-04-30T20:27:30.000Z</time>
      </trkpt>
      <trkpt lat="44.19198" lon="3.22256">
        <ele>421.709513</ele>
        <time>2021-04-30T20:27:31.104Z</time>
      </trkpt>
      <trkpt lat="44.19159" lon="3.22241">
        <ele>420.239395</ele>
        <time>2021-04-30T20:27:37.519Z</time>
      </trkpt>
      <trkpt lat="44.1915" lon="3.22218">
        <ele>419.563533</ele>
        <time>2021-04-30T20:27:41.021Z</time>
      </trkpt>
      <trkpt lat="44.19149" lon="3.22207">
        <ele>419.269002</ele>
        <time>2021-04-30T20:27:42.175Z</time>
      </trkpt>
      <trkpt lat="44.19151" lon="3.22057">
        <ele>416.405538</ele>
        <time>2021-04-30T20:28:01.208Z</time>
      </trkpt>
      <trkpt lat="44.19152" lon="3.21812">
        <ele>415.380289</ele>
        <time>2021-04-30T20:28:39.378Z</time>
      </trkpt>
      <trkpt lat="44.19147" lon="3.21792">
        <ele>415.326323</ele>
        <time>2021-04-30T20:28:42.263Z</time>
      </trkpt>
      <trkpt lat="44.19073" lon="3.21627">
        <ele>414.77952</ele>
        <time>2021-04-30T20:29:11.461Z</time>
      </trkpt>
      <trkpt lat="44.19061" lon="3.21601">
        <ele>414.479338</ele>
        <time>2021-04-30T20:29:16.818Z</time>
      </trkpt>
      <trkpt lat="44.19047" lon="3.21568">
        <ele>414.117581</ele>
        <time>2021-04-30T20:29:22.279Z</time>
      </trkpt>
      <trkpt lat="44.19031" lon="3.21521">
        <ele>413.614956</ele>
        <time>2021-04-30T20:29:29.495Z</time>
      </trkpt>
      <trkpt lat="44.19025" lon="3.21501">
        <ele>413.409961</ele>
        <time>2021-04-30T20:29:32.674Z</time>
      </trkpt>
      <trkpt lat="44.19021" lon="3.21485">
        <ele>413.243149</ele>
        <time>2021-04-30T20:29:34.946Z</time>
      </trkpt>
      <trkpt lat="44.19017" lon="3.21468">
        <ele>413.074428</ele>
        <time>2021-04-30T20:29:37.083Z</time>
      </trkpt>
      <trkpt lat="44.19014" lon="3.21451">
        <ele>412.906727</ele>
        <time>2021-04-30T20:29:39.671Z</time>
      </trkpt>
      <trkpt lat="44.19012" lon="3.2143">
        <ele>412.70421</ele>
        <time>2021-04-30T20:29:42.233Z</time>
      </trkpt>
      <trkpt lat="44.19011" lon="3.21423">
        <ele>412.632535</ele>
        <time>2021-04-30T20:29:43.092Z</time>
      </trkpt>
      <trkpt lat="44.1901" lon="3.21413">
        <ele>412.532605</ele>
        <time>2021-04-30T20:29:44.526Z</time>
      </trkpt>
      <trkpt lat="44.1901" lon="3.21399">
        <ele>412.342694</ele>
        <time>2021-04-30T20:29:46.394Z</time>
      </trkpt>
      <trkpt lat="44.19011" lon="3.21372">
        <ele>411.599485</ele>
        <time>2021-04-30T20:29:49.435Z</time>
      </trkpt>
      <trkpt lat="44.19023" lon="3.2121">
        <ele>407.077021</ele>
        <time>2021-04-30T20:30:07.670Z</time>
      </trkpt>
      <trkpt lat="44.19037" lon="3.21084">
        <ele>404.101404</ele>
        <time>2021-04-30T20:30:21.818Z</time>
      </trkpt>
      <trkpt lat="44.1904" lon="3.21043">
        <ele>403.302566</ele>
        <time>2021-04-30T20:30:26.531Z</time>
      </trkpt>
      <trkpt lat="44.19047" lon="3.20958">
        <ele>401.623785</ele>
        <time>2021-04-30T20:30:36.961Z</time>
      </trkpt>
      <trkpt lat="44.19053" lon="3.20903">
        <ele>400.584939</ele>
        <time>2021-04-30T20:30:44.457Z</time>
      </trkpt>
      <trkpt lat="44.19056" lon="3.20859">
        <ele>401.496452</ele>
        <time>2021-04-30T20:30:50.966Z</time>
      </trkpt>
      <trkpt lat="44.19062" lon="3.20808">
        <ele>402.541648</ele>
        <time>2021-04-30T20:31:01.852Z</time>
      </trkpt>
      <trkpt lat="44.19064" lon="3.20782">
        <ele>403.086978</ele>
        <time>2021-04-30T20:31:07.824Z</time>
      </trkpt>
      <trkpt lat="44.19066" lon="3.20765">
        <ele>403.42861</ele>
        <time>2021-04-30T20:31:11.352Z</time>
      </trkpt>
      <trkpt lat="44.19069" lon="3.20762">
        <ele>403.522541</ele>
        <time>2021-04-30T20:31:12.427Z</time>
      </trkpt>
      <trkpt lat="44.19075" lon="3.2076">
        <ele>403.706019</ele>
        <time>2021-04-30T20:31:15.383Z</time>
      </trkpt>
      <trkpt lat="44.19132" lon="3.20729">
        <ele>405.445245</ele>
        <time>2021-04-30T20:31:38.566Z</time>
      </trkpt>
      <trkpt lat="44.19142" lon="3.20723">
        <ele>405.813023</ele>
        <time>2021-04-30T20:31:46.412Z</time>
      </trkpt>
      <trkpt lat="44.19146" lon="3.2072">
        <ele>406.012914</ele>
        <time>2021-04-30T20:31:49.288Z</time>
      </trkpt>
      <trkpt lat="44.19167" lon="3.20711">
        <ele>407.048543</ele>
        <time>2021-04-30T20:31:59.010Z</time>
      </trkpt>
      <trkpt lat="44.19209" lon="3.20711">
        <ele>409.059611</ele>
        <time>2021-04-30T20:32:23.789Z</time>
      </trkpt>
      <trkpt lat="44.19217" lon="3.20713">
        <ele>409.415282</ele>
        <time>2021-04-30T20:32:30.269Z</time>
      </trkpt>
      <trkpt lat="44.19222" lon="3.20716">
        <ele>409.691842</ele>
        <time>2021-04-30T20:32:33.966Z</time>
      </trkpt>
      <trkpt lat="44.19234" lon="3.20721">
        <ele>410.282593</ele>
        <time>2021-04-30T20:32:39.426Z</time>
      </trkpt>
      <trkpt lat="44.19237" lon="3.20722">
        <ele>410.41166</ele>
        <time>2021-04-30T20:32:39.962Z</time>
      </trkpt>
      <trkpt lat="44.19245" lon="3.2073">
        <ele>410.886147</ele>
        <time>2021-04-30T20:32:45.339Z</time>
      </trkpt>
      <trkpt lat="44.19271" lon="3.20758">
        <ele>412.43564</ele>
        <time>2021-04-30T20:32:56.365Z</time>
      </trkpt>
      <trkpt lat="44.19276" lon="3.20763">
        <ele>412.761133</ele>
        <time>2021-04-30T20:33:00.131Z</time>
      </trkpt>
      <trkpt lat="44.19286" lon="3.20775">
        <ele>413.366192</ele>
        <time>2021-04-30T20:33:04.608Z</time>
      </trkpt>
      <trkpt lat="44.19324" lon="3.20848">
        <ele>411.309711</ele>
        <time>2021-04-30T20:33:14.912Z</time>
      </trkpt>
      <trkpt lat="44.19329" lon="3.2085">
        <ele>411.003961</ele>
        <time>2021-04-30T20:33:16.877Z</time>
      </trkpt>
      <trkpt lat="44.19336" lon="3.20851">
        <ele>410.549915</ele>
        <time>2021-04-30T20:33:17.891Z</time>
      </trkpt>
      <trkpt lat="44.19342" lon="3.20849">
        <ele>410.194493</ele>
        <time>2021-04-30T20:33:18.700Z</time>
      </trkpt>
      <trkpt lat="44.19416" lon="3.2081">
        <ele>405.407152</ele>
        <time>2021-04-30T20:33:30.118Z</time>
      </trkpt>
      <trkpt lat="44.19428" lon="3.20804">
        <ele>404.667234</ele>
        <time>2021-04-30T20:33:31.800Z</time>
      </trkpt>
      <trkpt lat="44.1944" lon="3.20804">
        <ele>403.935336</ele>
        <time>2021-04-30T20:33:33.445Z</time>
      </trkpt>
      <trkpt lat="44.1945" lon="3.20806">
        <ele>403.306484</ele>
        <time>2021-04-30T20:33:34.821Z</time>
      </trkpt>
      <trkpt lat="44.19462" lon="3.20806">
        <ele>402.567282</ele>
        <time>2021-04-30T20:33:36.473Z</time>
      </trkpt>
      <trkpt lat="44.1946" lon="3.20791">
        <ele>401.904582</ele>
        <time>2021-04-30T20:33:38.000Z</time>
      </trkpt>
      <trkpt lat="44.19457" lon="3.20771">
        <ele>401.026621</ele>
        <time>2021-04-30T20:33:39.927Z</time>
      </trkpt>
      <trkpt lat="44.19457" lon="3.20764">
        <ele>400.730643</ele>
        <time>2021-04-30T20:33:40.576Z</time>
      </trkpt>
      <trkpt lat="44.19456" lon="3.20755">
        <ele>400.364715</ele>
        <time>2021-04-30T20:33:41.396Z</time>
      </trkpt>
      <trkpt lat="44.1945" lon="3.207">
        <ele>397.943074</ele>
        <time>2021-04-30T20:33:46.978Z</time>
      </trkpt>
      <trkpt lat="44.19451" lon="3.20685">
        <ele>397.292249</ele>
        <time>2021-04-30T20:33:48.589Z</time>
      </trkpt>
      <trkpt lat="44.19452" lon="3.2067">
        <ele>396.654816</ele>
        <time>2021-04-30T20:33:50.098Z</time>
      </trkpt>
      <trkpt lat="44.1946" lon="3.20604">
        <ele>393.786603</ele>
        <time>2021-04-30T20:33:58.559Z</time>
      </trkpt>
      <trkpt lat="44.19447" lon="3.20501">
        <ele>392.562668</ele>
        <time>2021-04-30T20:34:15.558Z</time>
      </trkpt>
      <trkpt lat="44.19448" lon="3.20482">
        <ele>392.581694</ele>
        <time>2021-04-30T20:34:18.596Z</time>
      </trkpt>
      <trkpt lat="44.1945" lon="3.20473">
        <ele>392.590902</ele>
        <time>2021-04-30T20:34:19.696Z</time>
      </trkpt>
      <trkpt lat="44.19456" lon="3.20456">
        <ele>392.610523</ele>
        <time>2021-04-30T20:34:23.461Z</time>
      </trkpt>
      <trkpt lat="44.19469" lon="3.20426">
        <ele>392.64516</ele>
        <time>2021-04-30T20:34:29.020Z</time>
      </trkpt>
      <trkpt lat="44.19475" lon="3.20408">
        <ele>392.66505</ele>
        <time>2021-04-30T20:34:32.944Z</time>
      </trkpt>
      <trkpt lat="44.19487" lon="3.20365">
        <ele>392.710876</ele>
        <time>2021-04-30T20:34:41.002Z</time>
      </trkpt>
      <trkpt lat="44.19508" lon="3.2023">
        <ele>393.097868</ele>
        <time>2021-04-30T20:35:06.500Z</time>
      </trkpt>
      <trkpt lat="44.1955" lon="3.20058">
        <ele>393.595312</ele>
        <time>2021-04-30T20:35:36.358Z</time>
      </trkpt>
      <trkpt lat="44.19597" lon="3.19968">
        <ele>393.713553</ele>
        <time>2021-04-30T20:35:54.719Z</time>
      </trkpt>
      <trkpt lat="44.19619" lon="3.1993">
        <ele>393.765714</ele>
        <time>2021-04-30T20:36:02.876Z</time>
      </trkpt>
      <trkpt lat="44.19689" lon="3.19807">
        <ele>393.917576</ele>
        <time>2021-04-30T20:36:28.232Z</time>
      </trkpt>
      <trkpt lat="44.19707" lon="3.19773">
        <ele>393.956677</ele>
        <time>2021-04-30T20:36:35.238Z</time>
      </trkpt>
      <trkpt lat="44.1972" lon="3.19731">
        <ele>393.998836</ele>
        <time>2021-04-30T20:36:42.794Z</time>
      </trkpt>
      <trkpt lat="44.19738" lon="3.19654">
        <ele>394.000234</ele>
        <time>2021-04-30T20:36:55.814Z</time>
      </trkpt>
      <trkpt lat="44.19756" lon="3.1958">
        <ele>393.846874</ele>
        <time>2021-04-30T20:37:08.258Z</time>
      </trkpt>
      <trkpt lat="44.1982" lon="3.19416">
        <ele>393.259996</ele>
        <time>2021-04-30T20:37:36.374Z</time>
      </trkpt>
      <trkpt lat="44.1987" lon="3.19269">
        <ele>392.040401</ele>
        <time>2021-04-30T20:37:58.626Z</time>
      </trkpt>
      <trkpt lat="44.1988" lon="3.19156">
        <ele>391.264952</ele>
        <time>2021-04-30T20:38:13.702Z</time>
      </trkpt>
      <trkpt lat="44.19877" lon="3.19115">
        <ele>391.00297</ele>
        <time>2021-04-30T20:38:19.414Z</time>
      </trkpt>
      <trkpt lat="44.19874" lon="3.19103">
        <ele>390.924554</ele>
        <time>2021-04-30T20:38:20.973Z</time>
      </trkpt>
      <trkpt lat="44.19863" lon="3.19081">
        <ele>390.754029</ele>
        <time>2021-04-30T20:38:24.953Z</time>
      </trkpt>
      <trkpt lat="44.19814" lon="3.18979">
        <ele>390.167331</ele>
        <time>2021-04-30T20:38:42.769Z</time>
      </trkpt>
      <trkpt lat="44.19792" lon="3.18933">
        <ele>390.3977</ele>
        <time>2021-04-30T20:38:51.559Z</time>
      </trkpt>
      <trkpt lat="44.19783" lon="3.18918">
        <ele>390.483096</ele>
        <time>2021-04-30T20:38:55.215Z</time>
      </trkpt>
      <trkpt lat="44.19775" lon="3.18908">
        <ele>390.546839</ele>
        <time>2021-04-30T20:38:57.862Z</time>
      </trkpt>
      <trkpt lat="44.19769" lon="3.18903">
        <ele>390.583712</ele>
        <time>2021-04-30T20:38:59.378Z</time>
      </trkpt>
      <trkpt lat="44.19764" lon="3.18897">
        <ele>390.624893</ele>
        <time>2021-04-30T20:39:01.089Z</time>
      </trkpt>
      <trkpt lat="44.19687" lon="3.18858">
        <ele>391.101797</ele>
        <time>2021-04-30T20:39:21.883Z</time>
      </trkpt>
      <trkpt lat="44.19661" lon="3.18834">
        <ele>391.691682</ele>
        <time>2021-04-30T20:39:30.686Z</time>
      </trkpt>
      <trkpt lat="44.19647" lon="3.18804">
        <ele>392.267951</ele>
        <time>2021-04-30T20:39:39.024Z</time>
      </trkpt>
      <trkpt lat="44.1964" lon="3.18775">
        <ele>392.751514</ele>
        <time>2021-04-30T20:39:46.340Z</time>
      </trkpt>
      <trkpt lat="44.19637" lon="3.18727">
        <ele>393.539031</ele>
        <time>2021-04-30T20:39:57.548Z</time>
      </trkpt>
      <trkpt lat="44.1964" lon="3.18691">
        <ele>394.109546</ele>
        <time>2021-04-30T20:40:05.056Z</time>
      </trkpt>
      <trkpt lat="44.19642" lon="3.18681">
        <ele>394.291847</ele>
        <time>2021-04-30T20:40:08.313Z</time>
      </trkpt>
      <trkpt lat="44.19645" lon="3.1867">
        <ele>394.469186</ele>
        <time>2021-04-30T20:40:10.977Z</time>
      </trkpt>
      <trkpt lat="44.1965" lon="3.18657">
        <ele>394.707405</ele>
        <time>2021-04-30T20:40:13.951Z</time>
      </trkpt>
      <trkpt lat="44.19654" lon="3.18646">
        <ele>394.913809</ele>
        <time>2021-04-30T20:40:16.801Z</time>
      </trkpt>
      <trkpt lat="44.1966" lon="3.18633">
        <ele>395.163761</ele>
        <time>2021-04-30T20:40:21.242Z</time>
      </trkpt>
      <trkpt lat="44.19679" lon="3.18605">
        <ele>395.694853</ele>
        <time>2021-04-30T20:40:29.733Z</time>
      </trkpt>
      <trkpt lat="44.19705" lon="3.18581">
        <ele>396.304502</ele>
        <time>2021-04-30T20:40:40.134Z</time>
      </trkpt>
      <trkpt lat="44.19882" lon="3.18457">
        <ele>398.527203</ele>
        <time>2021-04-30T20:41:36.787Z</time>
      </trkpt>
      <trkpt lat="44.19918" lon="3.1841">
        <ele>398.437374</ele>
        <time>2021-04-30T20:41:46.704Z</time>
      </trkpt>
      <trkpt lat="44.19956" lon="3.18328">
        <ele>397.9845</ele>
        <time>2021-04-30T20:41:59.184Z</time>
      </trkpt>
      <trkpt lat="44.19975" lon="3.18257">
        <ele>396.671002</ele>
        <time>2021-04-30T20:42:08.281Z</time>
      </trkpt>
      <trkpt lat="44.19978" lon="3.18211">
        <ele>395.863824</ele>
        <time>2021-04-30T20:42:13.864Z</time>
      </trkpt>
      <trkpt lat="44.19973" lon="3.18096">
        <ele>393.93728</ele>
        <time>2021-04-30T20:42:28.057Z</time>
      </trkpt>
      <trkpt lat="44.19975" lon="3.18074">
        <ele>393.698964</ele>
        <time>2021-04-30T20:42:30.645Z</time>
      </trkpt>
      <trkpt lat="44.19979" lon="3.18047">
        <ele>393.399204</ele>
        <time>2021-04-30T20:42:34.508Z</time>
      </trkpt>
      <trkpt lat="44.19985" lon="3.18027">
        <ele>393.167652</ele>
        <time>2021-04-30T20:42:37.068Z</time>
      </trkpt>
      <trkpt lat="44.19995" lon="3.17998">
        <ele>392.821912</ele>
        <time>2021-04-30T20:42:41.577Z</time>
      </trkpt>
      <trkpt lat="44.20009" lon="3.17954">
        <ele>392.302383</ele>
        <time>2021-04-30T20:42:48.058Z</time>
      </trkpt>
      <trkpt lat="44.20082" lon="3.17767">
        <ele>390.30962</ele>
        <time>2021-04-30T20:43:17.302Z</time>
      </trkpt>
      <trkpt lat="44.20103" lon="3.17632">
        <ele>389.181055</ele>
        <time>2021-04-30T20:43:35.803Z</time>
      </trkpt>
      <trkpt lat="44.20108" lon="3.17524">
        <ele>388.460741</ele>
        <time>2021-04-30T20:43:50.918Z</time>
      </trkpt>
      <trkpt lat="44.2014" lon="3.17409">
        <ele>387.641988</ele>
        <time>2021-04-30T20:44:08.279Z</time>
      </trkpt>
      <trkpt lat="44.20173" lon="3.1735">
        <ele>387.258441</ele>
        <time>2021-04-30T20:44:18.913Z</time>
      </trkpt>
      <trkpt lat="44.20176" lon="3.17341">
        <ele>387.208501</ele>
        <time>2021-04-30T20:44:20.877Z</time>
      </trkpt>
      <trkpt lat="44.20177" lon="3.17331">
        <ele>387.15738</ele>
        <time>2021-04-30T20:44:22.301Z</time>
      </trkpt>
      <trkpt lat="44.20179" lon="3.17308">
        <ele>387.043806</ele>
        <time>2021-04-30T20:44:25.523Z</time>
      </trkpt>
      <trkpt lat="44.20181" lon="3.17283">
        <ele>386.922117</ele>
        <time>2021-04-30T20:44:29.417Z</time>
      </trkpt>
      <trkpt lat="44.2018" lon="3.17206">
        <ele>386.54188</ele>
        <time>2021-04-30T20:44:40.474Z</time>
      </trkpt>
      <trkpt lat="44.20163" lon="3.17113">
        <ele>386.057229</ele>
        <time>2021-04-30T20:44:54.107Z</time>
      </trkpt>
      <trkpt lat="44.20156" lon="3.17032">
        <ele>385.639722</ele>
        <time>2021-04-30T20:45:05.685Z</time>
      </trkpt>
      <trkpt lat="44.2014" lon="3.16939">
        <ele>385.14167</ele>
        <time>2021-04-30T20:45:19.497Z</time>
      </trkpt>
      <trkpt lat="44.20123" lon="3.16772">
        <ele>384.700062</ele>
        <time>2021-04-30T20:45:44.095Z</time>
      </trkpt>
      <trkpt lat="44.20123" lon="3.16573">
        <ele>384.980177</ele>
        <time>2021-04-30T20:46:16.500Z</time>
      </trkpt>
      <trkpt lat="44.2011" lon="3.16472">
        <ele>385.518982</ele>
        <time>2021-04-30T20:46:35.672Z</time>
      </trkpt>
      <trkpt lat="44.20106" lon="3.16248">
        <ele>387.71581</ele>
        <time>2021-04-30T20:47:20.956Z</time>
      </trkpt>
      <trkpt lat="44.20098" lon="3.16109">
        <ele>389.256862</ele>
        <time>2021-04-30T20:47:50.151Z</time>
      </trkpt>
      <trkpt lat="44.201" lon="3.16089">
        <ele>389.485241</ele>
        <time>2021-04-30T20:47:55.018Z</time>
      </trkpt>
      <trkpt lat="44.20103" lon="3.16076">
        <ele>389.630629</ele>
        <time>2021-04-30T20:47:57.353Z</time>
      </trkpt>
      <trkpt lat="44.20106" lon="3.16062">
        <ele>389.788333</ele>
        <time>2021-04-30T20:48:00.537Z</time>
      </trkpt>
      <trkpt lat="44.20121" lon="3.16025">
        <ele>390.264888</ele>
        <time>2021-04-30T20:48:09.539Z</time>
      </trkpt>
      <trkpt lat="44.20147" lon="3.16001">
        <ele>390.74209</ele>
        <time>2021-04-30T20:48:18.335Z</time>
      </trkpt>
      <trkpt lat="44.20165" lon="3.15992">
        <ele>391.036672</ele>
        <time>2021-04-30T20:48:24.103Z</time>
      </trkpt>
      <trkpt lat="44.20207" lon="3.15975">
        <ele>391.233452</ele>
        <time>2021-04-30T20:48:36.086Z</time>
      </trkpt>
      <trkpt lat="44.20344" lon="3.15915">
        <ele>390.579128</ele>
        <time>2021-04-30T20:49:04.560Z</time>
      </trkpt>
      <trkpt lat="44.2036" lon="3.15898">
        <ele>390.403049</ele>
        <time>2021-04-30T20:49:08.779Z</time>
      </trkpt>
      <trkpt lat="44.20363" lon="3.1589">
        <ele>390.299618</ele>
        <time>2021-04-30T20:49:09.756Z</time>
      </trkpt>
      <trkpt lat="44.20364" lon="3.15882">
        <ele>390.199868</ele>
        <time>2021-04-30T20:49:10.732Z</time>
      </trkpt>
      <trkpt lat="44.2036" lon="3.1585">
        <ele>389.816724</ele>
        <time>2021-04-30T20:49:15.732Z</time>
      </trkpt>
      <trkpt lat="44.20358" lon="3.15841">
        <ele>389.712055</ele>
        <time>2021-04-30T20:49:16.703Z</time>
      </trkpt>
      <trkpt lat="44.20357" lon="3.15835">
        <ele>389.645175</ele>
        <time>2021-04-30T20:49:17.362Z</time>
      </trkpt>
      <trkpt lat="44.20355" lon="3.15824">
        <ele>389.513213</ele>
        <time>2021-04-30T20:49:18.873Z</time>
      </trkpt>
      <trkpt lat="44.20354" lon="3.15819">
        <ele>389.450874</ele>
        <time>2021-04-30T20:49:19.632Z</time>
      </trkpt>
      <trkpt lat="44.20346" lon="3.15769">
        <ele>388.844482</ele>
        <time>2021-04-30T20:49:26.310Z</time>
      </trkpt>
      <trkpt lat="44.20339" lon="3.15745">
        <ele>388.547923</ele>
        <time>2021-04-30T20:49:29.520Z</time>
      </trkpt>
      <trkpt lat="44.20326" lon="3.15726">
        <ele>388.247629</ele>
        <time>2021-04-30T20:49:32.772Z</time>
      </trkpt>
      <trkpt lat="44.20318" lon="3.15718">
        <ele>388.080874</ele>
        <time>2021-04-30T20:49:34.984Z</time>
      </trkpt>
      <trkpt lat="44.20308" lon="3.15712">
        <ele>387.909374</ele>
        <time>2021-04-30T20:49:36.593Z</time>
      </trkpt>
      <trkpt lat="44.20286" lon="3.15703">
        <ele>387.565748</ele>
        <time>2021-04-30T20:49:40.915Z</time>
      </trkpt>
      <trkpt lat="44.20252" lon="3.15703">
        <ele>387.290934</ele>
        <time>2021-04-30T20:49:47.123Z</time>
      </trkpt>
      <trkpt lat="44.20241" lon="3.15703">
        <ele>387.196855</ele>
        <time>2021-04-30T20:49:49.556Z</time>
      </trkpt>
      <trkpt lat="44.20203" lon="3.15703">
        <ele>386.879963</ele>
        <time>2021-04-30T20:49:57.425Z</time>
      </trkpt>
      <trkpt lat="44.20165" lon="3.157">
        <ele>386.566727</ele>
        <time>2021-04-30T20:50:05.163Z</time>
      </trkpt>
      <trkpt lat="44.2016" lon="3.15699">
        <ele>386.523943</ele>
        <time>2021-04-30T20:50:06.072Z</time>
      </trkpt>
      <trkpt lat="44.20153" lon="3.15696">
        <ele>386.465757</ele>
        <time>2021-04-30T20:50:07.550Z</time>
      </trkpt>
      <trkpt lat="44.2013" lon="3.15681">
        <ele>386.260216</ele>
        <time>2021-04-30T20:50:12.596Z</time>
      </trkpt>
      <trkpt lat="44.20109" lon="3.15649">
        <ele>386.088522</ele>
        <time>2021-04-30T20:50:18.856Z</time>
      </trkpt>
      <trkpt lat="44.20068" lon="3.1552">
        <ele>385.894765</ele>
        <time>2021-04-30T20:50:39.885Z</time>
      </trkpt>
      <trkpt lat="44.2004" lon="3.15464">
        <ele>385.800688</ele>
        <time>2021-04-30T20:50:51.167Z</time>
      </trkpt>
      <trkpt lat="44.20006" lon="3.15423">
        <ele>386.149124</ele>
        <time>2021-04-30T20:51:01.972Z</time>
      </trkpt>
      <trkpt lat="44.19968" lon="3.1539">
        <ele>386.745021</ele>
        <time>2021-04-30T20:51:13.568Z</time>
      </trkpt>
      <trkpt lat="44.19926" lon="3.15371">
        <ele>387.327236</ele>
        <time>2021-04-30T20:51:25.585Z</time>
      </trkpt>
      <trkpt lat="44.19891" lon="3.15363">
        <ele>387.791549</ele>
        <time>2021-04-30T20:51:35.684Z</time>
      </trkpt>
      <trkpt lat="44.19736" lon="3.15379">
        <ele>392.00216</ele>
        <time>2021-04-30T20:52:25.424Z</time>
      </trkpt>
      <trkpt lat="44.1964" lon="3.15364">
        <ele>395.297052</ele>
        <time>2021-04-30T20:53:04.339Z</time>
      </trkpt>
      <trkpt lat="44.19607" lon="3.15364">
        <ele>396.527862</ele>
        <time>2021-04-30T20:53:17.207Z</time>
      </trkpt>
      <trkpt lat="44.19592" lon="3.15368">
        <ele>397.125705</ele>
        <time>2021-04-30T20:53:23.282Z</time>
      </trkpt>
      <trkpt lat="44.19574" lon="3.15373">
        <ele>397.808484</ele>
        <time>2021-04-30T20:53:30.687Z</time>
      </trkpt>
      <trkpt lat="44.19494" lon="3.15404">
        <ele>400.378442</ele>
        <time>2021-04-30T20:54:00.237Z</time>
      </trkpt>
      <trkpt lat="44.19471" lon="3.15425">
        <ele>400.342299</ele>
        <time>2021-04-30T20:54:08.862Z</time>
      </trkpt>
      <trkpt lat="44.19439" lon="3.15464">
        <ele>400.287518</ele>
        <time>2021-04-30T20:54:20.616Z</time>
      </trkpt>
      <trkpt lat="44.19429" lon="3.15477">
        <ele>400.269876</ele>
        <time>2021-04-30T20:54:23.568Z</time>
      </trkpt>
      <trkpt lat="44.19423" lon="3.15482">
        <ele>400.260263</ele>
        <time>2021-04-30T20:54:24.836Z</time>
      </trkpt>
      <trkpt lat="44.19321" lon="3.15593">
        <ele>397.940052</ele>
        <time>2021-04-30T20:54:46.636Z</time>
      </trkpt>
      <trkpt lat="44.1929" lon="3.156">
        <ele>396.701282</ele>
        <time>2021-04-30T20:54:51.324Z</time>
      </trkpt>
      <trkpt lat="44.19242" lon="3.1562">
        <ele>394.667849</ele>
        <time>2021-04-30T20:54:59.198Z</time>
      </trkpt>
      <trkpt lat="44.19226" lon="3.15626">
        <ele>394.014254</ele>
        <time>2021-04-30T20:55:01.628Z</time>
      </trkpt>
      <trkpt lat="44.19214" lon="3.15629">
        <ele>393.514242</ele>
        <time>2021-04-30T20:55:03.629Z</time>
      </trkpt>
      <trkpt lat="44.19195" lon="3.15634">
        <ele>392.766304</ele>
        <time>2021-04-30T20:55:06.464Z</time>
      </trkpt>
      <trkpt lat="44.19123" lon="3.15644">
        <ele>389.907712</ele>
        <time>2021-04-30T20:55:17.429Z</time>
      </trkpt>
      <trkpt lat="44.1909" lon="3.15644">
        <ele>388.60436</ele>
        <time>2021-04-30T20:55:22.522Z</time>
      </trkpt>
      <trkpt lat="44.19059" lon="3.15633">
        <ele>387.335762</ele>
        <time>2021-04-30T20:55:27.602Z</time>
      </trkpt>
      <trkpt lat="44.19044" lon="3.15623">
        <ele>386.695875</ele>
        <time>2021-04-30T20:55:30.275Z</time>
      </trkpt>
      <trkpt lat="44.19018" lon="3.15603">
        <ele>385.76174</ele>
        <time>2021-04-30T20:55:35.393Z</time>
      </trkpt>
      <trkpt lat="44.18975" lon="3.15561">
        <ele>385.199888</ele>
        <time>2021-04-30T20:55:44.705Z</time>
      </trkpt>
      <trkpt lat="44.18958" lon="3.15532">
        <ele>384.90788</ele>
        <time>2021-04-30T20:55:50.037Z</time>
      </trkpt>
      <trkpt lat="44.18952" lon="3.15517">
        <ele>384.783611</ele>
        <time>2021-04-30T20:55:52.098Z</time>
      </trkpt>
      <trkpt lat="44.18949" lon="3.15506">
        <ele>384.684853</ele>
        <time>2021-04-30T20:55:54.473Z</time>
      </trkpt>
      <trkpt lat="44.18942" lon="3.15471">
        <ele>384.405935</ele>
        <time>2021-04-30T20:55:59.361Z</time>
      </trkpt>
      <trkpt lat="44.18941" lon="3.15416">
        <ele>383.991054</ele>
        <time>2021-04-30T20:56:08.430Z</time>
      </trkpt>
      <trkpt lat="44.18971" lon="3.15281">
        <ele>384.3566</ele>
        <time>2021-04-30T20:56:34.239Z</time>
      </trkpt>
      <trkpt lat="44.18999" lon="3.15189">
        <ele>384.673297</ele>
        <time>2021-04-30T20:56:51.590Z</time>
      </trkpt>
      <trkpt lat="44.19051" lon="3.15054">
        <ele>384.04314</ele>
        <time>2021-04-30T20:57:15.190Z</time>
      </trkpt>
      <trkpt lat="44.19126" lon="3.14779">
        <ele>381.773157</ele>
        <time>2021-04-30T20:57:54.480Z</time>
      </trkpt>
      <trkpt lat="44.19132" lon="3.1475">
        <ele>381.485624</ele>
        <time>2021-04-30T20:57:58.826Z</time>
      </trkpt>
      <trkpt lat="44.19135" lon="3.14731">
        <ele>381.305658</ele>
        <time>2021-04-30T20:58:01.080Z</time>
      </trkpt>
      <trkpt lat="44.19137" lon="3.14694">
        <ele>381.011801</ele>
        <time>2021-04-30T20:58:06.363Z</time>
      </trkpt>
      <trkpt lat="44.19131" lon="3.1464">
        <ele>380.68879</ele>
        <time>2021-04-30T20:58:13.715Z</time>
      </trkpt>
      <trkpt lat="44.19131" lon="3.14634">
        <ele>380.653827</ele>
        <time>2021-04-30T20:58:14.344Z</time>
      </trkpt>
      <trkpt lat="44.19127" lon="3.14608">
        <ele>380.494264</ele>
        <time>2021-04-30T20:58:18.557Z</time>
      </trkpt>
      <trkpt lat="44.191" lon="3.14451">
        <ele>379.516993</ele>
        <time>2021-04-30T20:58:42.412Z</time>
      </trkpt>
      <trkpt lat="44.19084" lon="3.14372">
        <ele>378.89839</ele>
        <time>2021-04-30T20:58:54.269Z</time>
      </trkpt>
      <trkpt lat="44.19077" lon="3.14343">
        <ele>378.674845</ele>
        <time>2021-04-30T20:58:58.351Z</time>
      </trkpt>
      <trkpt lat="44.19068" lon="3.14292">
        <ele>378.279427</ele>
        <time>2021-04-30T20:59:05.629Z</time>
      </trkpt>
      <trkpt lat="44.19065" lon="3.14268">
        <ele>378.093129</ele>
        <time>2021-04-30T20:59:09.161Z</time>
      </trkpt>
      <trkpt lat="44.19063" lon="3.14242">
        <ele>377.902961</ele>
        <time>2021-04-30T20:59:12.305Z</time>
      </trkpt>
      <trkpt lat="44.19059" lon="3.14132">
        <ele>376.92287</ele>
        <time>2021-04-30T20:59:26.682Z</time>
      </trkpt>
      <trkpt lat="44.19052" lon="3.14087">
        <ele>376.505051</ele>
        <time>2021-04-30T20:59:32.607Z</time>
      </trkpt>
      <trkpt lat="44.19036" lon="3.14018">
        <ele>375.842956</ele>
        <time>2021-04-30T20:59:42.247Z</time>
      </trkpt>
      <trkpt lat="44.19021" lon="3.13958">
        <ele>375.482088</ele>
        <time>2021-04-30T20:59:51.893Z</time>
      </trkpt>
      <trkpt lat="44.19007" lon="3.13901">
        <ele>375.615022</ele>
        <time>2021-04-30T21:00:01.306Z</time>
      </trkpt>
      <trkpt lat="44.18944" lon="3.13636">
        <ele>376.734316</ele>
        <time>2021-04-30T21:00:51.041Z</time>
      </trkpt>
      <trkpt lat="44.18943" lon="3.13632">
        <ele>376.761612</ele>
        <time>2021-04-30T21:00:51.783Z</time>
      </trkpt>
      <trkpt lat="44.18925" lon="3.13554">
        <ele>377.318703</ele>
        <time>2021-04-30T21:01:07.677Z</time>
      </trkpt>
      <trkpt lat="44.18923" lon="3.13547">
        <ele>377.371657</ele>
        <time>2021-04-30T21:01:09.187Z</time>
      </trkpt>
      <trkpt lat="44.18893" lon="3.13424">
        <ele>378.32794</ele>
        <time>2021-04-30T21:01:34.509Z</time>
      </trkpt>
      <trkpt lat="44.18886" lon="3.13392">
        <ele>378.585776</ele>
        <time>2021-04-30T21:01:40.872Z</time>
      </trkpt>
      <trkpt lat="44.18869" lon="3.13323">
        <ele>379.14906</ele>
        <time>2021-04-30T21:01:54.493Z</time>
      </trkpt>
      <trkpt lat="44.18863" lon="3.13296">
        <ele>379.367295</ele>
        <time>2021-04-30T21:01:59.913Z</time>
      </trkpt>
      <trkpt lat="44.1885" lon="3.13245">
        <ele>379.735685</ele>
        <time>2021-04-30T21:02:10.180Z</time>
      </trkpt>
      <trkpt lat="44.18848" lon="3.13234">
        <ele>379.790887</ele>
        <time>2021-04-30T21:02:12.512Z</time>
      </trkpt>
      <trkpt lat="44.18827" lon="3.13146">
        <ele>380.265746</ele>
        <time>2021-04-30T21:02:29.582Z</time>
      </trkpt>
      <trkpt lat="44.18825" lon="3.13135">
        <ele>380.325117</ele>
        <time>2021-04-30T21:02:32.066Z</time>
      </trkpt>
      <trkpt lat="44.18821" lon="3.13119">
        <ele>380.410924</ele>
        <time>2021-04-30T21:02:34.775Z</time>
      </trkpt>
      <trkpt lat="44.18812" lon="3.1308">
        <ele>380.619271</ele>
        <time>2021-04-30T21:02:42.066Z</time>
      </trkpt>
      <trkpt lat="44.18805" lon="3.13051">
        <ele>380.777738</ele>
        <time>2021-04-30T21:02:47.142Z</time>
      </trkpt>
      <trkpt lat="44.18804" lon="3.13039">
        <ele>380.838675</ele>
        <time>2021-04-30T21:02:49.626Z</time>
      </trkpt>
      <trkpt lat="44.18799" lon="3.13029">
        <ele>380.903694</ele>
        <time>2021-04-30T21:02:51.744Z</time>
      </trkpt>
      <trkpt lat="44.18771" lon="3.12999">
        <ele>380.84571</ele>
        <time>2021-04-30T21:02:59.872Z</time>
      </trkpt>
      <trkpt lat="44.18674" lon="3.12916">
        <ele>380.575859</ele>
        <time>2021-04-30T21:03:24.917Z</time>
      </trkpt>
      <trkpt lat="44.18664" lon="3.12907">
        <ele>380.548025</ele>
        <time>2021-04-30T21:03:26.995Z</time>
      </trkpt>
      <trkpt lat="44.18584" lon="3.12839">
        <ele>379.697376</ele>
        <time>2021-04-30T21:03:44.762Z</time>
      </trkpt>
      <trkpt lat="44.18579" lon="3.12834">
        <ele>379.620778</ele>
        <time>2021-04-30T21:03:45.911Z</time>
      </trkpt>
      <trkpt lat="44.18561" lon="3.12819">
        <ele>379.386592</ele>
        <time>2021-04-30T21:03:49.919Z</time>
      </trkpt>
      <trkpt lat="44.18511" lon="3.12776">
        <ele>378.736287</ele>
        <time>2021-04-30T21:04:00.921Z</time>
      </trkpt>
      <trkpt lat="44.18473" lon="3.12744">
        <ele>378.425336</ele>
        <time>2021-04-30T21:04:09.566Z</time>
      </trkpt>
      <trkpt lat="44.18421" lon="3.12705">
        <ele>378.249838</ele>
        <time>2021-04-30T21:04:21.446Z</time>
      </trkpt>
      <trkpt lat="44.18348" lon="3.1268">
        <ele>378.029436</ele>
        <time>2021-04-30T21:04:38.011Z</time>
      </trkpt>
      <trkpt lat="44.18298" lon="3.12665">
        <ele>378.194761</ele>
        <time>2021-04-30T21:04:49.892Z</time>
      </trkpt>
      <trkpt lat="44.18287" lon="3.12659">
        <ele>378.297899</ele>
        <time>2021-04-30T21:04:53.291Z</time>
      </trkpt>
      <trkpt lat="44.18265" lon="3.12644">
        <ele>378.50788</ele>
        <time>2021-04-30T21:04:58.943Z</time>
      </trkpt>
      <trkpt lat="44.18238" lon="3.12614">
        <ele>378.801179</ele>
        <time>2021-04-30T21:05:07.591Z</time>
      </trkpt>
      <trkpt lat="44.18231" lon="3.12607">
        <ele>378.870066</ele>
        <time>2021-04-30T21:05:09.946Z</time>
      </trkpt>
      <trkpt lat="44.18231" lon="3.12607">
        <ele>378.870066</ele>
        <time>2021-04-30T21:05:09.989Z</time>
      </trkpt>
      <trkpt lat="44.1822" lon="3.12598">
        <ele>378.980319</ele>
        <time>2021-04-30T21:05:13.283Z</time>
      </trkpt>
      <trkpt lat="44.18126" lon="3.12537">
        <ele>380.218994</ele>
        <time>2021-04-30T21:05:41.585Z</time>
      </trkpt>
      <trkpt lat="44.17889" lon="3.12427">
        <ele>384.200531</ele>
        <time>2021-04-30T21:06:55.297Z</time>
      </trkpt>
      <trkpt lat="44.17877" lon="3.12425">
        <ele>384.382159</ele>
        <time>2021-04-30T21:06:59.408Z</time>
      </trkpt>
      <trkpt lat="44.17865" lon="3.12425">
        <ele>384.566915</ele>
        <time>2021-04-30T21:07:02.604Z</time>
      </trkpt>
      <trkpt lat="44.17849" lon="3.12426">
        <ele>384.804103</ele>
        <time>2021-04-30T21:07:06.851Z</time>
      </trkpt>
      <trkpt lat="44.17786" lon="3.12437">
        <ele>385.201542</ele>
        <time>2021-04-30T21:07:22.245Z</time>
      </trkpt>
      <trkpt lat="44.17722" lon="3.12442">
        <ele>385.225058</ele>
        <time>2021-04-30T21:07:36.641Z</time>
      </trkpt>
      <trkpt lat="44.17669" lon="3.12447">
        <ele>385.244754</ele>
        <time>2021-04-30T21:07:47.285Z</time>
      </trkpt>
      <trkpt lat="44.17636" lon="3.12449">
        <ele>385.233181</ele>
        <time>2021-04-30T21:07:54.320Z</time>
      </trkpt>
      <trkpt lat="44.17605" lon="3.1245">
        <ele>385.15503</ele>
        <time>2021-04-30T21:08:01.269Z</time>
      </trkpt>
      <trkpt lat="44.17594" lon="3.1245">
        <ele>385.127885</ele>
        <time>2021-04-30T21:08:03.576Z</time>
      </trkpt>
      <trkpt lat="44.17583" lon="3.12449">
        <ele>385.101218</ele>
        <time>2021-04-30T21:08:06.751Z</time>
      </trkpt>
      <trkpt lat="44.17551" lon="3.12439">
        <ele>385.018993</ele>
        <time>2021-04-30T21:08:13.522Z</time>
      </trkpt>
      <trkpt lat="44.175" lon="3.12413">
        <ele>384.882285</ele>
        <time>2021-04-30T21:08:25.136Z</time>
      </trkpt>
      <trkpt lat="44.17446" lon="3.12405">
        <ele>384.391616</ele>
        <time>2021-04-30T21:08:36.856Z</time>
      </trkpt>
      <trkpt lat="44.17434" lon="3.12406">
        <ele>384.177478</ele>
        <time>2021-04-30T21:08:40.191Z</time>
      </trkpt>
      <trkpt lat="44.17424" lon="3.12409">
        <ele>383.994778</ele>
        <time>2021-04-30T21:08:41.810Z</time>
      </trkpt>
      <trkpt lat="44.17327" lon="3.12455">
        <ele>382.11692</ele>
        <time>2021-04-30T21:08:59.800Z</time>
      </trkpt>
      <trkpt lat="44.17272" lon="3.12455">
        <ele>381.010051</ele>
        <time>2021-04-30T21:09:08.827Z</time>
      </trkpt>
      <trkpt lat="44.17218" lon="3.12445">
        <ele>379.753742</ele>
        <time>2021-04-30T21:09:17.938Z</time>
      </trkpt>
      <trkpt lat="44.17198" lon="3.1244">
        <ele>379.30045</ele>
        <time>2021-04-30T21:09:21.330Z</time>
      </trkpt>
      <trkpt lat="44.17147" lon="3.12418">
        <ele>378.081816</ele>
        <time>2021-04-30T21:09:30.504Z</time>
      </trkpt>
      <trkpt lat="44.17118" lon="3.12402">
        <ele>377.400367</ele>
        <time>2021-04-30T21:09:36.156Z</time>
      </trkpt>
      <trkpt lat="44.17073" lon="3.12372">
        <ele>377.249975</ele>
        <time>2021-04-30T21:09:45.712Z</time>
      </trkpt>
      <trkpt lat="44.16996" lon="3.1233">
        <ele>376.998339</ele>
        <time>2021-04-30T21:10:04.322Z</time>
      </trkpt>
      <trkpt lat="44.16979" lon="3.12311">
        <ele>376.932827</ele>
        <time>2021-04-30T21:10:09.424Z</time>
      </trkpt>
      <trkpt lat="44.16958" lon="3.12265">
        <ele>376.949783</ele>
        <time>2021-04-30T21:10:18.558Z</time>
      </trkpt>
      <trkpt lat="44.16914" lon="3.12131">
        <ele>377.56809</ele>
        <time>2021-04-30T21:10:44.808Z</time>
      </trkpt>
      <trkpt lat="44.16861" lon="3.11992">
        <ele>378.1036</ele>
        <time>2021-04-30T21:11:13.251Z</time>
      </trkpt>
      <trkpt lat="44.16841" lon="3.1194">
        <ele>378.251687</ele>
        <time>2021-04-30T21:11:23.410Z</time>
      </trkpt>
      <trkpt lat="44.16833" lon="3.11919">
        <ele>378.311284</ele>
        <time>2021-04-30T21:11:27.427Z</time>
      </trkpt>
      <trkpt lat="44.16826" lon="3.11893">
        <ele>378.384438</ele>
        <time>2021-04-30T21:11:31.810Z</time>
      </trkpt>
      <trkpt lat="44.16824" lon="3.11878">
        <ele>378.421183</ele>
        <time>2021-04-30T21:11:34.039Z</time>
      </trkpt>
      <trkpt lat="44.16823" lon="3.1187">
        <ele>378.441395</ele>
        <time>2021-04-30T21:11:35.544Z</time>
      </trkpt>
      <trkpt lat="44.16822" lon="3.11864">
        <ele>378.459005</ele>
        <time>2021-04-30T21:11:36.612Z</time>
      </trkpt>
      <trkpt lat="44.16819" lon="3.11819">
        <ele>378.525167</ele>
        <time>2021-04-30T21:11:43.807Z</time>
      </trkpt>
      <trkpt lat="44.16816" lon="3.1178">
        <ele>378.441417</ele>
        <time>2021-04-30T21:11:50.044Z</time>
      </trkpt>
      <trkpt lat="44.16814" lon="3.11773">
        <ele>378.426655</ele>
        <time>2021-04-30T21:11:51.465Z</time>
      </trkpt>
      <trkpt lat="44.16812" lon="3.11765">
        <ele>378.408234</ele>
        <time>2021-04-30T21:11:52.895Z</time>
      </trkpt>
      <trkpt lat="44.16788" lon="3.11681">
        <ele>378.215749</ele>
        <time>2021-04-30T21:12:07.736Z</time>
      </trkpt>
      <trkpt lat="44.16779" lon="3.1165">
        <ele>378.144423</ele>
        <time>2021-04-30T21:12:12.712Z</time>
      </trkpt>
      <trkpt lat="44.16774" lon="3.1162">
        <ele>378.078827</ele>
        <time>2021-04-30T21:12:17.038Z</time>
      </trkpt>
      <trkpt lat="44.16772" lon="3.11602">
        <ele>378.039229</ele>
        <time>2021-04-30T21:12:19.598Z</time>
      </trkpt>
      <trkpt lat="44.16772" lon="3.11594">
        <ele>378.023812</ele>
        <time>2021-04-30T21:12:20.457Z</time>
      </trkpt>
      <trkpt lat="44.16771" lon="3.11587">
        <ele>377.991274</ele>
        <time>2021-04-30T21:12:21.470Z</time>
      </trkpt>
      <trkpt lat="44.16769" lon="3.11574">
        <ele>377.875208</ele>
        <time>2021-04-30T21:12:23.413Z</time>
      </trkpt>
      <trkpt lat="44.16767" lon="3.11558">
        <ele>377.731113</ele>
        <time>2021-04-30T21:12:25.634Z</time>
      </trkpt>
      <trkpt lat="44.16747" lon="3.11503">
        <ele>377.186453</ele>
        <time>2021-04-30T21:12:33.717Z</time>
      </trkpt>
      <trkpt lat="44.16738" lon="3.11488">
        <ele>377.01943</ele>
        <time>2021-04-30T21:12:36.299Z</time>
      </trkpt>
      <trkpt lat="44.16731" lon="3.11481">
        <ele>376.913605</ele>
        <time>2021-04-30T21:12:37.992Z</time>
      </trkpt>
      <trkpt lat="44.16724" lon="3.11474">
        <ele>376.81095</ele>
        <time>2021-04-30T21:12:39.647Z</time>
      </trkpt>
      <trkpt lat="44.16717" lon="3.11468">
        <ele>376.70508</ele>
        <time>2021-04-30T21:12:41.093Z</time>
      </trkpt>
      <trkpt lat="44.16598" lon="3.11382">
        <ele>375.521326</ele>
        <time>2021-04-30T21:13:06.494Z</time>
      </trkpt>
      <trkpt lat="44.16534" lon="3.11321">
        <ele>375.15223</ele>
        <time>2021-04-30T21:13:23.126Z</time>
      </trkpt>
      <trkpt lat="44.16501" lon="3.11313">
        <ele>374.997438</ele>
        <time>2021-04-30T21:13:30.777Z</time>
      </trkpt>
      <trkpt lat="44.16421" lon="3.11326">
        <ele>374.846675</ele>
        <time>2021-04-30T21:13:49.204Z</time>
      </trkpt>
      <trkpt lat="44.16403" lon="3.11328">
        <ele>374.819745</ele>
        <time>2021-04-30T21:13:53.638Z</time>
      </trkpt>
      <trkpt lat="44.16388" lon="3.11333">
        <ele>374.795821</ele>
        <time>2021-04-30T21:13:56.737Z</time>
      </trkpt>
      <trkpt lat="44.16232" lon="3.1138">
        <ele>374.066801</ele>
        <time>2021-04-30T21:14:29.360Z</time>
      </trkpt>
      <trkpt lat="44.16209" lon="3.11381">
        <ele>373.894039</ele>
        <time>2021-04-30T21:14:33.956Z</time>
      </trkpt>
      <trkpt lat="44.16176" lon="3.11372">
        <ele>373.656597</ele>
        <time>2021-04-30T21:14:40.320Z</time>
      </trkpt>
      <trkpt lat="44.16148" lon="3.1135">
        <ele>373.423152</ele>
        <time>2021-04-30T21:14:46.678Z</time>
      </trkpt>
      <trkpt lat="44.16127" lon="3.11322">
        <ele>373.197207</ele>
        <time>2021-04-30T21:14:52.316Z</time>
      </trkpt>
      <trkpt lat="44.16054" lon="3.11179">
        <ele>372.177051</ele>
        <time>2021-04-30T21:15:17.160Z</time>
      </trkpt>
      <trkpt lat="44.16" lon="3.11068">
        <ele>371.714861</ele>
        <time>2021-04-30T21:15:36.424Z</time>
      </trkpt>
      <trkpt lat="44.15997" lon="3.1106">
        <ele>371.692544</ele>
        <time>2021-04-30T21:15:37.744Z</time>
      </trkpt>
      <trkpt lat="44.15972" lon="3.10997">
        <ele>371.5243</ele>
        <time>2021-04-30T21:15:48.916Z</time>
      </trkpt>
      <trkpt lat="44.15954" lon="3.10926">
        <ele>371.345907</ele>
        <time>2021-04-30T21:16:00.941Z</time>
      </trkpt>
      <trkpt lat="44.15952" lon="3.10911">
        <ele>371.314384</ele>
        <time>2021-04-30T21:16:03.421Z</time>
      </trkpt>
      <trkpt lat="44.15951" lon="3.10898">
        <ele>371.288088</ele>
        <time>2021-04-30T21:16:05.773Z</time>
      </trkpt>
      <trkpt lat="44.15948" lon="3.10879">
        <ele>371.249386</ele>
        <time>2021-04-30T21:16:08.742Z</time>
      </trkpt>
      <trkpt lat="44.15942" lon="3.10849">
        <ele>371.188642</ele>
        <time>2021-04-30T21:16:13.827Z</time>
      </trkpt>
      <trkpt lat="44.15941" lon="3.10841">
        <ele>371.172943</ele>
        <time>2021-04-30T21:16:15.063Z</time>
      </trkpt>
      <trkpt lat="44.1594" lon="3.10835">
        <ele>371.159226</ele>
        <time>2021-04-30T21:16:16.126Z</time>
      </trkpt>
      <trkpt lat="44.15934" lon="3.10805">
        <ele>371.09832</ele>
        <time>2021-04-30T21:16:21.186Z</time>
      </trkpt>
      <trkpt lat="44.15914" lon="3.10711">
        <ele>370.905692</ele>
        <time>2021-04-30T21:16:35.957Z</time>
      </trkpt>
      <trkpt lat="44.15911" lon="3.10697">
        <ele>370.875867</ele>
        <time>2021-04-30T21:16:38.049Z</time>
      </trkpt>
      <trkpt lat="44.1591" lon="3.1069">
        <ele>370.861696</ele>
        <time>2021-04-30T21:16:38.990Z</time>
      </trkpt>
      <trkpt lat="44.15908" lon="3.10681">
        <ele>370.843801</ele>
        <time>2021-04-30T21:16:40.310Z</time>
      </trkpt>
      <trkpt lat="44.15906" lon="3.10672">
        <ele>370.771602</ele>
        <time>2021-04-30T21:16:41.694Z</time>
      </trkpt>
      <trkpt lat="44.15896" lon="3.10603">
        <ele>370.196505</ele>
        <time>2021-04-30T21:16:51.501Z</time>
      </trkpt>
      <trkpt lat="44.15894" lon="3.10595">
        <ele>370.130156</ele>
        <time>2021-04-30T21:16:52.501Z</time>
      </trkpt>
      <trkpt lat="44.15884" lon="3.10546">
        <ele>369.7219</ele>
        <time>2021-04-30T21:16:59.167Z</time>
      </trkpt>
      <trkpt lat="44.15875" lon="3.10518">
        <ele>369.469321</ele>
        <time>2021-04-30T21:17:03.474Z</time>
      </trkpt>
      <trkpt lat="44.15867" lon="3.10499">
        <ele>369.295181</ele>
        <time>2021-04-30T21:17:06.251Z</time>
      </trkpt>
      <trkpt lat="44.15855" lon="3.10465">
        <ele>368.990872</ele>
        <time>2021-04-30T21:17:11.449Z</time>
      </trkpt>
      <trkpt lat="44.15853" lon="3.10458">
        <ele>368.930106</ele>
        <time>2021-04-30T21:17:12.448Z</time>
      </trkpt>
      <trkpt lat="44.1585" lon="3.1045">
        <ele>368.857658</ele>
        <time>2021-04-30T21:17:13.713Z</time>
      </trkpt>
      <trkpt lat="44.15843" lon="3.1043">
        <ele>368.817945</ele>
        <time>2021-04-30T21:17:17.024Z</time>
      </trkpt>
      <trkpt lat="44.15836" lon="3.10405">
        <ele>368.820054</ele>
        <time>2021-04-30T21:17:20.672Z</time>
      </trkpt>
      <trkpt lat="44.15833" lon="3.10394">
        <ele>368.821029</ele>
        <time>2021-04-30T21:17:22.501Z</time>
      </trkpt>
      <trkpt lat="44.1583" lon="3.10375">
        <ele>368.822573</ele>
        <time>2021-04-30T21:17:25.286Z</time>
      </trkpt>
      <trkpt lat="44.15826" lon="3.10348">
        <ele>368.824796</ele>
        <time>2021-04-30T21:17:29.532Z</time>
      </trkpt>
      <trkpt lat="44.15788" lon="3.10075">
        <ele>369.903494</ele>
        <time>2021-04-30T21:18:18.669Z</time>
      </trkpt>
      <trkpt lat="44.15785" lon="3.10055">
        <ele>370.07008</ele>
        <time>2021-04-30T21:18:23.112Z</time>
      </trkpt>
      <trkpt lat="44.15783" lon="3.1004">
        <ele>370.200445</ele>
        <time>2021-04-30T21:18:26.448Z</time>
      </trkpt>
      <trkpt lat="44.15782" lon="3.10035">
        <ele>370.242642</ele>
        <time>2021-04-30T21:18:27.494Z</time>
      </trkpt>
      <trkpt lat="44.15779" lon="3.10023">
        <ele>370.340366</ele>
        <time>2021-04-30T21:18:30.452Z</time>
      </trkpt>
      <trkpt lat="44.15767" lon="3.09987">
        <ele>370.667754</ele>
        <time>2021-04-30T21:18:38.581Z</time>
      </trkpt>
      <trkpt lat="44.15757" lon="3.09964">
        <ele>370.889396</ele>
        <time>2021-04-30T21:18:44.517Z</time>
      </trkpt>
      <trkpt lat="44.15755" lon="3.09961">
        <ele>370.925616</ele>
        <time>2021-04-30T21:18:45.370Z</time>
      </trkpt>
      <trkpt lat="44.15749" lon="3.09952">
        <ele>371.01948</ele>
        <time>2021-04-30T21:18:47.316Z</time>
      </trkpt>
      <trkpt lat="44.15729" lon="3.09922">
        <ele>371.348855</ele>
        <time>2021-04-30T21:18:55.569Z</time>
      </trkpt>
      <trkpt lat="44.1572" lon="3.09908">
        <ele>371.506294</ele>
        <time>2021-04-30T21:18:58.978Z</time>
      </trkpt>
      <trkpt lat="44.15718" lon="3.09905">
        <ele>371.532814</ele>
        <time>2021-04-30T21:18:59.854Z</time>
      </trkpt>
      <trkpt lat="44.15714" lon="3.09898">
        <ele>371.615998</ele>
        <time>2021-04-30T21:19:01.870Z</time>
      </trkpt>
      <trkpt lat="44.15703" lon="3.09878">
        <ele>371.814079</ele>
        <time>2021-04-30T21:19:06.104Z</time>
      </trkpt>
      <trkpt lat="44.15695" lon="3.09867">
        <ele>371.938097</ele>
        <time>2021-04-30T21:19:09.074Z</time>
      </trkpt>
      <trkpt lat="44.15691" lon="3.09863">
        <ele>371.99927</ele>
        <time>2021-04-30T21:19:10.593Z</time>
      </trkpt>
      <trkpt lat="44.15686" lon="3.0986">
        <ele>372.058623</ele>
        <time>2021-04-30T21:19:12.119Z</time>
      </trkpt>
      <trkpt lat="44.1568" lon="3.09858">
        <ele>372.132997</ele>
        <time>2021-04-30T21:19:13.957Z</time>
      </trkpt>
      <trkpt lat="44.15671" lon="3.09857">
        <ele>372.224822</ele>
        <time>2021-04-30T21:19:15.748Z</time>
      </trkpt>
      <trkpt lat="44.15647" lon="3.09855">
        <ele>372.502854</ele>
        <time>2021-04-30T21:19:22.778Z</time>
      </trkpt>
      <trkpt lat="44.1564" lon="3.09854">
        <ele>372.580857</ele>
        <time>2021-04-30T21:19:24.797Z</time>
      </trkpt>
      <trkpt lat="44.15637" lon="3.09854">
        <ele>372.613588</ele>
        <time>2021-04-30T21:19:25.373Z</time>
      </trkpt>
      <trkpt lat="44.1561" lon="3.09853">
        <ele>372.916126</ele>
        <time>2021-04-30T21:19:32.745Z</time>
      </trkpt>
      <trkpt lat="44.15603" lon="3.09852">
        <ele>372.915152</ele>
        <time>2021-04-30T21:19:34.634Z</time>
      </trkpt>
      <trkpt lat="44.15576" lon="3.09851">
        <ele>372.903622</ele>
        <time>2021-04-30T21:19:41.030Z</time>
      </trkpt>
      <trkpt lat="44.15565" lon="3.09849">
        <ele>372.898545</ele>
        <time>2021-04-30T21:19:43.867Z</time>
      </trkpt>
      <trkpt lat="44.15552" lon="3.09843">
        <ele>372.892615</ele>
        <time>2021-04-30T21:19:46.562Z</time>
      </trkpt>
      <trkpt lat="44.15538" lon="3.09836">
        <ele>372.886192</ele>
        <time>2021-04-30T21:19:50.180Z</time>
      </trkpt>
      <trkpt lat="44.15512" lon="3.09815">
        <ele>372.873394</ele>
        <time>2021-04-30T21:19:55.879Z</time>
      </trkpt>
      <trkpt lat="44.1551" lon="3.09811">
        <ele>372.871879</ele>
        <time>2021-04-30T21:19:56.989Z</time>
      </trkpt>
      <trkpt lat="44.15511" lon="3.0981">
        <ele>372.871357</ele>
        <time>2021-04-30T21:19:57.334Z</time>
      </trkpt>
      <trkpt lat="44.15513" lon="3.09808">
        <ele>372.870348</ele>
        <time>2021-04-30T21:19:57.811Z</time>
      </trkpt>
      <trkpt lat="44.15513" lon="3.09805">
        <ele>372.869322</ele>
        <time>2021-04-30T21:19:58.351Z</time>
      </trkpt>
      <trkpt lat="44.15512" lon="3.09803">
        <ele>372.868781</ele>
        <time>2021-04-30T21:19:58.604Z</time>
      </trkpt>
      <trkpt lat="44.15512" lon="3.09802">
        <ele>372.868199</ele>
        <time>2021-04-30T21:19:58.839Z</time>
      </trkpt>
      <trkpt lat="44.1551" lon="3.09801">
        <ele>372.867664</ele>
        <time>2021-04-30T21:19:59.047Z</time>
      </trkpt>
      <trkpt lat="44.15506" lon="3.09803">
        <ele>372.865634</ele>
        <time>2021-04-30T21:19:59.927Z</time>
      </trkpt>
      <trkpt lat="44.15505" lon="3.09804">
        <ele>372.865102</ele>
        <time>2021-04-30T21:20:00.145Z</time>
      </trkpt>
      <trkpt lat="44.15498" lon="3.09801">
        <ele>372.861555</ele>
        <time>2021-04-30T21:20:01.712Z</time>
      </trkpt>
      <trkpt lat="44.15491" lon="3.09799">
        <ele>372.858839</ele>
        <time>2021-04-30T21:20:02.990Z</time>
      </trkpt>
      <trkpt lat="44.15486" lon="3.09798">
        <ele>372.85644</ele>
        <time>2021-04-30T21:20:04.539Z</time>
      </trkpt>
      <trkpt lat="44.15474" lon="3.09797">
        <ele>372.851335</ele>
        <time>2021-04-30T21:20:07.068Z</time>
      </trkpt>
      <trkpt lat="44.15424" lon="3.09794">
        <ele>372.851106</ele>
        <time>2021-04-30T21:20:17.354Z</time>
      </trkpt>
      <trkpt lat="44.15382" lon="3.09792">
        <ele>372.869336</ele>
        <time>2021-04-30T21:20:26.764Z</time>
      </trkpt>
      <trkpt lat="44.15373" lon="3.09791">
        <ele>372.872986</ele>
        <time>2021-04-30T21:20:29.202Z</time>
      </trkpt>
      <trkpt lat="44.15353" lon="3.0979">
        <ele>372.881696</ele>
        <time>2021-04-30T21:20:33.576Z</time>
      </trkpt>
      <trkpt lat="44.15348" lon="3.0979">
        <ele>372.883884</ele>
        <time>2021-04-30T21:20:34.601Z</time>
      </trkpt>
      <trkpt lat="44.15328" lon="3.09789">
        <ele>372.892638</ele>
        <time>2021-04-30T21:20:39.053Z</time>
      </trkpt>
      <trkpt lat="44.15307" lon="3.09786">
        <ele>372.901586</ele>
        <time>2021-04-30T21:20:43.944Z</time>
      </trkpt>
      <trkpt lat="44.15293" lon="3.09784">
        <ele>372.907571</ele>
        <time>2021-04-30T21:20:47.368Z</time>
      </trkpt>
      <trkpt lat="44.15285" lon="3.09784">
        <ele>372.910837</ele>
        <time>2021-04-30T21:20:48.731Z</time>
      </trkpt>
      <trkpt lat="44.1528" lon="3.09784">
        <ele>372.913238</ele>
        <time>2021-04-30T21:20:50.101Z</time>
      </trkpt>
      <trkpt lat="44.15234" lon="3.09784">
        <ele>373.223641</ele>
        <time>2021-04-30T21:21:01.255Z</time>
      </trkpt>
      <trkpt lat="44.1523" lon="3.09784">
        <ele>373.260377</ele>
        <time>2021-04-30T21:21:02.427Z</time>
      </trkpt>
      <trkpt lat="44.15213" lon="3.09783">
        <ele>373.410017</ele>
        <time>2021-04-30T21:21:06.264Z</time>
      </trkpt>
      <trkpt lat="44.15174" lon="3.09785">
        <ele>373.748739</ele>
        <time>2021-04-30T21:21:16.354Z</time>
      </trkpt>
      <trkpt lat="44.15168" lon="3.09787">
        <ele>373.808636</ele>
        <time>2021-04-30T21:21:18.313Z</time>
      </trkpt>
      <trkpt lat="44.15167" lon="3.09783">
        <ele>373.833484</ele>
        <time>2021-04-30T21:21:19.381Z</time>
      </trkpt>
      <trkpt lat="44.1516" lon="3.09775">
        <ele>373.911679</ele>
        <time>2021-04-30T21:21:21.792Z</time>
      </trkpt>
      <trkpt lat="44.15158" lon="3.09775">
        <ele>373.937037</ele>
        <time>2021-04-30T21:21:22.933Z</time>
      </trkpt>
      <trkpt lat="44.15154" lon="3.09777">
        <ele>373.969298</ele>
        <time>2021-04-30T21:21:23.770Z</time>
      </trkpt>
      <trkpt lat="44.15151" lon="3.09782">
        <ele>374.007133</ele>
        <time>2021-04-30T21:21:24.696Z</time>
      </trkpt>
      <trkpt lat="44.15151" lon="3.09788">
        <ele>374.042331</ele>
        <time>2021-04-30T21:21:25.449Z</time>
      </trkpt>
      <trkpt lat="44.15138" lon="3.09788">
        <ele>374.150743</ele>
        <time>2021-04-30T21:21:29.280Z</time>
      </trkpt>
      <trkpt lat="44.1513" lon="3.09788">
        <ele>374.224183</ele>
        <time>2021-04-30T21:21:31.563Z</time>
      </trkpt>
      <trkpt lat="44.15122" lon="3.09789">
        <ele>374.289852</ele>
        <time>2021-04-30T21:21:33.775Z</time>
      </trkpt>
      <trkpt lat="44.15102" lon="3.09792">
        <ele>374.469526</ele>
        <time>2021-04-30T21:21:39.062Z</time>
      </trkpt>
      <trkpt lat="44.1508" lon="3.09796">
        <ele>374.629053</ele>
        <time>2021-04-30T21:21:44.824Z</time>
      </trkpt>
      <trkpt lat="44.15048" lon="3.09801">
        <ele>374.850394</ele>
        <time>2021-04-30T21:21:53.254Z</time>
      </trkpt>
      <trkpt lat="44.14974" lon="3.09812">
        <ele>375.366825</ele>
        <time>2021-04-30T21:22:11.161Z</time>
      </trkpt>
      <trkpt lat="44.14917" lon="3.09808">
        <ele>375.75095</ele>
        <time>2021-04-30T21:22:25.418Z</time>
      </trkpt>
      <trkpt lat="44.14871" lon="3.09802">
        <ele>375.915674</ele>
        <time>2021-04-30T21:22:36.675Z</time>
      </trkpt>
      <trkpt lat="44.14822" lon="3.09796">
        <ele>376.090409</ele>
        <time>2021-04-30T21:22:48.508Z</time>
      </trkpt>
      <trkpt lat="44.14779" lon="3.09789">
        <ele>376.243938</ele>
        <time>2021-04-30T21:22:58.786Z</time>
      </trkpt>
      <trkpt lat="44.1472" lon="3.09785">
        <ele>376.316393</ele>
        <time>2021-04-30T21:23:11.916Z</time>
      </trkpt>
      <trkpt lat="44.14643" lon="3.09852">
        <ele>376.049948</ele>
        <time>2021-04-30T21:23:31.009Z</time>
      </trkpt>
      <trkpt lat="44.14566" lon="3.09873">
        <ele>376.024583</ele>
        <time>2021-04-30T21:23:46.830Z</time>
      </trkpt>
      <trkpt lat="44.14501" lon="3.09915">
        <ele>377.184191</ele>
        <time>2021-04-30T21:24:03.881Z</time>
      </trkpt>
      <trkpt lat="44.14473" lon="3.09914">
        <ele>377.631599</ele>
        <time>2021-04-30T21:24:11.596Z</time>
      </trkpt>
      <trkpt lat="44.14374" lon="3.09858">
        <ele>380.119285</ele>
        <time>2021-04-30T21:24:49.220Z</time>
      </trkpt>
      <trkpt lat="44.14294" lon="3.09845">
        <ele>383.069062</ele>
        <time>2021-04-30T21:25:24.504Z</time>
      </trkpt>
      <trkpt lat="44.14271" lon="3.09847">
        <ele>383.892072</ele>
        <time>2021-04-30T21:25:31.870Z</time>
      </trkpt>
      <trkpt lat="44.14251" lon="3.09857">
        <ele>384.691752</ele>
        <time>2021-04-30T21:25:39.232Z</time>
      </trkpt>
      <trkpt lat="44.14175" lon="3.09917">
        <ele>384.75712</ele>
        <time>2021-04-30T21:26:03.770Z</time>
      </trkpt>
      <trkpt lat="44.14167" lon="3.09926">
        <ele>384.676431</ele>
        <time>2021-04-30T21:26:07.460Z</time>
      </trkpt>
      <trkpt lat="44.1416" lon="3.09934">
        <ele>384.601258</ele>
        <time>2021-04-30T21:26:08.829Z</time>
      </trkpt>
      <trkpt lat="44.14115" lon="3.10001">
        <ele>384.071091</ele>
        <time>2021-04-30T21:26:20.664Z</time>
      </trkpt>
      <trkpt lat="44.14089" lon="3.10029">
        <ele>383.58556</ele>
        <time>2021-04-30T21:26:26.028Z</time>
      </trkpt>
      <trkpt lat="44.14018" lon="3.10052">
        <ele>380.992289</ele>
        <time>2021-04-30T21:26:36.930Z</time>
      </trkpt>
      <trkpt lat="44.13991" lon="3.10054">
        <ele>380.00445</ele>
        <time>2021-04-30T21:26:41.273Z</time>
      </trkpt>
      <trkpt lat="44.13923" lon="3.10024">
        <ele>377.478346</ele>
        <time>2021-04-30T21:26:52.869Z</time>
      </trkpt>
      <trkpt lat="44.13761" lon="3.09993">
        <ele>375.446315</ele>
        <time>2021-04-30T21:27:24.157Z</time>
      </trkpt>
      <trkpt lat="44.13749" lon="3.09991">
        <ele>375.298822</ele>
        <time>2021-04-30T21:27:26.574Z</time>
      </trkpt>
      <trkpt lat="44.13742" lon="3.09985">
        <ele>375.205505</ele>
        <time>2021-04-30T21:27:28.379Z</time>
      </trkpt>
      <trkpt lat="44.13714" lon="3.09979">
        <ele>374.930819</ele>
        <time>2021-04-30T21:27:34.071Z</time>
      </trkpt>
      <trkpt lat="44.13691" lon="3.09975">
        <ele>374.707489</ele>
        <time>2021-04-30T21:27:38.739Z</time>
      </trkpt>
      <trkpt lat="44.13633" lon="3.09966">
        <ele>374.143787</ele>
        <time>2021-04-30T21:27:50.168Z</time>
      </trkpt>
      <trkpt lat="44.13606" lon="3.09962">
        <ele>373.881137</ele>
        <time>2021-04-30T21:27:55.386Z</time>
      </trkpt>
      <trkpt lat="44.13581" lon="3.0996">
        <ele>373.640693</ele>
        <time>2021-04-30T21:28:00.198Z</time>
      </trkpt>
      <trkpt lat="44.13519" lon="3.09957">
        <ele>372.849191</ele>
        <time>2021-04-30T21:28:11.563Z</time>
      </trkpt>
      <trkpt lat="44.13485" lon="3.09955">
        <ele>372.381018</ele>
        <time>2021-04-30T21:28:17.799Z</time>
      </trkpt>
      <trkpt lat="44.13441" lon="3.09948">
        <ele>371.759679</ele>
        <time>2021-04-30T21:28:26.050Z</time>
      </trkpt>
      <trkpt lat="44.13376" lon="3.09927">
        <ele>370.929545</ele>
        <time>2021-04-30T21:28:38.248Z</time>
      </trkpt>
      <trkpt lat="44.13318" lon="3.09901">
        <ele>370.53002</ele>
        <time>2021-04-30T21:28:49.957Z</time>
      </trkpt>
      <trkpt lat="44.13295" lon="3.0989">
        <ele>370.373098</ele>
        <time>2021-04-30T21:28:54.774Z</time>
      </trkpt>
      <trkpt lat="44.13274" lon="3.09881">
        <ele>370.223512</ele>
        <time>2021-04-30T21:28:59.449Z</time>
      </trkpt>
      <trkpt lat="44.13249" lon="3.09873">
        <ele>370.056801</ele>
        <time>2021-04-30T21:29:04.895Z</time>
      </trkpt>
      <trkpt lat="44.13209" lon="3.0986">
        <ele>369.875095</ele>
        <time>2021-04-30T21:29:13.702Z</time>
      </trkpt>
      <trkpt lat="44.13158" lon="3.09843">
        <ele>370.231996</ele>
        <time>2021-04-30T21:29:25.839Z</time>
      </trkpt>
      <trkpt lat="44.13103" lon="3.09826">
        <ele>370.607749</ele>
        <time>2021-04-30T21:29:40.087Z</time>
      </trkpt>
      <trkpt lat="44.13051" lon="3.09811">
        <ele>370.961179</ele>
        <time>2021-04-30T21:29:54.501Z</time>
      </trkpt>
      <trkpt lat="44.12994" lon="3.09803">
        <ele>371.360198</ele>
        <time>2021-04-30T21:30:10.028Z</time>
      </trkpt>
      <trkpt lat="44.1297" lon="3.09802">
        <ele>371.523207</ele>
        <time>2021-04-30T21:30:16.188Z</time>
      </trkpt>
      <trkpt lat="44.12942" lon="3.09804">
        <ele>371.716718</ele>
        <time>2021-04-30T21:30:23.419Z</time>
      </trkpt>
      <trkpt lat="44.12765" lon="3.09841">
        <ele>371.948163</ele>
        <time>2021-04-30T21:31:05.053Z</time>
      </trkpt>
      <trkpt lat="44.12722" lon="3.09841">
        <ele>371.799718</ele>
        <time>2021-04-30T21:31:13.585Z</time>
      </trkpt>
      <trkpt lat="44.12669" lon="3.0983">
        <ele>371.503491</ele>
        <time>2021-04-30T21:31:23.667Z</time>
      </trkpt>
      <trkpt lat="44.12625" lon="3.09807">
        <ele>370.965193</ele>
        <time>2021-04-30T21:31:32.308Z</time>
      </trkpt>
      <trkpt lat="44.12568" lon="3.09757">
        <ele>370.175951</ele>
        <time>2021-04-30T21:31:44.734Z</time>
      </trkpt>
      <trkpt lat="44.12458" lon="3.09592">
        <ele>368.996459</ele>
        <time>2021-04-30T21:32:17.163Z</time>
      </trkpt>
      <trkpt lat="44.12401" lon="3.09502">
        <ele>368.522044</ele>
        <time>2021-04-30T21:32:35.707Z</time>
      </trkpt>
      <trkpt lat="44.12364" lon="3.09442">
        <ele>368.175628</ele>
        <time>2021-04-30T21:32:47.604Z</time>
      </trkpt>
      <trkpt lat="44.1229" lon="3.09306">
        <ele>367.408247</ele>
        <time>2021-04-30T21:33:11.769Z</time>
      </trkpt>
      <trkpt lat="44.12188" lon="3.09069">
        <ele>366.054848</ele>
        <time>2021-04-30T21:33:51.085Z</time>
      </trkpt>
      <trkpt lat="44.12152" lon="3.08997">
        <ele>365.910551</ele>
        <time>2021-04-30T21:34:04.631Z</time>
      </trkpt>
      <trkpt lat="44.12137" lon="3.08969">
        <ele>365.854268</ele>
        <time>2021-04-30T21:34:10.025Z</time>
      </trkpt>
      <trkpt lat="44.12105" lon="3.08917">
        <ele>365.742598</ele>
        <time>2021-04-30T21:34:21.130Z</time>
      </trkpt>
      <trkpt lat="44.12094" lon="3.08899">
        <ele>365.745486</ele>
        <time>2021-04-30T21:34:25.139Z</time>
      </trkpt>
      <trkpt lat="44.12081" lon="3.08878">
        <ele>365.792148</ele>
        <time>2021-04-30T21:34:29.783Z</time>
      </trkpt>
      <trkpt lat="44.12062" lon="3.08848">
        <ele>365.859696</ele>
        <time>2021-04-30T21:34:36.212Z</time>
      </trkpt>
      <trkpt lat="44.12052" lon="3.08833">
        <ele>365.894022</ele>
        <time>2021-04-30T21:34:39.539Z</time>
      </trkpt>
      <trkpt lat="44.1204" lon="3.08815">
        <ele>365.935826</ele>
        <time>2021-04-30T21:34:43.560Z</time>
      </trkpt>
      <trkpt lat="44.12003" lon="3.0876">
        <ele>366.063257</ele>
        <time>2021-04-30T21:34:56.286Z</time>
      </trkpt>
      <trkpt lat="44.11985" lon="3.08734">
        <ele>366.125183</ele>
        <time>2021-04-30T21:35:02.678Z</time>
      </trkpt>
      <trkpt lat="44.11969" lon="3.08718">
        <ele>366.12203</ele>
        <time>2021-04-30T21:35:07.057Z</time>
      </trkpt>
      <trkpt lat="44.11952" lon="3.08695">
        <ele>366.056651</ele>
        <time>2021-04-30T21:35:12.664Z</time>
      </trkpt>
      <trkpt lat="44.11928" lon="3.08664">
        <ele>365.964776</ele>
        <time>2021-04-30T21:35:20.074Z</time>
      </trkpt>
      <trkpt lat="44.11903" lon="3.08635">
        <ele>365.875465</ele>
        <time>2021-04-30T21:35:27.141Z</time>
      </trkpt>
      <trkpt lat="44.1187" lon="3.08596">
        <ele>365.75246</ele>
        <time>2021-04-30T21:35:35.900Z</time>
      </trkpt>
      <trkpt lat="44.11858" lon="3.08582">
        <ele>365.708726</ele>
        <time>2021-04-30T21:35:38.952Z</time>
      </trkpt>
      <trkpt lat="44.11847" lon="3.08572">
        <ele>365.671413</ele>
        <time>2021-04-30T21:35:42.033Z</time>
      </trkpt>
      <trkpt lat="44.11838" lon="3.08565">
        <ele>365.640066</ele>
        <time>2021-04-30T21:35:43.683Z</time>
      </trkpt>
      <trkpt lat="44.11707" lon="3.08527">
        <ele>364.481248</ele>
        <time>2021-04-30T21:36:10.337Z</time>
      </trkpt>
      <trkpt lat="44.11697" lon="3.08521">
        <ele>364.385036</ele>
        <time>2021-04-30T21:36:12.180Z</time>
      </trkpt>
      <trkpt lat="44.1168" lon="3.08507">
        <ele>364.214737</ele>
        <time>2021-04-30T21:36:16.014Z</time>
      </trkpt>
      <trkpt lat="44.11654" lon="3.08487">
        <ele>364.036823</ele>
        <time>2021-04-30T21:36:21.819Z</time>
      </trkpt>
      <trkpt lat="44.11647" lon="3.08478">
        <ele>364.004924</ele>
        <time>2021-04-30T21:36:23.721Z</time>
      </trkpt>
      <trkpt lat="44.11638" lon="3.08465">
        <ele>363.960925</ele>
        <time>2021-04-30T21:36:26.286Z</time>
      </trkpt>
      <trkpt lat="44.11633" lon="3.08453">
        <ele>363.929805</ele>
        <time>2021-04-30T21:36:28.199Z</time>
      </trkpt>
      <trkpt lat="44.11634" lon="3.08449">
        <ele>363.920521</ele>
        <time>2021-04-30T21:36:28.860Z</time>
      </trkpt>
      <trkpt lat="44.11633" lon="3.08446">
        <ele>363.912559</ele>
        <time>2021-04-30T21:36:29.283Z</time>
      </trkpt>
      <trkpt lat="44.11632" lon="3.08441">
        <ele>363.899565</ele>
        <time>2021-04-30T21:36:30.141Z</time>
      </trkpt>
      <trkpt lat="44.1163" lon="3.08435">
        <ele>363.885035</ele>
        <time>2021-04-30T21:36:31.041Z</time>
      </trkpt>
      <trkpt lat="44.11625" lon="3.0843">
        <ele>363.865602</ele>
        <time>2021-04-30T21:36:32.224Z</time>
      </trkpt>
      <trkpt lat="44.11621" lon="3.08428">
        <ele>363.851776</ele>
        <time>2021-04-30T21:36:33.076Z</time>
      </trkpt>
      <trkpt lat="44.11616" lon="3.08426">
        <ele>363.833329</ele>
        <time>2021-04-30T21:36:34.104Z</time>
      </trkpt>
      <trkpt lat="44.11608" lon="3.08429">
        <ele>363.805294</ele>
        <time>2021-04-30T21:36:36.061Z</time>
      </trkpt>
      <trkpt lat="44.11605" lon="3.08432">
        <ele>363.793601</ele>
        <time>2021-04-30T21:36:36.735Z</time>
      </trkpt>
      <trkpt lat="44.11598" lon="3.08431">
        <ele>363.769954</ele>
        <time>2021-04-30T21:36:38.256Z</time>
      </trkpt>
      <trkpt lat="44.11584" lon="3.08426">
        <ele>363.722324</ele>
        <time>2021-04-30T21:36:41.263Z</time>
      </trkpt>
      <trkpt lat="44.11566" lon="3.08414">
        <ele>363.656294</ele>
        <time>2021-04-30T21:36:45.706Z</time>
      </trkpt>
      <trkpt lat="44.11552" lon="3.08404">
        <ele>363.605111</ele>
        <time>2021-04-30T21:36:49.444Z</time>
      </trkpt>
      <trkpt lat="44.11493" lon="3.08355">
        <ele>363.70938</ele>
        <time>2021-04-30T21:37:05.312Z</time>
      </trkpt>
      <trkpt lat="44.11469" lon="3.08335">
        <ele>363.893675</ele>
        <time>2021-04-30T21:37:11.691Z</time>
      </trkpt>
      <trkpt lat="44.11461" lon="3.08329">
        <ele>363.954392</ele>
        <time>2021-04-30T21:37:14.052Z</time>
      </trkpt>
      <trkpt lat="44.11452" lon="3.08322">
        <ele>364.017814</ele>
        <time>2021-04-30T21:37:16.430Z</time>
      </trkpt>
      <trkpt lat="44.11444" lon="3.08316">
        <ele>364.077738</ele>
        <time>2021-04-30T21:37:18.747Z</time>
      </trkpt>
      <trkpt lat="44.1143" lon="3.08304">
        <ele>364.183658</ele>
        <time>2021-04-30T21:37:22.930Z</time>
      </trkpt>
      <trkpt lat="44.11428" lon="3.08303">
        <ele>364.197565</ele>
        <time>2021-04-30T21:37:23.520Z</time>
      </trkpt>
      <trkpt lat="44.1142" lon="3.08298">
        <ele>364.255667</ele>
        <time>2021-04-30T21:37:25.827Z</time>
      </trkpt>
      <trkpt lat="44.11415" lon="3.08294">
        <ele>364.290683</ele>
        <time>2021-04-30T21:37:27.300Z</time>
      </trkpt>
      <trkpt lat="44.11387" lon="3.08277">
        <ele>364.487716</ele>
        <time>2021-04-30T21:37:35.283Z</time>
      </trkpt>
      <trkpt lat="44.11367" lon="3.0827">
        <ele>364.620514</ele>
        <time>2021-04-30T21:37:40.775Z</time>
      </trkpt>
      <trkpt lat="44.11366" lon="3.08252">
        <ele>364.703203</ele>
        <time>2021-04-30T21:37:45.288Z</time>
      </trkpt>
      <trkpt lat="44.11358" lon="3.08253">
        <ele>364.747386</ele>
        <time>2021-04-30T21:37:47.850Z</time>
      </trkpt>
      <trkpt lat="44.11351" lon="3.0825">
        <ele>364.791942</ele>
        <time>2021-04-30T21:37:50.392Z</time>
      </trkpt>
      <trkpt lat="44.11351" lon="3.0825">
        <ele>364.791942</ele>
        <time>2021-04-30T21:37:50.403Z</time>
      </trkpt>
      <trkpt lat="44.11345" lon="3.08246">
        <ele>364.830158</ele>
        <time>2021-04-30T21:37:52.544Z</time>
      </trkpt>
      <trkpt lat="44.11335" lon="3.08261">
        <ele>364.918464</ele>
        <time>2021-04-30T21:37:57.517Z</time>
      </trkpt>
      <trkpt lat="44.11318" lon="3.08256">
        <ele>365.020183</ele>
        <time>2021-04-30T21:38:02.103Z</time>
      </trkpt>
      <trkpt lat="44.11284" lon="3.08247">
        <ele>365.22379</ele>
        <time>2021-04-30T21:38:10.869Z</time>
      </trkpt>
      <trkpt lat="44.11266" lon="3.08241">
        <ele>365.332827</ele>
        <time>2021-04-30T21:38:15.275Z</time>
      </trkpt>
      <trkpt lat="44.11265" lon="3.08241">
        <ele>365.3394</ele>
        <time>2021-04-30T21:38:15.589Z</time>
      </trkpt>
      <trkpt lat="44.11248" lon="3.08236">
        <ele>365.440629</ele>
        <time>2021-04-30T21:38:19.774Z</time>
      </trkpt>
      <trkpt lat="44.11181" lon="3.08217">
        <ele>365.646803</ele>
        <time>2021-04-30T21:38:35.357Z</time>
      </trkpt>
      <trkpt lat="44.11175" lon="3.08215">
        <ele>365.630377</ele>
        <time>2021-04-30T21:38:36.691Z</time>
      </trkpt>
      <trkpt lat="44.11155" lon="3.0821">
        <ele>365.577015</ele>
        <time>2021-04-30T21:38:40.870Z</time>
      </trkpt>
      <trkpt lat="44.1112" lon="3.082">
        <ele>365.479725</ele>
        <time>2021-04-30T21:38:48.407Z</time>
      </trkpt>
      <trkpt lat="44.11106" lon="3.08196">
        <ele>365.440228</ele>
        <time>2021-04-30T21:38:51.441Z</time>
      </trkpt>
      <trkpt lat="44.11102" lon="3.08195">
        <ele>365.428041</ele>
        <time>2021-04-30T21:38:52.357Z</time>
      </trkpt>
      <trkpt lat="44.11093" lon="3.08193">
        <ele>365.403432</ele>
        <time>2021-04-30T21:38:54.180Z</time>
      </trkpt>
      <trkpt lat="44.11037" lon="3.08177">
        <ele>365.248922</ele>
        <time>2021-04-30T21:39:05.801Z</time>
      </trkpt>
      <trkpt lat="44.11014" lon="3.08174">
        <ele>365.199865</ele>
        <time>2021-04-30T21:39:10.615Z</time>
      </trkpt>
      <trkpt lat="44.11" lon="3.08167">
        <ele>365.177195</ele>
        <time>2021-04-30T21:39:13.770Z</time>
      </trkpt>
      <trkpt lat="44.10997" lon="3.08166">
        <ele>365.172361</ele>
        <time>2021-04-30T21:39:14.430Z</time>
      </trkpt>
      <trkpt lat="44.10922" lon="3.08143">
        <ele>365.055431</ele>
        <time>2021-04-30T21:39:31.017Z</time>
      </trkpt>
      <trkpt lat="44.10912" lon="3.08139">
        <ele>365.038951</ele>
        <time>2021-04-30T21:39:33.343Z</time>
      </trkpt>
      <trkpt lat="44.10863" lon="3.08127">
        <ele>364.963129</ele>
        <time>2021-04-30T21:39:44.346Z</time>
      </trkpt>
      <trkpt lat="44.10854" lon="3.08124">
        <ele>364.949311</ele>
        <time>2021-04-30T21:39:46.456Z</time>
      </trkpt>
      <trkpt lat="44.10848" lon="3.08123">
        <ele>364.956414</ele>
        <time>2021-04-30T21:39:47.838Z</time>
      </trkpt>
      <trkpt lat="44.10822" lon="3.08116">
        <ele>365.067578</ele>
        <time>2021-04-30T21:39:53.713Z</time>
      </trkpt>
      <trkpt lat="44.1081" lon="3.08113">
        <ele>365.122684</ele>
        <time>2021-04-30T21:39:56.614Z</time>
      </trkpt>
      <trkpt lat="44.10791" lon="3.08108">
        <ele>365.201277</ele>
        <time>2021-04-30T21:40:00.713Z</time>
      </trkpt>
      <trkpt lat="44.10772" lon="3.08103">
        <ele>365.286802</ele>
        <time>2021-04-30T21:40:05.289Z</time>
      </trkpt>
      <trkpt lat="44.10745" lon="3.08092">
        <ele>365.405801</ele>
        <time>2021-04-30T21:40:12.036Z</time>
      </trkpt>
      <trkpt lat="44.1074" lon="3.08091">
        <ele>365.425998</ele>
        <time>2021-04-30T21:40:13.247Z</time>
      </trkpt>
      <trkpt lat="44.10736" lon="3.08088">
        <ele>365.445753</ele>
        <time>2021-04-30T21:40:14.312Z</time>
      </trkpt>
      <trkpt lat="44.10731" lon="3.08087">
        <ele>365.465661</ele>
        <time>2021-04-30T21:40:15.379Z</time>
      </trkpt>
      <trkpt lat="44.10727" lon="3.08088">
        <ele>365.485475</ele>
        <time>2021-04-30T21:40:16.460Z</time>
      </trkpt>
      <trkpt lat="44.10707" lon="3.08079">
        <ele>365.574128</ele>
        <time>2021-04-30T21:40:22.030Z</time>
      </trkpt>
      <trkpt lat="44.10695" lon="3.08076">
        <ele>365.62672</ele>
        <time>2021-04-30T21:40:24.917Z</time>
      </trkpt>
      <trkpt lat="44.10653" lon="3.08066">
        <ele>366.081822</ele>
        <time>2021-04-30T21:40:35.712Z</time>
      </trkpt>
      <trkpt lat="44.1064" lon="3.08062">
        <ele>366.311163</ele>
        <time>2021-04-30T21:40:39.443Z</time>
      </trkpt>
      <trkpt lat="44.10609" lon="3.08054">
        <ele>366.838654</ele>
        <time>2021-04-30T21:40:47.851Z</time>
      </trkpt>
      <trkpt lat="44.10601" lon="3.08052">
        <ele>366.965752</ele>
        <time>2021-04-30T21:40:50.505Z</time>
      </trkpt>
      <trkpt lat="44.10571" lon="3.08043">
        <ele>367.467166</ele>
        <time>2021-04-30T21:40:58.650Z</time>
      </trkpt>
      <trkpt lat="44.10567" lon="3.08042">
        <ele>367.541515</ele>
        <time>2021-04-30T21:41:00.384Z</time>
      </trkpt>
      <trkpt lat="44.10465" lon="3.08013">
        <ele>369.593455</ele>
        <time>2021-04-30T21:41:32.701Z</time>
      </trkpt>
      <trkpt lat="44.10432" lon="3.08003">
        <ele>370.488962</ele>
        <time>2021-04-30T21:41:44.210Z</time>
      </trkpt>
      <trkpt lat="44.10396" lon="3.07993">
        <ele>371.436732</ele>
        <time>2021-04-30T21:41:56.454Z</time>
      </trkpt>
      <trkpt lat="44.10392" lon="3.07992">
        <ele>371.55374</ele>
        <time>2021-04-30T21:41:58.053Z</time>
      </trkpt>
      <trkpt lat="44.10369" lon="3.07986">
        <ele>372.147561</ele>
        <time>2021-04-30T21:42:05.353Z</time>
      </trkpt>
      <trkpt lat="44.10361" lon="3.07983">
        <ele>372.376098</ele>
        <time>2021-04-30T21:42:08.226Z</time>
      </trkpt>
      <trkpt lat="44.10354" lon="3.07981">
        <ele>372.544321</ele>
        <time>2021-04-30T21:42:10.467Z</time>
      </trkpt>
      <trkpt lat="44.10298" lon="3.07964">
        <ele>373.927609</ele>
        <time>2021-04-30T21:42:29.596Z</time>
      </trkpt>
      <trkpt lat="44.10186" lon="3.07933">
        <ele>376.326727</ele>
        <time>2021-04-30T21:43:05.778Z</time>
      </trkpt>
      <trkpt lat="44.10145" lon="3.07922">
        <ele>377.177354</ele>
        <time>2021-04-30T21:43:17.085Z</time>
      </trkpt>
      <trkpt lat="44.101" lon="3.07909">
        <ele>377.430908</ele>
        <time>2021-04-30T21:43:29.074Z</time>
      </trkpt>
      <trkpt lat="44.10077" lon="3.07902">
        <ele>377.554715</ele>
        <time>2021-04-30T21:43:34.656Z</time>
      </trkpt>
      <trkpt lat="44.10046" lon="3.07893">
        <ele>377.730023</ele>
        <time>2021-04-30T21:43:42.560Z</time>
      </trkpt>
      <trkpt lat="44.10027" lon="3.07888">
        <ele>377.832038</ele>
        <time>2021-04-30T21:43:47.261Z</time>
      </trkpt>
      <trkpt lat="44.10027" lon="3.07888">
        <ele>377.832428</ele>
        <time>2021-04-30T21:43:47.266Z</time>
      </trkpt>
      <trkpt lat="44.09982" lon="3.07876">
        <ele>378.085068</ele>
        <time>2021-04-30T21:43:57.875Z</time>
      </trkpt>
      <trkpt lat="44.09984" lon="3.07869">
        <ele>378.113367</ele>
        <time>2021-04-30T21:43:59.093Z</time>
      </trkpt>
      <trkpt lat="44.09984" lon="3.07862">
        <ele>378.142659</ele>
        <time>2021-04-30T21:44:00.263Z</time>
      </trkpt>
      <trkpt lat="44.09982" lon="3.07853">
        <ele>378.097284</ele>
        <time>2021-04-30T21:44:01.688Z</time>
      </trkpt>
      <trkpt lat="44.09979" lon="3.07846">
        <ele>378.036685</ele>
        <time>2021-04-30T21:44:03.028Z</time>
      </trkpt>
      <trkpt lat="44.0997" lon="3.07837">
        <ele>377.928033</ele>
        <time>2021-04-30T21:44:05.194Z</time>
      </trkpt>
      <trkpt lat="44.09967" lon="3.07837">
        <ele>377.895074</ele>
        <time>2021-04-30T21:44:05.911Z</time>
      </trkpt>
      <trkpt lat="44.0995" lon="3.07829">
        <ele>377.723656</ele>
        <time>2021-04-30T21:44:09.508Z</time>
      </trkpt>
      <trkpt lat="44.0994" lon="3.07822">
        <ele>377.610422</ele>
        <time>2021-04-30T21:44:11.780Z</time>
      </trkpt>
      <trkpt lat="44.09897" lon="3.07719">
        <ele>376.748497</ele>
        <time>2021-04-30T21:44:28.604Z</time>
      </trkpt>
      <trkpt lat="44.09882" lon="3.07705">
        <ele>376.572715</ele>
        <time>2021-04-30T21:44:31.807Z</time>
      </trkpt>
      <trkpt lat="44.09865" lon="3.07697">
        <ele>376.389743</ele>
        <time>2021-04-30T21:44:35.134Z</time>
      </trkpt>
      <trkpt lat="44.09833" lon="3.07683">
        <ele>375.325161</ele>
        <time>2021-04-30T21:44:40.925Z</time>
      </trkpt>
      <trkpt lat="44.09823" lon="3.07683">
        <ele>374.986864</ele>
        <time>2021-04-30T21:44:42.517Z</time>
      </trkpt>
      <trkpt lat="44.0982" lon="3.07682">
        <ele>374.876296</ele>
        <time>2021-04-30T21:44:43.061Z</time>
      </trkpt>
      <trkpt lat="44.09788" lon="3.07681">
        <ele>373.768761</ele>
        <time>2021-04-30T21:44:48.346Z</time>
      </trkpt>
      <trkpt lat="44.09753" lon="3.07676">
        <ele>372.56132</ele>
        <time>2021-04-30T21:44:53.941Z</time>
      </trkpt>
      <trkpt lat="44.09739" lon="3.07675">
        <ele>372.076843</ele>
        <time>2021-04-30T21:44:56.164Z</time>
      </trkpt>
      <trkpt lat="44.09605" lon="3.0766">
        <ele>366.991039</ele>
        <time>2021-04-30T21:45:16.691Z</time>
      </trkpt>
      <trkpt lat="44.09556" lon="3.07655">
        <ele>365.040306</ele>
        <time>2021-04-30T21:45:24.259Z</time>
      </trkpt>
      <trkpt lat="44.09552" lon="3.07656">
        <ele>364.890255</ele>
        <time>2021-04-30T21:45:24.761Z</time>
      </trkpt>
      <trkpt lat="44.09552" lon="3.07654">
        <ele>364.846779</ele>
        <time>2021-04-30T21:45:24.940Z</time>
      </trkpt>
      <trkpt lat="44.09549" lon="3.0765">
        <ele>364.674966</ele>
        <time>2021-04-30T21:45:25.655Z</time>
      </trkpt>
      <trkpt lat="44.09548" lon="3.0765">
        <ele>364.630669</ele>
        <time>2021-04-30T21:45:25.830Z</time>
      </trkpt>
      <trkpt lat="44.09545" lon="3.07646">
        <ele>364.467385</ele>
        <time>2021-04-30T21:45:26.508Z</time>
      </trkpt>
      <trkpt lat="44.09543" lon="3.07642">
        <ele>364.317104</ele>
        <time>2021-04-30T21:45:27.084Z</time>
      </trkpt>
      <trkpt lat="44.09523" lon="3.07596">
        <ele>362.895989</ele>
        <time>2021-04-30T21:45:33.430Z</time>
      </trkpt>
      <trkpt lat="44.09503" lon="3.07553">
        <ele>362.62825</ele>
        <time>2021-04-30T21:45:39.955Z</time>
      </trkpt>
      <trkpt lat="44.09488" lon="3.07519">
        <ele>362.419941</ele>
        <time>2021-04-30T21:45:45.245Z</time>
      </trkpt>
      <trkpt lat="44.09484" lon="3.07512">
        <ele>362.373658</ele>
        <time>2021-04-30T21:45:46.495Z</time>
      </trkpt>
      <trkpt lat="44.09479" lon="3.07501">
        <ele>362.308688</ele>
        <time>2021-04-30T21:45:48.403Z</time>
      </trkpt>
      <trkpt lat="44.09473" lon="3.07487">
        <ele>362.219939</ele>
        <time>2021-04-30T21:45:50.582Z</time>
      </trkpt>
      <trkpt lat="44.09449" lon="3.07435">
        <ele>361.89979</ele>
        <time>2021-04-30T21:46:01.055Z</time>
      </trkpt>
      <trkpt lat="44.09449" lon="3.07435">
        <ele>361.89979</ele>
        <time>2021-04-30T21:46:01.136Z</time>
      </trkpt>
      <trkpt lat="44.09443" lon="3.07422">
        <ele>361.81951</ele>
        <time>2021-04-30T21:46:03.830Z</time>
      </trkpt>
      <trkpt lat="44.09442" lon="3.0742">
        <ele>361.806781</ele>
        <time>2021-04-30T21:46:04.301Z</time>
      </trkpt>
      <trkpt lat="44.09441" lon="3.07406">
        <ele>361.733651</ele>
        <time>2021-04-30T21:46:07.025Z</time>
      </trkpt>
      <trkpt lat="44.09442" lon="3.07404">
        <ele>361.720771</ele>
        <time>2021-04-30T21:46:07.696Z</time>
      </trkpt>
      <trkpt lat="44.09443" lon="3.07389">
        <ele>361.640768</ele>
        <time>2021-04-30T21:46:10.245Z</time>
      </trkpt>
      <trkpt lat="44.09441" lon="3.07385">
        <ele>361.617503</ele>
        <time>2021-04-30T21:46:11.599Z</time>
      </trkpt>
      <trkpt lat="44.09437" lon="3.07381">
        <ele>361.644843</ele>
        <time>2021-04-30T21:46:12.592Z</time>
      </trkpt>
      <trkpt lat="44.09433" lon="3.07379">
        <ele>361.672283</ele>
        <time>2021-04-30T21:46:13.634Z</time>
      </trkpt>
      <trkpt lat="44.09431" lon="3.07379">
        <ele>361.68873</ele>
        <time>2021-04-30T21:46:14.270Z</time>
      </trkpt>
      <trkpt lat="44.0943" lon="3.07365">
        <ele>361.751361</ele>
        <time>2021-04-30T21:46:17.099Z</time>
      </trkpt>
      <trkpt lat="44.0943" lon="3.07357">
        <ele>361.787552</ele>
        <time>2021-04-30T21:46:18.418Z</time>
      </trkpt>
      <trkpt lat="44.09428" lon="3.07348">
        <ele>361.831246</ele>
        <time>2021-04-30T21:46:20.329Z</time>
      </trkpt>
      <trkpt lat="44.09426" lon="3.0734">
        <ele>361.866043</ele>
        <time>2021-04-30T21:46:21.531Z</time>
      </trkpt>
      <trkpt lat="44.09423" lon="3.07334">
        <ele>361.897198</ele>
        <time>2021-04-30T21:46:22.764Z</time>
      </trkpt>
      <trkpt lat="44.09421" lon="3.07316">
        <ele>361.981921</ele>
        <time>2021-04-30T21:46:26.656Z</time>
      </trkpt>
      <trkpt lat="44.09405" lon="3.07251">
        <ele>362.294024</ele>
        <time>2021-04-30T21:46:39.566Z</time>
      </trkpt>
      <trkpt lat="44.09392" lon="3.07208">
        <ele>362.50783</ele>
        <time>2021-04-30T21:46:47.895Z</time>
      </trkpt>
      <trkpt lat="44.09388" lon="3.07195">
        <ele>362.570189</ele>
        <time>2021-04-30T21:46:49.943Z</time>
      </trkpt>
      <trkpt lat="44.0938" lon="3.07168">
        <ele>362.703011</ele>
        <time>2021-04-30T21:46:55.028Z</time>
      </trkpt>
      <trkpt lat="44.09378" lon="3.07159">
        <ele>362.746363</ele>
        <time>2021-04-30T21:46:56.541Z</time>
      </trkpt>
      <trkpt lat="44.09377" lon="3.07156">
        <ele>362.746657</ele>
        <time>2021-04-30T21:46:56.936Z</time>
      </trkpt>
      <trkpt lat="44.09359" lon="3.07068">
        <ele>362.476656</ele>
        <time>2021-04-30T21:47:11.145Z</time>
      </trkpt>
      <trkpt lat="44.09358" lon="3.07051">
        <ele>362.428103</ele>
        <time>2021-04-30T21:47:13.440Z</time>
      </trkpt>
      <trkpt lat="44.09356" lon="3.07032">
        <ele>362.369837</ele>
        <time>2021-04-30T21:47:16.391Z</time>
      </trkpt>
      <trkpt lat="44.09355" lon="3.07017">
        <ele>362.327675</ele>
        <time>2021-04-30T21:47:18.533Z</time>
      </trkpt>
      <trkpt lat="44.0935" lon="3.06957">
        <ele>362.148554</ele>
        <time>2021-04-30T21:47:27.144Z</time>
      </trkpt>
      <trkpt lat="44.09347" lon="3.06923">
        <ele>362.047218</ele>
        <time>2021-04-30T21:47:32.402Z</time>
      </trkpt>
      <trkpt lat="44.09347" lon="3.06919">
        <ele>362.036836</ele>
        <time>2021-04-30T21:47:32.936Z</time>
      </trkpt>
      <trkpt lat="44.09342" lon="3.06858">
        <ele>361.801301</ele>
        <time>2021-04-30T21:47:41.952Z</time>
      </trkpt>
      <trkpt lat="44.09334" lon="3.06762">
        <ele>361.414448</ele>
        <time>2021-04-30T21:47:56.053Z</time>
      </trkpt>
      <trkpt lat="44.09331" lon="3.06727">
        <ele>361.275148</ele>
        <time>2021-04-30T21:48:01.028Z</time>
      </trkpt>
      <trkpt lat="44.09328" lon="3.06704">
        <ele>361.182297</ele>
        <time>2021-04-30T21:48:04.375Z</time>
      </trkpt>
      <trkpt lat="44.09326" lon="3.06686">
        <ele>361.110231</ele>
        <time>2021-04-30T21:48:07.063Z</time>
      </trkpt>
      <trkpt lat="44.09324" lon="3.06675">
        <ele>361.064342</ele>
        <time>2021-04-30T21:48:08.706Z</time>
      </trkpt>
      <trkpt lat="44.0932" lon="3.06662">
        <ele>361.016542</ele>
        <time>2021-04-30T21:48:10.781Z</time>
      </trkpt>
      <trkpt lat="44.09318" lon="3.06648">
        <ele>361.003445</ele>
        <time>2021-04-30T21:48:12.914Z</time>
      </trkpt>
      <trkpt lat="44.093" lon="3.06585">
        <ele>360.940224</ele>
        <time>2021-04-30T21:48:24.038Z</time>
      </trkpt>
      <trkpt lat="44.09269" lon="3.06478">
        <ele>360.833665</ele>
        <time>2021-04-30T21:48:42.031Z</time>
      </trkpt>
      <trkpt lat="44.09261" lon="3.06449">
        <ele>360.80538</ele>
        <time>2021-04-30T21:48:46.683Z</time>
      </trkpt>
      <trkpt lat="44.09257" lon="3.06439">
        <ele>360.794235</ele>
        <time>2021-04-30T21:48:48.742Z</time>
      </trkpt>
      <trkpt lat="44.09255" lon="3.06432">
        <ele>360.787242</ele>
        <time>2021-04-30T21:48:50.112Z</time>
      </trkpt>
      <trkpt lat="44.09255" lon="3.06416">
        <ele>360.76598</ele>
        <time>2021-04-30T21:48:52.538Z</time>
      </trkpt>
      <trkpt lat="44.09259" lon="3.06415">
        <ele>360.759427</ele>
        <time>2021-04-30T21:48:53.511Z</time>
      </trkpt>
      <trkpt lat="44.09265" lon="3.06404">
        <ele>360.740916</ele>
        <time>2021-04-30T21:48:55.612Z</time>
      </trkpt>
      <trkpt lat="44.09264" lon="3.06398">
        <ele>360.732658</ele>
        <time>2021-04-30T21:48:56.840Z</time>
      </trkpt>
      <trkpt lat="44.09262" lon="3.06392">
        <ele>360.723667</ele>
        <time>2021-04-30T21:48:57.992Z</time>
      </trkpt>
      <trkpt lat="44.09257" lon="3.06389">
        <ele>360.71422</ele>
        <time>2021-04-30T21:48:59.236Z</time>
      </trkpt>
      <trkpt lat="44.09254" lon="3.06388">
        <ele>360.707815</ele>
        <time>2021-04-30T21:48:59.957Z</time>
      </trkpt>
      <trkpt lat="44.09251" lon="3.06389">
        <ele>360.702603</ele>
        <time>2021-04-30T21:49:00.498Z</time>
      </trkpt>
      <trkpt lat="44.09242" lon="3.0638">
        <ele>360.681563</ele>
        <time>2021-04-30T21:49:03.129Z</time>
      </trkpt>
      <trkpt lat="44.09224" lon="3.06343">
        <ele>360.620875</ele>
        <time>2021-04-30T21:49:10.598Z</time>
      </trkpt>
      <trkpt lat="44.09222" lon="3.06339">
        <ele>360.615066</ele>
        <time>2021-04-30T21:49:11.234Z</time>
      </trkpt>
      <trkpt lat="44.09215" lon="3.06326">
        <ele>360.59381</ele>
        <time>2021-04-30T21:49:13.827Z</time>
      </trkpt>
      <trkpt lat="44.09159" lon="3.06246">
        <ele>360.419735</ele>
        <time>2021-04-30T21:49:30.645Z</time>
      </trkpt>
      <trkpt lat="44.09102" lon="3.06193">
        <ele>359.945224</ele>
        <time>2021-04-30T21:49:43.657Z</time>
      </trkpt>
      <trkpt lat="44.09058" lon="3.06167">
        <ele>359.614871</ele>
        <time>2021-04-30T21:49:52.576Z</time>
      </trkpt>
      <trkpt lat="44.08976" lon="3.06155">
        <ele>359.46362</ele>
        <time>2021-04-30T21:50:10.144Z</time>
      </trkpt>
      <trkpt lat="44.08933" lon="3.06136">
        <ele>359.997722</ele>
        <time>2021-04-30T21:50:21.686Z</time>
      </trkpt>
      <trkpt lat="44.08921" lon="3.06127">
        <ele>360.162288</ele>
        <time>2021-04-30T21:50:24.275Z</time>
      </trkpt>
      <trkpt lat="44.08913" lon="3.06114">
        <ele>360.300493</ele>
        <time>2021-04-30T21:50:28.312Z</time>
      </trkpt>
      <trkpt lat="44.08892" lon="3.06075">
        <ele>360.717704</ele>
        <time>2021-04-30T21:50:38.498Z</time>
      </trkpt>
      <trkpt lat="44.08888" lon="3.06066">
        <ele>360.811134</ele>
        <time>2021-04-30T21:50:41.411Z</time>
      </trkpt>
      <trkpt lat="44.08883" lon="3.06049">
        <ele>360.967067</ele>
        <time>2021-04-30T21:50:44.894Z</time>
      </trkpt>
      <trkpt lat="44.08878" lon="3.06028">
        <ele>361.15009</ele>
        <time>2021-04-30T21:50:50.139Z</time>
      </trkpt>
      <trkpt lat="44.08872" lon="3.06019">
        <ele>361.258262</ele>
        <time>2021-04-30T21:50:53.506Z</time>
      </trkpt>
      <trkpt lat="44.08866" lon="3.06015">
        <ele>361.339776</ele>
        <time>2021-04-30T21:50:55.009Z</time>
      </trkpt>
      <trkpt lat="44.0886" lon="3.06011">
        <ele>361.446458</ele>
        <time>2021-04-30T21:50:56.767Z</time>
      </trkpt>
      <trkpt lat="44.08856" lon="3.06003">
        <ele>361.547094</ele>
        <time>2021-04-30T21:50:58.941Z</time>
      </trkpt>
      <trkpt lat="44.08853" lon="3.05995">
        <ele>361.654157</ele>
        <time>2021-04-30T21:51:01.418Z</time>
      </trkpt>
      <trkpt lat="44.08848" lon="3.05981">
        <ele>361.831888</ele>
        <time>2021-04-30T21:51:05.375Z</time>
      </trkpt>
      <trkpt lat="44.08843" lon="3.05982">
        <ele>361.908339</ele>
        <time>2021-04-30T21:51:06.682Z</time>
      </trkpt>
      <trkpt lat="44.0884" lon="3.05966">
        <ele>362.088672</ele>
        <time>2021-04-30T21:51:10.126Z</time>
      </trkpt>
      <trkpt lat="44.08836" lon="3.05947">
        <ele>362.323121</ele>
        <time>2021-04-30T21:51:15.615Z</time>
      </trkpt>
      <trkpt lat="44.08832" lon="3.05926">
        <ele>362.563815</ele>
        <time>2021-04-30T21:51:20.672Z</time>
      </trkpt>
      <trkpt lat="44.08829" lon="3.059">
        <ele>362.855881</ele>
        <time>2021-04-30T21:51:26.381Z</time>
      </trkpt>
      <trkpt lat="44.08826" lon="3.05881">
        <ele>363.071726</ele>
        <time>2021-04-30T21:51:30.854Z</time>
      </trkpt>
      <trkpt lat="44.08822" lon="3.05853">
        <ele>363.401216</ele>
        <time>2021-04-30T21:51:36.566Z</time>
      </trkpt>
      <trkpt lat="44.08818" lon="3.05833">
        <ele>363.631309</ele>
        <time>2021-04-30T21:51:40.593Z</time>
      </trkpt>
      <trkpt lat="44.08814" lon="3.05816">
        <ele>363.832128</ele>
        <time>2021-04-30T21:51:43.816Z</time>
      </trkpt>
      <trkpt lat="44.08805" lon="3.05793">
        <ele>364.129323</ele>
        <time>2021-04-30T21:51:48.726Z</time>
      </trkpt>
      <trkpt lat="44.08787" lon="3.05758">
        <ele>363.953602</ele>
        <time>2021-04-30T21:51:55.463Z</time>
      </trkpt>
      <trkpt lat="44.08791" lon="3.05754">
        <ele>363.924781</ele>
        <time>2021-04-30T21:51:57.236Z</time>
      </trkpt>
      <trkpt lat="44.08787" lon="3.05747">
        <ele>363.887588</ele>
        <time>2021-04-30T21:51:58.598Z</time>
      </trkpt>
      <trkpt lat="44.08772" lon="3.05716">
        <ele>363.728221</ele>
        <time>2021-04-30T21:52:03.788Z</time>
      </trkpt>
      <trkpt lat="44.08757" lon="3.05686">
        <ele>363.574717</ele>
        <time>2021-04-30T21:52:08.816Z</time>
      </trkpt>
      <trkpt lat="44.08754" lon="3.05675">
        <ele>363.524875</ele>
        <time>2021-04-30T21:52:10.398Z</time>
      </trkpt>
      <trkpt lat="44.08751" lon="3.05659">
        <ele>363.455384</ele>
        <time>2021-04-30T21:52:12.786Z</time>
      </trkpt>
      <trkpt lat="44.08748" lon="3.05633">
        <ele>363.346761</ele>
        <time>2021-04-30T21:52:16.221Z</time>
      </trkpt>
      <trkpt lat="44.08747" lon="3.05619">
        <ele>363.287641</ele>
        <time>2021-04-30T21:52:18.277Z</time>
      </trkpt>
      <trkpt lat="44.08747" lon="3.05619">
        <ele>363.287641</ele>
        <time>2021-04-30T21:52:18.281Z</time>
      </trkpt>
      <trkpt lat="44.08747" lon="3.05619">
        <ele>363.287641</ele>
        <time>2021-04-30T21:52:18.311Z</time>
      </trkpt>
      <trkpt lat="44.08743" lon="3.0562">
        <ele>363.263163</ele>
        <time>2021-04-30T21:52:19.389Z</time>
      </trkpt>
      <trkpt lat="44.08742" lon="3.05602">
        <ele>363.185039</ele>
        <time>2021-04-30T21:52:22.028Z</time>
      </trkpt>
      <trkpt lat="44.08744" lon="3.05589">
        <ele>363.130936</ele>
        <time>2021-04-30T21:52:23.876Z</time>
      </trkpt>
      <trkpt lat="44.08746" lon="3.05573">
        <ele>363.070542</ele>
        <time>2021-04-30T21:52:26.495Z</time>
      </trkpt>
      <trkpt lat="44.08748" lon="3.05559">
        <ele>363.050305</ele>
        <time>2021-04-30T21:52:28.713Z</time>
      </trkpt>
      <trkpt lat="44.08753" lon="3.05541">
        <ele>363.02392</ele>
        <time>2021-04-30T21:52:31.579Z</time>
      </trkpt>
      <trkpt lat="44.08759" lon="3.05523">
        <ele>362.997776</ele>
        <time>2021-04-30T21:52:34.636Z</time>
      </trkpt>
      <trkpt lat="44.08767" lon="3.05506">
        <ele>362.970143</ele>
        <time>2021-04-30T21:52:37.869Z</time>
      </trkpt>
      <trkpt lat="44.08776" lon="3.05489">
        <ele>362.942098</ele>
        <time>2021-04-30T21:52:41.191Z</time>
      </trkpt>
      <trkpt lat="44.08781" lon="3.05494">
        <ele>362.930339</ele>
        <time>2021-04-30T21:52:43.129Z</time>
      </trkpt>
      <trkpt lat="44.08784" lon="3.05488">
        <ele>362.920763</ele>
        <time>2021-04-30T21:52:44.318Z</time>
      </trkpt>
      <trkpt lat="44.08791" lon="3.05475">
        <ele>362.89808</ele>
        <time>2021-04-30T21:52:47.052Z</time>
      </trkpt>
      <trkpt lat="44.08792" lon="3.05474">
        <ele>362.896417</ele>
        <time>2021-04-30T21:52:47.245Z</time>
      </trkpt>
      <trkpt lat="44.0881" lon="3.05448">
        <ele>362.847356</ele>
        <time>2021-04-30T21:52:53.101Z</time>
      </trkpt>
      <trkpt lat="44.08827" lon="3.05428">
        <ele>362.805366</ele>
        <time>2021-04-30T21:52:57.968Z</time>
      </trkpt>
      <trkpt lat="44.08836" lon="3.05417">
        <ele>362.78239</ele>
        <time>2021-04-30T21:53:00.915Z</time>
      </trkpt>
      <trkpt lat="44.08845" lon="3.05408">
        <ele>362.762038</ele>
        <time>2021-04-30T21:53:03.435Z</time>
      </trkpt>
      <trkpt lat="44.08842" lon="3.05401">
        <ele>362.751</ele>
        <time>2021-04-30T21:53:05.107Z</time>
      </trkpt>
      <trkpt lat="44.08894" lon="3.05355">
        <ele>362.087271</ele>
        <time>2021-04-30T21:53:19.698Z</time>
      </trkpt>
      <trkpt lat="44.08905" lon="3.05346">
        <ele>361.939969</ele>
        <time>2021-04-30T21:53:22.160Z</time>
      </trkpt>
      <trkpt lat="44.08916" lon="3.05336">
        <ele>361.781584</ele>
        <time>2021-04-30T21:53:24.872Z</time>
      </trkpt>
      <trkpt lat="44.08976" lon="3.05283">
        <ele>360.921537</ele>
        <time>2021-04-30T21:53:38.468Z</time>
      </trkpt>
      <trkpt lat="44.08983" lon="3.0527">
        <ele>360.783844</ele>
        <time>2021-04-30T21:53:40.463Z</time>
      </trkpt>
      <trkpt lat="44.0898" lon="3.05261">
        <ele>360.70447</ele>
        <time>2021-04-30T21:53:41.664Z</time>
      </trkpt>
      <trkpt lat="44.08944" lon="3.05216">
        <ele>359.58269</ele>
        <time>2021-04-30T21:53:50.395Z</time>
      </trkpt>
      <trkpt lat="44.08926" lon="3.05195">
        <ele>358.979379</ele>
        <time>2021-04-30T21:53:54.401Z</time>
      </trkpt>
      <trkpt lat="44.08908" lon="3.05172">
        <ele>358.32878</ele>
        <time>2021-04-30T21:53:58.791Z</time>
      </trkpt>
      <trkpt lat="44.0891" lon="3.05168">
        <ele>358.226427</ele>
        <time>2021-04-30T21:53:59.674Z</time>
      </trkpt>
      <trkpt lat="44.08894" lon="3.05148">
        <ele>357.65688</ele>
        <time>2021-04-30T21:54:03.469Z</time>
      </trkpt>
      <trkpt lat="44.08888" lon="3.0514">
        <ele>357.44872</ele>
        <time>2021-04-30T21:54:04.767Z</time>
      </trkpt>
      <trkpt lat="44.08884" lon="3.05137">
        <ele>357.332772</ele>
        <time>2021-04-30T21:54:05.415Z</time>
      </trkpt>
      <trkpt lat="44.08875" lon="3.05126">
        <ele>357.018218</ele>
        <time>2021-04-30T21:54:07.482Z</time>
      </trkpt>
      <trkpt lat="44.0886" lon="3.05116">
        <ele>356.583633</ele>
        <time>2021-04-30T21:54:10.324Z</time>
      </trkpt>
      <trkpt lat="44.08853" lon="3.05115">
        <ele>356.417987</ele>
        <time>2021-04-30T21:54:11.252Z</time>
      </trkpt>
      <trkpt lat="44.08846" lon="3.05115">
        <ele>356.221833</ele>
        <time>2021-04-30T21:54:12.464Z</time>
      </trkpt>
      <trkpt lat="44.08841" lon="3.05117">
        <ele>356.088216</ele>
        <time>2021-04-30T21:54:13.339Z</time>
      </trkpt>
      <trkpt lat="44.08836" lon="3.0512">
        <ele>355.935769</ele>
        <time>2021-04-30T21:54:14.372Z</time>
      </trkpt>
      <trkpt lat="44.0883" lon="3.05126">
        <ele>355.863412</ele>
        <time>2021-04-30T21:54:15.528Z</time>
      </trkpt>
      <trkpt lat="44.08832" lon="3.0513">
        <ele>355.85654</ele>
        <time>2021-04-30T21:54:16.445Z</time>
      </trkpt>
      <trkpt lat="44.08824" lon="3.05139">
        <ele>355.838678</ele>
        <time>2021-04-30T21:54:18.137Z</time>
      </trkpt>
      <trkpt lat="44.08811" lon="3.05156">
        <ele>355.808892</ele>
        <time>2021-04-30T21:54:21.469Z</time>
      </trkpt>
      <trkpt lat="44.08802" lon="3.05168">
        <ele>355.788391</ele>
        <time>2021-04-30T21:54:24.543Z</time>
      </trkpt>
      <trkpt lat="44.08786" lon="3.05185">
        <ele>355.753984</ele>
        <time>2021-04-30T21:54:28.559Z</time>
      </trkpt>
      <trkpt lat="44.08781" lon="3.05187">
        <ele>355.744371</ele>
        <time>2021-04-30T21:54:29.778Z</time>
      </trkpt>
      <trkpt lat="44.0878" lon="3.05175">
        <ele>355.73031</ele>
        <time>2021-04-30T21:54:32.807Z</time>
      </trkpt>
      <trkpt lat="44.08773" lon="3.05177">
        <ele>355.718768</ele>
        <time>2021-04-30T21:54:33.923Z</time>
      </trkpt>
      <trkpt lat="44.08765" lon="3.05173">
        <ele>355.703878</ele>
        <time>2021-04-30T21:54:35.995Z</time>
      </trkpt>
      <trkpt lat="44.08752" lon="3.05167">
        <ele>355.681599</ele>
        <time>2021-04-30T21:54:39.305Z</time>
      </trkpt>
      <trkpt lat="44.08731" lon="3.05143">
        <ele>355.635409</ele>
        <time>2021-04-30T21:54:46.429Z</time>
      </trkpt>
      <trkpt lat="44.08719" lon="3.05131">
        <ele>355.611521</ele>
        <time>2021-04-30T21:54:51.076Z</time>
      </trkpt>
      <trkpt lat="44.08699" lon="3.05108">
        <ele>355.590659</ele>
        <time>2021-04-30T21:54:57.416Z</time>
      </trkpt>
      <trkpt lat="44.08696" lon="3.05104">
        <ele>355.725974</ele>
        <time>2021-04-30T21:54:58.310Z</time>
      </trkpt>
      <trkpt lat="44.08696" lon="3.05104">
        <ele>355.725974</ele>
        <time>2021-04-30T21:54:58.692Z</time>
      </trkpt>
      <trkpt lat="44.08648" lon="3.05052">
        <ele>357.763391</ele>
        <time>2021-04-30T21:55:15.697Z</time>
      </trkpt>
      <trkpt lat="44.08646" lon="3.05049">
        <ele>357.852953</ele>
        <time>2021-04-30T21:55:16.697Z</time>
      </trkpt>
      <trkpt lat="44.08642" lon="3.05045">
        <ele>358.015587</ele>
        <time>2021-04-30T21:55:18.404Z</time>
      </trkpt>
      <trkpt lat="44.08647" lon="3.05036">
        <ele>358.279607</ele>
        <time>2021-04-30T21:55:23.317Z</time>
      </trkpt>
      <trkpt lat="44.08653" lon="3.05023">
        <ele>358.651159</ele>
        <time>2021-04-30T21:55:28.191Z</time>
      </trkpt>
      <trkpt lat="44.08662" lon="3.05003">
        <ele>359.227329</ele>
        <time>2021-04-30T21:55:36.974Z</time>
      </trkpt>
      <trkpt lat="44.0867" lon="3.0497">
        <ele>360.058148</ele>
        <time>2021-04-30T21:55:50.829Z</time>
      </trkpt>
      <trkpt lat="44.08676" lon="3.04961">
        <ele>360.357066</ele>
        <time>2021-04-30T21:55:55.971Z</time>
      </trkpt>
      <trkpt lat="44.08774" lon="3.04866">
        <ele>367.662112</ele>
        <time>2021-04-30T21:57:04.242Z</time>
      </trkpt>
      <trkpt lat="44.08834" lon="3.04816">
        <ele>372.810759</ele>
        <time>2021-04-30T21:57:55.798Z</time>
      </trkpt>
      <trkpt lat="44.08899" lon="3.04782">
        <ele>378.692317</ele>
        <time>2021-04-30T21:58:49.248Z</time>
      </trkpt>
      <trkpt lat="44.08915" lon="3.04772">
        <ele>380.281021</ele>
        <time>2021-04-30T21:59:03.153Z</time>
      </trkpt>
      <trkpt lat="44.0891" lon="3.04762">
        <ele>381.053819</ele>
        <time>2021-04-30T21:59:08.399Z</time>
      </trkpt>
      <trkpt lat="44.08905" lon="3.04744">
        <ele>382.334485</ele>
        <time>2021-04-30T21:59:16.430Z</time>
      </trkpt>
      <trkpt lat="44.08913" lon="3.0473">
        <ele>383.539774</ele>
        <time>2021-04-30T21:59:25.179Z</time>
      </trkpt>
      <trkpt lat="44.08917" lon="3.04709">
        <ele>384.941506</ele>
        <time>2021-04-30T21:59:34.054Z</time>
      </trkpt>
      <trkpt lat="44.08904" lon="3.04618">
        <ele>390.969588</ele>
        <time>2021-04-30T22:00:13.325Z</time>
      </trkpt>
      <trkpt lat="44.08874" lon="3.04552">
        <ele>393.227771</ele>
        <time>2021-04-30T22:00:43.150Z</time>
      </trkpt>
      <trkpt lat="44.08872" lon="3.04526">
        <ele>393.951461</ele>
        <time>2021-04-30T22:00:50.699Z</time>
      </trkpt>
      <trkpt lat="44.08885" lon="3.04449">
        <ele>396.180824</ele>
        <time>2021-04-30T22:01:09.649Z</time>
      </trkpt>
      <trkpt lat="44.08913" lon="3.04375">
        <ele>397.932501</ele>
        <time>2021-04-30T22:01:26.706Z</time>
      </trkpt>
      <trkpt lat="44.0892" lon="3.04339">
        <ele>397.480614</ele>
        <time>2021-04-30T22:01:33.214Z</time>
      </trkpt>
      <trkpt lat="44.08931" lon="3.04242">
        <ele>396.278432</ele>
        <time>2021-04-30T22:01:47.124Z</time>
      </trkpt>
      <trkpt lat="44.08939" lon="3.04213">
        <ele>395.901012</ele>
        <time>2021-04-30T22:01:51.026Z</time>
      </trkpt>
      <trkpt lat="44.08975" lon="3.04141">
        <ele>394.442881</ele>
        <time>2021-04-30T22:02:01.538Z</time>
      </trkpt>
      <trkpt lat="44.09079" lon="3.03975">
        <ele>387.252403</ele>
        <time>2021-04-30T22:02:26.666Z</time>
      </trkpt>
      <trkpt lat="44.0911" lon="3.03938">
        <ele>386.223661</ele>
        <time>2021-04-30T22:02:33.425Z</time>
      </trkpt>
      <trkpt lat="44.09161" lon="3.03858">
        <ele>384.67597</ele>
        <time>2021-04-30T22:02:47.233Z</time>
      </trkpt>
      <trkpt lat="44.09217" lon="3.03799">
        <ele>383.269205</ele>
        <time>2021-04-30T22:03:02.009Z</time>
      </trkpt>
      <trkpt lat="44.0923" lon="3.03775">
        <ele>383.255158</ele>
        <time>2021-04-30T22:03:07.473Z</time>
      </trkpt>
      <trkpt lat="44.09262" lon="3.03688">
        <ele>383.217725</ele>
        <time>2021-04-30T22:03:25.489Z</time>
      </trkpt>
      <trkpt lat="44.09273" lon="3.03582">
        <ele>383.176452</ele>
        <time>2021-04-30T22:03:43.751Z</time>
      </trkpt>
      <trkpt lat="44.09269" lon="3.03501">
        <ele>382.310096</ele>
        <time>2021-04-30T22:03:55.151Z</time>
      </trkpt>
      <trkpt lat="44.09252" lon="3.0342">
        <ele>381.192841</ele>
        <time>2021-04-30T22:04:06.108Z</time>
      </trkpt>
      <trkpt lat="44.0922" lon="3.03329">
        <ele>379.869046</ele>
        <time>2021-04-30T22:04:19.186Z</time>
      </trkpt>
      <trkpt lat="44.09207" lon="3.03305">
        <ele>379.843412</ele>
        <time>2021-04-30T22:04:23.070Z</time>
      </trkpt>
      <trkpt lat="44.09201" lon="3.03293">
        <ele>379.830246</ele>
        <time>2021-04-30T22:04:25.180Z</time>
      </trkpt>
      <trkpt lat="44.09173" lon="3.03238">
        <ele>379.772432</ele>
        <time>2021-04-30T22:04:34.693Z</time>
      </trkpt>
      <trkpt lat="44.09074" lon="3.03138">
        <ele>380.219705</ele>
        <time>2021-04-30T22:05:07.627Z</time>
      </trkpt>
      <trkpt lat="44.09044" lon="3.03118">
        <ele>381.021048</ele>
        <time>2021-04-30T22:05:19.407Z</time>
      </trkpt>
      <trkpt lat="44.09004" lon="3.03074">
        <ele>382.229669</ele>
        <time>2021-04-30T22:05:38.014Z</time>
      </trkpt>
      <trkpt lat="44.08871" lon="3.02984">
        <ele>385.422176</ele>
        <time>2021-04-30T22:06:25.951Z</time>
      </trkpt>
      <trkpt lat="44.08865" lon="3.02979">
        <ele>385.556681</ele>
        <time>2021-04-30T22:06:28.984Z</time>
      </trkpt>
      <trkpt lat="44.08857" lon="3.02958">
        <ele>385.887094</ele>
        <time>2021-04-30T22:06:34.001Z</time>
      </trkpt>
      <trkpt lat="44.08843" lon="3.02927">
        <ele>386.388922</ele>
        <time>2021-04-30T22:06:44.057Z</time>
      </trkpt>
      <trkpt lat="44.08813" lon="3.02905">
        <ele>387.028191</ele>
        <time>2021-04-30T22:06:56.113Z</time>
      </trkpt>
      <trkpt lat="44.08768" lon="3.02862">
        <ele>387.994577</ele>
        <time>2021-04-30T22:07:14.596Z</time>
      </trkpt>
      <trkpt lat="44.08738" lon="3.02832">
        <ele>388.609878</ele>
        <time>2021-04-30T22:07:27.284Z</time>
      </trkpt>
      <trkpt lat="44.08712" lon="3.02787">
        <ele>389.286293</ele>
        <time>2021-04-30T22:07:42.224Z</time>
      </trkpt>
      <trkpt lat="44.08669" lon="3.0275">
        <ele>390.130364</ele>
        <time>2021-04-30T22:08:01.600Z</time>
      </trkpt>
      <trkpt lat="44.08618" lon="3.02686">
        <ele>390.737492</ele>
        <time>2021-04-30T22:08:26.740Z</time>
      </trkpt>
      <trkpt lat="44.08601" lon="3.02661">
        <ele>390.89676</ele>
        <time>2021-04-30T22:08:35.156Z</time>
      </trkpt>
      <trkpt lat="44.0859" lon="3.02636">
        <ele>391.027849</ele>
        <time>2021-04-30T22:08:41.714Z</time>
      </trkpt>
      <trkpt lat="44.0857" lon="3.02572">
        <ele>391.345736</ele>
        <time>2021-04-30T22:08:56.651Z</time>
      </trkpt>
      <trkpt lat="44.0856" lon="3.0255">
        <ele>391.466196</ele>
        <time>2021-04-30T22:09:01.897Z</time>
      </trkpt>
      <trkpt lat="44.08546" lon="3.02513">
        <ele>391.320335</ele>
        <time>2021-04-30T22:09:10.029Z</time>
      </trkpt>
      <trkpt lat="44.0851" lon="3.02444">
        <ele>390.499994</ele>
        <time>2021-04-30T22:09:25.795Z</time>
      </trkpt>
      <trkpt lat="44.08463" lon="3.02319">
        <ele>389.137483</ele>
        <time>2021-04-30T22:09:50.598Z</time>
      </trkpt>
      <trkpt lat="44.08415" lon="3.02231">
        <ele>388.342703</ele>
        <time>2021-04-30T22:10:10.707Z</time>
      </trkpt>
      <trkpt lat="44.08399" lon="3.02186">
        <ele>387.977188</ele>
        <time>2021-04-30T22:10:20.332Z</time>
      </trkpt>
      <trkpt lat="44.08385" lon="3.02146">
        <ele>387.658361</ele>
        <time>2021-04-30T22:10:28.902Z</time>
      </trkpt>
      <trkpt lat="44.08364" lon="3.02065">
        <ele>387.171988</ele>
        <time>2021-04-30T22:10:46.212Z</time>
      </trkpt>
      <trkpt lat="44.08298" lon="3.01805">
        <ele>385.371582</ele>
        <time>2021-04-30T22:11:40.813Z</time>
      </trkpt>
      <trkpt lat="44.0829" lon="3.01701">
        <ele>383.808367</ele>
        <time>2021-04-30T22:11:58.734Z</time>
      </trkpt>
      <trkpt lat="44.0829" lon="3.01685">
        <ele>383.565537</ele>
        <time>2021-04-30T22:12:01.382Z</time>
      </trkpt>
      <trkpt lat="44.08292" lon="3.01675">
        <ele>383.426243</ele>
        <time>2021-04-30T22:12:03.177Z</time>
      </trkpt>
      <trkpt lat="44.083" lon="3.0156">
        <ele>381.368961</ele>
        <time>2021-04-30T22:12:27.978Z</time>
      </trkpt>
      <trkpt lat="44.08334" lon="3.01329">
        <ele>377.104394</ele>
        <time>2021-04-30T22:13:19.122Z</time>
      </trkpt>
      <trkpt lat="44.08367" lon="3.01217">
        <ele>375.874101</ele>
        <time>2021-04-30T22:13:48.105Z</time>
      </trkpt>
      <trkpt lat="44.08408" lon="3.0105">
        <ele>374.004953</ele>
        <time>2021-04-30T22:14:31.897Z</time>
      </trkpt>
      <trkpt lat="44.08432" lon="3.00999">
        <ele>373.320962</ele>
        <time>2021-04-30T22:14:46.697Z</time>
      </trkpt>
      <trkpt lat="44.08515" lon="3.0077">
        <ele>369.147797</ele>
        <time>2021-04-30T22:15:43.009Z</time>
      </trkpt>
      <trkpt lat="44.08591" lon="3.00637">
        <ele>365.865164</ele>
        <time>2021-04-30T22:16:19.276Z</time>
      </trkpt>
      <trkpt lat="44.08711" lon="3.00454">
        <ele>361.84156</ele>
        <time>2021-04-30T22:17:13.857Z</time>
      </trkpt>
      <trkpt lat="44.08721" lon="3.00418">
        <ele>361.458118</ele>
        <time>2021-04-30T22:17:22.790Z</time>
      </trkpt>
      <trkpt lat="44.08738" lon="3.00396">
        <ele>361.124783</ele>
        <time>2021-04-30T22:17:30.608Z</time>
      </trkpt>
      <trkpt lat="44.08767" lon="3.00378">
        <ele>360.687035</ele>
        <time>2021-04-30T22:17:41.005Z</time>
      </trkpt>
      <trkpt lat="44.08875" lon="3.00251">
        <ele>360.690674</ele>
        <time>2021-04-30T22:18:33.727Z</time>
      </trkpt>
      <trkpt lat="44.08894" lon="3.00242">
        <ele>360.804073</ele>
        <time>2021-04-30T22:18:42.140Z</time>
      </trkpt>
      <trkpt lat="44.08925" lon="3.00201">
        <ele>361.047476</ele>
        <time>2021-04-30T22:19:00.221Z</time>
      </trkpt>
      <trkpt lat="44.08937" lon="3.00174">
        <ele>361.239797</ele>
        <time>2021-04-30T22:19:09.998Z</time>
      </trkpt>
      <trkpt lat="44.08969" lon="3.0014">
        <ele>361.855082</ele>
        <time>2021-04-30T22:19:27.088Z</time>
      </trkpt>
      <trkpt lat="44.08988" lon="3.00107">
        <ele>362.314644</ele>
        <time>2021-04-30T22:19:40.181Z</time>
      </trkpt>
      <trkpt lat="44.09005" lon="3.00054">
        <ele>362.94167</ele>
        <time>2021-04-30T22:19:58.339Z</time>
      </trkpt>
      <trkpt lat="44.09013" lon="2.99984">
        <ele>363.718524</ele>
        <time>2021-04-30T22:20:20.532Z</time>
      </trkpt>
      <trkpt lat="44.08999" lon="2.99943">
        <ele>364.600694</ele>
        <time>2021-04-30T22:20:34.441Z</time>
      </trkpt>
      <trkpt lat="44.08966" lon="2.9989">
        <ele>366.271814</ele>
        <time>2021-04-30T22:20:56.480Z</time>
      </trkpt>
      <trkpt lat="44.08928" lon="2.9985">
        <ele>367.83189</ele>
        <time>2021-04-30T22:21:21.783Z</time>
      </trkpt>
      <trkpt lat="44.08901" lon="2.99832">
        <ele>368.830763</ele>
        <time>2021-04-30T22:21:37.908Z</time>
      </trkpt>
      <trkpt lat="44.0888" lon="2.99821">
        <ele>369.558521</ele>
        <time>2021-04-30T22:21:49.920Z</time>
      </trkpt>
      <trkpt lat="44.08877" lon="2.9982">
        <ele>369.643229</ele>
        <time>2021-04-30T22:21:51.297Z</time>
      </trkpt>
      <trkpt lat="44.08855" lon="2.99821">
        <ele>370.994676</ele>
        <time>2021-04-30T22:22:05.061Z</time>
      </trkpt>
      <trkpt lat="44.08839" lon="2.99814">
        <ele>372.126712</ele>
        <time>2021-04-30T22:22:13.954Z</time>
      </trkpt>
      <trkpt lat="44.08826" lon="2.99807">
        <ele>373.053158</ele>
        <time>2021-04-30T22:22:23.321Z</time>
      </trkpt>
      <trkpt lat="44.0879" lon="2.9979">
        <ele>375.657047</ele>
        <time>2021-04-30T22:22:47.302Z</time>
      </trkpt>
      <trkpt lat="44.08684" lon="2.99706">
        <ele>383.43122</ele>
        <time>2021-04-30T22:24:11.639Z</time>
      </trkpt>
      <trkpt lat="44.08628" lon="2.99665">
        <ele>386.713517</ele>
        <time>2021-04-30T22:24:50.207Z</time>
      </trkpt>
      <trkpt lat="44.08613" lon="2.99653">
        <ele>387.611436</ele>
        <time>2021-04-30T22:25:00.440Z</time>
      </trkpt>
      <trkpt lat="44.08578" lon="2.99609">
        <ele>390.090554</ele>
        <time>2021-04-30T22:25:26.305Z</time>
      </trkpt>
      <trkpt lat="44.0856" lon="2.99568">
        <ele>391.261203</ele>
        <time>2021-04-30T22:25:44.141Z</time>
      </trkpt>
      <trkpt lat="44.08464" lon="2.99404">
        <ele>390.235417</ele>
        <time>2021-04-30T22:26:37.151Z</time>
      </trkpt>
      <trkpt lat="44.08418" lon="2.99292">
        <ele>386.037521</ele>
        <time>2021-04-30T22:27:02.949Z</time>
      </trkpt>
      <trkpt lat="44.08367" lon="2.99175">
        <ele>380.800222</ele>
        <time>2021-04-30T22:27:28.802Z</time>
      </trkpt>
      <trkpt lat="44.08341" lon="2.99121">
        <ele>378.594412</ele>
        <time>2021-04-30T22:27:35.981Z</time>
      </trkpt>
      <trkpt lat="44.08312" lon="2.99073">
        <ele>376.532223</ele>
        <time>2021-04-30T22:27:43.037Z</time>
      </trkpt>
      <trkpt lat="44.08262" lon="2.9903">
        <ele>373.834697</ele>
        <time>2021-04-30T22:27:52.427Z</time>
      </trkpt>
      <trkpt lat="44.08252" lon="2.98993">
        <ele>372.525562</ele>
        <time>2021-04-30T22:27:57.339Z</time>
      </trkpt>
      <trkpt lat="44.08222" lon="2.98943">
        <ele>371.931511</ele>
        <time>2021-04-30T22:28:06.207Z</time>
      </trkpt>
      <trkpt lat="44.08212" lon="2.98934">
        <ele>371.843271</ele>
        <time>2021-04-30T22:28:09.290Z</time>
      </trkpt>
      <trkpt lat="44.08195" lon="2.98929">
        <ele>371.715767</ele>
        <time>2021-04-30T22:28:12.725Z</time>
      </trkpt>
      <trkpt lat="44.08188" lon="2.98915">
        <ele>371.622958</ele>
        <time>2021-04-30T22:28:15.911Z</time>
      </trkpt>
      <trkpt lat="44.08186" lon="2.9888">
        <ele>371.444441</ele>
        <time>2021-04-30T22:28:21.312Z</time>
      </trkpt>
      <trkpt lat="44.08179" lon="2.98857">
        <ele>371.314648</ele>
        <time>2021-04-30T22:28:26.738Z</time>
      </trkpt>
      <trkpt lat="44.08148" lon="2.98805">
        <ele>370.965623</ele>
        <time>2021-04-30T22:28:40.027Z</time>
      </trkpt>
      <trkpt lat="44.0807" lon="2.98808">
        <ele>368.157234</ele>
        <time>2021-04-30T22:28:54.283Z</time>
      </trkpt>
      <trkpt lat="44.08011" lon="2.98811">
        <ele>365.882446</ele>
        <time>2021-04-30T22:29:04.103Z</time>
      </trkpt>
      <trkpt lat="44.08017" lon="2.98765">
        <ele>364.574249</ele>
        <time>2021-04-30T22:29:09.393Z</time>
      </trkpt>
      <trkpt lat="44.08043" lon="2.98669">
        <ele>359.454211</ele>
        <time>2021-04-30T22:29:20.185Z</time>
      </trkpt>
      <trkpt lat="44.08021" lon="2.9863">
        <ele>356.694589</ele>
        <time>2021-04-30T22:29:25.333Z</time>
      </trkpt>
      <trkpt lat="44.07996" lon="2.98604">
        <ele>354.243506</ele>
        <time>2021-04-30T22:29:29.834Z</time>
      </trkpt>
      <trkpt lat="44.07997" lon="2.98589">
        <ele>353.41406</ele>
        <time>2021-04-30T22:29:31.436Z</time>
      </trkpt>
      <trkpt lat="44.08009" lon="2.98582">
        <ele>352.441734</ele>
        <time>2021-04-30T22:29:33.293Z</time>
      </trkpt>
      <trkpt lat="44.08024" lon="2.98546">
        <ele>350.099302</ele>
        <time>2021-04-30T22:29:37.971Z</time>
      </trkpt>
      <trkpt lat="44.08029" lon="2.98523">
        <ele>349.649517</ele>
        <time>2021-04-30T22:29:40.729Z</time>
      </trkpt>
      <trkpt lat="44.08031" lon="2.98503">
        <ele>349.27933</ele>
        <time>2021-04-30T22:29:43.013Z</time>
      </trkpt>
      <trkpt lat="44.08021" lon="2.98503">
        <ele>349.022375</ele>
        <time>2021-04-30T22:29:44.615Z</time>
      </trkpt>
      <trkpt lat="44.07978" lon="2.98483">
        <ele>347.850821</ele>
        <time>2021-04-30T22:29:52.345Z</time>
      </trkpt>
      <trkpt lat="44.07942" lon="2.98479">
        <ele>346.912473</ele>
        <time>2021-04-30T22:29:58.937Z</time>
      </trkpt>
      <trkpt lat="44.07802" lon="2.98494">
        <ele>346.135685</ele>
        <time>2021-04-30T22:30:34.162Z</time>
      </trkpt>
      <trkpt lat="44.07721" lon="2.9852">
        <ele>346.80243</ele>
        <time>2021-04-30T22:30:55.476Z</time>
      </trkpt>
      <trkpt lat="44.0771" lon="2.98533">
        <ele>346.96472</ele>
        <time>2021-04-30T22:30:59.600Z</time>
      </trkpt>
      <trkpt lat="44.07697" lon="2.98582">
        <ele>348.201853</ele>
        <time>2021-04-30T22:31:12.297Z</time>
      </trkpt>
      <trkpt lat="44.07696" lon="2.98606">
        <ele>348.772891</ele>
        <time>2021-04-30T22:31:18.363Z</time>
      </trkpt>
      <trkpt lat="44.07707" lon="2.98644">
        <ele>349.735224</ele>
        <time>2021-04-30T22:31:28.729Z</time>
      </trkpt>
      <trkpt lat="44.07722" lon="2.98694">
        <ele>351.012356</ele>
        <time>2021-04-30T22:31:43.427Z</time>
      </trkpt>
      <trkpt lat="44.07712" lon="2.98718">
        <ele>351.658085</ele>
        <time>2021-04-30T22:31:51.109Z</time>
      </trkpt>
      <trkpt lat="44.07685" lon="2.98758">
        <ele>352.98052</ele>
        <time>2021-04-30T22:32:07.263Z</time>
      </trkpt>
      <trkpt lat="44.07665" lon="2.98777">
        <ele>353.96077</ele>
        <time>2021-04-30T22:32:17.708Z</time>
      </trkpt>
      <trkpt lat="44.07599" lon="2.98817">
        <ele>356.793881</ele>
        <time>2021-04-30T22:32:49.158Z</time>
      </trkpt>
      <trkpt lat="44.0756" lon="2.98828">
        <ele>358.360665</ele>
        <time>2021-04-30T22:33:05.479Z</time>
      </trkpt>
      <trkpt lat="44.07534" lon="2.98829">
        <ele>359.416926</ele>
        <time>2021-04-30T22:33:15.407Z</time>
      </trkpt>
      <trkpt lat="44.07484" lon="2.98824">
        <ele>359.360726</ele>
        <time>2021-04-30T22:33:30.051Z</time>
      </trkpt>
      <trkpt lat="44.07379" lon="2.98805">
        <ele>357.673868</ele>
        <time>2021-04-30T22:33:48.995Z</time>
      </trkpt>
      <trkpt lat="44.07368" lon="2.98798">
        <ele>357.493075</ele>
        <time>2021-04-30T22:33:50.929Z</time>
      </trkpt>
      <trkpt lat="44.07361" lon="2.98792">
        <ele>357.358021</ele>
        <time>2021-04-30T22:33:52.638Z</time>
      </trkpt>
      <trkpt lat="44.07368" lon="2.98769">
        <ele>357.075372</ele>
        <time>2021-04-30T22:33:55.379Z</time>
      </trkpt>
      <trkpt lat="44.07382" lon="2.98708">
        <ele>355.55395</ele>
        <time>2021-04-30T22:34:03.027Z</time>
      </trkpt>
      <trkpt lat="44.07392" lon="2.98666">
        <ele>354.508631</ele>
        <time>2021-04-30T22:34:08.169Z</time>
      </trkpt>
      <trkpt lat="44.07395" lon="2.98643">
        <ele>353.963062</ele>
        <time>2021-04-30T22:34:10.971Z</time>
      </trkpt>
      <trkpt lat="44.07345" lon="2.98626">
        <ele>352.28092</ele>
        <time>2021-04-30T22:34:19.065Z</time>
      </trkpt>
      <trkpt lat="44.07026" lon="2.98506">
        <ele>350.602948</ele>
        <time>2021-04-30T22:35:33.362Z</time>
      </trkpt>
      <trkpt lat="44.06952" lon="2.98462">
        <ele>350.85595</ele>
        <time>2021-04-30T22:35:54.366Z</time>
      </trkpt>
      <trkpt lat="44.06764" lon="2.98395">
        <ele>352.536331</ele>
        <time>2021-04-30T22:36:45.777Z</time>
      </trkpt>
      <trkpt lat="44.06735" lon="2.98387">
        <ele>352.84663</ele>
        <time>2021-04-30T22:36:53.777Z</time>
      </trkpt>
      <trkpt lat="44.0671" lon="2.9839">
        <ele>353.099927</ele>
        <time>2021-04-30T22:37:00.728Z</time>
      </trkpt>
      <trkpt lat="44.06673" lon="2.984">
        <ele>353.48909</ele>
        <time>2021-04-30T22:37:11.390Z</time>
      </trkpt>
      <trkpt lat="44.0661" lon="2.98396">
        <ele>354.138915</ele>
        <time>2021-04-30T22:37:28.521Z</time>
      </trkpt>
      <trkpt lat="44.066" lon="2.98395">
        <ele>354.251304</ele>
        <time>2021-04-30T22:37:31.644Z</time>
      </trkpt>
      <trkpt lat="44.06586" lon="2.98397">
        <ele>354.400628</ele>
        <time>2021-04-30T22:37:35.111Z</time>
      </trkpt>
      <trkpt lat="44.06583" lon="2.98398">
        <ele>354.436077</ele>
        <time>2021-04-30T22:37:35.960Z</time>
      </trkpt>
      <trkpt lat="44.06583" lon="2.98398">
        <ele>354.436077</ele>
        <time>2021-04-30T22:37:35.984Z</time>
      </trkpt>
      <trkpt lat="44.06581" lon="2.98399">
        <ele>354.463393</ele>
        <time>2021-04-30T22:37:36.633Z</time>
      </trkpt>
      <trkpt lat="44.06576" lon="2.98403">
        <ele>354.529637</ele>
        <time>2021-04-30T22:37:38.231Z</time>
      </trkpt>
      <trkpt lat="44.06572" lon="2.98406">
        <ele>354.579448</ele>
        <time>2021-04-30T22:37:39.460Z</time>
      </trkpt>
      <trkpt lat="44.06568" lon="2.9841">
        <ele>354.634287</ele>
        <time>2021-04-30T22:37:41.154Z</time>
      </trkpt>
      <trkpt lat="44.06549" lon="2.98417">
        <ele>354.854412</ele>
        <time>2021-04-30T22:37:46.286Z</time>
      </trkpt>
      <trkpt lat="44.06516" lon="2.98415">
        <ele>355.214975</ele>
        <time>2021-04-30T22:37:55.026Z</time>
      </trkpt>
      <trkpt lat="44.06401" lon="2.98392">
        <ele>356.556697</ele>
        <time>2021-04-30T22:38:27.617Z</time>
      </trkpt>
      <trkpt lat="44.06397" lon="2.98392">
        <ele>356.606121</ele>
        <time>2021-04-30T22:38:28.926Z</time>
      </trkpt>
      <trkpt lat="44.06397" lon="2.98388">
        <ele>356.648809</ele>
        <time>2021-04-30T22:38:29.634Z</time>
      </trkpt>
      <trkpt lat="44.064" lon="2.98374">
        <ele>356.775786</ele>
        <time>2021-04-30T22:38:32.339Z</time>
      </trkpt>
      <trkpt lat="44.06396" lon="2.98358">
        <ele>356.923577</ele>
        <time>2021-04-30T22:38:35.519Z</time>
      </trkpt>
      <trkpt lat="44.06393" lon="2.98353">
        <ele>356.975935</ele>
        <time>2021-04-30T22:38:36.694Z</time>
      </trkpt>
      <trkpt lat="44.06389" lon="2.98348">
        <ele>357.052631</ele>
        <time>2021-04-30T22:38:38.618Z</time>
      </trkpt>
      <trkpt lat="44.06384" lon="2.98344">
        <ele>357.121758</ele>
        <time>2021-04-30T22:38:39.873Z</time>
      </trkpt>
      <trkpt lat="44.06377" lon="2.98342">
        <ele>357.204011</ele>
        <time>2021-04-30T22:38:41.668Z</time>
      </trkpt>
      <trkpt lat="44.06369" lon="2.98336">
        <ele>357.322935</ele>
        <time>2021-04-30T22:38:44.208Z</time>
      </trkpt>
      <trkpt lat="44.06358" lon="2.9833">
        <ele>357.467972</ele>
        <time>2021-04-30T22:38:47.602Z</time>
      </trkpt>
      <trkpt lat="44.06328" lon="2.98315">
        <ele>357.854571</ele>
        <time>2021-04-30T22:38:55.974Z</time>
      </trkpt>
      <trkpt lat="44.06312" lon="2.9831">
        <ele>358.056794</ele>
        <time>2021-04-30T22:39:00.498Z</time>
      </trkpt>
      <trkpt lat="44.06299" lon="2.98306">
        <ele>358.224099</ele>
        <time>2021-04-30T22:39:04.171Z</time>
      </trkpt>
      <trkpt lat="44.06263" lon="2.98293">
        <ele>358.771931</ele>
        <time>2021-04-30T22:39:14.659Z</time>
      </trkpt>
      <trkpt lat="44.06095" lon="2.98208">
        <ele>361.281945</ele>
        <time>2021-04-30T22:40:05.296Z</time>
      </trkpt>
      <trkpt lat="44.06049" lon="2.98199">
        <ele>361.765171</ele>
        <time>2021-04-30T22:40:17.777Z</time>
      </trkpt>
      <trkpt lat="44.06025" lon="2.98198">
        <ele>362.007806</ele>
        <time>2021-04-30T22:40:24.000Z</time>
      </trkpt>
      <trkpt lat="44.05997" lon="2.98199">
        <ele>362.306169</ele>
        <time>2021-04-30T22:40:31.440Z</time>
      </trkpt>
      <trkpt lat="44.05958" lon="2.982">
        <ele>362.706792</ele>
        <time>2021-04-30T22:40:41.287Z</time>
      </trkpt>
      <trkpt lat="44.05917" lon="2.98201">
        <ele>362.973949</ele>
        <time>2021-04-30T22:40:51.353Z</time>
      </trkpt>
      <trkpt lat="44.0588" lon="2.98199">
        <ele>363.173639</ele>
        <time>2021-04-30T22:41:00.573Z</time>
      </trkpt>
      <trkpt lat="44.05847" lon="2.98188">
        <ele>363.353638</ele>
        <time>2021-04-30T22:41:08.658Z</time>
      </trkpt>
      <trkpt lat="44.05817" lon="2.98169">
        <ele>363.527597</ele>
        <time>2021-04-30T22:41:16.492Z</time>
      </trkpt>
      <trkpt lat="44.0579" lon="2.98143">
        <ele>363.701635</ele>
        <time>2021-04-30T22:41:24.373Z</time>
      </trkpt>
      <trkpt lat="44.05716" lon="2.98058">
        <ele>364.343976</ele>
        <time>2021-04-30T22:41:47.771Z</time>
      </trkpt>
      <trkpt lat="44.05677" lon="2.98014">
        <ele>364.693612</ele>
        <time>2021-04-30T22:42:00.243Z</time>
      </trkpt>
      <trkpt lat="44.05632" lon="2.97974">
        <ele>365.120133</ele>
        <time>2021-04-30T22:42:14.010Z</time>
      </trkpt>
      <trkpt lat="44.05608" lon="2.97961">
        <ele>365.474258</ele>
        <time>2021-04-30T22:42:20.842Z</time>
      </trkpt>
      <trkpt lat="44.0553" lon="2.97945">
        <ele>366.570576</ele>
        <time>2021-04-30T22:42:42.951Z</time>
      </trkpt>
      <trkpt lat="44.05502" lon="2.97944">
        <ele>366.963743</ele>
        <time>2021-04-30T22:42:51.471Z</time>
      </trkpt>
      <trkpt lat="44.05424" lon="2.9794">
        <ele>367.876216</ele>
        <time>2021-04-30T22:43:13.240Z</time>
      </trkpt>
      <trkpt lat="44.05386" lon="2.97941">
        <ele>368.239686</ele>
        <time>2021-04-30T22:43:23.582Z</time>
      </trkpt>
      <trkpt lat="44.05357" lon="2.97946">
        <ele>368.521791</ele>
        <time>2021-04-30T22:43:31.630Z</time>
      </trkpt>
      <trkpt lat="44.05297" lon="2.97957">
        <ele>369.095337</ele>
        <time>2021-04-30T22:43:46.515Z</time>
      </trkpt>
      <trkpt lat="44.05255" lon="2.97962">
        <ele>369.228149</ele>
        <time>2021-04-30T22:43:56.113Z</time>
      </trkpt>
      <trkpt lat="44.05218" lon="2.97957">
        <ele>369.223286</ele>
        <time>2021-04-30T22:44:04.119Z</time>
      </trkpt>
      <trkpt lat="44.05158" lon="2.97928">
        <ele>369.214893</ele>
        <time>2021-04-30T22:44:17.410Z</time>
      </trkpt>
      <trkpt lat="44.05075" lon="2.97866">
        <ele>369.477477</ele>
        <time>2021-04-30T22:44:39.090Z</time>
      </trkpt>
      <trkpt lat="44.05037" lon="2.97839">
        <ele>369.742531</ele>
        <time>2021-04-30T22:44:49.438Z</time>
      </trkpt>
      <trkpt lat="44.04805" lon="2.97711">
        <ele>371.8126</ele>
        <time>2021-04-30T22:45:53.775Z</time>
      </trkpt>
      <trkpt lat="44.04702" lon="2.97647">
        <ele>373.425301</ele>
        <time>2021-04-30T22:46:24.564Z</time>
      </trkpt>
      <trkpt lat="44.04642" lon="2.97609">
        <ele>374.447073</ele>
        <time>2021-04-30T22:46:43.542Z</time>
      </trkpt>
      <trkpt lat="44.04632" lon="2.97602">
        <ele>374.619793</ele>
        <time>2021-04-30T22:46:46.947Z</time>
      </trkpt>
      <trkpt lat="44.046" lon="2.97572">
        <ele>375.416463</ele>
        <time>2021-04-30T22:46:58.365Z</time>
      </trkpt>
      <trkpt lat="44.04592" lon="2.97563">
        <ele>375.642543</ele>
        <time>2021-04-30T22:47:02.032Z</time>
      </trkpt>
      <trkpt lat="44.04586" lon="2.97555">
        <ele>375.853204</ele>
        <time>2021-04-30T22:47:05.283Z</time>
      </trkpt>
      <trkpt lat="44.04545" lon="2.97482">
        <ele>377.40263</ele>
        <time>2021-04-30T22:47:27.389Z</time>
      </trkpt>
      <trkpt lat="44.04523" lon="2.97404">
        <ele>378.81335</ele>
        <time>2021-04-30T22:47:46.243Z</time>
      </trkpt>
      <trkpt lat="44.04521" lon="2.97386">
        <ele>379.069921</ele>
        <time>2021-04-30T22:47:50.845Z</time>
      </trkpt>
      <trkpt lat="44.04519" lon="2.97376">
        <ele>379.135777</ele>
        <time>2021-04-30T22:47:53.401Z</time>
      </trkpt>
      <trkpt lat="44.04499" lon="2.97165">
        <ele>380.461112</ele>
        <time>2021-04-30T22:48:33.152Z</time>
      </trkpt>
      <trkpt lat="44.04488" lon="2.97105">
        <ele>380.424398</ele>
        <time>2021-04-30T22:48:41.897Z</time>
      </trkpt>
      <trkpt lat="44.04465" lon="2.97035">
        <ele>380.060805</ele>
        <time>2021-04-30T22:48:52.580Z</time>
      </trkpt>
      <trkpt lat="44.04449" lon="2.96998">
        <ele>379.857916</ele>
        <time>2021-04-30T22:48:58.621Z</time>
      </trkpt>
      <trkpt lat="44.04409" lon="2.96932">
        <ele>379.448466</ele>
        <time>2021-04-30T22:49:11.033Z</time>
      </trkpt>
      <trkpt lat="44.0437" lon="2.96886">
        <ele>379.467194</ele>
        <time>2021-04-30T22:49:21.517Z</time>
      </trkpt>
      <trkpt lat="44.04329" lon="2.96849">
        <ele>379.511665</ele>
        <time>2021-04-30T22:49:32.376Z</time>
      </trkpt>
      <trkpt lat="44.0421" lon="2.96791">
        <ele>379.932592</ele>
        <time>2021-04-30T22:50:03.274Z</time>
      </trkpt>
      <trkpt lat="44.04112" lon="2.96725">
        <ele>380.808585</ele>
        <time>2021-04-30T22:50:31.270Z</time>
      </trkpt>
      <trkpt lat="44.0397" lon="2.96586">
        <ele>382.256379</ele>
        <time>2021-04-30T22:51:16.189Z</time>
      </trkpt>
      <trkpt lat="44.03755" lon="2.96425">
        <ele>384.337972</ele>
        <time>2021-04-30T22:52:17.373Z</time>
      </trkpt>
      <trkpt lat="44.03701" lon="2.96359">
        <ele>385.320296</ele>
        <time>2021-04-30T22:52:36.998Z</time>
      </trkpt>
      <trkpt lat="44.03658" lon="2.96284">
        <ele>386.27201</ele>
        <time>2021-04-30T22:52:57.021Z</time>
      </trkpt>
      <trkpt lat="44.03637" lon="2.96255">
        <ele>386.872326</ele>
        <time>2021-04-30T22:53:05.844Z</time>
      </trkpt>
      <trkpt lat="44.03596" lon="2.96213">
        <ele>388.095823</ele>
        <time>2021-04-30T22:53:21.642Z</time>
      </trkpt>
      <trkpt lat="44.03551" lon="2.96186">
        <ele>389.279558</ele>
        <time>2021-04-30T22:53:37.614Z</time>
      </trkpt>
      <trkpt lat="44.03529" lon="2.96179">
        <ele>389.833597</ele>
        <time>2021-04-30T22:53:45.097Z</time>
      </trkpt>
      <trkpt lat="44.03433" lon="2.96174">
        <ele>392.329999</ele>
        <time>2021-04-30T22:54:16.789Z</time>
      </trkpt>
      <trkpt lat="44.03318" lon="2.96188">
        <ele>395.520754</ele>
        <time>2021-04-30T22:54:56.147Z</time>
      </trkpt>
      <trkpt lat="44.03265" lon="2.96208">
        <ele>396.272507</ele>
        <time>2021-04-30T22:55:13.657Z</time>
      </trkpt>
      <trkpt lat="44.03188" lon="2.9626">
        <ele>397.308105</ele>
        <time>2021-04-30T22:55:37.424Z</time>
      </trkpt>
      <trkpt lat="44.03141" lon="2.9631">
        <ele>397.63229</ele>
        <time>2021-04-30T22:55:50.466Z</time>
      </trkpt>
      <trkpt lat="44.03083" lon="2.9639">
        <ele>396.400818</ele>
        <time>2021-04-30T22:56:05.135Z</time>
      </trkpt>
      <trkpt lat="44.03047" lon="2.96431">
        <ele>395.695827</ele>
        <time>2021-04-30T22:56:13.314Z</time>
      </trkpt>
      <trkpt lat="44.03011" lon="2.96458">
        <ele>395.099242</ele>
        <time>2021-04-30T22:56:20.436Z</time>
      </trkpt>
      <trkpt lat="44.02981" lon="2.96471">
        <ele>394.803625</ele>
        <time>2021-04-30T22:56:26.165Z</time>
      </trkpt>
      <trkpt lat="44.02963" lon="2.96475">
        <ele>394.638091</ele>
        <time>2021-04-30T22:56:29.220Z</time>
      </trkpt>
      <trkpt lat="44.02942" lon="2.96479">
        <ele>394.442819</ele>
        <time>2021-04-30T22:56:33.418Z</time>
      </trkpt>
      <trkpt lat="44.0283" lon="2.96476">
        <ele>393.472881</ele>
        <time>2021-04-30T22:56:56.261Z</time>
      </trkpt>
      <trkpt lat="44.02714" lon="2.96506">
        <ele>393.732488</ele>
        <time>2021-04-30T22:57:24.854Z</time>
      </trkpt>
      <trkpt lat="44.0255" lon="2.96479">
        <ele>394.334524</ele>
        <time>2021-04-30T22:58:02.223Z</time>
      </trkpt>
      <trkpt lat="44.02341" lon="2.9644">
        <ele>396.393796</ele>
        <time>2021-04-30T22:58:56.495Z</time>
      </trkpt>
      <trkpt lat="44.02301" lon="2.96434">
        <ele>396.898932</ele>
        <time>2021-04-30T22:59:08.857Z</time>
      </trkpt>
      <trkpt lat="44.02211" lon="2.96432">
        <ele>398.754194</ele>
        <time>2021-04-30T22:59:38.039Z</time>
      </trkpt>
      <trkpt lat="44.02106" lon="2.96458">
        <ele>400.675318</ele>
        <time>2021-04-30T23:00:10.368Z</time>
      </trkpt>
      <trkpt lat="44.01851" lon="2.96589">
        <ele>401.504989</ele>
        <time>2021-04-30T23:01:13.783Z</time>
      </trkpt>
      <trkpt lat="44.01741" lon="2.9667">
        <ele>401.121142</ele>
        <time>2021-04-30T23:01:38.803Z</time>
      </trkpt>
      <trkpt lat="44.01706" lon="2.96686">
        <ele>400.909748</ele>
        <time>2021-04-30T23:01:46.084Z</time>
      </trkpt>
      <trkpt lat="44.01642" lon="2.96688">
        <ele>400.542213</ele>
        <time>2021-04-30T23:01:58.898Z</time>
      </trkpt>
      <trkpt lat="44.01588" lon="2.96667">
        <ele>400.420673</ele>
        <time>2021-04-30T23:02:11.025Z</time>
      </trkpt>
      <trkpt lat="44.01551" lon="2.96647">
        <ele>400.448104</ele>
        <time>2021-04-30T23:02:19.862Z</time>
      </trkpt>
      <trkpt lat="44.01524" lon="2.96632">
        <ele>400.468911</ele>
        <time>2021-04-30T23:02:26.345Z</time>
      </trkpt>
      <trkpt lat="44.01486" lon="2.96612">
        <ele>400.497152</ele>
        <time>2021-04-30T23:02:35.473Z</time>
      </trkpt>
      <trkpt lat="44.01419" lon="2.96575">
        <ele>400.74243</ele>
        <time>2021-04-30T23:02:52.697Z</time>
      </trkpt>
      <trkpt lat="44.01413" lon="2.96572">
        <ele>400.791618</ele>
        <time>2021-04-30T23:02:54.335Z</time>
      </trkpt>
      <trkpt lat="44.01375" lon="2.96551">
        <ele>401.067511</ele>
        <time>2021-04-30T23:03:04.829Z</time>
      </trkpt>
      <trkpt lat="44.01357" lon="2.96537">
        <ele>401.200318</ele>
        <time>2021-04-30T23:03:10.180Z</time>
      </trkpt>
      <trkpt lat="44.01347" lon="2.96531">
        <ele>401.279589</ele>
        <time>2021-04-30T23:03:13.069Z</time>
      </trkpt>
      <trkpt lat="44.01329" lon="2.96526">
        <ele>401.3971</ele>
        <time>2021-04-30T23:03:17.576Z</time>
      </trkpt>
      <trkpt lat="44.01293" lon="2.96507">
        <ele>401.660602</ele>
        <time>2021-04-30T23:03:27.219Z</time>
      </trkpt>
      <trkpt lat="44.01277" lon="2.96496">
        <ele>401.801539</ele>
        <time>2021-04-30T23:03:31.115Z</time>
      </trkpt>
      <trkpt lat="44.01263" lon="2.96488">
        <ele>401.957263</ele>
        <time>2021-04-30T23:03:34.865Z</time>
      </trkpt>
      <trkpt lat="44.01237" lon="2.96476">
        <ele>402.246058</ele>
        <time>2021-04-30T23:03:42.104Z</time>
      </trkpt>
      <trkpt lat="44.01231" lon="2.96472">
        <ele>402.322079</ele>
        <time>2021-04-30T23:03:44.028Z</time>
      </trkpt>
      <trkpt lat="44.01227" lon="2.96468">
        <ele>402.370193</ele>
        <time>2021-04-30T23:03:45.314Z</time>
      </trkpt>
      <trkpt lat="44.01219" lon="2.96458">
        <ele>402.484892</ele>
        <time>2021-04-30T23:03:48.127Z</time>
      </trkpt>
      <trkpt lat="44.01217" lon="2.96453">
        <ele>402.527792</ele>
        <time>2021-04-30T23:03:49.154Z</time>
      </trkpt>
      <trkpt lat="44.01216" lon="2.96447">
        <ele>402.574705</ele>
        <time>2021-04-30T23:03:50.491Z</time>
      </trkpt>
      <trkpt lat="44.01216" lon="2.96434">
        <ele>402.668718</ele>
        <time>2021-04-30T23:03:52.967Z</time>
      </trkpt>
      <trkpt lat="44.01217" lon="2.96426">
        <ele>402.732934</ele>
        <time>2021-04-30T23:03:54.646Z</time>
      </trkpt>
      <trkpt lat="44.01217" lon="2.9642">
        <ele>402.777615</ele>
        <time>2021-04-30T23:03:55.819Z</time>
      </trkpt>
      <trkpt lat="44.01216" lon="2.96415">
        <ele>402.816777</ele>
        <time>2021-04-30T23:03:56.816Z</time>
      </trkpt>
      <trkpt lat="44.01213" lon="2.96411">
        <ele>402.856959</ele>
        <time>2021-04-30T23:03:57.777Z</time>
      </trkpt>
      <trkpt lat="44.0121" lon="2.96406">
        <ele>402.909278</ele>
        <time>2021-04-30T23:03:59.090Z</time>
      </trkpt>
      <trkpt lat="44.01189" lon="2.9638">
        <ele>403.2045</ele>
        <time>2021-04-30T23:04:06.806Z</time>
      </trkpt>
      <trkpt lat="44.01184" lon="2.96374">
        <ele>403.272873</ele>
        <time>2021-04-30T23:04:08.427Z</time>
      </trkpt>
      <trkpt lat="44.01182" lon="2.96371">
        <ele>403.301419</ele>
        <time>2021-04-30T23:04:09.227Z</time>
      </trkpt>
      <trkpt lat="44.01178" lon="2.96367">
        <ele>403.350415</ele>
        <time>2021-04-30T23:04:10.587Z</time>
      </trkpt>
      <trkpt lat="44.01155" lon="2.96339">
        <ele>403.680025</ele>
        <time>2021-04-30T23:04:18.660Z</time>
      </trkpt>
      <trkpt lat="44.0115" lon="2.96334">
        <ele>403.765693</ele>
        <time>2021-04-30T23:04:20.585Z</time>
      </trkpt>
      <trkpt lat="44.01119" lon="2.96323">
        <ele>404.196327</ele>
        <time>2021-04-30T23:04:29.346Z</time>
      </trkpt>
      <trkpt lat="44.01089" lon="2.96323">
        <ele>404.596164</ele>
        <time>2021-04-30T23:04:37.634Z</time>
      </trkpt>
      <trkpt lat="44.01071" lon="2.96323">
        <ele>404.847942</ele>
        <time>2021-04-30T23:04:42.964Z</time>
      </trkpt>
      <trkpt lat="44.01045" lon="2.9632">
        <ele>405.195145</ele>
        <time>2021-04-30T23:04:50.159Z</time>
      </trkpt>
      <trkpt lat="44.01034" lon="2.96324">
        <ele>405.345324</ele>
        <time>2021-04-30T23:04:53.464Z</time>
      </trkpt>
      <trkpt lat="44.01013" lon="2.96324">
        <ele>405.633447</ele>
        <time>2021-04-30T23:04:59.640Z</time>
      </trkpt>
      <trkpt lat="44.01002" lon="2.96324">
        <ele>405.778845</ele>
        <time>2021-04-30T23:05:02.746Z</time>
      </trkpt>
      <trkpt lat="44.0099" lon="2.96325">
        <ele>405.935441</ele>
        <time>2021-04-30T23:05:05.925Z</time>
      </trkpt>
      <trkpt lat="44.00969" lon="2.96328">
        <ele>406.139394</ele>
        <time>2021-04-30T23:05:11.536Z</time>
      </trkpt>
      <trkpt lat="44.0095" lon="2.96332">
        <ele>406.285691</ele>
        <time>2021-04-30T23:05:16.586Z</time>
      </trkpt>
      <trkpt lat="44.00942" lon="2.96333">
        <ele>406.34344</ele>
        <time>2021-04-30T23:05:18.487Z</time>
      </trkpt>
      <trkpt lat="44.0094" lon="2.96334">
        <ele>406.360187</ele>
        <time>2021-04-30T23:05:19.036Z</time>
      </trkpt>
      <trkpt lat="44.00932" lon="2.96335">
        <ele>406.418601</ele>
        <time>2021-04-30T23:05:20.897Z</time>
      </trkpt>
      <trkpt lat="44.00895" lon="2.96344">
        <ele>406.701265</ele>
        <time>2021-04-30T23:05:30.121Z</time>
      </trkpt>
      <trkpt lat="44.00873" lon="2.9635">
        <ele>406.868769</ele>
        <time>2021-04-30T23:05:35.652Z</time>
      </trkpt>
      <trkpt lat="44.0086" lon="2.96353">
        <ele>406.972319</ele>
        <time>2021-04-30T23:05:38.976Z</time>
      </trkpt>
      <trkpt lat="44.00842" lon="2.96358">
        <ele>407.106992</ele>
        <time>2021-04-30T23:05:43.333Z</time>
      </trkpt>
      <trkpt lat="44.00829" lon="2.96364">
        <ele>407.208117</ele>
        <time>2021-04-30T23:05:46.639Z</time>
      </trkpt>
      <trkpt lat="44.00781" lon="2.96381">
        <ele>407.75713</ele>
        <time>2021-04-30T23:05:58.993Z</time>
      </trkpt>
      <trkpt lat="44.00759" lon="2.96387">
        <ele>408.065228</ele>
        <time>2021-04-30T23:06:04.664Z</time>
      </trkpt>
      <trkpt lat="44.00738" lon="2.9639">
        <ele>408.364403</ele>
        <time>2021-04-30T23:06:10.155Z</time>
      </trkpt>
      <trkpt lat="44.00698" lon="2.96393">
        <ele>408.932606</ele>
        <time>2021-04-30T23:06:21.060Z</time>
      </trkpt>
      <trkpt lat="44.00645" lon="2.96397">
        <ele>409.670715</ele>
        <time>2021-04-30T23:06:36.337Z</time>
      </trkpt>
      <trkpt lat="44.00534" lon="2.96407">
        <ele>412.735806</ele>
        <time>2021-04-30T23:07:13.212Z</time>
      </trkpt>
      <trkpt lat="44.00486" lon="2.96422">
        <ele>414.200764</ele>
        <time>2021-04-30T23:07:30.670Z</time>
      </trkpt>
      <trkpt lat="44.00371" lon="2.96474">
        <ele>417.841367</ele>
        <time>2021-04-30T23:08:15.037Z</time>
      </trkpt>
      <trkpt lat="44.00344" lon="2.96491">
        <ele>418.726704</ele>
        <time>2021-04-30T23:08:25.789Z</time>
      </trkpt>
      <trkpt lat="44.00326" lon="2.96507">
        <ele>419.368538</ele>
        <time>2021-04-30T23:08:33.316Z</time>
      </trkpt>
      <trkpt lat="44.00159" lon="2.96686">
        <ele>422.845899</ele>
        <time>2021-04-30T23:09:34.892Z</time>
      </trkpt>
      <trkpt lat="44.00139" lon="2.96713">
        <ele>422.742672</ele>
        <time>2021-04-30T23:09:40.653Z</time>
      </trkpt>
      <trkpt lat="44.00035" lon="2.96888">
        <ele>419.759382</ele>
        <time>2021-04-30T23:10:08.912Z</time>
      </trkpt>
      <trkpt lat="43.99989" lon="2.96935">
        <ele>418.367744</ele>
        <time>2021-04-30T23:10:18.340Z</time>
      </trkpt>
      <trkpt lat="43.99948" lon="2.96962">
        <ele>417.267112</ele>
        <time>2021-04-30T23:10:25.965Z</time>
      </trkpt>
      <trkpt lat="43.99936" lon="2.96967">
        <ele>416.971864</ele>
        <time>2021-04-30T23:10:27.921Z</time>
      </trkpt>
      <trkpt lat="43.99908" lon="2.96977">
        <ele>416.260352</ele>
        <time>2021-04-30T23:10:33.026Z</time>
      </trkpt>
      <trkpt lat="43.9987" lon="2.96984">
        <ele>415.350734</ele>
        <time>2021-04-30T23:10:39.645Z</time>
      </trkpt>
      <trkpt lat="43.99818" lon="2.96981">
        <ele>415.152894</ele>
        <time>2021-04-30T23:10:49.431Z</time>
      </trkpt>
      <trkpt lat="43.99545" lon="2.96896">
        <ele>415.167393</ele>
        <time>2021-04-30T23:11:53.823Z</time>
      </trkpt>
      <trkpt lat="43.99501" lon="2.96878">
        <ele>415.414469</ele>
        <time>2021-04-30T23:12:05.082Z</time>
      </trkpt>
      <trkpt lat="43.99364" lon="2.96791">
        <ele>416.686852</ele>
        <time>2021-04-30T23:12:43.790Z</time>
      </trkpt>
      <trkpt lat="43.99281" lon="2.96764">
        <ele>417.620742</ele>
        <time>2021-04-30T23:13:06.871Z</time>
      </trkpt>
      <trkpt lat="43.99164" lon="2.96745">
        <ele>418.968509</ele>
        <time>2021-04-30T23:13:38.146Z</time>
      </trkpt>
      <trkpt lat="43.99127" lon="2.96741">
        <ele>419.480957</ele>
        <time>2021-04-30T23:13:48.399Z</time>
      </trkpt>
      <trkpt lat="43.99039" lon="2.96723">
        <ele>420.690889</ele>
        <time>2021-04-30T23:14:13.039Z</time>
      </trkpt>
      <trkpt lat="43.9897" lon="2.96711">
        <ele>421.820527</ele>
        <time>2021-04-30T23:14:32.594Z</time>
      </trkpt>
      <trkpt lat="43.98958" lon="2.96709">
        <ele>422.071413</ele>
        <time>2021-04-30T23:14:36.175Z</time>
      </trkpt>
      <trkpt lat="43.98863" lon="2.96694">
        <ele>424.004876</ele>
        <time>2021-04-30T23:15:05.108Z</time>
      </trkpt>
      <trkpt lat="43.98787" lon="2.96685">
        <ele>425.749677</ele>
        <time>2021-04-30T23:15:29.535Z</time>
      </trkpt>
      <trkpt lat="43.98699" lon="2.96667">
        <ele>428.131942</ele>
        <time>2021-04-30T23:15:59.185Z</time>
      </trkpt>
      <trkpt lat="43.98644" lon="2.96662">
        <ele>429.587378</ele>
        <time>2021-04-30T23:16:17.564Z</time>
      </trkpt>
      <trkpt lat="43.98548" lon="2.96679">
        <ele>431.910481</ele>
        <time>2021-04-30T23:16:49.283Z</time>
      </trkpt>
      <trkpt lat="43.98492" lon="2.96677">
        <ele>433.257578</ele>
        <time>2021-04-30T23:17:06.781Z</time>
      </trkpt>
      <trkpt lat="43.98461" lon="2.96669">
        <ele>434.003207</ele>
        <time>2021-04-30T23:17:16.329Z</time>
      </trkpt>
      <trkpt lat="43.98391" lon="2.96633">
        <ele>435.428276</ele>
        <time>2021-04-30T23:17:38.286Z</time>
      </trkpt>
      <trkpt lat="43.9837" lon="2.96623">
        <ele>435.855129</ele>
        <time>2021-04-30T23:17:44.727Z</time>
      </trkpt>
      <trkpt lat="43.98366" lon="2.96622">
        <ele>435.933641</ele>
        <time>2021-04-30T23:17:45.864Z</time>
      </trkpt>
      <trkpt lat="43.98364" lon="2.96603">
        <ele>436.197541</ele>
        <time>2021-04-30T23:17:50.355Z</time>
      </trkpt>
      <trkpt lat="43.98341" lon="2.96581">
        <ele>436.726844</ele>
        <time>2021-04-30T23:17:58.602Z</time>
      </trkpt>
      <trkpt lat="43.98311" lon="2.96571">
        <ele>437.313184</ele>
        <time>2021-04-30T23:18:07.923Z</time>
      </trkpt>
      <trkpt lat="43.98272" lon="2.96576">
        <ele>438.251286</ele>
        <time>2021-04-30T23:18:20.370Z</time>
      </trkpt>
      <trkpt lat="43.98264" lon="2.96583">
        <ele>438.501593</ele>
        <time>2021-04-30T23:18:23.862Z</time>
      </trkpt>
      <trkpt lat="43.98262" lon="2.96592">
        <ele>438.663239</ele>
        <time>2021-04-30T23:18:26.084Z</time>
      </trkpt>
      <trkpt lat="43.98151" lon="2.96577">
        <ele>441.444404</ele>
        <time>2021-04-30T23:19:02.205Z</time>
      </trkpt>
      <trkpt lat="43.98107" lon="2.96571">
        <ele>442.706191</ele>
        <time>2021-04-30T23:19:16.498Z</time>
      </trkpt>
      <trkpt lat="43.98037" lon="2.96561">
        <ele>444.948905</ele>
        <time>2021-04-30T23:19:41.416Z</time>
      </trkpt>
      <trkpt lat="43.97952" lon="2.96547">
        <ele>447.671193</ele>
        <time>2021-04-30T23:20:12.097Z</time>
      </trkpt>
      <trkpt lat="43.97933" lon="2.9654">
        <ele>448.274963</ele>
        <time>2021-04-30T23:20:19.183Z</time>
      </trkpt>
      <trkpt lat="43.97911" lon="2.96524">
        <ele>449.051823</ele>
        <time>2021-04-30T23:20:28.106Z</time>
      </trkpt>
      <trkpt lat="43.97864" lon="2.9648">
        <ele>450.78385</ele>
        <time>2021-04-30T23:20:47.503Z</time>
      </trkpt>
      <trkpt lat="43.97783" lon="2.96339">
        <ele>454.864295</ele>
        <time>2021-04-30T23:21:31.697Z</time>
      </trkpt>
      <trkpt lat="43.97767" lon="2.96318">
        <ele>455.586863</ele>
        <time>2021-04-30T23:21:39.049Z</time>
      </trkpt>
      <trkpt lat="43.97741" lon="2.96295">
        <ele>456.593339</ele>
        <time>2021-04-30T23:21:49.419Z</time>
      </trkpt>
      <trkpt lat="43.97716" lon="2.96277">
        <ele>457.490682</ele>
        <time>2021-04-30T23:21:59.265Z</time>
      </trkpt>
      <trkpt lat="43.97686" lon="2.9626">
        <ele>458.545663</ele>
        <time>2021-04-30T23:22:11.315Z</time>
      </trkpt>
      <trkpt lat="43.9767" lon="2.9625">
        <ele>459.146577</ele>
        <time>2021-04-30T23:22:18.349Z</time>
      </trkpt>
      <trkpt lat="43.97663" lon="2.96244">
        <ele>459.497189</ele>
        <time>2021-04-30T23:22:21.547Z</time>
      </trkpt>
      <trkpt lat="43.97616" lon="2.96215">
        <ele>461.576847</ele>
        <time>2021-04-30T23:22:41.431Z</time>
      </trkpt>
      <trkpt lat="43.97612" lon="2.96213">
        <ele>461.744816</ele>
        <time>2021-04-30T23:22:43.014Z</time>
      </trkpt>
      <trkpt lat="43.97592" lon="2.9619">
        <ele>462.803508</ele>
        <time>2021-04-30T23:22:52.511Z</time>
      </trkpt>
      <trkpt lat="43.97588" lon="2.96182">
        <ele>463.084812</ele>
        <time>2021-04-30T23:22:55.552Z</time>
      </trkpt>
      <trkpt lat="43.97586" lon="2.96171">
        <ele>463.448168</ele>
        <time>2021-04-30T23:22:58.824Z</time>
      </trkpt>
      <trkpt lat="43.97579" lon="2.96162">
        <ele>463.808359</ele>
        <time>2021-04-30T23:23:02.162Z</time>
      </trkpt>
      <trkpt lat="43.97573" lon="2.9616">
        <ele>464.05504</ele>
        <time>2021-04-30T23:23:04.510Z</time>
      </trkpt>
      <trkpt lat="43.97567" lon="2.9616">
        <ele>464.303955</ele>
        <time>2021-04-30T23:23:06.692Z</time>
      </trkpt>
      <trkpt lat="43.97561" lon="2.96162">
        <ele>464.554487</ele>
        <time>2021-04-30T23:23:09.445Z</time>
      </trkpt>
      <trkpt lat="43.97555" lon="2.9617">
        <ele>464.881824</ele>
        <time>2021-04-30T23:23:12.491Z</time>
      </trkpt>
      <trkpt lat="43.97529" lon="2.96162">
        <ele>466.000158</ele>
        <time>2021-04-30T23:23:23.491Z</time>
      </trkpt>
      <trkpt lat="43.97503" lon="2.9615">
        <ele>466.926434</ele>
        <time>2021-04-30T23:23:34.206Z</time>
      </trkpt>
      <trkpt lat="43.97482" lon="2.96144">
        <ele>467.565961</ele>
        <time>2021-04-30T23:23:42.520Z</time>
      </trkpt>
      <trkpt lat="43.97456" lon="2.96136">
        <ele>468.40085</ele>
        <time>2021-04-30T23:23:52.777Z</time>
      </trkpt>
      <trkpt lat="43.97448" lon="2.96135">
        <ele>468.638245</ele>
        <time>2021-04-30T23:23:55.439Z</time>
      </trkpt>
      <trkpt lat="43.97432" lon="2.96131">
        <ele>469.15187</ele>
        <time>2021-04-30T23:24:01.070Z</time>
      </trkpt>
      <trkpt lat="43.97419" lon="2.96128">
        <ele>469.542469</ele>
        <time>2021-04-30T23:24:05.038Z</time>
      </trkpt>
      <trkpt lat="43.97376" lon="2.96118">
        <ele>470.875833</ele>
        <time>2021-04-30T23:24:18.215Z</time>
      </trkpt>
      <trkpt lat="43.97361" lon="2.96115">
        <ele>471.342163</ele>
        <time>2021-04-30T23:24:22.739Z</time>
      </trkpt>
      <trkpt lat="43.97349" lon="2.96115">
        <ele>471.727121</ele>
        <time>2021-04-30T23:24:26.569Z</time>
      </trkpt>
      <trkpt lat="43.9734" lon="2.96117">
        <ele>472.01791</ele>
        <time>2021-04-30T23:24:29.488Z</time>
      </trkpt>
      <trkpt lat="43.97321" lon="2.96124">
        <ele>472.614267</ele>
        <time>2021-04-30T23:24:35.652Z</time>
      </trkpt>
      <trkpt lat="43.97291" lon="2.96141">
        <ele>473.642203</ele>
        <time>2021-04-30T23:24:46.677Z</time>
      </trkpt>
      <trkpt lat="43.97268" lon="2.96154">
        <ele>474.399431</ele>
        <time>2021-04-30T23:24:54.953Z</time>
      </trkpt>
      <trkpt lat="43.97257" lon="2.9616">
        <ele>474.780925</ele>
        <time>2021-04-30T23:24:59.201Z</time>
      </trkpt>
      <trkpt lat="43.97244" lon="2.96165">
        <ele>475.187765</ele>
        <time>2021-04-30T23:25:03.761Z</time>
      </trkpt>
      <trkpt lat="43.9723" lon="2.96168">
        <ele>475.642488</ele>
        <time>2021-04-30T23:25:08.686Z</time>
      </trkpt>
      <trkpt lat="43.97224" lon="2.96168">
        <ele>475.818292</ele>
        <time>2021-04-30T23:25:10.684Z</time>
      </trkpt>
      <trkpt lat="43.97209" lon="2.96168">
        <ele>476.283603</ele>
        <time>2021-04-30T23:25:15.808Z</time>
      </trkpt>
      <trkpt lat="43.97161" lon="2.96161">
        <ele>477.983501</ele>
        <time>2021-04-30T23:25:33.885Z</time>
      </trkpt>
      <trkpt lat="43.97092" lon="2.96147">
        <ele>481.467725</ele>
        <time>2021-04-30T23:26:02.806Z</time>
      </trkpt>
      <trkpt lat="43.97057" lon="2.96143">
        <ele>483.178748</ele>
        <time>2021-04-30T23:26:18.025Z</time>
      </trkpt>
      <trkpt lat="43.97037" lon="2.9614">
        <ele>484.194468</ele>
        <time>2021-04-30T23:26:27.611Z</time>
      </trkpt>
      <trkpt lat="43.96989" lon="2.9614">
        <ele>486.564971</ele>
        <time>2021-04-30T23:26:48.043Z</time>
      </trkpt>
      <trkpt lat="43.96942" lon="2.96152">
        <ele>489.005036</ele>
        <time>2021-04-30T23:27:08.695Z</time>
      </trkpt>
      <trkpt lat="43.96896" lon="2.96178">
        <ele>491.556453</ele>
        <time>2021-04-30T23:27:30.637Z</time>
      </trkpt>
      <trkpt lat="43.96804" lon="2.96249">
        <ele>496.867248</ele>
        <time>2021-04-30T23:28:14.455Z</time>
      </trkpt>
      <trkpt lat="43.96654" lon="2.96369">
        <ele>504.969871</ele>
        <time>2021-04-30T23:29:26.085Z</time>
      </trkpt>
      <trkpt lat="43.9662" lon="2.96396">
        <ele>506.594993</ele>
        <time>2021-04-30T23:29:41.428Z</time>
      </trkpt>
      <trkpt lat="43.96573" lon="2.96433">
        <ele>508.828646</ele>
        <time>2021-04-30T23:30:02.151Z</time>
      </trkpt>
      <trkpt lat="43.9654" lon="2.96457">
        <ele>510.351014</ele>
        <time>2021-04-30T23:30:16.145Z</time>
      </trkpt>
      <trkpt lat="43.96495" lon="2.96477">
        <ele>512.050949</ele>
        <time>2021-04-30T23:30:34.054Z</time>
      </trkpt>
      <trkpt lat="43.96448" lon="2.96482">
        <ele>513.322884</ele>
        <time>2021-04-30T23:30:52.073Z</time>
      </trkpt>
      <trkpt lat="43.96417" lon="2.96475">
        <ele>514.175716</ele>
        <time>2021-04-30T23:31:03.331Z</time>
      </trkpt>
      <trkpt lat="43.96302" lon="2.96445">
        <ele>515.293239</ele>
        <time>2021-04-30T23:31:37.874Z</time>
      </trkpt>
      <trkpt lat="43.96249" lon="2.9643">
        <ele>513.395107</ele>
        <time>2021-04-30T23:31:47.583Z</time>
      </trkpt>
      <trkpt lat="43.96165" lon="2.96407">
        <ele>510.448677</ele>
        <time>2021-04-30T23:32:00.087Z</time>
      </trkpt>
      <trkpt lat="43.9611" lon="2.9639">
        <ele>506.11702</ele>
        <time>2021-04-30T23:32:07.899Z</time>
      </trkpt>
      <trkpt lat="43.96039" lon="2.9637">
        <ele>500.01476</ele>
        <time>2021-04-30T23:32:18.003Z</time>
      </trkpt>
      <trkpt lat="43.96025" lon="2.96367">
        <ele>498.888168</ele>
        <time>2021-04-30T23:32:19.850Z</time>
      </trkpt>
      <trkpt lat="43.9598" lon="2.96349">
        <ele>494.988636</ele>
        <time>2021-04-30T23:32:26.382Z</time>
      </trkpt>
      <trkpt lat="43.95948" lon="2.96318">
        <ele>492.524377</ele>
        <time>2021-04-30T23:32:31.923Z</time>
      </trkpt>
      <trkpt lat="43.95928" lon="2.96289">
        <ele>490.745444</ele>
        <time>2021-04-30T23:32:35.973Z</time>
      </trkpt>
      <trkpt lat="43.95918" lon="2.96264">
        <ele>489.48243</ele>
        <time>2021-04-30T23:32:38.941Z</time>
      </trkpt>
      <trkpt lat="43.95912" lon="2.96241">
        <ele>488.360518</ele>
        <time>2021-04-30T23:32:41.608Z</time>
      </trkpt>
      <trkpt lat="43.95902" lon="2.96183">
        <ele>485.691562</ele>
        <time>2021-04-30T23:32:48.160Z</time>
      </trkpt>
      <trkpt lat="43.95893" lon="2.96145">
        <ele>483.884926</ele>
        <time>2021-04-30T23:32:52.642Z</time>
      </trkpt>
      <trkpt lat="43.95877" lon="2.96104">
        <ele>482.516171</ele>
        <time>2021-04-30T23:32:57.669Z</time>
      </trkpt>
      <trkpt lat="43.95778" lon="2.95906">
        <ele>475.481777</ele>
        <time>2021-04-30T23:33:24.954Z</time>
      </trkpt>
      <trkpt lat="43.95765" lon="2.95868">
        <ele>474.38778</ele>
        <time>2021-04-30T23:33:29.916Z</time>
      </trkpt>
      <trkpt lat="43.95722" lon="2.95576">
        <ele>466.677891</ele>
        <time>2021-04-30T23:34:04.420Z</time>
      </trkpt>
      <trkpt lat="43.95703" lon="2.95497">
        <ele>464.494905</ele>
        <time>2021-04-30T23:34:14.033Z</time>
      </trkpt>
      <trkpt lat="43.957" lon="2.95487">
        <ele>464.210821</ele>
        <time>2021-04-30T23:34:15.210Z</time>
      </trkpt>
      <trkpt lat="43.95664" lon="2.95413">
        <ele>462.164261</ele>
        <time>2021-04-30T23:34:25.446Z</time>
      </trkpt>
      <trkpt lat="43.95596" lon="2.95308">
        <ele>459.113881</ele>
        <time>2021-04-30T23:34:41.883Z</time>
      </trkpt>
      <trkpt lat="43.95581" lon="2.95277">
        <ele>458.287356</ele>
        <time>2021-04-30T23:34:47.091Z</time>
      </trkpt>
      <trkpt lat="43.95572" lon="2.95241">
        <ele>457.706984</ele>
        <time>2021-04-30T23:34:52.022Z</time>
      </trkpt>
      <trkpt lat="43.95567" lon="2.95202">
        <ele>457.179105</ele>
        <time>2021-04-30T23:34:57.301Z</time>
      </trkpt>
      <trkpt lat="43.9557" lon="2.95158">
        <ele>456.59567</ele>
        <time>2021-04-30T23:35:03.071Z</time>
      </trkpt>
      <trkpt lat="43.95577" lon="2.95126">
        <ele>456.143967</ele>
        <time>2021-04-30T23:35:07.804Z</time>
      </trkpt>
      <trkpt lat="43.95589" lon="2.95093">
        <ele>455.642359</ele>
        <time>2021-04-30T23:35:12.355Z</time>
      </trkpt>
      <trkpt lat="43.95595" lon="2.95084">
        <ele>455.482284</ele>
        <time>2021-04-30T23:35:14.485Z</time>
      </trkpt>
      <trkpt lat="43.95607" lon="2.95063">
        <ele>455.121375</ele>
        <time>2021-04-30T23:35:17.663Z</time>
      </trkpt>
      <trkpt lat="43.95668" lon="2.94976">
        <ele>452.214249</ele>
        <time>2021-04-30T23:35:32.595Z</time>
      </trkpt>
      <trkpt lat="43.95681" lon="2.94945">
        <ele>451.250045</ele>
        <time>2021-04-30T23:35:36.477Z</time>
      </trkpt>
      <trkpt lat="43.95689" lon="2.94894">
        <ele>449.83697</ele>
        <time>2021-04-30T23:35:42.316Z</time>
      </trkpt>
      <trkpt lat="43.95688" lon="2.94866">
        <ele>449.094513</ele>
        <time>2021-04-30T23:35:45.431Z</time>
      </trkpt>
      <trkpt lat="43.95678" lon="2.94822">
        <ele>447.837326</ele>
        <time>2021-04-30T23:35:50.588Z</time>
      </trkpt>
      <trkpt lat="43.9567" lon="2.94802">
        <ele>447.235082</ele>
        <time>2021-04-30T23:35:52.963Z</time>
      </trkpt>
      <trkpt lat="43.95663" lon="2.94786">
        <ele>446.724944</ele>
        <time>2021-04-30T23:35:55.193Z</time>
      </trkpt>
      <trkpt lat="43.9557" lon="2.94596">
        <ele>440.74974</ele>
        <time>2021-04-30T23:36:21.632Z</time>
      </trkpt>
      <trkpt lat="43.95526" lon="2.94498">
        <ele>438.500155</ele>
        <time>2021-04-30T23:36:35.793Z</time>
      </trkpt>
      <trkpt lat="43.95514" lon="2.94449">
        <ele>437.473608</ele>
        <time>2021-04-30T23:36:42.333Z</time>
      </trkpt>
      <trkpt lat="43.95504" lon="2.94302">
        <ele>434.885692</ele>
        <time>2021-04-30T23:37:00.119Z</time>
      </trkpt>
      <trkpt lat="43.95493" lon="2.94239">
        <ele>433.836092</ele>
        <time>2021-04-30T23:37:08.092Z</time>
      </trkpt>
      <trkpt lat="43.95483" lon="2.94205">
        <ele>433.225574</ele>
        <time>2021-04-30T23:37:12.781Z</time>
      </trkpt>
      <trkpt lat="43.95465" lon="2.94144">
        <ele>432.227448</ele>
        <time>2021-04-30T23:37:21.305Z</time>
      </trkpt>
      <trkpt lat="43.95457" lon="2.94106">
        <ele>431.850904</ele>
        <time>2021-04-30T23:37:26.565Z</time>
      </trkpt>
      <trkpt lat="43.9546" lon="2.94036">
        <ele>431.195751</ele>
        <time>2021-04-30T23:37:35.827Z</time>
      </trkpt>
      <trkpt lat="43.9548" lon="2.93977">
        <ele>430.578154</ele>
        <time>2021-04-30T23:37:44.912Z</time>
      </trkpt>
      <trkpt lat="43.95538" lon="2.93872">
        <ele>428.969842</ele>
        <time>2021-04-30T23:38:03.305Z</time>
      </trkpt>
      <trkpt lat="43.95552" lon="2.93811">
        <ele>428.044892</ele>
        <time>2021-04-30T23:38:11.375Z</time>
      </trkpt>
      <trkpt lat="43.95552" lon="2.93773">
        <ele>427.475811</ele>
        <time>2021-04-30T23:38:16.169Z</time>
      </trkpt>
      <trkpt lat="43.95547" lon="2.93738">
        <ele>426.960465</ele>
        <time>2021-04-30T23:38:20.429Z</time>
      </trkpt>
      <trkpt lat="43.95503" lon="2.93612">
        <ele>424.145078</ele>
        <time>2021-04-30T23:38:37.150Z</time>
      </trkpt>
      <trkpt lat="43.95481" lon="2.93532">
        <ele>422.205079</ele>
        <time>2021-04-30T23:38:47.187Z</time>
      </trkpt>
      <trkpt lat="43.9546" lon="2.93372">
        <ele>419.003693</ele>
        <time>2021-04-30T23:39:06.333Z</time>
      </trkpt>
      <trkpt lat="43.95453" lon="2.93304">
        <ele>417.791003</ele>
        <time>2021-04-30T23:39:14.839Z</time>
      </trkpt>
      <trkpt lat="43.95443" lon="2.93219">
        <ele>416.278981</ele>
        <time>2021-04-30T23:39:25.945Z</time>
      </trkpt>
      <trkpt lat="43.95438" lon="2.93159">
        <ele>415.54446</ele>
        <time>2021-04-30T23:39:33.764Z</time>
      </trkpt>
      <trkpt lat="43.95437" lon="2.93112">
        <ele>414.989501</ele>
        <time>2021-04-30T23:39:39.722Z</time>
      </trkpt>
      <trkpt lat="43.95441" lon="2.9305">
        <ele>414.241159</ele>
        <time>2021-04-30T23:39:48.113Z</time>
      </trkpt>
      <trkpt lat="43.95461" lon="2.92924">
        <ele>412.566808</ele>
        <time>2021-04-30T23:40:05.120Z</time>
      </trkpt>
      <trkpt lat="43.95473" lon="2.92815">
        <ele>410.95928</ele>
        <time>2021-04-30T23:40:18.987Z</time>
      </trkpt>
      <trkpt lat="43.95468" lon="2.92734">
        <ele>409.774657</ele>
        <time>2021-04-30T23:40:29.288Z</time>
      </trkpt>
      <trkpt lat="43.95456" lon="2.92666">
        <ele>408.515366</ele>
        <time>2021-04-30T23:40:37.909Z</time>
      </trkpt>
      <trkpt lat="43.95442" lon="2.92594">
        <ele>407.11953</ele>
        <time>2021-04-30T23:40:46.816Z</time>
      </trkpt>
      <trkpt lat="43.95435" lon="2.92565">
        <ele>406.541132</ele>
        <time>2021-04-30T23:40:50.592Z</time>
      </trkpt>
      <trkpt lat="43.9542" lon="2.92521">
        <ele>405.649161</ele>
        <time>2021-04-30T23:40:56.448Z</time>
      </trkpt>
      <trkpt lat="43.95406" lon="2.92488">
        <ele>404.922867</ele>
        <time>2021-04-30T23:41:01.274Z</time>
      </trkpt>
      <trkpt lat="43.95389" lon="2.92456">
        <ele>404.243359</ele>
        <time>2021-04-30T23:41:06.106Z</time>
      </trkpt>
      <trkpt lat="43.95372" lon="2.92425">
        <ele>403.5857</ele>
        <time>2021-04-30T23:41:10.747Z</time>
      </trkpt>
      <trkpt lat="43.95329" lon="2.92348">
        <ele>401.931262</ele>
        <time>2021-04-30T23:41:22.447Z</time>
      </trkpt>
      <trkpt lat="43.95308" lon="2.92306">
        <ele>401.055223</ele>
        <time>2021-04-30T23:41:28.938Z</time>
      </trkpt>
      <trkpt lat="43.95291" lon="2.92265">
        <ele>400.396014</ele>
        <time>2021-04-30T23:41:35.201Z</time>
      </trkpt>
      <trkpt lat="43.95287" lon="2.92253">
        <ele>400.230003</ele>
        <time>2021-04-30T23:41:37.181Z</time>
      </trkpt>
      <trkpt lat="43.95283" lon="2.92241">
        <ele>400.076713</ele>
        <time>2021-04-30T23:41:39.025Z</time>
      </trkpt>
      <trkpt lat="43.95255" lon="2.92074">
        <ele>398.060981</ele>
        <time>2021-04-30T23:42:01.568Z</time>
      </trkpt>
      <trkpt lat="43.95248" lon="2.9202">
        <ele>397.201562</ele>
        <time>2021-04-30T23:42:08.558Z</time>
      </trkpt>
      <trkpt lat="43.95244" lon="2.92003">
        <ele>396.845858</ele>
        <time>2021-04-30T23:42:10.946Z</time>
      </trkpt>
      <trkpt lat="43.95223" lon="2.91921">
        <ele>395.177541</ele>
        <time>2021-04-30T23:42:21.591Z</time>
      </trkpt>
      <trkpt lat="43.95113" lon="2.91622">
        <ele>387.703029</ele>
        <time>2021-04-30T23:43:00.880Z</time>
      </trkpt>
      <trkpt lat="43.95075" lon="2.9152">
        <ele>384.808594</ele>
        <time>2021-04-30T23:43:14.379Z</time>
      </trkpt>
      <trkpt lat="43.95062" lon="2.9149">
        <ele>383.910769</ele>
        <time>2021-04-30T23:43:18.398Z</time>
      </trkpt>
      <trkpt lat="43.95015" lon="2.91394">
        <ele>380.914964</ele>
        <time>2021-04-30T23:43:31.663Z</time>
      </trkpt>
      <trkpt lat="43.95014" lon="2.91393">
        <ele>380.860578</ele>
        <time>2021-04-30T23:43:31.866Z</time>
      </trkpt>
      <trkpt lat="43.9496" lon="2.91313">
        <ele>377.795045</ele>
        <time>2021-04-30T23:43:44.413Z</time>
      </trkpt>
      <trkpt lat="43.94939" lon="2.91289">
        <ele>376.751575</ele>
        <time>2021-04-30T23:43:48.612Z</time>
      </trkpt>
      <trkpt lat="43.94911" lon="2.91259">
        <ele>375.354083</ele>
        <time>2021-04-30T23:43:54.160Z</time>
      </trkpt>
      <trkpt lat="43.94887" lon="2.91235">
        <ele>374.198034</ele>
        <time>2021-04-30T23:43:58.707Z</time>
      </trkpt>
      <trkpt lat="43.94842" lon="2.91191">
        <ele>372.216448</ele>
        <time>2021-04-30T23:44:07.552Z</time>
      </trkpt>
      <trkpt lat="43.9483" lon="2.91179">
        <ele>371.726638</ele>
        <time>2021-04-30T23:44:09.766Z</time>
      </trkpt>
      <trkpt lat="43.94785" lon="2.91135">
        <ele>369.869915</ele>
        <time>2021-04-30T23:44:18.726Z</time>
      </trkpt>
      <trkpt lat="43.9475" lon="2.91087">
        <ele>368.212121</ele>
        <time>2021-04-30T23:44:26.717Z</time>
      </trkpt>
      <trkpt lat="43.94731" lon="2.91031">
        <ele>366.838454</ele>
        <time>2021-04-30T23:44:34.176Z</time>
      </trkpt>
      <trkpt lat="43.94701" lon="2.90888">
        <ele>363.988861</ele>
        <time>2021-04-30T23:44:52.447Z</time>
      </trkpt>
      <trkpt lat="43.94683" lon="2.9081">
        <ele>362.476576</ele>
        <time>2021-04-30T23:45:02.318Z</time>
      </trkpt>
      <trkpt lat="43.94668" lon="2.9075">
        <ele>361.545511</ele>
        <time>2021-04-30T23:45:09.955Z</time>
      </trkpt>
      <trkpt lat="43.94661" lon="2.90721">
        <ele>361.102566</ele>
        <time>2021-04-30T23:45:13.669Z</time>
      </trkpt>
      <trkpt lat="43.94636" lon="2.90625">
        <ele>359.619013</ele>
        <time>2021-04-30T23:45:26.356Z</time>
      </trkpt>
      <trkpt lat="43.9463" lon="2.90594">
        <ele>359.143951</ele>
        <time>2021-04-30T23:45:31.206Z</time>
      </trkpt>
      <trkpt lat="43.94627" lon="2.90561">
        <ele>359.115618</ele>
        <time>2021-04-30T23:45:35.893Z</time>
      </trkpt>
      <trkpt lat="43.94627" lon="2.90509">
        <ele>359.396172</ele>
        <time>2021-04-30T23:45:44.230Z</time>
      </trkpt>
      <trkpt lat="43.94627" lon="2.90431">
        <ele>359.811115</ele>
        <time>2021-04-30T23:45:58.531Z</time>
      </trkpt>
      <trkpt lat="43.94629" lon="2.90401">
        <ele>359.974407</ele>
        <time>2021-04-30T23:46:06.988Z</time>
      </trkpt>
      <trkpt lat="43.94641" lon="2.9037">
        <ele>360.163536</ele>
        <time>2021-04-30T23:46:13.885Z</time>
      </trkpt>
      <trkpt lat="43.94662" lon="2.90356">
        <ele>360.325808</ele>
        <time>2021-04-30T23:46:19.754Z</time>
      </trkpt>
      <trkpt lat="43.94676" lon="2.90355">
        <ele>360.21642</ele>
        <time>2021-04-30T23:46:24.012Z</time>
      </trkpt>
      <trkpt lat="43.94712" lon="2.9037">
        <ele>359.897993</ele>
        <time>2021-04-30T23:46:34.251Z</time>
      </trkpt>
      <trkpt lat="43.94741" lon="2.9037">
        <ele>359.654452</ele>
        <time>2021-04-30T23:46:40.105Z</time>
      </trkpt>
      <trkpt lat="43.94757" lon="2.90364">
        <ele>359.517844</ele>
        <time>2021-04-30T23:46:44.835Z</time>
      </trkpt>
      <trkpt lat="43.94769" lon="2.90354">
        <ele>359.406008</ele>
        <time>2021-04-30T23:46:47.000Z</time>
      </trkpt>
      <trkpt lat="43.94779" lon="2.90339">
        <ele>359.279353</ele>
        <time>2021-04-30T23:46:50.059Z</time>
      </trkpt>
      <trkpt lat="43.94788" lon="2.90321">
        <ele>359.151099</ele>
        <time>2021-04-30T23:46:52.573Z</time>
      </trkpt>
      <trkpt lat="43.94816" lon="2.9024">
        <ele>357.798145</ele>
        <time>2021-04-30T23:47:03.362Z</time>
      </trkpt>
      <trkpt lat="43.94832" lon="2.90206">
        <ele>356.671158</ele>
        <time>2021-04-30T23:47:07.814Z</time>
      </trkpt>
      <trkpt lat="43.94851" lon="2.90173">
        <ele>355.496941</ele>
        <time>2021-04-30T23:47:12.379Z</time>
      </trkpt>
      <trkpt lat="43.94861" lon="2.90154">
        <ele>354.8148</ele>
        <time>2021-04-30T23:47:14.902Z</time>
      </trkpt>
      <trkpt lat="43.94874" lon="2.9013">
        <ele>353.987825</ele>
        <time>2021-04-30T23:47:18.299Z</time>
      </trkpt>
      <trkpt lat="43.94877" lon="2.901">
        <ele>353.144629</ele>
        <time>2021-04-30T23:47:21.805Z</time>
      </trkpt>
      <trkpt lat="43.94874" lon="2.90085">
        <ele>352.704501</ele>
        <time>2021-04-30T23:47:23.730Z</time>
      </trkpt>
      <trkpt lat="43.9487" lon="2.90079">
        <ele>352.474694</ele>
        <time>2021-04-30T23:47:24.619Z</time>
      </trkpt>
      <trkpt lat="43.94862" lon="2.90066">
        <ele>351.995214</ele>
        <time>2021-04-30T23:47:26.675Z</time>
      </trkpt>
      <trkpt lat="43.94852" lon="2.90048">
        <ele>351.647059</ele>
        <time>2021-04-30T23:47:29.562Z</time>
      </trkpt>
      <trkpt lat="43.9485" lon="2.90046">
        <ele>351.616646</ele>
        <time>2021-04-30T23:47:29.866Z</time>
      </trkpt>
      <trkpt lat="43.94846" lon="2.90034">
        <ele>351.467451</ele>
        <time>2021-04-30T23:47:31.305Z</time>
      </trkpt>
      <trkpt lat="43.94843" lon="2.90025">
        <ele>351.345198</ele>
        <time>2021-04-30T23:47:32.676Z</time>
      </trkpt>
      <trkpt lat="43.94843" lon="2.89997">
        <ele>351.020119</ele>
        <time>2021-04-30T23:47:36.507Z</time>
      </trkpt>
      <trkpt lat="43.94847" lon="2.89971">
        <ele>350.708118</ele>
        <time>2021-04-30T23:47:39.869Z</time>
      </trkpt>
      <trkpt lat="43.94857" lon="2.89947">
        <ele>350.390239</ele>
        <time>2021-04-30T23:47:43.541Z</time>
      </trkpt>
      <trkpt lat="43.94886" lon="2.89885">
        <ele>349.514293</ele>
        <time>2021-04-30T23:47:53.758Z</time>
      </trkpt>
      <trkpt lat="43.94888" lon="2.89881">
        <ele>349.463093</ele>
        <time>2021-04-30T23:47:54.425Z</time>
      </trkpt>
      <trkpt lat="43.94904" lon="2.89861">
        <ele>349.117029</ele>
        <time>2021-04-30T23:47:58.570Z</time>
      </trkpt>
      <trkpt lat="43.94996" lon="2.89791">
        <ele>347.864828</ele>
        <time>2021-04-30T23:48:19.148Z</time>
      </trkpt>
      <trkpt lat="43.95063" lon="2.89742">
        <ele>346.988763</ele>
        <time>2021-04-30T23:48:33.512Z</time>
      </trkpt>
      <trkpt lat="43.95073" lon="2.89734">
        <ele>346.842861</ele>
        <time>2021-04-30T23:48:35.487Z</time>
      </trkpt>
      <trkpt lat="43.95097" lon="2.89732">
        <ele>346.234613</ele>
        <time>2021-04-30T23:48:39.986Z</time>
      </trkpt>
      <trkpt lat="43.95103" lon="2.89729">
        <ele>346.074438</ele>
        <time>2021-04-30T23:48:41.131Z</time>
      </trkpt>
      <trkpt lat="43.95113" lon="2.89722">
        <ele>345.802114</ele>
        <time>2021-04-30T23:48:42.956Z</time>
      </trkpt>
      <trkpt lat="43.9521" lon="2.89689">
        <ele>343.26346</ele>
        <time>2021-04-30T23:48:59.738Z</time>
      </trkpt>
      <trkpt lat="43.95237" lon="2.8968">
        <ele>342.571112</ele>
        <time>2021-04-30T23:49:04.175Z</time>
      </trkpt>
      <trkpt lat="43.95258" lon="2.89667">
        <ele>341.832958</ele>
        <time>2021-04-30T23:49:08.161Z</time>
      </trkpt>
      <trkpt lat="43.95264" lon="2.89661">
        <ele>341.569831</ele>
        <time>2021-04-30T23:49:09.352Z</time>
      </trkpt>
      <trkpt lat="43.95268" lon="2.89656">
        <ele>341.37429</ele>
        <time>2021-04-30T23:49:10.143Z</time>
      </trkpt>
      <trkpt lat="43.95279" lon="2.89644">
        <ele>340.878414</ele>
        <time>2021-04-30T23:49:12.553Z</time>
      </trkpt>
      <trkpt lat="43.95289" lon="2.89625">
        <ele>340.29788</ele>
        <time>2021-04-30T23:49:15.158Z</time>
      </trkpt>
      <trkpt lat="43.95313" lon="2.89588">
        <ele>338.984996</ele>
        <time>2021-04-30T23:49:20.993Z</time>
      </trkpt>
      <trkpt lat="43.95316" lon="2.89584">
        <ele>338.85103</ele>
        <time>2021-04-30T23:49:21.515Z</time>
      </trkpt>
      <trkpt lat="43.95347" lon="2.89531">
        <ele>337.100938</ele>
        <time>2021-04-30T23:49:29.264Z</time>
      </trkpt>
      <trkpt lat="43.95376" lon="2.89482">
        <ele>335.577844</ele>
        <time>2021-04-30T23:49:36.574Z</time>
      </trkpt>
      <trkpt lat="43.95426" lon="2.894">
        <ele>333.590034</ele>
        <time>2021-04-30T23:49:49.380Z</time>
      </trkpt>
      <trkpt lat="43.95429" lon="2.89396">
        <ele>333.493427</ele>
        <time>2021-04-30T23:49:50.031Z</time>
      </trkpt>
      <trkpt lat="43.95456" lon="2.89353">
        <ele>332.415956</ele>
        <time>2021-04-30T23:49:57.302Z</time>
      </trkpt>
      <trkpt lat="43.95474" lon="2.89323">
        <ele>331.704426</ele>
        <time>2021-04-30T23:50:02.183Z</time>
      </trkpt>
      <trkpt lat="43.95476" lon="2.89321">
        <ele>331.632334</ele>
        <time>2021-04-30T23:50:02.653Z</time>
      </trkpt>
      <trkpt lat="43.95476" lon="2.89321">
        <ele>331.632334</ele>
        <time>2021-04-30T23:50:02.654Z</time>
      </trkpt>
      <trkpt lat="43.95484" lon="2.89314">
        <ele>331.386777</ele>
        <time>2021-04-30T23:50:04.382Z</time>
      </trkpt>
      <trkpt lat="43.95489" lon="2.89307">
        <ele>331.237948</ele>
        <time>2021-04-30T23:50:05.632Z</time>
      </trkpt>
      <trkpt lat="43.95491" lon="2.89299">
        <ele>331.159228</ele>
        <time>2021-04-30T23:50:06.767Z</time>
      </trkpt>
      <trkpt lat="43.95491" lon="2.89295">
        <ele>331.116699</ele>
        <time>2021-04-30T23:50:07.365Z</time>
      </trkpt>
      <trkpt lat="43.95496" lon="2.89291">
        <ele>331.052062</ele>
        <time>2021-04-30T23:50:08.317Z</time>
      </trkpt>
      <trkpt lat="43.95499" lon="2.89286">
        <ele>330.986684</ele>
        <time>2021-04-30T23:50:09.231Z</time>
      </trkpt>
      <trkpt lat="43.955" lon="2.89279">
        <ele>330.920996</ele>
        <time>2021-04-30T23:50:10.184Z</time>
      </trkpt>
      <trkpt lat="43.9551" lon="2.89265">
        <ele>330.74848</ele>
        <time>2021-04-30T23:50:12.752Z</time>
      </trkpt>
      <trkpt lat="43.95518" lon="2.89256">
        <ele>330.618291</ele>
        <time>2021-04-30T23:50:14.655Z</time>
      </trkpt>
      <trkpt lat="43.95523" lon="2.89243">
        <ele>330.482194</ele>
        <time>2021-04-30T23:50:16.638Z</time>
      </trkpt>
      <trkpt lat="43.95533" lon="2.89227">
        <ele>330.2863</ele>
        <time>2021-04-30T23:50:19.610Z</time>
      </trkpt>
      <trkpt lat="43.95541" lon="2.89215">
        <ele>330.145702</ele>
        <time>2021-04-30T23:50:21.723Z</time>
      </trkpt>
      <trkpt lat="43.95567" lon="2.89172">
        <ele>329.63837</ele>
        <time>2021-04-30T23:50:29.346Z</time>
      </trkpt>
      <trkpt lat="43.95644" lon="2.89046">
        <ele>328.84147</ele>
        <time>2021-04-30T23:50:52.931Z</time>
      </trkpt>
      <trkpt lat="43.95647" lon="2.89042">
        <ele>328.833213</ele>
        <time>2021-04-30T23:50:53.684Z</time>
      </trkpt>
      <trkpt lat="43.95652" lon="2.89034">
        <ele>328.814836</ele>
        <time>2021-04-30T23:50:55.269Z</time>
      </trkpt>
      <trkpt lat="43.95666" lon="2.89012">
        <ele>328.764861</ele>
        <time>2021-04-30T23:50:59.861Z</time>
      </trkpt>
      <trkpt lat="43.95685" lon="2.88979">
        <ele>328.693633</ele>
        <time>2021-04-30T23:51:06.776Z</time>
      </trkpt>
      <trkpt lat="43.95712" lon="2.88935">
        <ele>328.596753</ele>
        <time>2021-04-30T23:51:16.520Z</time>
      </trkpt>
      <trkpt lat="43.95723" lon="2.88917">
        <ele>328.635686</ele>
        <time>2021-04-30T23:51:20.683Z</time>
      </trkpt>
      <trkpt lat="43.95732" lon="2.88902">
        <ele>328.706043</ele>
        <time>2021-04-30T23:51:24.054Z</time>
      </trkpt>
      <trkpt lat="43.95737" lon="2.88895">
        <ele>328.738797</ele>
        <time>2021-04-30T23:51:25.674Z</time>
      </trkpt>
      <trkpt lat="43.95758" lon="2.88862">
        <ele>328.899164</ele>
        <time>2021-04-30T23:51:33.472Z</time>
      </trkpt>
      <trkpt lat="43.95787" lon="2.88816">
        <ele>329.117837</ele>
        <time>2021-04-30T23:51:44.990Z</time>
      </trkpt>
      <trkpt lat="43.95804" lon="2.88789">
        <ele>329.248882</ele>
        <time>2021-04-30T23:51:51.757Z</time>
      </trkpt>
      <trkpt lat="43.95812" lon="2.88776">
        <ele>329.310231</ele>
        <time>2021-04-30T23:51:54.886Z</time>
      </trkpt>
      <trkpt lat="43.95817" lon="2.88767">
        <ele>329.35006</ele>
        <time>2021-04-30T23:51:56.790Z</time>
      </trkpt>
      <trkpt lat="43.95838" lon="2.88732">
        <ele>329.379194</ele>
        <time>2021-04-30T23:52:04.528Z</time>
      </trkpt>
      <trkpt lat="43.95847" lon="2.88718">
        <ele>329.180807</ele>
        <time>2021-04-30T23:52:07.306Z</time>
      </trkpt>
      <trkpt lat="43.95849" lon="2.88715">
        <ele>329.132421</ele>
        <time>2021-04-30T23:52:07.914Z</time>
      </trkpt>
      <trkpt lat="43.9585" lon="2.88713">
        <ele>329.099186</ele>
        <time>2021-04-30T23:52:08.347Z</time>
      </trkpt>
      <trkpt lat="43.95858" lon="2.88703">
        <ele>328.943313</ele>
        <time>2021-04-30T23:52:10.560Z</time>
      </trkpt>
      <trkpt lat="43.95862" lon="2.88698">
        <ele>328.860456</ele>
        <time>2021-04-30T23:52:11.678Z</time>
      </trkpt>
      <trkpt lat="43.9587" lon="2.88686">
        <ele>328.686105</ele>
        <time>2021-04-30T23:52:13.897Z</time>
      </trkpt>
      <trkpt lat="43.95873" lon="2.88678">
        <ele>328.584637</ele>
        <time>2021-04-30T23:52:15.125Z</time>
      </trkpt>
      <trkpt lat="43.95876" lon="2.88671">
        <ele>328.499625</ele>
        <time>2021-04-30T23:52:16.197Z</time>
      </trkpt>
      <trkpt lat="43.95876" lon="2.88664">
        <ele>328.427638</ele>
        <time>2021-04-30T23:52:16.971Z</time>
      </trkpt>
      <trkpt lat="43.95876" lon="2.88664">
        <ele>328.427638</ele>
        <time>2021-04-30T23:52:16.983Z</time>
      </trkpt>
      <trkpt lat="43.95873" lon="2.88651">
        <ele>328.277849</ele>
        <time>2021-04-30T23:52:18.755Z</time>
      </trkpt>
      <trkpt lat="43.95869" lon="2.88634">
        <ele>328.080937</ele>
        <time>2021-04-30T23:52:21.077Z</time>
      </trkpt>
      <trkpt lat="43.95861" lon="2.88601">
        <ele>327.696763</ele>
        <time>2021-04-30T23:52:25.412Z</time>
      </trkpt>
      <trkpt lat="43.95859" lon="2.88594">
        <ele>327.622618</ele>
        <time>2021-04-30T23:52:26.247Z</time>
      </trkpt>
      <trkpt lat="43.95847" lon="2.88542">
        <ele>327.032555</ele>
        <time>2021-04-30T23:52:33.015Z</time>
      </trkpt>
      <trkpt lat="43.95846" lon="2.88535">
        <ele>326.947952</ele>
        <time>2021-04-30T23:52:33.957Z</time>
      </trkpt>
      <trkpt lat="43.95834" lon="2.88479">
        <ele>326.361329</ele>
        <time>2021-04-30T23:52:41.372Z</time>
      </trkpt>
      <trkpt lat="43.95833" lon="2.88473">
        <ele>326.297036</ele>
        <time>2021-04-30T23:52:42.112Z</time>
      </trkpt>
      <trkpt lat="43.95832" lon="2.88468">
        <ele>326.245181</ele>
        <time>2021-04-30T23:52:42.802Z</time>
      </trkpt>
      <trkpt lat="43.9582" lon="2.88409">
        <ele>325.644095</ele>
        <time>2021-04-30T23:52:50.593Z</time>
      </trkpt>
      <trkpt lat="43.95818" lon="2.88404">
        <ele>325.589165</ele>
        <time>2021-04-30T23:52:51.300Z</time>
      </trkpt>
      <trkpt lat="43.95817" lon="2.88397">
        <ele>325.522605</ele>
        <time>2021-04-30T23:52:52.191Z</time>
      </trkpt>
      <trkpt lat="43.95813" lon="2.88383">
        <ele>325.370758</ele>
        <time>2021-04-30T23:52:54.132Z</time>
      </trkpt>
      <trkpt lat="43.95807" lon="2.88352">
        <ele>325.057208</ele>
        <time>2021-04-30T23:52:58.340Z</time>
      </trkpt>
      <trkpt lat="43.95802" lon="2.8833">
        <ele>324.837714</ele>
        <time>2021-04-30T23:53:01.125Z</time>
      </trkpt>
      <trkpt lat="43.958" lon="2.88322">
        <ele>324.752271</ele>
        <time>2021-04-30T23:53:02.333Z</time>
      </trkpt>
      <trkpt lat="43.95794" lon="2.88293">
        <ele>324.452481</ele>
        <time>2021-04-30T23:53:06.941Z</time>
      </trkpt>
      <trkpt lat="43.9579" lon="2.88271">
        <ele>324.519555</ele>
        <time>2021-04-30T23:53:10.129Z</time>
      </trkpt>
      <trkpt lat="43.95774" lon="2.88196">
        <ele>326.367525</ele>
        <time>2021-04-30T23:53:27.570Z</time>
      </trkpt>
      <trkpt lat="43.9577" lon="2.88172">
        <ele>326.938078</ele>
        <time>2021-04-30T23:53:34.205Z</time>
      </trkpt>
      <trkpt lat="43.9577" lon="2.8816">
        <ele>327.225946</ele>
        <time>2021-04-30T23:53:37.068Z</time>
      </trkpt>
      <trkpt lat="43.9577" lon="2.88156">
        <ele>327.325535</ele>
        <time>2021-04-30T23:53:38.097Z</time>
      </trkpt>
      <trkpt lat="43.95766" lon="2.88144">
        <ele>327.62266</ele>
        <time>2021-04-30T23:53:41.706Z</time>
      </trkpt>
      <trkpt lat="43.95764" lon="2.88142">
        <ele>327.72409</ele>
        <time>2021-04-30T23:53:42.897Z</time>
      </trkpt>
      <trkpt lat="43.95759" lon="2.88125">
        <ele>328.155911</ele>
        <time>2021-04-30T23:53:48.144Z</time>
      </trkpt>
      <trkpt lat="43.95757" lon="2.88117">
        <ele>328.357982</ele>
        <time>2021-04-30T23:53:50.199Z</time>
      </trkpt>
      <trkpt lat="43.95748" lon="2.8807">
        <ele>329.505844</ele>
        <time>2021-04-30T23:54:06.164Z</time>
      </trkpt>
      <trkpt lat="43.95746" lon="2.88064">
        <ele>329.666906</ele>
        <time>2021-04-30T23:54:07.862Z</time>
      </trkpt>
      <trkpt lat="43.95739" lon="2.88028">
        <ele>330.556849</ele>
        <time>2021-04-30T23:54:20.929Z</time>
      </trkpt>
      <trkpt lat="43.95711" lon="2.87894">
        <ele>334.055069</ele>
        <time>2021-04-30T23:55:01.123Z</time>
      </trkpt>
      <trkpt lat="43.95709" lon="2.87886">
        <ele>334.281045</ele>
        <time>2021-04-30T23:55:05.644Z</time>
      </trkpt>
      <trkpt lat="43.95706" lon="2.8787">
        <ele>334.680833</ele>
        <time>2021-04-30T23:55:08.377Z</time>
      </trkpt>
      <trkpt lat="43.957" lon="2.87806">
        <ele>336.320832</ele>
        <time>2021-04-30T23:55:21.308Z</time>
      </trkpt>
      <trkpt lat="43.95699" lon="2.87785">
        <ele>336.227781</ele>
        <time>2021-04-30T23:55:26.354Z</time>
      </trkpt>
      <trkpt lat="43.95699" lon="2.87755">
        <ele>335.655588</ele>
        <time>2021-04-30T23:55:30.067Z</time>
      </trkpt>
      <trkpt lat="43.95699" lon="2.87753">
        <ele>335.608247</ele>
        <time>2021-04-30T23:55:30.394Z</time>
      </trkpt>
      <trkpt lat="43.95699" lon="2.87739">
        <ele>335.356054</ele>
        <time>2021-04-30T23:55:33.649Z</time>
      </trkpt>
      <trkpt lat="43.95699" lon="2.87727">
        <ele>335.126207</ele>
        <time>2021-04-30T23:55:35.336Z</time>
      </trkpt>
      <trkpt lat="43.957" lon="2.8771">
        <ele>334.805397</ele>
        <time>2021-04-30T23:55:37.266Z</time>
      </trkpt>
      <trkpt lat="43.95705" lon="2.87664">
        <ele>333.939512</ele>
        <time>2021-04-30T23:55:43.167Z</time>
      </trkpt>
      <trkpt lat="43.95706" lon="2.87654">
        <ele>333.742237</ele>
        <time>2021-04-30T23:55:44.312Z</time>
      </trkpt>
      <trkpt lat="43.95721" lon="2.87539">
        <ele>331.560888</ele>
        <time>2021-04-30T23:55:57.006Z</time>
      </trkpt>
      <trkpt lat="43.95724" lon="2.87517">
        <ele>331.166922</ele>
        <time>2021-04-30T23:55:59.421Z</time>
      </trkpt>
      <trkpt lat="43.95725" lon="2.87504">
        <ele>330.926984</ele>
        <time>2021-04-30T23:56:00.896Z</time>
      </trkpt>
      <trkpt lat="43.9573" lon="2.87464">
        <ele>330.208907</ele>
        <time>2021-04-30T23:56:05.573Z</time>
      </trkpt>
      <trkpt lat="43.95735" lon="2.87427">
        <ele>329.547202</ele>
        <time>2021-04-30T23:56:10.086Z</time>
      </trkpt>
      <trkpt lat="43.9574" lon="2.87388">
        <ele>328.857763</ele>
        <time>2021-04-30T23:56:15.096Z</time>
      </trkpt>
      <trkpt lat="43.95743" lon="2.8736">
        <ele>328.345778</ele>
        <time>2021-04-30T23:56:19.122Z</time>
      </trkpt>
      <trkpt lat="43.9575" lon="2.87308">
        <ele>327.428966</ele>
        <time>2021-04-30T23:56:26.907Z</time>
      </trkpt>
      <trkpt lat="43.95751" lon="2.87298">
        <ele>327.477822</ele>
        <time>2021-04-30T23:56:28.712Z</time>
      </trkpt>
      <trkpt lat="43.95751" lon="2.87286">
        <ele>327.646384</ele>
        <time>2021-04-30T23:56:30.519Z</time>
      </trkpt>
      <trkpt lat="43.9575" lon="2.87245">
        <ele>328.18857</ele>
        <time>2021-04-30T23:56:37.972Z</time>
      </trkpt>
      <trkpt lat="43.95748" lon="2.872">
        <ele>328.798203</ele>
        <time>2021-04-30T23:56:46.592Z</time>
      </trkpt>
      <trkpt lat="43.95739" lon="2.87146">
        <ele>329.54728</ele>
        <time>2021-04-30T23:56:58.553Z</time>
      </trkpt>
      <trkpt lat="43.95727" lon="2.87077">
        <ele>330.512369</ele>
        <time>2021-04-30T23:57:16.382Z</time>
      </trkpt>
      <trkpt lat="43.95721" lon="2.87047">
        <ele>331.13771</ele>
        <time>2021-04-30T23:57:25.294Z</time>
      </trkpt>
      <trkpt lat="43.95719" lon="2.87035">
        <ele>331.478001</ele>
        <time>2021-04-30T23:57:28.492Z</time>
      </trkpt>
      <trkpt lat="43.95715" lon="2.87005">
        <ele>332.369014</ele>
        <time>2021-04-30T23:57:37.242Z</time>
      </trkpt>
      <trkpt lat="43.95713" lon="2.86991">
        <ele>332.781145</ele>
        <time>2021-04-30T23:57:41.216Z</time>
      </trkpt>
      <trkpt lat="43.95705" lon="2.86945">
        <ele>334.152122</ele>
        <time>2021-04-30T23:57:54.765Z</time>
      </trkpt>
      <trkpt lat="43.95696" lon="2.86892">
        <ele>335.71856</ele>
        <time>2021-04-30T23:58:10.081Z</time>
      </trkpt>
      <trkpt lat="43.95688" lon="2.8686">
        <ele>336.696663</ele>
        <time>2021-04-30T23:58:20.015Z</time>
      </trkpt>
      <trkpt lat="43.95679" lon="2.86801">
        <ele>338.038495</ele>
        <time>2021-04-30T23:58:36.788Z</time>
      </trkpt>
      <trkpt lat="43.9567" lon="2.8676">
        <ele>338.268506</ele>
        <time>2021-04-30T23:58:47.817Z</time>
      </trkpt>
      <trkpt lat="43.95654" lon="2.86683">
        <ele>338.699803</ele>
        <time>2021-04-30T23:59:05.396Z</time>
      </trkpt>
      <trkpt lat="43.95645" lon="2.86642">
        <ele>338.934158</ele>
        <time>2021-04-30T23:59:13.044Z</time>
      </trkpt>
      <trkpt lat="43.95641" lon="2.86616">
        <ele>339.07488</ele>
        <time>2021-04-30T23:59:16.501Z</time>
      </trkpt>
      <trkpt lat="43.95635" lon="2.86551">
        <ele>338.587028</ele>
        <time>2021-04-30T23:59:24.062Z</time>
      </trkpt>
      <trkpt lat="43.95642" lon="2.86426">
        <ele>334.959479</ele>
        <time>2021-04-30T23:59:37.961Z</time>
      </trkpt>
      <trkpt lat="43.95644" lon="2.86365">
        <ele>333.176009</ele>
        <time>2021-04-30T23:59:44.608Z</time>
      </trkpt>
      <trkpt lat="43.95645" lon="2.86313">
        <ele>331.856672</ele>
        <time>2021-04-30T23:59:50.613Z</time>
      </trkpt>
      <trkpt lat="43.95639" lon="2.86226">
        <ele>330.652004</ele>
        <time>2021-05-01T00:00:01.049Z</time>
      </trkpt>
      <trkpt lat="43.95627" lon="2.86144">
        <ele>329.491305</ele>
        <time>2021-05-01T00:00:12.179Z</time>
      </trkpt>
      <trkpt lat="43.9562" lon="2.86104">
        <ele>328.917238</ele>
        <time>2021-05-01T00:00:19.123Z</time>
      </trkpt>
      <trkpt lat="43.95588" lon="2.85976">
        <ele>327.624505</ele>
        <time>2021-05-01T00:00:38.426Z</time>
      </trkpt>
      <trkpt lat="43.95565" lon="2.85882">
        <ele>326.764026</ele>
        <time>2021-05-01T00:00:51.467Z</time>
      </trkpt>
      <trkpt lat="43.95547" lon="2.85815">
        <ele>326.225423</ele>
        <time>2021-05-01T00:01:00.857Z</time>
      </trkpt>
      <trkpt lat="43.95544" lon="2.85804">
        <ele>326.155046</ele>
        <time>2021-05-01T00:01:02.405Z</time>
      </trkpt>
      <trkpt lat="43.95523" lon="2.8572">
        <ele>325.606845</ele>
        <time>2021-05-01T00:01:14.638Z</time>
      </trkpt>
      <trkpt lat="43.95512" lon="2.85675">
        <ele>325.313405</ele>
        <time>2021-05-01T00:01:21.414Z</time>
      </trkpt>
      <trkpt lat="43.95505" lon="2.85647">
        <ele>325.12553</ele>
        <time>2021-05-01T00:01:25.953Z</time>
      </trkpt>
      <trkpt lat="43.95474" lon="2.85523">
        <ele>325.290815</ele>
        <time>2021-05-01T00:01:46.940Z</time>
      </trkpt>
      <trkpt lat="43.95449" lon="2.85425">
        <ele>325.760504</ele>
        <time>2021-05-01T00:02:05.985Z</time>
      </trkpt>
      <trkpt lat="43.95434" lon="2.85364">
        <ele>326.127643</ele>
        <time>2021-05-01T00:02:18.050Z</time>
      </trkpt>
      <trkpt lat="43.95364" lon="2.85092">
        <ele>328.967007</ele>
        <time>2021-05-01T00:03:20.676Z</time>
      </trkpt>
      <trkpt lat="43.95346" lon="2.85021">
        <ele>328.660891</ele>
        <time>2021-05-01T00:03:35.160Z</time>
      </trkpt>
      <trkpt lat="43.95331" lon="2.84966">
        <ele>328.422272</ele>
        <time>2021-05-01T00:03:42.662Z</time>
      </trkpt>
      <trkpt lat="43.95319" lon="2.84914">
        <ele>328.204271</ele>
        <time>2021-05-01T00:03:49.111Z</time>
      </trkpt>
      <trkpt lat="43.95308" lon="2.84866">
        <ele>327.201585</ele>
        <time>2021-05-01T00:03:55.105Z</time>
      </trkpt>
      <trkpt lat="43.95306" lon="2.84834">
        <ele>326.399344</ele>
        <time>2021-05-01T00:03:58.848Z</time>
      </trkpt>
      <trkpt lat="43.95305" lon="2.84808">
        <ele>325.737977</ele>
        <time>2021-05-01T00:04:01.899Z</time>
      </trkpt>
      <trkpt lat="43.95305" lon="2.84789">
        <ele>325.268265</ele>
        <time>2021-05-01T00:04:04.047Z</time>
      </trkpt>
      <trkpt lat="43.95309" lon="2.84782">
        <ele>325.033597</ele>
        <time>2021-05-01T00:04:05.098Z</time>
      </trkpt>
      <trkpt lat="43.9531" lon="2.84773">
        <ele>324.799402</ele>
        <time>2021-05-01T00:04:06.179Z</time>
      </trkpt>
      <trkpt lat="43.95309" lon="2.84767">
        <ele>324.652861</ele>
        <time>2021-05-01T00:04:06.861Z</time>
      </trkpt>
      <trkpt lat="43.95307" lon="2.84762">
        <ele>324.507495</ele>
        <time>2021-05-01T00:04:07.512Z</time>
      </trkpt>
      <trkpt lat="43.95299" lon="2.84755">
        <ele>324.156231</ele>
        <time>2021-05-01T00:04:09.122Z</time>
      </trkpt>
      <trkpt lat="43.95291" lon="2.84727">
        <ele>323.39422</ele>
        <time>2021-05-01T00:04:12.559Z</time>
      </trkpt>
      <trkpt lat="43.95278" lon="2.84698">
        <ele>322.550945</ele>
        <time>2021-05-01T00:04:16.321Z</time>
      </trkpt>
      <trkpt lat="43.95267" lon="2.84678">
        <ele>321.900445</ele>
        <time>2021-05-01T00:04:19.263Z</time>
      </trkpt>
      <trkpt lat="43.95255" lon="2.84651">
        <ele>321.315369</ele>
        <time>2021-05-01T00:04:22.774Z</time>
      </trkpt>
      <trkpt lat="43.95194" lon="2.84433">
        <ele>316.93296</ele>
        <time>2021-05-01T00:04:52.446Z</time>
      </trkpt>
      <trkpt lat="43.95187" lon="2.84408">
        <ele>316.266869</ele>
        <time>2021-05-01T00:04:55.589Z</time>
      </trkpt>
      <trkpt lat="43.95168" lon="2.84335">
        <ele>314.33855</ele>
        <time>2021-05-01T00:05:04.649Z</time>
      </trkpt>
      <trkpt lat="43.95154" lon="2.84278">
        <ele>312.853229</ele>
        <time>2021-05-01T00:05:11.490Z</time>
      </trkpt>
      <trkpt lat="43.95146" lon="2.84226">
        <ele>311.528629</ele>
        <time>2021-05-01T00:05:17.485Z</time>
      </trkpt>
      <trkpt lat="43.95137" lon="2.84104">
        <ele>309.368552</ele>
        <time>2021-05-01T00:05:31.536Z</time>
      </trkpt>
      <trkpt lat="43.95137" lon="2.84067">
        <ele>308.759863</ele>
        <time>2021-05-01T00:05:35.995Z</time>
      </trkpt>
      <trkpt lat="43.9514" lon="2.84021">
        <ele>307.992614</ele>
        <time>2021-05-01T00:05:42.041Z</time>
      </trkpt>
      <trkpt lat="43.95147" lon="2.83968">
        <ele>307.110236</ele>
        <time>2021-05-01T00:05:49.668Z</time>
      </trkpt>
      <trkpt lat="43.95156" lon="2.83926">
        <ele>307.235804</ele>
        <time>2021-05-01T00:05:57.466Z</time>
      </trkpt>
      <trkpt lat="43.95165" lon="2.83876">
        <ele>307.589821</ele>
        <time>2021-05-01T00:06:06.709Z</time>
      </trkpt>
      <trkpt lat="43.95166" lon="2.83839">
        <ele>307.843683</ele>
        <time>2021-05-01T00:06:14.196Z</time>
      </trkpt>
      <trkpt lat="43.95156" lon="2.83766">
        <ele>308.356791</ele>
        <time>2021-05-01T00:06:29.188Z</time>
      </trkpt>
      <trkpt lat="43.95156" lon="2.83748">
        <ele>308.475968</ele>
        <time>2021-05-01T00:06:33.391Z</time>
      </trkpt>
      <trkpt lat="43.9516" lon="2.83739">
        <ele>308.552061</ele>
        <time>2021-05-01T00:06:35.558Z</time>
      </trkpt>
      <trkpt lat="43.9516" lon="2.83729">
        <ele>308.622242</ele>
        <time>2021-05-01T00:06:37.572Z</time>
      </trkpt>
      <trkpt lat="43.95155" lon="2.83718">
        <ele>308.704635</ele>
        <time>2021-05-01T00:06:39.925Z</time>
      </trkpt>
      <trkpt lat="43.95149" lon="2.83714">
        <ele>308.727276</ele>
        <time>2021-05-01T00:06:42.155Z</time>
      </trkpt>
      <trkpt lat="43.9514" lon="2.83715">
        <ele>308.759452</ele>
        <time>2021-05-01T00:06:44.802Z</time>
      </trkpt>
      <trkpt lat="43.95135" lon="2.8372">
        <ele>308.778692</ele>
        <time>2021-05-01T00:06:46.203Z</time>
      </trkpt>
      <trkpt lat="43.95107" lon="2.8372">
        <ele>308.86995</ele>
        <time>2021-05-01T00:06:53.663Z</time>
      </trkpt>
      <trkpt lat="43.95056" lon="2.83724">
        <ele>309.038641</ele>
        <time>2021-05-01T00:07:06.059Z</time>
      </trkpt>
      <trkpt lat="43.95029" lon="2.83726">
        <ele>309.129679</ele>
        <time>2021-05-01T00:07:12.683Z</time>
      </trkpt>
      <trkpt lat="43.94968" lon="2.83731">
        <ele>309.191375</ele>
        <time>2021-05-01T00:07:24.715Z</time>
      </trkpt>
      <trkpt lat="43.94965" lon="2.83731">
        <ele>309.166028</ele>
        <time>2021-05-01T00:07:25.229Z</time>
      </trkpt>
      <trkpt lat="43.94963" lon="2.83731">
        <ele>309.141624</ele>
        <time>2021-05-01T00:07:25.718Z</time>
      </trkpt>
      <trkpt lat="43.94949" lon="2.83732">
        <ele>309.007095</ele>
        <time>2021-05-01T00:07:28.361Z</time>
      </trkpt>
      <trkpt lat="43.94928" lon="2.83731">
        <ele>308.800353</ele>
        <time>2021-05-01T00:07:32.428Z</time>
      </trkpt>
      <trkpt lat="43.94912" lon="2.83728">
        <ele>308.644567</ele>
        <time>2021-05-01T00:07:35.435Z</time>
      </trkpt>
      <trkpt lat="43.94912" lon="2.83728">
        <ele>308.644567</ele>
        <time>2021-05-01T00:07:35.441Z</time>
      </trkpt>
      <trkpt lat="43.94871" lon="2.83721">
        <ele>308.243942</ele>
        <time>2021-05-01T00:07:43.134Z</time>
      </trkpt>
      <trkpt lat="43.94748" lon="2.837">
        <ele>307.697694</ele>
        <time>2021-05-01T00:08:07.103Z</time>
      </trkpt>
      <trkpt lat="43.94746" lon="2.837">
        <ele>307.704054</ele>
        <time>2021-05-01T00:08:07.574Z</time>
      </trkpt>
      <trkpt lat="43.94734" lon="2.83698">
        <ele>307.741086</ele>
        <time>2021-05-01T00:08:10.309Z</time>
      </trkpt>
      <trkpt lat="43.9471" lon="2.83693">
        <ele>307.813358</ele>
        <time>2021-05-01T00:08:15.716Z</time>
      </trkpt>
      <trkpt lat="43.94702" lon="2.83682">
        <ele>307.849041</ele>
        <time>2021-05-01T00:08:18.572Z</time>
      </trkpt>
      <trkpt lat="43.94698" lon="2.83668">
        <ele>307.881536</ele>
        <time>2021-05-01T00:08:21.198Z</time>
      </trkpt>
      <trkpt lat="43.94691" lon="2.83676">
        <ele>307.907988</ele>
        <time>2021-05-01T00:08:23.347Z</time>
      </trkpt>
      <trkpt lat="43.94675" lon="2.83687">
        <ele>307.963121</ele>
        <time>2021-05-01T00:08:28.188Z</time>
      </trkpt>
      <trkpt lat="43.9466" lon="2.83695">
        <ele>308.011534</ele>
        <time>2021-05-01T00:08:32.462Z</time>
      </trkpt>
      <trkpt lat="43.94584" lon="2.83743">
        <ele>308.979884</ele>
        <time>2021-05-01T00:08:56.965Z</time>
      </trkpt>
      <trkpt lat="43.9458" lon="2.83752">
        <ele>309.095476</ele>
        <time>2021-05-01T00:08:59.188Z</time>
      </trkpt>
      <trkpt lat="43.94566" lon="2.83742">
        <ele>309.337088</ele>
        <time>2021-05-01T00:09:03.979Z</time>
      </trkpt>
      <trkpt lat="43.94544" lon="2.83671">
        <ele>310.17114</ele>
        <time>2021-05-01T00:09:20.472Z</time>
      </trkpt>
      <trkpt lat="43.94538" lon="2.83654">
        <ele>310.372242</ele>
        <time>2021-05-01T00:09:24.310Z</time>
      </trkpt>
      <trkpt lat="43.94532" lon="2.83637">
        <ele>310.583131</ele>
        <time>2021-05-01T00:09:28.464Z</time>
      </trkpt>
      <trkpt lat="43.94526" lon="2.83621">
        <ele>310.778132</ele>
        <time>2021-05-01T00:09:32.027Z</time>
      </trkpt>
      <trkpt lat="43.94524" lon="2.83593">
        <ele>310.852534</ele>
        <time>2021-05-01T00:09:37.729Z</time>
      </trkpt>
      <trkpt lat="43.94523" lon="2.83567">
        <ele>310.906291</ele>
        <time>2021-05-01T00:09:42.612Z</time>
      </trkpt>
      <trkpt lat="43.9452" lon="2.8354">
        <ele>310.962775</ele>
        <time>2021-05-01T00:09:47.789Z</time>
      </trkpt>
      <trkpt lat="43.94504" lon="2.83533">
        <ele>311.009607</ele>
        <time>2021-05-01T00:09:51.633Z</time>
      </trkpt>
      <trkpt lat="43.94501" lon="2.83531">
        <ele>311.021001</ele>
        <time>2021-05-01T00:09:52.584Z</time>
      </trkpt>
      <trkpt lat="43.9449" lon="2.83527">
        <ele>311.051912</ele>
        <time>2021-05-01T00:09:55.193Z</time>
      </trkpt>
      <trkpt lat="43.9446" lon="2.83526">
        <ele>311.13829</ele>
        <time>2021-05-01T00:10:02.027Z</time>
      </trkpt>
      <trkpt lat="43.94446" lon="2.83499">
        <ele>311.207536</ele>
        <time>2021-05-01T00:10:07.463Z</time>
      </trkpt>
      <trkpt lat="43.94435" lon="2.83461">
        <ele>311.294115</ele>
        <time>2021-05-01T00:10:14.211Z</time>
      </trkpt>
      <trkpt lat="43.94424" lon="2.83392">
        <ele>311.2418</ele>
        <time>2021-05-01T00:10:25.505Z</time>
      </trkpt>
      <trkpt lat="43.94419" lon="2.83367">
        <ele>311.211253</ele>
        <time>2021-05-01T00:10:29.721Z</time>
      </trkpt>
      <trkpt lat="43.944" lon="2.8333">
        <ele>311.157347</ele>
        <time>2021-05-01T00:10:37.088Z</time>
      </trkpt>
      <trkpt lat="43.94386" lon="2.83311">
        <ele>311.126113</ele>
        <time>2021-05-01T00:10:41.401Z</time>
      </trkpt>
      <trkpt lat="43.94373" lon="2.83292">
        <ele>311.093823</ele>
        <time>2021-05-01T00:10:45.896Z</time>
      </trkpt>
      <trkpt lat="43.9435" lon="2.83258">
        <ele>311.037928</ele>
        <time>2021-05-01T00:10:53.540Z</time>
      </trkpt>
      <trkpt lat="43.94331" lon="2.8323">
        <ele>310.961226</ele>
        <time>2021-05-01T00:10:59.757Z</time>
      </trkpt>
      <trkpt lat="43.94327" lon="2.83225">
        <ele>310.941179</ele>
        <time>2021-05-01T00:11:00.957Z</time>
      </trkpt>
      <trkpt lat="43.94322" lon="2.83217">
        <ele>310.91032</ele>
        <time>2021-05-01T00:11:02.793Z</time>
      </trkpt>
      <trkpt lat="43.94303" lon="2.83188">
        <ele>310.801367</ele>
        <time>2021-05-01T00:11:09.274Z</time>
      </trkpt>
      <trkpt lat="43.94278" lon="2.83148">
        <ele>310.65626</ele>
        <time>2021-05-01T00:11:17.529Z</time>
      </trkpt>
      <trkpt lat="43.94251" lon="2.83107">
        <ele>310.503506</ele>
        <time>2021-05-01T00:11:25.866Z</time>
      </trkpt>
      <trkpt lat="43.94229" lon="2.83082">
        <ele>310.395464</ele>
        <time>2021-05-01T00:11:31.803Z</time>
      </trkpt>
      <trkpt lat="43.94202" lon="2.83053">
        <ele>310.285412</ele>
        <time>2021-05-01T00:11:39.239Z</time>
      </trkpt>
      <trkpt lat="43.9417" lon="2.83018">
        <ele>310.182293</ele>
        <time>2021-05-01T00:11:48.220Z</time>
      </trkpt>
      <trkpt lat="43.94127" lon="2.82969">
        <ele>310.042894</ele>
        <time>2021-05-01T00:12:00.307Z</time>
      </trkpt>
      <trkpt lat="43.94109" lon="2.82953">
        <ele>309.990587</ele>
        <time>2021-05-01T00:12:04.902Z</time>
      </trkpt>
      <trkpt lat="43.94083" lon="2.82946">
        <ele>309.922867</ele>
        <time>2021-05-01T00:12:10.949Z</time>
      </trkpt>
      <trkpt lat="43.9406" lon="2.82948">
        <ele>309.918707</ele>
        <time>2021-05-01T00:12:16.402Z</time>
      </trkpt>
      <trkpt lat="43.94026" lon="2.82965">
        <ele>310.294947</ele>
        <time>2021-05-01T00:12:25.380Z</time>
      </trkpt>
      <trkpt lat="43.93982" lon="2.82989">
        <ele>310.779389</ele>
        <time>2021-05-01T00:12:37.526Z</time>
      </trkpt>
      <trkpt lat="43.93928" lon="2.83022">
        <ele>311.3893</ele>
        <time>2021-05-01T00:12:54.127Z</time>
      </trkpt>
      <trkpt lat="43.93837" lon="2.83092">
        <ele>313.115619</ele>
        <time>2021-05-01T00:13:26.936Z</time>
      </trkpt>
      <trkpt lat="43.93779" lon="2.83142">
        <ele>314.446357</ele>
        <time>2021-05-01T00:13:48.444Z</time>
      </trkpt>
      <trkpt lat="43.93713" lon="2.83204">
        <ele>316.074942</ele>
        <time>2021-05-01T00:14:12.175Z</time>
      </trkpt>
      <trkpt lat="43.93637" lon="2.83283">
        <ele>318.071936</ele>
        <time>2021-05-01T00:14:41.422Z</time>
      </trkpt>
      <trkpt lat="43.93614" lon="2.83317">
        <ele>318.798873</ele>
        <time>2021-05-01T00:14:53.134Z</time>
      </trkpt>
      <trkpt lat="43.93607" lon="2.83332">
        <ele>319.077887</ele>
        <time>2021-05-01T00:14:57.795Z</time>
      </trkpt>
      <trkpt lat="43.93605" lon="2.83354">
        <ele>319.584847</ele>
        <time>2021-05-01T00:15:02.980Z</time>
      </trkpt>
      <trkpt lat="43.93606" lon="2.83384">
        <ele>320.279377</ele>
        <time>2021-05-01T00:15:10.536Z</time>
      </trkpt>
      <trkpt lat="43.93601" lon="2.83406">
        <ele>320.827957</ele>
        <time>2021-05-01T00:15:16.280Z</time>
      </trkpt>
      <trkpt lat="43.93591" lon="2.8342">
        <ele>321.284729</ele>
        <time>2021-05-01T00:15:21.581Z</time>
      </trkpt>
      <trkpt lat="43.93573" lon="2.8343">
        <ele>321.915462</ele>
        <time>2021-05-01T00:15:28.499Z</time>
      </trkpt>
      <trkpt lat="43.93568" lon="2.83431">
        <ele>322.067803</ele>
        <time>2021-05-01T00:15:30.110Z</time>
      </trkpt>
      <trkpt lat="43.93551" lon="2.83435">
        <ele>322.607325</ele>
        <time>2021-05-01T00:15:36.554Z</time>
      </trkpt>
      <trkpt lat="43.93531" lon="2.83446">
        <ele>323.321354</ele>
        <time>2021-05-01T00:15:44.644Z</time>
      </trkpt>
      <trkpt lat="43.93468" lon="2.83503">
        <ele>325.315852</ele>
        <time>2021-05-01T00:16:13.376Z</time>
      </trkpt>
      <trkpt lat="43.93416" lon="2.83537">
        <ele>326.254523</ele>
        <time>2021-05-01T00:16:32.568Z</time>
      </trkpt>
      <trkpt lat="43.93303" lon="2.83591">
        <ele>327.580224</ele>
        <time>2021-05-01T00:17:03.250Z</time>
      </trkpt>
      <trkpt lat="43.93102" lon="2.83631">
        <ele>324.983543</ele>
        <time>2021-05-01T00:17:42.790Z</time>
      </trkpt>
      <trkpt lat="43.93075" lon="2.83625">
        <ele>324.42476</ele>
        <time>2021-05-01T00:17:47.465Z</time>
      </trkpt>
      <trkpt lat="43.93052" lon="2.83611">
        <ele>323.885508</ele>
        <time>2021-05-01T00:17:51.921Z</time>
      </trkpt>
      <trkpt lat="43.93012" lon="2.83576">
        <ele>322.889237</ele>
        <time>2021-05-01T00:18:00.300Z</time>
      </trkpt>
      <trkpt lat="43.92925" lon="2.83501">
        <ele>321.636992</ele>
        <time>2021-05-01T00:18:19.137Z</time>
      </trkpt>
      <trkpt lat="43.92811" lon="2.83398">
        <ele>321.236119</ele>
        <time>2021-05-01T00:18:49.355Z</time>
      </trkpt>
      <trkpt lat="43.92597" lon="2.83211">
        <ele>327.197182</ele>
        <time>2021-05-01T00:20:12.514Z</time>
      </trkpt>
      <trkpt lat="43.92569" lon="2.83193">
        <ele>328.168521</ele>
        <time>2021-05-01T00:20:24.464Z</time>
      </trkpt>
      <trkpt lat="43.92542" lon="2.83185">
        <ele>329.037753</ele>
        <time>2021-05-01T00:20:35.175Z</time>
      </trkpt>
      <trkpt lat="43.92508" lon="2.83184">
        <ele>330.145927</ele>
        <time>2021-05-01T00:20:48.276Z</time>
      </trkpt>
      <trkpt lat="43.92484" lon="2.83192">
        <ele>331.078276</ele>
        <time>2021-05-01T00:20:58.402Z</time>
      </trkpt>
      <trkpt lat="43.92443" lon="2.83222">
        <ele>332.811087</ele>
        <time>2021-05-01T00:21:16.646Z</time>
      </trkpt>
      <trkpt lat="43.92429" lon="2.8322">
        <ele>333.32502</ele>
        <time>2021-05-01T00:21:22.229Z</time>
      </trkpt>
      <trkpt lat="43.92416" lon="2.83205">
        <ele>333.949343</ele>
        <time>2021-05-01T00:21:28.906Z</time>
      </trkpt>
      <trkpt lat="43.92397" lon="2.83067">
        <ele>336.988828</ele>
        <time>2021-05-01T00:22:05.982Z</time>
      </trkpt>
      <trkpt lat="43.92386" lon="2.83044">
        <ele>337.297015</ele>
        <time>2021-05-01T00:22:12.506Z</time>
      </trkpt>
      <trkpt lat="43.92367" lon="2.8302">
        <ele>337.690447</ele>
        <time>2021-05-01T00:22:19.772Z</time>
      </trkpt>
      <trkpt lat="43.92335" lon="2.82983">
        <ele>338.331033</ele>
        <time>2021-05-01T00:22:31.368Z</time>
      </trkpt>
      <trkpt lat="43.9232" lon="2.82978">
        <ele>338.566665</ele>
        <time>2021-05-01T00:22:35.223Z</time>
      </trkpt>
      <trkpt lat="43.92311" lon="2.82981">
        <ele>338.713044</ele>
        <time>2021-05-01T00:22:37.700Z</time>
      </trkpt>
      <trkpt lat="43.92302" lon="2.8298">
        <ele>338.852225</ele>
        <time>2021-05-01T00:22:40.228Z</time>
      </trkpt>
      <trkpt lat="43.92293" lon="2.82979">
        <ele>338.987145</ele>
        <time>2021-05-01T00:22:42.632Z</time>
      </trkpt>
      <trkpt lat="43.9228" lon="2.82984">
        <ele>339.191984</ele>
        <time>2021-05-01T00:22:45.510Z</time>
      </trkpt>
      <trkpt lat="43.92243" lon="2.82989">
        <ele>339.114384</ele>
        <time>2021-05-01T00:22:54.662Z</time>
      </trkpt>
      <trkpt lat="43.92196" lon="2.82978">
        <ele>338.962716</ele>
        <time>2021-05-01T00:23:05.567Z</time>
      </trkpt>
      <trkpt lat="43.92144" lon="2.8299">
        <ele>338.792344</ele>
        <time>2021-05-01T00:23:16.880Z</time>
      </trkpt>
      <trkpt lat="43.92111" lon="2.83015">
        <ele>338.672976</ele>
        <time>2021-05-01T00:23:24.622Z</time>
      </trkpt>
      <trkpt lat="43.92044" lon="2.83082">
        <ele>337.279316</ele>
        <time>2021-05-01T00:23:41.086Z</time>
      </trkpt>
      <trkpt lat="43.91994" lon="2.83109">
        <ele>336.311609</ele>
        <time>2021-05-01T00:23:50.908Z</time>
      </trkpt>
      <trkpt lat="43.91945" lon="2.83116">
        <ele>335.421041</ele>
        <time>2021-05-01T00:23:59.604Z</time>
      </trkpt>
      <trkpt lat="43.91886" lon="2.83096">
        <ele>333.711148</ele>
        <time>2021-05-01T00:24:10.085Z</time>
      </trkpt>
      <trkpt lat="43.91546" lon="2.82949">
        <ele>324.83569</ele>
        <time>2021-05-01T00:25:12.183Z</time>
      </trkpt>
      <trkpt lat="43.91446" lon="2.82925">
        <ele>324.052026</ele>
        <time>2021-05-01T00:25:34.914Z</time>
      </trkpt>
      <trkpt lat="43.9141" lon="2.82924">
        <ele>324.123788</ele>
        <time>2021-05-01T00:25:44.715Z</time>
      </trkpt>
      <trkpt lat="43.91365" lon="2.82935">
        <ele>324.954764</ele>
        <time>2021-05-01T00:25:58.328Z</time>
      </trkpt>
      <trkpt lat="43.91332" lon="2.82934">
        <ele>325.563434</ele>
        <time>2021-05-01T00:26:08.580Z</time>
      </trkpt>
      <trkpt lat="43.91305" lon="2.82931">
        <ele>326.070159</ele>
        <time>2021-05-01T00:26:17.327Z</time>
      </trkpt>
      <trkpt lat="43.91266" lon="2.82928">
        <ele>326.771562</ele>
        <time>2021-05-01T00:26:29.561Z</time>
      </trkpt>
      <trkpt lat="43.91143" lon="2.82912">
        <ele>329.33838</ele>
        <time>2021-05-01T00:27:10.408Z</time>
      </trkpt>
      <trkpt lat="43.9104" lon="2.82853">
        <ele>331.016084</ele>
        <time>2021-05-01T00:27:44.824Z</time>
      </trkpt>
      <trkpt lat="43.91004" lon="2.8283">
        <ele>331.033344</ele>
        <time>2021-05-01T00:27:54.831Z</time>
      </trkpt>
      <trkpt lat="43.90985" lon="2.82815">
        <ele>331.042917</ele>
        <time>2021-05-01T00:27:59.603Z</time>
      </trkpt>
      <trkpt lat="43.90969" lon="2.82806">
        <ele>331.05036</ele>
        <time>2021-05-01T00:28:03.740Z</time>
      </trkpt>
      <trkpt lat="43.90945" lon="2.82809">
        <ele>331.060726</ele>
        <time>2021-05-01T00:28:08.700Z</time>
      </trkpt>
      <trkpt lat="43.90938" lon="2.82812">
        <ele>331.063731</ele>
        <time>2021-05-01T00:28:10.327Z</time>
      </trkpt>
      <trkpt lat="43.90928" lon="2.828">
        <ele>331.069458</ele>
        <time>2021-05-01T00:28:12.797Z</time>
      </trkpt>
      <trkpt lat="43.90914" lon="2.82783">
        <ele>331.077544</ele>
        <time>2021-05-01T00:28:16.706Z</time>
      </trkpt>
      <trkpt lat="43.90909" lon="2.82774">
        <ele>331.013664</ele>
        <time>2021-05-01T00:28:18.381Z</time>
      </trkpt>
      <trkpt lat="43.90919" lon="2.82762">
        <ele>330.769719</ele>
        <time>2021-05-01T00:28:20.591Z</time>
      </trkpt>
      <trkpt lat="43.90923" lon="2.82744">
        <ele>330.494492</ele>
        <time>2021-05-01T00:28:23.481Z</time>
      </trkpt>
      <trkpt lat="43.90938" lon="2.82364">
        <ele>325.41591</ele>
        <time>2021-05-01T00:29:13.569Z</time>
      </trkpt>
      <trkpt lat="43.90948" lon="2.82294">
        <ele>324.523342</ele>
        <time>2021-05-01T00:29:23.959Z</time>
      </trkpt>
      <trkpt lat="43.90957" lon="2.82216">
        <ele>324.260877</ele>
        <time>2021-05-01T00:29:35.584Z</time>
      </trkpt>
      <trkpt lat="43.90961" lon="2.82192">
        <ele>324.198303</ele>
        <time>2021-05-01T00:29:39.608Z</time>
      </trkpt>
      <trkpt lat="43.90926" lon="2.82182">
        <ele>324.07107</ele>
        <time>2021-05-01T00:29:47.019Z</time>
      </trkpt>
      <trkpt lat="43.90837" lon="2.82173">
        <ele>323.854263</ele>
        <time>2021-05-01T00:30:06.937Z</time>
      </trkpt>
      <trkpt lat="43.90045" lon="2.82152">
        <ele>326.926388</ele>
        <time>2021-05-01T00:33:15.315Z</time>
      </trkpt>
      <trkpt lat="43.89982" lon="2.8215">
        <ele>327.200997</ele>
        <time>2021-05-01T00:33:30.412Z</time>
      </trkpt>
      <trkpt lat="43.89957" lon="2.8215">
        <ele>327.309173</ele>
        <time>2021-05-01T00:33:36.520Z</time>
      </trkpt>
      <trkpt lat="43.89835" lon="2.82154">
        <ele>328.146679</ele>
        <time>2021-05-01T00:34:06.503Z</time>
      </trkpt>
      <trkpt lat="43.89791" lon="2.82148">
        <ele>328.45194</ele>
        <time>2021-05-01T00:34:17.974Z</time>
      </trkpt>
      <trkpt lat="43.89762" lon="2.82133">
        <ele>328.688028</ele>
        <time>2021-05-01T00:34:25.967Z</time>
      </trkpt>
      <trkpt lat="43.89743" lon="2.82117">
        <ele>328.871561</ele>
        <time>2021-05-01T00:34:31.684Z</time>
      </trkpt>
      <trkpt lat="43.89713" lon="2.8207">
        <ele>329.251258</ele>
        <time>2021-05-01T00:34:43.407Z</time>
      </trkpt>
      <trkpt lat="43.89702" lon="2.82045">
        <ele>329.430355</ele>
        <time>2021-05-01T00:34:49.146Z</time>
      </trkpt>
      <trkpt lat="43.8969" lon="2.82014">
        <ele>329.64202</ele>
        <time>2021-05-01T00:34:55.630Z</time>
      </trkpt>
      <trkpt lat="43.89678" lon="2.8198">
        <ele>329.864561</ele>
        <time>2021-05-01T00:35:02.335Z</time>
      </trkpt>
      <trkpt lat="43.89637" lon="2.81862">
        <ele>330.295802</ele>
        <time>2021-05-01T00:35:26.049Z</time>
      </trkpt>
      <trkpt lat="43.89616" lon="2.81812">
        <ele>330.423627</ele>
        <time>2021-05-01T00:35:35.654Z</time>
      </trkpt>
      <trkpt lat="43.89581" lon="2.81753">
        <ele>330.596161</ele>
        <time>2021-05-01T00:35:48.258Z</time>
      </trkpt>
      <trkpt lat="43.89536" lon="2.81707">
        <ele>330.598822</ele>
        <time>2021-05-01T00:36:00.243Z</time>
      </trkpt>
      <trkpt lat="43.89496" lon="2.81682">
        <ele>330.555336</ele>
        <time>2021-05-01T00:36:09.483Z</time>
      </trkpt>
      <trkpt lat="43.89361" lon="2.81624">
        <ele>330.713881</ele>
        <time>2021-05-01T00:36:40.707Z</time>
      </trkpt>
      <trkpt lat="43.89345" lon="2.8161">
        <ele>330.816574</ele>
        <time>2021-05-01T00:36:44.998Z</time>
      </trkpt>
      <trkpt lat="43.8934" lon="2.81604">
        <ele>330.85317</ele>
        <time>2021-05-01T00:36:46.683Z</time>
      </trkpt>
      <trkpt lat="43.89328" lon="2.81589">
        <ele>330.944362</ele>
        <time>2021-05-01T00:36:50.714Z</time>
      </trkpt>
      <trkpt lat="43.8931" lon="2.81568">
        <ele>331.067895</ele>
        <time>2021-05-01T00:36:56.376Z</time>
      </trkpt>
      <trkpt lat="43.89294" lon="2.81546">
        <ele>331.192496</ele>
        <time>2021-05-01T00:37:02.236Z</time>
      </trkpt>
      <trkpt lat="43.89255" lon="2.81487">
        <ele>331.5684</ele>
        <time>2021-05-01T00:37:17.436Z</time>
      </trkpt>
      <trkpt lat="43.89224" lon="2.81459">
        <ele>331.959558</ele>
        <time>2021-05-01T00:37:27.588Z</time>
      </trkpt>
      <trkpt lat="43.89204" lon="2.81446">
        <ele>332.191346</ele>
        <time>2021-05-01T00:37:33.640Z</time>
      </trkpt>
      <trkpt lat="43.89174" lon="2.81433">
        <ele>332.530988</ele>
        <time>2021-05-01T00:37:42.417Z</time>
      </trkpt>
      <trkpt lat="43.89123" lon="2.81418">
        <ele>333.075346</ele>
        <time>2021-05-01T00:37:55.624Z</time>
      </trkpt>
      <trkpt lat="43.89118" lon="2.81418">
        <ele>333.130723</ele>
        <time>2021-05-01T00:37:57.178Z</time>
      </trkpt>
      <trkpt lat="43.89038" lon="2.81397">
        <ele>333.774218</ele>
        <time>2021-05-01T00:38:17.792Z</time>
      </trkpt>
      <trkpt lat="43.89021" lon="2.81392">
        <ele>333.897593</ele>
        <time>2021-05-01T00:38:21.941Z</time>
      </trkpt>
      <trkpt lat="43.88972" lon="2.81378">
        <ele>334.245164</ele>
        <time>2021-05-01T00:38:34.241Z</time>
      </trkpt>
      <trkpt lat="43.88909" lon="2.8136">
        <ele>334.66504</ele>
        <time>2021-05-01T00:38:50.277Z</time>
      </trkpt>
      <trkpt lat="43.88844" lon="2.81342">
        <ele>334.950905</ele>
        <time>2021-05-01T00:39:06.536Z</time>
      </trkpt>
      <trkpt lat="43.88767" lon="2.81322">
        <ele>335.291638</ele>
        <time>2021-05-01T00:39:25.512Z</time>
      </trkpt>
      <trkpt lat="43.88739" lon="2.81311">
        <ele>335.363679</ele>
        <time>2021-05-01T00:39:32.238Z</time>
      </trkpt>
      <trkpt lat="43.88728" lon="2.81309">
        <ele>335.330807</ele>
        <time>2021-05-01T00:39:34.704Z</time>
      </trkpt>
      <trkpt lat="43.88711" lon="2.813">
        <ele>335.273977</ele>
        <time>2021-05-01T00:39:38.790Z</time>
      </trkpt>
      <trkpt lat="43.88708" lon="2.81297">
        <ele>335.262928</ele>
        <time>2021-05-01T00:39:39.550Z</time>
      </trkpt>
      <trkpt lat="43.88703" lon="2.81292">
        <ele>335.246101</ele>
        <time>2021-05-01T00:39:40.799Z</time>
      </trkpt>
      <trkpt lat="43.88699" lon="2.81294">
        <ele>335.233678</ele>
        <time>2021-05-01T00:39:41.708Z</time>
      </trkpt>
      <trkpt lat="43.88696" lon="2.81296">
        <ele>335.221479</ele>
        <time>2021-05-01T00:39:42.540Z</time>
      </trkpt>
      <trkpt lat="43.88692" lon="2.81301">
        <ele>335.206076</ele>
        <time>2021-05-01T00:39:43.630Z</time>
      </trkpt>
      <trkpt lat="43.88686" lon="2.81314">
        <ele>335.172978</ele>
        <time>2021-05-01T00:39:45.927Z</time>
      </trkpt>
      <trkpt lat="43.88646" lon="2.81359">
        <ele>335.015309</ele>
        <time>2021-05-01T00:39:56.669Z</time>
      </trkpt>
      <trkpt lat="43.88633" lon="2.81374">
        <ele>334.964508</ele>
        <time>2021-05-01T00:39:59.991Z</time>
      </trkpt>
      <trkpt lat="43.88622" lon="2.81388">
        <ele>334.917085</ele>
        <time>2021-05-01T00:40:03.091Z</time>
      </trkpt>
      <trkpt lat="43.88619" lon="2.8139">
        <ele>334.906543</ele>
        <time>2021-05-01T00:40:03.817Z</time>
      </trkpt>
      <trkpt lat="43.88581" lon="2.81432">
        <ele>334.757899</ele>
        <time>2021-05-01T00:40:13.464Z</time>
      </trkpt>
      <trkpt lat="43.88552" lon="2.8147">
        <ele>334.630742</ele>
        <time>2021-05-01T00:40:21.661Z</time>
      </trkpt>
      <trkpt lat="43.8853" lon="2.81515">
        <ele>334.507913</ele>
        <time>2021-05-01T00:40:29.753Z</time>
      </trkpt>
      <trkpt lat="43.88414" lon="2.81806">
        <ele>334.3011</ele>
        <time>2021-05-01T00:41:22.769Z</time>
      </trkpt>
      <trkpt lat="43.88379" lon="2.81892">
        <ele>334.944034</ele>
        <time>2021-05-01T00:41:39.777Z</time>
      </trkpt>
      <trkpt lat="43.88364" lon="2.81911">
        <ele>335.178873</ele>
        <time>2021-05-01T00:41:44.578Z</time>
      </trkpt>
      <trkpt lat="43.8835" lon="2.81924">
        <ele>335.370332</ele>
        <time>2021-05-01T00:41:48.890Z</time>
      </trkpt>
      <trkpt lat="43.88326" lon="2.81935">
        <ele>335.661679</ele>
        <time>2021-05-01T00:41:55.075Z</time>
      </trkpt>
      <trkpt lat="43.88188" lon="2.81981">
        <ele>338.796144</ele>
        <time>2021-05-01T00:42:40.793Z</time>
      </trkpt>
      <trkpt lat="43.88177" lon="2.81984">
        <ele>339.13867</ele>
        <time>2021-05-01T00:42:44.856Z</time>
      </trkpt>
      <trkpt lat="43.88084" lon="2.82015">
        <ele>341.972888</ele>
        <time>2021-05-01T00:43:19.653Z</time>
      </trkpt>
      <trkpt lat="43.88054" lon="2.82021">
        <ele>342.696539</ele>
        <time>2021-05-01T00:43:30.631Z</time>
      </trkpt>
      <trkpt lat="43.88026" lon="2.82017">
        <ele>343.373267</ele>
        <time>2021-05-01T00:43:40.553Z</time>
      </trkpt>
      <trkpt lat="43.87889" lon="2.8197">
        <ele>346.7905</ele>
        <time>2021-05-01T00:44:22.020Z</time>
      </trkpt>
      <trkpt lat="43.87845" lon="2.8197">
        <ele>347.930031</ele>
        <time>2021-05-01T00:44:34.432Z</time>
      </trkpt>
      <trkpt lat="43.87832" lon="2.81973">
        <ele>348.256344</ele>
        <time>2021-05-01T00:44:38.259Z</time>
      </trkpt>
      <trkpt lat="43.87799" lon="2.81981">
        <ele>349.130426</ele>
        <time>2021-05-01T00:44:49.120Z</time>
      </trkpt>
      <trkpt lat="43.87725" lon="2.82002">
        <ele>351.267646</ele>
        <time>2021-05-01T00:45:16.151Z</time>
      </trkpt>
      <trkpt lat="43.87592" lon="2.82044">
        <ele>356.952611</ele>
        <time>2021-05-01T00:46:12.919Z</time>
      </trkpt>
      <trkpt lat="43.87493" lon="2.8208">
        <ele>358.584917</ele>
        <time>2021-05-01T00:46:47.944Z</time>
      </trkpt>
      <trkpt lat="43.87426" lon="2.82118">
        <ele>358.965997</ele>
        <time>2021-05-01T00:47:02.676Z</time>
      </trkpt>
      <trkpt lat="43.87367" lon="2.8215">
        <ele>358.325268</ele>
        <time>2021-05-01T00:47:13.596Z</time>
      </trkpt>
      <trkpt lat="43.87336" lon="2.82166">
        <ele>357.351279</ele>
        <time>2021-05-01T00:47:18.884Z</time>
      </trkpt>
      <trkpt lat="43.8731" lon="2.82175">
        <ele>356.550515</ele>
        <time>2021-05-01T00:47:23.194Z</time>
      </trkpt>
      <trkpt lat="43.87242" lon="2.82176">
        <ele>354.510409</ele>
        <time>2021-05-01T00:47:33.994Z</time>
      </trkpt>
      <trkpt lat="43.8713" lon="2.82115">
        <ele>352.207715</ele>
        <time>2021-05-01T00:47:54.656Z</time>
      </trkpt>
      <trkpt lat="43.87098" lon="2.82104">
        <ele>351.669062</ele>
        <time>2021-05-01T00:48:01.169Z</time>
      </trkpt>
      <trkpt lat="43.87066" lon="2.821">
        <ele>351.149549</ele>
        <time>2021-05-01T00:48:07.544Z</time>
      </trkpt>
      <trkpt lat="43.87006" lon="2.82115">
        <ele>350.995486</ele>
        <time>2021-05-01T00:48:20.397Z</time>
      </trkpt>
      <trkpt lat="43.86964" lon="2.82143">
        <ele>351.160505</ele>
        <time>2021-05-01T00:48:31.231Z</time>
      </trkpt>
      <trkpt lat="43.8692" lon="2.82177">
        <ele>351.343362</ele>
        <time>2021-05-01T00:48:43.533Z</time>
      </trkpt>
      <trkpt lat="43.868" lon="2.82271">
        <ele>352.95864</ele>
        <time>2021-05-01T00:49:19.977Z</time>
      </trkpt>
      <trkpt lat="43.86491" lon="2.82508">
        <ele>359.644953</ele>
        <time>2021-05-01T00:51:07.858Z</time>
      </trkpt>
      <trkpt lat="43.8642" lon="2.82555">
        <ele>361.127705</ele>
        <time>2021-05-01T00:51:30.891Z</time>
      </trkpt>
      <trkpt lat="43.86152" lon="2.82735">
        <ele>365.473794</ele>
        <time>2021-05-01T00:52:56.167Z</time>
      </trkpt>
      <trkpt lat="43.86002" lon="2.82834">
        <ele>365.914509</ele>
        <time>2021-05-01T00:53:36.805Z</time>
      </trkpt>
      <trkpt lat="43.85989" lon="2.82844">
        <ele>365.849749</ele>
        <time>2021-05-01T00:53:39.862Z</time>
      </trkpt>
      <trkpt lat="43.85957" lon="2.82873">
        <ele>365.683786</ele>
        <time>2021-05-01T00:53:47.182Z</time>
      </trkpt>
      <trkpt lat="43.85901" lon="2.82941">
        <ele>364.151019</ele>
        <time>2021-05-01T00:54:00.177Z</time>
      </trkpt>
      <trkpt lat="43.85859" lon="2.8298">
        <ele>362.428326</ele>
        <time>2021-05-01T00:54:08.252Z</time>
      </trkpt>
      <trkpt lat="43.85818" lon="2.83007">
        <ele>360.898282</ele>
        <time>2021-05-01T00:54:15.289Z</time>
      </trkpt>
      <trkpt lat="43.85783" lon="2.83023">
        <ele>359.638966</ele>
        <time>2021-05-01T00:54:21.027Z</time>
      </trkpt>
      <trkpt lat="43.85765" lon="2.83032">
        <ele>359.184811</ele>
        <time>2021-05-01T00:54:24.099Z</time>
      </trkpt>
      <trkpt lat="43.8574" lon="2.83042">
        <ele>358.709928</ele>
        <time>2021-05-01T00:54:28.201Z</time>
      </trkpt>
      <trkpt lat="43.85715" lon="2.83046">
        <ele>358.240615</ele>
        <time>2021-05-01T00:54:32.426Z</time>
      </trkpt>
      <trkpt lat="43.85652" lon="2.83049">
        <ele>357.087184</ele>
        <time>2021-05-01T00:54:43.293Z</time>
      </trkpt>
      <trkpt lat="43.85631" lon="2.8304">
        <ele>356.673081</ele>
        <time>2021-05-01T00:54:47.789Z</time>
      </trkpt>
      <trkpt lat="43.85602" lon="2.83031">
        <ele>356.118473</ele>
        <time>2021-05-01T00:54:55.430Z</time>
      </trkpt>
      <trkpt lat="43.85559" lon="2.83036">
        <ele>356.712259</ele>
        <time>2021-05-01T00:55:07.814Z</time>
      </trkpt>
      <trkpt lat="43.85538" lon="2.83052">
        <ele>357.057838</ele>
        <time>2021-05-01T00:55:15.295Z</time>
      </trkpt>
      <trkpt lat="43.85421" lon="2.83053">
        <ele>358.695472</ele>
        <time>2021-05-01T00:55:49.490Z</time>
      </trkpt>
      <trkpt lat="43.85389" lon="2.83047">
        <ele>358.979846</ele>
        <time>2021-05-01T00:55:58.622Z</time>
      </trkpt>
      <trkpt lat="43.85352" lon="2.83039">
        <ele>359.30703</ele>
        <time>2021-05-01T00:56:08.640Z</time>
      </trkpt>
      <trkpt lat="43.85291" lon="2.83022">
        <ele>359.852367</ele>
        <time>2021-05-01T00:56:24.327Z</time>
      </trkpt>
      <trkpt lat="43.85284" lon="2.8302">
        <ele>359.914143</ele>
        <time>2021-05-01T00:56:26.167Z</time>
      </trkpt>
      <trkpt lat="43.85233" lon="2.83003">
        <ele>360.271486</ele>
        <time>2021-05-01T00:56:37.951Z</time>
      </trkpt>
      <trkpt lat="43.85199" lon="2.82995">
        <ele>360.337706</ele>
        <time>2021-05-01T00:56:45.682Z</time>
      </trkpt>
      <trkpt lat="43.85138" lon="2.82987">
        <ele>360.454719</ele>
        <time>2021-05-01T00:56:59.859Z</time>
      </trkpt>
      <trkpt lat="43.85093" lon="2.82981">
        <ele>360.543013</ele>
        <time>2021-05-01T00:57:10.619Z</time>
      </trkpt>
      <trkpt lat="43.85036" lon="2.82976">
        <ele>360.644865</ele>
        <time>2021-05-01T00:57:23.433Z</time>
      </trkpt>
      <trkpt lat="43.8498" lon="2.82991">
        <ele>360.742831</ele>
        <time>2021-05-01T00:57:35.637Z</time>
      </trkpt>
      <trkpt lat="43.84951" lon="2.83012">
        <ele>360.799178</ele>
        <time>2021-05-01T00:57:42.788Z</time>
      </trkpt>
      <trkpt lat="43.84884" lon="2.83101">
        <ele>361.401702</ele>
        <time>2021-05-01T00:58:05.621Z</time>
      </trkpt>
      <trkpt lat="43.84814" lon="2.83204">
        <ele>362.834261</ele>
        <time>2021-05-01T00:58:34.377Z</time>
      </trkpt>
      <trkpt lat="43.84752" lon="2.83296">
        <ele>364.451783</ele>
        <time>2021-05-01T00:59:01.977Z</time>
      </trkpt>
      <trkpt lat="43.84622" lon="2.83488">
        <ele>368.529639</ele>
        <time>2021-05-01T01:00:00.871Z</time>
      </trkpt>
      <trkpt lat="43.84568" lon="2.83557">
        <ele>370.14819</ele>
        <time>2021-05-01T01:00:23.529Z</time>
      </trkpt>
      <trkpt lat="43.8452" lon="2.83612">
        <ele>371.577688</ele>
        <time>2021-05-01T01:00:43.001Z</time>
      </trkpt>
      <trkpt lat="43.84493" lon="2.83597">
        <ele>372.327805</ele>
        <time>2021-05-01T01:00:52.260Z</time>
      </trkpt>
      <trkpt lat="43.84459" lon="2.83563">
        <ele>373.407887</ele>
        <time>2021-05-01T01:01:05.741Z</time>
      </trkpt>
      <trkpt lat="43.84334" lon="2.83401">
        <ele>377.706181</ele>
        <time>2021-05-01T01:02:03.084Z</time>
      </trkpt>
      <trkpt lat="43.84279" lon="2.83307">
        <ele>379.819035</ele>
        <time>2021-05-01T01:02:30.746Z</time>
      </trkpt>
      <trkpt lat="43.84266" lon="2.83266">
        <ele>380.301671</ele>
        <time>2021-05-01T01:02:40.207Z</time>
      </trkpt>
      <trkpt lat="43.84263" lon="2.8324">
        <ele>380.427649</ele>
        <time>2021-05-01T01:02:45.425Z</time>
      </trkpt>
      <trkpt lat="43.84266" lon="2.8321">
        <ele>380.578701</ele>
        <time>2021-05-01T01:02:51.498Z</time>
      </trkpt>
      <trkpt lat="43.84274" lon="2.83178">
        <ele>380.742495</ele>
        <time>2021-05-01T01:02:57.740Z</time>
      </trkpt>
      <trkpt lat="43.84327" lon="2.83049">
        <ele>381.315074</ele>
        <time>2021-05-01T01:03:22.400Z</time>
      </trkpt>
      <trkpt lat="43.84362" lon="2.82941">
        <ele>380.554204</ele>
        <time>2021-05-01T01:03:39.277Z</time>
      </trkpt>
      <trkpt lat="43.84362" lon="2.82941">
        <ele>380.554204</ele>
        <time>2021-05-01T01:03:39.482Z</time>
      </trkpt>
      <trkpt lat="43.84362" lon="2.82941">
        <ele>380.554204</ele>
        <time>2021-05-01T01:03:39.511Z</time>
      </trkpt>
      <trkpt lat="43.84371" lon="2.82905">
        <ele>380.311965</ele>
        <time>2021-05-01T01:03:44.618Z</time>
      </trkpt>
      <trkpt lat="43.84384" lon="2.82855">
        <ele>379.97361</ele>
        <time>2021-05-01T01:03:51.708Z</time>
      </trkpt>
      <trkpt lat="43.84392" lon="2.82829">
        <ele>379.796539</ele>
        <time>2021-05-01T01:03:55.548Z</time>
      </trkpt>
      <trkpt lat="43.84395" lon="2.82809">
        <ele>379.708328</ele>
        <time>2021-05-01T01:03:58.294Z</time>
      </trkpt>
      <trkpt lat="43.84394" lon="2.82767">
        <ele>379.525214</ele>
        <time>2021-05-01T01:04:04.123Z</time>
      </trkpt>
      <trkpt lat="43.84385" lon="2.82718">
        <ele>379.305319</ele>
        <time>2021-05-01T01:04:11.285Z</time>
      </trkpt>
      <trkpt lat="43.84377" lon="2.82645">
        <ele>378.984783</ele>
        <time>2021-05-01T01:04:22.068Z</time>
      </trkpt>
      <trkpt lat="43.84377" lon="2.82599">
        <ele>378.787095</ele>
        <time>2021-05-01T01:04:29.229Z</time>
      </trkpt>
      <trkpt lat="43.84394" lon="2.82516">
        <ele>379.329916</ele>
        <time>2021-05-01T01:04:44.489Z</time>
      </trkpt>
      <trkpt lat="43.84394" lon="2.82472">
        <ele>379.701957</ele>
        <time>2021-05-01T01:04:53.250Z</time>
      </trkpt>
      <trkpt lat="43.84386" lon="2.82445">
        <ele>379.945866</ele>
        <time>2021-05-01T01:04:59.318Z</time>
      </trkpt>
      <trkpt lat="43.84379" lon="2.82417">
        <ele>380.198031</ele>
        <time>2021-05-01T01:05:05.380Z</time>
      </trkpt>
      <trkpt lat="43.8438" lon="2.82385">
        <ele>380.463935</ele>
        <time>2021-05-01T01:05:11.812Z</time>
      </trkpt>
      <trkpt lat="43.84381" lon="2.82303">
        <ele>381.236571</ele>
        <time>2021-05-01T01:05:29.028Z</time>
      </trkpt>
      <trkpt lat="43.84385" lon="2.82228">
        <ele>382.025915</ele>
        <time>2021-05-01T01:05:44.978Z</time>
      </trkpt>
      <trkpt lat="43.8439" lon="2.82131">
        <ele>383.048548</ele>
        <time>2021-05-01T01:06:04.274Z</time>
      </trkpt>
      <trkpt lat="43.84388" lon="2.82091">
        <ele>383.464559</ele>
        <time>2021-05-01T01:06:12.109Z</time>
      </trkpt>
      <trkpt lat="43.84386" lon="2.82036">
        <ele>384.011754</ele>
        <time>2021-05-01T01:06:22.976Z</time>
      </trkpt>
      <trkpt lat="43.84378" lon="2.81968">
        <ele>384.684335</ele>
        <time>2021-05-01T01:06:36.255Z</time>
      </trkpt>
      <trkpt lat="43.84379" lon="2.81915">
        <ele>385.203055</ele>
        <time>2021-05-01T01:06:46.693Z</time>
      </trkpt>
      <trkpt lat="43.84384" lon="2.81849">
        <ele>385.856791</ele>
        <time>2021-05-01T01:07:00.569Z</time>
      </trkpt>
      <trkpt lat="43.8441" lon="2.81748">
        <ele>387.17941</ele>
        <time>2021-05-01T01:07:23.138Z</time>
      </trkpt>
      <trkpt lat="43.84414" lon="2.81706">
        <ele>387.705158</ele>
        <time>2021-05-01T01:07:32.083Z</time>
      </trkpt>
      <trkpt lat="43.8442" lon="2.81654">
        <ele>388.357482</ele>
        <time>2021-05-01T01:07:43.285Z</time>
      </trkpt>
      <trkpt lat="43.84427" lon="2.81584">
        <ele>389.174543</ele>
        <time>2021-05-01T01:07:58.352Z</time>
      </trkpt>
      <trkpt lat="43.8443" lon="2.81469">
        <ele>390.203831</ele>
        <time>2021-05-01T01:08:21.778Z</time>
      </trkpt>
      <trkpt lat="43.84425" lon="2.81428">
        <ele>390.582912</ele>
        <time>2021-05-01T01:08:29.817Z</time>
      </trkpt>
      <trkpt lat="43.84416" lon="2.81394">
        <ele>390.908177</ele>
        <time>2021-05-01T01:08:36.447Z</time>
      </trkpt>
      <trkpt lat="43.84409" lon="2.81352">
        <ele>391.272464</ele>
        <time>2021-05-01T01:08:44.301Z</time>
      </trkpt>
      <trkpt lat="43.84404" lon="2.81268">
        <ele>391.699574</ele>
        <time>2021-05-01T01:08:59.636Z</time>
      </trkpt>
      <trkpt lat="43.84387" lon="2.81135">
        <ele>392.38501</ele>
        <time>2021-05-01T01:09:24.418Z</time>
      </trkpt>
      <trkpt lat="43.84383" lon="2.81078">
        <ele>392.561133</ele>
        <time>2021-05-01T01:09:34.400Z</time>
      </trkpt>
      <trkpt lat="43.84381" lon="2.81041">
        <ele>392.62468</ele>
        <time>2021-05-01T01:09:40.957Z</time>
      </trkpt>
      <trkpt lat="43.84377" lon="2.80984">
        <ele>392.721961</ele>
        <time>2021-05-01T01:09:50.184Z</time>
      </trkpt>
      <trkpt lat="43.84354" lon="2.80862">
        <ele>392.953755</ele>
        <time>2021-05-01T01:10:10.505Z</time>
      </trkpt>
      <trkpt lat="43.84351" lon="2.80831">
        <ele>393.125163</ele>
        <time>2021-05-01T01:10:15.921Z</time>
      </trkpt>
      <trkpt lat="43.84356" lon="2.80808">
        <ele>393.250497</ele>
        <time>2021-05-01T01:10:19.947Z</time>
      </trkpt>
      <trkpt lat="43.8437" lon="2.80777">
        <ele>393.451827</ele>
        <time>2021-05-01T01:10:26.238Z</time>
      </trkpt>
      <trkpt lat="43.84393" lon="2.80737">
        <ele>393.727545</ele>
        <time>2021-05-01T01:10:35.491Z</time>
      </trkpt>
      <trkpt lat="43.844" lon="2.8072">
        <ele>393.83178</ele>
        <time>2021-05-01T01:10:39.295Z</time>
      </trkpt>
      <trkpt lat="43.84412" lon="2.80692">
        <ele>394.007933</ele>
        <time>2021-05-01T01:10:45.338Z</time>
      </trkpt>
      <trkpt lat="43.84421" lon="2.80644">
        <ele>394.285526</ele>
        <time>2021-05-01T01:10:55.193Z</time>
      </trkpt>
      <trkpt lat="43.84422" lon="2.80581">
        <ele>395.005869</ele>
        <time>2021-05-01T01:11:08.136Z</time>
      </trkpt>
      <trkpt lat="43.8443" lon="2.80339">
        <ele>397.682242</ele>
        <time>2021-05-01T01:11:59.100Z</time>
      </trkpt>
      <trkpt lat="43.84455" lon="2.80285">
        <ele>398.278205</ele>
        <time>2021-05-01T01:12:11.596Z</time>
      </trkpt>
      <trkpt lat="43.84518" lon="2.80193">
        <ele>399.457632</ele>
        <time>2021-05-01T01:12:36.213Z</time>
      </trkpt>
      <trkpt lat="43.84533" lon="2.80161">
        <ele>399.685307</ele>
        <time>2021-05-01T01:12:43.402Z</time>
      </trkpt>
      <trkpt lat="43.84537" lon="2.80128">
        <ele>399.884604</ele>
        <time>2021-05-01T01:12:49.821Z</time>
      </trkpt>
      <trkpt lat="43.8454" lon="2.801">
        <ele>400.05661</ele>
        <time>2021-05-01T01:12:55.322Z</time>
      </trkpt>
      <trkpt lat="43.84541" lon="2.80094">
        <ele>400.093666</ele>
        <time>2021-05-01T01:12:56.485Z</time>
      </trkpt>
      <trkpt lat="43.84558" lon="2.79992">
        <ele>400.715195</ele>
        <time>2021-05-01T01:13:16.078Z</time>
      </trkpt>
      <trkpt lat="43.84557" lon="2.79871">
        <ele>401.206816</ele>
        <time>2021-05-01T01:13:35.877Z</time>
      </trkpt>
      <trkpt lat="43.8454" lon="2.79796">
        <ele>401.450748</ele>
        <time>2021-05-01T01:13:49.196Z</time>
      </trkpt>
      <trkpt lat="43.84542" lon="2.79787">
        <ele>401.480943</ele>
        <time>2021-05-01T01:13:51.033Z</time>
      </trkpt>
      <trkpt lat="43.84546" lon="2.79768">
        <ele>401.543457</ele>
        <time>2021-05-01T01:13:54.253Z</time>
      </trkpt>
      <trkpt lat="43.84554" lon="2.79742">
        <ele>401.630418</ele>
        <time>2021-05-01T01:13:59.649Z</time>
      </trkpt>
      <trkpt lat="43.84555" lon="2.79716">
        <ele>401.711964</ele>
        <time>2021-05-01T01:14:04.045Z</time>
      </trkpt>
      <trkpt lat="43.84542" lon="2.79667">
        <ele>402.197552</ele>
        <time>2021-05-01T01:14:13.698Z</time>
      </trkpt>
      <trkpt lat="43.84527" lon="2.7962">
        <ele>402.73421</ele>
        <time>2021-05-01T01:14:23.520Z</time>
      </trkpt>
      <trkpt lat="43.84518" lon="2.79598">
        <ele>402.994438</ele>
        <time>2021-05-01T01:14:28.850Z</time>
      </trkpt>
      <trkpt lat="43.84474" lon="2.79507">
        <ele>404.130385</ele>
        <time>2021-05-01T01:14:51.923Z</time>
      </trkpt>
      <trkpt lat="43.84405" lon="2.79285">
        <ele>407.817728</ele>
        <time>2021-05-01T01:15:45.322Z</time>
      </trkpt>
      <trkpt lat="43.84381" lon="2.79184">
        <ele>410.029278</ele>
        <time>2021-05-01T01:16:10.586Z</time>
      </trkpt>
      <trkpt lat="43.84359" lon="2.79085">
        <ele>412.369422</ele>
        <time>2021-05-01T01:16:37.118Z</time>
      </trkpt>
      <trkpt lat="43.84357" lon="2.79061">
        <ele>412.908473</ele>
        <time>2021-05-01T01:16:43.613Z</time>
      </trkpt>
      <trkpt lat="43.84357" lon="2.79048">
        <ele>413.219852</ele>
        <time>2021-05-01T01:16:47.011Z</time>
      </trkpt>
      <trkpt lat="43.84358" lon="2.79036">
        <ele>413.476281</ele>
        <time>2021-05-01T01:16:49.901Z</time>
      </trkpt>
      <trkpt lat="43.84366" lon="2.79005">
        <ele>414.298403</ele>
        <time>2021-05-01T01:16:58.805Z</time>
      </trkpt>
      <trkpt lat="43.84379" lon="2.78962">
        <ele>415.531322</ele>
        <time>2021-05-01T01:17:11.133Z</time>
      </trkpt>
      <trkpt lat="43.84419" lon="2.78794">
        <ele>420.26787</ele>
        <time>2021-05-01T01:17:58.792Z</time>
      </trkpt>
      <trkpt lat="43.84421" lon="2.7875">
        <ele>421.510193</ele>
        <time>2021-05-01T01:18:10.330Z</time>
      </trkpt>
      <trkpt lat="43.84407" lon="2.78546">
        <ele>427.511911</ele>
        <time>2021-05-01T01:19:07.570Z</time>
      </trkpt>
      <trkpt lat="43.84416" lon="2.78395">
        <ele>431.945885</ele>
        <time>2021-05-01T01:19:51.414Z</time>
      </trkpt>
      <trkpt lat="43.84408" lon="2.78319">
        <ele>434.191559</ele>
        <time>2021-05-01T01:20:12.520Z</time>
      </trkpt>
      <trkpt lat="43.8441" lon="2.78217">
        <ele>436.41498</ele>
        <time>2021-05-01T01:20:38.538Z</time>
      </trkpt>
      <trkpt lat="43.84404" lon="2.78182">
        <ele>437.076648</ele>
        <time>2021-05-01T01:20:46.974Z</time>
      </trkpt>
      <trkpt lat="43.84385" lon="2.78156">
        <ele>437.753865</ele>
        <time>2021-05-01T01:20:55.259Z</time>
      </trkpt>
      <trkpt lat="43.84313" lon="2.78124">
        <ele>439.708401</ele>
        <time>2021-05-01T01:21:17.524Z</time>
      </trkpt>
      <trkpt lat="43.8419" lon="2.78001">
        <ele>445.004716</ele>
        <time>2021-05-01T01:22:08.222Z</time>
      </trkpt>
      <trkpt lat="43.83864" lon="2.7766">
        <ele>470.760947</ele>
        <time>2021-05-01T01:25:31.656Z</time>
      </trkpt>
      <trkpt lat="43.83827" lon="2.77635">
        <ele>473.251259</ele>
        <time>2021-05-01T01:25:52.293Z</time>
      </trkpt>
      <trkpt lat="43.83818" lon="2.77623">
        <ele>473.992176</ele>
        <time>2021-05-01T01:25:58.287Z</time>
      </trkpt>
      <trkpt lat="43.83814" lon="2.7761">
        <ele>474.60544</ele>
        <time>2021-05-01T01:26:03.199Z</time>
      </trkpt>
      <trkpt lat="43.83816" lon="2.77558">
        <ele>476.839526</ele>
        <time>2021-05-01T01:26:20.798Z</time>
      </trkpt>
      <trkpt lat="43.83799" lon="2.77487">
        <ele>480.119837</ele>
        <time>2021-05-01T01:26:45.601Z</time>
      </trkpt>
      <trkpt lat="43.83812" lon="2.77375">
        <ele>483.84656</ele>
        <time>2021-05-01T01:27:20.245Z</time>
      </trkpt>
      <trkpt lat="43.83807" lon="2.77358">
        <ele>484.44759</ele>
        <time>2021-05-01T01:27:25.694Z</time>
      </trkpt>
      <trkpt lat="43.83788" lon="2.77342">
        <ele>485.44271</ele>
        <time>2021-05-01T01:27:34.716Z</time>
      </trkpt>
      <trkpt lat="43.83777" lon="2.77343">
        <ele>485.943235</ele>
        <time>2021-05-01T01:27:39.161Z</time>
      </trkpt>
      <trkpt lat="43.83412" lon="2.77609">
        <ele>502.196461</ele>
        <time>2021-05-01T01:30:18.787Z</time>
      </trkpt>
      <trkpt lat="43.83369" lon="2.7764">
        <ele>503.444221</ele>
        <time>2021-05-01T01:30:36.772Z</time>
      </trkpt>
      <trkpt lat="43.83364" lon="2.77646">
        <ele>503.614882</ele>
        <time>2021-05-01T01:30:40.017Z</time>
      </trkpt>
      <trkpt lat="43.83287" lon="2.7775">
        <ele>506.26972</ele>
        <time>2021-05-01T01:31:14.733Z</time>
      </trkpt>
      <trkpt lat="43.83266" lon="2.77757">
        <ele>506.773715</ele>
        <time>2021-05-01T01:31:19.369Z</time>
      </trkpt>
      <trkpt lat="43.83254" lon="2.77755">
        <ele>506.804623</ele>
        <time>2021-05-01T01:31:23.853Z</time>
      </trkpt>
      <trkpt lat="43.83242" lon="2.7774">
        <ele>506.845922</ele>
        <time>2021-05-01T01:31:27.397Z</time>
      </trkpt>
      <trkpt lat="43.8324" lon="2.77664">
        <ele>506.987171</ele>
        <time>2021-05-01T01:31:41.689Z</time>
      </trkpt>
      <trkpt lat="43.83222" lon="2.77582">
        <ele>507.144456</ele>
        <time>2021-05-01T01:31:55.385Z</time>
      </trkpt>
      <trkpt lat="43.83179" lon="2.77509">
        <ele>507.278304</ele>
        <time>2021-05-01T01:32:10.396Z</time>
      </trkpt>
      <trkpt lat="43.83157" lon="2.77482">
        <ele>507.319433</ele>
        <time>2021-05-01T01:32:17.025Z</time>
      </trkpt>
      <trkpt lat="43.83135" lon="2.77473">
        <ele>507.35199</ele>
        <time>2021-05-01T01:32:22.500Z</time>
      </trkpt>
      <trkpt lat="43.83098" lon="2.77442">
        <ele>507.413609</ele>
        <time>2021-05-01T01:32:33.197Z</time>
      </trkpt>
      <trkpt lat="43.83081" lon="2.77396">
        <ele>507.466008</ele>
        <time>2021-05-01T01:32:42.590Z</time>
      </trkpt>
      <trkpt lat="43.83047" lon="2.77353">
        <ele>507.083165</ele>
        <time>2021-05-01T01:32:54.080Z</time>
      </trkpt>
      <trkpt lat="43.83026" lon="2.77315">
        <ele>506.669554</ele>
        <time>2021-05-01T01:33:02.058Z</time>
      </trkpt>
      <trkpt lat="43.83008" lon="2.77228">
        <ele>505.88309</ele>
        <time>2021-05-01T01:33:14.740Z</time>
      </trkpt>
      <trkpt lat="43.83014" lon="2.77135">
        <ele>504.739257</ele>
        <time>2021-05-01T01:33:26.517Z</time>
      </trkpt>
      <trkpt lat="43.82997" lon="2.77074">
        <ele>503.401138</ele>
        <time>2021-05-01T01:33:34.728Z</time>
      </trkpt>
      <trkpt lat="43.82999" lon="2.77062">
        <ele>503.142186</ele>
        <time>2021-05-01T01:33:36.232Z</time>
      </trkpt>
      <trkpt lat="43.83014" lon="2.77031">
        <ele>502.379417</ele>
        <time>2021-05-01T01:33:40.967Z</time>
      </trkpt>
      <trkpt lat="43.83024" lon="2.77015">
        <ele>501.961294</ele>
        <time>2021-05-01T01:33:43.448Z</time>
      </trkpt>
      <trkpt lat="43.83026" lon="2.76983">
        <ele>501.299348</ele>
        <time>2021-05-01T01:33:47.448Z</time>
      </trkpt>
      <trkpt lat="43.82978" lon="2.76813">
        <ele>499.59925</ele>
        <time>2021-05-01T01:34:11.698Z</time>
      </trkpt>
      <trkpt lat="43.82975" lon="2.76804">
        <ele>499.548569</ele>
        <time>2021-05-01T01:34:13.224Z</time>
      </trkpt>
      <trkpt lat="43.82957" lon="2.76791">
        <ele>499.412413</ele>
        <time>2021-05-01T01:34:18.383Z</time>
      </trkpt>
      <trkpt lat="43.82902" lon="2.76824">
        <ele>499.03889</ele>
        <time>2021-05-01T01:34:34.413Z</time>
      </trkpt>
      <trkpt lat="43.82853" lon="2.76822">
        <ele>500.10582</ele>
        <time>2021-05-01T01:34:48.706Z</time>
      </trkpt>
      <trkpt lat="43.82825" lon="2.76827">
        <ele>500.708359</ele>
        <time>2021-05-01T01:34:57.094Z</time>
      </trkpt>
      <trkpt lat="43.82736" lon="2.76846">
        <ele>502.658335</ele>
        <time>2021-05-01T01:35:27.349Z</time>
      </trkpt>
      <trkpt lat="43.82722" lon="2.76834">
        <ele>503.138625</ele>
        <time>2021-05-01T01:35:33.381Z</time>
      </trkpt>
      <trkpt lat="43.82722" lon="2.76812">
        <ele>503.767021</ele>
        <time>2021-05-01T01:35:39.064Z</time>
      </trkpt>
      <trkpt lat="43.82728" lon="2.76799">
        <ele>504.191528</ele>
        <time>2021-05-01T01:35:42.968Z</time>
      </trkpt>
      <trkpt lat="43.82795" lon="2.76733">
        <ele>507.465203</ele>
        <time>2021-05-01T01:36:14.099Z</time>
      </trkpt>
      <trkpt lat="43.82818" lon="2.76701">
        <ele>508.746317</ele>
        <time>2021-05-01T01:36:27.322Z</time>
      </trkpt>
      <trkpt lat="43.82818" lon="2.76665">
        <ele>509.774937</ele>
        <time>2021-05-01T01:36:38.521Z</time>
      </trkpt>
      <trkpt lat="43.82813" lon="2.76644">
        <ele>510.549316</ele>
        <time>2021-05-01T01:36:45.647Z</time>
      </trkpt>
      <trkpt lat="43.82786" lon="2.76594">
        <ele>512.990076</ele>
        <time>2021-05-01T01:37:06.300Z</time>
      </trkpt>
      <trkpt lat="43.82775" lon="2.76576">
        <ele>513.920436</ele>
        <time>2021-05-01T01:37:14.289Z</time>
      </trkpt>
      <trkpt lat="43.8276" lon="2.76564">
        <ele>514.838893</ele>
        <time>2021-05-01T01:37:22.249Z</time>
      </trkpt>
      <trkpt lat="43.82716" lon="2.76546">
        <ele>517.292864</ele>
        <time>2021-05-01T01:37:43.296Z</time>
      </trkpt>
      <trkpt lat="43.82626" lon="2.76552">
        <ele>521.023669</ele>
        <time>2021-05-01T01:38:22.984Z</time>
      </trkpt>
      <trkpt lat="43.82595" lon="2.76544">
        <ele>521.939442</ele>
        <time>2021-05-01T01:38:35.244Z</time>
      </trkpt>
      <trkpt lat="43.82532" lon="2.76488">
        <ele>524.08321</ele>
        <time>2021-05-01T01:38:59.274Z</time>
      </trkpt>
      <trkpt lat="43.82503" lon="2.76456">
        <ele>524.815267</ele>
        <time>2021-05-01T01:39:08.798Z</time>
      </trkpt>
      <trkpt lat="43.82443" lon="2.76357">
        <ele>524.285351</ele>
        <time>2021-05-01T01:39:28.593Z</time>
      </trkpt>
      <trkpt lat="43.82387" lon="2.76223">
        <ele>523.75668</ele>
        <time>2021-05-01T01:39:50.515Z</time>
      </trkpt>
      <trkpt lat="43.82336" lon="2.76165">
        <ele>523.588278</ele>
        <time>2021-05-01T01:40:04.785Z</time>
      </trkpt>
      <trkpt lat="43.82295" lon="2.76065">
        <ele>523.377788</ele>
        <time>2021-05-01T01:40:25.512Z</time>
      </trkpt>
      <trkpt lat="43.8228" lon="2.75995">
        <ele>523.301876</ele>
        <time>2021-05-01T01:40:38.669Z</time>
      </trkpt>
      <trkpt lat="43.82277" lon="2.75968">
        <ele>523.274369</ele>
        <time>2021-05-01T01:40:43.301Z</time>
      </trkpt>
      <trkpt lat="43.82267" lon="2.75935">
        <ele>523.236083</ele>
        <time>2021-05-01T01:40:49.611Z</time>
      </trkpt>
      <trkpt lat="43.82244" lon="2.75912">
        <ele>523.196103</ele>
        <time>2021-05-01T01:40:55.792Z</time>
      </trkpt>
      <trkpt lat="43.82236" lon="2.75901">
        <ele>523.18016</ele>
        <time>2021-05-01T01:40:58.320Z</time>
      </trkpt>
      <trkpt lat="43.82287" lon="2.75784">
        <ele>522.09946</ele>
        <time>2021-05-01T01:41:17.429Z</time>
      </trkpt>
      <trkpt lat="43.82314" lon="2.75726">
        <ele>521.248</ele>
        <time>2021-05-01T01:41:26.256Z</time>
      </trkpt>
      <trkpt lat="43.82349" lon="2.75643">
        <ele>520.048742</ele>
        <time>2021-05-01T01:41:38.284Z</time>
      </trkpt>
      <trkpt lat="43.82397" lon="2.75494">
        <ele>517.169473</ele>
        <time>2021-05-01T01:41:58.251Z</time>
      </trkpt>
      <trkpt lat="43.82442" lon="2.75359">
        <ele>514.51824</ele>
        <time>2021-05-01T01:42:16.530Z</time>
      </trkpt>
      <trkpt lat="43.82445" lon="2.75349">
        <ele>514.331147</ele>
        <time>2021-05-01T01:42:17.814Z</time>
      </trkpt>
      <trkpt lat="43.82447" lon="2.7534">
        <ele>514.15499</ele>
        <time>2021-05-01T01:42:18.982Z</time>
      </trkpt>
      <trkpt lat="43.82454" lon="2.75316">
        <ele>513.707002</ele>
        <time>2021-05-01T01:42:22.229Z</time>
      </trkpt>
      <trkpt lat="43.82459" lon="2.75298">
        <ele>513.360542</ele>
        <time>2021-05-01T01:42:24.651Z</time>
      </trkpt>
      <trkpt lat="43.82459" lon="2.7525">
        <ele>512.502455</ele>
        <time>2021-05-01T01:42:30.617Z</time>
      </trkpt>
      <trkpt lat="43.82458" lon="2.75244">
        <ele>512.388584</ele>
        <time>2021-05-01T01:42:31.394Z</time>
      </trkpt>
      <trkpt lat="43.8244" lon="2.75142">
        <ele>510.320458</ele>
        <time>2021-05-01T01:42:44.183Z</time>
      </trkpt>
      <trkpt lat="43.82435" lon="2.75117">
        <ele>509.719167</ele>
        <time>2021-05-01T01:42:47.347Z</time>
      </trkpt>
      <trkpt lat="43.82431" lon="2.75111">
        <ele>509.531129</ele>
        <time>2021-05-01T01:42:48.352Z</time>
      </trkpt>
      <trkpt lat="43.82426" lon="2.75106">
        <ele>509.335332</ele>
        <time>2021-05-01T01:42:49.326Z</time>
      </trkpt>
      <trkpt lat="43.82424" lon="2.75105">
        <ele>509.249743</ele>
        <time>2021-05-01T01:42:49.796Z</time>
      </trkpt>
      <trkpt lat="43.82417" lon="2.75115">
        <ele>508.933315</ele>
        <time>2021-05-01T01:42:51.537Z</time>
      </trkpt>
      <trkpt lat="43.82413" lon="2.75126">
        <ele>508.638094</ele>
        <time>2021-05-01T01:42:53.006Z</time>
      </trkpt>
      <trkpt lat="43.82403" lon="2.75152">
        <ele>507.948467</ele>
        <time>2021-05-01T01:42:56.646Z</time>
      </trkpt>
      <trkpt lat="43.82389" lon="2.7518">
        <ele>507.175308</ele>
        <time>2021-05-01T01:43:00.602Z</time>
      </trkpt>
      <trkpt lat="43.82389" lon="2.7518">
        <ele>507.175308</ele>
        <time>2021-05-01T01:43:00.612Z</time>
      </trkpt>
      <trkpt lat="43.82375" lon="2.75201">
        <ele>506.513016</ele>
        <time>2021-05-01T01:43:04.020Z</time>
      </trkpt>
      <trkpt lat="43.82328" lon="2.75271">
        <ele>503.647564</ele>
        <time>2021-05-01T01:43:14.848Z</time>
      </trkpt>
      <trkpt lat="43.8231" lon="2.75296">
        <ele>502.368772</ele>
        <time>2021-05-01T01:43:18.567Z</time>
      </trkpt>
      <trkpt lat="43.82299" lon="2.75313">
        <ele>501.52006</ele>
        <time>2021-05-01T01:43:21.111Z</time>
      </trkpt>
      <trkpt lat="43.82295" lon="2.75317">
        <ele>501.279415</ele>
        <time>2021-05-01T01:43:21.810Z</time>
      </trkpt>
      <trkpt lat="43.8226" lon="2.75369">
        <ele>498.664795</ele>
        <time>2021-05-01T01:43:29.522Z</time>
      </trkpt>
      <trkpt lat="43.82247" lon="2.75385">
        <ele>497.81926</ele>
        <time>2021-05-01T01:43:32.070Z</time>
      </trkpt>
      <trkpt lat="43.82232" lon="2.754">
        <ele>496.841173</ele>
        <time>2021-05-01T01:43:34.928Z</time>
      </trkpt>
      <trkpt lat="43.82218" lon="2.75409">
        <ele>496.043107</ele>
        <time>2021-05-01T01:43:37.176Z</time>
      </trkpt>
      <trkpt lat="43.822" lon="2.75419">
        <ele>494.752579</ele>
        <time>2021-05-01T01:43:40.086Z</time>
      </trkpt>
      <trkpt lat="43.82181" lon="2.75432">
        <ele>493.352737</ele>
        <time>2021-05-01T01:43:43.312Z</time>
      </trkpt>
      <trkpt lat="43.82162" lon="2.75449">
        <ele>491.897203</ele>
        <time>2021-05-01T01:43:46.631Z</time>
      </trkpt>
      <trkpt lat="43.82124" lon="2.75508">
        <ele>488.188913</ele>
        <time>2021-05-01T01:43:54.717Z</time>
      </trkpt>
      <trkpt lat="43.82108" lon="2.75519">
        <ele>487.009104</ele>
        <time>2021-05-01T01:43:57.296Z</time>
      </trkpt>
      <trkpt lat="43.82089" lon="2.75517">
        <ele>485.747674</ele>
        <time>2021-05-01T01:44:00.012Z</time>
      </trkpt>
      <trkpt lat="43.82056" lon="2.75486">
        <ele>483.318826</ele>
        <time>2021-05-01T01:44:05.741Z</time>
      </trkpt>
      <trkpt lat="43.82042" lon="2.7548">
        <ele>482.474773</ele>
        <time>2021-05-01T01:44:07.839Z</time>
      </trkpt>
      <trkpt lat="43.82022" lon="2.75478">
        <ele>481.35548</ele>
        <time>2021-05-01T01:44:10.582Z</time>
      </trkpt>
      <trkpt lat="43.81995" lon="2.75473">
        <ele>479.801311</ele>
        <time>2021-05-01T01:44:14.467Z</time>
      </trkpt>
      <trkpt lat="43.81956" lon="2.7547">
        <ele>477.553884</ele>
        <time>2021-05-01T01:44:20.392Z</time>
      </trkpt>
      <trkpt lat="43.81918" lon="2.75497">
        <ele>475.096224</ele>
        <time>2021-05-01T01:44:27.107Z</time>
      </trkpt>
      <trkpt lat="43.8189" lon="2.75518">
        <ele>473.620763</ele>
        <time>2021-05-01T01:44:31.908Z</time>
      </trkpt>
      <trkpt lat="43.81883" lon="2.75524">
        <ele>473.294637</ele>
        <time>2021-05-01T01:44:33.234Z</time>
      </trkpt>
      <trkpt lat="43.81845" lon="2.75555">
        <ele>471.577249</ele>
        <time>2021-05-01T01:44:40.604Z</time>
      </trkpt>
      <trkpt lat="43.81835" lon="2.75574">
        <ele>470.913727</ele>
        <time>2021-05-01T01:44:43.356Z</time>
      </trkpt>
      <trkpt lat="43.81826" lon="2.7559">
        <ele>470.338841</ele>
        <time>2021-05-01T01:44:45.773Z</time>
      </trkpt>
      <trkpt lat="43.81819" lon="2.75595">
        <ele>470.048593</ele>
        <time>2021-05-01T01:44:47.398Z</time>
      </trkpt>
      <trkpt lat="43.81812" lon="2.75597">
        <ele>469.74662</ele>
        <time>2021-05-01T01:44:48.509Z</time>
      </trkpt>
      <trkpt lat="43.81799" lon="2.75594">
        <ele>469.26514</ele>
        <time>2021-05-01T01:44:50.405Z</time>
      </trkpt>
      <trkpt lat="43.81773" lon="2.75565">
        <ele>467.960503</ele>
        <time>2021-05-01T01:44:55.829Z</time>
      </trkpt>
      <trkpt lat="43.8177" lon="2.75562">
        <ele>467.807042</ele>
        <time>2021-05-01T01:44:56.415Z</time>
      </trkpt>
      <trkpt lat="43.81767" lon="2.75526">
        <ele>466.249725</ele>
        <time>2021-05-01T01:45:00.525Z</time>
      </trkpt>
      <trkpt lat="43.81786" lon="2.7547">
        <ele>462.395379</ele>
        <time>2021-05-01T01:45:07.093Z</time>
      </trkpt>
      <trkpt lat="43.81792" lon="2.75454">
        <ele>461.259038</ele>
        <time>2021-05-01T01:45:09.082Z</time>
      </trkpt>
      <trkpt lat="43.81796" lon="2.75435">
        <ele>460.082327</ele>
        <time>2021-05-01T01:45:10.939Z</time>
      </trkpt>
      <trkpt lat="43.81796" lon="2.75425">
        <ele>459.455812</ele>
        <time>2021-05-01T01:45:11.934Z</time>
      </trkpt>
      <trkpt lat="43.81795" lon="2.75373">
        <ele>456.248216</ele>
        <time>2021-05-01T01:45:17.015Z</time>
      </trkpt>
      <trkpt lat="43.81793" lon="2.75366">
        <ele>455.818298</ele>
        <time>2021-05-01T01:45:17.693Z</time>
      </trkpt>
      <trkpt lat="43.8179" lon="2.75355">
        <ele>455.074716</ele>
        <time>2021-05-01T01:45:18.912Z</time>
      </trkpt>
      <trkpt lat="43.81788" lon="2.7535">
        <ele>454.70375</ele>
        <time>2021-05-01T01:45:19.478Z</time>
      </trkpt>
      <trkpt lat="43.81781" lon="2.75338">
        <ele>453.721365</ele>
        <time>2021-05-01T01:45:20.981Z</time>
      </trkpt>
      <trkpt lat="43.81771" lon="2.75332">
        <ele>452.827613</ele>
        <time>2021-05-01T01:45:22.387Z</time>
      </trkpt>
      <trkpt lat="43.81758" lon="2.75327">
        <ele>451.678653</ele>
        <time>2021-05-01T01:45:24.241Z</time>
      </trkpt>
      <trkpt lat="43.81744" lon="2.75321">
        <ele>450.577585</ele>
        <time>2021-05-01T01:45:26.119Z</time>
      </trkpt>
      <trkpt lat="43.81705" lon="2.75303">
        <ele>447.415877</ele>
        <time>2021-05-01T01:45:31.706Z</time>
      </trkpt>
      <trkpt lat="43.81693" lon="2.75291">
        <ele>446.263264</ele>
        <time>2021-05-01T01:45:33.851Z</time>
      </trkpt>
      <trkpt lat="43.81691" lon="2.75287">
        <ele>445.951824</ele>
        <time>2021-05-01T01:45:34.366Z</time>
      </trkpt>
      <trkpt lat="43.81687" lon="2.75279">
        <ele>445.473469</ele>
        <time>2021-05-01T01:45:35.222Z</time>
      </trkpt>
      <trkpt lat="43.81683" lon="2.75263">
        <ele>444.513535</ele>
        <time>2021-05-01T01:45:37.015Z</time>
      </trkpt>
      <trkpt lat="43.81682" lon="2.75239">
        <ele>443.165558</ele>
        <time>2021-05-01T01:45:39.472Z</time>
      </trkpt>
      <trkpt lat="43.81684" lon="2.75213">
        <ele>441.705632</ele>
        <time>2021-05-01T01:45:42.226Z</time>
      </trkpt>
      <trkpt lat="43.81685" lon="2.75182">
        <ele>440.008348</ele>
        <time>2021-05-01T01:45:45.469Z</time>
      </trkpt>
      <trkpt lat="43.81687" lon="2.75155">
        <ele>438.502941</ele>
        <time>2021-05-01T01:45:48.589Z</time>
      </trkpt>
      <trkpt lat="43.81687" lon="2.75155">
        <ele>438.502941</ele>
        <time>2021-05-01T01:45:48.592Z</time>
      </trkpt>
      <trkpt lat="43.8169" lon="2.75142">
        <ele>438.010391</ele>
        <time>2021-05-01T01:45:50.256Z</time>
      </trkpt>
      <trkpt lat="43.81697" lon="2.75134">
        <ele>437.990126</ele>
        <time>2021-05-01T01:45:51.571Z</time>
      </trkpt>
      <trkpt lat="43.81703" lon="2.75129">
        <ele>437.971542</ele>
        <time>2021-05-01T01:45:52.863Z</time>
      </trkpt>
      <trkpt lat="43.81731" lon="2.75122">
        <ele>437.901444</ele>
        <time>2021-05-01T01:45:57.567Z</time>
      </trkpt>
      <trkpt lat="43.8174" lon="2.75119">
        <ele>437.876032</ele>
        <time>2021-05-01T01:45:59.405Z</time>
      </trkpt>
      <trkpt lat="43.81748" lon="2.75114">
        <ele>437.85611</ele>
        <time>2021-05-01T01:46:00.874Z</time>
      </trkpt>
      <trkpt lat="43.81755" lon="2.75108">
        <ele>437.833496</ele>
        <time>2021-05-01T01:46:03.338Z</time>
      </trkpt>
      <trkpt lat="43.81773" lon="2.75071">
        <ele>437.75356</ele>
        <time>2021-05-01T01:46:10.868Z</time>
      </trkpt>
      <trkpt lat="43.81773" lon="2.75026">
        <ele>437.672932</ele>
        <time>2021-05-01T01:46:19.729Z</time>
      </trkpt>
      <trkpt lat="43.81773" lon="2.75025">
        <ele>437.670588</ele>
        <time>2021-05-01T01:46:20.131Z</time>
      </trkpt>
      <trkpt lat="43.81768" lon="2.75005">
        <ele>437.632805</ele>
        <time>2021-05-01T01:46:25.171Z</time>
      </trkpt>
      <trkpt lat="43.81759" lon="2.74986">
        <ele>437.591298</ele>
        <time>2021-05-01T01:46:29.633Z</time>
      </trkpt>
      <trkpt lat="43.81724" lon="2.74951">
        <ele>438.762219</ele>
        <time>2021-05-01T01:46:44.192Z</time>
      </trkpt>
      <trkpt lat="43.81685" lon="2.74935">
        <ele>440.134289</ele>
        <time>2021-05-01T01:46:58.427Z</time>
      </trkpt>
      <trkpt lat="43.81605" lon="2.74922">
        <ele>442.864596</ele>
        <time>2021-05-01T01:47:29.167Z</time>
      </trkpt>
      <trkpt lat="43.81473" lon="2.74897">
        <ele>448.233422</ele>
        <time>2021-05-01T01:48:17.628Z</time>
      </trkpt>
      <trkpt lat="43.81439" lon="2.74877">
        <ele>449.798167</ele>
        <time>2021-05-01T01:48:33.759Z</time>
      </trkpt>
      <trkpt lat="43.81403" lon="2.74852">
        <ele>451.519024</ele>
        <time>2021-05-01T01:48:50.769Z</time>
      </trkpt>
      <trkpt lat="43.81385" lon="2.74837">
        <ele>452.553971</ele>
        <time>2021-05-01T01:48:59.732Z</time>
      </trkpt>
      <trkpt lat="43.8137" lon="2.74815">
        <ele>453.657918</ele>
        <time>2021-05-01T01:49:08.062Z</time>
      </trkpt>
      <trkpt lat="43.8136" lon="2.74798">
        <ele>454.444082</ele>
        <time>2021-05-01T01:49:16.203Z</time>
      </trkpt>
      <trkpt lat="43.81352" lon="2.74772">
        <ele>455.449392</ele>
        <time>2021-05-01T01:49:23.317Z</time>
      </trkpt>
      <trkpt lat="43.8135" lon="2.74742">
        <ele>456.559354</ele>
        <time>2021-05-01T01:49:34.642Z</time>
      </trkpt>
      <trkpt lat="43.81358" lon="2.74671">
        <ele>459.118904</ele>
        <time>2021-05-01T01:49:53.604Z</time>
      </trkpt>
      <trkpt lat="43.8139" lon="2.74548">
        <ele>461.8113</ele>
        <time>2021-05-01T01:50:36.127Z</time>
      </trkpt>
      <trkpt lat="43.81457" lon="2.74413">
        <ele>463.783403</ele>
        <time>2021-05-01T01:51:06.485Z</time>
      </trkpt>
      <trkpt lat="43.81544" lon="2.74218">
        <ele>458.026102</ele>
        <time>2021-05-01T01:51:32.689Z</time>
      </trkpt>
      <trkpt lat="43.81553" lon="2.7419">
        <ele>456.664754</ele>
        <time>2021-05-01T01:51:35.881Z</time>
      </trkpt>
      <trkpt lat="43.81557" lon="2.74156">
        <ele>455.021146</ele>
        <time>2021-05-01T01:51:39.553Z</time>
      </trkpt>
      <trkpt lat="43.81574" lon="2.74136">
        <ele>453.617445</ele>
        <time>2021-05-01T01:51:42.748Z</time>
      </trkpt>
      <trkpt lat="43.81661" lon="2.73962">
        <ele>443.338727</ele>
        <time>2021-05-01T01:52:05.692Z</time>
      </trkpt>
      <trkpt lat="43.8173" lon="2.73849">
        <ele>435.614225</ele>
        <time>2021-05-01T01:52:21.750Z</time>
      </trkpt>
      <trkpt lat="43.81764" lon="2.73794">
        <ele>431.97986</ele>
        <time>2021-05-01T01:52:29.555Z</time>
      </trkpt>
      <trkpt lat="43.81796" lon="2.7373">
        <ele>428.324819</ele>
        <time>2021-05-01T01:52:37.871Z</time>
      </trkpt>
      <trkpt lat="43.8185" lon="2.73656">
        <ele>423.364736</ele>
        <time>2021-05-01T01:52:49.314Z</time>
      </trkpt>
      <trkpt lat="43.8189" lon="2.73673">
        <ele>421.208813</ele>
        <time>2021-05-01T01:52:56.040Z</time>
      </trkpt>
      <trkpt lat="43.81909" lon="2.73679">
        <ele>420.811401</ele>
        <time>2021-05-01T01:52:59.202Z</time>
      </trkpt>
      <trkpt lat="43.81922" lon="2.73675">
        <ele>420.539674</ele>
        <time>2021-05-01T01:53:01.521Z</time>
      </trkpt>
      <trkpt lat="43.81992" lon="2.73649">
        <ele>419.071472</ele>
        <time>2021-05-01T01:53:14.517Z</time>
      </trkpt>
      <trkpt lat="43.82005" lon="2.73653">
        <ele>418.799449</ele>
        <time>2021-05-01T01:53:17.082Z</time>
      </trkpt>
      <trkpt lat="43.82009" lon="2.73665">
        <ele>418.607512</ele>
        <time>2021-05-01T01:53:18.900Z</time>
      </trkpt>
      <trkpt lat="43.82018" lon="2.73755">
        <ele>418.505645</ele>
        <time>2021-05-01T01:53:36.263Z</time>
      </trkpt>
      <trkpt lat="43.82036" lon="2.73858">
        <ele>420.450526</ele>
        <time>2021-05-01T01:54:01.274Z</time>
      </trkpt>
      <trkpt lat="43.82039" lon="2.73866">
        <ele>420.620266</ele>
        <time>2021-05-01T01:54:04.054Z</time>
      </trkpt>
      <trkpt lat="43.82043" lon="2.73868">
        <ele>420.717888</ele>
        <time>2021-05-01T01:54:05.422Z</time>
      </trkpt>
      <trkpt lat="43.82058" lon="2.73707">
        <ele>424.545761</ele>
        <time>2021-05-01T01:54:49.013Z</time>
      </trkpt>
      <trkpt lat="43.82075" lon="2.73658">
        <ele>426.164733</ele>
        <time>2021-05-01T01:55:05.728Z</time>
      </trkpt>
      <trkpt lat="43.82099" lon="2.73611">
        <ele>427.913336</ele>
        <time>2021-05-01T01:55:22.938Z</time>
      </trkpt>
      <trkpt lat="43.8218" lon="2.73526">
        <ele>430.865148</ele>
        <time>2021-05-01T01:56:00.887Z</time>
      </trkpt>
      <trkpt lat="43.82188" lon="2.7352">
        <ele>431.015917</ele>
        <time>2021-05-01T01:56:03.791Z</time>
      </trkpt>
      <trkpt lat="43.82209" lon="2.73515">
        <ele>431.39147</ele>
        <time>2021-05-01T01:56:10.483Z</time>
      </trkpt>
      <trkpt lat="43.82275" lon="2.73522">
        <ele>432.567439</ele>
        <time>2021-05-01T01:56:28.640Z</time>
      </trkpt>
      <trkpt lat="43.82296" lon="2.73514">
        <ele>432.950994</ele>
        <time>2021-05-01T01:56:33.492Z</time>
      </trkpt>
      <trkpt lat="43.82309" lon="2.7349">
        <ele>432.82643</ele>
        <time>2021-05-01T01:56:37.767Z</time>
      </trkpt>
      <trkpt lat="43.82359" lon="2.73337">
        <ele>430.49476</ele>
        <time>2021-05-01T01:56:58.709Z</time>
      </trkpt>
      <trkpt lat="43.8243" lon="2.73235">
        <ele>428.09276</ele>
        <time>2021-05-01T01:57:16.243Z</time>
      </trkpt>
      <trkpt lat="43.82474" lon="2.73135">
        <ele>425.823481</ele>
        <time>2021-05-01T01:57:30.343Z</time>
      </trkpt>
      <trkpt lat="43.82503" lon="2.73077">
        <ele>424.468574</ele>
        <time>2021-05-01T01:57:38.902Z</time>
      </trkpt>
      <trkpt lat="43.82516" lon="2.73042">
        <ele>423.752846</ele>
        <time>2021-05-01T01:57:43.464Z</time>
      </trkpt>
      <trkpt lat="43.82539" lon="2.72919">
        <ele>421.384629</ele>
        <time>2021-05-01T01:57:58.725Z</time>
      </trkpt>
      <trkpt lat="43.82545" lon="2.72863">
        <ele>420.337268</ele>
        <time>2021-05-01T01:58:05.697Z</time>
      </trkpt>
      <trkpt lat="43.82542" lon="2.72805">
        <ele>420.504329</ele>
        <time>2021-05-01T01:58:13.525Z</time>
      </trkpt>
      <trkpt lat="43.8253" lon="2.72763">
        <ele>420.796786</ele>
        <time>2021-05-01T01:58:20.251Z</time>
      </trkpt>
      <trkpt lat="43.82441" lon="2.7261">
        <ele>422.862239</ele>
        <time>2021-05-01T01:59:03.679Z</time>
      </trkpt>
      <trkpt lat="43.82439" lon="2.72574">
        <ele>423.794824</ele>
        <time>2021-05-01T01:59:14.394Z</time>
      </trkpt>
      <trkpt lat="43.82446" lon="2.72553">
        <ele>424.357114</ele>
        <time>2021-05-01T01:59:20.803Z</time>
      </trkpt>
      <trkpt lat="43.8247" lon="2.72522">
        <ele>425.528687</ele>
        <time>2021-05-01T01:59:34.116Z</time>
      </trkpt>
      <trkpt lat="43.82484" lon="2.72514">
        <ele>426.058408</ele>
        <time>2021-05-01T01:59:40.200Z</time>
      </trkpt>
      <trkpt lat="43.82531" lon="2.72503">
        <ele>427.76251</ele>
        <time>2021-05-01T01:59:58.331Z</time>
      </trkpt>
      <trkpt lat="43.82592" lon="2.72512">
        <ele>428.406129</ele>
        <time>2021-05-01T02:00:18.564Z</time>
      </trkpt>
      <trkpt lat="43.8263" lon="2.72538">
        <ele>428.627894</ele>
        <time>2021-05-01T02:00:30.210Z</time>
      </trkpt>
      <trkpt lat="43.82653" lon="2.72534">
        <ele>428.751291</ele>
        <time>2021-05-01T02:00:35.531Z</time>
      </trkpt>
      <trkpt lat="43.82683" lon="2.7247">
        <ele>429.033571</ele>
        <time>2021-05-01T02:00:45.779Z</time>
      </trkpt>
      <trkpt lat="43.82745" lon="2.72427">
        <ele>427.21612</ele>
        <time>2021-05-01T02:00:57.295Z</time>
      </trkpt>
      <trkpt lat="43.82782" lon="2.72391">
        <ele>425.805187</ele>
        <time>2021-05-01T02:01:04.466Z</time>
      </trkpt>
      <trkpt lat="43.82833" lon="2.72357">
        <ele>424.028343</ele>
        <time>2021-05-01T02:01:13.579Z</time>
      </trkpt>
      <trkpt lat="43.82855" lon="2.72334">
        <ele>423.341577</ele>
        <time>2021-05-01T02:01:17.927Z</time>
      </trkpt>
      <trkpt lat="43.82873" lon="2.72319">
        <ele>423.055976</ele>
        <time>2021-05-01T02:01:21.338Z</time>
      </trkpt>
      <trkpt lat="43.82905" lon="2.72304">
        <ele>422.601429</ele>
        <time>2021-05-01T02:01:27.038Z</time>
      </trkpt>
      <trkpt lat="43.82939" lon="2.72302">
        <ele>422.145653</ele>
        <time>2021-05-01T02:01:33.220Z</time>
      </trkpt>
      <trkpt lat="43.82982" lon="2.72314">
        <ele>421.557509</ele>
        <time>2021-05-01T02:01:42.219Z</time>
      </trkpt>
      <trkpt lat="43.82995" lon="2.7231">
        <ele>421.383408</ele>
        <time>2021-05-01T02:01:45.193Z</time>
      </trkpt>
      <trkpt lat="43.83004" lon="2.72301">
        <ele>421.23693</ele>
        <time>2021-05-01T02:01:47.417Z</time>
      </trkpt>
      <trkpt lat="43.8308" lon="2.7242">
        <ele>422.486815</ele>
        <time>2021-05-01T02:02:27.517Z</time>
      </trkpt>
      <trkpt lat="43.832" lon="2.72571">
        <ele>423.993646</ele>
        <time>2021-05-01T02:03:26.447Z</time>
      </trkpt>
      <trkpt lat="43.83262" lon="2.72722">
        <ele>424.540468</ele>
        <time>2021-05-01T02:04:00.646Z</time>
      </trkpt>
      <trkpt lat="43.83286" lon="2.72772">
        <ele>424.693138</ele>
        <time>2021-05-01T02:04:11.761Z</time>
      </trkpt>
      <trkpt lat="43.83329" lon="2.72781">
        <ele>424.846195</ele>
        <time>2021-05-01T02:04:23.955Z</time>
      </trkpt>
      <trkpt lat="43.83421" lon="2.728">
        <ele>426.391437</ele>
        <time>2021-05-01T02:04:57.339Z</time>
      </trkpt>
      <trkpt lat="43.83425" lon="2.72844">
        <ele>427.852226</ele>
        <time>2021-05-01T02:05:09.562Z</time>
      </trkpt>
      <trkpt lat="43.83564" lon="2.7289">
        <ele>434.541301</ele>
        <time>2021-05-01T02:06:15.687Z</time>
      </trkpt>
      <trkpt lat="43.83637" lon="2.7286">
        <ele>438.227689</ele>
        <time>2021-05-01T02:06:51.835Z</time>
      </trkpt>
      <trkpt lat="43.83649" lon="2.7286">
        <ele>438.840575</ele>
        <time>2021-05-01T02:06:57.321Z</time>
      </trkpt>
      <trkpt lat="43.83727" lon="2.72918">
        <ele>442.08832</ele>
        <time>2021-05-01T02:07:31.290Z</time>
      </trkpt>
      <trkpt lat="43.83805" lon="2.72997">
        <ele>441.910563</ele>
        <time>2021-05-01T02:07:57.070Z</time>
      </trkpt>
      <trkpt lat="43.83943" lon="2.73116">
        <ele>436.510399</ele>
        <time>2021-05-01T02:08:24.172Z</time>
      </trkpt>
      <trkpt lat="43.83957" lon="2.73121">
        <ele>435.757037</ele>
        <time>2021-05-01T02:08:26.312Z</time>
      </trkpt>
      <trkpt lat="43.84135" lon="2.73136">
        <ele>424.292827</ele>
        <time>2021-05-01T02:08:52.822Z</time>
      </trkpt>
      <trkpt lat="43.84222" lon="2.73166">
        <ele>418.858582</ele>
        <time>2021-05-01T02:09:06.336Z</time>
      </trkpt>
      <trkpt lat="43.84318" lon="2.73196">
        <ele>415.704019</ele>
        <time>2021-05-01T02:09:22.923Z</time>
      </trkpt>
      <trkpt lat="43.84327" lon="2.73198">
        <ele>415.427615</ele>
        <time>2021-05-01T02:09:24.572Z</time>
      </trkpt>
      <trkpt lat="43.84355" lon="2.73208">
        <ele>414.510353</ele>
        <time>2021-05-01T02:09:30.046Z</time>
      </trkpt>
      <trkpt lat="43.84353" lon="2.73239">
        <ele>413.852467</ele>
        <time>2021-05-01T02:09:34.653Z</time>
      </trkpt>
      <trkpt lat="43.84341" lon="2.73314">
        <ele>414.357123</ele>
        <time>2021-05-01T02:09:47.354Z</time>
      </trkpt>
      <trkpt lat="43.84344" lon="2.73334">
        <ele>414.491814</ele>
        <time>2021-05-01T02:09:51.393Z</time>
      </trkpt>
      <trkpt lat="43.84353" lon="2.73355">
        <ele>414.65167</ele>
        <time>2021-05-01T02:09:56.095Z</time>
      </trkpt>
      <trkpt lat="43.84375" lon="2.73387">
        <ele>414.942644</ele>
        <time>2021-05-01T02:10:05.600Z</time>
      </trkpt>
      <trkpt lat="43.84443" lon="2.73426">
        <ele>416.025991</ele>
        <time>2021-05-01T02:10:27.003Z</time>
      </trkpt>
      <trkpt lat="43.84472" lon="2.73457">
        <ele>417.312363</ele>
        <time>2021-05-01T02:10:37.222Z</time>
      </trkpt>
      <trkpt lat="43.84492" lon="2.7349">
        <ele>418.417988</ele>
        <time>2021-05-01T02:10:46.913Z</time>
      </trkpt>
      <trkpt lat="43.84505" lon="2.73522">
        <ele>419.348678</ele>
        <time>2021-05-01T02:10:57.247Z</time>
      </trkpt>
      <trkpt lat="43.84516" lon="2.7353">
        <ele>419.792982</ele>
        <time>2021-05-01T02:11:02.330Z</time>
      </trkpt>
      <trkpt lat="43.84527" lon="2.73577">
        <ele>421.060857</ele>
        <time>2021-05-01T02:11:17.660Z</time>
      </trkpt>
      <trkpt lat="43.84538" lon="2.73603">
        <ele>421.838245</ele>
        <time>2021-05-01T02:11:27.486Z</time>
      </trkpt>
      <trkpt lat="43.8455" lon="2.73621">
        <ele>422.992775</ele>
        <time>2021-05-01T02:11:35.581Z</time>
      </trkpt>
      <trkpt lat="43.84564" lon="2.73631">
        <ele>424.047135</ele>
        <time>2021-05-01T02:11:42.980Z</time>
      </trkpt>
      <trkpt lat="43.84573" lon="2.73633">
        <ele>424.651599</ele>
        <time>2021-05-01T02:11:47.450Z</time>
      </trkpt>
      <trkpt lat="43.84602" lon="2.73613">
        <ele>426.813067</ele>
        <time>2021-05-01T02:12:03.872Z</time>
      </trkpt>
      <trkpt lat="43.84683" lon="2.73587">
        <ele>432.322436</ele>
        <time>2021-05-01T02:12:46.912Z</time>
      </trkpt>
      <trkpt lat="43.84719" lon="2.73554">
        <ele>434.808733</ele>
        <time>2021-05-01T02:13:10.452Z</time>
      </trkpt>
      <trkpt lat="43.84802" lon="2.73504">
        <ele>439.091914</ele>
        <time>2021-05-01T02:13:51.230Z</time>
      </trkpt>
      <trkpt lat="43.84861" lon="2.73436">
        <ele>442.429714</ele>
        <time>2021-05-01T02:14:19.285Z</time>
      </trkpt>
      <trkpt lat="43.85311" lon="2.73004">
        <ele>445.968839</ele>
        <time>2021-05-01T02:16:37.536Z</time>
      </trkpt>
      <trkpt lat="43.85492" lon="2.72825">
        <ele>446.456108</ele>
        <time>2021-05-01T02:17:32.345Z</time>
      </trkpt>
      <trkpt lat="43.85504" lon="2.7281">
        <ele>446.400534</ele>
        <time>2021-05-01T02:17:36.200Z</time>
      </trkpt>
      <trkpt lat="43.85517" lon="2.72805">
        <ele>446.356147</ele>
        <time>2021-05-01T02:17:39.179Z</time>
      </trkpt>
      <trkpt lat="43.85576" lon="2.72785">
        <ele>446.150902</ele>
        <time>2021-05-01T02:17:52.170Z</time>
      </trkpt>
      <trkpt lat="43.85635" lon="2.72747">
        <ele>445.113049</ele>
        <time>2021-05-01T02:18:05.163Z</time>
      </trkpt>
      <trkpt lat="43.85644" lon="2.72735">
        <ele>444.770875</ele>
        <time>2021-05-01T02:18:07.582Z</time>
      </trkpt>
      <trkpt lat="43.85898" lon="2.71983">
        <ele>428.629734</ele>
        <time>2021-05-01T02:19:51.770Z</time>
      </trkpt>
      <trkpt lat="43.85902" lon="2.71942">
        <ele>427.88434</ele>
        <time>2021-05-01T02:19:57.221Z</time>
      </trkpt>
      <trkpt lat="43.85893" lon="2.71889">
        <ele>426.900435</ele>
        <time>2021-05-01T02:20:04.457Z</time>
      </trkpt>
      <trkpt lat="43.85872" lon="2.7182">
        <ele>426.147885</ele>
        <time>2021-05-01T02:20:14.564Z</time>
      </trkpt>
      <trkpt lat="43.85867" lon="2.71807">
        <ele>426.016334</ele>
        <time>2021-05-01T02:20:16.770Z</time>
      </trkpt>
      <trkpt lat="43.85851" lon="2.71786">
        <ele>425.741736</ele>
        <time>2021-05-01T02:20:20.859Z</time>
      </trkpt>
      <trkpt lat="43.85844" lon="2.71765">
        <ele>425.529008</ele>
        <time>2021-05-01T02:20:24.392Z</time>
      </trkpt>
      <trkpt lat="43.85856" lon="2.71768">
        <ele>425.377284</ele>
        <time>2021-05-01T02:20:26.654Z</time>
      </trkpt>
      <trkpt lat="43.85873" lon="2.71764">
        <ele>425.156587</ele>
        <time>2021-05-01T02:20:30.215Z</time>
      </trkpt>
      <trkpt lat="43.85891" lon="2.71733">
        <ele>424.794499</ele>
        <time>2021-05-01T02:20:35.913Z</time>
      </trkpt>
      <trkpt lat="43.85906" lon="2.71633">
        <ele>424.497045</ele>
        <time>2021-05-01T02:20:52.137Z</time>
      </trkpt>
      <trkpt lat="43.8591" lon="2.71624">
        <ele>424.497385</ele>
        <time>2021-05-01T02:20:54.073Z</time>
      </trkpt>
      <trkpt lat="43.85959" lon="2.71647">
        <ele>424.499512</ele>
        <time>2021-05-01T02:21:05.301Z</time>
      </trkpt>
      <trkpt lat="43.86096" lon="2.71536">
        <ele>426.088097</ele>
        <time>2021-05-01T02:21:46.426Z</time>
      </trkpt>
      <trkpt lat="43.86108" lon="2.71532">
        <ele>426.308864</ele>
        <time>2021-05-01T02:21:50.233Z</time>
      </trkpt>
      <trkpt lat="43.86118" lon="2.71531">
        <ele>426.49525</ele>
        <time>2021-05-01T02:21:53.511Z</time>
      </trkpt>
      <trkpt lat="43.86172" lon="2.71554">
        <ele>427.507808</ele>
        <time>2021-05-01T02:22:12.421Z</time>
      </trkpt>
      <trkpt lat="43.86215" lon="2.71584">
        <ele>429.267121</ele>
        <time>2021-05-01T02:22:30.157Z</time>
      </trkpt>
      <trkpt lat="43.86292" lon="2.71582">
        <ele>432.652884</ele>
        <time>2021-05-01T02:23:01.337Z</time>
      </trkpt>
      <trkpt lat="43.86338" lon="2.71586">
        <ele>434.663802</ele>
        <time>2021-05-01T02:23:20.898Z</time>
      </trkpt>
      <trkpt lat="43.86359" lon="2.71595">
        <ele>435.618274</ele>
        <time>2021-05-01T02:23:30.262Z</time>
      </trkpt>
      <trkpt lat="43.86401" lon="2.71641">
        <ele>438.761208</ele>
        <time>2021-05-01T02:23:55.155Z</time>
      </trkpt>
      <trkpt lat="43.86415" lon="2.71665">
        <ele>440.071552</ele>
        <time>2021-05-01T02:24:06.329Z</time>
      </trkpt>
      <trkpt lat="43.86429" lon="2.71711">
        <ele>442.185557</ele>
        <time>2021-05-01T02:24:23.497Z</time>
      </trkpt>
      <trkpt lat="43.86446" lon="2.71789">
        <ele>445.602723</ele>
        <time>2021-05-01T02:24:50.412Z</time>
      </trkpt>
      <trkpt lat="43.86446" lon="2.71789">
        <ele>445.602723</ele>
        <time>2021-05-01T02:24:50.681Z</time>
      </trkpt>
      <trkpt lat="43.86452" lon="2.71814">
        <ele>446.568756</ele>
        <time>2021-05-01T02:24:59.346Z</time>
      </trkpt>
      <trkpt lat="43.86465" lon="2.7191">
        <ele>449.804623</ele>
        <time>2021-05-01T02:25:31.969Z</time>
      </trkpt>
      <trkpt lat="43.86479" lon="2.72013">
        <ele>453.247337</ele>
        <time>2021-05-01T02:26:03.567Z</time>
      </trkpt>
      <trkpt lat="43.86495" lon="2.72144">
        <ele>454.124987</ele>
        <time>2021-05-01T02:26:31.529Z</time>
      </trkpt>
      <trkpt lat="43.86479" lon="2.72013">
        <ele>453.838055</ele>
        <time>2021-05-01T02:26:49.894Z</time>
      </trkpt>
      <trkpt lat="43.86465" lon="2.7191">
        <ele>452.430258</ele>
        <time>2021-05-01T02:27:03.045Z</time>
      </trkpt>
      <trkpt lat="43.86452" lon="2.71814">
        <ele>450.878771</ele>
        <time>2021-05-01T02:27:15.978Z</time>
      </trkpt>
      <trkpt lat="43.86446" lon="2.71789">
        <ele>450.471803</ele>
        <time>2021-05-01T02:27:19.269Z</time>
      </trkpt>
      <trkpt lat="43.86446" lon="2.71789">
        <ele>450.471803</ele>
        <time>2021-05-01T02:27:19.300Z</time>
      </trkpt>
      <trkpt lat="43.86446" lon="2.71789">
        <ele>450.471803</ele>
        <time>2021-05-01T02:27:19.568Z</time>
      </trkpt>
      <trkpt lat="43.86487" lon="2.71827">
        <ele>449.699261</ele>
        <time>2021-05-01T02:27:29.018Z</time>
      </trkpt>
      <trkpt lat="43.86501" lon="2.71834">
        <ele>449.586198</ele>
        <time>2021-05-01T02:27:31.986Z</time>
      </trkpt>
      <trkpt lat="43.86555" lon="2.7189">
        <ele>449.069932</ele>
        <time>2021-05-01T02:27:45.731Z</time>
      </trkpt>
      <trkpt lat="43.86569" lon="2.71917">
        <ele>448.884387</ele>
        <time>2021-05-01T02:27:50.863Z</time>
      </trkpt>
      <trkpt lat="43.86577" lon="2.71922">
        <ele>448.819704</ele>
        <time>2021-05-01T02:27:53.048Z</time>
      </trkpt>
      <trkpt lat="43.86583" lon="2.71918">
        <ele>448.765225</ele>
        <time>2021-05-01T02:27:54.894Z</time>
      </trkpt>
      <trkpt lat="43.86598" lon="2.71863">
        <ele>448.554109</ele>
        <time>2021-05-01T02:28:04.352Z</time>
      </trkpt>
      <trkpt lat="43.86588" lon="2.71763">
        <ele>449.514709</ele>
        <time>2021-05-01T02:28:20.776Z</time>
      </trkpt>
      <trkpt lat="43.86551" lon="2.717">
        <ele>450.286246</ele>
        <time>2021-05-01T02:28:37.438Z</time>
      </trkpt>
      <trkpt lat="43.86546" lon="2.71667">
        <ele>450.605245</ele>
        <time>2021-05-01T02:28:45.583Z</time>
      </trkpt>
      <trkpt lat="43.86547" lon="2.71636">
        <ele>451.084617</ele>
        <time>2021-05-01T02:28:53.614Z</time>
      </trkpt>
      <trkpt lat="43.86538" lon="2.71576">
        <ele>454.154017</ele>
        <time>2021-05-01T02:29:11.593Z</time>
      </trkpt>
      <trkpt lat="43.8655" lon="2.71525">
        <ele>456.853201</ele>
        <time>2021-05-01T02:29:30.509Z</time>
      </trkpt>
      <trkpt lat="43.86603" lon="2.71452">
        <ele>462.014433</ele>
        <time>2021-05-01T02:30:12.868Z</time>
      </trkpt>
      <trkpt lat="43.86618" lon="2.7144">
        <ele>463.222151</ele>
        <time>2021-05-01T02:30:24.764Z</time>
      </trkpt>
      <trkpt lat="43.86637" lon="2.71435">
        <ele>465.093052</ele>
        <time>2021-05-01T02:30:36.003Z</time>
      </trkpt>
      <trkpt lat="43.86685" lon="2.71425">
        <ele>469.96877</ele>
        <time>2021-05-01T02:31:07.365Z</time>
      </trkpt>
      <trkpt lat="43.86751" lon="2.71405">
        <ele>476.846926</ele>
        <time>2021-05-01T02:31:50.650Z</time>
      </trkpt>
      <trkpt lat="43.86759" lon="2.71396">
        <ele>477.885361</ele>
        <time>2021-05-01T02:31:58.165Z</time>
      </trkpt>
      <trkpt lat="43.86803" lon="2.71328">
        <ele>484.429557</ele>
        <time>2021-05-01T02:32:40.483Z</time>
      </trkpt>
      <trkpt lat="43.86822" lon="2.7131">
        <ele>486.581671</ele>
        <time>2021-05-01T02:32:54.143Z</time>
      </trkpt>
      <trkpt lat="43.86847" lon="2.71302">
        <ele>489.102119</ele>
        <time>2021-05-01T02:33:10.585Z</time>
      </trkpt>
      <trkpt lat="43.86914" lon="2.71302">
        <ele>495.517058</ele>
        <time>2021-05-01T02:33:50.587Z</time>
      </trkpt>
      <trkpt lat="43.86997" lon="2.71204">
        <ele>506.026723</ele>
        <time>2021-05-01T02:34:57.738Z</time>
      </trkpt>
      <trkpt lat="43.87254" lon="2.7096">
        <ele>535.588312</ele>
        <time>2021-05-01T02:38:09.966Z</time>
      </trkpt>
      <trkpt lat="43.87443" lon="2.70808">
        <ele>554.438977</ele>
        <time>2021-05-01T02:40:16.186Z</time>
      </trkpt>
      <trkpt lat="43.87622" lon="2.70699">
        <ele>568.855464</ele>
        <time>2021-05-01T02:42:02.457Z</time>
      </trkpt>
      <trkpt lat="43.87701" lon="2.70622">
        <ele>575.064553</ele>
        <time>2021-05-01T02:42:47.748Z</time>
      </trkpt>
      <trkpt lat="43.87749" lon="2.70562">
        <ele>575.821008</ele>
        <time>2021-05-01T02:43:11.516Z</time>
      </trkpt>
      <trkpt lat="43.87755" lon="2.70554">
        <ele>575.900833</ele>
        <time>2021-05-01T02:43:14.075Z</time>
      </trkpt>
      <trkpt lat="43.87718" lon="2.70394">
        <ele>576.480269</ele>
        <time>2021-05-01T02:43:39.881Z</time>
      </trkpt>
      <trkpt lat="43.87673" lon="2.70199">
        <ele>569.732344</ele>
        <time>2021-05-01T02:44:02.243Z</time>
      </trkpt>
      <trkpt lat="43.87661" lon="2.70158">
        <ele>568.186796</ele>
        <time>2021-05-01T02:44:06.870Z</time>
      </trkpt>
      <trkpt lat="43.87651" lon="2.70134">
        <ele>567.085224</ele>
        <time>2021-05-01T02:44:09.745Z</time>
      </trkpt>
      <trkpt lat="43.87624" lon="2.70091">
        <ele>564.833633</ele>
        <time>2021-05-01T02:44:15.766Z</time>
      </trkpt>
      <trkpt lat="43.87593" lon="2.70057">
        <ele>562.679363</ele>
        <time>2021-05-01T02:44:21.615Z</time>
      </trkpt>
      <trkpt lat="43.87561" lon="2.70036">
        <ele>560.767423</ele>
        <time>2021-05-01T02:44:26.852Z</time>
      </trkpt>
      <trkpt lat="43.87527" lon="2.70023">
        <ele>558.894421</ele>
        <time>2021-05-01T02:44:32.184Z</time>
      </trkpt>
      <trkpt lat="43.87499" lon="2.70013">
        <ele>558.033468</ele>
        <time>2021-05-01T02:44:36.862Z</time>
      </trkpt>
      <trkpt lat="43.87441" lon="2.69991">
        <ele>556.260235</ele>
        <time>2021-05-01T02:44:46.928Z</time>
      </trkpt>
      <trkpt lat="43.87394" lon="2.69955">
        <ele>554.66757</ele>
        <time>2021-05-01T02:44:55.998Z</time>
      </trkpt>
      <trkpt lat="43.87393" lon="2.69954">
        <ele>554.643036</ele>
        <time>2021-05-01T02:44:56.113Z</time>
      </trkpt>
      <trkpt lat="43.87355" lon="2.69903">
        <ele>553.272082</ele>
        <time>2021-05-01T02:45:05.426Z</time>
      </trkpt>
      <trkpt lat="43.87332" lon="2.69842">
        <ele>552.271791</ele>
        <time>2021-05-01T02:45:14.321Z</time>
      </trkpt>
      <trkpt lat="43.87324" lon="2.69808">
        <ele>551.768513</ele>
        <time>2021-05-01T02:45:18.682Z</time>
      </trkpt>
      <trkpt lat="43.87319" lon="2.69765">
        <ele>551.129195</ele>
        <time>2021-05-01T02:45:24.268Z</time>
      </trkpt>
      <trkpt lat="43.87315" lon="2.69703">
        <ele>550.231102</ele>
        <time>2021-05-01T02:45:32.210Z</time>
      </trkpt>
      <trkpt lat="43.87306" lon="2.6955">
        <ele>548.644436</ele>
        <time>2021-05-01T02:45:52.370Z</time>
      </trkpt>
      <trkpt lat="43.87303" lon="2.69449">
        <ele>547.628367</ele>
        <time>2021-05-01T02:46:06.276Z</time>
      </trkpt>
      <trkpt lat="43.87303" lon="2.694">
        <ele>547.404792</ele>
        <time>2021-05-01T02:46:12.966Z</time>
      </trkpt>
      <trkpt lat="43.87311" lon="2.69312">
        <ele>547.086196</ele>
        <time>2021-05-01T02:46:25.529Z</time>
      </trkpt>
      <trkpt lat="43.87325" lon="2.6919">
        <ele>546.670153</ele>
        <time>2021-05-01T02:46:45.462Z</time>
      </trkpt>
      <trkpt lat="43.87338" lon="2.6909">
        <ele>546.892616</ele>
        <time>2021-05-01T02:47:02.623Z</time>
      </trkpt>
      <trkpt lat="43.87353" lon="2.69026">
        <ele>547.042196</ele>
        <time>2021-05-01T02:47:14.511Z</time>
      </trkpt>
      <trkpt lat="43.87387" lon="2.68941">
        <ele>547.089108</ele>
        <time>2021-05-01T02:47:31.591Z</time>
      </trkpt>
      <trkpt lat="43.87473" lon="2.6877">
        <ele>545.896466</ele>
        <time>2021-05-01T02:48:01.694Z</time>
      </trkpt>
      <trkpt lat="43.87511" lon="2.68674">
        <ele>543.938757</ele>
        <time>2021-05-01T02:48:15.306Z</time>
      </trkpt>
      <trkpt lat="43.87545" lon="2.68568">
        <ele>541.57706</ele>
        <time>2021-05-01T02:48:28.997Z</time>
      </trkpt>
      <trkpt lat="43.87623" lon="2.68283">
        <ele>533.372679</ele>
        <time>2021-05-01T02:49:03.776Z</time>
      </trkpt>
      <trkpt lat="43.87635" lon="2.68161">
        <ele>529.685974</ele>
        <time>2021-05-01T02:49:17.788Z</time>
      </trkpt>
      <trkpt lat="43.87621" lon="2.67847">
        <ele>519.32329</ele>
        <time>2021-05-01T02:49:52.869Z</time>
      </trkpt>
      <trkpt lat="43.87617" lon="2.67675">
        <ele>512.600589</ele>
        <time>2021-05-01T02:50:11.085Z</time>
      </trkpt>
      <trkpt lat="43.87619" lon="2.67498">
        <ele>505.892696</ele>
        <time>2021-05-01T02:50:30.103Z</time>
      </trkpt>
      <trkpt lat="43.87619" lon="2.67417">
        <ele>503.466674</ele>
        <time>2021-05-01T02:50:39.388Z</time>
      </trkpt>
      <trkpt lat="43.87617" lon="2.67394">
        <ele>502.762223</ele>
        <time>2021-05-01T02:50:42.029Z</time>
      </trkpt>
      <trkpt lat="43.87606" lon="2.6734">
        <ele>501.07706</ele>
        <time>2021-05-01T02:50:48.557Z</time>
      </trkpt>
      <trkpt lat="43.8758" lon="2.67272">
        <ele>498.55957</ele>
        <time>2021-05-01T02:50:57.540Z</time>
      </trkpt>
      <trkpt lat="43.87452" lon="2.67091">
        <ele>488.56152</ele>
        <time>2021-05-01T02:51:25.119Z</time>
      </trkpt>
      <trkpt lat="43.87413" lon="2.67029">
        <ele>483.926502</ele>
        <time>2021-05-01T02:51:33.277Z</time>
      </trkpt>
      <trkpt lat="43.8739" lon="2.66976">
        <ele>480.440789</ele>
        <time>2021-05-01T02:51:39.479Z</time>
      </trkpt>
      <trkpt lat="43.87379" lon="2.66934">
        <ele>477.948111</ele>
        <time>2021-05-01T02:51:43.939Z</time>
      </trkpt>
      <trkpt lat="43.87376" lon="2.66925">
        <ele>477.376508</ele>
        <time>2021-05-01T02:51:44.978Z</time>
      </trkpt>
      <trkpt lat="43.87368" lon="2.66883">
        <ele>475.866865</ele>
        <time>2021-05-01T02:51:49.362Z</time>
      </trkpt>
      <trkpt lat="43.87363" lon="2.66813">
        <ele>473.738887</ele>
        <time>2021-05-01T02:51:56.758Z</time>
      </trkpt>
      <trkpt lat="43.87376" lon="2.66475">
        <ele>466.22842</ele>
        <time>2021-05-01T02:52:40.009Z</time>
      </trkpt>
      <trkpt lat="43.87386" lon="2.66396">
        <ele>464.558783</ele>
        <time>2021-05-01T02:52:49.688Z</time>
      </trkpt>
      <trkpt lat="43.87398" lon="2.66335">
        <ele>462.598517</ele>
        <time>2021-05-01T02:52:56.949Z</time>
      </trkpt>
      <trkpt lat="43.87424" lon="2.66213">
        <ele>458.673879</ele>
        <time>2021-05-01T02:53:10.946Z</time>
      </trkpt>
      <trkpt lat="43.87438" lon="2.66098">
        <ele>455.682821</ele>
        <time>2021-05-01T02:53:23.520Z</time>
      </trkpt>
      <trkpt lat="43.87446" lon="2.65881">
        <ele>451.63693</ele>
        <time>2021-05-01T02:53:50.210Z</time>
      </trkpt>
      <trkpt lat="43.87452" lon="2.65819">
        <ele>451.55962</ele>
        <time>2021-05-01T02:54:00.335Z</time>
      </trkpt>
      <trkpt lat="43.87467" lon="2.65727">
        <ele>451.444841</ele>
        <time>2021-05-01T02:54:17.697Z</time>
      </trkpt>
      <trkpt lat="43.87551" lon="2.65296">
        <ele>451.70358</ele>
        <time>2021-05-01T02:55:38.374Z</time>
      </trkpt>
      <trkpt lat="43.87574" lon="2.65208">
        <ele>451.132368</ele>
        <time>2021-05-01T02:55:49.656Z</time>
      </trkpt>
      <trkpt lat="43.87598" lon="2.65132">
        <ele>449.454689</ele>
        <time>2021-05-01T02:55:58.979Z</time>
      </trkpt>
      <trkpt lat="43.87622" lon="2.65066">
        <ele>447.927815</ele>
        <time>2021-05-01T02:56:07.510Z</time>
      </trkpt>
      <trkpt lat="43.87667" lon="2.64965">
        <ele>446.27156</ele>
        <time>2021-05-01T02:56:21.856Z</time>
      </trkpt>
      <trkpt lat="43.87884" lon="2.64535">
        <ele>453.766753</ele>
        <time>2021-05-01T02:58:23.422Z</time>
      </trkpt>
      <trkpt lat="43.87925" lon="2.64442">
        <ele>455.022961</ele>
        <time>2021-05-01T02:58:47.533Z</time>
      </trkpt>
      <trkpt lat="43.87962" lon="2.64288">
        <ele>455.745903</ele>
        <time>2021-05-01T02:59:16.398Z</time>
      </trkpt>
      <trkpt lat="43.87981" lon="2.64207">
        <ele>455.374085</ele>
        <time>2021-05-01T02:59:28.812Z</time>
      </trkpt>
      <trkpt lat="43.87988" lon="2.64161">
        <ele>455.167139</ele>
        <time>2021-05-01T02:59:35.408Z</time>
      </trkpt>
      <trkpt lat="43.87989" lon="2.64112">
        <ele>454.876593</ele>
        <time>2021-05-01T02:59:41.938Z</time>
      </trkpt>
      <trkpt lat="43.87978" lon="2.64019">
        <ele>452.830078</ele>
        <time>2021-05-01T02:59:53.483Z</time>
      </trkpt>
      <trkpt lat="43.87968" lon="2.63948">
        <ele>451.241139</ele>
        <time>2021-05-01T03:00:01.927Z</time>
      </trkpt>
      <trkpt lat="43.8797" lon="2.63885">
        <ele>449.863272</ele>
        <time>2021-05-01T03:00:09.230Z</time>
      </trkpt>
      <trkpt lat="43.87977" lon="2.63839">
        <ele>448.485699</ele>
        <time>2021-05-01T03:00:14.506Z</time>
      </trkpt>
      <trkpt lat="43.87986" lon="2.63785">
        <ele>446.62372</ele>
        <time>2021-05-01T03:00:20.752Z</time>
      </trkpt>
      <trkpt lat="43.87987" lon="2.63779">
        <ele>446.409695</ele>
        <time>2021-05-01T03:00:21.394Z</time>
      </trkpt>
      <trkpt lat="43.88013" lon="2.63618">
        <ele>440.79347</ele>
        <time>2021-05-01T03:00:39.502Z</time>
      </trkpt>
      <trkpt lat="43.88024" lon="2.63491">
        <ele>435.721371</ele>
        <time>2021-05-01T03:00:53.299Z</time>
      </trkpt>
      <trkpt lat="43.88025" lon="2.63466">
        <ele>434.713863</ele>
        <time>2021-05-01T03:00:55.975Z</time>
      </trkpt>
      <trkpt lat="43.88032" lon="2.63297">
        <ele>428.120636</ele>
        <time>2021-05-01T03:01:14.058Z</time>
      </trkpt>
      <trkpt lat="43.88037" lon="2.63245">
        <ele>426.148057</ele>
        <time>2021-05-01T03:01:19.580Z</time>
      </trkpt>
      <trkpt lat="43.8805" lon="2.63188">
        <ele>423.89112</ele>
        <time>2021-05-01T03:01:26.090Z</time>
      </trkpt>
      <trkpt lat="43.88094" lon="2.63086">
        <ele>419.901231</ele>
        <time>2021-05-01T03:01:39.295Z</time>
      </trkpt>
      <trkpt lat="43.8812" lon="2.62973">
        <ele>416.374691</ele>
        <time>2021-05-01T03:01:52.763Z</time>
      </trkpt>
      <trkpt lat="43.88134" lon="2.62878">
        <ele>413.374451</ele>
        <time>2021-05-01T03:02:03.888Z</time>
      </trkpt>
      <trkpt lat="43.88151" lon="2.62777">
        <ele>409.928942</ele>
        <time>2021-05-01T03:02:15.532Z</time>
      </trkpt>
      <trkpt lat="43.88154" lon="2.62702">
        <ele>407.462501</ele>
        <time>2021-05-01T03:02:23.698Z</time>
      </trkpt>
      <trkpt lat="43.88149" lon="2.6266">
        <ele>406.049378</ele>
        <time>2021-05-01T03:02:28.334Z</time>
      </trkpt>
      <trkpt lat="43.88063" lon="2.62251">
        <ele>389.503657</ele>
        <time>2021-05-01T03:03:14.150Z</time>
      </trkpt>
      <trkpt lat="43.8805" lon="2.62145">
        <ele>385.505431</ele>
        <time>2021-05-01T03:03:26.001Z</time>
      </trkpt>
      <trkpt lat="43.88063" lon="2.61952">
        <ele>378.68005</ele>
        <time>2021-05-01T03:03:47.333Z</time>
      </trkpt>
      <trkpt lat="43.88074" lon="2.6189">
        <ele>376.145544</ele>
        <time>2021-05-01T03:03:54.251Z</time>
      </trkpt>
      <trkpt lat="43.88087" lon="2.61846">
        <ele>374.189974</ele>
        <time>2021-05-01T03:03:59.295Z</time>
      </trkpt>
      <trkpt lat="43.88136" lon="2.61728">
        <ele>368.537302</ele>
        <time>2021-05-01T03:04:13.886Z</time>
      </trkpt>
      <trkpt lat="43.8815" lon="2.61662">
        <ele>365.356002</ele>
        <time>2021-05-01T03:04:21.106Z</time>
      </trkpt>
      <trkpt lat="43.88157" lon="2.61591">
        <ele>361.927309</ele>
        <time>2021-05-01T03:04:28.476Z</time>
      </trkpt>
      <trkpt lat="43.88168" lon="2.61535">
        <ele>359.127777</ele>
        <time>2021-05-01T03:04:34.494Z</time>
      </trkpt>
      <trkpt lat="43.88194" lon="2.61461">
        <ele>355.17526</ele>
        <time>2021-05-01T03:04:43.100Z</time>
      </trkpt>
      <trkpt lat="43.88257" lon="2.6133">
        <ele>348.679669</ele>
        <time>2021-05-01T03:04:59.523Z</time>
      </trkpt>
      <trkpt lat="43.8827" lon="2.61304">
        <ele>347.359144</ele>
        <time>2021-05-01T03:05:02.953Z</time>
      </trkpt>
      <trkpt lat="43.88294" lon="2.61257">
        <ele>345.0792</ele>
        <time>2021-05-01T03:05:09.445Z</time>
      </trkpt>
      <trkpt lat="43.88317" lon="2.61218">
        <ele>344.019705</ele>
        <time>2021-05-01T03:05:15.320Z</time>
      </trkpt>
      <trkpt lat="43.88322" lon="2.61212">
        <ele>343.842229</ele>
        <time>2021-05-01T03:05:16.343Z</time>
      </trkpt>
      <trkpt lat="43.88368" lon="2.6116">
        <ele>342.101722</ele>
        <time>2021-05-01T03:05:26.181Z</time>
      </trkpt>
      <trkpt lat="43.88409" lon="2.61118">
        <ele>340.611485</ele>
        <time>2021-05-01T03:05:35.122Z</time>
      </trkpt>
      <trkpt lat="43.88446" lon="2.61086">
        <ele>339.402805</ele>
        <time>2021-05-01T03:05:42.919Z</time>
      </trkpt>
      <trkpt lat="43.88456" lon="2.61075">
        <ele>339.068208</ele>
        <time>2021-05-01T03:05:45.064Z</time>
      </trkpt>
      <trkpt lat="43.88511" lon="2.6097">
        <ele>336.634666</ele>
        <time>2021-05-01T03:06:00.715Z</time>
      </trkpt>
      <trkpt lat="43.88529" lon="2.60927">
        <ele>335.707819</ele>
        <time>2021-05-01T03:06:06.585Z</time>
      </trkpt>
      <trkpt lat="43.88534" lon="2.60902">
        <ele>335.229942</ele>
        <time>2021-05-01T03:06:09.750Z</time>
      </trkpt>
      <trkpt lat="43.88541" lon="2.60869">
        <ele>334.855197</ele>
        <time>2021-05-01T03:06:13.730Z</time>
      </trkpt>
      <trkpt lat="43.88542" lon="2.60855">
        <ele>334.688447</ele>
        <time>2021-05-01T03:06:15.708Z</time>
      </trkpt>
      <trkpt lat="43.88546" lon="2.60813">
        <ele>334.219301</ele>
        <time>2021-05-01T03:06:20.865Z</time>
      </trkpt>
      <trkpt lat="43.88544" lon="2.60698">
        <ele>332.923808</ele>
        <time>2021-05-01T03:06:36.419Z</time>
      </trkpt>
      <trkpt lat="43.88543" lon="2.60688">
        <ele>332.810198</ele>
        <time>2021-05-01T03:06:37.628Z</time>
      </trkpt>
      <trkpt lat="43.88539" lon="2.60656">
        <ele>332.480014</ele>
        <time>2021-05-01T03:06:42.571Z</time>
      </trkpt>
      <trkpt lat="43.88521" lon="2.60566">
        <ele>333.57764</ele>
        <time>2021-05-01T03:06:58.731Z</time>
      </trkpt>
      <trkpt lat="43.88518" lon="2.6055">
        <ele>333.766083</ele>
        <time>2021-05-01T03:07:02.270Z</time>
      </trkpt>
      <trkpt lat="43.88511" lon="2.60513">
        <ele>334.216924</ele>
        <time>2021-05-01T03:07:10.407Z</time>
      </trkpt>
      <trkpt lat="43.88509" lon="2.60503">
        <ele>334.330284</ele>
        <time>2021-05-01T03:07:12.706Z</time>
      </trkpt>
      <trkpt lat="43.88496" lon="2.6044">
        <ele>335.103096</ele>
        <time>2021-05-01T03:07:28.269Z</time>
      </trkpt>
      <trkpt lat="43.88483" lon="2.6038">
        <ele>336.0087</ele>
        <time>2021-05-01T03:07:45.066Z</time>
      </trkpt>
      <trkpt lat="43.88483" lon="2.60379">
        <ele>336.021833</ele>
        <time>2021-05-01T03:07:45.472Z</time>
      </trkpt>
      <trkpt lat="43.88482" lon="2.60366">
        <ele>336.239724</ele>
        <time>2021-05-01T03:07:48.850Z</time>
      </trkpt>
      <trkpt lat="43.88484" lon="2.60355">
        <ele>336.419207</ele>
        <time>2021-05-01T03:07:53.564Z</time>
      </trkpt>
      <trkpt lat="43.88488" lon="2.60345">
        <ele>336.603396</ele>
        <time>2021-05-01T03:07:56.283Z</time>
      </trkpt>
      <trkpt lat="43.8858" lon="2.60339">
        <ele>338.668412</ele>
        <time>2021-05-01T03:08:26.259Z</time>
      </trkpt>
      <trkpt lat="43.8858" lon="2.60339">
        <ele>338.668412</ele>
        <time>2021-05-01T03:08:26.687Z</time>
      </trkpt>
      <trkpt lat="43.88587" lon="2.6034">
        <ele>338.824274</ele>
        <time>2021-05-01T03:08:28.435Z</time>
      </trkpt>
      <trkpt lat="43.88637" lon="2.60348">
        <ele>338.512218</ele>
        <time>2021-05-01T03:08:38.323Z</time>
      </trkpt>
      <trkpt lat="43.88681" lon="2.60351">
        <ele>336.853291</ele>
        <time>2021-05-01T03:08:45.421Z</time>
      </trkpt>
      <trkpt lat="43.88695" lon="2.60347">
        <ele>336.289006</ele>
        <time>2021-05-01T03:08:47.995Z</time>
      </trkpt>
      <trkpt lat="43.88702" lon="2.60343">
        <ele>336.006326</ele>
        <time>2021-05-01T03:08:49.035Z</time>
      </trkpt>
      <trkpt lat="43.88712" lon="2.60335">
        <ele>335.57331</ele>
        <time>2021-05-01T03:08:50.668Z</time>
      </trkpt>
      <trkpt lat="43.88723" lon="2.60322">
        <ele>335.03276</ele>
        <time>2021-05-01T03:08:52.913Z</time>
      </trkpt>
      <trkpt lat="43.88745" lon="2.60276">
        <ele>333.503996</ele>
        <time>2021-05-01T03:08:58.477Z</time>
      </trkpt>
      <trkpt lat="43.88811" lon="2.6007">
        <ele>331.035733</ele>
        <time>2021-05-01T03:09:25.209Z</time>
      </trkpt>
      <trkpt lat="43.88825" lon="2.60022">
        <ele>330.618706</ele>
        <time>2021-05-01T03:09:39.912Z</time>
      </trkpt>
      <trkpt lat="43.88839" lon="2.59978">
        <ele>332.516306</ele>
        <time>2021-05-01T03:09:55.915Z</time>
      </trkpt>
      <trkpt lat="43.88847" lon="2.59954">
        <ele>333.694981</ele>
        <time>2021-05-01T03:10:06.180Z</time>
      </trkpt>
      <trkpt lat="43.88865" lon="2.59917">
        <ele>335.742175</ele>
        <time>2021-05-01T03:10:23.956Z</time>
      </trkpt>
      <trkpt lat="43.88884" lon="2.59892">
        <ele>337.375533</ele>
        <time>2021-05-01T03:10:39.090Z</time>
      </trkpt>
      <trkpt lat="43.88977" lon="2.59804">
        <ele>343.191952</ele>
        <time>2021-05-01T03:11:32.312Z</time>
      </trkpt>
      <trkpt lat="43.89045" lon="2.59765">
        <ele>345.459893</ele>
        <time>2021-05-01T03:11:50.883Z</time>
      </trkpt>
      <trkpt lat="43.89059" lon="2.59762">
        <ele>345.900395</ele>
        <time>2021-05-01T03:11:54.248Z</time>
      </trkpt>
      <trkpt lat="43.8909" lon="2.59766">
        <ele>346.846643</ele>
        <time>2021-05-01T03:12:05.130Z</time>
      </trkpt>
      <trkpt lat="43.89111" lon="2.59768">
        <ele>347.514557</ele>
        <time>2021-05-01T03:12:12.243Z</time>
      </trkpt>
      <trkpt lat="43.89133" lon="2.59759">
        <ele>348.650783</ele>
        <time>2021-05-01T03:12:20.966Z</time>
      </trkpt>
      <trkpt lat="43.8914" lon="2.59754">
        <ele>349.092443</ele>
        <time>2021-05-01T03:12:22.932Z</time>
      </trkpt>
      <trkpt lat="43.8915" lon="2.59755">
        <ele>349.582214</ele>
        <time>2021-05-01T03:12:29.638Z</time>
      </trkpt>
      <trkpt lat="43.89165" lon="2.59759">
        <ele>350.331414</ele>
        <time>2021-05-01T03:12:34.682Z</time>
      </trkpt>
      <trkpt lat="43.89175" lon="2.59753">
        <ele>350.922201</ele>
        <time>2021-05-01T03:12:37.825Z</time>
      </trkpt>
      <trkpt lat="43.89184" lon="2.59746">
        <ele>351.430177</ele>
        <time>2021-05-01T03:12:45.219Z</time>
      </trkpt>
      <trkpt lat="43.89187" lon="2.59718">
        <ele>352.471289</ele>
        <time>2021-05-01T03:12:51.826Z</time>
      </trkpt>
      <trkpt lat="43.89177" lon="2.59654">
        <ele>354.87744</ele>
        <time>2021-05-01T03:13:14.402Z</time>
      </trkpt>
      <trkpt lat="43.89184" lon="2.5954">
        <ele>357.278499</ele>
        <time>2021-05-01T03:13:55.328Z</time>
      </trkpt>
      <trkpt lat="43.89171" lon="2.59426">
        <ele>358.471296</ele>
        <time>2021-05-01T03:14:17.941Z</time>
      </trkpt>
      <trkpt lat="43.89173" lon="2.59406">
        <ele>358.681529</ele>
        <time>2021-05-01T03:14:20.649Z</time>
      </trkpt>
      <trkpt lat="43.89186" lon="2.5937">
        <ele>359.096473</ele>
        <time>2021-05-01T03:14:25.432Z</time>
      </trkpt>
      <trkpt lat="43.89231" lon="2.59272">
        <ele>355.349493</ele>
        <time>2021-05-01T03:14:38.142Z</time>
      </trkpt>
      <trkpt lat="43.89245" lon="2.59248">
        <ele>354.268445</ele>
        <time>2021-05-01T03:14:41.416Z</time>
      </trkpt>
      <trkpt lat="43.89262" lon="2.59221">
        <ele>353.016489</ele>
        <time>2021-05-01T03:14:45.234Z</time>
      </trkpt>
      <trkpt lat="43.89309" lon="2.5917">
        <ele>350.274769</ele>
        <time>2021-05-01T03:14:54.059Z</time>
      </trkpt>
      <trkpt lat="43.89418" lon="2.59113">
        <ele>346.921923</ele>
        <time>2021-05-01T03:15:12.770Z</time>
      </trkpt>
      <trkpt lat="43.89436" lon="2.59096">
        <ele>346.291127</ele>
        <time>2021-05-01T03:15:16.924Z</time>
      </trkpt>
      <trkpt lat="43.89444" lon="2.59078">
        <ele>345.848863</ele>
        <time>2021-05-01T03:15:19.988Z</time>
      </trkpt>
      <trkpt lat="43.89446" lon="2.59059">
        <ele>345.460553</ele>
        <time>2021-05-01T03:15:22.779Z</time>
      </trkpt>
      <trkpt lat="43.89442" lon="2.59038">
        <ele>345.178482</ele>
        <time>2021-05-01T03:15:26.161Z</time>
      </trkpt>
      <trkpt lat="43.89412" lon="2.58976">
        <ele>344.554891</ele>
        <time>2021-05-01T03:15:37.449Z</time>
      </trkpt>
      <trkpt lat="43.89386" lon="2.58893">
        <ele>343.803533</ele>
        <time>2021-05-01T03:15:50.852Z</time>
      </trkpt>
      <trkpt lat="43.89367" lon="2.58734">
        <ele>340.583616</ele>
        <time>2021-05-01T03:16:10.632Z</time>
      </trkpt>
      <trkpt lat="43.89366" lon="2.58642">
        <ele>337.923692</ele>
        <time>2021-05-01T03:16:20.857Z</time>
      </trkpt>
      <trkpt lat="43.89348" lon="2.5852">
        <ele>333.696255</ele>
        <time>2021-05-01T03:16:34.240Z</time>
      </trkpt>
      <trkpt lat="43.89346" lon="2.58485">
        <ele>332.268387</ele>
        <time>2021-05-01T03:16:38.065Z</time>
      </trkpt>
      <trkpt lat="43.89373" lon="2.58334">
        <ele>326.109046</ele>
        <time>2021-05-01T03:16:54.717Z</time>
      </trkpt>
      <trkpt lat="43.89376" lon="2.58205">
        <ele>321.299307</ele>
        <time>2021-05-01T03:17:08.759Z</time>
      </trkpt>
      <trkpt lat="43.89373" lon="2.58175">
        <ele>320.163813</ele>
        <time>2021-05-01T03:17:12.157Z</time>
      </trkpt>
      <trkpt lat="43.8937" lon="2.58152">
        <ele>319.304258</ele>
        <time>2021-05-01T03:17:14.619Z</time>
      </trkpt>
      <trkpt lat="43.89372" lon="2.58097">
        <ele>317.244452</ele>
        <time>2021-05-01T03:17:20.643Z</time>
      </trkpt>
      <trkpt lat="43.8938" lon="2.5807">
        <ele>316.003138</ele>
        <time>2021-05-01T03:17:23.835Z</time>
      </trkpt>
      <trkpt lat="43.89418" lon="2.57983">
        <ele>311.381605</ele>
        <time>2021-05-01T03:17:34.520Z</time>
      </trkpt>
      <trkpt lat="43.89437" lon="2.57918">
        <ele>308.170525</ele>
        <time>2021-05-01T03:17:41.872Z</time>
      </trkpt>
      <trkpt lat="43.89469" lon="2.5785">
        <ele>304.395146</ele>
        <time>2021-05-01T03:17:50.197Z</time>
      </trkpt>
      <trkpt lat="43.89504" lon="2.57815">
        <ele>301.319188</ele>
        <time>2021-05-01T03:17:56.411Z</time>
      </trkpt>
      <trkpt lat="43.89533" lon="2.57804">
        <ele>299.230676</ele>
        <time>2021-05-01T03:18:00.605Z</time>
      </trkpt>
      <trkpt lat="43.89647" lon="2.57789">
        <ele>291.76705</ele>
        <time>2021-05-01T03:18:17.092Z</time>
      </trkpt>
      <trkpt lat="43.89673" lon="2.57764">
        <ele>290.382663</ele>
        <time>2021-05-01T03:18:21.706Z</time>
      </trkpt>
      <trkpt lat="43.89701" lon="2.57718">
        <ele>288.441831</ele>
        <time>2021-05-01T03:18:28.424Z</time>
      </trkpt>
      <trkpt lat="43.89717" lon="2.57712">
        <ele>287.740196</ele>
        <time>2021-05-01T03:18:30.904Z</time>
      </trkpt>
      <trkpt lat="43.89736" lon="2.57716">
        <ele>286.867905</ele>
        <time>2021-05-01T03:18:34.015Z</time>
      </trkpt>
      <trkpt lat="43.89753" lon="2.57724">
        <ele>286.071907</ele>
        <time>2021-05-01T03:18:36.956Z</time>
      </trkpt>
      <trkpt lat="43.89757" lon="2.57725">
        <ele>285.878577</ele>
        <time>2021-05-01T03:18:37.688Z</time>
      </trkpt>
      <trkpt lat="43.89774" lon="2.57723">
        <ele>285.157107</ele>
        <time>2021-05-01T03:18:40.322Z</time>
      </trkpt>
      <trkpt lat="43.89784" lon="2.57717">
        <ele>284.779564</ele>
        <time>2021-05-01T03:18:42.214Z</time>
      </trkpt>
      <trkpt lat="43.89791" lon="2.57712">
        <ele>284.732993</ele>
        <time>2021-05-01T03:18:43.806Z</time>
      </trkpt>
      <trkpt lat="43.89813" lon="2.57712">
        <ele>284.606513</ele>
        <time>2021-05-01T03:18:47.534Z</time>
      </trkpt>
      <trkpt lat="43.8982" lon="2.57717">
        <ele>284.56048</ele>
        <time>2021-05-01T03:18:49.282Z</time>
      </trkpt>
      <trkpt lat="43.89827" lon="2.57726">
        <ele>284.508104</ele>
        <time>2021-05-01T03:18:51.093Z</time>
      </trkpt>
      <trkpt lat="43.89834" lon="2.57743">
        <ele>284.426724</ele>
        <time>2021-05-01T03:18:53.553Z</time>
      </trkpt>
      <trkpt lat="43.89858" lon="2.5781">
        <ele>284.118332</ele>
        <time>2021-05-01T03:19:04.599Z</time>
      </trkpt>
      <trkpt lat="43.8987" lon="2.57902">
        <ele>283.970141</ele>
        <time>2021-05-01T03:19:21.758Z</time>
      </trkpt>
      <trkpt lat="43.89901" lon="2.57956">
        <ele>285.733102</ele>
        <time>2021-05-01T03:19:35.839Z</time>
      </trkpt>
      <trkpt lat="43.89911" lon="2.57983">
        <ele>286.501938</ele>
        <time>2021-05-01T03:19:43.030Z</time>
      </trkpt>
      <trkpt lat="43.8992" lon="2.58077">
        <ele>288.951492</ele>
        <time>2021-05-01T03:20:08.981Z</time>
      </trkpt>
      <trkpt lat="43.89931" lon="2.58104">
        <ele>289.736935</ele>
        <time>2021-05-01T03:20:18.770Z</time>
      </trkpt>
      <trkpt lat="43.89946" lon="2.5812">
        <ele>290.795095</ele>
        <time>2021-05-01T03:20:27.764Z</time>
      </trkpt>
      <trkpt lat="43.90016" lon="2.58136">
        <ele>297.022401</ele>
        <time>2021-05-01T03:21:05.925Z</time>
      </trkpt>
      <trkpt lat="43.90047" lon="2.58135">
        <ele>299.76453</ele>
        <time>2021-05-01T03:21:24.566Z</time>
      </trkpt>
      <trkpt lat="43.90064" lon="2.58129">
        <ele>301.342916</ele>
        <time>2021-05-01T03:21:35.796Z</time>
      </trkpt>
      <trkpt lat="43.90102" lon="2.58089">
        <ele>305.519941</ele>
        <time>2021-05-01T03:22:06.480Z</time>
      </trkpt>
      <trkpt lat="43.90116" lon="2.58061">
        <ele>307.698726</ele>
        <time>2021-05-01T03:22:22.593Z</time>
      </trkpt>
      <trkpt lat="43.90117" lon="2.58042">
        <ele>308.934605</ele>
        <time>2021-05-01T03:22:31.666Z</time>
      </trkpt>
      <trkpt lat="43.90098" lon="2.57944">
        <ele>315.454541</ele>
        <time>2021-05-01T03:23:18.803Z</time>
      </trkpt>
      <trkpt lat="43.90105" lon="2.57868">
        <ele>320.381299</ele>
        <time>2021-05-01T03:23:50.248Z</time>
      </trkpt>
      <trkpt lat="43.90124" lon="2.57796">
        <ele>322.15948</ele>
        <time>2021-05-01T03:24:11.949Z</time>
      </trkpt>
      <trkpt lat="43.90114" lon="2.57799">
        <ele>322.190593</ele>
        <time>2021-05-01T03:24:16.601Z</time>
      </trkpt>
      <trkpt lat="43.90107" lon="2.57811">
        <ele>322.226657</ele>
        <time>2021-05-01T03:24:19.628Z</time>
      </trkpt>
      <trkpt lat="43.90084" lon="2.57894">
        <ele>322.429935</ele>
        <time>2021-05-01T03:24:34.158Z</time>
      </trkpt>
      <trkpt lat="43.90063" lon="2.58008">
        <ele>321.791071</ele>
        <time>2021-05-01T03:24:47.642Z</time>
      </trkpt>
      <trkpt lat="43.90053" lon="2.58042">
        <ele>320.936771</ele>
        <time>2021-05-01T03:24:51.585Z</time>
      </trkpt>
      <trkpt lat="43.90045" lon="2.58054">
        <ele>320.558187</ele>
        <time>2021-05-01T03:24:53.351Z</time>
      </trkpt>
      <trkpt lat="43.90015" lon="2.58054">
        <ele>319.595311</ele>
        <time>2021-05-01T03:24:57.890Z</time>
      </trkpt>
      <trkpt lat="43.89979" lon="2.58028">
        <ele>318.298807</ele>
        <time>2021-05-01T03:25:04.302Z</time>
      </trkpt>
      <trkpt lat="43.89965" lon="2.58005">
        <ele>317.588017</ele>
        <time>2021-05-01T03:25:08.068Z</time>
      </trkpt>
      <trkpt lat="43.89948" lon="2.57959">
        <ele>317.425492</ele>
        <time>2021-05-01T03:25:15.517Z</time>
      </trkpt>
      <trkpt lat="43.89939" lon="2.57916">
        <ele>318.778683</ele>
        <time>2021-05-01T03:25:24.464Z</time>
      </trkpt>
      <trkpt lat="43.89933" lon="2.57854">
        <ele>320.68191</ele>
        <time>2021-05-01T03:25:40.937Z</time>
      </trkpt>
      <trkpt lat="43.89935" lon="2.57812">
        <ele>321.964043</ele>
        <time>2021-05-01T03:25:54.388Z</time>
      </trkpt>
      <trkpt lat="43.89949" lon="2.57726">
        <ele>324.866182</ele>
        <time>2021-05-01T03:26:27.730Z</time>
      </trkpt>
      <trkpt lat="43.89996" lon="2.57548">
        <ele>336.890664</ele>
        <time>2021-05-01T03:27:46.281Z</time>
      </trkpt>
      <trkpt lat="43.89999" lon="2.57435">
        <ele>346.361958</ele>
        <time>2021-05-01T03:28:33.450Z</time>
      </trkpt>
      <trkpt lat="43.89989" lon="2.57382">
        <ele>351.910397</ele>
        <time>2021-05-01T03:29:05.642Z</time>
      </trkpt>
      <trkpt lat="43.8995" lon="2.57302">
        <ele>361.65185</ele>
        <time>2021-05-01T03:30:05.431Z</time>
      </trkpt>
      <trkpt lat="43.8994" lon="2.57273">
        <ele>364.989446</ele>
        <time>2021-05-01T03:30:26.931Z</time>
      </trkpt>
      <trkpt lat="43.89935" lon="2.57241">
        <ele>368.697975</ele>
        <time>2021-05-01T03:30:46.481Z</time>
      </trkpt>
      <trkpt lat="43.89935" lon="2.5722">
        <ele>371.1812</ele>
        <time>2021-05-01T03:31:02.851Z</time>
      </trkpt>
      <trkpt lat="43.89939" lon="2.57118">
        <ele>383.23516</ele>
        <time>2021-05-01T03:32:11.050Z</time>
      </trkpt>
      <trkpt lat="43.89933" lon="2.57085">
        <ele>387.227816</ele>
        <time>2021-05-01T03:32:32.194Z</time>
      </trkpt>
      <trkpt lat="43.89911" lon="2.57038">
        <ele>393.748822</ele>
        <time>2021-05-01T03:33:09.608Z</time>
      </trkpt>
      <trkpt lat="43.89881" lon="2.56994">
        <ele>398.402753</ele>
        <time>2021-05-01T03:33:39.702Z</time>
      </trkpt>
      <trkpt lat="43.89871" lon="2.56969">
        <ele>400.383917</ele>
        <time>2021-05-01T03:33:52.234Z</time>
      </trkpt>
      <trkpt lat="43.8987" lon="2.56934">
        <ele>402.811792</ele>
        <time>2021-05-01T03:34:07.074Z</time>
      </trkpt>
      <trkpt lat="43.89895" lon="2.56867">
        <ele>407.967892</ele>
        <time>2021-05-01T03:34:36.582Z</time>
      </trkpt>
      <trkpt lat="43.89899" lon="2.56799">
        <ele>412.458632</ele>
        <time>2021-05-01T03:35:01.922Z</time>
      </trkpt>
      <trkpt lat="43.89895" lon="2.56766">
        <ele>414.154275</ele>
        <time>2021-05-01T03:35:14.214Z</time>
      </trkpt>
      <trkpt lat="43.89869" lon="2.5668">
        <ele>418.799092</ele>
        <time>2021-05-01T03:35:47.584Z</time>
      </trkpt>
      <trkpt lat="43.89886" lon="2.56562">
        <ele>424.871217</ele>
        <time>2021-05-01T03:36:29.377Z</time>
      </trkpt>
      <trkpt lat="43.89883" lon="2.56536">
        <ele>426.330301</ele>
        <time>2021-05-01T03:36:38.561Z</time>
      </trkpt>
      <trkpt lat="43.89839" lon="2.56398">
        <ele>434.988932</ele>
        <time>2021-05-01T03:37:38.928Z</time>
      </trkpt>
      <trkpt lat="43.89821" lon="2.56349">
        <ele>438.134749</ele>
        <time>2021-05-01T03:38:00.106Z</time>
      </trkpt>
      <trkpt lat="43.89812" lon="2.56341">
        <ele>439.012423</ele>
        <time>2021-05-01T03:38:07.387Z</time>
      </trkpt>
      <trkpt lat="43.89767" lon="2.56347">
        <ele>443.240197</ele>
        <time>2021-05-01T03:38:31.822Z</time>
      </trkpt>
      <trkpt lat="43.8971" lon="2.56341">
        <ele>448.562405</ele>
        <time>2021-05-01T03:39:05.450Z</time>
      </trkpt>
      <trkpt lat="43.89674" lon="2.56328">
        <ele>452.032309</ele>
        <time>2021-05-01T03:39:28.615Z</time>
      </trkpt>
      <trkpt lat="43.89657" lon="2.56329">
        <ele>453.618131</ele>
        <time>2021-05-01T03:39:38.975Z</time>
      </trkpt>
      <trkpt lat="43.89533" lon="2.56412">
        <ele>468.28827</ele>
        <time>2021-05-01T03:41:07.356Z</time>
      </trkpt>
      <trkpt lat="43.89488" lon="2.56459">
        <ele>474.378574</ele>
        <time>2021-05-01T03:41:46.913Z</time>
      </trkpt>
      <trkpt lat="43.89422" lon="2.56492">
        <ele>481.654083</ele>
        <time>2021-05-01T03:42:34.914Z</time>
      </trkpt>
      <trkpt lat="43.894" lon="2.56476">
        <ele>484.177419</ele>
        <time>2021-05-01T03:42:51.127Z</time>
      </trkpt>
      <trkpt lat="43.89381" lon="2.56417">
        <ele>488.973062</ele>
        <time>2021-05-01T03:43:21.114Z</time>
      </trkpt>
      <trkpt lat="43.89361" lon="2.56394">
        <ele>491.623939</ele>
        <time>2021-05-01T03:43:36.549Z</time>
      </trkpt>
      <trkpt lat="43.89296" lon="2.56353">
        <ele>495.935208</ele>
        <time>2021-05-01T03:44:14.613Z</time>
      </trkpt>
      <trkpt lat="43.89289" lon="2.56338">
        <ele>496.483674</ele>
        <time>2021-05-01T03:44:20.340Z</time>
      </trkpt>
      <trkpt lat="43.89288" lon="2.56322">
        <ele>497.016652</ele>
        <time>2021-05-01T03:44:25.478Z</time>
      </trkpt>
      <trkpt lat="43.89297" lon="2.56275">
        <ele>498.576869</ele>
        <time>2021-05-01T03:44:39.427Z</time>
      </trkpt>
      <trkpt lat="43.89292" lon="2.56235">
        <ele>499.902137</ele>
        <time>2021-05-01T03:44:48.940Z</time>
      </trkpt>
      <trkpt lat="43.8927" lon="2.56206">
        <ele>501.231273</ele>
        <time>2021-05-01T03:44:56.649Z</time>
      </trkpt>
      <trkpt lat="43.89227" lon="2.56189">
        <ele>501.703201</ele>
        <time>2021-05-01T03:45:07.335Z</time>
      </trkpt>
      <trkpt lat="43.89221" lon="2.5618">
        <ele>501.728089</ele>
        <time>2021-05-01T03:45:08.986Z</time>
      </trkpt>
      <trkpt lat="43.89224" lon="2.56154">
        <ele>501.777388</ele>
        <time>2021-05-01T03:45:13.519Z</time>
      </trkpt>
      <trkpt lat="43.89235" lon="2.56144">
        <ele>501.813384</ele>
        <time>2021-05-01T03:45:15.998Z</time>
      </trkpt>
      <trkpt lat="43.89263" lon="2.56129">
        <ele>501.891756</ele>
        <time>2021-05-01T03:45:22.856Z</time>
      </trkpt>
      <trkpt lat="43.89269" lon="2.56126">
        <ele>501.907612</ele>
        <time>2021-05-01T03:45:23.782Z</time>
      </trkpt>
      <trkpt lat="43.89296" lon="2.56116">
        <ele>501.982771</ele>
        <time>2021-05-01T03:45:30.418Z</time>
      </trkpt>
      <trkpt lat="43.89319" lon="2.56099">
        <ele>502.050832</ele>
        <time>2021-05-01T03:45:35.579Z</time>
      </trkpt>
      <trkpt lat="43.89325" lon="2.56078">
        <ele>502.258892</ele>
        <time>2021-05-01T03:45:38.854Z</time>
      </trkpt>
      <trkpt lat="43.89317" lon="2.5588">
        <ele>507.433948</ele>
        <time>2021-05-01T03:46:29.114Z</time>
      </trkpt>
      <trkpt lat="43.89324" lon="2.55838">
        <ele>508.562543</ele>
        <time>2021-05-01T03:46:44.675Z</time>
      </trkpt>
      <trkpt lat="43.89342" lon="2.55811">
        <ele>510.416097</ele>
        <time>2021-05-01T03:46:58.412Z</time>
      </trkpt>
      <trkpt lat="43.89344" lon="2.55798">
        <ele>511.126982</ele>
        <time>2021-05-01T03:47:03.393Z</time>
      </trkpt>
      <trkpt lat="43.89344" lon="2.55797">
        <ele>511.158833</ele>
        <time>2021-05-01T03:47:03.764Z</time>
      </trkpt>
      <trkpt lat="43.8934" lon="2.55777">
        <ele>512.263084</ele>
        <time>2021-05-01T03:47:12.185Z</time>
      </trkpt>
      <trkpt lat="43.8933" lon="2.55762">
        <ele>513.277666</ele>
        <time>2021-05-01T03:47:18.633Z</time>
      </trkpt>
      <trkpt lat="43.89319" lon="2.55749">
        <ele>514.338959</ele>
        <time>2021-05-01T03:47:26.786Z</time>
      </trkpt>
      <trkpt lat="43.8931" lon="2.55741">
        <ele>515.079777</ele>
        <time>2021-05-01T03:47:32.636Z</time>
      </trkpt>
      <trkpt lat="43.89306" lon="2.55722">
        <ele>516.111947</ele>
        <time>2021-05-01T03:47:39.277Z</time>
      </trkpt>
      <trkpt lat="43.89313" lon="2.55681">
        <ele>518.240926</ele>
        <time>2021-05-01T03:47:54.964Z</time>
      </trkpt>
      <trkpt lat="43.8931" lon="2.55644">
        <ele>520.161664</ele>
        <time>2021-05-01T03:48:09.703Z</time>
      </trkpt>
      <trkpt lat="43.89302" lon="2.55625">
        <ele>521.307874</ele>
        <time>2021-05-01T03:48:17.215Z</time>
      </trkpt>
      <trkpt lat="43.89263" lon="2.55574">
        <ele>524.476453</ele>
        <time>2021-05-01T03:48:46.196Z</time>
      </trkpt>
      <trkpt lat="43.8925" lon="2.55548">
        <ele>525.79669</ele>
        <time>2021-05-01T03:48:56.452Z</time>
      </trkpt>
      <trkpt lat="43.89236" lon="2.55496">
        <ele>528.114818</ele>
        <time>2021-05-01T03:49:13.477Z</time>
      </trkpt>
      <trkpt lat="43.89244" lon="2.55473">
        <ele>529.190505</ele>
        <time>2021-05-01T03:49:21.233Z</time>
      </trkpt>
      <trkpt lat="43.8927" lon="2.55453">
        <ele>530.861167</ele>
        <time>2021-05-01T03:49:33.120Z</time>
      </trkpt>
      <trkpt lat="43.89289" lon="2.55375">
        <ele>533.48999</ele>
        <time>2021-05-01T03:49:57.862Z</time>
      </trkpt>
      <trkpt lat="43.89293" lon="2.55284">
        <ele>535.948986</ele>
        <time>2021-05-01T03:50:24.335Z</time>
      </trkpt>
      <trkpt lat="43.89286" lon="2.55155">
        <ele>538.748288</ele>
        <time>2021-05-01T03:50:55.639Z</time>
      </trkpt>
      <trkpt lat="43.89294" lon="2.55074">
        <ele>538.8712</ele>
        <time>2021-05-01T03:51:11.366Z</time>
      </trkpt>
      <trkpt lat="43.8928" lon="2.55041">
        <ele>538.927526</ele>
        <time>2021-05-01T03:51:17.458Z</time>
      </trkpt>
      <trkpt lat="43.89269" lon="2.55033">
        <ele>538.954985</ele>
        <time>2021-05-01T03:51:20.424Z</time>
      </trkpt>
      <trkpt lat="43.89262" lon="2.55018">
        <ele>538.980887</ele>
        <time>2021-05-01T03:51:22.699Z</time>
      </trkpt>
      <trkpt lat="43.89252" lon="2.55015">
        <ele>539.00302</ele>
        <time>2021-05-01T03:51:25.072Z</time>
      </trkpt>
      <trkpt lat="43.8924" lon="2.55021">
        <ele>539.029468</ele>
        <time>2021-05-01T03:51:27.597Z</time>
      </trkpt>
      <trkpt lat="43.89144" lon="2.55109">
        <ele>536.827287</ele>
        <time>2021-05-01T03:51:47.203Z</time>
      </trkpt>
      <trkpt lat="43.8912" lon="2.55121">
        <ele>536.178129</ele>
        <time>2021-05-01T03:51:51.453Z</time>
      </trkpt>
      <trkpt lat="43.89077" lon="2.55118">
        <ele>535.103619</ele>
        <time>2021-05-01T03:51:58.634Z</time>
      </trkpt>
      <trkpt lat="43.88989" lon="2.55148">
        <ele>531.416844</ele>
        <time>2021-05-01T03:52:13.711Z</time>
      </trkpt>
      <trkpt lat="43.88947" lon="2.55144">
        <ele>529.461184</ele>
        <time>2021-05-01T03:52:20.249Z</time>
      </trkpt>
      <trkpt lat="43.889" lon="2.55118">
        <ele>527.153598</ele>
        <time>2021-05-01T03:52:27.721Z</time>
      </trkpt>
      <trkpt lat="43.88873" lon="2.55124">
        <ele>525.493411</ele>
        <time>2021-05-01T03:52:31.723Z</time>
      </trkpt>
      <trkpt lat="43.88851" lon="2.55146">
        <ele>523.018566</ele>
        <time>2021-05-01T03:52:35.634Z</time>
      </trkpt>
      <trkpt lat="43.88838" lon="2.55153">
        <ele>521.785355</ele>
        <time>2021-05-01T03:52:37.377Z</time>
      </trkpt>
      <trkpt lat="43.88809" lon="2.5515">
        <ele>519.111201</ele>
        <time>2021-05-01T03:52:41.468Z</time>
      </trkpt>
      <trkpt lat="43.88718" lon="2.55116">
        <ele>510.482288</ele>
        <time>2021-05-01T03:52:54.312Z</time>
      </trkpt>
      <trkpt lat="43.88701" lon="2.55116">
        <ele>509.068919</ele>
        <time>2021-05-01T03:52:56.571Z</time>
      </trkpt>
      <trkpt lat="43.88699" lon="2.55116">
        <ele>508.915387</ele>
        <time>2021-05-01T03:52:56.834Z</time>
      </trkpt>
      <trkpt lat="43.8866" lon="2.55133">
        <ele>505.808208</ele>
        <time>2021-05-01T03:53:02.421Z</time>
      </trkpt>
      <trkpt lat="43.88585" lon="2.55202">
        <ele>498.849504</ele>
        <time>2021-05-01T03:53:15.178Z</time>
      </trkpt>
      <trkpt lat="43.88492" lon="2.55259">
        <ele>494.352466</ele>
        <time>2021-05-01T03:53:31.097Z</time>
      </trkpt>
      <trkpt lat="43.88454" lon="2.55322">
        <ele>492.781511</ele>
        <time>2021-05-01T03:53:41.538Z</time>
      </trkpt>
      <trkpt lat="43.88446" lon="2.55325">
        <ele>492.558509</ele>
        <time>2021-05-01T03:53:43.074Z</time>
      </trkpt>
      <trkpt lat="43.8843" lon="2.55306">
        <ele>492.001587</ele>
        <time>2021-05-01T03:53:46.885Z</time>
      </trkpt>
      <trkpt lat="43.88414" lon="2.55264">
        <ele>491.285004</ele>
        <time>2021-05-01T03:53:53.330Z</time>
      </trkpt>
      <trkpt lat="43.88411" lon="2.55244">
        <ele>491.22274</ele>
        <time>2021-05-01T03:53:56.187Z</time>
      </trkpt>
      <trkpt lat="43.88415" lon="2.55232">
        <ele>491.179088</ele>
        <time>2021-05-01T03:53:58.175Z</time>
      </trkpt>
      <trkpt lat="43.88435" lon="2.55177">
        <ele>490.988786</ele>
        <time>2021-05-01T03:54:07.146Z</time>
      </trkpt>
      <trkpt lat="43.88468" lon="2.55129">
        <ele>490.781018</ele>
        <time>2021-05-01T03:54:17.866Z</time>
      </trkpt>
      <trkpt lat="43.88492" lon="2.55076">
        <ele>490.587798</ele>
        <time>2021-05-01T03:54:28.357Z</time>
      </trkpt>
      <trkpt lat="43.88529" lon="2.55038">
        <ele>489.987195</ele>
        <time>2021-05-01T03:54:38.102Z</time>
      </trkpt>
      <trkpt lat="43.88556" lon="2.55021">
        <ele>489.532534</ele>
        <time>2021-05-01T03:54:43.943Z</time>
      </trkpt>
      <trkpt lat="43.88569" lon="2.54996">
        <ele>489.194176</ele>
        <time>2021-05-01T03:54:48.211Z</time>
      </trkpt>
      <trkpt lat="43.88594" lon="2.54966">
        <ele>488.682332</ele>
        <time>2021-05-01T03:54:54.370Z</time>
      </trkpt>
      <trkpt lat="43.8866" lon="2.54879">
        <ele>487.282485</ele>
        <time>2021-05-01T03:55:09.465Z</time>
      </trkpt>
      <trkpt lat="43.88704" lon="2.5484">
        <ele>486.479079</ele>
        <time>2021-05-01T03:55:17.586Z</time>
      </trkpt>
      <trkpt lat="43.88768" lon="2.54854">
        <ele>485.469951</ele>
        <time>2021-05-01T03:55:30.674Z</time>
      </trkpt>
      <trkpt lat="43.88779" lon="2.5485">
        <ele>485.295028</ele>
        <time>2021-05-01T03:55:33.099Z</time>
      </trkpt>
      <trkpt lat="43.88793" lon="2.54848">
        <ele>485.076997</ele>
        <time>2021-05-01T03:55:36.774Z</time>
      </trkpt>
      <trkpt lat="43.88806" lon="2.5484">
        <ele>485.147291</ele>
        <time>2021-05-01T03:55:41.322Z</time>
      </trkpt>
      <trkpt lat="43.88843" lon="2.5482">
        <ele>485.776919</ele>
        <time>2021-05-01T03:55:52.083Z</time>
      </trkpt>
      <trkpt lat="43.88862" lon="2.54788">
        <ele>486.257995</ele>
        <time>2021-05-01T03:56:00.061Z</time>
      </trkpt>
      <trkpt lat="43.88861" lon="2.54782">
        <ele>486.328052</ele>
        <time>2021-05-01T03:56:01.996Z</time>
      </trkpt>
      <trkpt lat="43.88859" lon="2.54749">
        <ele>486.701031</ele>
        <time>2021-05-01T03:56:07.014Z</time>
      </trkpt>
      <trkpt lat="43.88857" lon="2.54743">
        <ele>486.781769</ele>
        <time>2021-05-01T03:56:09.604Z</time>
      </trkpt>
      <trkpt lat="43.88854" lon="2.54731">
        <ele>486.924375</ele>
        <time>2021-05-01T03:56:12.505Z</time>
      </trkpt>
      <trkpt lat="43.88852" lon="2.54717">
        <ele>487.089237</ele>
        <time>2021-05-01T03:56:15.626Z</time>
      </trkpt>
      <trkpt lat="43.88858" lon="2.547">
        <ele>487.305538</ele>
        <time>2021-05-01T03:56:18.562Z</time>
      </trkpt>
      <trkpt lat="43.88922" lon="2.54601">
        <ele>488.609726</ele>
        <time>2021-05-01T03:56:51.965Z</time>
      </trkpt>
      <trkpt lat="43.88974" lon="2.54501">
        <ele>489.694457</ele>
        <time>2021-05-01T03:57:10.266Z</time>
      </trkpt>
      <trkpt lat="43.89004" lon="2.54414">
        <ele>491.618291</ele>
        <time>2021-05-01T03:57:29.707Z</time>
      </trkpt>
      <trkpt lat="43.89026" lon="2.54347">
        <ele>493.740804</ele>
        <time>2021-05-01T03:57:48.861Z</time>
      </trkpt>
      <trkpt lat="43.89026" lon="2.54347">
        <ele>493.746542</ele>
        <time>2021-05-01T03:57:49.071Z</time>
      </trkpt>
      <trkpt lat="43.89037" lon="2.54303">
        <ele>495.085821</ele>
        <time>2021-05-01T03:58:02.745Z</time>
      </trkpt>
      <trkpt lat="43.89038" lon="2.54264">
        <ele>496.213755</ele>
        <time>2021-05-01T03:58:15.461Z</time>
      </trkpt>
      <trkpt lat="43.89036" lon="2.54229">
        <ele>497.196832</ele>
        <time>2021-05-01T03:58:27.424Z</time>
      </trkpt>
      <trkpt lat="43.89039" lon="2.54192">
        <ele>499.260482</ele>
        <time>2021-05-01T03:58:40.617Z</time>
      </trkpt>
      <trkpt lat="43.89059" lon="2.54087">
        <ele>505.274195</ele>
        <time>2021-05-01T03:59:22.001Z</time>
      </trkpt>
      <trkpt lat="43.89074" lon="2.5403">
        <ele>508.616414</ele>
        <time>2021-05-01T03:59:47.472Z</time>
      </trkpt>
      <trkpt lat="43.89099" lon="2.53972">
        <ele>512.287635</ele>
        <time>2021-05-01T04:00:14.283Z</time>
      </trkpt>
      <trkpt lat="43.89098" lon="2.53946">
        <ele>513.608508</ele>
        <time>2021-05-01T04:00:24.823Z</time>
      </trkpt>
      <trkpt lat="43.8909" lon="2.53932">
        <ele>514.526357</ele>
        <time>2021-05-01T04:00:31.409Z</time>
      </trkpt>
      <trkpt lat="43.89069" lon="2.53906">
        <ele>516.495494</ele>
        <time>2021-05-01T04:00:46.689Z</time>
      </trkpt>
      <trkpt lat="43.89047" lon="2.53881">
        <ele>518.524984</ele>
        <time>2021-05-01T04:01:01.321Z</time>
      </trkpt>
      <trkpt lat="43.89025" lon="2.53868">
        <ele>520.203444</ele>
        <time>2021-05-01T04:01:12.902Z</time>
      </trkpt>
      <trkpt lat="43.89006" lon="2.53858">
        <ele>521.707254</ele>
        <time>2021-05-01T04:01:23.388Z</time>
      </trkpt>
      <trkpt lat="43.88968" lon="2.53848">
        <ele>523.996339</ele>
        <time>2021-05-01T04:01:40.760Z</time>
      </trkpt>
      <trkpt lat="43.88924" lon="2.53855">
        <ele>525.179173</ele>
        <time>2021-05-01T04:01:59.677Z</time>
      </trkpt>
      <trkpt lat="43.88845" lon="2.53841">
        <ele>527.264809</ele>
        <time>2021-05-01T04:02:24.129Z</time>
      </trkpt>
      <trkpt lat="43.88796" lon="2.53821">
        <ele>528.462904</ele>
        <time>2021-05-01T04:02:36.554Z</time>
      </trkpt>
      <trkpt lat="43.88718" lon="2.53772">
        <ele>527.889818</ele>
        <time>2021-05-01T04:02:53.853Z</time>
      </trkpt>
      <trkpt lat="43.88687" lon="2.53766">
        <ele>527.679298</ele>
        <time>2021-05-01T04:02:59.700Z</time>
      </trkpt>
      <trkpt lat="43.88596" lon="2.53806">
        <ele>527.667888</ele>
        <time>2021-05-01T04:03:17.773Z</time>
      </trkpt>
      <trkpt lat="43.88552" lon="2.53837">
        <ele>528.195073</ele>
        <time>2021-05-01T04:03:28.049Z</time>
      </trkpt>
      <trkpt lat="43.88486" lon="2.53899">
        <ele>529.036986</ele>
        <time>2021-05-01T04:03:52.216Z</time>
      </trkpt>
      <trkpt lat="43.88462" lon="2.53903">
        <ele>529.729809</ele>
        <time>2021-05-01T04:04:00.761Z</time>
      </trkpt>
      <trkpt lat="43.88435" lon="2.53899">
        <ele>531.209708</ele>
        <time>2021-05-01T04:04:11.939Z</time>
      </trkpt>
      <trkpt lat="43.88396" lon="2.53937">
        <ele>533.870571</ele>
        <time>2021-05-01T04:04:32.603Z</time>
      </trkpt>
      <trkpt lat="43.88392" lon="2.53942">
        <ele>534.149742</ele>
        <time>2021-05-01T04:04:35.503Z</time>
      </trkpt>
      <trkpt lat="43.88358" lon="2.53984">
        <ele>536.684564</ele>
        <time>2021-05-01T04:04:58.040Z</time>
      </trkpt>
      <trkpt lat="43.88337" lon="2.53998">
        <ele>537.979308</ele>
        <time>2021-05-01T04:05:08.851Z</time>
      </trkpt>
      <trkpt lat="43.88322" lon="2.53996">
        <ele>538.776695</ele>
        <time>2021-05-01T04:05:16.507Z</time>
      </trkpt>
      <trkpt lat="43.88305" lon="2.53977">
        <ele>539.869915</ele>
        <time>2021-05-01T04:05:26.948Z</time>
      </trkpt>
      <trkpt lat="43.88273" lon="2.53961">
        <ele>541.409547</ele>
        <time>2021-05-01T04:05:42.897Z</time>
      </trkpt>
      <trkpt lat="43.88253" lon="2.53927">
        <ele>542.859869</ele>
        <time>2021-05-01T04:05:57.929Z</time>
      </trkpt>
      <trkpt lat="43.88235" lon="2.53913">
        <ele>543.804474</ele>
        <time>2021-05-01T04:06:06.820Z</time>
      </trkpt>
      <trkpt lat="43.88155" lon="2.5391">
        <ele>547.401447</ele>
        <time>2021-05-01T04:06:34.206Z</time>
      </trkpt>
      <trkpt lat="43.88132" lon="2.53925">
        <ele>547.381609</ele>
        <time>2021-05-01T04:06:41.968Z</time>
      </trkpt>
      <trkpt lat="43.88117" lon="2.53925">
        <ele>547.370717</ele>
        <time>2021-05-01T04:06:45.848Z</time>
      </trkpt>
      <trkpt lat="43.88106" lon="2.53917">
        <ele>547.361108</ele>
        <time>2021-05-01T04:06:49.057Z</time>
      </trkpt>
      <trkpt lat="43.88103" lon="2.53903">
        <ele>547.352863</ele>
        <time>2021-05-01T04:06:51.687Z</time>
      </trkpt>
      <trkpt lat="43.88107" lon="2.53882">
        <ele>547.341004</ele>
        <time>2021-05-01T04:06:55.139Z</time>
      </trkpt>
      <trkpt lat="43.88162" lon="2.53813">
        <ele>547.283922</ele>
        <time>2021-05-01T04:07:09.348Z</time>
      </trkpt>
      <trkpt lat="43.8817" lon="2.53786">
        <ele>547.267577</ele>
        <time>2021-05-01T04:07:13.120Z</time>
      </trkpt>
      <trkpt lat="43.88167" lon="2.53719">
        <ele>546.507655</ele>
        <time>2021-05-01T04:07:21.820Z</time>
      </trkpt>
      <trkpt lat="43.88174" lon="2.53704">
        <ele>546.282191</ele>
        <time>2021-05-01T04:07:24.062Z</time>
      </trkpt>
      <trkpt lat="43.88213" lon="2.53677">
        <ele>545.54021</ele>
        <time>2021-05-01T04:07:31.570Z</time>
      </trkpt>
      <trkpt lat="43.88228" lon="2.53649">
        <ele>545.113193</ele>
        <time>2021-05-01T04:07:35.981Z</time>
      </trkpt>
      <trkpt lat="43.88234" lon="2.53624">
        <ele>544.779028</ele>
        <time>2021-05-01T04:07:39.447Z</time>
      </trkpt>
      <trkpt lat="43.88232" lon="2.53587">
        <ele>544.330508</ele>
        <time>2021-05-01T04:07:44.241Z</time>
      </trkpt>
      <trkpt lat="43.88238" lon="2.53564">
        <ele>544.196688</ele>
        <time>2021-05-01T04:07:47.708Z</time>
      </trkpt>
      <trkpt lat="43.88248" lon="2.53552">
        <ele>544.216875</ele>
        <time>2021-05-01T04:07:50.223Z</time>
      </trkpt>
      <trkpt lat="43.88297" lon="2.53542">
        <ele>544.29194</ele>
        <time>2021-05-01T04:08:00.377Z</time>
      </trkpt>
      <trkpt lat="43.88312" lon="2.53521">
        <ele>544.324193</ele>
        <time>2021-05-01T04:08:05.363Z</time>
      </trkpt>
      <trkpt lat="43.88323" lon="2.53442">
        <ele>544.411161</ele>
        <time>2021-05-01T04:08:20.128Z</time>
      </trkpt>
      <trkpt lat="43.88349" lon="2.53369">
        <ele>545.039456</ele>
        <time>2021-05-01T04:08:36.187Z</time>
      </trkpt>
      <trkpt lat="43.88345" lon="2.53301">
        <ele>545.986135</ele>
        <time>2021-05-01T04:08:50.935Z</time>
      </trkpt>
      <trkpt lat="43.88349" lon="2.53271">
        <ele>546.405919</ele>
        <time>2021-05-01T04:08:57.539Z</time>
      </trkpt>
      <trkpt lat="43.88396" lon="2.53155">
        <ele>548.490421</ele>
        <time>2021-05-01T04:09:27.303Z</time>
      </trkpt>
      <trkpt lat="43.88412" lon="2.53106">
        <ele>549.776322</ele>
        <time>2021-05-01T04:09:40.264Z</time>
      </trkpt>
      <trkpt lat="43.88421" lon="2.53065">
        <ele>550.794025</ele>
        <time>2021-05-01T04:09:50.855Z</time>
      </trkpt>
      <trkpt lat="43.88426" lon="2.53002">
        <ele>552.314394</ele>
        <time>2021-05-01T04:10:07.570Z</time>
      </trkpt>
      <trkpt lat="43.88425" lon="2.5297">
        <ele>553.072829</ele>
        <time>2021-05-01T04:10:16.201Z</time>
      </trkpt>
      <trkpt lat="43.88418" lon="2.52941">
        <ele>553.812775</ele>
        <time>2021-05-01T04:10:24.976Z</time>
      </trkpt>
      <trkpt lat="43.88409" lon="2.52929">
        <ele>554.423755</ele>
        <time>2021-05-01T04:10:29.832Z</time>
      </trkpt>
      <trkpt lat="43.88394" lon="2.5292">
        <ele>555.286114</ele>
        <time>2021-05-01T04:10:36.590Z</time>
      </trkpt>
      <trkpt lat="43.88326" lon="2.52901">
        <ele>558.823483</ele>
        <time>2021-05-01T04:11:05.494Z</time>
      </trkpt>
      <trkpt lat="43.88236" lon="2.52916">
        <ele>563.513775</ele>
        <time>2021-05-01T04:11:46.463Z</time>
      </trkpt>
      <trkpt lat="43.88206" lon="2.52904">
        <ele>565.088891</ele>
        <time>2021-05-01T04:12:01.734Z</time>
      </trkpt>
      <trkpt lat="43.88097" lon="2.52834">
        <ele>571.112476</ele>
        <time>2021-05-01T04:12:52.217Z</time>
      </trkpt>
      <trkpt lat="43.88075" lon="2.52826">
        <ele>572.232621</ele>
        <time>2021-05-01T04:13:01.621Z</time>
      </trkpt>
      <trkpt lat="43.88046" lon="2.52807">
        <ele>573.189803</ele>
        <time>2021-05-01T04:13:13.172Z</time>
      </trkpt>
      <trkpt lat="43.88044" lon="2.52784">
        <ele>573.693624</ele>
        <time>2021-05-01T04:13:18.758Z</time>
      </trkpt>
      <trkpt lat="43.88057" lon="2.52751">
        <ele>574.514315</ele>
        <time>2021-05-01T04:13:28.447Z</time>
      </trkpt>
      <trkpt lat="43.88054" lon="2.52718">
        <ele>575.225907</ele>
        <time>2021-05-01T04:13:36.326Z</time>
      </trkpt>
      <trkpt lat="43.88061" lon="2.52642">
        <ele>576.880923</ele>
        <time>2021-05-01T04:13:54.448Z</time>
      </trkpt>
      <trkpt lat="43.88057" lon="2.5262">
        <ele>577.389672</ele>
        <time>2021-05-01T04:13:59.235Z</time>
      </trkpt>
      <trkpt lat="43.88035" lon="2.52575">
        <ele>578.453111</ele>
        <time>2021-05-01T04:14:11.028Z</time>
      </trkpt>
      <trkpt lat="43.88005" lon="2.52484">
        <ele>580.364483</ele>
        <time>2021-05-01T04:14:33.433Z</time>
      </trkpt>
      <trkpt lat="43.88" lon="2.52456">
        <ele>580.907574</ele>
        <time>2021-05-01T04:14:40.524Z</time>
      </trkpt>
      <trkpt lat="43.88002" lon="2.52416">
        <ele>581.671163</ele>
        <time>2021-05-01T04:14:50.278Z</time>
      </trkpt>
      <trkpt lat="43.88002" lon="2.5238">
        <ele>582.372079</ele>
        <time>2021-05-01T04:14:59.558Z</time>
      </trkpt>
      <trkpt lat="43.88" lon="2.52306">
        <ele>584.521088</ele>
        <time>2021-05-01T04:15:20.034Z</time>
      </trkpt>
      <trkpt lat="43.87997" lon="2.52219">
        <ele>587.09062</ele>
        <time>2021-05-01T04:15:44.822Z</time>
      </trkpt>
      <trkpt lat="43.87986" lon="2.52113">
        <ele>590.040259</ele>
        <time>2021-05-01T04:16:15.189Z</time>
      </trkpt>
      <trkpt lat="43.87975" lon="2.52082">
        <ele>590.715206</ele>
        <time>2021-05-01T04:16:25.066Z</time>
      </trkpt>
      <trkpt lat="43.87935" lon="2.52016">
        <ele>592.415549</ele>
        <time>2021-05-01T04:16:47.531Z</time>
      </trkpt>
      <trkpt lat="43.87926" lon="2.51973">
        <ele>593.29375</ele>
        <time>2021-05-01T04:16:57.804Z</time>
      </trkpt>
      <trkpt lat="43.87926" lon="2.5193">
        <ele>594.158</ele>
        <time>2021-05-01T04:17:06.779Z</time>
      </trkpt>
      <trkpt lat="43.8793" lon="2.51905">
        <ele>594.588547</ele>
        <time>2021-05-01T04:17:11.617Z</time>
      </trkpt>
      <trkpt lat="43.87988" lon="2.51798">
        <ele>594.337234</ele>
        <time>2021-05-01T04:17:32.926Z</time>
      </trkpt>
      <trkpt lat="43.88033" lon="2.51746">
        <ele>594.184893</ele>
        <time>2021-05-01T04:17:44.358Z</time>
      </trkpt>
      <trkpt lat="43.88051" lon="2.51716">
        <ele>594.112424</ele>
        <time>2021-05-01T04:17:49.754Z</time>
      </trkpt>
      <trkpt lat="43.8807" lon="2.51668">
        <ele>594.018298</ele>
        <time>2021-05-01T04:17:57.186Z</time>
      </trkpt>
      <trkpt lat="43.88126" lon="2.51598">
        <ele>593.835756</ele>
        <time>2021-05-01T04:18:12.326Z</time>
      </trkpt>
      <trkpt lat="43.88154" lon="2.51542">
        <ele>593.716903</ele>
        <time>2021-05-01T04:18:23.939Z</time>
      </trkpt>
      <trkpt lat="43.88188" lon="2.51533">
        <ele>594.513389</ele>
        <time>2021-05-01T04:18:32.836Z</time>
      </trkpt>
      <trkpt lat="43.88203" lon="2.51535">
        <ele>595.052347</ele>
        <time>2021-05-01T04:18:37.230Z</time>
      </trkpt>
      <trkpt lat="43.88291" lon="2.51569">
        <ele>598.166322</ele>
        <time>2021-05-01T04:19:09.336Z</time>
      </trkpt>
      <trkpt lat="43.88342" lon="2.51572">
        <ele>599.963091</ele>
        <time>2021-05-01T04:19:31.599Z</time>
      </trkpt>
      <trkpt lat="43.88383" lon="2.51565">
        <ele>602.526576</ele>
        <time>2021-05-01T04:19:51.726Z</time>
      </trkpt>
      <trkpt lat="43.88403" lon="2.51554">
        <ele>603.882071</ele>
        <time>2021-05-01T04:20:02.721Z</time>
      </trkpt>
      <trkpt lat="43.88421" lon="2.51531">
        <ele>605.418812</ele>
        <time>2021-05-01T04:20:15.332Z</time>
      </trkpt>
      <trkpt lat="43.88473" lon="2.51379">
        <ele>611.915061</ele>
        <time>2021-05-01T04:21:12.613Z</time>
      </trkpt>
      <trkpt lat="43.88494" lon="2.51351">
        <ele>612.789931</ele>
        <time>2021-05-01T04:21:23.954Z</time>
      </trkpt>
      <trkpt lat="43.88508" lon="2.51341">
        <ele>613.241717</ele>
        <time>2021-05-01T04:21:29.190Z</time>
      </trkpt>
      <trkpt lat="43.88557" lon="2.51342">
        <ele>614.691617</ele>
        <time>2021-05-01T04:21:44.444Z</time>
      </trkpt>
      <trkpt lat="43.88592" lon="2.51329">
        <ele>615.778475</ele>
        <time>2021-05-01T04:21:54.597Z</time>
      </trkpt>
      <trkpt lat="43.88629" lon="2.51305">
        <ele>616.903937</ele>
        <time>2021-05-01T04:22:04.499Z</time>
      </trkpt>
      <trkpt lat="43.88656" lon="2.51278">
        <ele>617.789201</ele>
        <time>2021-05-01T04:22:12.195Z</time>
      </trkpt>
      <trkpt lat="43.88674" lon="2.51252">
        <ele>618.496807</ele>
        <time>2021-05-01T04:22:18.848Z</time>
      </trkpt>
      <trkpt lat="43.88686" lon="2.51247">
        <ele>618.827058</ele>
        <time>2021-05-01T04:22:22.480Z</time>
      </trkpt>
      <trkpt lat="43.88751" lon="2.51242">
        <ele>620.575335</ele>
        <time>2021-05-01T04:22:45.958Z</time>
      </trkpt>
      <trkpt lat="43.88776" lon="2.51233">
        <ele>621.503311</ele>
        <time>2021-05-01T04:22:57.465Z</time>
      </trkpt>
      <trkpt lat="43.88801" lon="2.51219">
        <ele>623.646627</ele>
        <time>2021-05-01T04:23:10.449Z</time>
      </trkpt>
      <trkpt lat="43.8881" lon="2.51214">
        <ele>624.432049</ele>
        <time>2021-05-01T04:23:15.445Z</time>
      </trkpt>
      <trkpt lat="43.888" lon="2.51182">
        <ele>626.45306</ele>
        <time>2021-05-01T04:23:28.877Z</time>
      </trkpt>
      <trkpt lat="43.88799" lon="2.51145">
        <ele>628.532421</ele>
        <time>2021-05-01T04:23:43.584Z</time>
      </trkpt>
      <trkpt lat="43.88804" lon="2.51058">
        <ele>633.55864</ele>
        <time>2021-05-01T04:24:20.783Z</time>
      </trkpt>
      <trkpt lat="43.88805" lon="2.51006">
        <ele>636.406531</ele>
        <time>2021-05-01T04:24:44.083Z</time>
      </trkpt>
      <trkpt lat="43.88796" lon="2.50946">
        <ele>639.379815</ele>
        <time>2021-05-01T04:25:10.076Z</time>
      </trkpt>
      <trkpt lat="43.88782" lon="2.50927">
        <ele>640.672875</ele>
        <time>2021-05-01T04:25:20.455Z</time>
      </trkpt>
      <trkpt lat="43.8871" lon="2.50881">
        <ele>646.033576</ele>
        <time>2021-05-01T04:25:56.800Z</time>
      </trkpt>
      <trkpt lat="43.88698" lon="2.50869">
        <ele>647.038434</ele>
        <time>2021-05-01T04:26:02.811Z</time>
      </trkpt>
      <trkpt lat="43.88693" lon="2.50848">
        <ele>647.746247</ele>
        <time>2021-05-01T04:26:08.976Z</time>
      </trkpt>
      <trkpt lat="43.88696" lon="2.50819">
        <ele>648.129917</ele>
        <time>2021-05-01T04:26:16.761Z</time>
      </trkpt>
      <trkpt lat="43.88746" lon="2.50666">
        <ele>650.284805</ele>
        <time>2021-05-01T04:26:51.898Z</time>
      </trkpt>
      <trkpt lat="43.8875" lon="2.50639">
        <ele>650.631163</ele>
        <time>2021-05-01T04:26:56.499Z</time>
      </trkpt>
      <trkpt lat="43.88752" lon="2.50609">
        <ele>650.636456</ele>
        <time>2021-05-01T04:27:00.910Z</time>
      </trkpt>
      <trkpt lat="43.88738" lon="2.50526">
        <ele>649.580832</ele>
        <time>2021-05-01T04:27:12.431Z</time>
      </trkpt>
      <trkpt lat="43.88733" lon="2.50506">
        <ele>649.328877</ele>
        <time>2021-05-01T04:27:15.114Z</time>
      </trkpt>
      <trkpt lat="43.88729" lon="2.50492">
        <ele>649.137297</ele>
        <time>2021-05-01T04:27:17.090Z</time>
      </trkpt>
      <trkpt lat="43.88732" lon="2.50474">
        <ele>648.915567</ele>
        <time>2021-05-01T04:27:19.298Z</time>
      </trkpt>
      <trkpt lat="43.88734" lon="2.50456">
        <ele>648.688117</ele>
        <time>2021-05-01T04:27:21.632Z</time>
      </trkpt>
      <trkpt lat="43.88734" lon="2.50446">
        <ele>648.560951</ele>
        <time>2021-05-01T04:27:22.907Z</time>
      </trkpt>
      <trkpt lat="43.88735" lon="2.50408">
        <ele>648.099216</ele>
        <time>2021-05-01T04:27:27.444Z</time>
      </trkpt>
      <trkpt lat="43.88731" lon="2.50367">
        <ele>647.499674</ele>
        <time>2021-05-01T04:27:32.423Z</time>
      </trkpt>
      <trkpt lat="43.88716" lon="2.50314">
        <ele>646.401105</ele>
        <time>2021-05-01T04:27:39.255Z</time>
      </trkpt>
      <trkpt lat="43.88607" lon="2.50082">
        <ele>642.7654</ele>
        <time>2021-05-01T04:28:13.028Z</time>
      </trkpt>
      <trkpt lat="43.88558" lon="2.50012">
        <ele>642.564561</ele>
        <time>2021-05-01T04:28:29.849Z</time>
      </trkpt>
      <trkpt lat="43.88496" lon="2.4994">
        <ele>643.362193</ele>
        <time>2021-05-01T04:28:54.438Z</time>
      </trkpt>
      <trkpt lat="43.88485" lon="2.49927">
        <ele>643.697986</ele>
        <time>2021-05-01T04:29:00.604Z</time>
      </trkpt>
      <trkpt lat="43.88461" lon="2.4987">
        <ele>644.738928</ele>
        <time>2021-05-01T04:29:16.440Z</time>
      </trkpt>
      <trkpt lat="43.88431" lon="2.4973">
        <ele>646.244278</ele>
        <time>2021-05-01T04:29:48.586Z</time>
      </trkpt>
      <trkpt lat="43.88402" lon="2.49594">
        <ele>645.667855</ele>
        <time>2021-05-01T04:30:09.331Z</time>
      </trkpt>
      <trkpt lat="43.88351" lon="2.49344">
        <ele>642.404817</ele>
        <time>2021-05-01T04:30:41.278Z</time>
      </trkpt>
      <trkpt lat="43.88344" lon="2.49286">
        <ele>641.508499</ele>
        <time>2021-05-01T04:30:48.882Z</time>
      </trkpt>
      <trkpt lat="43.88352" lon="2.49145">
        <ele>639.946097</ele>
        <time>2021-05-01T04:31:08.639Z</time>
      </trkpt>
      <trkpt lat="43.88368" lon="2.48954">
        <ele>637.04768</ele>
        <time>2021-05-01T04:31:33.169Z</time>
      </trkpt>
      <trkpt lat="43.88377" lon="2.48852">
        <ele>634.976027</ele>
        <time>2021-05-01T04:31:45.299Z</time>
      </trkpt>
      <trkpt lat="43.88377" lon="2.48843">
        <ele>634.785668</ele>
        <time>2021-05-01T04:31:46.297Z</time>
      </trkpt>
      <trkpt lat="43.88383" lon="2.48786">
        <ele>633.676767</ele>
        <time>2021-05-01T04:31:52.811Z</time>
      </trkpt>
      <trkpt lat="43.88406" lon="2.4854">
        <ele>630.316798</ele>
        <time>2021-05-01T04:32:24.497Z</time>
      </trkpt>
      <trkpt lat="43.88414" lon="2.48486">
        <ele>630.33563</ele>
        <time>2021-05-01T04:32:34.261Z</time>
      </trkpt>
      <trkpt lat="43.88435" lon="2.48411">
        <ele>630.363405</ele>
        <time>2021-05-01T04:32:48.516Z</time>
      </trkpt>
      <trkpt lat="43.88456" lon="2.48373">
        <ele>630.37982</ele>
        <time>2021-05-01T04:32:57.003Z</time>
      </trkpt>
      <trkpt lat="43.88478" lon="2.48346">
        <ele>630.393768</ele>
        <time>2021-05-01T04:33:04.271Z</time>
      </trkpt>
      <trkpt lat="43.88504" lon="2.48323">
        <ele>630.118677</ele>
        <time>2021-05-01T04:33:11.287Z</time>
      </trkpt>
      <trkpt lat="43.88527" lon="2.48307">
        <ele>629.642276</ele>
        <time>2021-05-01T04:33:16.325Z</time>
      </trkpt>
      <trkpt lat="43.88629" lon="2.48248">
        <ele>627.601188</ele>
        <time>2021-05-01T04:33:35.847Z</time>
      </trkpt>
      <trkpt lat="43.88663" lon="2.48218">
        <ele>626.533502</ele>
        <time>2021-05-01T04:33:42.305Z</time>
      </trkpt>
      <trkpt lat="43.88683" lon="2.4819">
        <ele>625.260206</ele>
        <time>2021-05-01T04:33:46.817Z</time>
      </trkpt>
      <trkpt lat="43.88705" lon="2.48153">
        <ele>623.713349</ele>
        <time>2021-05-01T04:33:52.212Z</time>
      </trkpt>
      <trkpt lat="43.88726" lon="2.48085">
        <ele>621.321082</ele>
        <time>2021-05-01T04:34:00.423Z</time>
      </trkpt>
      <trkpt lat="43.88732" lon="2.48021">
        <ele>619.229847</ele>
        <time>2021-05-01T04:34:07.404Z</time>
      </trkpt>
      <trkpt lat="43.88729" lon="2.47878">
        <ele>613.332838</ele>
        <time>2021-05-01T04:34:22.439Z</time>
      </trkpt>
      <trkpt lat="43.88724" lon="2.47839">
        <ele>611.681568</ele>
        <time>2021-05-01T04:34:26.668Z</time>
      </trkpt>
      <trkpt lat="43.8872" lon="2.47818">
        <ele>610.744953</ele>
        <time>2021-05-01T04:34:28.980Z</time>
      </trkpt>
      <trkpt lat="43.88711" lon="2.47785">
        <ele>609.257643</ele>
        <time>2021-05-01T04:34:32.776Z</time>
      </trkpt>
      <trkpt lat="43.88674" lon="2.47726">
        <ele>607.171345</ele>
        <time>2021-05-01T04:34:41.169Z</time>
      </trkpt>
      <trkpt lat="43.88644" lon="2.47703">
        <ele>606.069341</ele>
        <time>2021-05-01T04:34:46.523Z</time>
      </trkpt>
      <trkpt lat="43.88606" lon="2.47685">
        <ele>604.815471</ele>
        <time>2021-05-01T04:34:52.925Z</time>
      </trkpt>
      <trkpt lat="43.88519" lon="2.47644">
        <ele>602.950176</ele>
        <time>2021-05-01T04:35:10.863Z</time>
      </trkpt>
      <trkpt lat="43.88496" lon="2.47627">
        <ele>603.02458</ele>
        <time>2021-05-01T04:35:16.769Z</time>
      </trkpt>
      <trkpt lat="43.88491" lon="2.47621">
        <ele>603.043919</ele>
        <time>2021-05-01T04:35:18.141Z</time>
      </trkpt>
      <trkpt lat="43.88477" lon="2.47605">
        <ele>603.095169</ele>
        <time>2021-05-01T04:35:22.910Z</time>
      </trkpt>
      <trkpt lat="43.88398" lon="2.47487">
        <ele>603.303368</ele>
        <time>2021-05-01T04:35:53.456Z</time>
      </trkpt>
      <trkpt lat="43.88345" lon="2.47396">
        <ele>602.965082</ele>
        <time>2021-05-01T04:36:11.669Z</time>
      </trkpt>
      <trkpt lat="43.88336" lon="2.47375">
        <ele>602.89268</ele>
        <time>2021-05-01T04:36:15.018Z</time>
      </trkpt>
      <trkpt lat="43.8833" lon="2.47347">
        <ele>602.808712</ele>
        <time>2021-05-01T04:36:19.042Z</time>
      </trkpt>
      <trkpt lat="43.8833" lon="2.47321">
        <ele>602.732448</ele>
        <time>2021-05-01T04:36:22.425Z</time>
      </trkpt>
      <trkpt lat="43.88331" lon="2.473">
        <ele>602.672043</ele>
        <time>2021-05-01T04:36:25.379Z</time>
      </trkpt>
      <trkpt lat="43.88343" lon="2.47122">
        <ele>602.614894</ele>
        <time>2021-05-01T04:36:49.826Z</time>
      </trkpt>
      <trkpt lat="43.8835" lon="2.46995">
        <ele>604.130397</ele>
        <time>2021-05-01T04:37:17.454Z</time>
      </trkpt>
      <trkpt lat="43.88356" lon="2.46918">
        <ele>606.568381</ele>
        <time>2021-05-01T04:37:39.795Z</time>
      </trkpt>
      <trkpt lat="43.88362" lon="2.46818">
        <ele>609.702757</ele>
        <time>2021-05-01T04:38:12.596Z</time>
      </trkpt>
      <trkpt lat="43.88367" lon="2.46743">
        <ele>611.863996</ele>
        <time>2021-05-01T04:38:36.227Z</time>
      </trkpt>
      <trkpt lat="43.8837" lon="2.46714">
        <ele>612.657478</ele>
        <time>2021-05-01T04:38:46.016Z</time>
      </trkpt>
      <trkpt lat="43.88377" lon="2.4668">
        <ele>613.617608</ele>
        <time>2021-05-01T04:38:56.131Z</time>
      </trkpt>
      <trkpt lat="43.88388" lon="2.46641">
        <ele>614.767783</ele>
        <time>2021-05-01T04:39:07.345Z</time>
      </trkpt>
      <trkpt lat="43.88411" lon="2.4659">
        <ele>616.425976</ele>
        <time>2021-05-01T04:39:21.840Z</time>
      </trkpt>
      <trkpt lat="43.88426" lon="2.46565">
        <ele>617.261128</ele>
        <time>2021-05-01T04:39:28.484Z</time>
      </trkpt>
      <trkpt lat="43.88432" lon="2.46568">
        <ele>617.270144</ele>
        <time>2021-05-01T04:39:30.349Z</time>
      </trkpt>
      <trkpt lat="43.88438" lon="2.46564">
        <ele>617.279642</ele>
        <time>2021-05-01T04:39:32.437Z</time>
      </trkpt>
      <trkpt lat="43.88439" lon="2.46561">
        <ele>617.28373</ele>
        <time>2021-05-01T04:39:33.318Z</time>
      </trkpt>
      <trkpt lat="43.8844" lon="2.46558">
        <ele>617.287374</ele>
        <time>2021-05-01T04:39:34.090Z</time>
      </trkpt>
      <trkpt lat="43.8844" lon="2.46553">
        <ele>617.293117</ele>
        <time>2021-05-01T04:39:35.383Z</time>
      </trkpt>
      <trkpt lat="43.88439" lon="2.46549">
        <ele>617.296835</ele>
        <time>2021-05-01T04:39:36.016Z</time>
      </trkpt>
      <trkpt lat="43.88463" lon="2.46528">
        <ele>617.338706</ele>
        <time>2021-05-01T04:39:42.228Z</time>
      </trkpt>
      <trkpt lat="43.88475" lon="2.46521">
        <ele>617.357166</ele>
        <time>2021-05-01T04:39:45.055Z</time>
      </trkpt>
      <trkpt lat="43.88499" lon="2.46507">
        <ele>617.395936</ele>
        <time>2021-05-01T04:39:50.600Z</time>
      </trkpt>
      <trkpt lat="43.88506" lon="2.46504">
        <ele>617.406905</ele>
        <time>2021-05-01T04:39:52.280Z</time>
      </trkpt>
      <trkpt lat="43.8856" lon="2.4648">
        <ele>617.489863</ele>
        <time>2021-05-01T04:40:04.154Z</time>
      </trkpt>
      <trkpt lat="43.88583" lon="2.4647">
        <ele>617.518509</ele>
        <time>2021-05-01T04:40:08.922Z</time>
      </trkpt>
      <trkpt lat="43.88626" lon="2.46451">
        <ele>617.092755</ele>
        <time>2021-05-01T04:40:17.758Z</time>
      </trkpt>
      <trkpt lat="43.88642" lon="2.46441">
        <ele>616.925034</ele>
        <time>2021-05-01T04:40:21.160Z</time>
      </trkpt>
      <trkpt lat="43.88673" lon="2.46406">
        <ele>616.559143</ele>
        <time>2021-05-01T04:40:28.759Z</time>
      </trkpt>
      <trkpt lat="43.88685" lon="2.46386">
        <ele>616.375983</ele>
        <time>2021-05-01T04:40:32.598Z</time>
      </trkpt>
      <trkpt lat="43.88701" lon="2.46347">
        <ele>616.074675</ele>
        <time>2021-05-01T04:40:38.842Z</time>
      </trkpt>
      <trkpt lat="43.88737" lon="2.46245">
        <ele>615.006264</ele>
        <time>2021-05-01T04:40:54.405Z</time>
      </trkpt>
      <trkpt lat="43.88739" lon="2.46241">
        <ele>614.955609</ele>
        <time>2021-05-01T04:40:55.034Z</time>
      </trkpt>
      <trkpt lat="43.88759" lon="2.46181">
        <ele>614.257459</ele>
        <time>2021-05-01T04:41:03.541Z</time>
      </trkpt>
      <trkpt lat="43.88786" lon="2.46131">
        <ele>613.58636</ele>
        <time>2021-05-01T04:41:11.703Z</time>
      </trkpt>
      <trkpt lat="43.88801" lon="2.46103">
        <ele>613.218129</ele>
        <time>2021-05-01T04:41:16.278Z</time>
      </trkpt>
      <trkpt lat="43.88805" lon="2.46086">
        <ele>613.122945</ele>
        <time>2021-05-01T04:41:18.677Z</time>
      </trkpt>
      <trkpt lat="43.88814" lon="2.46052">
        <ele>612.96209</ele>
        <time>2021-05-01T04:41:23.521Z</time>
      </trkpt>
      <trkpt lat="43.8884" lon="2.45946">
        <ele>612.458305</ele>
        <time>2021-05-01T04:41:39.485Z</time>
      </trkpt>
      <trkpt lat="43.88859" lon="2.45873">
        <ele>612.112315</ele>
        <time>2021-05-01T04:41:51.286Z</time>
      </trkpt>
      <trkpt lat="43.8886" lon="2.45855">
        <ele>612.238092</ele>
        <time>2021-05-01T04:41:54.166Z</time>
      </trkpt>
      <trkpt lat="43.88861" lon="2.45811">
        <ele>612.969238</ele>
        <time>2021-05-01T04:42:02.515Z</time>
      </trkpt>
      <trkpt lat="43.88854" lon="2.45705">
        <ele>614.718106</ele>
        <time>2021-05-01T04:42:25.975Z</time>
      </trkpt>
      <trkpt lat="43.88854" lon="2.45699">
        <ele>614.827612</ele>
        <time>2021-05-01T04:42:28.041Z</time>
      </trkpt>
      <trkpt lat="43.88852" lon="2.45636">
        <ele>615.867503</ele>
        <time>2021-05-01T04:42:44.228Z</time>
      </trkpt>
      <trkpt lat="43.88853" lon="2.45617">
        <ele>616.18582</ele>
        <time>2021-05-01T04:42:49.604Z</time>
      </trkpt>
      <trkpt lat="43.88854" lon="2.45604">
        <ele>616.589141</ele>
        <time>2021-05-01T04:42:53.130Z</time>
      </trkpt>
      <trkpt lat="43.88863" lon="2.45552">
        <ele>618.276763</ele>
        <time>2021-05-01T04:43:08.152Z</time>
      </trkpt>
      <trkpt lat="43.88882" lon="2.45457">
        <ele>621.406392</ele>
        <time>2021-05-01T04:43:37.580Z</time>
      </trkpt>
      <trkpt lat="43.88887" lon="2.45425">
        <ele>622.442508</ele>
        <time>2021-05-01T04:43:47.513Z</time>
      </trkpt>
      <trkpt lat="43.88883" lon="2.45341">
        <ele>624.798398</ele>
        <time>2021-05-01T04:44:11.919Z</time>
      </trkpt>
      <trkpt lat="43.88874" lon="2.45299">
        <ele>625.726095</ele>
        <time>2021-05-01T04:44:23.951Z</time>
      </trkpt>
      <trkpt lat="43.88861" lon="2.45263">
        <ele>626.59794</ele>
        <time>2021-05-01T04:44:34.937Z</time>
      </trkpt>
      <trkpt lat="43.88844" lon="2.45213">
        <ele>627.77132</ele>
        <time>2021-05-01T04:44:48.281Z</time>
      </trkpt>
      <trkpt lat="43.88829" lon="2.45172">
        <ele>628.753734</ele>
        <time>2021-05-01T04:44:58.066Z</time>
      </trkpt>
      <trkpt lat="43.88815" lon="2.4512">
        <ele>629.455893</ele>
        <time>2021-05-01T04:45:09.250Z</time>
      </trkpt>
      <trkpt lat="43.88796" lon="2.45114">
        <ele>629.439062</ele>
        <time>2021-05-01T04:45:14.334Z</time>
      </trkpt>
      <trkpt lat="43.88779" lon="2.45099">
        <ele>629.421881</ele>
        <time>2021-05-01T04:45:18.783Z</time>
      </trkpt>
      <trkpt lat="43.88749" lon="2.45058">
        <ele>629.387009</ele>
        <time>2021-05-01T04:45:27.703Z</time>
      </trkpt>
      <trkpt lat="43.88713" lon="2.44995">
        <ele>629.338164</ele>
        <time>2021-05-01T04:45:39.326Z</time>
      </trkpt>
      <trkpt lat="43.88696" lon="2.44932">
        <ele>629.150696</ele>
        <time>2021-05-01T04:45:48.682Z</time>
      </trkpt>
      <trkpt lat="43.8869" lon="2.44862">
        <ele>628.802079</ele>
        <time>2021-05-01T04:45:58.599Z</time>
      </trkpt>
      <trkpt lat="43.88696" lon="2.44609">
        <ele>627.81947</ele>
        <time>2021-05-01T04:46:36.284Z</time>
      </trkpt>
      <trkpt lat="43.88695" lon="2.44577">
        <ele>627.742119</ele>
        <time>2021-05-01T04:46:41.033Z</time>
      </trkpt>
      <trkpt lat="43.88682" lon="2.44521">
        <ele>627.598052</ele>
        <time>2021-05-01T04:46:50.134Z</time>
      </trkpt>
      <trkpt lat="43.88676" lon="2.44505">
        <ele>627.553605</ele>
        <time>2021-05-01T04:46:52.887Z</time>
      </trkpt>
      <trkpt lat="43.88672" lon="2.44496">
        <ele>627.527412</ele>
        <time>2021-05-01T04:46:54.444Z</time>
      </trkpt>
      <trkpt lat="43.88638" lon="2.44446">
        <ele>627.737452</ele>
        <time>2021-05-01T04:47:05.509Z</time>
      </trkpt>
      <trkpt lat="43.88614" lon="2.44421">
        <ele>627.974201</ele>
        <time>2021-05-01T04:47:12.229Z</time>
      </trkpt>
      <trkpt lat="43.88613" lon="2.4442">
        <ele>627.980079</ele>
        <time>2021-05-01T04:47:12.556Z</time>
      </trkpt>
      <trkpt lat="43.88541" lon="2.44382">
        <ele>628.576998</ele>
        <time>2021-05-01T04:47:32.328Z</time>
      </trkpt>
      <trkpt lat="43.88447" lon="2.44352">
        <ele>629.615544</ele>
        <time>2021-05-01T04:48:00.873Z</time>
      </trkpt>
      <trkpt lat="43.88424" lon="2.44342">
        <ele>629.923555</ele>
        <time>2021-05-01T04:48:07.936Z</time>
      </trkpt>
      <trkpt lat="43.88403" lon="2.44333">
        <ele>630.195894</ele>
        <time>2021-05-01T04:48:13.967Z</time>
      </trkpt>
      <trkpt lat="43.88344" lon="2.44281">
        <ele>631.08191</ele>
        <time>2021-05-01T04:48:32.363Z</time>
      </trkpt>
      <trkpt lat="43.88286" lon="2.44221">
        <ele>630.877881</ele>
        <time>2021-05-01T04:48:49.391Z</time>
      </trkpt>
      <trkpt lat="43.88038" lon="2.43981">
        <ele>629.467748</ele>
        <time>2021-05-01T04:49:48.144Z</time>
      </trkpt>
      <trkpt lat="43.88028" lon="2.43973">
        <ele>629.691452</ele>
        <time>2021-05-01T04:49:50.977Z</time>
      </trkpt>
      <trkpt lat="43.87901" lon="2.43874">
        <ele>632.658534</ele>
        <time>2021-05-01T04:50:38.762Z</time>
      </trkpt>
      <trkpt lat="43.87885" lon="2.43861">
        <ele>632.960215</ele>
        <time>2021-05-01T04:50:45.104Z</time>
      </trkpt>
      <trkpt lat="43.87873" lon="2.43842">
        <ele>633.115894</ele>
        <time>2021-05-01T04:50:51.248Z</time>
      </trkpt>
      <trkpt lat="43.87871" lon="2.43832">
        <ele>633.18201</ele>
        <time>2021-05-01T04:50:53.762Z</time>
      </trkpt>
      <trkpt lat="43.87867" lon="2.43807">
        <ele>633.339569</ele>
        <time>2021-05-01T04:50:59.424Z</time>
      </trkpt>
      <trkpt lat="43.87873" lon="2.43772">
        <ele>633.566866</ele>
        <time>2021-05-01T04:51:07.191Z</time>
      </trkpt>
      <trkpt lat="43.87887" lon="2.43739">
        <ele>633.79891</ele>
        <time>2021-05-01T04:51:14.548Z</time>
      </trkpt>
      <trkpt lat="43.87977" lon="2.43575">
        <ele>633.389572</ele>
        <time>2021-05-01T04:51:44.014Z</time>
      </trkpt>
      <trkpt lat="43.87986" lon="2.43539">
        <ele>632.984783</ele>
        <time>2021-05-01T04:51:48.904Z</time>
      </trkpt>
      <trkpt lat="43.87986" lon="2.43512">
        <ele>632.692587</ele>
        <time>2021-05-01T04:51:52.408Z</time>
      </trkpt>
      <trkpt lat="43.87979" lon="2.43484">
        <ele>632.378924</ele>
        <time>2021-05-01T04:51:56.151Z</time>
      </trkpt>
      <trkpt lat="43.87945" lon="2.43428">
        <ele>631.544756</ele>
        <time>2021-05-01T04:52:05.488Z</time>
      </trkpt>
      <trkpt lat="43.87915" lon="2.43353">
        <ele>630.408361</ele>
        <time>2021-05-01T04:52:16.368Z</time>
      </trkpt>
      <trkpt lat="43.87896" lon="2.43281">
        <ele>629.396142</ele>
        <time>2021-05-01T04:52:26.102Z</time>
      </trkpt>
      <trkpt lat="43.87851" lon="2.42997">
        <ele>626.190946</ele>
        <time>2021-05-01T04:53:04.687Z</time>
      </trkpt>
      <trkpt lat="43.87849" lon="2.42962">
        <ele>625.796762</ele>
        <time>2021-05-01T04:53:09.469Z</time>
      </trkpt>
      <trkpt lat="43.87854" lon="2.42931">
        <ele>625.332832</ele>
        <time>2021-05-01T04:53:14.024Z</time>
      </trkpt>
      <trkpt lat="43.87869" lon="2.42897">
        <ele>624.763731</ele>
        <time>2021-05-01T04:53:19.354Z</time>
      </trkpt>
      <trkpt lat="43.87919" lon="2.42824">
        <ele>623.306817</ele>
        <time>2021-05-01T04:53:32.622Z</time>
      </trkpt>
      <trkpt lat="43.8825" lon="2.42394">
        <ele>609.154916</ele>
        <time>2021-05-01T04:54:46.340Z</time>
      </trkpt>
      <trkpt lat="43.88275" lon="2.42347">
        <ele>607.649654</ele>
        <time>2021-05-01T04:54:53.151Z</time>
      </trkpt>
      <trkpt lat="43.88284" lon="2.42317">
        <ele>606.816163</ele>
        <time>2021-05-01T04:54:56.932Z</time>
      </trkpt>
      <trkpt lat="43.88288" lon="2.42279">
        <ele>605.851173</ele>
        <time>2021-05-01T04:55:01.297Z</time>
      </trkpt>
      <trkpt lat="43.88286" lon="2.42244">
        <ele>604.956724</ele>
        <time>2021-05-01T04:55:05.351Z</time>
      </trkpt>
      <trkpt lat="43.88278" lon="2.42212">
        <ele>604.023733</ele>
        <time>2021-05-01T04:55:09.249Z</time>
      </trkpt>
      <trkpt lat="43.88216" lon="2.42069">
        <ele>598.558756</ele>
        <time>2021-05-01T04:55:28.045Z</time>
      </trkpt>
      <trkpt lat="43.88187" lon="2.41946">
        <ele>593.752683</ele>
        <time>2021-05-01T04:55:41.954Z</time>
      </trkpt>
      <trkpt lat="43.88174" lon="2.4192">
        <ele>592.362176</ele>
        <time>2021-05-01T04:55:45.354Z</time>
      </trkpt>
      <trkpt lat="43.88133" lon="2.41874">
        <ele>589.221832</ele>
        <time>2021-05-01T04:55:52.965Z</time>
      </trkpt>
      <trkpt lat="43.88047" lon="2.41838">
        <ele>584.227457</ele>
        <time>2021-05-01T04:56:05.964Z</time>
      </trkpt>
      <trkpt lat="43.88028" lon="2.41824">
        <ele>583.26494</ele>
        <time>2021-05-01T04:56:09.139Z</time>
      </trkpt>
      <trkpt lat="43.88015" lon="2.41802">
        <ele>582.333198</ele>
        <time>2021-05-01T04:56:12.241Z</time>
      </trkpt>
      <trkpt lat="43.88004" lon="2.41751">
        <ele>580.61085</ele>
        <time>2021-05-01T04:56:18.110Z</time>
      </trkpt>
      <trkpt lat="43.88015" lon="2.41672">
        <ele>578.025804</ele>
        <time>2021-05-01T04:56:27.228Z</time>
      </trkpt>
      <trkpt lat="43.88069" lon="2.41277">
        <ele>574.384358</ele>
        <time>2021-05-01T04:57:21.689Z</time>
      </trkpt>
      <trkpt lat="43.88072" lon="2.41257">
        <ele>574.350244</ele>
        <time>2021-05-01T04:57:25.190Z</time>
      </trkpt>
      <trkpt lat="43.88081" lon="2.41173">
        <ele>574.209409</ele>
        <time>2021-05-01T04:57:40.733Z</time>
      </trkpt>
      <trkpt lat="43.88079" lon="2.4114">
        <ele>574.362804</ele>
        <time>2021-05-01T04:57:47.467Z</time>
      </trkpt>
      <trkpt lat="43.88075" lon="2.41113">
        <ele>574.603916</ele>
        <time>2021-05-01T04:57:52.660Z</time>
      </trkpt>
      <trkpt lat="43.88063" lon="2.41082">
        <ele>574.921334</ele>
        <time>2021-05-01T04:57:59.912Z</time>
      </trkpt>
      <trkpt lat="43.88016" lon="2.41005">
        <ele>575.820043</ele>
        <time>2021-05-01T04:58:20.777Z</time>
      </trkpt>
      <trkpt lat="43.88005" lon="2.40977">
        <ele>576.095361</ele>
        <time>2021-05-01T04:58:27.276Z</time>
      </trkpt>
      <trkpt lat="43.88001" lon="2.40948">
        <ele>576.357452</ele>
        <time>2021-05-01T04:58:32.816Z</time>
      </trkpt>
      <trkpt lat="43.8801" lon="2.40903">
        <ele>576.308753</ele>
        <time>2021-05-01T04:58:41.072Z</time>
      </trkpt>
      <trkpt lat="43.88047" lon="2.40859">
        <ele>576.157688</ele>
        <time>2021-05-01T04:58:52.172Z</time>
      </trkpt>
      <trkpt lat="43.88219" lon="2.40746">
        <ele>574.74345</ele>
        <time>2021-05-01T04:59:29.087Z</time>
      </trkpt>
      <trkpt lat="43.88278" lon="2.40695">
        <ele>573.89138</ele>
        <time>2021-05-01T04:59:41.739Z</time>
      </trkpt>
      <trkpt lat="43.88288" lon="2.4068">
        <ele>573.704509</ele>
        <time>2021-05-01T04:59:44.495Z</time>
      </trkpt>
      <trkpt lat="43.88315" lon="2.4064">
        <ele>573.091419</ele>
        <time>2021-05-01T04:59:51.683Z</time>
      </trkpt>
      <trkpt lat="43.88342" lon="2.40555">
        <ele>571.998686</ele>
        <time>2021-05-01T05:00:04.028Z</time>
      </trkpt>
      <trkpt lat="43.88351" lon="2.40388">
        <ele>569.847632</ele>
        <time>2021-05-01T05:00:25.666Z</time>
      </trkpt>
      <trkpt lat="43.88365" lon="2.40343">
        <ele>569.08479</ele>
        <time>2021-05-01T05:00:32.174Z</time>
      </trkpt>
      <trkpt lat="43.88428" lon="2.40295">
        <ele>567.558657</ele>
        <time>2021-05-01T05:00:44.476Z</time>
      </trkpt>
      <trkpt lat="43.88456" lon="2.40252">
        <ele>566.653848</ele>
        <time>2021-05-01T05:00:51.578Z</time>
      </trkpt>
      <trkpt lat="43.88465" lon="2.40182">
        <ele>565.545047</ele>
        <time>2021-05-01T05:01:00.341Z</time>
      </trkpt>
      <trkpt lat="43.88464" lon="2.40155">
        <ele>565.11005</ele>
        <time>2021-05-01T05:01:03.672Z</time>
      </trkpt>
      <trkpt lat="43.88462" lon="2.40101">
        <ele>564.265226</ele>
        <time>2021-05-01T05:01:10.390Z</time>
      </trkpt>
      <trkpt lat="43.88481" lon="2.39902">
        <ele>562.027444</ele>
        <time>2021-05-01T05:01:36.710Z</time>
      </trkpt>
      <trkpt lat="43.88515" lon="2.3981">
        <ele>561.197168</ele>
        <time>2021-05-01T05:01:51.934Z</time>
      </trkpt>
      <trkpt lat="43.88516" lon="2.39767">
        <ele>560.780923</ele>
        <time>2021-05-01T05:01:58.158Z</time>
      </trkpt>
      <trkpt lat="43.88505" lon="2.39724">
        <ele>560.197893</ele>
        <time>2021-05-01T05:02:04.645Z</time>
      </trkpt>
      <trkpt lat="43.88462" lon="2.39644">
        <ele>558.941688</ele>
        <time>2021-05-01T05:02:17.731Z</time>
      </trkpt>
      <trkpt lat="43.88459" lon="2.39637">
        <ele>558.827582</ele>
        <time>2021-05-01T05:02:18.742Z</time>
      </trkpt>
      <trkpt lat="43.88437" lon="2.39566">
        <ele>557.850062</ele>
        <time>2021-05-01T05:02:28.441Z</time>
      </trkpt>
      <trkpt lat="43.88432" lon="2.3942">
        <ele>554.794578</ele>
        <time>2021-05-01T05:02:45.586Z</time>
      </trkpt>
      <trkpt lat="43.88414" lon="2.39388">
        <ele>553.921294</ele>
        <time>2021-05-01T05:02:50.466Z</time>
      </trkpt>
      <trkpt lat="43.8834" lon="2.39358">
        <ele>552.12317</ele>
        <time>2021-05-01T05:03:03.201Z</time>
      </trkpt>
      <trkpt lat="43.88299" lon="2.39326">
        <ele>551.474878</ele>
        <time>2021-05-01T05:03:11.344Z</time>
      </trkpt>
      <trkpt lat="43.88262" lon="2.39265">
        <ele>550.680135</ele>
        <time>2021-05-01T05:03:21.852Z</time>
      </trkpt>
      <trkpt lat="43.88178" lon="2.3905">
        <ele>551.26716</ele>
        <time>2021-05-01T05:04:04.916Z</time>
      </trkpt>
      <trkpt lat="43.88143" lon="2.39008">
        <ele>551.696628</ele>
        <time>2021-05-01T05:04:18.832Z</time>
      </trkpt>
      <trkpt lat="43.88107" lon="2.38974">
        <ele>552.639657</ele>
        <time>2021-05-01T05:04:32.332Z</time>
      </trkpt>
      <trkpt lat="43.88062" lon="2.38935">
        <ele>553.873251</ele>
        <time>2021-05-01T05:04:49.366Z</time>
      </trkpt>
      <trkpt lat="43.88004" lon="2.38865">
        <ele>555.632403</ele>
        <time>2021-05-01T05:05:14.154Z</time>
      </trkpt>
      <trkpt lat="43.87968" lon="2.38789">
        <ele>556.516591</ele>
        <time>2021-05-01T05:05:34.464Z</time>
      </trkpt>
      <trkpt lat="43.87949" lon="2.3871">
        <ele>557.216278</ele>
        <time>2021-05-01T05:05:51.007Z</time>
      </trkpt>
      <trkpt lat="43.87925" lon="2.38596">
        <ele>557.854882</ele>
        <time>2021-05-01T05:06:11.165Z</time>
      </trkpt>
      <trkpt lat="43.87874" lon="2.38359">
        <ele>557.315587</ele>
        <time>2021-05-01T05:06:45.745Z</time>
      </trkpt>
      <trkpt lat="43.87841" lon="2.38286">
        <ele>558.44727</ele>
        <time>2021-05-01T05:07:02.166Z</time>
      </trkpt>
      <trkpt lat="43.87801" lon="2.38225">
        <ele>559.533238</ele>
        <time>2021-05-01T05:07:22.268Z</time>
      </trkpt>
      <trkpt lat="43.87763" lon="2.38176">
        <ele>560.522504</ele>
        <time>2021-05-01T05:07:41.252Z</time>
      </trkpt>
      <trkpt lat="43.87706" lon="2.38086">
        <ele>562.358487</ele>
        <time>2021-05-01T05:08:12.432Z</time>
      </trkpt>
      <trkpt lat="43.87616" lon="2.3794">
        <ele>562.609774</ele>
        <time>2021-05-01T05:08:46.815Z</time>
      </trkpt>
      <trkpt lat="43.87581" lon="2.37901">
        <ele>561.513132</ele>
        <time>2021-05-01T05:08:54.041Z</time>
      </trkpt>
      <trkpt lat="43.87553" lon="2.37879">
        <ele>560.724673</ele>
        <time>2021-05-01T05:08:59.019Z</time>
      </trkpt>
      <trkpt lat="43.8752" lon="2.37862">
        <ele>559.84757</ele>
        <time>2021-05-01T05:09:04.527Z</time>
      </trkpt>
      <trkpt lat="43.87475" lon="2.3785">
        <ele>558.032415</ele>
        <time>2021-05-01T05:09:11.397Z</time>
      </trkpt>
      <trkpt lat="43.87459" lon="2.37849">
        <ele>557.30669</ele>
        <time>2021-05-01T05:09:13.848Z</time>
      </trkpt>
      <trkpt lat="43.87431" lon="2.37845">
        <ele>556.07927</ele>
        <time>2021-05-01T05:09:18.085Z</time>
      </trkpt>
      <trkpt lat="43.87411" lon="2.37839">
        <ele>555.141763</ele>
        <time>2021-05-01T05:09:21.372Z</time>
      </trkpt>
      <trkpt lat="43.87388" lon="2.37824">
        <ele>554.021498</ele>
        <time>2021-05-01T05:09:25.257Z</time>
      </trkpt>
      <trkpt lat="43.87369" lon="2.37804">
        <ele>552.964744</ele>
        <time>2021-05-01T05:09:28.986Z</time>
      </trkpt>
      <trkpt lat="43.87347" lon="2.37771">
        <ele>551.596725</ele>
        <time>2021-05-01T05:09:33.991Z</time>
      </trkpt>
      <trkpt lat="43.87327" lon="2.3773">
        <ele>550.510745</ele>
        <time>2021-05-01T05:09:39.615Z</time>
      </trkpt>
      <trkpt lat="43.8731" lon="2.37686">
        <ele>549.403411</ele>
        <time>2021-05-01T05:09:45.814Z</time>
      </trkpt>
      <trkpt lat="43.87296" lon="2.37622">
        <ele>547.939186</ele>
        <time>2021-05-01T05:09:54.012Z</time>
      </trkpt>
      <trkpt lat="43.87275" lon="2.37458">
        <ele>543.693266</ele>
        <time>2021-05-01T05:10:13.901Z</time>
      </trkpt>
      <trkpt lat="43.87273" lon="2.37436">
        <ele>543.056958</ele>
        <time>2021-05-01T05:10:16.404Z</time>
      </trkpt>
      <trkpt lat="43.87235" lon="2.37148">
        <ele>533.743393</ele>
        <time>2021-05-01T05:10:48.771Z</time>
      </trkpt>
      <trkpt lat="43.87228" lon="2.37077">
        <ele>531.268559</ele>
        <time>2021-05-01T05:10:56.642Z</time>
      </trkpt>
      <trkpt lat="43.87206" lon="2.37042">
        <ele>529.835368</ele>
        <time>2021-05-01T05:11:01.599Z</time>
      </trkpt>
      <trkpt lat="43.87175" lon="2.37041">
        <ele>528.607443</ele>
        <time>2021-05-01T05:11:06.332Z</time>
      </trkpt>
      <trkpt lat="43.8711" lon="2.37082">
        <ele>525.771261</ele>
        <time>2021-05-01T05:11:17.499Z</time>
      </trkpt>
      <trkpt lat="43.87073" lon="2.37091">
        <ele>524.2691</ele>
        <time>2021-05-01T05:11:23.557Z</time>
      </trkpt>
      <trkpt lat="43.87027" lon="2.3709">
        <ele>522.934855</ele>
        <time>2021-05-01T05:11:31.090Z</time>
      </trkpt>
      <trkpt lat="43.86901" lon="2.37063">
        <ele>520.724246</ele>
        <time>2021-05-01T05:11:53.956Z</time>
      </trkpt>
      <trkpt lat="43.86753" lon="2.37023">
        <ele>520.170162</ele>
        <time>2021-05-01T05:12:26.212Z</time>
      </trkpt>
      <trkpt lat="43.86723" lon="2.37001">
        <ele>520.16249</ele>
        <time>2021-05-01T05:12:34.312Z</time>
      </trkpt>
      <trkpt lat="43.86696" lon="2.36955">
        <ele>520.29219</ele>
        <time>2021-05-01T05:12:44.701Z</time>
      </trkpt>
      <trkpt lat="43.86685" lon="2.36926">
        <ele>520.487891</ele>
        <time>2021-05-01T05:12:50.497Z</time>
      </trkpt>
      <trkpt lat="43.86599" lon="2.36581">
        <ele>523.130495</ele>
        <time>2021-05-01T05:13:59.148Z</time>
      </trkpt>
      <trkpt lat="43.8658" lon="2.36479">
        <ele>524.009071</ele>
        <time>2021-05-01T05:14:21.567Z</time>
      </trkpt>
      <trkpt lat="43.86562" lon="2.36421">
        <ele>524.445101</ele>
        <time>2021-05-01T05:14:34.332Z</time>
      </trkpt>
      <trkpt lat="43.86554" lon="2.36402">
        <ele>524.596518</ele>
        <time>2021-05-01T05:14:38.949Z</time>
      </trkpt>
      <trkpt lat="43.86541" lon="2.36357">
        <ele>524.934406</ele>
        <time>2021-05-01T05:14:48.382Z</time>
      </trkpt>
      <trkpt lat="43.86519" lon="2.36336">
        <ele>525.194662</ele>
        <time>2021-05-01T05:14:55.063Z</time>
      </trkpt>
      <trkpt lat="43.86437" lon="2.3629">
        <ele>524.772384</ele>
        <time>2021-05-01T05:15:14.172Z</time>
      </trkpt>
      <trkpt lat="43.86425" lon="2.36277">
        <ele>524.536354</ele>
        <time>2021-05-01T05:15:17.195Z</time>
      </trkpt>
      <trkpt lat="43.86397" lon="2.36243">
        <ele>523.972592</ele>
        <time>2021-05-01T05:15:23.934Z</time>
      </trkpt>
      <trkpt lat="43.86369" lon="2.3616">
        <ele>522.970873</ele>
        <time>2021-05-01T05:15:35.252Z</time>
      </trkpt>
      <trkpt lat="43.86346" lon="2.36067">
        <ele>520.612997</ele>
        <time>2021-05-01T05:15:46.949Z</time>
      </trkpt>
      <trkpt lat="43.86339" lon="2.36002">
        <ele>518.899032</ele>
        <time>2021-05-01T05:15:54.551Z</time>
      </trkpt>
      <trkpt lat="43.86349" lon="2.35939">
        <ele>517.241362</ele>
        <time>2021-05-01T05:16:01.860Z</time>
      </trkpt>
      <trkpt lat="43.86462" lon="2.35658">
        <ele>506.75084</ele>
        <time>2021-05-01T05:16:37.551Z</time>
      </trkpt>
      <trkpt lat="43.86497" lon="2.35544">
        <ele>502.354853</ele>
        <time>2021-05-01T05:16:51.004Z</time>
      </trkpt>
      <trkpt lat="43.86539" lon="2.3534">
        <ele>495.707432</ele>
        <time>2021-05-01T05:17:14.251Z</time>
      </trkpt>
      <trkpt lat="43.8655" lon="2.35269">
        <ele>493.615813</ele>
        <time>2021-05-01T05:17:22.756Z</time>
      </trkpt>
      <trkpt lat="43.86552" lon="2.35247">
        <ele>492.999162</ele>
        <time>2021-05-01T05:17:25.319Z</time>
      </trkpt>
      <trkpt lat="43.86549" lon="2.35166">
        <ele>491.072575</ele>
        <time>2021-05-01T05:17:35.176Z</time>
      </trkpt>
      <trkpt lat="43.86526" lon="2.35051">
        <ele>488.630092</ele>
        <time>2021-05-01T05:17:50.151Z</time>
      </trkpt>
      <trkpt lat="43.86483" lon="2.34884">
        <ele>483.327032</ele>
        <time>2021-05-01T05:18:10.574Z</time>
      </trkpt>
      <trkpt lat="43.86475" lon="2.34857">
        <ele>482.264125</ele>
        <time>2021-05-01T05:18:13.666Z</time>
      </trkpt>
      <trkpt lat="43.86452" lon="2.34811">
        <ele>480.162909</ele>
        <time>2021-05-01T05:18:19.689Z</time>
      </trkpt>
      <trkpt lat="43.86415" lon="2.3477">
        <ele>477.727186</ele>
        <time>2021-05-01T05:18:26.527Z</time>
      </trkpt>
      <trkpt lat="43.86397" lon="2.34736">
        <ele>475.877161</ele>
        <time>2021-05-01T05:18:30.909Z</time>
      </trkpt>
      <trkpt lat="43.86392" lon="2.34703">
        <ele>474.408118</ele>
        <time>2021-05-01T05:18:34.356Z</time>
      </trkpt>
      <trkpt lat="43.8639" lon="2.34578">
        <ele>468.94966</ele>
        <time>2021-05-01T05:18:47.404Z</time>
      </trkpt>
      <trkpt lat="43.86324" lon="2.342">
        <ele>457.145383</ele>
        <time>2021-05-01T05:19:30.723Z</time>
      </trkpt>
      <trkpt lat="43.86301" lon="2.34147">
        <ele>456.120251</ele>
        <time>2021-05-01T05:19:38.657Z</time>
      </trkpt>
      <trkpt lat="43.86262" lon="2.341">
        <ele>454.938742</ele>
        <time>2021-05-01T05:19:48.436Z</time>
      </trkpt>
      <trkpt lat="43.86111" lon="2.34014">
        <ele>455.246842</ele>
        <time>2021-05-01T05:20:27.744Z</time>
      </trkpt>
      <trkpt lat="43.86088" lon="2.33984">
        <ele>455.404663</ele>
        <time>2021-05-01T05:20:36.144Z</time>
      </trkpt>
      <trkpt lat="43.86068" lon="2.33932">
        <ele>455.880415</ele>
        <time>2021-05-01T05:20:47.849Z</time>
      </trkpt>
      <trkpt lat="43.86038" lon="2.33824">
        <ele>456.870446</ele>
        <time>2021-05-01T05:21:11.391Z</time>
      </trkpt>
      <trkpt lat="43.8597" lon="2.33668">
        <ele>457.582466</ele>
        <time>2021-05-01T05:21:45.060Z</time>
      </trkpt>
      <trkpt lat="43.85962" lon="2.33575">
        <ele>457.605402</ele>
        <time>2021-05-01T05:21:59.888Z</time>
      </trkpt>
      <trkpt lat="43.85957" lon="2.33541">
        <ele>457.613973</ele>
        <time>2021-05-01T05:22:05.070Z</time>
      </trkpt>
      <trkpt lat="43.85945" lon="2.33503">
        <ele>457.319982</ele>
        <time>2021-05-01T05:22:10.997Z</time>
      </trkpt>
      <trkpt lat="43.85877" lon="2.33308">
        <ele>454.455157</ele>
        <time>2021-05-01T05:22:38.768Z</time>
      </trkpt>
      <trkpt lat="43.85806" lon="2.33031">
        <ele>448.549765</ele>
        <time>2021-05-01T05:23:13.502Z</time>
      </trkpt>
      <trkpt lat="43.85738" lon="2.32946">
        <ele>446.939108</ele>
        <time>2021-05-01T05:23:29.312Z</time>
      </trkpt>
      <trkpt lat="43.85723" lon="2.32902">
        <ele>446.316306</ele>
        <time>2021-05-01T05:23:36.364Z</time>
      </trkpt>
      <trkpt lat="43.85713" lon="2.32822">
        <ele>445.812824</ele>
        <time>2021-05-01T05:23:48.914Z</time>
      </trkpt>
      <trkpt lat="43.85698" lon="2.32722">
        <ele>445.789414</ele>
        <time>2021-05-01T05:24:06.604Z</time>
      </trkpt>
      <trkpt lat="43.85697" lon="2.32716">
        <ele>445.787909</ele>
        <time>2021-05-01T05:24:07.856Z</time>
      </trkpt>
      <trkpt lat="43.85644" lon="2.32289">
        <ele>443.625478</ele>
        <time>2021-05-01T05:25:13.762Z</time>
      </trkpt>
      <trkpt lat="43.85626" lon="2.32193">
        <ele>441.847751</ele>
        <time>2021-05-01T05:25:25.623Z</time>
      </trkpt>
      <trkpt lat="43.85606" lon="2.3211">
        <ele>439.949718</ele>
        <time>2021-05-01T05:25:35.500Z</time>
      </trkpt>
      <trkpt lat="43.85582" lon="2.32038">
        <ele>437.293908</ele>
        <time>2021-05-01T05:25:44.166Z</time>
      </trkpt>
      <trkpt lat="43.85546" lon="2.31929">
        <ele>433.271113</ele>
        <time>2021-05-01T05:25:57.412Z</time>
      </trkpt>
      <trkpt lat="43.85521" lon="2.31856">
        <ele>430.751076</ele>
        <time>2021-05-01T05:26:06.252Z</time>
      </trkpt>
      <trkpt lat="43.85491" lon="2.31778">
        <ele>428.05575</ele>
        <time>2021-05-01T05:26:16.138Z</time>
      </trkpt>
      <trkpt lat="43.85433" lon="2.31661">
        <ele>424.242459</ele>
        <time>2021-05-01T05:26:32.306Z</time>
      </trkpt>
      <trkpt lat="43.8536" lon="2.31545">
        <ele>421.78487</ele>
        <time>2021-05-01T05:26:51.124Z</time>
      </trkpt>
      <trkpt lat="43.85258" lon="2.31418">
        <ele>420.904896</ele>
        <time>2021-05-01T05:27:19.553Z</time>
      </trkpt>
      <trkpt lat="43.85059" lon="2.31195">
        <ele>421.831226</ele>
        <time>2021-05-01T05:28:25.888Z</time>
      </trkpt>
      <trkpt lat="43.84771" lon="2.30872">
        <ele>415.383234</ele>
        <time>2021-05-01T05:29:31.357Z</time>
      </trkpt>
      <trkpt lat="43.84591" lon="2.30668">
        <ele>411.078076</ele>
        <time>2021-05-01T05:30:12.255Z</time>
      </trkpt>
      <trkpt lat="43.84491" lon="2.30557">
        <ele>409.33697</ele>
        <time>2021-05-01T05:30:36.545Z</time>
      </trkpt>
      <trkpt lat="43.84443" lon="2.305">
        <ele>408.723632</ele>
        <time>2021-05-01T05:30:49.024Z</time>
      </trkpt>
      <trkpt lat="43.84397" lon="2.30443">
        <ele>408.134458</ele>
        <time>2021-05-01T05:31:00.891Z</time>
      </trkpt>
      <trkpt lat="43.84338" lon="2.30343">
        <ele>407.175706</ele>
        <time>2021-05-01T05:31:18.991Z</time>
      </trkpt>
      <trkpt lat="43.84221" lon="2.30091">
        <ele>404.592417</ele>
        <time>2021-05-01T05:32:00.357Z</time>
      </trkpt>
      <trkpt lat="43.84174" lon="2.2999">
        <ele>403.388382</ele>
        <time>2021-05-01T05:32:16.644Z</time>
      </trkpt>
      <trkpt lat="43.84089" lon="2.29807">
        <ele>399.559076</ele>
        <time>2021-05-01T05:32:43.659Z</time>
      </trkpt>
      <trkpt lat="43.84034" lon="2.29688">
        <ele>396.6042</ele>
        <time>2021-05-01T05:32:59.825Z</time>
      </trkpt>
      <trkpt lat="43.8401" lon="2.29638">
        <ele>395.233934</ele>
        <time>2021-05-01T05:33:06.673Z</time>
      </trkpt>
      <trkpt lat="43.83967" lon="2.29582">
        <ele>393.37545</ele>
        <time>2021-05-01T05:33:16.404Z</time>
      </trkpt>
      <trkpt lat="43.83926" lon="2.29543">
        <ele>392.807249</ele>
        <time>2021-05-01T05:33:25.159Z</time>
      </trkpt>
      <trkpt lat="43.83896" lon="2.29527">
        <ele>392.790218</ele>
        <time>2021-05-01T05:33:31.450Z</time>
      </trkpt>
      <trkpt lat="43.83868" lon="2.29516">
        <ele>392.775361</ele>
        <time>2021-05-01T05:33:37.744Z</time>
      </trkpt>
      <trkpt lat="43.83678" lon="2.29483">
        <ele>393.763605</ele>
        <time>2021-05-01T05:34:30.691Z</time>
      </trkpt>
      <trkpt lat="43.83617" lon="2.29457">
        <ele>394.39322</ele>
        <time>2021-05-01T05:34:47.083Z</time>
      </trkpt>
      <trkpt lat="43.83573" lon="2.29406">
        <ele>394.191546</ele>
        <time>2021-05-01T05:34:59.921Z</time>
      </trkpt>
      <trkpt lat="43.83557" lon="2.29371">
        <ele>394.000216</ele>
        <time>2021-05-01T05:35:05.944Z</time>
      </trkpt>
      <trkpt lat="43.83537" lon="2.29306">
        <ele>393.668675</ele>
        <time>2021-05-01T05:35:15.790Z</time>
      </trkpt>
      <trkpt lat="43.83521" lon="2.29268">
        <ele>393.461564</ele>
        <time>2021-05-01T05:35:21.791Z</time>
      </trkpt>
      <trkpt lat="43.83491" lon="2.29222">
        <ele>393.091128</ele>
        <time>2021-05-01T05:35:30.155Z</time>
      </trkpt>
      <trkpt lat="43.83435" lon="2.29162">
        <ele>392.39648</ele>
        <time>2021-05-01T05:35:43.597Z</time>
      </trkpt>
      <trkpt lat="43.83297" lon="2.29045">
        <ele>390.767872</ele>
        <time>2021-05-01T05:36:15.632Z</time>
      </trkpt>
      <trkpt lat="43.83249" lon="2.29002">
        <ele>390.168663</ele>
        <time>2021-05-01T05:36:26.718Z</time>
      </trkpt>
      <trkpt lat="43.83243" lon="2.28994">
        <ele>390.07761</ele>
        <time>2021-05-01T05:36:28.385Z</time>
      </trkpt>
      <trkpt lat="43.83224" lon="2.28972">
        <ele>389.817265</ele>
        <time>2021-05-01T05:36:33.015Z</time>
      </trkpt>
      <trkpt lat="43.83199" lon="2.28917">
        <ele>388.989965</ele>
        <time>2021-05-01T05:36:41.583Z</time>
      </trkpt>
      <trkpt lat="43.8317" lon="2.2852">
        <ele>382.623045</ele>
        <time>2021-05-01T05:37:31.402Z</time>
      </trkpt>
      <trkpt lat="43.83162" lon="2.28442">
        <ele>381.340747</ele>
        <time>2021-05-01T05:37:40.844Z</time>
      </trkpt>
      <trkpt lat="43.8315" lon="2.28377">
        <ele>380.36605</ele>
        <time>2021-05-01T05:37:49.141Z</time>
      </trkpt>
      <trkpt lat="43.83127" lon="2.28306">
        <ele>379.248088</ele>
        <time>2021-05-01T05:37:58.825Z</time>
      </trkpt>
      <trkpt lat="43.83107" lon="2.28259">
        <ele>378.46933</ele>
        <time>2021-05-01T05:38:05.980Z</time>
      </trkpt>
      <trkpt lat="43.83079" lon="2.28208">
        <ele>378.165379</ele>
        <time>2021-05-01T05:38:15.268Z</time>
      </trkpt>
      <trkpt lat="43.8306" lon="2.28179">
        <ele>378.20645</ele>
        <time>2021-05-01T05:38:20.848Z</time>
      </trkpt>
      <trkpt lat="43.83051" lon="2.28166">
        <ele>378.224541</ele>
        <time>2021-05-01T05:38:23.954Z</time>
      </trkpt>
      <trkpt lat="43.83013" lon="2.28131">
        <ele>378.291098</ele>
        <time>2021-05-01T05:38:34.755Z</time>
      </trkpt>
      <trkpt lat="43.82984" lon="2.28122">
        <ele>378.334758</ele>
        <time>2021-05-01T05:38:42.617Z</time>
      </trkpt>
      <trkpt lat="43.82954" lon="2.28127">
        <ele>378.377858</ele>
        <time>2021-05-01T05:38:50.459Z</time>
      </trkpt>
      <trkpt lat="43.82845" lon="2.28185">
        <ele>379.441964</ele>
        <time>2021-05-01T05:39:21.430Z</time>
      </trkpt>
      <trkpt lat="43.82794" lon="2.28192">
        <ele>379.92623</ele>
        <time>2021-05-01T05:39:34.499Z</time>
      </trkpt>
      <trkpt lat="43.82752" lon="2.28187">
        <ele>380.213703</ele>
        <time>2021-05-01T05:39:44.924Z</time>
      </trkpt>
      <trkpt lat="43.82637" lon="2.28152">
        <ele>380.839137</ele>
        <time>2021-05-01T05:40:13.545Z</time>
      </trkpt>
      <trkpt lat="43.82578" lon="2.28143">
        <ele>381.040845</ele>
        <time>2021-05-01T05:40:27.914Z</time>
      </trkpt>
      <trkpt lat="43.82519" lon="2.28147">
        <ele>381.076082</ele>
        <time>2021-05-01T05:40:42.047Z</time>
      </trkpt>
      <trkpt lat="43.82485" lon="2.28155">
        <ele>381.097316</ele>
        <time>2021-05-01T05:40:49.991Z</time>
      </trkpt>
      <trkpt lat="43.82404" lon="2.28173">
        <ele>380.846464</ele>
        <time>2021-05-01T05:41:07.045Z</time>
      </trkpt>
      <trkpt lat="43.82375" lon="2.2817">
        <ele>380.416684</ele>
        <time>2021-05-01T05:41:13.010Z</time>
      </trkpt>
      <trkpt lat="43.82369" lon="2.28169">
        <ele>380.334024</ele>
        <time>2021-05-01T05:41:13.960Z</time>
      </trkpt>
      <trkpt lat="43.82335" lon="2.28149">
        <ele>379.784616</ele>
        <time>2021-05-01T05:41:20.940Z</time>
      </trkpt>
      <trkpt lat="43.82243" lon="2.28074">
        <ele>378.06792</ele>
        <time>2021-05-01T05:41:39.558Z</time>
      </trkpt>
      <trkpt lat="43.82121" lon="2.27976">
        <ele>374.924836</ele>
        <time>2021-05-01T05:42:03.860Z</time>
      </trkpt>
      <trkpt lat="43.821" lon="2.2796">
        <ele>374.404913</ele>
        <time>2021-05-01T05:42:07.967Z</time>
      </trkpt>
      <trkpt lat="43.8209" lon="2.27952">
        <ele>374.154168</ele>
        <time>2021-05-01T05:42:10.001Z</time>
      </trkpt>
      <trkpt lat="43.81999" lon="2.27878">
        <ele>371.907427</ele>
        <time>2021-05-01T05:42:28.417Z</time>
      </trkpt>
      <trkpt lat="43.81952" lon="2.2784">
        <ele>370.763415</ele>
        <time>2021-05-01T05:42:37.846Z</time>
      </trkpt>
      <trkpt lat="43.81867" lon="2.27747">
        <ele>368.563223</ele>
        <time>2021-05-01T05:42:56.703Z</time>
      </trkpt>
      <trkpt lat="43.81792" lon="2.27635">
        <ele>366.645971</ele>
        <time>2021-05-01T05:43:16.370Z</time>
      </trkpt>
      <trkpt lat="43.81738" lon="2.2757">
        <ele>365.875708</ele>
        <time>2021-05-01T05:43:29.794Z</time>
      </trkpt>
      <trkpt lat="43.81698" lon="2.2754">
        <ele>365.383504</ele>
        <time>2021-05-01T05:43:38.738Z</time>
      </trkpt>
      <trkpt lat="43.81653" lon="2.27523">
        <ele>365.166323</ele>
        <time>2021-05-01T05:43:48.418Z</time>
      </trkpt>
      <trkpt lat="43.81617" lon="2.27525">
        <ele>365.370986</ele>
        <time>2021-05-01T05:43:56.268Z</time>
      </trkpt>
      <trkpt lat="43.81583" lon="2.27531">
        <ele>365.561536</ele>
        <time>2021-05-01T05:44:04.099Z</time>
      </trkpt>
      <trkpt lat="43.81488" lon="2.27572">
        <ele>366.235139</ele>
        <time>2021-05-01T05:44:30.186Z</time>
      </trkpt>
      <trkpt lat="43.81245" lon="2.27716">
        <ele>371.873528</ele>
        <time>2021-05-01T05:45:54.026Z</time>
      </trkpt>
      <trkpt lat="43.81165" lon="2.27755">
        <ele>373.656213</ele>
        <time>2021-05-01T05:46:19.439Z</time>
      </trkpt>
      <trkpt lat="43.81103" lon="2.27768">
        <ele>374.330037</ele>
        <time>2021-05-01T05:46:36.966Z</time>
      </trkpt>
      <trkpt lat="43.8104" lon="2.27755">
        <ele>374.991771</ele>
        <time>2021-05-01T05:46:53.862Z</time>
      </trkpt>
      <trkpt lat="43.81034" lon="2.27753">
        <ele>375.057684</ele>
        <time>2021-05-01T05:46:55.603Z</time>
      </trkpt>
      <trkpt lat="43.80948" lon="2.27712">
        <ele>375.373648</ele>
        <time>2021-05-01T05:47:17.117Z</time>
      </trkpt>
      <trkpt lat="43.80902" lon="2.27683">
        <ele>375.117044</ele>
        <time>2021-05-01T05:47:28.396Z</time>
      </trkpt>
      <trkpt lat="43.80845" lon="2.27621">
        <ele>374.749145</ele>
        <time>2021-05-01T05:47:42.769Z</time>
      </trkpt>
      <trkpt lat="43.80804" lon="2.27548">
        <ele>373.395602</ele>
        <time>2021-05-01T05:47:54.461Z</time>
      </trkpt>
      <trkpt lat="43.80712" lon="2.27259">
        <ele>368.248408</ele>
        <time>2021-05-01T05:48:32.231Z</time>
      </trkpt>
      <trkpt lat="43.80698" lon="2.27231">
        <ele>367.789859</ele>
        <time>2021-05-01T05:48:36.672Z</time>
      </trkpt>
      <trkpt lat="43.80686" lon="2.2721">
        <ele>367.421441</ele>
        <time>2021-05-01T05:48:40.691Z</time>
      </trkpt>
      <trkpt lat="43.80625" lon="2.27137">
        <ele>366.975157</ele>
        <time>2021-05-01T05:48:57.928Z</time>
      </trkpt>
      <trkpt lat="43.80589" lon="2.27109">
        <ele>367.219105</ele>
        <time>2021-05-01T05:49:08.491Z</time>
      </trkpt>
      <trkpt lat="43.80585" lon="2.27107">
        <ele>367.242028</ele>
        <time>2021-05-01T05:49:09.805Z</time>
      </trkpt>
      <trkpt lat="43.80438" lon="2.27009">
        <ele>367.596329</ele>
        <time>2021-05-01T05:49:52.452Z</time>
      </trkpt>
      <trkpt lat="43.80389" lon="2.26977">
        <ele>367.46162</ele>
        <time>2021-05-01T05:50:02.956Z</time>
      </trkpt>
      <trkpt lat="43.80363" lon="2.2696">
        <ele>367.390309</ele>
        <time>2021-05-01T05:50:08.210Z</time>
      </trkpt>
      <trkpt lat="43.80236" lon="2.26878">
        <ele>366.450419</ele>
        <time>2021-05-01T05:50:34.816Z</time>
      </trkpt>
      <trkpt lat="43.8016" lon="2.26821">
        <ele>365.952296</ele>
        <time>2021-05-01T05:50:53.201Z</time>
      </trkpt>
      <trkpt lat="43.80089" lon="2.26749">
        <ele>365.940764</ele>
        <time>2021-05-01T05:51:14.621Z</time>
      </trkpt>
      <trkpt lat="43.80053" lon="2.26697">
        <ele>365.934002</ele>
        <time>2021-05-01T05:51:26.396Z</time>
      </trkpt>
      <trkpt lat="43.80028" lon="2.26651">
        <ele>365.477283</ele>
        <time>2021-05-01T05:51:34.718Z</time>
      </trkpt>
      <trkpt lat="43.8001" lon="2.26602">
        <ele>364.705553</ele>
        <time>2021-05-01T05:51:42.061Z</time>
      </trkpt>
      <trkpt lat="43.79993" lon="2.26548">
        <ele>363.889948</ele>
        <time>2021-05-01T05:51:49.673Z</time>
      </trkpt>
      <trkpt lat="43.79983" lon="2.26502">
        <ele>363.224376</ele>
        <time>2021-05-01T05:51:55.686Z</time>
      </trkpt>
      <trkpt lat="43.79974" lon="2.26469">
        <ele>362.727622</ele>
        <time>2021-05-01T05:51:59.859Z</time>
      </trkpt>
      <trkpt lat="43.79961" lon="2.26441">
        <ele>362.121284</ele>
        <time>2021-05-01T05:52:03.761Z</time>
      </trkpt>
      <trkpt lat="43.79956" lon="2.26432">
        <ele>361.837832</ele>
        <time>2021-05-01T05:52:05.077Z</time>
      </trkpt>
      <trkpt lat="43.79954" lon="2.26427">
        <ele>361.680864</ele>
        <time>2021-05-01T05:52:05.779Z</time>
      </trkpt>
      <trkpt lat="43.79893" lon="2.26373">
        <ele>359.166182</ele>
        <time>2021-05-01T05:52:17.185Z</time>
      </trkpt>
      <trkpt lat="43.79881" lon="2.26358">
        <ele>358.614029</ele>
        <time>2021-05-01T05:52:19.725Z</time>
      </trkpt>
      <trkpt lat="43.79873" lon="2.26344">
        <ele>358.146808</ele>
        <time>2021-05-01T05:52:21.786Z</time>
      </trkpt>
      <trkpt lat="43.79836" lon="2.26242">
        <ele>355.732247</ele>
        <time>2021-05-01T05:52:35.280Z</time>
      </trkpt>
      <trkpt lat="43.79823" lon="2.2622">
        <ele>355.379735</ele>
        <time>2021-05-01T05:52:38.549Z</time>
      </trkpt>
      <trkpt lat="43.79817" lon="2.26213">
        <ele>355.241605</ele>
        <time>2021-05-01T05:52:39.877Z</time>
      </trkpt>
      <trkpt lat="43.79799" lon="2.26193">
        <ele>354.840081</ele>
        <time>2021-05-01T05:52:43.862Z</time>
      </trkpt>
      <trkpt lat="43.79758" lon="2.26161">
        <ele>354.010479</ele>
        <time>2021-05-01T05:52:52.446Z</time>
      </trkpt>
      <trkpt lat="43.79695" lon="2.26131">
        <ele>353.148136</ele>
        <time>2021-05-01T05:53:05.775Z</time>
      </trkpt>
      <trkpt lat="43.7958" lon="2.261">
        <ele>354.169096</ele>
        <time>2021-05-01T05:53:37.319Z</time>
      </trkpt>
      <trkpt lat="43.79456" lon="2.26088">
        <ele>354.780881</ele>
        <time>2021-05-01T05:54:11.013Z</time>
      </trkpt>
      <trkpt lat="43.79423" lon="2.26075">
        <ele>354.861093</ele>
        <time>2021-05-01T05:54:19.091Z</time>
      </trkpt>
      <trkpt lat="43.79412" lon="2.26063">
        <ele>354.893348</ele>
        <time>2021-05-01T05:54:22.623Z</time>
      </trkpt>
      <trkpt lat="43.79404" lon="2.26053">
        <ele>354.917602</ele>
        <time>2021-05-01T05:54:24.613Z</time>
      </trkpt>
      <trkpt lat="43.79394" lon="2.26025">
        <ele>354.971422</ele>
        <time>2021-05-01T05:54:29.649Z</time>
      </trkpt>
      <trkpt lat="43.79387" lon="2.25962">
        <ele>354.58846</ele>
        <time>2021-05-01T05:54:38.515Z</time>
      </trkpt>
      <trkpt lat="43.79375" lon="2.25713">
        <ele>350.856688</ele>
        <time>2021-05-01T05:55:09.251Z</time>
      </trkpt>
      <trkpt lat="43.79369" lon="2.25678">
        <ele>350.429281</ele>
        <time>2021-05-01T05:55:13.541Z</time>
      </trkpt>
      <trkpt lat="43.79348" lon="2.25626">
        <ele>349.704005</ele>
        <time>2021-05-01T05:55:21.131Z</time>
      </trkpt>
      <trkpt lat="43.79329" lon="2.25595">
        <ele>349.214796</ele>
        <time>2021-05-01T05:55:26.354Z</time>
      </trkpt>
      <trkpt lat="43.79315" lon="2.25579">
        <ele>348.912929</ele>
        <time>2021-05-01T05:55:29.721Z</time>
      </trkpt>
      <trkpt lat="43.79277" lon="2.25549">
        <ele>348.199268</ele>
        <time>2021-05-01T05:55:38.299Z</time>
      </trkpt>
      <trkpt lat="43.79254" lon="2.25537">
        <ele>348.262299</ele>
        <time>2021-05-01T05:55:43.690Z</time>
      </trkpt>
      <trkpt lat="43.79168" lon="2.25511">
        <ele>348.483266</ele>
        <time>2021-05-01T05:56:04.519Z</time>
      </trkpt>
      <trkpt lat="43.79093" lon="2.25507">
        <ele>348.643671</ele>
        <time>2021-05-01T05:56:23.585Z</time>
      </trkpt>
      <trkpt lat="43.79056" lon="2.25498">
        <ele>348.626012</ele>
        <time>2021-05-01T05:56:32.588Z</time>
      </trkpt>
      <trkpt lat="43.78657" lon="2.25326">
        <ele>348.522652</ele>
        <time>2021-05-01T05:58:02.885Z</time>
      </trkpt>
      <trkpt lat="43.78628" lon="2.25313">
        <ele>348.536044</ele>
        <time>2021-05-01T05:58:10.016Z</time>
      </trkpt>
      <trkpt lat="43.78546" lon="2.25278">
        <ele>348.293435</ele>
        <time>2021-05-01T05:58:30.427Z</time>
      </trkpt>
      <trkpt lat="43.78524" lon="2.25265">
        <ele>348.139921</ele>
        <time>2021-05-01T05:58:36.002Z</time>
      </trkpt>
      <trkpt lat="43.78514" lon="2.25251">
        <ele>348.047248</ele>
        <time>2021-05-01T05:58:39.242Z</time>
      </trkpt>
      <trkpt lat="43.78509" lon="2.25231">
        <ele>347.948862</ele>
        <time>2021-05-01T05:58:42.383Z</time>
      </trkpt>
      <trkpt lat="43.78507" lon="2.25192">
        <ele>347.768628</ele>
        <time>2021-05-01T05:58:47.980Z</time>
      </trkpt>
      <trkpt lat="43.78511" lon="2.25161">
        <ele>347.622641</ele>
        <time>2021-05-01T05:58:52.286Z</time>
      </trkpt>
      <trkpt lat="43.78519" lon="2.25106">
        <ele>347.196466</ele>
        <time>2021-05-01T05:58:59.565Z</time>
      </trkpt>
      <trkpt lat="43.78519" lon="2.25063">
        <ele>346.1354</ele>
        <time>2021-05-01T05:59:05.001Z</time>
      </trkpt>
      <trkpt lat="43.78515" lon="2.25045">
        <ele>345.671865</ele>
        <time>2021-05-01T05:59:07.326Z</time>
      </trkpt>
      <trkpt lat="43.78506" lon="2.25026">
        <ele>345.130382</ele>
        <time>2021-05-01T05:59:09.967Z</time>
      </trkpt>
      <trkpt lat="43.784" lon="2.24889">
        <ele>339.738091</ele>
        <time>2021-05-01T05:59:32.712Z</time>
      </trkpt>
      <trkpt lat="43.78383" lon="2.24845">
        <ele>338.03719</ele>
        <time>2021-05-01T05:59:38.009Z</time>
      </trkpt>
      <trkpt lat="43.78373" lon="2.24788">
        <ele>335.994837</ele>
        <time>2021-05-01T05:59:44.411Z</time>
      </trkpt>
      <trkpt lat="43.78366" lon="2.24702">
        <ele>332.973713</ele>
        <time>2021-05-01T05:59:53.945Z</time>
      </trkpt>
      <trkpt lat="43.78363" lon="2.24671">
        <ele>332.126855</ele>
        <time>2021-05-01T05:59:57.343Z</time>
      </trkpt>
      <trkpt lat="43.78346" lon="2.24465">
        <ele>327.158357</ele>
        <time>2021-05-01T06:00:21.322Z</time>
      </trkpt>
      <trkpt lat="43.78351" lon="2.24431">
        <ele>326.51244</ele>
        <time>2021-05-01T06:00:26.193Z</time>
      </trkpt>
      <trkpt lat="43.78399" lon="2.24254">
        <ele>324.56226</ele>
        <time>2021-05-01T06:00:53.618Z</time>
      </trkpt>
      <trkpt lat="43.78414" lon="2.242">
        <ele>323.63627</ele>
        <time>2021-05-01T06:01:01.414Z</time>
      </trkpt>
      <trkpt lat="43.78446" lon="2.24083">
        <ele>319.052447</ele>
        <time>2021-05-01T06:01:15.440Z</time>
      </trkpt>
      <trkpt lat="43.78447" lon="2.2408">
        <ele>318.931612</ele>
        <time>2021-05-01T06:01:15.782Z</time>
      </trkpt>
      <trkpt lat="43.78451" lon="2.24059">
        <ele>318.124705</ele>
        <time>2021-05-01T06:01:18.106Z</time>
      </trkpt>
      <trkpt lat="43.78451" lon="2.24053">
        <ele>317.88607</ele>
        <time>2021-05-01T06:01:18.830Z</time>
      </trkpt>
      <trkpt lat="43.78451" lon="2.24041">
        <ele>317.478362</ele>
        <time>2021-05-01T06:01:20.011Z</time>
      </trkpt>
      <trkpt lat="43.78449" lon="2.24032">
        <ele>317.114113</ele>
        <time>2021-05-01T06:01:21.032Z</time>
      </trkpt>
      <trkpt lat="43.78448" lon="2.24027">
        <ele>316.920687</ele>
        <time>2021-05-01T06:01:21.527Z</time>
      </trkpt>
      <trkpt lat="43.78433" lon="2.24005">
        <ele>315.814888</ele>
        <time>2021-05-01T06:01:24.785Z</time>
      </trkpt>
      <trkpt lat="43.78424" lon="2.23996">
        <ele>315.27361</ele>
        <time>2021-05-01T06:01:26.259Z</time>
      </trkpt>
      <trkpt lat="43.78392" lon="2.23965">
        <ele>312.25798</ele>
        <time>2021-05-01T06:01:31.755Z</time>
      </trkpt>
      <trkpt lat="43.78363" lon="2.23932">
        <ele>309.214903</ele>
        <time>2021-05-01T06:01:36.977Z</time>
      </trkpt>
      <trkpt lat="43.78338" lon="2.23884">
        <ele>305.724107</ele>
        <time>2021-05-01T06:01:42.933Z</time>
      </trkpt>
      <trkpt lat="43.78333" lon="2.23834">
        <ele>302.755137</ele>
        <time>2021-05-01T06:01:48.013Z</time>
      </trkpt>
      <trkpt lat="43.78342" lon="2.23572">
        <ele>288.743712</ele>
        <time>2021-05-01T06:02:15.044Z</time>
      </trkpt>
      <trkpt lat="43.78333" lon="2.2353">
        <ele>286.422278</ele>
        <time>2021-05-01T06:02:19.608Z</time>
      </trkpt>
      <trkpt lat="43.78314" lon="2.23497">
        <ele>284.2493</ele>
        <time>2021-05-01T06:02:23.892Z</time>
      </trkpt>
      <trkpt lat="43.78235" lon="2.23452">
        <ele>278.092266</ele>
        <time>2021-05-01T06:02:36.007Z</time>
      </trkpt>
      <trkpt lat="43.78163" lon="2.2336">
        <ele>271.766887</ele>
        <time>2021-05-01T06:02:50.170Z</time>
      </trkpt>
      <trkpt lat="43.78111" lon="2.23315">
        <ele>268.369813</ele>
        <time>2021-05-01T06:02:59.199Z</time>
      </trkpt>
      <trkpt lat="43.78039" lon="2.23271">
        <ele>264.012594</ele>
        <time>2021-05-01T06:03:11.124Z</time>
      </trkpt>
      <trkpt lat="43.77995" lon="2.23258">
        <ele>261.7495</ele>
        <time>2021-05-01T06:03:18.123Z</time>
      </trkpt>
      <trkpt lat="43.77977" lon="2.23263">
        <ele>260.822275</ele>
        <time>2021-05-01T06:03:20.995Z</time>
      </trkpt>
      <trkpt lat="43.77932" lon="2.23307">
        <ele>258.104523</ele>
        <time>2021-05-01T06:03:29.269Z</time>
      </trkpt>
      <trkpt lat="43.77916" lon="2.23316">
        <ele>257.230879</ele>
        <time>2021-05-01T06:03:31.917Z</time>
      </trkpt>
      <trkpt lat="43.77907" lon="2.23316">
        <ele>256.752564</ele>
        <time>2021-05-01T06:03:33.348Z</time>
      </trkpt>
      <trkpt lat="43.77846" lon="2.23285">
        <ele>253.159514</ele>
        <time>2021-05-01T06:03:42.906Z</time>
      </trkpt>
      <trkpt lat="43.77837" lon="2.23272">
        <ele>252.382504</ele>
        <time>2021-05-01T06:03:44.782Z</time>
      </trkpt>
      <trkpt lat="43.77834" lon="2.23259">
        <ele>251.791401</ele>
        <time>2021-05-01T06:03:46.219Z</time>
      </trkpt>
      <trkpt lat="43.77843" lon="2.23197">
        <ele>249.023212</ele>
        <time>2021-05-01T06:03:52.896Z</time>
      </trkpt>
      <trkpt lat="43.77846" lon="2.23109">
        <ele>245.154707</ele>
        <time>2021-05-01T06:04:02.188Z</time>
      </trkpt>
      <trkpt lat="43.77826" lon="2.22983">
        <ele>239.748379</ele>
        <time>2021-05-01T06:04:15.756Z</time>
      </trkpt>
      <trkpt lat="43.77799" lon="2.22708">
        <ele>229.386152</ele>
        <time>2021-05-01T06:04:45.902Z</time>
      </trkpt>
      <trkpt lat="43.77785" lon="2.22637">
        <ele>226.98108</ele>
        <time>2021-05-01T06:04:54.391Z</time>
      </trkpt>
      <trkpt lat="43.77773" lon="2.22616">
        <ele>226.09305</ele>
        <time>2021-05-01T06:04:57.418Z</time>
      </trkpt>
      <trkpt lat="43.7775" lon="2.22593">
        <ele>225.037229</ele>
        <time>2021-05-01T06:05:01.843Z</time>
      </trkpt>
      <trkpt lat="43.77726" lon="2.22572">
        <ele>223.98593</ele>
        <time>2021-05-01T06:05:06.498Z</time>
      </trkpt>
      <trkpt lat="43.77697" lon="2.22546">
        <ele>222.733012</ele>
        <time>2021-05-01T06:05:12.060Z</time>
      </trkpt>
      <trkpt lat="43.77602" lon="2.22463">
        <ele>218.498296</ele>
        <time>2021-05-01T06:05:29.977Z</time>
      </trkpt>
      <trkpt lat="43.77546" lon="2.22428">
        <ele>215.733995</ele>
        <time>2021-05-01T06:05:39.372Z</time>
      </trkpt>
      <trkpt lat="43.77525" lon="2.22421">
        <ele>214.736589</ele>
        <time>2021-05-01T06:05:42.665Z</time>
      </trkpt>
      <trkpt lat="43.77486" lon="2.2241">
        <ele>212.989431</ele>
        <time>2021-05-01T06:05:48.591Z</time>
      </trkpt>
      <trkpt lat="43.77457" lon="2.22398">
        <ele>211.613478</ele>
        <time>2021-05-01T06:05:53.282Z</time>
      </trkpt>
      <trkpt lat="43.77409" lon="2.22354">
        <ele>209.918151</ele>
        <time>2021-05-01T06:06:02.467Z</time>
      </trkpt>
      <trkpt lat="43.77408" lon="2.22353">
        <ele>209.896277</ele>
        <time>2021-05-01T06:06:02.573Z</time>
      </trkpt>
      <trkpt lat="43.77236" lon="2.22129">
        <ele>205.154693</ele>
        <time>2021-05-01T06:06:44.667Z</time>
      </trkpt>
      <trkpt lat="43.77156" lon="2.22062">
        <ele>204.235132</ele>
        <time>2021-05-01T06:07:03.864Z</time>
      </trkpt>
      <trkpt lat="43.77152" lon="2.22057">
        <ele>204.235731</ele>
        <time>2021-05-01T06:07:05.096Z</time>
      </trkpt>
      <trkpt lat="43.77219" lon="2.21906">
        <ele>204.249199</ele>
        <time>2021-05-01T06:07:32.810Z</time>
      </trkpt>
      <trkpt lat="43.77265" lon="2.21804">
        <ele>205.318435</ele>
        <time>2021-05-01T06:07:55.052Z</time>
      </trkpt>
      <trkpt lat="43.77299" lon="2.21728">
        <ele>206.47661</ele>
        <time>2021-05-01T06:08:14.206Z</time>
      </trkpt>
      <trkpt lat="43.77306" lon="2.21709">
        <ele>206.74721</ele>
        <time>2021-05-01T06:08:19.125Z</time>
      </trkpt>
      <trkpt lat="43.7736" lon="2.21562">
        <ele>210.030812</ele>
        <time>2021-05-01T06:09:00.386Z</time>
      </trkpt>
      <trkpt lat="43.77445" lon="2.21321">
        <ele>215.667166</ele>
        <time>2021-05-01T06:10:10.050Z</time>
      </trkpt>
      <trkpt lat="43.77455" lon="2.21262">
        <ele>216.790023</ele>
        <time>2021-05-01T06:10:23.877Z</time>
      </trkpt>
      <trkpt lat="43.77468" lon="2.21062">
        <ele>218.22276</ele>
        <time>2021-05-01T06:11:02.441Z</time>
      </trkpt>
      <trkpt lat="43.77468" lon="2.21054">
        <ele>218.241224</ele>
        <time>2021-05-01T06:11:03.673Z</time>
      </trkpt>
      <trkpt lat="43.77473" lon="2.20974">
        <ele>218.417859</ele>
        <time>2021-05-01T06:11:15.302Z</time>
      </trkpt>
      <trkpt lat="43.77474" lon="2.2096">
        <ele>218.449411</ele>
        <time>2021-05-01T06:11:17.350Z</time>
      </trkpt>
      <trkpt lat="43.77484" lon="2.2075">
        <ele>216.870293</ele>
        <time>2021-05-01T06:11:46.692Z</time>
      </trkpt>
      <trkpt lat="43.7749" lon="2.20695">
        <ele>216.401454</ele>
        <time>2021-05-01T06:11:54.187Z</time>
      </trkpt>
      <trkpt lat="43.77495" lon="2.20665">
        <ele>216.075975</ele>
        <time>2021-05-01T06:11:58.221Z</time>
      </trkpt>
      <trkpt lat="43.77507" lon="2.20606">
        <ele>215.408393</ele>
        <time>2021-05-01T06:12:06.458Z</time>
      </trkpt>
      <trkpt lat="43.77511" lon="2.20589">
        <ele>215.214433</ele>
        <time>2021-05-01T06:12:08.924Z</time>
      </trkpt>
      <trkpt lat="43.77543" lon="2.20473">
        <ele>213.887037</ele>
        <time>2021-05-01T06:12:25.362Z</time>
      </trkpt>
      <trkpt lat="43.77555" lon="2.20435">
        <ele>213.343823</ele>
        <time>2021-05-01T06:12:30.781Z</time>
      </trkpt>
      <trkpt lat="43.77556" lon="2.20431">
        <ele>213.288316</ele>
        <time>2021-05-01T06:12:31.285Z</time>
      </trkpt>
      <trkpt lat="43.77587" lon="2.20315">
        <ele>211.62794</ele>
        <time>2021-05-01T06:12:46.993Z</time>
      </trkpt>
      <trkpt lat="43.77592" lon="2.20292">
        <ele>211.306671</ele>
        <time>2021-05-01T06:12:50.063Z</time>
      </trkpt>
      <trkpt lat="43.77595" lon="2.20263">
        <ele>210.919793</ele>
        <time>2021-05-01T06:12:53.860Z</time>
      </trkpt>
      <trkpt lat="43.77596" lon="2.20203">
        <ele>210.248864</ele>
        <time>2021-05-01T06:13:01.740Z</time>
      </trkpt>
      <trkpt lat="43.77587" lon="2.20133">
        <ele>209.632602</ele>
        <time>2021-05-01T06:13:11.092Z</time>
      </trkpt>
      <trkpt lat="43.77544" lon="2.1998">
        <ele>208.325287</ele>
        <time>2021-05-01T06:13:33.766Z</time>
      </trkpt>
      <trkpt lat="43.77462" lon="2.19667">
        <ele>208.629988</ele>
        <time>2021-05-01T06:14:28.394Z</time>
      </trkpt>
      <trkpt lat="43.77462" lon="2.19667">
        <ele>208.629988</ele>
        <time>2021-05-01T06:14:28.424Z</time>
      </trkpt>
      <trkpt lat="43.77462" lon="2.19667">
        <ele>208.629988</ele>
        <time>2021-05-01T06:14:28.428Z</time>
      </trkpt>
      <trkpt lat="43.77399" lon="2.19433">
        <ele>209.408922</ele>
        <time>2021-05-01T06:15:15.068Z</time>
      </trkpt>
      <trkpt lat="43.77398" lon="2.19429">
        <ele>209.415981</ele>
        <time>2021-05-01T06:15:15.828Z</time>
      </trkpt>
      <trkpt lat="43.77366" lon="2.19312">
        <ele>209.614106</ele>
        <time>2021-05-01T06:15:35.594Z</time>
      </trkpt>
      <trkpt lat="43.77359" lon="2.19275">
        <ele>209.600662</ele>
        <time>2021-05-01T06:15:41.324Z</time>
      </trkpt>
      <trkpt lat="43.77361" lon="2.19256">
        <ele>209.555883</ele>
        <time>2021-05-01T06:15:43.929Z</time>
      </trkpt>
      <trkpt lat="43.7737" lon="2.19235">
        <ele>209.49784</ele>
        <time>2021-05-01T06:15:47.570Z</time>
      </trkpt>
      <trkpt lat="43.77415" lon="2.19176">
        <ele>209.292612</ele>
        <time>2021-05-01T06:16:00.042Z</time>
      </trkpt>
      <trkpt lat="43.77443" lon="2.1914">
        <ele>209.169138</ele>
        <time>2021-05-01T06:16:08.409Z</time>
      </trkpt>
      <trkpt lat="43.77504" lon="2.19062">
        <ele>209.380523</ele>
        <time>2021-05-01T06:16:27.224Z</time>
      </trkpt>
      <trkpt lat="43.7753" lon="2.19029">
        <ele>209.619112</ele>
        <time>2021-05-01T06:16:35.342Z</time>
      </trkpt>
      <trkpt lat="43.77542" lon="2.19014">
        <ele>209.722567</ele>
        <time>2021-05-01T06:16:39.323Z</time>
      </trkpt>
      <trkpt lat="43.77516" lon="2.18974">
        <ele>209.986031</ele>
        <time>2021-05-01T06:16:49.234Z</time>
      </trkpt>
      <trkpt lat="43.77492" lon="2.18938">
        <ele>210.222568</ele>
        <time>2021-05-01T06:16:59.564Z</time>
      </trkpt>
      <trkpt lat="43.77488" lon="2.1893">
        <ele>210.273869</ele>
        <time>2021-05-01T06:17:01.244Z</time>
      </trkpt>
      <trkpt lat="43.77469" lon="2.189">
        <ele>210.675985</ele>
        <time>2021-05-01T06:17:09.839Z</time>
      </trkpt>
      <trkpt lat="43.77461" lon="2.18887">
        <ele>210.852539</ele>
        <time>2021-05-01T06:17:12.846Z</time>
      </trkpt>
      <trkpt lat="43.77522" lon="2.18809">
        <ele>212.02356</ele>
        <time>2021-05-01T06:17:35.719Z</time>
      </trkpt>
      <trkpt lat="43.77527" lon="2.18804">
        <ele>212.106241</ele>
        <time>2021-05-01T06:17:38.094Z</time>
      </trkpt>
      <trkpt lat="43.77527" lon="2.18804">
        <ele>212.106241</ele>
        <time>2021-05-01T06:17:38.118Z</time>
      </trkpt>
      <trkpt lat="43.77527" lon="2.18796">
        <ele>212.181177</ele>
        <time>2021-05-01T06:17:39.488Z</time>
      </trkpt>
      <trkpt lat="43.77527" lon="2.18792">
        <ele>212.229857</ele>
        <time>2021-05-01T06:17:40.394Z</time>
      </trkpt>
      <trkpt lat="43.77514" lon="2.18785">
        <ele>212.424111</ele>
        <time>2021-05-01T06:17:43.836Z</time>
      </trkpt>
      <trkpt lat="43.77494" lon="2.18756">
        <ele>212.813604</ele>
        <time>2021-05-01T06:17:52.183Z</time>
      </trkpt>
      <trkpt lat="43.77492" lon="2.18751">
        <ele>212.835074</ele>
        <time>2021-05-01T06:17:53.285Z</time>
      </trkpt>
      <trkpt lat="43.77467" lon="2.18712">
        <ele>213.024205</ele>
        <time>2021-05-01T06:18:04.107Z</time>
      </trkpt>
      <trkpt lat="43.77437" lon="2.18662">
        <ele>213.258334</ele>
        <time>2021-05-01T06:18:16.275Z</time>
      </trkpt>
      <trkpt lat="43.77409" lon="2.18618">
        <ele>213.470432</ele>
        <time>2021-05-01T06:18:25.772Z</time>
      </trkpt>
      <trkpt lat="43.77363" lon="2.18545">
        <ele>213.499295</ele>
        <time>2021-05-01T06:18:40.314Z</time>
      </trkpt>
      <trkpt lat="43.77356" lon="2.18534">
        <ele>213.40441</ele>
        <time>2021-05-01T06:18:42.522Z</time>
      </trkpt>
      <trkpt lat="43.77353" lon="2.1853">
        <ele>213.371041</ele>
        <time>2021-05-01T06:18:43.242Z</time>
      </trkpt>
      <trkpt lat="43.7735" lon="2.18524">
        <ele>213.319557</ele>
        <time>2021-05-01T06:18:44.316Z</time>
      </trkpt>
      <trkpt lat="43.7725" lon="2.18367">
        <ele>211.911024</ele>
        <time>2021-05-01T06:19:13.478Z</time>
      </trkpt>
      <trkpt lat="43.77171" lon="2.18244">
        <ele>210.482298</ele>
        <time>2021-05-01T06:19:35.611Z</time>
      </trkpt>
      <trkpt lat="43.77125" lon="2.1817">
        <ele>209.723035</ele>
        <time>2021-05-01T06:19:49.030Z</time>
      </trkpt>
      <trkpt lat="43.77115" lon="2.18153">
        <ele>209.597156</ele>
        <time>2021-05-01T06:19:52.173Z</time>
      </trkpt>
      <trkpt lat="43.77107" lon="2.18129">
        <ele>209.450099</ele>
        <time>2021-05-01T06:19:55.710Z</time>
      </trkpt>
      <trkpt lat="43.77109" lon="2.18115">
        <ele>209.368094</ele>
        <time>2021-05-01T06:19:57.821Z</time>
      </trkpt>
      <trkpt lat="43.7711" lon="2.18101">
        <ele>209.287084</ele>
        <time>2021-05-01T06:19:59.838Z</time>
      </trkpt>
      <trkpt lat="43.77115" lon="2.18091">
        <ele>209.217211</ele>
        <time>2021-05-01T06:20:01.542Z</time>
      </trkpt>
      <trkpt lat="43.77116" lon="2.18078">
        <ele>209.141965</ele>
        <time>2021-05-01T06:20:03.455Z</time>
      </trkpt>
      <trkpt lat="43.77115" lon="2.18072">
        <ele>209.103261</ele>
        <time>2021-05-01T06:20:04.466Z</time>
      </trkpt>
      <trkpt lat="43.77113" lon="2.18064">
        <ele>209.060057</ele>
        <time>2021-05-01T06:20:05.593Z</time>
      </trkpt>
      <trkpt lat="43.77108" lon="2.18057">
        <ele>209.002015</ele>
        <time>2021-05-01T06:20:07.058Z</time>
      </trkpt>
      <trkpt lat="43.77101" lon="2.18049">
        <ele>208.93173</ele>
        <time>2021-05-01T06:20:08.812Z</time>
      </trkpt>
      <trkpt lat="43.77097" lon="2.18038">
        <ele>208.857973</ele>
        <time>2021-05-01T06:20:10.717Z</time>
      </trkpt>
      <trkpt lat="43.77089" lon="2.18006">
        <ele>208.666549</ele>
        <time>2021-05-01T06:20:15.698Z</time>
      </trkpt>
      <trkpt lat="43.77068" lon="2.17788">
        <ele>207.725085</ele>
        <time>2021-05-01T06:20:48.500Z</time>
      </trkpt>
      <trkpt lat="43.77067" lon="2.17772">
        <ele>207.659325</ele>
        <time>2021-05-01T06:20:50.892Z</time>
      </trkpt>
      <trkpt lat="43.77051" lon="2.17626">
        <ele>206.770961</ele>
        <time>2021-05-01T06:21:11.931Z</time>
      </trkpt>
      <trkpt lat="43.77026" lon="2.17397">
        <ele>205.19429</ele>
        <time>2021-05-01T06:21:44.144Z</time>
      </trkpt>
      <trkpt lat="43.77026" lon="2.17396">
        <ele>205.187467</ele>
        <time>2021-05-01T06:21:44.261Z</time>
      </trkpt>
      <trkpt lat="43.77019" lon="2.17312">
        <ele>204.613908</ele>
        <time>2021-05-01T06:21:56.285Z</time>
      </trkpt>
      <trkpt lat="43.77019" lon="2.17254">
        <ele>204.223258</ele>
        <time>2021-05-01T06:22:04.430Z</time>
      </trkpt>
      <trkpt lat="43.77021" lon="2.17194">
        <ele>203.925873</ele>
        <time>2021-05-01T06:22:12.851Z</time>
      </trkpt>
      <trkpt lat="43.77027" lon="2.17137">
        <ele>203.68516</ele>
        <time>2021-05-01T06:22:21.293Z</time>
      </trkpt>
      <trkpt lat="43.77035" lon="2.17074">
        <ele>203.42018</ele>
        <time>2021-05-01T06:22:30.638Z</time>
      </trkpt>
      <trkpt lat="43.77085" lon="2.16852">
        <ele>203.181534</ele>
        <time>2021-05-01T06:23:06.650Z</time>
      </trkpt>
      <trkpt lat="43.77133" lon="2.16701">
        <ele>203.521728</ele>
        <time>2021-05-01T06:23:35.716Z</time>
      </trkpt>
      <trkpt lat="43.77173" lon="2.16621">
        <ele>203.925933</ele>
        <time>2021-05-01T06:23:54.294Z</time>
      </trkpt>
      <trkpt lat="43.77198" lon="2.16586">
        <ele>204.129278</ele>
        <time>2021-05-01T06:24:03.035Z</time>
      </trkpt>
      <trkpt lat="43.77229" lon="2.16552">
        <ele>204.215226</ele>
        <time>2021-05-01T06:24:12.039Z</time>
      </trkpt>
      <trkpt lat="43.77272" lon="2.16513">
        <ele>203.755204</ele>
        <time>2021-05-01T06:24:23.022Z</time>
      </trkpt>
      <trkpt lat="43.77447" lon="2.16401">
        <ele>201.636017</ele>
        <time>2021-05-01T06:24:58.847Z</time>
      </trkpt>
      <trkpt lat="43.77552" lon="2.16333">
        <ele>199.930164</ele>
        <time>2021-05-01T06:25:20.100Z</time>
      </trkpt>
      <trkpt lat="43.7762" lon="2.16275">
        <ele>198.441685</ele>
        <time>2021-05-01T06:25:34.549Z</time>
      </trkpt>
      <trkpt lat="43.77656" lon="2.16228">
        <ele>197.498463</ele>
        <time>2021-05-01T06:25:43.388Z</time>
      </trkpt>
      <trkpt lat="43.77678" lon="2.1619">
        <ele>196.853448</ele>
        <time>2021-05-01T06:25:49.417Z</time>
      </trkpt>
      <trkpt lat="43.77721" lon="2.16109">
        <ele>195.59287</ele>
        <time>2021-05-01T06:26:01.957Z</time>
      </trkpt>
      <trkpt lat="43.77738" lon="2.16076">
        <ele>195.094919</ele>
        <time>2021-05-01T06:26:07.051Z</time>
      </trkpt>
      <trkpt lat="43.77763" lon="2.16029">
        <ele>194.368127</ele>
        <time>2021-05-01T06:26:14.709Z</time>
      </trkpt>
      <trkpt lat="43.77767" lon="2.1602">
        <ele>194.241618</ele>
        <time>2021-05-01T06:26:16.054Z</time>
      </trkpt>
      <trkpt lat="43.77782" lon="2.1599">
        <ele>193.793731</ele>
        <time>2021-05-01T06:26:20.976Z</time>
      </trkpt>
      <trkpt lat="43.7782" lon="2.15893">
        <ele>193.828979</ele>
        <time>2021-05-01T06:26:37.863Z</time>
      </trkpt>
      <trkpt lat="43.77855" lon="2.15774">
        <ele>194.037603</ele>
        <time>2021-05-01T06:27:00.818Z</time>
      </trkpt>
      <trkpt lat="43.77892" lon="2.15674">
        <ele>194.802095</ele>
        <time>2021-05-01T06:27:22.955Z</time>
      </trkpt>
      <trkpt lat="43.7803" lon="2.15424">
        <ele>197.040288</ele>
        <time>2021-05-01T06:28:23.363Z</time>
      </trkpt>
      <trkpt lat="43.78088" lon="2.153">
        <ele>197.586035</ele>
        <time>2021-05-01T06:28:49.750Z</time>
      </trkpt>
      <trkpt lat="43.78139" lon="2.15187">
        <ele>197.510108</ele>
        <time>2021-05-01T06:29:10.938Z</time>
      </trkpt>
      <trkpt lat="43.7817" lon="2.15105">
        <ele>197.192743</ele>
        <time>2021-05-01T06:29:24.557Z</time>
      </trkpt>
      <trkpt lat="43.78218" lon="2.14944">
        <ele>195.681976</ele>
        <time>2021-05-01T06:29:48.197Z</time>
      </trkpt>
      <trkpt lat="43.7823" lon="2.14864">
        <ele>194.990302</ele>
        <time>2021-05-01T06:29:58.884Z</time>
      </trkpt>
      <trkpt lat="43.78232" lon="2.1481">
        <ele>194.533251</ele>
        <time>2021-05-01T06:30:06.120Z</time>
      </trkpt>
      <trkpt lat="43.78225" lon="2.14734">
        <ele>193.88089</ele>
        <time>2021-05-01T06:30:16.629Z</time>
      </trkpt>
      <trkpt lat="43.78162" lon="2.1427">
        <ele>191.0082</ele>
        <time>2021-05-01T06:31:24.850Z</time>
      </trkpt>
      <trkpt lat="43.7816" lon="2.14168">
        <ele>190.353012</ele>
        <time>2021-05-01T06:31:39.243Z</time>
      </trkpt>
      <trkpt lat="43.7817" lon="2.1407">
        <ele>189.021103</ele>
        <time>2021-05-01T06:31:52.314Z</time>
      </trkpt>
      <trkpt lat="43.7818" lon="2.14014">
        <ele>188.242936</ele>
        <time>2021-05-01T06:31:59.566Z</time>
      </trkpt>
      <trkpt lat="43.78182" lon="2.14002">
        <ele>188.075265</ele>
        <time>2021-05-01T06:32:01.103Z</time>
      </trkpt>
      <trkpt lat="43.78194" lon="2.13941">
        <ele>187.211525</ele>
        <time>2021-05-01T06:32:09.026Z</time>
      </trkpt>
      <trkpt lat="43.78199" lon="2.1391">
        <ele>186.772692</ele>
        <time>2021-05-01T06:32:12.937Z</time>
      </trkpt>
      <trkpt lat="43.78203" lon="2.13877">
        <ele>186.2863</ele>
        <time>2021-05-01T06:32:17.076Z</time>
      </trkpt>
      <trkpt lat="43.78207" lon="2.13855">
        <ele>185.950653</ele>
        <time>2021-05-01T06:32:19.894Z</time>
      </trkpt>
      <trkpt lat="43.78207" lon="2.1385">
        <ele>185.883644</ele>
        <time>2021-05-01T06:32:20.452Z</time>
      </trkpt>
      <trkpt lat="43.78229" lon="2.13703">
        <ele>183.691163</ele>
        <time>2021-05-01T06:32:39.334Z</time>
      </trkpt>
      <trkpt lat="43.78284" lon="2.13278">
        <ele>180.875142</ele>
        <time>2021-05-01T06:33:40.485Z</time>
      </trkpt>
      <trkpt lat="43.78291" lon="2.13216">
        <ele>180.616113</ele>
        <time>2021-05-01T06:33:50.405Z</time>
      </trkpt>
      <trkpt lat="43.78303" lon="2.13128">
        <ele>180.372471</ele>
        <time>2021-05-01T06:34:04.745Z</time>
      </trkpt>
      <trkpt lat="43.7833" lon="2.12937">
        <ele>179.937065</ele>
        <time>2021-05-01T06:34:34.960Z</time>
      </trkpt>
      <trkpt lat="43.78335" lon="2.12896">
        <ele>179.628869</ele>
        <time>2021-05-01T06:34:40.895Z</time>
      </trkpt>
      <trkpt lat="43.7836" lon="2.1269">
        <ele>178.081133</ele>
        <time>2021-05-01T06:35:09.340Z</time>
      </trkpt>
      <trkpt lat="43.78367" lon="2.12631">
        <ele>177.817638</ele>
        <time>2021-05-01T06:35:17.525Z</time>
      </trkpt>
      <trkpt lat="43.78382" lon="2.12512">
        <ele>177.288756</ele>
        <time>2021-05-01T06:35:35.069Z</time>
      </trkpt>
      <trkpt lat="43.78397" lon="2.124">
        <ele>177.283001</ele>
        <time>2021-05-01T06:35:53.241Z</time>
      </trkpt>
      <trkpt lat="43.784" lon="2.12363">
        <ele>177.474113</ele>
        <time>2021-05-01T06:35:59.621Z</time>
      </trkpt>
      <trkpt lat="43.78401" lon="2.12344">
        <ele>177.569471</ele>
        <time>2021-05-01T06:36:03.049Z</time>
      </trkpt>
      <trkpt lat="43.78398" lon="2.12278">
        <ele>177.907997</ele>
        <time>2021-05-01T06:36:15.461Z</time>
      </trkpt>
      <trkpt lat="43.78385" lon="2.12217">
        <ele>178.234353</ele>
        <time>2021-05-01T06:36:28.268Z</time>
      </trkpt>
      <trkpt lat="43.78375" lon="2.12177">
        <ele>178.502148</ele>
        <time>2021-05-01T06:36:36.857Z</time>
      </trkpt>
      <trkpt lat="43.78366" lon="2.12144">
        <ele>178.735375</ele>
        <time>2021-05-01T06:36:43.793Z</time>
      </trkpt>
      <trkpt lat="43.78355" lon="2.12102">
        <ele>179.03772</ele>
        <time>2021-05-01T06:36:52.420Z</time>
      </trkpt>
      <trkpt lat="43.78342" lon="2.12051">
        <ele>179.399387</ele>
        <time>2021-05-01T06:37:02.689Z</time>
      </trkpt>
      <trkpt lat="43.78334" lon="2.1202">
        <ele>179.622826</ele>
        <time>2021-05-01T06:37:08.855Z</time>
      </trkpt>
      <trkpt lat="43.7833" lon="2.12013">
        <ele>179.68053</ele>
        <time>2021-05-01T06:37:10.208Z</time>
      </trkpt>
      <trkpt lat="43.78316" lon="2.11953">
        <ele>179.941057</ele>
        <time>2021-05-01T06:37:21.226Z</time>
      </trkpt>
      <trkpt lat="43.78294" lon="2.11871">
        <ele>179.857376</ele>
        <time>2021-05-01T06:37:35.756Z</time>
      </trkpt>
      <trkpt lat="43.78293" lon="2.11865">
        <ele>179.851564</ele>
        <time>2021-05-01T06:37:36.762Z</time>
      </trkpt>
      <trkpt lat="43.78286" lon="2.11838">
        <ele>179.824251</ele>
        <time>2021-05-01T06:37:41.438Z</time>
      </trkpt>
      <trkpt lat="43.78283" lon="2.11827">
        <ele>179.813028</ele>
        <time>2021-05-01T06:37:43.086Z</time>
      </trkpt>
      <trkpt lat="43.78256" lon="2.11728">
        <ele>179.680111</ele>
        <time>2021-05-01T06:37:58.665Z</time>
      </trkpt>
      <trkpt lat="43.7822" lon="2.11589">
        <ele>179.130772</ele>
        <time>2021-05-01T06:38:20.234Z</time>
      </trkpt>
      <trkpt lat="43.78177" lon="2.11423">
        <ele>178.565334</ele>
        <time>2021-05-01T06:38:46.961Z</time>
      </trkpt>
      <trkpt lat="43.78158" lon="2.11343">
        <ele>178.336718</ele>
        <time>2021-05-01T06:38:59.656Z</time>
      </trkpt>
      <trkpt lat="43.78134" lon="2.11221">
        <ele>178.032125</ele>
        <time>2021-05-01T06:39:18.892Z</time>
      </trkpt>
      <trkpt lat="43.78111" lon="2.1107">
        <ele>177.73946</ele>
        <time>2021-05-01T06:39:42.651Z</time>
      </trkpt>
      <trkpt lat="43.78071" lon="2.10672">
        <ele>177.152662</ele>
        <time>2021-05-01T06:40:45.421Z</time>
      </trkpt>
      <trkpt lat="43.7806" lon="2.1055">
        <ele>176.946646</ele>
        <time>2021-05-01T06:41:04.236Z</time>
      </trkpt>
      <trkpt lat="43.78058" lon="2.10533">
        <ele>176.917024</ele>
        <time>2021-05-01T06:41:07.075Z</time>
      </trkpt>
      <trkpt lat="43.78049" lon="2.10441">
        <ele>176.777428</ele>
        <time>2021-05-01T06:41:21.548Z</time>
      </trkpt>
      <trkpt lat="43.78047" lon="2.10414">
        <ele>176.737306</ele>
        <time>2021-05-01T06:41:25.614Z</time>
      </trkpt>
      <trkpt lat="43.78041" lon="2.10359">
        <ele>176.654479</ele>
        <time>2021-05-01T06:41:34.297Z</time>
      </trkpt>
      <trkpt lat="43.78028" lon="2.10244">
        <ele>176.414554</ele>
        <time>2021-05-01T06:41:52.488Z</time>
      </trkpt>
      <trkpt lat="43.78016" lon="2.10121">
        <ele>176.028575</ele>
        <time>2021-05-01T06:42:11.174Z</time>
      </trkpt>
      <trkpt lat="43.78006" lon="2.10022">
        <ele>175.641725</ele>
        <time>2021-05-01T06:42:26.080Z</time>
      </trkpt>
      <trkpt lat="43.78003" lon="2.09997">
        <ele>175.436464</ele>
        <time>2021-05-01T06:42:29.775Z</time>
      </trkpt>
      <trkpt lat="43.77985" lon="2.09825">
        <ele>174.040659</ele>
        <time>2021-05-01T06:42:53.809Z</time>
      </trkpt>
      <trkpt lat="43.77975" lon="2.09732">
        <ele>173.00154</ele>
        <time>2021-05-01T06:43:06.022Z</time>
      </trkpt>
      <trkpt lat="43.77964" lon="2.09629">
        <ele>171.678844</ele>
        <time>2021-05-01T06:43:19.183Z</time>
      </trkpt>
      <trkpt lat="43.77954" lon="2.09535">
        <ele>170.55916</ele>
        <time>2021-05-01T06:43:31.606Z</time>
      </trkpt>
      <trkpt lat="43.7795" lon="2.09478">
        <ele>170.386666</ele>
        <time>2021-05-01T06:43:39.390Z</time>
      </trkpt>
      <trkpt lat="43.77949" lon="2.09462">
        <ele>170.335673</ele>
        <time>2021-05-01T06:43:41.841Z</time>
      </trkpt>
      <trkpt lat="43.77949" lon="2.09419">
        <ele>170.207071</ele>
        <time>2021-05-01T06:43:48.047Z</time>
      </trkpt>
      <trkpt lat="43.77949" lon="2.09384">
        <ele>170.097683</ele>
        <time>2021-05-01T06:43:53.603Z</time>
      </trkpt>
      <trkpt lat="43.77949" lon="2.09345">
        <ele>169.980368</ele>
        <time>2021-05-01T06:43:59.996Z</time>
      </trkpt>
      <trkpt lat="43.77952" lon="2.09293">
        <ele>169.841223</ele>
        <time>2021-05-01T06:44:09.225Z</time>
      </trkpt>
      <trkpt lat="43.77983" lon="2.09005">
        <ele>170.636184</ele>
        <time>2021-05-01T06:45:00.399Z</time>
      </trkpt>
      <trkpt lat="43.77987" lon="2.08896">
        <ele>170.554158</ele>
        <time>2021-05-01T06:45:17.766Z</time>
      </trkpt>
      <trkpt lat="43.77983" lon="2.08767">
        <ele>170.378739</ele>
        <time>2021-05-01T06:45:37.083Z</time>
      </trkpt>
      <trkpt lat="43.77973" lon="2.08649">
        <ele>170.008004</ele>
        <time>2021-05-01T06:45:54.673Z</time>
      </trkpt>
      <trkpt lat="43.77963" lon="2.0858">
        <ele>169.789486</ele>
        <time>2021-05-01T06:46:05.288Z</time>
      </trkpt>
      <trkpt lat="43.77946" lon="2.08522">
        <ele>169.711878</ele>
        <time>2021-05-01T06:46:14.873Z</time>
      </trkpt>
      <trkpt lat="43.77909" lon="2.08447">
        <ele>169.715623</ele>
        <time>2021-05-01T06:46:29.343Z</time>
      </trkpt>
      <trkpt lat="43.77829" lon="2.08322">
        <ele>169.701457</ele>
        <time>2021-05-01T06:46:56.920Z</time>
      </trkpt>
      <trkpt lat="43.77697" lon="2.08145">
        <ele>169.448867</ele>
        <time>2021-05-01T06:47:37.501Z</time>
      </trkpt>
      <trkpt lat="43.77653" lon="2.08071">
        <ele>169.141279</ele>
        <time>2021-05-01T06:47:51.757Z</time>
      </trkpt>
      <trkpt lat="43.77586" lon="2.07933">
        <ele>168.534652</ele>
        <time>2021-05-01T06:48:15.862Z</time>
      </trkpt>
      <trkpt lat="43.77458" lon="2.07674">
        <ele>167.54198</ele>
        <time>2021-05-01T06:49:02.086Z</time>
      </trkpt>
      <trkpt lat="43.77278" lon="2.0731">
        <ele>167.725112</ele>
        <time>2021-05-01T06:50:15.157Z</time>
      </trkpt>
      <trkpt lat="43.77237" lon="2.07188">
        <ele>167.781973</ele>
        <time>2021-05-01T06:50:37.165Z</time>
      </trkpt>
      <trkpt lat="43.77225" lon="2.07131">
        <ele>167.794962</ele>
        <time>2021-05-01T06:50:46.668Z</time>
      </trkpt>
      <trkpt lat="43.7721" lon="2.07021">
        <ele>167.760549</ele>
        <time>2021-05-01T06:51:04.372Z</time>
      </trkpt>
      <trkpt lat="43.77204" lon="2.06837">
        <ele>167.618113</ele>
        <time>2021-05-01T06:51:33.881Z</time>
      </trkpt>
      <trkpt lat="43.77192" lon="2.0669">
        <ele>167.373618</ele>
        <time>2021-05-01T06:51:56.656Z</time>
      </trkpt>
      <trkpt lat="43.77136" lon="2.06345">
        <ele>166.767447</ele>
        <time>2021-05-01T06:52:50.553Z</time>
      </trkpt>
      <trkpt lat="43.77099" lon="2.06136">
        <ele>166.739317</ele>
        <time>2021-05-01T06:53:26.017Z</time>
      </trkpt>
      <trkpt lat="43.7709" lon="2.06065">
        <ele>166.70771</ele>
        <time>2021-05-01T06:53:37.873Z</time>
      </trkpt>
      <trkpt lat="43.77072" lon="2.05963">
        <ele>166.661623</ele>
        <time>2021-05-01T06:53:54.406Z</time>
      </trkpt>
      <trkpt lat="43.77042" lon="2.05795">
        <ele>166.318529</ele>
        <time>2021-05-01T06:54:20.650Z</time>
      </trkpt>
      <trkpt lat="43.77024" lon="2.05702">
        <ele>166.083806</ele>
        <time>2021-05-01T06:54:35.163Z</time>
      </trkpt>
      <trkpt lat="43.76956" lon="2.05317">
        <ele>165.966465</ele>
        <time>2021-05-01T06:55:37.595Z</time>
      </trkpt>
      <trkpt lat="43.76945" lon="2.05253">
        <ele>166.053391</ele>
        <time>2021-05-01T06:55:49.130Z</time>
      </trkpt>
      <trkpt lat="43.76921" lon="2.05112">
        <ele>166.146043</ele>
        <time>2021-05-01T06:56:14.984Z</time>
      </trkpt>
      <trkpt lat="43.76902" lon="2.05005">
        <ele>166.169468</ele>
        <time>2021-05-01T06:56:32.484Z</time>
      </trkpt>
      <trkpt lat="43.76879" lon="2.04875">
        <ele>165.818982</ele>
        <time>2021-05-01T06:56:52.224Z</time>
      </trkpt>
      <trkpt lat="43.76843" lon="2.04666">
        <ele>165.043577</ele>
        <time>2021-05-01T06:57:23.440Z</time>
      </trkpt>
      <trkpt lat="43.76817" lon="2.04524">
        <ele>164.837545</ele>
        <time>2021-05-01T06:57:46.704Z</time>
      </trkpt>
      <trkpt lat="43.76789" lon="2.04353">
        <ele>164.565355</ele>
        <time>2021-05-01T06:58:14.562Z</time>
      </trkpt>
      <trkpt lat="43.76767" lon="2.04221">
        <ele>164.347969</ele>
        <time>2021-05-01T06:58:35.051Z</time>
      </trkpt>
      <trkpt lat="43.76727" lon="2.03983">
        <ele>163.9574</ele>
        <time>2021-05-01T06:59:12.851Z</time>
      </trkpt>
      <trkpt lat="43.76712" lon="2.03889">
        <ele>163.975772</ele>
        <time>2021-05-01T06:59:28.504Z</time>
      </trkpt>
      <trkpt lat="43.76693" lon="2.03738">
        <ele>163.992725</ele>
        <time>2021-05-01T06:59:53.920Z</time>
      </trkpt>
      <trkpt lat="43.76676" lon="2.03575">
        <ele>163.63635</ele>
        <time>2021-05-01T07:00:19.295Z</time>
      </trkpt>
      <trkpt lat="43.76669" lon="2.03532">
        <ele>163.541132</ele>
        <time>2021-05-01T07:00:25.973Z</time>
      </trkpt>
      <trkpt lat="43.76669" lon="2.03532">
        <ele>163.541132</ele>
        <time>2021-05-01T07:00:25.980Z</time>
      </trkpt>
      <trkpt lat="43.76678" lon="2.0353">
        <ele>163.513973</ele>
        <time>2021-05-01T07:00:27.762Z</time>
      </trkpt>
      <trkpt lat="43.76687" lon="2.03523">
        <ele>163.483509</ele>
        <time>2021-05-01T07:00:29.854Z</time>
      </trkpt>
      <trkpt lat="43.76696" lon="2.03496">
        <ele>163.420926</ele>
        <time>2021-05-01T07:00:34.368Z</time>
      </trkpt>
      <trkpt lat="43.76693" lon="2.03479">
        <ele>163.386299</ele>
        <time>2021-05-01T07:00:36.847Z</time>
      </trkpt>
      <trkpt lat="43.76677" lon="2.0346">
        <ele>163.328427</ele>
        <time>2021-05-01T07:00:41.102Z</time>
      </trkpt>
      <trkpt lat="43.76664" lon="2.0346">
        <ele>163.291194</ele>
        <time>2021-05-01T07:00:43.709Z</time>
      </trkpt>
      <trkpt lat="43.76664" lon="2.03438">
        <ele>163.247962</ele>
        <time>2021-05-01T07:00:47.009Z</time>
      </trkpt>
      <trkpt lat="43.76605" lon="2.0272">
        <ele>161.884957</ele>
        <time>2021-05-01T07:02:39.727Z</time>
      </trkpt>
      <trkpt lat="43.76601" lon="2.02685">
        <ele>161.785133</ele>
        <time>2021-05-01T07:02:45.321Z</time>
      </trkpt>
      <trkpt lat="43.76555" lon="2.02185">
        <ele>160.363316</ele>
        <time>2021-05-01T07:04:00.477Z</time>
      </trkpt>
      <trkpt lat="43.76542" lon="2.0202">
        <ele>159.916688</ele>
        <time>2021-05-01T07:04:25.726Z</time>
      </trkpt>
      <trkpt lat="43.7652" lon="2.01769">
        <ele>159.32145</ele>
        <time>2021-05-01T07:05:04.750Z</time>
      </trkpt>
      <trkpt lat="43.7649" lon="2.0144">
        <ele>158.249481</ele>
        <time>2021-05-01T07:05:54.241Z</time>
      </trkpt>
      <trkpt lat="43.76474" lon="2.01229">
        <ele>157.579878</ele>
        <time>2021-05-01T07:06:26.277Z</time>
      </trkpt>
      <trkpt lat="43.7644" lon="2.00788">
        <ele>156.513055</ele>
        <time>2021-05-01T07:07:32.866Z</time>
      </trkpt>
      <trkpt lat="43.76446" lon="2.00746">
        <ele>156.606727</ele>
        <time>2021-05-01T07:07:40.247Z</time>
      </trkpt>
      <trkpt lat="43.76448" lon="2.00742">
        <ele>156.620179</ele>
        <time>2021-05-01T07:07:41.319Z</time>
      </trkpt>
      <trkpt lat="43.7645" lon="2.00738">
        <ele>156.6295</ele>
        <time>2021-05-01T07:07:42.148Z</time>
      </trkpt>
      <trkpt lat="43.76449" lon="2.00717">
        <ele>156.675853</ele>
        <time>2021-05-01T07:07:45.908Z</time>
      </trkpt>
      <trkpt lat="43.76441" lon="2.00709">
        <ele>156.706</ele>
        <time>2021-05-01T07:07:48.381Z</time>
      </trkpt>
      <trkpt lat="43.76434" lon="2.00693">
        <ele>156.747656</ele>
        <time>2021-05-01T07:07:51.794Z</time>
      </trkpt>
      <trkpt lat="43.76429" lon="2.0066">
        <ele>156.82289</ele>
        <time>2021-05-01T07:07:57.881Z</time>
      </trkpt>
      <trkpt lat="43.7642" lon="2.00516">
        <ele>156.997474</ele>
        <time>2021-05-01T07:08:22.589Z</time>
      </trkpt>
      <trkpt lat="43.76412" lon="2.00454">
        <ele>157.011044</ele>
        <time>2021-05-01T07:08:32.653Z</time>
      </trkpt>
      <trkpt lat="43.76408" lon="2.00423">
        <ele>157.017645</ele>
        <time>2021-05-01T07:08:37.362Z</time>
      </trkpt>
      <trkpt lat="43.76406" lon="2.00347">
        <ele>157.034083</ele>
        <time>2021-05-01T07:08:49.445Z</time>
      </trkpt>
      <trkpt lat="43.76404" lon="2.0033">
        <ele>157.076219</ele>
        <time>2021-05-01T07:08:51.850Z</time>
      </trkpt>
      <trkpt lat="43.764" lon="2.0032">
        <ele>157.123988</ele>
        <time>2021-05-01T07:08:53.957Z</time>
      </trkpt>
      <trkpt lat="43.76392" lon="2.00313">
        <ele>157.176128</ele>
        <time>2021-05-01T07:08:56.041Z</time>
      </trkpt>
      <trkpt lat="43.76384" lon="2.00314">
        <ele>157.222711</ele>
        <time>2021-05-01T07:08:57.878Z</time>
      </trkpt>
      <trkpt lat="43.76379" lon="2.00316">
        <ele>157.251656</ele>
        <time>2021-05-01T07:08:58.923Z</time>
      </trkpt>
      <trkpt lat="43.76377" lon="2.0032">
        <ele>157.270979</ele>
        <time>2021-05-01T07:08:59.659Z</time>
      </trkpt>
      <trkpt lat="43.76361" lon="2.00325">
        <ele>157.35931</ele>
        <time>2021-05-01T07:09:03.475Z</time>
      </trkpt>
      <trkpt lat="43.76337" lon="2.00334">
        <ele>157.497725</ele>
        <time>2021-05-01T07:09:09.049Z</time>
      </trkpt>
      <trkpt lat="43.76337" lon="2.00334">
        <ele>157.497725</ele>
        <time>2021-05-01T07:09:09.126Z</time>
      </trkpt>
      <trkpt lat="43.76272" lon="2.00347">
        <ele>157.857663</ele>
        <time>2021-05-01T07:09:25.530Z</time>
      </trkpt>
      <trkpt lat="43.7624" lon="2.00354">
        <ele>158.055401</ele>
        <time>2021-05-01T07:09:34.255Z</time>
      </trkpt>
      <trkpt lat="43.76114" lon="2.00379">
        <ele>160.001314</ele>
        <time>2021-05-01T07:10:11.582Z</time>
      </trkpt>
      <trkpt lat="43.76113" lon="2.00377">
        <ele>160.02611</ele>
        <time>2021-05-01T07:10:12.081Z</time>
      </trkpt>
      <trkpt lat="43.76112" lon="2.00374">
        <ele>160.068349</ele>
        <time>2021-05-01T07:10:12.879Z</time>
      </trkpt>
      <trkpt lat="43.7611" lon="2.00372">
        <ele>160.097085</ele>
        <time>2021-05-01T07:10:13.449Z</time>
      </trkpt>
      <trkpt lat="43.76108" lon="2.0037">
        <ele>160.139923</ele>
        <time>2021-05-01T07:10:14.271Z</time>
      </trkpt>
      <trkpt lat="43.76104" lon="2.0037">
        <ele>160.197786</ele>
        <time>2021-05-01T07:10:15.380Z</time>
      </trkpt>
      <trkpt lat="43.76102" lon="2.00318">
        <ele>160.755963</ele>
        <time>2021-05-01T07:10:25.883Z</time>
      </trkpt>
      <trkpt lat="43.76098" lon="2.00241">
        <ele>161.03292</ele>
        <time>2021-05-01T07:10:40.762Z</time>
      </trkpt>
      <trkpt lat="43.76095" lon="2.00171">
        <ele>161.283787</ele>
        <time>2021-05-01T07:10:53.383Z</time>
      </trkpt>
      <trkpt lat="43.76084" lon="2.00097">
        <ele>161.554378</ele>
        <time>2021-05-01T07:11:05.553Z</time>
      </trkpt>
      <trkpt lat="43.76072" lon="2.00039">
        <ele>161.631092</ele>
        <time>2021-05-01T07:11:14.502Z</time>
      </trkpt>
      <trkpt lat="43.7606" lon="1.99984">
        <ele>161.612905</ele>
        <time>2021-05-01T07:11:23.026Z</time>
      </trkpt>
      <trkpt lat="43.76057" lon="1.99961">
        <ele>161.605283</ele>
        <time>2021-05-01T07:11:26.619Z</time>
      </trkpt>
      <trkpt lat="43.76051" lon="1.99915">
        <ele>161.590213</ele>
        <time>2021-05-01T07:11:33.745Z</time>
      </trkpt>
      <trkpt lat="43.76053" lon="1.99854">
        <ele>161.570506</ele>
        <time>2021-05-01T07:11:43.618Z</time>
      </trkpt>
      <trkpt lat="43.76057" lon="1.99822">
        <ele>161.647051</ele>
        <time>2021-05-01T07:11:49.597Z</time>
      </trkpt>
      <trkpt lat="43.76067" lon="1.99679">
        <ele>163.244475</ele>
        <time>2021-05-01T07:12:17.791Z</time>
      </trkpt>
      <trkpt lat="43.76066" lon="1.9967">
        <ele>163.347161</ele>
        <time>2021-05-01T07:12:20.136Z</time>
      </trkpt>
      <trkpt lat="43.76061" lon="1.99632">
        <ele>163.778696</ele>
        <time>2021-05-01T07:12:28.104Z</time>
      </trkpt>
      <trkpt lat="43.76058" lon="1.99617">
        <ele>163.954773</ele>
        <time>2021-05-01T07:12:32.137Z</time>
      </trkpt>
      <trkpt lat="43.76025" lon="1.99433">
        <ele>166.725655</ele>
        <time>2021-05-01T07:13:15.720Z</time>
      </trkpt>
      <trkpt lat="43.7601" lon="1.99412">
        <ele>167.193805</ele>
        <time>2021-05-01T07:13:22.229Z</time>
      </trkpt>
      <trkpt lat="43.7601" lon="1.99291">
        <ele>168.805878</ele>
        <time>2021-05-01T07:13:47.576Z</time>
      </trkpt>
      <trkpt lat="43.7601" lon="1.99194">
        <ele>169.876904</ele>
        <time>2021-05-01T07:14:08.198Z</time>
      </trkpt>
      <trkpt lat="43.7601" lon="1.99149">
        <ele>170.377155</ele>
        <time>2021-05-01T07:14:17.521Z</time>
      </trkpt>
      <trkpt lat="43.76011" lon="1.99089">
        <ele>170.933731</ele>
        <time>2021-05-01T07:14:29.393Z</time>
      </trkpt>
      <trkpt lat="43.7601" lon="1.99034">
        <ele>170.964248</ele>
        <time>2021-05-01T07:14:39.252Z</time>
      </trkpt>
      <trkpt lat="43.7601" lon="1.98945">
        <ele>171.014226</ele>
        <time>2021-05-01T07:14:53.812Z</time>
      </trkpt>
      <trkpt lat="43.76009" lon="1.98902">
        <ele>171.038195</ele>
        <time>2021-05-01T07:15:00.061Z</time>
      </trkpt>
      <trkpt lat="43.7601" lon="1.98893">
        <ele>171.043825</ele>
        <time>2021-05-01T07:15:01.599Z</time>
      </trkpt>
      <trkpt lat="43.76013" lon="1.98883">
        <ele>171.049992</ele>
        <time>2021-05-01T07:15:03.119Z</time>
      </trkpt>
      <trkpt lat="43.76018" lon="1.98884">
        <ele>171.053361</ele>
        <time>2021-05-01T07:15:03.989Z</time>
      </trkpt>
      <trkpt lat="43.76022" lon="1.98882">
        <ele>171.056769</ele>
        <time>2021-05-01T07:15:04.839Z</time>
      </trkpt>
      <trkpt lat="43.76024" lon="1.98876">
        <ele>171.060209</ele>
        <time>2021-05-01T07:15:05.772Z</time>
      </trkpt>
      <trkpt lat="43.76022" lon="1.98869">
        <ele>171.064318</ele>
        <time>2021-05-01T07:15:06.855Z</time>
      </trkpt>
      <trkpt lat="43.76018" lon="1.98865">
        <ele>171.063739</ele>
        <time>2021-05-01T07:15:07.885Z</time>
      </trkpt>
      <trkpt lat="43.76013" lon="1.98867">
        <ele>171.03756</ele>
        <time>2021-05-01T07:15:09.077Z</time>
      </trkpt>
      <trkpt lat="43.76011" lon="1.98858">
        <ele>171.003339</ele>
        <time>2021-05-01T07:15:10.365Z</time>
      </trkpt>
      <trkpt lat="43.76012" lon="1.9884">
        <ele>170.937585</ele>
        <time>2021-05-01T07:15:13.058Z</time>
      </trkpt>
      <trkpt lat="43.76011" lon="1.98824">
        <ele>170.881147</ele>
        <time>2021-05-01T07:15:15.423Z</time>
      </trkpt>
      <trkpt lat="43.7601" lon="1.98801">
        <ele>170.798983</ele>
        <time>2021-05-01T07:15:18.835Z</time>
      </trkpt>
      <trkpt lat="43.76011" lon="1.988">
        <ele>170.796438</ele>
        <time>2021-05-01T07:15:18.910Z</time>
      </trkpt>
      <trkpt lat="43.76013" lon="1.98784">
        <ele>170.736892</ele>
        <time>2021-05-01T07:15:21.610Z</time>
      </trkpt>
      <trkpt lat="43.7602" lon="1.98766">
        <ele>170.66467</ele>
        <time>2021-05-01T07:15:24.727Z</time>
      </trkpt>
      <trkpt lat="43.76034" lon="1.9875">
        <ele>170.577595</ele>
        <time>2021-05-01T07:15:28.263Z</time>
      </trkpt>
      <trkpt lat="43.76042" lon="1.98741">
        <ele>170.524635</ele>
        <time>2021-05-01T07:15:30.399Z</time>
      </trkpt>
      <trkpt lat="43.76061" lon="1.98723">
        <ele>170.411744</ele>
        <time>2021-05-01T07:15:34.813Z</time>
      </trkpt>
      <trkpt lat="43.76084" lon="1.98688">
        <ele>170.241688</ele>
        <time>2021-05-01T07:15:41.805Z</time>
      </trkpt>
      <trkpt lat="43.76086" lon="1.98679">
        <ele>170.208376</ele>
        <time>2021-05-01T07:15:43.171Z</time>
      </trkpt>
      <trkpt lat="43.76031" lon="1.98652">
        <ele>170.368755</ele>
        <time>2021-05-01T07:15:56.395Z</time>
      </trkpt>
      <trkpt lat="43.76086" lon="1.98679">
        <ele>170.579326</ele>
        <time>2021-05-01T07:16:10.641Z</time>
      </trkpt>
      <trkpt lat="43.76086" lon="1.98663">
        <ele>170.619877</ele>
        <time>2021-05-01T07:16:13.774Z</time>
      </trkpt>
      <trkpt lat="43.76085" lon="1.9852">
        <ele>171.073128</ele>
        <time>2021-05-01T07:16:39.089Z</time>
      </trkpt>
      <trkpt lat="43.76086" lon="1.98256">
        <ele>171.998626</ele>
        <time>2021-05-01T07:17:25.606Z</time>
      </trkpt>
      <trkpt lat="43.76085" lon="1.97904">
        <ele>172.813667</ele>
        <time>2021-05-01T07:18:25.249Z</time>
      </trkpt>
      <trkpt lat="43.76086" lon="1.9776">
        <ele>172.761276</ele>
        <time>2021-05-01T07:18:49.873Z</time>
      </trkpt>
      <trkpt lat="43.76086" lon="1.97616">
        <ele>172.391146</ele>
        <time>2021-05-01T07:19:10.644Z</time>
      </trkpt>
      <trkpt lat="43.76087" lon="1.97539">
        <ele>172.29595</ele>
        <time>2021-05-01T07:19:21.853Z</time>
      </trkpt>
      <trkpt lat="43.76089" lon="1.97522">
        <ele>172.288938</ele>
        <time>2021-05-01T07:19:24.397Z</time>
      </trkpt>
      <trkpt lat="43.76092" lon="1.97513">
        <ele>172.284791</ele>
        <time>2021-05-01T07:19:26.130Z</time>
      </trkpt>
      <trkpt lat="43.76105" lon="1.97494">
        <ele>172.274487</ele>
        <time>2021-05-01T07:19:30.250Z</time>
      </trkpt>
      <trkpt lat="43.76114" lon="1.97482">
        <ele>172.267421</ele>
        <time>2021-05-01T07:19:32.944Z</time>
      </trkpt>
      <trkpt lat="43.76124" lon="1.97481">
        <ele>172.261878</ele>
        <time>2021-05-01T07:19:35.151Z</time>
      </trkpt>
      <trkpt lat="43.76132" lon="1.97475">
        <ele>172.256892</ele>
        <time>2021-05-01T07:19:37.318Z</time>
      </trkpt>
      <trkpt lat="43.76136" lon="1.97468">
        <ele>172.253153</ele>
        <time>2021-05-01T07:19:38.798Z</time>
      </trkpt>
      <trkpt lat="43.76139" lon="1.97458">
        <ele>172.248777</ele>
        <time>2021-05-01T07:19:40.474Z</time>
      </trkpt>
      <trkpt lat="43.7614" lon="1.97448">
        <ele>172.244496</ele>
        <time>2021-05-01T07:19:42.357Z</time>
      </trkpt>
      <trkpt lat="43.76138" lon="1.97437">
        <ele>172.240167</ele>
        <time>2021-05-01T07:19:44.161Z</time>
      </trkpt>
      <trkpt lat="43.76131" lon="1.97428">
        <ele>172.234666</ele>
        <time>2021-05-01T07:19:46.480Z</time>
      </trkpt>
      <trkpt lat="43.76126" lon="1.97426">
        <ele>172.231735</ele>
        <time>2021-05-01T07:19:47.585Z</time>
      </trkpt>
      <trkpt lat="43.7612" lon="1.97424">
        <ele>172.228383</ele>
        <time>2021-05-01T07:19:48.843Z</time>
      </trkpt>
      <trkpt lat="43.76116" lon="1.97424">
        <ele>172.226148</ele>
        <time>2021-05-01T07:19:49.821Z</time>
      </trkpt>
      <trkpt lat="43.76106" lon="1.97418">
        <ele>172.220044</ele>
        <time>2021-05-01T07:19:52.453Z</time>
      </trkpt>
      <trkpt lat="43.76096" lon="1.97407">
        <ele>172.217447</ele>
        <time>2021-05-01T07:19:55.379Z</time>
      </trkpt>
      <trkpt lat="43.76083" lon="1.97368">
        <ele>172.245968</ele>
        <time>2021-05-01T07:20:03.004Z</time>
      </trkpt>
      <trkpt lat="43.76075" lon="1.97333">
        <ele>172.269871</ele>
        <time>2021-05-01T07:20:09.528Z</time>
      </trkpt>
      <trkpt lat="43.76066" lon="1.97279">
        <ele>172.306525</ele>
        <time>2021-05-01T07:20:19.871Z</time>
      </trkpt>
      <trkpt lat="43.7606" lon="1.97223">
        <ele>172.343755</ele>
        <time>2021-05-01T07:20:29.812Z</time>
      </trkpt>
      <trkpt lat="43.76045" lon="1.97106">
        <ele>172.056346</ele>
        <time>2021-05-01T07:20:45.970Z</time>
      </trkpt>
      <trkpt lat="43.76036" lon="1.97061">
        <ele>171.826039</ele>
        <time>2021-05-01T07:20:51.907Z</time>
      </trkpt>
      <trkpt lat="43.76034" lon="1.97051">
        <ele>171.771976</ele>
        <time>2021-05-01T07:20:53.206Z</time>
      </trkpt>
      <trkpt lat="43.76028" lon="1.97028">
        <ele>171.655154</ele>
        <time>2021-05-01T07:20:56.664Z</time>
      </trkpt>
      <trkpt lat="43.76027" lon="1.9701">
        <ele>171.565532</ele>
        <time>2021-05-01T07:20:59.212Z</time>
      </trkpt>
      <trkpt lat="43.76031" lon="1.97001">
        <ele>171.513603</ele>
        <time>2021-05-01T07:21:00.502Z</time>
      </trkpt>
      <trkpt lat="43.76032" lon="1.9699">
        <ele>171.458977</ele>
        <time>2021-05-01T07:21:02.107Z</time>
      </trkpt>
      <trkpt lat="43.7603" lon="1.96981">
        <ele>171.409381</ele>
        <time>2021-05-01T07:21:03.958Z</time>
      </trkpt>
      <trkpt lat="43.76027" lon="1.96977">
        <ele>171.379207</ele>
        <time>2021-05-01T07:21:04.987Z</time>
      </trkpt>
      <trkpt lat="43.76023" lon="1.96973">
        <ele>171.346347</ele>
        <time>2021-05-01T07:21:05.984Z</time>
      </trkpt>
      <trkpt lat="43.76019" lon="1.96964">
        <ele>171.295548</ele>
        <time>2021-05-01T07:21:07.278Z</time>
      </trkpt>
      <trkpt lat="43.76016" lon="1.96949">
        <ele>171.220282</ele>
        <time>2021-05-01T07:21:09.414Z</time>
      </trkpt>
      <trkpt lat="43.76013" lon="1.96902">
        <ele>172.301653</ele>
        <time>2021-05-01T07:21:19.038Z</time>
      </trkpt>
      <trkpt lat="43.76009" lon="1.96869">
        <ele>173.439439</ele>
        <time>2021-05-01T07:21:28.037Z</time>
      </trkpt>
      <trkpt lat="43.76008" lon="1.96856">
        <ele>173.906179</ele>
        <time>2021-05-01T07:21:30.868Z</time>
      </trkpt>
      <trkpt lat="43.75991" lon="1.96852">
        <ele>174.725828</ele>
        <time>2021-05-01T07:21:38.591Z</time>
      </trkpt>
      <trkpt lat="43.75933" lon="1.96826">
        <ele>177.598253</ele>
        <time>2021-05-01T07:22:04.684Z</time>
      </trkpt>
      <trkpt lat="43.75919" lon="1.96817">
        <ele>178.317227</ele>
        <time>2021-05-01T07:22:12.996Z</time>
      </trkpt>
      <trkpt lat="43.75884" lon="1.96793">
        <ele>180.574503</ele>
        <time>2021-05-01T07:22:33.884Z</time>
      </trkpt>
      <trkpt lat="43.75756" lon="1.96678">
        <ele>193.08031</ele>
        <time>2021-05-01T07:24:00.403Z</time>
      </trkpt>
      <trkpt lat="43.75716" lon="1.96648">
        <ele>196.412391</ele>
        <time>2021-05-01T07:24:24.368Z</time>
      </trkpt>
      <trkpt lat="43.75668" lon="1.96623">
        <ele>199.911196</ele>
        <time>2021-05-01T07:24:50.505Z</time>
      </trkpt>
      <trkpt lat="43.75621" lon="1.96617">
        <ele>203.137232</ele>
        <time>2021-05-01T07:25:13.711Z</time>
      </trkpt>
      <trkpt lat="43.75598" lon="1.96614">
        <ele>204.667886</ele>
        <time>2021-05-01T07:25:24.456Z</time>
      </trkpt>
      <trkpt lat="43.75554" lon="1.96617">
        <ele>207.391939</ele>
        <time>2021-05-01T07:25:45.006Z</time>
      </trkpt>
      <trkpt lat="43.75438" lon="1.96597">
        <ele>212.803739</ele>
        <time>2021-05-01T07:26:34.694Z</time>
      </trkpt>
      <trkpt lat="43.7531" lon="1.9654">
        <ele>216.710611</ele>
        <time>2021-05-01T07:27:20.659Z</time>
      </trkpt>
      <trkpt lat="43.75283" lon="1.96522">
        <ele>217.300815</ele>
        <time>2021-05-01T07:27:29.697Z</time>
      </trkpt>
      <trkpt lat="43.75093" lon="1.96398">
        <ele>218.854938</ele>
        <time>2021-05-01T07:28:19.816Z</time>
      </trkpt>
      <trkpt lat="43.74946" lon="1.96303">
        <ele>218.811384</ele>
        <time>2021-05-01T07:28:52.926Z</time>
      </trkpt>
      <trkpt lat="43.74942" lon="1.96301">
        <ele>218.807611</ele>
        <time>2021-05-01T07:28:53.675Z</time>
      </trkpt>
      <trkpt lat="43.7489" lon="1.96272">
        <ele>219.033227</ele>
        <time>2021-05-01T07:29:06.955Z</time>
      </trkpt>
      <trkpt lat="43.74851" lon="1.96252">
        <ele>220.379718</ele>
        <time>2021-05-01T07:29:19.182Z</time>
      </trkpt>
      <trkpt lat="43.74807" lon="1.96243">
        <ele>221.816064</ele>
        <time>2021-05-01T07:29:34.599Z</time>
      </trkpt>
      <trkpt lat="43.7475" lon="1.96243">
        <ele>223.644953</ele>
        <time>2021-05-01T07:29:56.920Z</time>
      </trkpt>
      <trkpt lat="43.74724" lon="1.96246">
        <ele>224.500881</ele>
        <time>2021-05-01T07:30:08.096Z</time>
      </trkpt>
      <trkpt lat="43.7466" lon="1.96253">
        <ele>228.148804</ele>
        <time>2021-05-01T07:30:36.041Z</time>
      </trkpt>
      <trkpt lat="43.74564" lon="1.96236">
        <ele>233.728968</ele>
        <time>2021-05-01T07:31:21.399Z</time>
      </trkpt>
      <trkpt lat="43.745" lon="1.96208">
        <ele>238.028333</ele>
        <time>2021-05-01T07:31:52.088Z</time>
      </trkpt>
      <trkpt lat="43.74327" lon="1.96154">
        <ele>249.954372</ele>
        <time>2021-05-01T07:33:21.612Z</time>
      </trkpt>
      <trkpt lat="43.74297" lon="1.96135">
        <ele>252.130143</ele>
        <time>2021-05-01T07:33:38.956Z</time>
      </trkpt>
      <trkpt lat="43.74288" lon="1.96118">
        <ele>253.164142</ele>
        <time>2021-05-01T07:33:47.586Z</time>
      </trkpt>
      <trkpt lat="43.74256" lon="1.96052">
        <ele>256.949209</ele>
        <time>2021-05-01T07:34:14.990Z</time>
      </trkpt>
      <trkpt lat="43.74232" lon="1.96026">
        <ele>258.947672</ele>
        <time>2021-05-01T07:34:28.748Z</time>
      </trkpt>
      <trkpt lat="43.74198" lon="1.95983">
        <ele>259.700484</ele>
        <time>2021-05-01T07:34:47.657Z</time>
      </trkpt>
      <trkpt lat="43.74174" lon="1.95966">
        <ele>260.134844</ele>
        <time>2021-05-01T07:34:57.790Z</time>
      </trkpt>
      <trkpt lat="43.74152" lon="1.9596">
        <ele>260.501238</ele>
        <time>2021-05-01T07:35:04.302Z</time>
      </trkpt>
      <trkpt lat="43.74093" lon="1.95965">
        <ele>261.44204</ele>
        <time>2021-05-01T07:35:16.595Z</time>
      </trkpt>
      <trkpt lat="43.74033" lon="1.95982">
        <ele>260.982252</ele>
        <time>2021-05-01T07:35:27.189Z</time>
      </trkpt>
      <trkpt lat="43.73925" lon="1.96028">
        <ele>258.274511</ele>
        <time>2021-05-01T07:35:45.907Z</time>
      </trkpt>
      <trkpt lat="43.73897" lon="1.96036">
        <ele>257.570121</ele>
        <time>2021-05-01T07:35:50.906Z</time>
      </trkpt>
      <trkpt lat="43.73876" lon="1.96032">
        <ele>257.357945</ele>
        <time>2021-05-01T07:35:54.473Z</time>
      </trkpt>
      <trkpt lat="43.73859" lon="1.96022">
        <ele>257.196399</ele>
        <time>2021-05-01T07:35:57.744Z</time>
      </trkpt>
      <trkpt lat="43.73842" lon="1.96">
        <ele>256.985495</ele>
        <time>2021-05-01T07:36:02.129Z</time>
      </trkpt>
      <trkpt lat="43.73821" lon="1.95956">
        <ele>256.652723</ele>
        <time>2021-05-01T07:36:09.369Z</time>
      </trkpt>
      <trkpt lat="43.73742" lon="1.95739">
        <ele>255.768911</ele>
        <time>2021-05-01T07:36:49.795Z</time>
      </trkpt>
      <trkpt lat="43.73686" lon="1.95664">
        <ele>255.62592</ele>
        <time>2021-05-01T07:37:06.497Z</time>
      </trkpt>
      <trkpt lat="43.73678" lon="1.95649">
        <ele>255.479066</ele>
        <time>2021-05-01T07:37:09.200Z</time>
      </trkpt>
      <trkpt lat="43.73676" lon="1.95639">
        <ele>255.300113</ele>
        <time>2021-05-01T07:37:10.485Z</time>
      </trkpt>
      <trkpt lat="43.73679" lon="1.95547">
        <ele>253.729753</ele>
        <time>2021-05-01T07:37:22.810Z</time>
      </trkpt>
      <trkpt lat="43.73676" lon="1.95511">
        <ele>253.126365</ele>
        <time>2021-05-01T07:37:27.232Z</time>
      </trkpt>
      <trkpt lat="43.73667" lon="1.95479">
        <ele>252.536113</ele>
        <time>2021-05-01T07:37:31.399Z</time>
      </trkpt>
      <trkpt lat="43.7359" lon="1.95325">
        <ele>247.48348</ele>
        <time>2021-05-01T07:37:52.679Z</time>
      </trkpt>
      <trkpt lat="43.73558" lon="1.9525">
        <ele>244.632125</ele>
        <time>2021-05-01T07:38:02.285Z</time>
      </trkpt>
      <trkpt lat="43.73547" lon="1.95203">
        <ele>242.983087</ele>
        <time>2021-05-01T07:38:07.603Z</time>
      </trkpt>
      <trkpt lat="43.73538" lon="1.95133">
        <ele>240.082711</ele>
        <time>2021-05-01T07:38:15.287Z</time>
      </trkpt>
      <trkpt lat="43.73535" lon="1.95074">
        <ele>237.657559</ele>
        <time>2021-05-01T07:38:21.664Z</time>
      </trkpt>
      <trkpt lat="43.73574" lon="1.94993">
        <ele>233.702761</ele>
        <time>2021-05-01T07:38:31.977Z</time>
      </trkpt>
      <trkpt lat="43.73571" lon="1.9496">
        <ele>232.356688</ele>
        <time>2021-05-01T07:38:35.517Z</time>
      </trkpt>
      <trkpt lat="43.7356" lon="1.94936">
        <ele>231.213529</ele>
        <time>2021-05-01T07:38:38.553Z</time>
      </trkpt>
      <trkpt lat="43.73541" lon="1.94915">
        <ele>229.853409</ele>
        <time>2021-05-01T07:38:42.159Z</time>
      </trkpt>
      <trkpt lat="43.73507" lon="1.94899">
        <ele>227.825896</ele>
        <time>2021-05-01T07:38:47.491Z</time>
      </trkpt>
      <trkpt lat="43.73461" lon="1.94899">
        <ele>225.263135</ele>
        <time>2021-05-01T07:38:54.280Z</time>
      </trkpt>
      <trkpt lat="43.7344" lon="1.94866">
        <ele>223.487934</ele>
        <time>2021-05-01T07:38:59.040Z</time>
      </trkpt>
      <trkpt lat="43.73411" lon="1.94806">
        <ele>221.377627</ele>
        <time>2021-05-01T07:39:07.030Z</time>
      </trkpt>
      <trkpt lat="43.73342" lon="1.94629">
        <ele>216.205675</ele>
        <time>2021-05-01T07:39:30.424Z</time>
      </trkpt>
      <trkpt lat="43.73334" lon="1.94601">
        <ele>215.998776</ele>
        <time>2021-05-01T07:39:34.278Z</time>
      </trkpt>
      <trkpt lat="43.73332" lon="1.94543">
        <ele>215.603049</ele>
        <time>2021-05-01T07:39:41.965Z</time>
      </trkpt>
      <trkpt lat="43.73324" lon="1.94516">
        <ele>215.401447</ele>
        <time>2021-05-01T07:39:46.233Z</time>
      </trkpt>
      <trkpt lat="43.73311" lon="1.94497">
        <ele>215.224025</ele>
        <time>2021-05-01T07:39:50.029Z</time>
      </trkpt>
      <trkpt lat="43.73299" lon="1.94491">
        <ele>215.096334</ele>
        <time>2021-05-01T07:39:53.078Z</time>
      </trkpt>
      <trkpt lat="43.73283" lon="1.9449">
        <ele>214.950578</ele>
        <time>2021-05-01T07:39:56.236Z</time>
      </trkpt>
      <trkpt lat="43.73251" lon="1.94488">
        <ele>214.646715</ele>
        <time>2021-05-01T07:40:03.850Z</time>
      </trkpt>
      <trkpt lat="43.73194" lon="1.94476">
        <ele>214.849567</ele>
        <time>2021-05-01T07:40:18.057Z</time>
      </trkpt>
      <trkpt lat="43.73167" lon="1.94459">
        <ele>214.993729</ele>
        <time>2021-05-01T07:40:25.436Z</time>
      </trkpt>
      <trkpt lat="43.73152" lon="1.94444">
        <ele>215.085662</ele>
        <time>2021-05-01T07:40:30.110Z</time>
      </trkpt>
      <trkpt lat="43.73134" lon="1.94417">
        <ele>215.214442</ele>
        <time>2021-05-01T07:40:36.843Z</time>
      </trkpt>
      <trkpt lat="43.73121" lon="1.94388">
        <ele>215.336267</ele>
        <time>2021-05-01T07:40:43.395Z</time>
      </trkpt>
      <trkpt lat="43.73114" lon="1.9436">
        <ele>215.438577</ele>
        <time>2021-05-01T07:40:48.557Z</time>
      </trkpt>
      <trkpt lat="43.73091" lon="1.94127">
        <ele>215.231121</ele>
        <time>2021-05-01T07:41:24.843Z</time>
      </trkpt>
      <trkpt lat="43.73066" lon="1.94024">
        <ele>215.148562</ele>
        <time>2021-05-01T07:41:41.906Z</time>
      </trkpt>
      <trkpt lat="43.73048" lon="1.93981">
        <ele>215.115088</ele>
        <time>2021-05-01T07:41:49.904Z</time>
      </trkpt>
      <trkpt lat="43.73043" lon="1.9397">
        <ele>215.106678</ele>
        <time>2021-05-01T07:41:51.885Z</time>
      </trkpt>
      <trkpt lat="43.73038" lon="1.9396">
        <ele>215.098803</ele>
        <time>2021-05-01T07:41:53.609Z</time>
      </trkpt>
      <trkpt lat="43.73022" lon="1.93931">
        <ele>215.073538</ele>
        <time>2021-05-01T07:41:59.735Z</time>
      </trkpt>
      <trkpt lat="43.72977" lon="1.93856">
        <ele>214.889662</ele>
        <time>2021-05-01T07:42:14.979Z</time>
      </trkpt>
      <trkpt lat="43.72931" lon="1.93793">
        <ele>214.588698</ele>
        <time>2021-05-01T07:42:29.396Z</time>
      </trkpt>
      <trkpt lat="43.72872" lon="1.93694">
        <ele>214.092256</ele>
        <time>2021-05-01T07:42:47.691Z</time>
      </trkpt>
      <trkpt lat="43.7284" lon="1.9365">
        <ele>213.569051</ele>
        <time>2021-05-01T07:42:56.061Z</time>
      </trkpt>
      <trkpt lat="43.728" lon="1.93603">
        <ele>212.955387</ele>
        <time>2021-05-01T07:43:05.959Z</time>
      </trkpt>
      <trkpt lat="43.72799" lon="1.93602">
        <ele>212.938006</ele>
        <time>2021-05-01T07:43:06.249Z</time>
      </trkpt>
      <trkpt lat="43.72789" lon="1.93588">
        <ele>212.777017</ele>
        <time>2021-05-01T07:43:08.787Z</time>
      </trkpt>
      <trkpt lat="43.72766" lon="1.93548">
        <ele>212.346985</ele>
        <time>2021-05-01T07:43:15.718Z</time>
      </trkpt>
      <trkpt lat="43.72692" lon="1.93377">
        <ele>211.130235</ele>
        <time>2021-05-01T07:43:43.738Z</time>
      </trkpt>
      <trkpt lat="43.72652" lon="1.93318">
        <ele>210.667533</ele>
        <time>2021-05-01T07:43:56.184Z</time>
      </trkpt>
      <trkpt lat="43.7261" lon="1.93262">
        <ele>210.170081</ele>
        <time>2021-05-01T07:44:08.525Z</time>
      </trkpt>
      <trkpt lat="43.72582" lon="1.93224">
        <ele>209.836344</ele>
        <time>2021-05-01T07:44:16.482Z</time>
      </trkpt>
      <trkpt lat="43.72563" lon="1.93196">
        <ele>209.598266</ele>
        <time>2021-05-01T07:44:21.998Z</time>
      </trkpt>
      <trkpt lat="43.72547" lon="1.93165">
        <ele>209.363742</ele>
        <time>2021-05-01T07:44:27.371Z</time>
      </trkpt>
      <trkpt lat="43.72435" lon="1.92875">
        <ele>204.699063</ele>
        <time>2021-05-01T07:45:08.821Z</time>
      </trkpt>
      <trkpt lat="43.72422" lon="1.9285">
        <ele>204.205508</ele>
        <time>2021-05-01T07:45:12.511Z</time>
      </trkpt>
      <trkpt lat="43.7239" lon="1.92815">
        <ele>203.277434</ele>
        <time>2021-05-01T07:45:19.475Z</time>
      </trkpt>
      <trkpt lat="43.7232" lon="1.92774">
        <ele>201.574641</ele>
        <time>2021-05-01T07:45:32.615Z</time>
      </trkpt>
      <trkpt lat="43.7228" lon="1.92727">
        <ele>200.879082</ele>
        <time>2021-05-01T07:45:42.053Z</time>
      </trkpt>
      <trkpt lat="43.72195" lon="1.92633">
        <ele>199.578165</ele>
        <time>2021-05-01T07:46:02.930Z</time>
      </trkpt>
      <trkpt lat="43.7214" lon="1.92577">
        <ele>198.7658</ele>
        <time>2021-05-01T07:46:16.841Z</time>
      </trkpt>
      <trkpt lat="43.72042" lon="1.92494">
        <ele>197.399675</ele>
        <time>2021-05-01T07:46:38.903Z</time>
      </trkpt>
      <trkpt lat="43.71967" lon="1.92451">
        <ele>195.576624</ele>
        <time>2021-05-01T07:46:52.966Z</time>
      </trkpt>
      <trkpt lat="43.71807" lon="1.92387">
        <ele>191.072239</ele>
        <time>2021-05-01T07:47:20.332Z</time>
      </trkpt>
      <trkpt lat="43.71602" lon="1.92212">
        <ele>184.53764</ele>
        <time>2021-05-01T07:48:00.592Z</time>
      </trkpt>
      <trkpt lat="43.71592" lon="1.92196">
        <ele>184.169246</ele>
        <time>2021-05-01T07:48:03.124Z</time>
      </trkpt>
      <trkpt lat="43.71583" lon="1.92165">
        <ele>183.560687</ele>
        <time>2021-05-01T07:48:07.345Z</time>
      </trkpt>
      <trkpt lat="43.71583" lon="1.92083">
        <ele>182.359733</ele>
        <time>2021-05-01T07:48:17.801Z</time>
      </trkpt>
      <trkpt lat="43.71579" lon="1.92068">
        <ele>182.199868</ele>
        <time>2021-05-01T07:48:19.836Z</time>
      </trkpt>
      <trkpt lat="43.71496" lon="1.91925">
        <ele>180.340831</ele>
        <time>2021-05-01T07:48:44.635Z</time>
      </trkpt>
      <trkpt lat="43.71487" lon="1.91899">
        <ele>180.085364</ele>
        <time>2021-05-01T07:48:48.799Z</time>
      </trkpt>
      <trkpt lat="43.7148" lon="1.91868">
        <ele>179.850044</ele>
        <time>2021-05-01T07:48:53.410Z</time>
      </trkpt>
      <trkpt lat="43.71479" lon="1.9183">
        <ele>179.570852</ele>
        <time>2021-05-01T07:48:58.742Z</time>
      </trkpt>
      <trkpt lat="43.71483" lon="1.91763">
        <ele>179.075033</ele>
        <time>2021-05-01T07:49:08.261Z</time>
      </trkpt>
      <trkpt lat="43.71493" lon="1.9166">
        <ele>178.295349</ele>
        <time>2021-05-01T07:49:22.753Z</time>
      </trkpt>
      <trkpt lat="43.71498" lon="1.91624">
        <ele>177.925691</ele>
        <time>2021-05-01T07:49:27.846Z</time>
      </trkpt>
      <trkpt lat="43.71503" lon="1.91554">
        <ele>177.235079</ele>
        <time>2021-05-01T07:49:37.322Z</time>
      </trkpt>
      <trkpt lat="43.715" lon="1.91461">
        <ele>176.307763</ele>
        <time>2021-05-01T07:49:49.703Z</time>
      </trkpt>
      <trkpt lat="43.71475" lon="1.91268">
        <ele>174.55548</ele>
        <time>2021-05-01T07:50:15.901Z</time>
      </trkpt>
      <trkpt lat="43.71463" lon="1.91224">
        <ele>174.149292</ele>
        <time>2021-05-01T07:50:22.317Z</time>
      </trkpt>
      <trkpt lat="43.71417" lon="1.91115">
        <ele>173.499362</ele>
        <time>2021-05-01T07:50:40.570Z</time>
      </trkpt>
      <trkpt lat="43.71387" lon="1.91025">
        <ele>173.204621</ele>
        <time>2021-05-01T07:50:55.817Z</time>
      </trkpt>
      <trkpt lat="43.71376" lon="1.90994">
        <ele>173.101955</ele>
        <time>2021-05-01T07:51:01.218Z</time>
      </trkpt>
      <trkpt lat="43.71365" lon="1.90962">
        <ele>172.998306</ele>
        <time>2021-05-01T07:51:06.779Z</time>
      </trkpt>
      <trkpt lat="43.71331" lon="1.90914">
        <ele>172.791669</ele>
        <time>2021-05-01T07:51:17.449Z</time>
      </trkpt>
      <trkpt lat="43.71324" lon="1.90894">
        <ele>172.724451</ele>
        <time>2021-05-01T07:51:20.955Z</time>
      </trkpt>
      <trkpt lat="43.71296" lon="1.90742">
        <ele>172.245304</ele>
        <time>2021-05-01T07:51:44.507Z</time>
      </trkpt>
      <trkpt lat="43.71296" lon="1.90616">
        <ele>171.190529</ele>
        <time>2021-05-01T07:52:01.949Z</time>
      </trkpt>
      <trkpt lat="43.71273" lon="1.90442">
        <ele>169.720402</ele>
        <time>2021-05-01T07:52:25.620Z</time>
      </trkpt>
      <trkpt lat="43.71265" lon="1.90379">
        <ele>169.20607</ele>
        <time>2021-05-01T07:52:34.337Z</time>
      </trkpt>
      <trkpt lat="43.71261" lon="1.90353">
        <ele>168.993939</ele>
        <time>2021-05-01T07:52:37.920Z</time>
      </trkpt>
      <trkpt lat="43.71258" lon="1.90326">
        <ele>168.776275</ele>
        <time>2021-05-01T07:52:41.702Z</time>
      </trkpt>
      <trkpt lat="43.71219" lon="1.90027">
        <ele>166.792613</ele>
        <time>2021-05-01T07:53:25.216Z</time>
      </trkpt>
      <trkpt lat="43.71217" lon="1.89956">
        <ele>166.363199</ele>
        <time>2021-05-01T07:53:35.331Z</time>
      </trkpt>
      <trkpt lat="43.71218" lon="1.89918">
        <ele>166.126971</ele>
        <time>2021-05-01T07:53:40.810Z</time>
      </trkpt>
      <trkpt lat="43.71218" lon="1.89847">
        <ele>165.690825</ele>
        <time>2021-05-01T07:53:50.966Z</time>
      </trkpt>
      <trkpt lat="43.71165" lon="1.89551">
        <ele>163.796519</ele>
        <time>2021-05-01T07:54:34.201Z</time>
      </trkpt>
      <trkpt lat="43.71147" lon="1.89428">
        <ele>163.067361</ele>
        <time>2021-05-01T07:54:51.959Z</time>
      </trkpt>
      <trkpt lat="43.71092" lon="1.89295">
        <ele>162.209288</ele>
        <time>2021-05-01T07:55:14.014Z</time>
      </trkpt>
      <trkpt lat="43.71058" lon="1.89144">
        <ele>161.410489</ele>
        <time>2021-05-01T07:55:36.963Z</time>
      </trkpt>
      <trkpt lat="43.71055" lon="1.89125">
        <ele>161.313326</ele>
        <time>2021-05-01T07:55:39.854Z</time>
      </trkpt>
      <trkpt lat="43.71056" lon="1.89095">
        <ele>161.161606</ele>
        <time>2021-05-01T07:55:44.188Z</time>
      </trkpt>
      <trkpt lat="43.71065" lon="1.89042">
        <ele>160.88658</ele>
        <time>2021-05-01T07:55:52.272Z</time>
      </trkpt>
      <trkpt lat="43.7107" lon="1.89005">
        <ele>160.700531</ele>
        <time>2021-05-01T07:55:57.688Z</time>
      </trkpt>
      <trkpt lat="43.71084" lon="1.88913">
        <ele>160.228931</ele>
        <time>2021-05-01T07:56:11.410Z</time>
      </trkpt>
      <trkpt lat="43.71093" lon="1.8881">
        <ele>159.709388</ele>
        <time>2021-05-01T07:56:26.393Z</time>
      </trkpt>
      <trkpt lat="43.71092" lon="1.88746">
        <ele>159.218801</ele>
        <time>2021-05-01T07:56:35.630Z</time>
      </trkpt>
      <trkpt lat="43.71089" lon="1.88675">
        <ele>158.646887</ele>
        <time>2021-05-01T07:56:45.743Z</time>
      </trkpt>
      <trkpt lat="43.71068" lon="1.8856">
        <ele>157.694694</ele>
        <time>2021-05-01T07:57:01.742Z</time>
      </trkpt>
      <trkpt lat="43.71064" lon="1.88512">
        <ele>157.165023</ele>
        <time>2021-05-01T07:57:08.074Z</time>
      </trkpt>
      <trkpt lat="43.71071" lon="1.88416">
        <ele>156.098212</ele>
        <time>2021-05-01T07:57:20.649Z</time>
      </trkpt>
      <trkpt lat="43.71069" lon="1.88389">
        <ele>155.801416</ele>
        <time>2021-05-01T07:57:24.082Z</time>
      </trkpt>
      <trkpt lat="43.71058" lon="1.8835">
        <ele>155.330907</ele>
        <time>2021-05-01T07:57:29.725Z</time>
      </trkpt>
      <trkpt lat="43.71015" lon="1.88225">
        <ele>154.408432</ele>
        <time>2021-05-01T07:57:48.635Z</time>
      </trkpt>
      <trkpt lat="43.70949" lon="1.87972">
        <ele>153.146875</ele>
        <time>2021-05-01T07:58:29.820Z</time>
      </trkpt>
      <trkpt lat="43.7095" lon="1.87947">
        <ele>153.035434</ele>
        <time>2021-05-01T07:58:34.067Z</time>
      </trkpt>
      <trkpt lat="43.70958" lon="1.87925">
        <ele>152.929966</ele>
        <time>2021-05-01T07:58:37.436Z</time>
      </trkpt>
      <trkpt lat="43.70969" lon="1.87914">
        <ele>152.846574</ele>
        <time>2021-05-01T07:58:40.181Z</time>
      </trkpt>
      <trkpt lat="43.71016" lon="1.87897">
        <ele>152.513622</ele>
        <time>2021-05-01T07:58:49.519Z</time>
      </trkpt>
      <trkpt lat="43.71028" lon="1.87882">
        <ele>152.254318</ele>
        <time>2021-05-01T07:58:52.443Z</time>
      </trkpt>
      <trkpt lat="43.71039" lon="1.87854">
        <ele>151.895744</ele>
        <time>2021-05-01T07:58:56.912Z</time>
      </trkpt>
      <trkpt lat="43.71034" lon="1.87826">
        <ele>151.572774</ele>
        <time>2021-05-01T07:59:00.670Z</time>
      </trkpt>
      <trkpt lat="43.71027" lon="1.87816">
        <ele>151.410698</ele>
        <time>2021-05-01T07:59:02.721Z</time>
      </trkpt>
      <trkpt lat="43.71011" lon="1.87805">
        <ele>151.128794</ele>
        <time>2021-05-01T07:59:05.791Z</time>
      </trkpt>
      <trkpt lat="43.70931" lon="1.87783">
        <ele>149.860949</ele>
        <time>2021-05-01T07:59:20.548Z</time>
      </trkpt>
      <trkpt lat="43.70877" lon="1.87691">
        <ele>148.988243</ele>
        <time>2021-05-01T07:59:35.925Z</time>
      </trkpt>
      <trkpt lat="43.70775" lon="1.87567">
        <ele>147.977548</ele>
        <time>2021-05-01T08:00:03.984Z</time>
      </trkpt>
      <trkpt lat="43.70686" lon="1.87483">
        <ele>147.89918</ele>
        <time>2021-05-01T08:00:28.493Z</time>
      </trkpt>
      <trkpt lat="43.70465" lon="1.8739">
        <ele>147.638878</ele>
        <time>2021-05-01T08:01:19.588Z</time>
      </trkpt>
      <trkpt lat="43.70266" lon="1.8734">
        <ele>146.388516</ele>
        <time>2021-05-01T08:02:00.447Z</time>
      </trkpt>
      <trkpt lat="43.70189" lon="1.87351">
        <ele>145.576841</ele>
        <time>2021-05-01T08:02:15.119Z</time>
      </trkpt>
      <trkpt lat="43.70138" lon="1.87348">
        <ele>145.045856</ele>
        <time>2021-05-01T08:02:24.630Z</time>
      </trkpt>
      <trkpt lat="43.70086" lon="1.87329">
        <ele>144.630937</ele>
        <time>2021-05-01T08:02:34.747Z</time>
      </trkpt>
      <trkpt lat="43.70048" lon="1.87289">
        <ele>144.302382</ele>
        <time>2021-05-01T08:02:44.058Z</time>
      </trkpt>
      <trkpt lat="43.70032" lon="1.87235">
        <ele>144.010507</ele>
        <time>2021-05-01T08:02:52.671Z</time>
      </trkpt>
      <trkpt lat="43.70029" lon="1.87169">
        <ele>143.676896</ele>
        <time>2021-05-01T08:03:03.047Z</time>
      </trkpt>
      <trkpt lat="43.7003" lon="1.86784">
        <ele>143.141394</ele>
        <time>2021-05-01T08:04:04.973Z</time>
      </trkpt>
      <trkpt lat="43.7003" lon="1.86784">
        <ele>143.139613</ele>
        <time>2021-05-01T08:04:05.019Z</time>
      </trkpt>
      <trkpt lat="43.7002" lon="1.86693">
        <ele>142.82488</ele>
        <time>2021-05-01T08:04:17.911Z</time>
      </trkpt>
      <trkpt lat="43.70005" lon="1.86633">
        <ele>142.638604</ele>
        <time>2021-05-01T08:04:26.783Z</time>
      </trkpt>
      <trkpt lat="43.69997" lon="1.86592">
        <ele>142.526908</ele>
        <time>2021-05-01T08:04:32.743Z</time>
      </trkpt>
      <trkpt lat="43.69961" lon="1.86394">
        <ele>142.368734</ele>
        <time>2021-05-01T08:05:04.564Z</time>
      </trkpt>
      <trkpt lat="43.69929" lon="1.86198">
        <ele>143.804777</ele>
        <time>2021-05-01T08:05:44.669Z</time>
      </trkpt>
      <trkpt lat="43.69908" lon="1.8608">
        <ele>144.538719</ele>
        <time>2021-05-01T08:06:08.543Z</time>
      </trkpt>
      <trkpt lat="43.69905" lon="1.86057">
        <ele>144.673565</ele>
        <time>2021-05-01T08:06:12.907Z</time>
      </trkpt>
      <trkpt lat="43.69899" lon="1.86008">
        <ele>144.968545</ele>
        <time>2021-05-01T08:06:21.898Z</time>
      </trkpt>
      <trkpt lat="43.69899" lon="1.85872">
        <ele>145.311935</ele>
        <time>2021-05-01T08:06:44.900Z</time>
      </trkpt>
      <trkpt lat="43.69898" lon="1.85766">
        <ele>145.259715</ele>
        <time>2021-05-01T08:07:01.687Z</time>
      </trkpt>
      <trkpt lat="43.69899" lon="1.85666">
        <ele>145.145192</ele>
        <time>2021-05-01T08:07:17.027Z</time>
      </trkpt>
      <trkpt lat="43.69899" lon="1.85554">
        <ele>144.846436</ele>
        <time>2021-05-01T08:07:33.729Z</time>
      </trkpt>
      <trkpt lat="43.69898" lon="1.85483">
        <ele>144.655722</ele>
        <time>2021-05-01T08:07:44.500Z</time>
      </trkpt>
      <trkpt lat="43.69897" lon="1.85366">
        <ele>144.530084</ele>
        <time>2021-05-01T08:08:02.435Z</time>
      </trkpt>
      <trkpt lat="43.69896" lon="1.85233">
        <ele>144.481133</ele>
        <time>2021-05-01T08:08:23.603Z</time>
      </trkpt>
      <trkpt lat="43.69899" lon="1.8507">
        <ele>144.751524</ele>
        <time>2021-05-01T08:08:52.079Z</time>
      </trkpt>
      <trkpt lat="43.69904" lon="1.84964">
        <ele>144.983658</ele>
        <time>2021-05-01T08:09:10.041Z</time>
      </trkpt>
      <trkpt lat="43.69908" lon="1.84903">
        <ele>144.97084</ele>
        <time>2021-05-01T08:09:20.256Z</time>
      </trkpt>
      <trkpt lat="43.69922" lon="1.84745">
        <ele>144.817435</ele>
        <time>2021-05-01T08:09:45.082Z</time>
      </trkpt>
      <trkpt lat="43.6994" lon="1.84547">
        <ele>144.375077</ele>
        <time>2021-05-01T08:10:15.320Z</time>
      </trkpt>
      <trkpt lat="43.6995" lon="1.84452">
        <ele>144.11309</ele>
        <time>2021-05-01T08:10:30.013Z</time>
      </trkpt>
      <trkpt lat="43.69952" lon="1.84432">
        <ele>143.999457</ele>
        <time>2021-05-01T08:10:33.101Z</time>
      </trkpt>
      <trkpt lat="43.69956" lon="1.8439">
        <ele>143.752767</ele>
        <time>2021-05-01T08:10:39.388Z</time>
      </trkpt>
      <trkpt lat="43.69957" lon="1.84372">
        <ele>143.64387</ele>
        <time>2021-05-01T08:10:42.169Z</time>
      </trkpt>
      <trkpt lat="43.69966" lon="1.84292">
        <ele>143.17228</ele>
        <time>2021-05-01T08:10:54.088Z</time>
      </trkpt>
      <trkpt lat="43.69967" lon="1.84279">
        <ele>143.098843</ele>
        <time>2021-05-01T08:10:55.936Z</time>
      </trkpt>
      <trkpt lat="43.69968" lon="1.84267">
        <ele>143.023365</ele>
        <time>2021-05-01T08:10:57.631Z</time>
      </trkpt>
      <trkpt lat="43.69981" lon="1.84125">
        <ele>141.367746</ele>
        <time>2021-05-01T08:11:16.495Z</time>
      </trkpt>
      <trkpt lat="43.69984" lon="1.84092">
        <ele>140.85465</ele>
        <time>2021-05-01T08:11:20.636Z</time>
      </trkpt>
      <trkpt lat="43.69993" lon="1.83987">
        <ele>139.205602</ele>
        <time>2021-05-01T08:11:33.671Z</time>
      </trkpt>
      <trkpt lat="43.70006" lon="1.83828">
        <ele>136.656615</ele>
        <time>2021-05-01T08:11:53.386Z</time>
      </trkpt>
      <trkpt lat="43.70015" lon="1.83738">
        <ele>135.217739</ele>
        <time>2021-05-01T08:12:04.865Z</time>
      </trkpt>
      <trkpt lat="43.70017" lon="1.83714">
        <ele>134.843135</ele>
        <time>2021-05-01T08:12:08.003Z</time>
      </trkpt>
      <trkpt lat="43.70023" lon="1.83645">
        <ele>134.332258</ele>
        <time>2021-05-01T08:12:17.401Z</time>
      </trkpt>
      <trkpt lat="43.70037" lon="1.83492">
        <ele>133.211432</ele>
        <time>2021-05-01T08:12:39.349Z</time>
      </trkpt>
      <trkpt lat="43.70047" lon="1.83393">
        <ele>132.807133</ele>
        <time>2021-05-01T08:12:54.447Z</time>
      </trkpt>
      <trkpt lat="43.70053" lon="1.83322">
        <ele>132.588964</ele>
        <time>2021-05-01T08:13:05.195Z</time>
      </trkpt>
      <trkpt lat="43.70059" lon="1.83262">
        <ele>132.403931</ele>
        <time>2021-05-01T08:13:14.211Z</time>
      </trkpt>
      <trkpt lat="43.70059" lon="1.83255">
        <ele>132.38228</ele>
        <time>2021-05-01T08:13:15.251Z</time>
      </trkpt>
      <trkpt lat="43.70066" lon="1.83176">
        <ele>132.268358</ele>
        <time>2021-05-01T08:13:27.481Z</time>
      </trkpt>
      <trkpt lat="43.70069" lon="1.83143">
        <ele>132.26035</ele>
        <time>2021-05-01T08:13:32.895Z</time>
      </trkpt>
      <trkpt lat="43.70074" lon="1.83083">
        <ele>132.24577</ele>
        <time>2021-05-01T08:13:42.721Z</time>
      </trkpt>
      <trkpt lat="43.70082" lon="1.8301">
        <ele>132.228062</ele>
        <time>2021-05-01T08:13:54.590Z</time>
      </trkpt>
      <trkpt lat="43.70085" lon="1.82976">
        <ele>132.219775</ele>
        <time>2021-05-01T08:14:00.285Z</time>
      </trkpt>
      <trkpt lat="43.70087" lon="1.82955">
        <ele>132.205905</ele>
        <time>2021-05-01T08:14:03.728Z</time>
      </trkpt>
      <trkpt lat="43.70096" lon="1.82849">
        <ele>132.133723</ele>
        <time>2021-05-01T08:14:21.378Z</time>
      </trkpt>
      <trkpt lat="43.70104" lon="1.82764">
        <ele>132.075171</ele>
        <time>2021-05-01T08:14:35.762Z</time>
      </trkpt>
      <trkpt lat="43.70135" lon="1.82424">
        <ele>131.587479</ele>
        <time>2021-05-01T08:15:24.107Z</time>
      </trkpt>
      <trkpt lat="43.70137" lon="1.82404">
        <ele>131.886261</ele>
        <time>2021-05-01T08:15:27.619Z</time>
      </trkpt>
      <trkpt lat="43.70147" lon="1.8229">
        <ele>133.588319</ele>
        <time>2021-05-01T08:15:54.848Z</time>
      </trkpt>
      <trkpt lat="43.70149" lon="1.82264">
        <ele>133.973243</ele>
        <time>2021-05-01T08:16:01.693Z</time>
      </trkpt>
      <trkpt lat="43.70151" lon="1.82234">
        <ele>134.451288</ele>
        <time>2021-05-01T08:16:11.173Z</time>
      </trkpt>
      <trkpt lat="43.70164" lon="1.82104">
        <ele>139.109563</ele>
        <time>2021-05-01T08:16:50.902Z</time>
      </trkpt>
      <trkpt lat="43.70165" lon="1.82094">
        <ele>139.484491</ele>
        <time>2021-05-01T08:16:55.487Z</time>
      </trkpt>
      <trkpt lat="43.70166" lon="1.82076">
        <ele>140.124348</ele>
        <time>2021-05-01T08:17:01.563Z</time>
      </trkpt>
      <trkpt lat="43.70166" lon="1.82075">
        <ele>140.181739</ele>
        <time>2021-05-01T08:17:02.120Z</time>
      </trkpt>
      <trkpt lat="43.70168" lon="1.82061">
        <ele>140.670782</ele>
        <time>2021-05-01T08:17:06.530Z</time>
      </trkpt>
      <trkpt lat="43.70169" lon="1.82061">
        <ele>140.760402</ele>
        <time>2021-05-01T08:17:07.304Z</time>
      </trkpt>
      <trkpt lat="43.70171" lon="1.8206">
        <ele>140.854744</ele>
        <time>2021-05-01T08:17:08.096Z</time>
      </trkpt>
      <trkpt lat="43.70173" lon="1.82055">
        <ele>141.040186</ele>
        <time>2021-05-01T08:17:10.321Z</time>
      </trkpt>
      <trkpt lat="43.70173" lon="1.82053">
        <ele>141.119425</ele>
        <time>2021-05-01T08:17:11.334Z</time>
      </trkpt>
      <trkpt lat="43.70173" lon="1.82053">
        <ele>141.134549</ele>
        <time>2021-05-01T08:17:11.590Z</time>
      </trkpt>
      <trkpt lat="43.70171" lon="1.82046">
        <ele>141.404472</ele>
        <time>2021-05-01T08:17:14.347Z</time>
      </trkpt>
      <trkpt lat="43.70169" lon="1.82045">
        <ele>141.499082</ele>
        <time>2021-05-01T08:17:15.144Z</time>
      </trkpt>
      <trkpt lat="43.70167" lon="1.82045">
        <ele>141.59307</ele>
        <time>2021-05-01T08:17:15.862Z</time>
      </trkpt>
      <trkpt lat="43.70162" lon="1.82052">
        <ele>141.94127</ele>
        <time>2021-05-01T08:17:18.362Z</time>
      </trkpt>
      <trkpt lat="43.70162" lon="1.82053">
        <ele>141.984153</ele>
        <time>2021-05-01T08:17:18.660Z</time>
      </trkpt>
      <trkpt lat="43.70156" lon="1.82053">
        <ele>142.267358</ele>
        <time>2021-05-01T08:17:20.773Z</time>
      </trkpt>
      <trkpt lat="43.70145" lon="1.82051">
        <ele>142.834532</ele>
        <time>2021-05-01T08:17:25.382Z</time>
      </trkpt>
      <trkpt lat="43.70131" lon="1.82041">
        <ele>143.410629</ele>
        <time>2021-05-01T08:17:31.477Z</time>
      </trkpt>
      <trkpt lat="43.70104" lon="1.82015">
        <ele>143.964909</ele>
        <time>2021-05-01T08:17:43.097Z</time>
      </trkpt>
      <trkpt lat="43.70103" lon="1.82014">
        <ele>143.997128</ele>
        <time>2021-05-01T08:17:43.673Z</time>
      </trkpt>
      <trkpt lat="43.70079" lon="1.81995">
        <ele>144.468582</ele>
        <time>2021-05-01T08:17:52.863Z</time>
      </trkpt>
      <trkpt lat="43.70075" lon="1.81991">
        <ele>144.552666</ele>
        <time>2021-05-01T08:17:54.080Z</time>
      </trkpt>
      <trkpt lat="43.70069" lon="1.8198">
        <ele>144.725157</ele>
        <time>2021-05-01T08:17:56.627Z</time>
      </trkpt>
      <trkpt lat="43.70062" lon="1.81965">
        <ele>144.933685</ele>
        <time>2021-05-01T08:17:59.497Z</time>
      </trkpt>
      <trkpt lat="43.7006" lon="1.81957">
        <ele>145.038973</ele>
        <time>2021-05-01T08:18:01.071Z</time>
      </trkpt>
      <trkpt lat="43.70058" lon="1.81953">
        <ele>145.101776</ele>
        <time>2021-05-01T08:18:01.956Z</time>
      </trkpt>
      <trkpt lat="43.70058" lon="1.8195">
        <ele>145.142376</ele>
        <time>2021-05-01T08:18:02.555Z</time>
      </trkpt>
      <trkpt lat="43.70057" lon="1.81944">
        <ele>145.213056</ele>
        <time>2021-05-01T08:18:03.578Z</time>
      </trkpt>
      <trkpt lat="43.70057" lon="1.81943">
        <ele>145.227117</ele>
        <time>2021-05-01T08:18:03.787Z</time>
      </trkpt>
      <trkpt lat="43.70055" lon="1.81938">
        <ele>145.293084</ele>
        <time>2021-05-01T08:18:04.659Z</time>
      </trkpt>
      <trkpt lat="43.70053" lon="1.81934">
        <ele>145.353</ele>
        <time>2021-05-01T08:18:05.575Z</time>
      </trkpt>
      <trkpt lat="43.70051" lon="1.81932">
        <ele>145.400681</ele>
        <time>2021-05-01T08:18:06.259Z</time>
      </trkpt>
      <trkpt lat="43.70048" lon="1.8193">
        <ele>145.450565</ele>
        <time>2021-05-01T08:18:06.943Z</time>
      </trkpt>
      <trkpt lat="43.70038" lon="1.81931">
        <ele>145.625915</ele>
        <time>2021-05-01T08:18:09.317Z</time>
      </trkpt>
      <trkpt lat="43.70036" lon="1.81932">
        <ele>145.658971</ele>
        <time>2021-05-01T08:18:09.830Z</time>
      </trkpt>
      <trkpt lat="43.70035" lon="1.81933">
        <ele>145.683711</ele>
        <time>2021-05-01T08:18:10.184Z</time>
      </trkpt>
      <trkpt lat="43.70027" lon="1.8193">
        <ele>145.819845</ele>
        <time>2021-05-01T08:18:12.225Z</time>
      </trkpt>
      <trkpt lat="43.70025" lon="1.81929">
        <ele>145.854671</ele>
        <time>2021-05-01T08:18:12.789Z</time>
      </trkpt>
      <trkpt lat="43.70019" lon="1.81929">
        <ele>145.953403</ele>
        <time>2021-05-01T08:18:14.156Z</time>
      </trkpt>
      <trkpt lat="43.70012" lon="1.8193">
        <ele>146.087932</ele>
        <time>2021-05-01T08:18:16.063Z</time>
      </trkpt>
      <trkpt lat="43.69996" lon="1.81827">
        <ele>146.481391</ele>
        <time>2021-05-01T08:18:34.903Z</time>
      </trkpt>
      <trkpt lat="43.69987" lon="1.81762">
        <ele>146.571511</ele>
        <time>2021-05-01T08:18:46.680Z</time>
      </trkpt>
      <trkpt lat="43.69982" lon="1.81727">
        <ele>146.620609</ele>
        <time>2021-05-01T08:18:53.006Z</time>
      </trkpt>
      <trkpt lat="43.69978" lon="1.81703">
        <ele>146.653188</ele>
        <time>2021-05-01T08:18:57.131Z</time>
      </trkpt>
      <trkpt lat="43.69972" lon="1.8166">
        <ele>146.689312</ele>
        <time>2021-05-01T08:19:04.038Z</time>
      </trkpt>
      <trkpt lat="43.69969" lon="1.8165">
        <ele>146.627882</ele>
        <time>2021-05-01T08:19:06.150Z</time>
      </trkpt>
      <trkpt lat="43.69965" lon="1.8164">
        <ele>146.558773</ele>
        <time>2021-05-01T08:19:07.881Z</time>
      </trkpt>
      <trkpt lat="43.6994" lon="1.81595">
        <ele>146.231348</ele>
        <time>2021-05-01T08:19:16.864Z</time>
      </trkpt>
      <trkpt lat="43.69908" lon="1.81569">
        <ele>145.92979</ele>
        <time>2021-05-01T08:19:24.661Z</time>
      </trkpt>
      <trkpt lat="43.69907" lon="1.81568">
        <ele>145.922734</ele>
        <time>2021-05-01T08:19:24.787Z</time>
      </trkpt>
      <trkpt lat="43.69882" lon="1.81555">
        <ele>145.706689</ele>
        <time>2021-05-01T08:19:30.389Z</time>
      </trkpt>
      <trkpt lat="43.69883" lon="1.81541">
        <ele>145.626494</ele>
        <time>2021-05-01T08:19:32.243Z</time>
      </trkpt>
      <trkpt lat="43.69885" lon="1.81528">
        <ele>145.547241</ele>
        <time>2021-05-01T08:19:34.179Z</time>
      </trkpt>
      <trkpt lat="43.69885" lon="1.81513">
        <ele>145.463557</ele>
        <time>2021-05-01T08:19:36.563Z</time>
      </trkpt>
      <trkpt lat="43.69881" lon="1.815">
        <ele>145.38103</ele>
        <time>2021-05-01T08:19:38.461Z</time>
      </trkpt>
      <trkpt lat="43.69884" lon="1.81496">
        <ele>145.346305</ele>
        <time>2021-05-01T08:19:39.213Z</time>
      </trkpt>
      <trkpt lat="43.69886" lon="1.8149">
        <ele>145.312079</ele>
        <time>2021-05-01T08:19:39.979Z</time>
      </trkpt>
      <trkpt lat="43.69886" lon="1.81485">
        <ele>145.283559</ele>
        <time>2021-05-01T08:19:40.649Z</time>
      </trkpt>
      <trkpt lat="43.69886" lon="1.81484">
        <ele>145.277692</ele>
        <time>2021-05-01T08:19:40.772Z</time>
      </trkpt>
      <trkpt lat="43.69885" lon="1.81479">
        <ele>145.223821</ele>
        <time>2021-05-01T08:19:41.610Z</time>
      </trkpt>
      <trkpt lat="43.69882" lon="1.81474">
        <ele>145.154901</ele>
        <time>2021-05-01T08:19:42.471Z</time>
      </trkpt>
      <trkpt lat="43.69879" lon="1.81471">
        <ele>145.091947</ele>
        <time>2021-05-01T08:19:43.240Z</time>
      </trkpt>
      <trkpt lat="43.69875" lon="1.81469">
        <ele>145.02948</ele>
        <time>2021-05-01T08:19:43.968Z</time>
      </trkpt>
      <trkpt lat="43.69872" lon="1.81469">
        <ele>144.966636</ele>
        <time>2021-05-01T08:19:44.672Z</time>
      </trkpt>
      <trkpt lat="43.69865" lon="1.81474">
        <ele>144.84254</ele>
        <time>2021-05-01T08:19:46.056Z</time>
      </trkpt>
      <trkpt lat="43.69864" lon="1.81476">
        <ele>144.811378</ele>
        <time>2021-05-01T08:19:46.411Z</time>
      </trkpt>
      <trkpt lat="43.69856" lon="1.81478">
        <ele>144.689267</ele>
        <time>2021-05-01T08:19:47.789Z</time>
      </trkpt>
      <trkpt lat="43.6985" lon="1.81481">
        <ele>144.582398</ele>
        <time>2021-05-01T08:19:49.054Z</time>
      </trkpt>
      <trkpt lat="43.69846" lon="1.81487">
        <ele>144.491566</ele>
        <time>2021-05-01T08:19:50.092Z</time>
      </trkpt>
      <trkpt lat="43.69842" lon="1.8147">
        <ele>144.294751</ele>
        <time>2021-05-01T08:19:52.361Z</time>
      </trkpt>
      <trkpt lat="43.69839" lon="1.81453">
        <ele>144.085462</ele>
        <time>2021-05-01T08:19:54.715Z</time>
      </trkpt>
      <trkpt lat="43.69836" lon="1.8144">
        <ele>143.926764</ele>
        <time>2021-05-01T08:19:56.567Z</time>
      </trkpt>
      <trkpt lat="43.69812" lon="1.81315">
        <ele>142.416099</ele>
        <time>2021-05-01T08:20:14.169Z</time>
      </trkpt>
      <trkpt lat="43.69739" lon="1.8128">
        <ele>141.468114</ele>
        <time>2021-05-01T08:20:29.185Z</time>
      </trkpt>
      <trkpt lat="43.69727" lon="1.81215">
        <ele>140.873556</ele>
        <time>2021-05-01T08:20:38.277Z</time>
      </trkpt>
      <trkpt lat="43.69713" lon="1.8116">
        <ele>140.36032</ele>
        <time>2021-05-01T08:20:46.055Z</time>
      </trkpt>
      <trkpt lat="43.69694" lon="1.81089">
        <ele>140.344087</ele>
        <time>2021-05-01T08:20:57.042Z</time>
      </trkpt>
      <trkpt lat="43.69677" lon="1.8102">
        <ele>140.59274</ele>
        <time>2021-05-01T08:21:09.468Z</time>
      </trkpt>
      <trkpt lat="43.69673" lon="1.81001">
        <ele>140.658715</ele>
        <time>2021-05-01T08:21:12.680Z</time>
      </trkpt>
      <trkpt lat="43.69648" lon="1.80909">
        <ele>140.992264</ele>
        <time>2021-05-01T08:21:31.700Z</time>
      </trkpt>
      <trkpt lat="43.69615" lon="1.80793">
        <ele>143.149671</ele>
        <time>2021-05-01T08:22:00.099Z</time>
      </trkpt>
      <trkpt lat="43.69604" lon="1.80765">
        <ele>143.712196</ele>
        <time>2021-05-01T08:22:08.041Z</time>
      </trkpt>
      <trkpt lat="43.69597" lon="1.80751">
        <ele>144.019153</ele>
        <time>2021-05-01T08:22:12.307Z</time>
      </trkpt>
      <trkpt lat="43.6959" lon="1.80735">
        <ele>144.35546</ele>
        <time>2021-05-01T08:22:17.018Z</time>
      </trkpt>
      <trkpt lat="43.69577" lon="1.80712">
        <ele>144.872005</ele>
        <time>2021-05-01T08:22:24.463Z</time>
      </trkpt>
      <trkpt lat="43.69459" lon="1.80514">
        <ele>149.13366</ele>
        <time>2021-05-01T08:23:25.285Z</time>
      </trkpt>
      <trkpt lat="43.69264" lon="1.80186">
        <ele>151.093321</ele>
        <time>2021-05-01T08:24:37.842Z</time>
      </trkpt>
      <trkpt lat="43.69184" lon="1.80052">
        <ele>151.920296</ele>
        <time>2021-05-01T08:25:09.819Z</time>
      </trkpt>
      <trkpt lat="43.69187" lon="1.80045">
        <ele>151.96725</ele>
        <time>2021-05-01T08:25:11.404Z</time>
      </trkpt>
      <trkpt lat="43.69187" lon="1.80037">
        <ele>152.014604</ele>
        <time>2021-05-01T08:25:12.903Z</time>
      </trkpt>
      <trkpt lat="43.69184" lon="1.80031">
        <ele>152.057272</ele>
        <time>2021-05-01T08:25:14.330Z</time>
      </trkpt>
      <trkpt lat="43.69181" lon="1.80027">
        <ele>152.093052</ele>
        <time>2021-05-01T08:25:15.431Z</time>
      </trkpt>
      <trkpt lat="43.69171" lon="1.80026">
        <ele>152.175039</ele>
        <time>2021-05-01T08:25:18.119Z</time>
      </trkpt>
      <trkpt lat="43.69168" lon="1.80029">
        <ele>152.201398</ele>
        <time>2021-05-01T08:25:18.935Z</time>
      </trkpt>
      <trkpt lat="43.69078" lon="1.79874">
        <ele>153.18064</ele>
        <time>2021-05-01T08:25:55.572Z</time>
      </trkpt>
      <trkpt lat="43.69017" lon="1.79769">
        <ele>153.626364</ele>
        <time>2021-05-01T08:26:19.027Z</time>
      </trkpt>
      <trkpt lat="43.68937" lon="1.79664">
        <ele>153.488095</ele>
        <time>2021-05-01T08:26:43.408Z</time>
      </trkpt>
      <trkpt lat="43.68906" lon="1.79623">
        <ele>153.343747</ele>
        <time>2021-05-01T08:26:52.805Z</time>
      </trkpt>
      <trkpt lat="43.68901" lon="1.79617">
        <ele>153.322454</ele>
        <time>2021-05-01T08:26:54.091Z</time>
      </trkpt>
      <trkpt lat="43.688" lon="1.79496">
        <ele>152.239958</ele>
        <time>2021-05-01T08:27:19.851Z</time>
      </trkpt>
      <trkpt lat="43.68776" lon="1.79469">
        <ele>151.911269</ele>
        <time>2021-05-01T08:27:25.557Z</time>
      </trkpt>
      <trkpt lat="43.68736" lon="1.7942">
        <ele>151.334516</ele>
        <time>2021-05-01T08:27:35.620Z</time>
      </trkpt>
      <trkpt lat="43.6871" lon="1.79385">
        <ele>151.087835</ele>
        <time>2021-05-01T08:27:42.576Z</time>
      </trkpt>
      <trkpt lat="43.68706" lon="1.79379">
        <ele>151.056587</ele>
        <time>2021-05-01T08:27:43.936Z</time>
      </trkpt>
      <trkpt lat="43.68687" lon="1.79336">
        <ele>150.874741</ele>
        <time>2021-05-01T08:27:50.995Z</time>
      </trkpt>
      <trkpt lat="43.68653" lon="1.79242">
        <ele>150.495501</ele>
        <time>2021-05-01T08:28:06.299Z</time>
      </trkpt>
      <trkpt lat="43.68642" lon="1.79196">
        <ele>150.32128</ele>
        <time>2021-05-01T08:28:14.482Z</time>
      </trkpt>
      <trkpt lat="43.68636" lon="1.7915">
        <ele>150.546884</ele>
        <time>2021-05-01T08:28:23.172Z</time>
      </trkpt>
      <trkpt lat="43.68614" lon="1.78866">
        <ele>152.096083</ele>
        <time>2021-05-01T08:29:16.294Z</time>
      </trkpt>
      <trkpt lat="43.68604" lon="1.78774">
        <ele>152.639188</ele>
        <time>2021-05-01T08:29:33.492Z</time>
      </trkpt>
      <trkpt lat="43.68589" lon="1.78691">
        <ele>153.116969</ele>
        <time>2021-05-01T08:29:49.188Z</time>
      </trkpt>
      <trkpt lat="43.68505" lon="1.78442">
        <ele>154.132622</ele>
        <time>2021-05-01T08:30:37.364Z</time>
      </trkpt>
      <trkpt lat="43.68474" lon="1.78377">
        <ele>154.349617</ele>
        <time>2021-05-01T08:30:50.249Z</time>
      </trkpt>
      <trkpt lat="43.684" lon="1.78251">
        <ele>155.005321</ele>
        <time>2021-05-01T08:31:18.418Z</time>
      </trkpt>
      <trkpt lat="43.68378" lon="1.782">
        <ele>155.56743</ele>
        <time>2021-05-01T08:31:29.419Z</time>
      </trkpt>
      <trkpt lat="43.68376" lon="1.78195">
        <ele>155.628478</ele>
        <time>2021-05-01T08:31:30.612Z</time>
      </trkpt>
      <trkpt lat="43.68337" lon="1.78071">
        <ele>156.922135</ele>
        <time>2021-05-01T08:31:58.369Z</time>
      </trkpt>
      <trkpt lat="43.68311" lon="1.78">
        <ele>158.035972</ele>
        <time>2021-05-01T08:32:16.101Z</time>
      </trkpt>
      <trkpt lat="43.68296" lon="1.77969">
        <ele>158.596197</ele>
        <time>2021-05-01T08:32:24.589Z</time>
      </trkpt>
      <trkpt lat="43.68266" lon="1.77912">
        <ele>159.698633</ele>
        <time>2021-05-01T08:32:41.038Z</time>
      </trkpt>
      <trkpt lat="43.68197" lon="1.77841">
        <ele>161.223958</ele>
        <time>2021-05-01T08:33:07.449Z</time>
      </trkpt>
      <trkpt lat="43.68185" lon="1.77822">
        <ele>161.409795</ele>
        <time>2021-05-01T08:33:12.587Z</time>
      </trkpt>
      <trkpt lat="43.68126" lon="1.77675">
        <ele>162.699691</ele>
        <time>2021-05-01T08:33:44.328Z</time>
      </trkpt>
      <trkpt lat="43.68041" lon="1.77565">
        <ele>162.820913</ele>
        <time>2021-05-01T08:34:08.918Z</time>
      </trkpt>
      <trkpt lat="43.6801" lon="1.77536">
        <ele>162.815446</ele>
        <time>2021-05-01T08:34:17.318Z</time>
      </trkpt>
      <trkpt lat="43.67993" lon="1.77524">
        <ele>162.812661</ele>
        <time>2021-05-01T08:34:21.488Z</time>
      </trkpt>
      <trkpt lat="43.67929" lon="1.77501">
        <ele>163.232905</ele>
        <time>2021-05-01T08:34:36.864Z</time>
      </trkpt>
      <trkpt lat="43.67913" lon="1.77493">
        <ele>163.388181</ele>
        <time>2021-05-01T08:34:40.738Z</time>
      </trkpt>
      <trkpt lat="43.67906" lon="1.77488">
        <ele>163.458557</ele>
        <time>2021-05-01T08:34:43.052Z</time>
      </trkpt>
      <trkpt lat="43.6784" lon="1.77391">
        <ele>164.333208</ele>
        <time>2021-05-01T08:35:08.894Z</time>
      </trkpt>
      <trkpt lat="43.67738" lon="1.77268">
        <ele>167.052529</ele>
        <time>2021-05-01T08:35:48.982Z</time>
      </trkpt>
      <trkpt lat="43.67717" lon="1.77229">
        <ele>167.802597</ele>
        <time>2021-05-01T08:36:00.473Z</time>
      </trkpt>
      <trkpt lat="43.67703" lon="1.77194">
        <ele>168.514009</ele>
        <time>2021-05-01T08:36:10.140Z</time>
      </trkpt>
      <trkpt lat="43.67684" lon="1.77147">
        <ele>169.819632</ele>
        <time>2021-05-01T08:36:24.017Z</time>
      </trkpt>
      <trkpt lat="43.67674" lon="1.77114">
        <ele>170.654533</ele>
        <time>2021-05-01T08:36:33.087Z</time>
      </trkpt>
      <trkpt lat="43.67661" lon="1.76991">
        <ele>173.655002</ele>
        <time>2021-05-01T08:37:06.607Z</time>
      </trkpt>
      <trkpt lat="43.67646" lon="1.76922">
        <ele>174.794535</ele>
        <time>2021-05-01T08:37:25.374Z</time>
      </trkpt>
      <trkpt lat="43.67611" lon="1.7683">
        <ele>176.003498</ele>
        <time>2021-05-01T08:37:47.818Z</time>
      </trkpt>
      <trkpt lat="43.67581" lon="1.76771">
        <ele>176.835833</ele>
        <time>2021-05-01T08:38:00.818Z</time>
      </trkpt>
      <trkpt lat="43.67557" lon="1.76737">
        <ele>177.124942</ele>
        <time>2021-05-01T08:38:08.322Z</time>
      </trkpt>
      <trkpt lat="43.67534" lon="1.76711">
        <ele>177.132467</ele>
        <time>2021-05-01T08:38:14.249Z</time>
      </trkpt>
      <trkpt lat="43.67517" lon="1.76693">
        <ele>177.137986</ele>
        <time>2021-05-01T08:38:18.313Z</time>
      </trkpt>
      <trkpt lat="43.67443" lon="1.76623">
        <ele>177.16091</ele>
        <time>2021-05-01T08:38:37.818Z</time>
      </trkpt>
      <trkpt lat="43.67395" lon="1.76583">
        <ele>177.824364</ele>
        <time>2021-05-01T08:38:52.078Z</time>
      </trkpt>
      <trkpt lat="43.67281" lon="1.76494">
        <ele>180.407454</ele>
        <time>2021-05-01T08:39:33.373Z</time>
      </trkpt>
      <trkpt lat="43.67233" lon="1.76454">
        <ele>181.469191</ele>
        <time>2021-05-01T08:39:52.234Z</time>
      </trkpt>
      <trkpt lat="43.67211" lon="1.76426">
        <ele>182.029626</ele>
        <time>2021-05-01T08:40:01.748Z</time>
      </trkpt>
      <trkpt lat="43.67205" lon="1.76399">
        <ele>182.417183</ele>
        <time>2021-05-01T08:40:07.993Z</time>
      </trkpt>
      <trkpt lat="43.67203" lon="1.7634">
        <ele>183.22944</ele>
        <time>2021-05-01T08:40:20.059Z</time>
      </trkpt>
      <trkpt lat="43.67188" lon="1.76311">
        <ele>183.71173</ele>
        <time>2021-05-01T08:40:26.700Z</time>
      </trkpt>
      <trkpt lat="43.67071" lon="1.76245">
        <ele>186.323302</ele>
        <time>2021-05-01T08:41:01.097Z</time>
      </trkpt>
      <trkpt lat="43.66994" lon="1.76186">
        <ele>188.582565</ele>
        <time>2021-05-01T08:41:31.413Z</time>
      </trkpt>
      <trkpt lat="43.66974" lon="1.76173">
        <ele>189.722821</ele>
        <time>2021-05-01T08:41:40.156Z</time>
      </trkpt>
      <trkpt lat="43.66936" lon="1.7615">
        <ele>191.800345</ele>
        <time>2021-05-01T08:41:56.915Z</time>
      </trkpt>
      <trkpt lat="43.6689" lon="1.7613">
        <ele>194.244966</ele>
        <time>2021-05-01T08:42:18.072Z</time>
      </trkpt>
      <trkpt lat="43.66845" lon="1.76123">
        <ele>196.548975</ele>
        <time>2021-05-01T08:42:39.627Z</time>
      </trkpt>
      <trkpt lat="43.6683" lon="1.76111">
        <ele>197.549949</ele>
        <time>2021-05-01T08:42:48.148Z</time>
      </trkpt>
      <trkpt lat="43.66818" lon="1.76081">
        <ele>199.132006</ele>
        <time>2021-05-01T08:42:59.834Z</time>
      </trkpt>
      <trkpt lat="43.6679" lon="1.7596">
        <ele>205.077632</ele>
        <time>2021-05-01T08:43:42.654Z</time>
      </trkpt>
      <trkpt lat="43.66776" lon="1.75915">
        <ele>207.39877</ele>
        <time>2021-05-01T08:44:00.301Z</time>
      </trkpt>
      <trkpt lat="43.66738" lon="1.75854">
        <ele>211.432325</ele>
        <time>2021-05-01T08:44:30.358Z</time>
      </trkpt>
      <trkpt lat="43.66716" lon="1.75836">
        <ele>213.304744</ele>
        <time>2021-05-01T08:44:44.075Z</time>
      </trkpt>
      <trkpt lat="43.66696" lon="1.75828">
        <ele>214.840739</ele>
        <time>2021-05-01T08:44:53.884Z</time>
      </trkpt>
      <trkpt lat="43.66642" lon="1.75816">
        <ele>218.755993</ele>
        <time>2021-05-01T08:45:22.766Z</time>
      </trkpt>
      <trkpt lat="43.66631" lon="1.75815">
        <ele>219.570847</ele>
        <time>2021-05-01T08:45:27.669Z</time>
      </trkpt>
      <trkpt lat="43.66623" lon="1.75814">
        <ele>220.158534</ele>
        <time>2021-05-01T08:45:31.198Z</time>
      </trkpt>
      <trkpt lat="43.66612" lon="1.75813">
        <ele>220.947795</ele>
        <time>2021-05-01T08:45:38.521Z</time>
      </trkpt>
      <trkpt lat="43.66578" lon="1.75823">
        <ele>223.220358</ele>
        <time>2021-05-01T08:45:56.128Z</time>
      </trkpt>
      <trkpt lat="43.66541" lon="1.7585">
        <ele>225.896871</ele>
        <time>2021-05-01T08:46:17.823Z</time>
      </trkpt>
      <trkpt lat="43.66524" lon="1.75869">
        <ele>227.256895</ele>
        <time>2021-05-01T08:46:26.666Z</time>
      </trkpt>
      <trkpt lat="43.66519" lon="1.75877">
        <ele>227.741286</ele>
        <time>2021-05-01T08:46:31.502Z</time>
      </trkpt>
      <trkpt lat="43.66514" lon="1.75887">
        <ele>228.291648</ele>
        <time>2021-05-01T08:46:36.152Z</time>
      </trkpt>
      <trkpt lat="43.66487" lon="1.75955">
        <ele>231.85522</ele>
        <time>2021-05-01T08:46:59.956Z</time>
      </trkpt>
      <trkpt lat="43.66471" lon="1.75981">
        <ele>233.357225</ele>
        <time>2021-05-01T08:47:11.177Z</time>
      </trkpt>
      <trkpt lat="43.6645" lon="1.75997">
        <ele>234.630957</ele>
        <time>2021-05-01T08:47:22.083Z</time>
      </trkpt>
      <trkpt lat="43.66397" lon="1.76018">
        <ele>237.509712</ele>
        <time>2021-05-01T08:47:46.145Z</time>
      </trkpt>
      <trkpt lat="43.66321" lon="1.76111">
        <ele>242.855501</ele>
        <time>2021-05-01T08:48:28.676Z</time>
      </trkpt>
      <trkpt lat="43.66306" lon="1.76115">
        <ele>243.712973</ele>
        <time>2021-05-01T08:48:35.416Z</time>
      </trkpt>
      <trkpt lat="43.66294" lon="1.7611">
        <ele>244.410435</ele>
        <time>2021-05-01T08:48:40.935Z</time>
      </trkpt>
      <trkpt lat="43.66286" lon="1.76098">
        <ele>245.047398</ele>
        <time>2021-05-01T08:48:45.948Z</time>
      </trkpt>
      <trkpt lat="43.66266" lon="1.7603">
        <ele>247.995417</ele>
        <time>2021-05-01T08:49:10.965Z</time>
      </trkpt>
      <trkpt lat="43.66248" lon="1.76013">
        <ele>249.193692</ele>
        <time>2021-05-01T08:49:20.890Z</time>
      </trkpt>
      <trkpt lat="43.66223" lon="1.76011">
        <ele>250.588718</ele>
        <time>2021-05-01T08:49:32.663Z</time>
      </trkpt>
      <trkpt lat="43.66168" lon="1.76031">
        <ele>253.297015</ele>
        <time>2021-05-01T08:49:56.655Z</time>
      </trkpt>
      <trkpt lat="43.6616" lon="1.76034">
        <ele>253.578418</ele>
        <time>2021-05-01T08:50:00.565Z</time>
      </trkpt>
      <trkpt lat="43.66111" lon="1.76104">
        <ele>256.181442</ele>
        <time>2021-05-01T08:50:27.607Z</time>
      </trkpt>
      <trkpt lat="43.66015" lon="1.76198">
        <ele>259.399294</ele>
        <time>2021-05-01T08:51:06.038Z</time>
      </trkpt>
      <trkpt lat="43.66002" lon="1.76205">
        <ele>259.532864</ele>
        <time>2021-05-01T08:51:10.200Z</time>
      </trkpt>
      <trkpt lat="43.65997" lon="1.76205">
        <ele>259.574556</ele>
        <time>2021-05-01T08:51:11.298Z</time>
      </trkpt>
      <trkpt lat="43.65994" lon="1.76203">
        <ele>259.605454</ele>
        <time>2021-05-01T08:51:12.336Z</time>
      </trkpt>
      <trkpt lat="43.65989" lon="1.76199">
        <ele>259.664661</ele>
        <time>2021-05-01T08:51:13.806Z</time>
      </trkpt>
      <trkpt lat="43.65985" lon="1.76194">
        <ele>259.709625</ele>
        <time>2021-05-01T08:51:14.953Z</time>
      </trkpt>
      <trkpt lat="43.65983" lon="1.76189">
        <ele>259.749282</ele>
        <time>2021-05-01T08:51:15.883Z</time>
      </trkpt>
      <trkpt lat="43.65981" lon="1.76185">
        <ele>259.781914</ele>
        <time>2021-05-01T08:51:16.828Z</time>
      </trkpt>
      <trkpt lat="43.65977" lon="1.76175">
        <ele>259.857039</ele>
        <time>2021-05-01T08:51:18.983Z</time>
      </trkpt>
      <trkpt lat="43.65975" lon="1.76164">
        <ele>259.934594</ele>
        <time>2021-05-01T08:51:21.116Z</time>
      </trkpt>
      <trkpt lat="43.65955" lon="1.76104">
        <ele>260.376342</ele>
        <time>2021-05-01T08:51:32.035Z</time>
      </trkpt>
      <trkpt lat="43.65924" lon="1.76065">
        <ele>260.666322</ele>
        <time>2021-05-01T08:51:41.215Z</time>
      </trkpt>
      <trkpt lat="43.65908" lon="1.76052">
        <ele>260.58938</ele>
        <time>2021-05-01T08:51:45.144Z</time>
      </trkpt>
      <trkpt lat="43.65894" lon="1.76044">
        <ele>260.52446</ele>
        <time>2021-05-01T08:51:48.218Z</time>
      </trkpt>
      <trkpt lat="43.65845" lon="1.76022">
        <ele>260.307976</ele>
        <time>2021-05-01T08:51:59.099Z</time>
      </trkpt>
      <trkpt lat="43.65789" lon="1.76015">
        <ele>260.067762</ele>
        <time>2021-05-01T08:52:10.566Z</time>
      </trkpt>
      <trkpt lat="43.65769" lon="1.76019">
        <ele>259.985471</ele>
        <time>2021-05-01T08:52:14.576Z</time>
      </trkpt>
      <trkpt lat="43.6574" lon="1.75911">
        <ele>259.470964</ele>
        <time>2021-05-01T08:52:31.525Z</time>
      </trkpt>
      <trkpt lat="43.6573" lon="1.75877">
        <ele>259.3005</ele>
        <time>2021-05-01T08:52:36.860Z</time>
      </trkpt>
      <trkpt lat="43.65718" lon="1.75797">
        <ele>258.916611</ele>
        <time>2021-05-01T08:52:49.275Z</time>
      </trkpt>
      <trkpt lat="43.65713" lon="1.75587">
        <ele>257.358446</ele>
        <time>2021-05-01T08:53:18.198Z</time>
      </trkpt>
      <trkpt lat="43.65713" lon="1.75524">
        <ele>256.858541</ele>
        <time>2021-05-01T08:53:26.942Z</time>
      </trkpt>
      <trkpt lat="43.65713" lon="1.75484">
        <ele>256.476736</ele>
        <time>2021-05-01T08:53:32.532Z</time>
      </trkpt>
      <trkpt lat="43.65714" lon="1.75384">
        <ele>255.491477</ele>
        <time>2021-05-01T08:53:45.967Z</time>
      </trkpt>
      <trkpt lat="43.65714" lon="1.75342">
        <ele>255.083199</ele>
        <time>2021-05-01T08:53:51.353Z</time>
      </trkpt>
      <trkpt lat="43.65714" lon="1.7532">
        <ele>254.867245</ele>
        <time>2021-05-01T08:53:54.332Z</time>
      </trkpt>
      <trkpt lat="43.65715" lon="1.75278">
        <ele>254.454009</ele>
        <time>2021-05-01T08:54:00.006Z</time>
      </trkpt>
      <trkpt lat="43.65714" lon="1.75259">
        <ele>254.275306</ele>
        <time>2021-05-01T08:54:02.659Z</time>
      </trkpt>
      <trkpt lat="43.65705" lon="1.75211">
        <ele>253.83595</ele>
        <time>2021-05-01T08:54:09.587Z</time>
      </trkpt>
      <trkpt lat="43.65697" lon="1.75192">
        <ele>253.641176</ele>
        <time>2021-05-01T08:54:12.598Z</time>
      </trkpt>
      <trkpt lat="43.65677" lon="1.75146">
        <ele>253.163312</ele>
        <time>2021-05-01T08:54:20.068Z</time>
      </trkpt>
      <trkpt lat="43.65654" lon="1.75095">
        <ele>252.635112</ele>
        <time>2021-05-01T08:54:28.086Z</time>
      </trkpt>
      <trkpt lat="43.65639" lon="1.75074">
        <ele>252.36752</ele>
        <time>2021-05-01T08:54:32.034Z</time>
      </trkpt>
      <trkpt lat="43.65568" lon="1.75025">
        <ele>251.231579</ele>
        <time>2021-05-01T08:54:47.211Z</time>
      </trkpt>
      <trkpt lat="43.65486" lon="1.7498">
        <ele>249.933735</ele>
        <time>2021-05-01T08:55:03.577Z</time>
      </trkpt>
      <trkpt lat="43.65428" lon="1.74958">
        <ele>248.807286</ele>
        <time>2021-05-01T08:55:14.198Z</time>
      </trkpt>
      <trkpt lat="43.65321" lon="1.74936">
        <ele>246.422419</ele>
        <time>2021-05-01T08:55:32.497Z</time>
      </trkpt>
      <trkpt lat="43.65196" lon="1.74895">
        <ele>244.778598</ele>
        <time>2021-05-01T08:55:55.402Z</time>
      </trkpt>
      <trkpt lat="43.65148" lon="1.74872">
        <ele>244.348758</ele>
        <time>2021-05-01T08:56:05.643Z</time>
      </trkpt>
      <trkpt lat="43.65141" lon="1.74866">
        <ele>244.271552</ele>
        <time>2021-05-01T08:56:07.432Z</time>
      </trkpt>
      <trkpt lat="43.65132" lon="1.74857">
        <ele>244.183603</ele>
        <time>2021-05-01T08:56:10.350Z</time>
      </trkpt>
      <trkpt lat="43.6512" lon="1.74837">
        <ele>244.0223</ele>
        <time>2021-05-01T08:56:14.449Z</time>
      </trkpt>
      <trkpt lat="43.65064" lon="1.74696">
        <ele>245.448857</ele>
        <time>2021-05-01T08:56:46.260Z</time>
      </trkpt>
      <trkpt lat="43.65001" lon="1.74589">
        <ele>246.533104</ele>
        <time>2021-05-01T08:57:15.754Z</time>
      </trkpt>
      <trkpt lat="43.64953" lon="1.74505">
        <ele>247.082753</ele>
        <time>2021-05-01T08:57:36.247Z</time>
      </trkpt>
      <trkpt lat="43.64949" lon="1.745">
        <ele>247.118294</ele>
        <time>2021-05-01T08:57:37.491Z</time>
      </trkpt>
      <trkpt lat="43.6494" lon="1.74488">
        <ele>247.209033</ele>
        <time>2021-05-01T08:57:40.734Z</time>
      </trkpt>
      <trkpt lat="43.64881" lon="1.74409">
        <ele>247.050465</ele>
        <time>2021-05-01T08:57:58.129Z</time>
      </trkpt>
      <trkpt lat="43.64856" lon="1.74356">
        <ele>246.294077</ele>
        <time>2021-05-01T08:58:06.577Z</time>
      </trkpt>
      <trkpt lat="43.64818" lon="1.74213">
        <ele>244.498949</ele>
        <time>2021-05-01T08:58:25.514Z</time>
      </trkpt>
      <trkpt lat="43.64814" lon="1.74181">
        <ele>244.237083</ele>
        <time>2021-05-01T08:58:29.601Z</time>
      </trkpt>
      <trkpt lat="43.64814" lon="1.74102">
        <ele>243.620649</ele>
        <time>2021-05-01T08:58:39.419Z</time>
      </trkpt>
      <trkpt lat="43.64808" lon="1.74053">
        <ele>243.227877</ele>
        <time>2021-05-01T08:58:46.155Z</time>
      </trkpt>
      <trkpt lat="43.64782" lon="1.73962">
        <ele>242.872058</ele>
        <time>2021-05-01T08:59:03.453Z</time>
      </trkpt>
      <trkpt lat="43.64763" lon="1.73914">
        <ele>243.582021</ele>
        <time>2021-05-01T08:59:14.657Z</time>
      </trkpt>
      <trkpt lat="43.64746" lon="1.73874">
        <ele>244.166257</ele>
        <time>2021-05-01T08:59:24.846Z</time>
      </trkpt>
      <trkpt lat="43.64743" lon="1.73865">
        <ele>244.290799</ele>
        <time>2021-05-01T08:59:26.949Z</time>
      </trkpt>
      <trkpt lat="43.64734" lon="1.73837">
        <ele>244.68206</ele>
        <time>2021-05-01T08:59:34.468Z</time>
      </trkpt>
      <trkpt lat="43.64725" lon="1.738">
        <ele>245.181321</ele>
        <time>2021-05-01T08:59:43.482Z</time>
      </trkpt>
      <trkpt lat="43.6472" lon="1.73757">
        <ele>245.743092</ele>
        <time>2021-05-01T08:59:53.496Z</time>
      </trkpt>
      <trkpt lat="43.64738" lon="1.7368">
        <ele>245.81881</ele>
        <time>2021-05-01T09:00:10.664Z</time>
      </trkpt>
      <trkpt lat="43.64742" lon="1.73637">
        <ele>245.835447</ele>
        <time>2021-05-01T09:00:18.780Z</time>
      </trkpt>
      <trkpt lat="43.64743" lon="1.73585">
        <ele>245.855441</ele>
        <time>2021-05-01T09:00:26.216Z</time>
      </trkpt>
      <trkpt lat="43.64741" lon="1.73391">
        <ele>244.521242</ele>
        <time>2021-05-01T09:00:51.522Z</time>
      </trkpt>
      <trkpt lat="43.64738" lon="1.73204">
        <ele>242.721729</ele>
        <time>2021-05-01T09:01:16.253Z</time>
      </trkpt>
      <trkpt lat="43.64728" lon="1.72965">
        <ele>241.442281</ele>
        <time>2021-05-01T09:01:52.684Z</time>
      </trkpt>
      <trkpt lat="43.64721" lon="1.72921">
        <ele>241.175775</ele>
        <time>2021-05-01T09:01:58.704Z</time>
      </trkpt>
      <trkpt lat="43.64709" lon="1.72897">
        <ele>241.004297</ele>
        <time>2021-05-01T09:02:02.551Z</time>
      </trkpt>
      <trkpt lat="43.64697" lon="1.72879">
        <ele>240.85114</ele>
        <time>2021-05-01T09:02:06.313Z</time>
      </trkpt>
      <trkpt lat="43.64694" lon="1.72875">
        <ele>240.824833</ele>
        <time>2021-05-01T09:02:06.899Z</time>
      </trkpt>
      <trkpt lat="43.64658" lon="1.72826">
        <ele>240.403811</ele>
        <time>2021-05-01T09:02:16.728Z</time>
      </trkpt>
      <trkpt lat="43.64652" lon="1.72816">
        <ele>240.325136</ele>
        <time>2021-05-01T09:02:18.644Z</time>
      </trkpt>
      <trkpt lat="43.64647" lon="1.72806">
        <ele>240.252709</ele>
        <time>2021-05-01T09:02:20.669Z</time>
      </trkpt>
      <trkpt lat="43.64644" lon="1.72796">
        <ele>240.247218</ele>
        <time>2021-05-01T09:02:22.108Z</time>
      </trkpt>
      <trkpt lat="43.64628" lon="1.72712">
        <ele>240.293955</ele>
        <time>2021-05-01T09:02:35.087Z</time>
      </trkpt>
      <trkpt lat="43.64602" lon="1.72574">
        <ele>240.370963</ele>
        <time>2021-05-01T09:02:59.194Z</time>
      </trkpt>
      <trkpt lat="43.64594" lon="1.72519">
        <ele>240.730126</ele>
        <time>2021-05-01T09:03:10.542Z</time>
      </trkpt>
      <trkpt lat="43.64589" lon="1.72456">
        <ele>241.226483</ele>
        <time>2021-05-01T09:03:23.209Z</time>
      </trkpt>
      <trkpt lat="43.64591" lon="1.72354">
        <ele>242.022867</ele>
        <time>2021-05-01T09:03:42.872Z</time>
      </trkpt>
      <trkpt lat="43.64602" lon="1.72209">
        <ele>242.763806</ele>
        <time>2021-05-01T09:04:10.821Z</time>
      </trkpt>
      <trkpt lat="43.64596" lon="1.72172">
        <ele>242.926168</ele>
        <time>2021-05-01T09:04:17.760Z</time>
      </trkpt>
      <trkpt lat="43.64587" lon="1.72146">
        <ele>243.044871</ele>
        <time>2021-05-01T09:04:22.886Z</time>
      </trkpt>
      <trkpt lat="43.64528" lon="1.72028">
        <ele>242.549463</ele>
        <time>2021-05-01T09:04:45.776Z</time>
      </trkpt>
      <trkpt lat="43.64523" lon="1.72016">
        <ele>242.387077</ele>
        <time>2021-05-01T09:04:47.543Z</time>
      </trkpt>
      <trkpt lat="43.64518" lon="1.71987">
        <ele>242.041708</ele>
        <time>2021-05-01T09:04:51.817Z</time>
      </trkpt>
      <trkpt lat="43.64518" lon="1.71835">
        <ele>240.113161</ele>
        <time>2021-05-01T09:05:10.707Z</time>
      </trkpt>
      <trkpt lat="43.64509" lon="1.71768">
        <ele>238.648871</ele>
        <time>2021-05-01T09:05:18.588Z</time>
      </trkpt>
      <trkpt lat="43.64494" lon="1.71693">
        <ele>236.978006</ele>
        <time>2021-05-01T09:05:27.649Z</time>
      </trkpt>
      <trkpt lat="43.64427" lon="1.71532">
        <ele>234.823037</ele>
        <time>2021-05-01T09:05:50.402Z</time>
      </trkpt>
      <trkpt lat="43.64372" lon="1.7142">
        <ele>234.408158</ele>
        <time>2021-05-01T09:06:14.918Z</time>
      </trkpt>
      <trkpt lat="43.64327" lon="1.71359">
        <ele>235.174463</ele>
        <time>2021-05-01T09:06:34.372Z</time>
      </trkpt>
      <trkpt lat="43.64315" lon="1.71346">
        <ele>235.41368</ele>
        <time>2021-05-01T09:06:39.560Z</time>
      </trkpt>
      <trkpt lat="43.64293" lon="1.7133">
        <ele>235.789209</ele>
        <time>2021-05-01T09:06:47.224Z</time>
      </trkpt>
      <trkpt lat="43.64232" lon="1.71295">
        <ele>236.780698</ele>
        <time>2021-05-01T09:07:05.877Z</time>
      </trkpt>
      <trkpt lat="43.64217" lon="1.71291">
        <ele>237.019717</ele>
        <time>2021-05-01T09:07:10.050Z</time>
      </trkpt>
      <trkpt lat="43.64166" lon="1.71276">
        <ele>236.125877</ele>
        <time>2021-05-01T09:07:22.280Z</time>
      </trkpt>
      <trkpt lat="43.6415" lon="1.71266">
        <ele>235.770951</ele>
        <time>2021-05-01T09:07:25.547Z</time>
      </trkpt>
      <trkpt lat="43.64119" lon="1.71237">
        <ele>235.013613</ele>
        <time>2021-05-01T09:07:31.968Z</time>
      </trkpt>
      <trkpt lat="43.64064" lon="1.71178">
        <ele>233.576804</ele>
        <time>2021-05-01T09:07:43.120Z</time>
      </trkpt>
      <trkpt lat="43.64032" lon="1.71132">
        <ele>232.038758</ele>
        <time>2021-05-01T09:07:50.222Z</time>
      </trkpt>
      <trkpt lat="43.64016" lon="1.7112">
        <ele>231.344902</ele>
        <time>2021-05-01T09:07:53.227Z</time>
      </trkpt>
      <trkpt lat="43.64002" lon="1.71118">
        <ele>230.858601</ele>
        <time>2021-05-01T09:07:55.299Z</time>
      </trkpt>
      <trkpt lat="43.63991" lon="1.71124">
        <ele>230.435423</ele>
        <time>2021-05-01T09:07:57.084Z</time>
      </trkpt>
      <trkpt lat="43.63954" lon="1.71154">
        <ele>228.866709</ele>
        <time>2021-05-01T09:08:04.029Z</time>
      </trkpt>
      <trkpt lat="43.63921" lon="1.71163">
        <ele>227.629899</ele>
        <time>2021-05-01T09:08:09.550Z</time>
      </trkpt>
      <trkpt lat="43.63884" lon="1.71154">
        <ele>226.363303</ele>
        <time>2021-05-01T09:08:15.663Z</time>
      </trkpt>
      <trkpt lat="43.63784" lon="1.711">
        <ele>223.160659</ele>
        <time>2021-05-01T09:08:33.550Z</time>
      </trkpt>
      <trkpt lat="43.63777" lon="1.71094">
        <ele>222.908905</ele>
        <time>2021-05-01T09:08:34.948Z</time>
      </trkpt>
      <trkpt lat="43.63773" lon="1.71088">
        <ele>222.71988</ele>
        <time>2021-05-01T09:08:36.000Z</time>
      </trkpt>
      <trkpt lat="43.63793" lon="1.70899">
        <ele>218.135488</ele>
        <time>2021-05-01T09:08:58.410Z</time>
      </trkpt>
      <trkpt lat="43.63791" lon="1.70882">
        <ele>217.692442</ele>
        <time>2021-05-01T09:09:00.395Z</time>
      </trkpt>
      <trkpt lat="43.63778" lon="1.70853">
        <ele>216.827847</ele>
        <time>2021-05-01T09:09:04.401Z</time>
      </trkpt>
      <trkpt lat="43.63749" lon="1.70813">
        <ele>215.41885</ele>
        <time>2021-05-01T09:09:10.855Z</time>
      </trkpt>
      <trkpt lat="43.63716" lon="1.70768">
        <ele>213.936179</ele>
        <time>2021-05-01T09:09:18.229Z</time>
      </trkpt>
      <trkpt lat="43.63674" lon="1.70719">
        <ele>212.184286</ele>
        <time>2021-05-01T09:09:27.186Z</time>
      </trkpt>
      <trkpt lat="43.63619" lon="1.70669">
        <ele>210.09186</ele>
        <time>2021-05-01T09:09:38.080Z</time>
      </trkpt>
      <trkpt lat="43.63509" lon="1.7059">
        <ele>206.509809</ele>
        <time>2021-05-01T09:09:59.047Z</time>
      </trkpt>
      <trkpt lat="43.6344" lon="1.70542">
        <ele>204.286965</ele>
        <time>2021-05-01T09:10:11.734Z</time>
      </trkpt>
      <trkpt lat="43.63404" lon="1.70505">
        <ele>202.680375</ele>
        <time>2021-05-01T09:10:18.941Z</time>
      </trkpt>
      <trkpt lat="43.63335" lon="1.70358">
        <ele>198.235454</ele>
        <time>2021-05-01T09:10:38.967Z</time>
      </trkpt>
      <trkpt lat="43.63321" lon="1.70326">
        <ele>197.622471</ele>
        <time>2021-05-01T09:10:43.479Z</time>
      </trkpt>
      <trkpt lat="43.63366" lon="1.70233">
        <ele>196.025649</ele>
        <time>2021-05-01T09:10:57.547Z</time>
      </trkpt>
      <trkpt lat="43.63366" lon="1.70233">
        <ele>196.024224</ele>
        <time>2021-05-01T09:10:57.558Z</time>
      </trkpt>
      <trkpt lat="43.63442" lon="1.70028">
        <ele>193.564197</ele>
        <time>2021-05-01T09:11:29.817Z</time>
      </trkpt>
      <trkpt lat="43.63538" lon="1.69918">
        <ele>191.688703</ele>
        <time>2021-05-01T09:11:54.043Z</time>
      </trkpt>
      <trkpt lat="43.63574" lon="1.69862">
        <ele>190.290164</ele>
        <time>2021-05-01T09:12:03.216Z</time>
      </trkpt>
      <trkpt lat="43.63585" lon="1.6984">
        <ele>189.801572</ele>
        <time>2021-05-01T09:12:06.409Z</time>
      </trkpt>
      <trkpt lat="43.63584" lon="1.69831">
        <ele>189.624197</ele>
        <time>2021-05-01T09:12:07.451Z</time>
      </trkpt>
      <trkpt lat="43.63572" lon="1.69817">
        <ele>189.224193</ele>
        <time>2021-05-01T09:12:10.039Z</time>
      </trkpt>
      <trkpt lat="43.6353" lon="1.69789">
        <ele>188.022086</ele>
        <time>2021-05-01T09:12:17.537Z</time>
      </trkpt>
      <trkpt lat="43.63511" lon="1.6978">
        <ele>187.252945</ele>
        <time>2021-05-01T09:12:20.600Z</time>
      </trkpt>
      <trkpt lat="43.63494" lon="1.69777">
        <ele>186.545353</ele>
        <time>2021-05-01T09:12:23.379Z</time>
      </trkpt>
      <trkpt lat="43.63467" lon="1.69768">
        <ele>185.408499</ele>
        <time>2021-05-01T09:12:27.707Z</time>
      </trkpt>
      <trkpt lat="43.63428" lon="1.69762">
        <ele>183.796121</ele>
        <time>2021-05-01T09:12:33.799Z</time>
      </trkpt>
      <trkpt lat="43.63344" lon="1.69749">
        <ele>180.333253</ele>
        <time>2021-05-01T09:12:46.853Z</time>
      </trkpt>
      <trkpt lat="43.63314" lon="1.69739">
        <ele>179.030537</ele>
        <time>2021-05-01T09:12:51.740Z</time>
      </trkpt>
      <trkpt lat="43.63277" lon="1.69699">
        <ele>177.081809</ele>
        <time>2021-05-01T09:12:59.085Z</time>
      </trkpt>
      <trkpt lat="43.6314" lon="1.69585">
        <ele>170.524987</ele>
        <time>2021-05-01T09:13:23.981Z</time>
      </trkpt>
      <trkpt lat="43.63041" lon="1.69487">
        <ele>165.717517</ele>
        <time>2021-05-01T09:13:43.100Z</time>
      </trkpt>
      <trkpt lat="43.63019" lon="1.6946">
        <ele>164.826667</ele>
        <time>2021-05-01T09:13:47.836Z</time>
      </trkpt>
      <trkpt lat="43.63006" lon="1.6944">
        <ele>164.242252</ele>
        <time>2021-05-01T09:13:50.986Z</time>
      </trkpt>
      <trkpt lat="43.62924" lon="1.69313">
        <ele>160.506182</ele>
        <time>2021-05-01T09:14:11.521Z</time>
      </trkpt>
      <trkpt lat="43.62886" lon="1.69225">
        <ele>159.204653</ele>
        <time>2021-05-01T09:14:24.412Z</time>
      </trkpt>
      <trkpt lat="43.6279" lon="1.69096">
        <ele>157.289453</ele>
        <time>2021-05-01T09:14:49.215Z</time>
      </trkpt>
      <trkpt lat="43.62755" lon="1.69091">
        <ele>157.241131</ele>
        <time>2021-05-01T09:14:56.126Z</time>
      </trkpt>
      <trkpt lat="43.62436" lon="1.69108">
        <ele>158.448659</ele>
        <time>2021-05-01T09:16:12.462Z</time>
      </trkpt>
      <trkpt lat="43.62398" lon="1.69098">
        <ele>159.204249</ele>
        <time>2021-05-01T09:16:23.797Z</time>
      </trkpt>
      <trkpt lat="43.62387" lon="1.6909">
        <ele>159.453317</ele>
        <time>2021-05-01T09:16:27.791Z</time>
      </trkpt>
      <trkpt lat="43.62371" lon="1.69077">
        <ele>159.834453</ele>
        <time>2021-05-01T09:16:33.474Z</time>
      </trkpt>
      <trkpt lat="43.62345" lon="1.69056">
        <ele>160.440416</ele>
        <time>2021-05-01T09:16:43.036Z</time>
      </trkpt>
      <trkpt lat="43.62328" lon="1.6904">
        <ele>160.846543</ele>
        <time>2021-05-01T09:16:49.879Z</time>
      </trkpt>
      <trkpt lat="43.6218" lon="1.68917">
        <ele>164.909585</ele>
        <time>2021-05-01T09:17:46.762Z</time>
      </trkpt>
      <trkpt lat="43.62126" lon="1.6885">
        <ele>166.472388</ele>
        <time>2021-05-01T09:18:08.410Z</time>
      </trkpt>
      <trkpt lat="43.62067" lon="1.68803">
        <ele>167.637025</ele>
        <time>2021-05-01T09:18:28.317Z</time>
      </trkpt>
      <trkpt lat="43.61943" lon="1.68611">
        <ele>170.521468</ele>
        <time>2021-05-01T09:19:20.973Z</time>
      </trkpt>
      <trkpt lat="43.61925" lon="1.68585">
        <ele>170.884446</ele>
        <time>2021-05-01T09:19:28.138Z</time>
      </trkpt>
      <trkpt lat="43.61902" lon="1.68556">
        <ele>171.332057</ele>
        <time>2021-05-01T09:19:36.827Z</time>
      </trkpt>
      <trkpt lat="43.61857" lon="1.68513">
        <ele>171.859328</ele>
        <time>2021-05-01T09:19:52.058Z</time>
      </trkpt>
      <trkpt lat="43.61846" lon="1.68507">
        <ele>171.933836</ele>
        <time>2021-05-01T09:19:55.095Z</time>
      </trkpt>
      <trkpt lat="43.61839" lon="1.68503">
        <ele>171.983916</ele>
        <time>2021-05-01T09:19:57.170Z</time>
      </trkpt>
      <trkpt lat="43.61832" lon="1.685">
        <ele>172.034784</ele>
        <time>2021-05-01T09:19:59.382Z</time>
      </trkpt>
      <trkpt lat="43.61774" lon="1.68489">
        <ele>172.425746</ele>
        <time>2021-05-01T09:20:14.393Z</time>
      </trkpt>
      <trkpt lat="43.61766" lon="1.68484">
        <ele>172.481262</ele>
        <time>2021-05-01T09:20:16.566Z</time>
      </trkpt>
      <trkpt lat="43.61764" lon="1.68483">
        <ele>172.496753</ele>
        <time>2021-05-01T09:20:17.251Z</time>
      </trkpt>
      <trkpt lat="43.61716" lon="1.68431">
        <ele>172.582099</ele>
        <time>2021-05-01T09:20:31.560Z</time>
      </trkpt>
      <trkpt lat="43.61677" lon="1.6837">
        <ele>171.334417</ele>
        <time>2021-05-01T09:20:42.266Z</time>
      </trkpt>
      <trkpt lat="43.61626" lon="1.68283">
        <ele>169.604843</ele>
        <time>2021-05-01T09:20:55.731Z</time>
      </trkpt>
      <trkpt lat="43.61607" lon="1.68249">
        <ele>168.936512</ele>
        <time>2021-05-01T09:21:00.724Z</time>
      </trkpt>
      <trkpt lat="43.61595" lon="1.68233">
        <ele>168.513137</ele>
        <time>2021-05-01T09:21:03.621Z</time>
      </trkpt>
      <trkpt lat="43.61595" lon="1.68232">
        <ele>168.503788</ele>
        <time>2021-05-01T09:21:03.670Z</time>
      </trkpt>
      <trkpt lat="43.61584" lon="1.68221">
        <ele>168.152445</ele>
        <time>2021-05-01T09:21:05.942Z</time>
      </trkpt>
      <trkpt lat="43.61577" lon="1.68216">
        <ele>167.967739</ele>
        <time>2021-05-01T09:21:07.219Z</time>
      </trkpt>
      <trkpt lat="43.61571" lon="1.68212">
        <ele>167.799569</ele>
        <time>2021-05-01T09:21:08.366Z</time>
      </trkpt>
      <trkpt lat="43.61562" lon="1.68207">
        <ele>167.540591</ele>
        <time>2021-05-01T09:21:09.947Z</time>
      </trkpt>
      <trkpt lat="43.61555" lon="1.68204">
        <ele>167.352633</ele>
        <time>2021-05-01T09:21:11.135Z</time>
      </trkpt>
      <trkpt lat="43.61521" lon="1.68189">
        <ele>166.46834</ele>
        <time>2021-05-01T09:21:16.889Z</time>
      </trkpt>
      <trkpt lat="43.61521" lon="1.68189">
        <ele>166.46834</ele>
        <time>2021-05-01T09:21:16.895Z</time>
      </trkpt>
      <trkpt lat="43.6153" lon="1.68185">
        <ele>166.225423</ele>
        <time>2021-05-01T09:21:18.538Z</time>
      </trkpt>
      <trkpt lat="43.6154" lon="1.68179">
        <ele>165.95253</ele>
        <time>2021-05-01T09:21:20.430Z</time>
      </trkpt>
      <trkpt lat="43.61549" lon="1.68172">
        <ele>165.693664</ele>
        <time>2021-05-01T09:21:22.008Z</time>
      </trkpt>
      <trkpt lat="43.61554" lon="1.68166">
        <ele>165.527422</ele>
        <time>2021-05-01T09:21:23.069Z</time>
      </trkpt>
      <trkpt lat="43.61561" lon="1.68159">
        <ele>165.315132</ele>
        <time>2021-05-01T09:21:24.500Z</time>
      </trkpt>
      <trkpt lat="43.61653" lon="1.6806">
        <ele>164.827272</ele>
        <time>2021-05-01T09:21:48.430Z</time>
      </trkpt>
      <trkpt lat="43.61679" lon="1.68049">
        <ele>164.950546</ele>
        <time>2021-05-01T09:21:55.304Z</time>
      </trkpt>
      <trkpt lat="43.61751" lon="1.68033">
        <ele>165.34029</ele>
        <time>2021-05-01T09:22:15.818Z</time>
      </trkpt>
      <trkpt lat="43.61754" lon="1.6803">
        <ele>165.418436</ele>
        <time>2021-05-01T09:22:16.796Z</time>
      </trkpt>
      <trkpt lat="43.61757" lon="1.68024">
        <ele>165.518903</ele>
        <time>2021-05-01T09:22:18.819Z</time>
      </trkpt>
      <trkpt lat="43.61785" lon="1.67821">
        <ele>168.768863</ele>
        <time>2021-05-01T09:23:05.989Z</time>
      </trkpt>
      <trkpt lat="43.61832" lon="1.67595">
        <ele>172.238648</ele>
        <time>2021-05-01T09:23:58.243Z</time>
      </trkpt>
      <trkpt lat="43.61861" lon="1.67353">
        <ele>175.318052</ele>
        <time>2021-05-01T09:24:49.645Z</time>
      </trkpt>
      <trkpt lat="43.61911" lon="1.67121">
        <ele>178.255621</ele>
        <time>2021-05-01T09:25:40.733Z</time>
      </trkpt>
      <trkpt lat="43.61912" lon="1.67106">
        <ele>178.43584</ele>
        <time>2021-05-01T09:25:43.983Z</time>
      </trkpt>
      <trkpt lat="43.61911" lon="1.6709">
        <ele>178.637444</ele>
        <time>2021-05-01T09:25:47.526Z</time>
      </trkpt>
      <trkpt lat="43.61904" lon="1.67013">
        <ele>179.352107</ele>
        <time>2021-05-01T09:26:02.986Z</time>
      </trkpt>
      <trkpt lat="43.61904" lon="1.67002">
        <ele>179.445847</ele>
        <time>2021-05-01T09:26:05.391Z</time>
      </trkpt>
      <trkpt lat="43.61906" lon="1.66986">
        <ele>179.583798</ele>
        <time>2021-05-01T09:26:08.622Z</time>
      </trkpt>
      <trkpt lat="43.61997" lon="1.6648">
        <ele>184.069517</ele>
        <time>2021-05-01T09:27:47.699Z</time>
      </trkpt>
      <trkpt lat="43.61998" lon="1.6647">
        <ele>184.196492</ele>
        <time>2021-05-01T09:27:49.830Z</time>
      </trkpt>
      <trkpt lat="43.61998" lon="1.66458">
        <ele>184.333724</ele>
        <time>2021-05-01T09:27:52.894Z</time>
      </trkpt>
      <trkpt lat="43.61986" lon="1.66356">
        <ele>185.5866</ele>
        <time>2021-05-01T09:28:15.625Z</time>
      </trkpt>
      <trkpt lat="43.61967" lon="1.66306">
        <ele>186.403293</ele>
        <time>2021-05-01T09:28:28.447Z</time>
      </trkpt>
      <trkpt lat="43.61932" lon="1.66264">
        <ele>187.36953</ele>
        <time>2021-05-01T09:28:43.237Z</time>
      </trkpt>
      <trkpt lat="43.6183" lon="1.66191">
        <ele>189.728327</ele>
        <time>2021-05-01T09:29:17.574Z</time>
      </trkpt>
      <trkpt lat="43.61818" lon="1.66161">
        <ele>190.215542</ele>
        <time>2021-05-01T09:29:24.851Z</time>
      </trkpt>
      <trkpt lat="43.61823" lon="1.65946">
        <ele>193.344257</ele>
        <time>2021-05-01T09:30:11.867Z</time>
      </trkpt>
      <trkpt lat="43.6183" lon="1.65848">
        <ele>194.929581</ele>
        <time>2021-05-01T09:30:34.240Z</time>
      </trkpt>
      <trkpt lat="43.61829" lon="1.65793">
        <ele>195.797971</ele>
        <time>2021-05-01T09:30:46.632Z</time>
      </trkpt>
      <trkpt lat="43.61887" lon="1.65633">
        <ele>198.198956</ele>
        <time>2021-05-01T09:31:27.982Z</time>
      </trkpt>
      <trkpt lat="43.61911" lon="1.65452">
        <ele>199.354778</ele>
        <time>2021-05-01T09:32:03.831Z</time>
      </trkpt>
      <trkpt lat="43.61912" lon="1.65449">
        <ele>199.305029</ele>
        <time>2021-05-01T09:32:05.004Z</time>
      </trkpt>
      <trkpt lat="43.61914" lon="1.65445">
        <ele>199.241323</ele>
        <time>2021-05-01T09:32:05.854Z</time>
      </trkpt>
      <trkpt lat="43.61943" lon="1.65343">
        <ele>197.831924</ele>
        <time>2021-05-01T09:32:20.370Z</time>
      </trkpt>
      <trkpt lat="43.61948" lon="1.65285">
        <ele>197.069356</ele>
        <time>2021-05-01T09:32:27.374Z</time>
      </trkpt>
      <trkpt lat="43.61943" lon="1.65265">
        <ele>196.805617</ele>
        <time>2021-05-01T09:32:29.673Z</time>
      </trkpt>
      <trkpt lat="43.619" lon="1.6518">
        <ele>193.941361</ele>
        <time>2021-05-01T09:32:41.039Z</time>
      </trkpt>
      <trkpt lat="43.61889" lon="1.65088">
        <ele>191.21425</ele>
        <time>2021-05-01T09:32:51.369Z</time>
      </trkpt>
      <trkpt lat="43.61867" lon="1.65054">
        <ele>189.864717</ele>
        <time>2021-05-01T09:32:56.752Z</time>
      </trkpt>
      <trkpt lat="43.61855" lon="1.65039">
        <ele>189.37474</ele>
        <time>2021-05-01T09:32:59.312Z</time>
      </trkpt>
      <trkpt lat="43.6185" lon="1.65034">
        <ele>189.405051</ele>
        <time>2021-05-01T09:33:00.446Z</time>
      </trkpt>
      <trkpt lat="43.6179" lon="1.64963">
        <ele>189.786244</ele>
        <time>2021-05-01T09:33:15.280Z</time>
      </trkpt>
      <trkpt lat="43.61656" lon="1.64804">
        <ele>193.482455</ele>
        <time>2021-05-01T09:34:14.399Z</time>
      </trkpt>
      <trkpt lat="43.61628" lon="1.64771">
        <ele>194.877012</ele>
        <time>2021-05-01T09:34:29.170Z</time>
      </trkpt>
      <trkpt lat="43.61567" lon="1.64699">
        <ele>198.225086</ele>
        <time>2021-05-01T09:35:02.673Z</time>
      </trkpt>
      <trkpt lat="43.61436" lon="1.64543">
        <ele>206.914712</ele>
        <time>2021-05-01T09:36:17.667Z</time>
      </trkpt>
      <trkpt lat="43.61367" lon="1.64462">
        <ele>210.486306</ele>
        <time>2021-05-01T09:36:54.703Z</time>
      </trkpt>
      <trkpt lat="43.61357" lon="1.6445">
        <ele>211.012716</ele>
        <time>2021-05-01T09:36:59.757Z</time>
      </trkpt>
      <trkpt lat="43.6133" lon="1.64418">
        <ele>212.430065</ele>
        <time>2021-05-01T09:37:12.294Z</time>
      </trkpt>
      <trkpt lat="43.61311" lon="1.64396">
        <ele>213.386717</ele>
        <time>2021-05-01T09:37:20.121Z</time>
      </trkpt>
      <trkpt lat="43.61285" lon="1.64366">
        <ele>213.386629</ele>
        <time>2021-05-01T09:37:30.131Z</time>
      </trkpt>
      <trkpt lat="43.61259" lon="1.64341">
        <ele>213.386546</ele>
        <time>2021-05-01T09:37:38.590Z</time>
      </trkpt>
      <trkpt lat="43.61241" lon="1.64328">
        <ele>213.386492</ele>
        <time>2021-05-01T09:37:43.659Z</time>
      </trkpt>
      <trkpt lat="43.61215" lon="1.64311">
        <ele>213.386418</ele>
        <time>2021-05-01T09:37:49.921Z</time>
      </trkpt>
      <trkpt lat="43.61154" lon="1.64269">
        <ele>213.266633</ele>
        <time>2021-05-01T09:38:02.353Z</time>
      </trkpt>
      <trkpt lat="43.61126" lon="1.6425">
        <ele>212.053544</ele>
        <time>2021-05-01T09:38:07.693Z</time>
      </trkpt>
      <trkpt lat="43.61047" lon="1.64197">
        <ele>208.673305</ele>
        <time>2021-05-01T09:38:21.309Z</time>
      </trkpt>
      <trkpt lat="43.61032" lon="1.64185">
        <ele>207.998408</ele>
        <time>2021-05-01T09:38:23.983Z</time>
      </trkpt>
      <trkpt lat="43.61026" lon="1.64179">
        <ele>207.739227</ele>
        <time>2021-05-01T09:38:24.957Z</time>
      </trkpt>
      <trkpt lat="43.61008" lon="1.6415">
        <ele>206.654721</ele>
        <time>2021-05-01T09:38:29.370Z</time>
      </trkpt>
      <trkpt lat="43.61002" lon="1.64139">
        <ele>206.325112</ele>
        <time>2021-05-01T09:38:30.705Z</time>
      </trkpt>
      <trkpt lat="43.60996" lon="1.64123">
        <ele>205.939085</ele>
        <time>2021-05-01T09:38:32.886Z</time>
      </trkpt>
      <trkpt lat="43.60993" lon="1.64113">
        <ele>205.700862</ele>
        <time>2021-05-01T09:38:34.062Z</time>
      </trkpt>
      <trkpt lat="43.60991" lon="1.64083">
        <ele>205.066943</ele>
        <time>2021-05-01T09:38:37.418Z</time>
      </trkpt>
      <trkpt lat="43.60996" lon="1.64058">
        <ele>204.517916</ele>
        <time>2021-05-01T09:38:40.390Z</time>
      </trkpt>
      <trkpt lat="43.61031" lon="1.64002">
        <ele>202.941316</ele>
        <time>2021-05-01T09:38:48.945Z</time>
      </trkpt>
      <trkpt lat="43.61041" lon="1.63976">
        <ele>202.301642</ele>
        <time>2021-05-01T09:38:52.798Z</time>
      </trkpt>
      <trkpt lat="43.61043" lon="1.63967">
        <ele>202.109022</ele>
        <time>2021-05-01T09:38:53.756Z</time>
      </trkpt>
      <trkpt lat="43.61044" lon="1.63958">
        <ele>201.901705</ele>
        <time>2021-05-01T09:38:55.699Z</time>
      </trkpt>
      <trkpt lat="43.61044" lon="1.63947">
        <ele>201.661844</ele>
        <time>2021-05-01T09:38:57.434Z</time>
      </trkpt>
      <trkpt lat="43.61044" lon="1.63933">
        <ele>201.38181</ele>
        <time>2021-05-01T09:38:59.049Z</time>
      </trkpt>
      <trkpt lat="43.61044" lon="1.63917">
        <ele>201.228324</ele>
        <time>2021-05-01T09:39:01.165Z</time>
      </trkpt>
      <trkpt lat="43.61045" lon="1.63906">
        <ele>201.389692</ele>
        <time>2021-05-01T09:39:03.991Z</time>
      </trkpt>
      <trkpt lat="43.61061" lon="1.63865">
        <ele>202.052162</ele>
        <time>2021-05-01T09:39:12.176Z</time>
      </trkpt>
      <trkpt lat="43.61129" lon="1.63771">
        <ele>203.952179</ele>
        <time>2021-05-01T09:39:40.953Z</time>
      </trkpt>
      <trkpt lat="43.61212" lon="1.63609">
        <ele>209.994299</ele>
        <time>2021-05-01T09:40:40.239Z</time>
      </trkpt>
      <trkpt lat="43.61215" lon="1.63602">
        <ele>210.313572</ele>
        <time>2021-05-01T09:40:44.178Z</time>
      </trkpt>
      <trkpt lat="43.61236" lon="1.63546">
        <ele>212.581734</ele>
        <time>2021-05-01T09:41:03.385Z</time>
      </trkpt>
      <trkpt lat="43.61249" lon="1.6347">
        <ele>215.338994</ele>
        <time>2021-05-01T09:41:28.483Z</time>
      </trkpt>
      <trkpt lat="43.61274" lon="1.63389">
        <ele>218.437668</ele>
        <time>2021-05-01T09:41:58.709Z</time>
      </trkpt>
      <trkpt lat="43.61299" lon="1.63309">
        <ele>221.479602</ele>
        <time>2021-05-01T09:42:23.360Z</time>
      </trkpt>
      <trkpt lat="43.61304" lon="1.63295">
        <ele>222.024446</ele>
        <time>2021-05-01T09:42:27.287Z</time>
      </trkpt>
      <trkpt lat="43.61308" lon="1.63284">
        <ele>222.423052</ele>
        <time>2021-05-01T09:42:30.412Z</time>
      </trkpt>
      <trkpt lat="43.61312" lon="1.63274">
        <ele>222.54632</ele>
        <time>2021-05-01T09:42:33.521Z</time>
      </trkpt>
      <trkpt lat="43.61317" lon="1.63265">
        <ele>222.664029</ele>
        <time>2021-05-01T09:42:36.150Z</time>
      </trkpt>
      <trkpt lat="43.61384" lon="1.63162">
        <ele>224.146746</ele>
        <time>2021-05-01T09:43:06.411Z</time>
      </trkpt>
      <trkpt lat="43.61384" lon="1.63159">
        <ele>224.184094</ele>
        <time>2021-05-01T09:43:07.288Z</time>
      </trkpt>
      <trkpt lat="43.61381" lon="1.63154">
        <ele>224.253953</ele>
        <time>2021-05-01T09:43:08.193Z</time>
      </trkpt>
      <trkpt lat="43.61333" lon="1.63117">
        <ele>225.053306</ele>
        <time>2021-05-01T09:43:20.217Z</time>
      </trkpt>
      <trkpt lat="43.61242" lon="1.63109">
        <ele>224.679154</ele>
        <time>2021-05-01T09:43:38.692Z</time>
      </trkpt>
      <trkpt lat="43.61201" lon="1.63099">
        <ele>224.510028</ele>
        <time>2021-05-01T09:43:47.359Z</time>
      </trkpt>
      <trkpt lat="43.61159" lon="1.63073">
        <ele>224.320959</ele>
        <time>2021-05-01T09:43:57.027Z</time>
      </trkpt>
      <trkpt lat="43.61127" lon="1.6304">
        <ele>224.100596</ele>
        <time>2021-05-01T09:44:05.346Z</time>
      </trkpt>
      <trkpt lat="43.61105" lon="1.63009">
        <ele>223.92466</ele>
        <time>2021-05-01T09:44:11.890Z</time>
      </trkpt>
      <trkpt lat="43.61108" lon="1.62999">
        <ele>223.882637</ele>
        <time>2021-05-01T09:44:13.576Z</time>
      </trkpt>
      <trkpt lat="43.61145" lon="1.62833">
        <ele>223.201565</ele>
        <time>2021-05-01T09:44:40.055Z</time>
      </trkpt>
      <trkpt lat="43.61148" lon="1.62791">
        <ele>223.048733</ele>
        <time>2021-05-01T09:44:46.467Z</time>
      </trkpt>
      <trkpt lat="43.61139" lon="1.62687">
        <ele>222.673842</ele>
        <time>2021-05-01T09:45:02.163Z</time>
      </trkpt>
      <trkpt lat="43.61098" lon="1.62467">
        <ele>223.110976</ele>
        <time>2021-05-01T09:45:41.695Z</time>
      </trkpt>
      <trkpt lat="43.61092" lon="1.62425">
        <ele>223.288935</ele>
        <time>2021-05-01T09:45:50.104Z</time>
      </trkpt>
      <trkpt lat="43.61083" lon="1.62357">
        <ele>223.644559</ele>
        <time>2021-05-01T09:46:04.752Z</time>
      </trkpt>
      <trkpt lat="43.61072" lon="1.62255">
        <ele>224.339775</ele>
        <time>2021-05-01T09:46:26.060Z</time>
      </trkpt>
      <trkpt lat="43.61052" lon="1.62202">
        <ele>224.743762</ele>
        <time>2021-05-01T09:46:37.650Z</time>
      </trkpt>
      <trkpt lat="43.61035" lon="1.62168">
        <ele>225.024398</ele>
        <time>2021-05-01T09:46:45.333Z</time>
      </trkpt>
      <trkpt lat="43.61014" lon="1.62126">
        <ele>225.109172</ele>
        <time>2021-05-01T09:46:53.780Z</time>
      </trkpt>
      <trkpt lat="43.60969" lon="1.62045">
        <ele>224.928697</ele>
        <time>2021-05-01T09:47:09.554Z</time>
      </trkpt>
      <trkpt lat="43.60906" lon="1.61911">
        <ele>224.601575</ele>
        <time>2021-05-01T09:47:33.246Z</time>
      </trkpt>
      <trkpt lat="43.60893" lon="1.61866">
        <ele>224.472139</ele>
        <time>2021-05-01T09:47:40.465Z</time>
      </trkpt>
      <trkpt lat="43.60885" lon="1.61772">
        <ele>224.214941</ele>
        <time>2021-05-01T09:47:55.175Z</time>
      </trkpt>
      <trkpt lat="43.60877" lon="1.61401">
        <ele>223.150563</ele>
        <time>2021-05-01T09:48:51.806Z</time>
      </trkpt>
      <trkpt lat="43.60888" lon="1.61294">
        <ele>222.679263</ele>
        <time>2021-05-01T09:49:07.375Z</time>
      </trkpt>
      <trkpt lat="43.60931" lon="1.61103">
        <ele>222.359913</ele>
        <time>2021-05-01T09:49:37.127Z</time>
      </trkpt>
      <trkpt lat="43.60982" lon="1.60823">
        <ele>223.000043</ele>
        <time>2021-05-01T09:50:28.207Z</time>
      </trkpt>
      <trkpt lat="43.61002" lon="1.60752">
        <ele>223.291182</ele>
        <time>2021-05-01T09:50:41.875Z</time>
      </trkpt>
      <trkpt lat="43.61012" lon="1.60719">
        <ele>223.355604</ele>
        <time>2021-05-01T09:50:48.148Z</time>
      </trkpt>
      <trkpt lat="43.61028" lon="1.6067">
        <ele>223.408693</ele>
        <time>2021-05-01T09:50:57.324Z</time>
      </trkpt>
      <trkpt lat="43.61041" lon="1.60632">
        <ele>223.44928</ele>
        <time>2021-05-01T09:51:04.294Z</time>
      </trkpt>
      <trkpt lat="43.61079" lon="1.6052">
        <ele>223.570254</ele>
        <time>2021-05-01T09:51:24.123Z</time>
      </trkpt>
      <trkpt lat="43.61121" lon="1.60398">
        <ele>223.624357</ele>
        <time>2021-05-01T09:51:45.202Z</time>
      </trkpt>
      <trkpt lat="43.6119" lon="1.60197">
        <ele>224.238466</ele>
        <time>2021-05-01T09:52:23.078Z</time>
      </trkpt>
      <trkpt lat="43.61241" lon="1.60027">
        <ele>225.406981</ele>
        <time>2021-05-01T09:52:58.121Z</time>
      </trkpt>
      <trkpt lat="43.61271" lon="1.59922">
        <ele>226.485708</ele>
        <time>2021-05-01T09:53:21.041Z</time>
      </trkpt>
      <trkpt lat="43.6129" lon="1.59857">
        <ele>227.150177</ele>
        <time>2021-05-01T09:53:35.310Z</time>
      </trkpt>
      <trkpt lat="43.61312" lon="1.59779">
        <ele>227.8902</ele>
        <time>2021-05-01T09:53:52.240Z</time>
      </trkpt>
      <trkpt lat="43.61363" lon="1.59523">
        <ele>229.853351</ele>
        <time>2021-05-01T09:54:43.380Z</time>
      </trkpt>
      <trkpt lat="43.61368" lon="1.59495">
        <ele>229.990769</ele>
        <time>2021-05-01T09:54:48.905Z</time>
      </trkpt>
      <trkpt lat="43.61382" lon="1.59434">
        <ele>230.296244</ele>
        <time>2021-05-01T09:55:00.344Z</time>
      </trkpt>
      <trkpt lat="43.61388" lon="1.59408">
        <ele>230.424198</ele>
        <time>2021-05-01T09:55:05.164Z</time>
      </trkpt>
      <trkpt lat="43.61394" lon="1.59388">
        <ele>230.527073</ele>
        <time>2021-05-01T09:55:08.741Z</time>
      </trkpt>
      <trkpt lat="43.61401" lon="1.5937">
        <ele>230.623496</ele>
        <time>2021-05-01T09:55:12.164Z</time>
      </trkpt>
      <trkpt lat="43.61404" lon="1.59362">
        <ele>230.666636</ele>
        <time>2021-05-01T09:55:13.796Z</time>
      </trkpt>
      <trkpt lat="43.61417" lon="1.59338">
        <ele>230.565016</ele>
        <time>2021-05-01T09:55:18.640Z</time>
      </trkpt>
      <trkpt lat="43.61443" lon="1.59291">
        <ele>230.34405</ele>
        <time>2021-05-01T09:55:27.867Z</time>
      </trkpt>
      <trkpt lat="43.61539" lon="1.59112">
        <ele>229.243297</ele>
        <time>2021-05-01T09:55:59.765Z</time>
      </trkpt>
      <trkpt lat="43.61588" lon="1.59008">
        <ele>228.260922</ele>
        <time>2021-05-01T09:56:16.674Z</time>
      </trkpt>
      <trkpt lat="43.61617" lon="1.58929">
        <ele>227.575194</ele>
        <time>2021-05-01T09:56:28.728Z</time>
      </trkpt>
      <trkpt lat="43.6169" lon="1.58724">
        <ele>225.910736</ele>
        <time>2021-05-01T09:57:00.740Z</time>
      </trkpt>
      <trkpt lat="43.61845" lon="1.58372">
        <ele>223.668607</ele>
        <time>2021-05-01T09:58:01.405Z</time>
      </trkpt>
      <trkpt lat="43.61808" lon="1.58323">
        <ele>223.197437</ele>
        <time>2021-05-01T09:58:11.111Z</time>
      </trkpt>
      <trkpt lat="43.6173" lon="1.58213">
        <ele>220.550568</ele>
        <time>2021-05-01T09:58:30.447Z</time>
      </trkpt>
      <trkpt lat="43.61706" lon="1.58152">
        <ele>219.316964</ele>
        <time>2021-05-01T09:58:38.735Z</time>
      </trkpt>
      <trkpt lat="43.61693" lon="1.58117">
        <ele>218.56279</ele>
        <time>2021-05-01T09:58:43.616Z</time>
      </trkpt>
      <trkpt lat="43.61687" lon="1.58108">
        <ele>218.273991</ele>
        <time>2021-05-01T09:58:44.882Z</time>
      </trkpt>
      <trkpt lat="43.61611" lon="1.58054">
        <ele>215.347961</ele>
        <time>2021-05-01T09:58:58.837Z</time>
      </trkpt>
      <trkpt lat="43.61558" lon="1.58029">
        <ele>213.433664</ele>
        <time>2021-05-01T09:59:07.482Z</time>
      </trkpt>
      <trkpt lat="43.61518" lon="1.58023">
        <ele>212.251651</ele>
        <time>2021-05-01T09:59:14.047Z</time>
      </trkpt>
      <trkpt lat="43.61469" lon="1.58044">
        <ele>211.109495</ele>
        <time>2021-05-01T09:59:22.784Z</time>
      </trkpt>
      <trkpt lat="43.61453" lon="1.58053">
        <ele>210.717214</ele>
        <time>2021-05-01T09:59:25.593Z</time>
      </trkpt>
      <trkpt lat="43.61449" lon="1.58043">
        <ele>210.544909</ele>
        <time>2021-05-01T09:59:26.993Z</time>
      </trkpt>
      <trkpt lat="43.6142" lon="1.57929">
        <ele>208.601486</ele>
        <time>2021-05-01T09:59:42.788Z</time>
      </trkpt>
      <trkpt lat="43.6141" lon="1.57904">
        <ele>208.604237</ele>
        <time>2021-05-01T09:59:46.828Z</time>
      </trkpt>
      <trkpt lat="43.61398" lon="1.57875">
        <ele>208.607464</ele>
        <time>2021-05-01T09:59:52.085Z</time>
      </trkpt>
      <trkpt lat="43.61381" lon="1.57838">
        <ele>208.611651</ele>
        <time>2021-05-01T09:59:59.866Z</time>
      </trkpt>
      <trkpt lat="43.61373" lon="1.57804">
        <ele>208.615118</ele>
        <time>2021-05-01T10:00:05.717Z</time>
      </trkpt>
      <trkpt lat="43.61372" lon="1.57799">
        <ele>208.615632</ele>
        <time>2021-05-01T10:00:06.509Z</time>
      </trkpt>
      <trkpt lat="43.61372" lon="1.57795">
        <ele>208.61605</ele>
        <time>2021-05-01T10:00:07.973Z</time>
      </trkpt>
      <trkpt lat="43.61372" lon="1.57716">
        <ele>208.623593</ele>
        <time>2021-05-01T10:00:20.269Z</time>
      </trkpt>
      <trkpt lat="43.61369" lon="1.57699">
        <ele>208.625319</ele>
        <time>2021-05-01T10:00:23.384Z</time>
      </trkpt>
      <trkpt lat="43.61364" lon="1.57685">
        <ele>208.802594</ele>
        <time>2021-05-01T10:00:26.445Z</time>
      </trkpt>
      <trkpt lat="43.61343" lon="1.57651">
        <ele>209.308842</ele>
        <time>2021-05-01T10:00:35.215Z</time>
      </trkpt>
      <trkpt lat="43.61327" lon="1.57635">
        <ele>209.61834</ele>
        <time>2021-05-01T10:00:40.366Z</time>
      </trkpt>
      <trkpt lat="43.61286" lon="1.576">
        <ele>210.37711</ele>
        <time>2021-05-01T10:00:54.790Z</time>
      </trkpt>
      <trkpt lat="43.61277" lon="1.57589">
        <ele>210.562553</ele>
        <time>2021-05-01T10:00:58.104Z</time>
      </trkpt>
      <trkpt lat="43.61263" lon="1.57571">
        <ele>210.869876</ele>
        <time>2021-05-01T10:01:03.905Z</time>
      </trkpt>
      <trkpt lat="43.61221" lon="1.57512">
        <ele>212.099235</ele>
        <time>2021-05-01T10:01:22.258Z</time>
      </trkpt>
      <trkpt lat="43.61202" lon="1.57494">
        <ele>212.735605</ele>
        <time>2021-05-01T10:01:29.460Z</time>
      </trkpt>
      <trkpt lat="43.6114" lon="1.57455">
        <ele>214.659435</ele>
        <time>2021-05-01T10:01:52.942Z</time>
      </trkpt>
      <trkpt lat="43.61118" lon="1.5744">
        <ele>215.35483</ele>
        <time>2021-05-01T10:02:02.798Z</time>
      </trkpt>
      <trkpt lat="43.61112" lon="1.57435">
        <ele>215.563193</ele>
        <time>2021-05-01T10:02:04.983Z</time>
      </trkpt>
      <trkpt lat="43.61109" lon="1.57428">
        <ele>215.725981</ele>
        <time>2021-05-01T10:02:06.844Z</time>
      </trkpt>
      <trkpt lat="43.61107" lon="1.57422">
        <ele>215.853821</ele>
        <time>2021-05-01T10:02:08.225Z</time>
      </trkpt>
      <trkpt lat="43.61106" lon="1.57415">
        <ele>215.99789</ele>
        <time>2021-05-01T10:02:10.337Z</time>
      </trkpt>
      <trkpt lat="43.61106" lon="1.57408">
        <ele>216.149419</ele>
        <time>2021-05-01T10:02:12.186Z</time>
      </trkpt>
      <trkpt lat="43.61107" lon="1.57404">
        <ele>216.242788</ele>
        <time>2021-05-01T10:02:13.413Z</time>
      </trkpt>
      <trkpt lat="43.6111" lon="1.57394">
        <ele>216.451233</ele>
        <time>2021-05-01T10:02:16.282Z</time>
      </trkpt>
      <trkpt lat="43.61129" lon="1.57357">
        <ele>216.824639</ele>
        <time>2021-05-01T10:02:26.919Z</time>
      </trkpt>
      <trkpt lat="43.6116" lon="1.573">
        <ele>217.303462</ele>
        <time>2021-05-01T10:02:41.332Z</time>
      </trkpt>
      <trkpt lat="43.61163" lon="1.57294">
        <ele>217.353809</ele>
        <time>2021-05-01T10:02:43.056Z</time>
      </trkpt>
      <trkpt lat="43.61171" lon="1.57277">
        <ele>217.491723</ele>
        <time>2021-05-01T10:02:47.578Z</time>
      </trkpt>
      <trkpt lat="43.6118" lon="1.57268">
        <ele>217.591253</ele>
        <time>2021-05-01T10:02:49.760Z</time>
      </trkpt>
      <trkpt lat="43.61184" lon="1.57258">
        <ele>217.672986</ele>
        <time>2021-05-01T10:02:51.520Z</time>
      </trkpt>
      <trkpt lat="43.61188" lon="1.57249">
        <ele>217.740868</ele>
        <time>2021-05-01T10:02:53.157Z</time>
      </trkpt>
      <trkpt lat="43.61195" lon="1.57233">
        <ele>217.871706</ele>
        <time>2021-05-01T10:02:56.708Z</time>
      </trkpt>
      <trkpt lat="43.61207" lon="1.57195">
        <ele>218.149567</ele>
        <time>2021-05-01T10:03:02.660Z</time>
      </trkpt>
      <trkpt lat="43.61215" lon="1.57177">
        <ele>218.106264</ele>
        <time>2021-05-01T10:03:05.485Z</time>
      </trkpt>
      <trkpt lat="43.61225" lon="1.57154">
        <ele>217.769736</ele>
        <time>2021-05-01T10:03:09.210Z</time>
      </trkpt>
      <trkpt lat="43.61228" lon="1.57143">
        <ele>217.613903</ele>
        <time>2021-05-01T10:03:10.809Z</time>
      </trkpt>
      <trkpt lat="43.61282" lon="1.57016">
        <ele>215.748843</ele>
        <time>2021-05-01T10:03:29.761Z</time>
      </trkpt>
      <trkpt lat="43.61286" lon="1.57007">
        <ele>215.610159</ele>
        <time>2021-05-01T10:03:31.048Z</time>
      </trkpt>
      <trkpt lat="43.61293" lon="1.56988">
        <ele>215.340906</ele>
        <time>2021-05-01T10:03:33.784Z</time>
      </trkpt>
      <trkpt lat="43.61295" lon="1.56984">
        <ele>215.273654</ele>
        <time>2021-05-01T10:03:34.430Z</time>
      </trkpt>
      <trkpt lat="43.61322" lon="1.5692">
        <ele>214.179763</ele>
        <time>2021-05-01T10:03:43.504Z</time>
      </trkpt>
      <trkpt lat="43.61354" lon="1.56843">
        <ele>212.809261</ele>
        <time>2021-05-01T10:03:54.709Z</time>
      </trkpt>
      <trkpt lat="43.61355" lon="1.56837">
        <ele>212.705941</ele>
        <time>2021-05-01T10:03:55.489Z</time>
      </trkpt>
      <trkpt lat="43.61357" lon="1.56831">
        <ele>212.604778</ele>
        <time>2021-05-01T10:03:56.268Z</time>
      </trkpt>
      <trkpt lat="43.61361" lon="1.56795">
        <ele>212.046236</ele>
        <time>2021-05-01T10:04:00.959Z</time>
      </trkpt>
      <trkpt lat="43.61365" lon="1.56784">
        <ele>211.861142</ele>
        <time>2021-05-01T10:04:02.401Z</time>
      </trkpt>
      <trkpt lat="43.6137" lon="1.56765">
        <ele>211.546802</ele>
        <time>2021-05-01T10:04:04.979Z</time>
      </trkpt>
      <trkpt lat="43.61374" lon="1.56744">
        <ele>211.219852</ele>
        <time>2021-05-01T10:04:07.900Z</time>
      </trkpt>
      <trkpt lat="43.61379" lon="1.56731">
        <ele>211.086778</ele>
        <time>2021-05-01T10:04:09.748Z</time>
      </trkpt>
      <trkpt lat="43.61391" lon="1.56679">
        <ele>210.592863</ele>
        <time>2021-05-01T10:04:17.061Z</time>
      </trkpt>
      <trkpt lat="43.61391" lon="1.56673">
        <ele>210.540759</ele>
        <time>2021-05-01T10:04:17.745Z</time>
      </trkpt>
      <trkpt lat="43.61402" lon="1.56605">
        <ele>209.917947</ele>
        <time>2021-05-01T10:04:27.253Z</time>
      </trkpt>
      <trkpt lat="43.61432" lon="1.56476">
        <ele>208.76324</ele>
        <time>2021-05-01T10:04:46.722Z</time>
      </trkpt>
      <trkpt lat="43.61463" lon="1.56289">
        <ele>207.374028</ele>
        <time>2021-05-01T10:05:14.368Z</time>
      </trkpt>
      <trkpt lat="43.61467" lon="1.56259">
        <ele>207.087051</ele>
        <time>2021-05-01T10:05:18.864Z</time>
      </trkpt>
      <trkpt lat="43.61474" lon="1.56223">
        <ele>206.525905</ele>
        <time>2021-05-01T10:05:23.394Z</time>
      </trkpt>
      <trkpt lat="43.61476" lon="1.56206">
        <ele>206.266425</ele>
        <time>2021-05-01T10:05:25.604Z</time>
      </trkpt>
      <trkpt lat="43.61476" lon="1.56192">
        <ele>206.050838</ele>
        <time>2021-05-01T10:05:27.144Z</time>
      </trkpt>
      <trkpt lat="43.61466" lon="1.56163">
        <ele>205.566772</ele>
        <time>2021-05-01T10:05:31.078Z</time>
      </trkpt>
      <trkpt lat="43.61417" lon="1.56065">
        <ele>203.759757</ele>
        <time>2021-05-01T10:05:45.953Z</time>
      </trkpt>
      <trkpt lat="43.61386" lon="1.55998">
        <ele>203.14513</ele>
        <time>2021-05-01T10:05:56.505Z</time>
      </trkpt>
      <trkpt lat="43.61384" lon="1.55993">
        <ele>203.116527</ele>
        <time>2021-05-01T10:05:57.288Z</time>
      </trkpt>
      <trkpt lat="43.61383" lon="1.55989">
        <ele>203.096513</ele>
        <time>2021-05-01T10:05:57.807Z</time>
      </trkpt>
      <trkpt lat="43.61383" lon="1.55987">
        <ele>203.08691</ele>
        <time>2021-05-01T10:05:58.133Z</time>
      </trkpt>
      <trkpt lat="43.61384" lon="1.55983">
        <ele>203.06513</ele>
        <time>2021-05-01T10:05:58.772Z</time>
      </trkpt>
      <trkpt lat="43.61384" lon="1.55979">
        <ele>203.043213</ele>
        <time>2021-05-01T10:05:59.400Z</time>
      </trkpt>
      <trkpt lat="43.61383" lon="1.55975">
        <ele>203.022135</ele>
        <time>2021-05-01T10:05:59.974Z</time>
      </trkpt>
      <trkpt lat="43.61378" lon="1.55969">
        <ele>202.980277</ele>
        <time>2021-05-01T10:06:01.120Z</time>
      </trkpt>
      <trkpt lat="43.61375" lon="1.55968">
        <ele>202.959256</ele>
        <time>2021-05-01T10:06:01.746Z</time>
      </trkpt>
      <trkpt lat="43.61376" lon="1.55963">
        <ele>202.931314</ele>
        <time>2021-05-01T10:06:03.185Z</time>
      </trkpt>
      <trkpt lat="43.61381" lon="1.55933">
        <ele>202.779914</ele>
        <time>2021-05-01T10:06:07.375Z</time>
      </trkpt>
      <trkpt lat="43.61384" lon="1.55914">
        <ele>202.680755</ele>
        <time>2021-05-01T10:06:10.907Z</time>
      </trkpt>
      <trkpt lat="43.614" lon="1.55832">
        <ele>202.258616</ele>
        <time>2021-05-01T10:06:23.999Z</time>
      </trkpt>
      <trkpt lat="43.61439" lon="1.5569">
        <ele>200.814362</ele>
        <time>2021-05-01T10:06:48.312Z</time>
      </trkpt>
      <trkpt lat="43.6145" lon="1.55631">
        <ele>200.208908</ele>
        <time>2021-05-01T10:06:55.973Z</time>
      </trkpt>
      <trkpt lat="43.61452" lon="1.55613">
        <ele>200.031054</ele>
        <time>2021-05-01T10:06:58.230Z</time>
      </trkpt>
      <trkpt lat="43.61454" lon="1.55572">
        <ele>199.266755</ele>
        <time>2021-05-01T10:07:03.082Z</time>
      </trkpt>
      <trkpt lat="43.61454" lon="1.55467">
        <ele>195.045878</ele>
        <time>2021-05-01T10:07:14.819Z</time>
      </trkpt>
      <trkpt lat="43.6145" lon="1.55455">
        <ele>194.5095</ele>
        <time>2021-05-01T10:07:16.324Z</time>
      </trkpt>
      <trkpt lat="43.61447" lon="1.55446">
        <ele>194.116105</ele>
        <time>2021-05-01T10:07:17.276Z</time>
      </trkpt>
      <trkpt lat="43.614" lon="1.55377">
        <ele>190.268955</ele>
        <time>2021-05-01T10:07:27.311Z</time>
      </trkpt>
      <trkpt lat="43.61393" lon="1.5536">
        <ele>189.401716</ele>
        <time>2021-05-01T10:07:29.228Z</time>
      </trkpt>
      <trkpt lat="43.61394" lon="1.55342">
        <ele>188.285035</ele>
        <time>2021-05-01T10:07:31.107Z</time>
      </trkpt>
      <trkpt lat="43.6142" lon="1.55234">
        <ele>181.210269</ele>
        <time>2021-05-01T10:07:42.484Z</time>
      </trkpt>
      <trkpt lat="43.61449" lon="1.55064">
        <ele>170.948601</ele>
        <time>2021-05-01T10:07:59.995Z</time>
      </trkpt>
      <trkpt lat="43.61451" lon="1.55031">
        <ele>169.205433</ele>
        <time>2021-05-01T10:08:03.354Z</time>
      </trkpt>
      <trkpt lat="43.61447" lon="1.54986">
        <ele>166.827349</ele>
        <time>2021-05-01T10:08:07.951Z</time>
      </trkpt>
      <trkpt lat="43.6144" lon="1.5496">
        <ele>165.33546</ele>
        <time>2021-05-01T10:08:10.850Z</time>
      </trkpt>
      <trkpt lat="43.61423" lon="1.54925">
        <ele>163.123099</ele>
        <time>2021-05-01T10:08:15.248Z</time>
      </trkpt>
      <trkpt lat="43.61398" lon="1.54889">
        <ele>160.986027</ele>
        <time>2021-05-01T10:08:20.710Z</time>
      </trkpt>
      <trkpt lat="43.61347" lon="1.54818">
        <ele>159.675339</ele>
        <time>2021-05-01T10:08:32.368Z</time>
      </trkpt>
      <trkpt lat="43.61333" lon="1.54799">
        <ele>159.324247</ele>
        <time>2021-05-01T10:08:35.858Z</time>
      </trkpt>
      <trkpt lat="43.61295" lon="1.54746">
        <ele>158.329174</ele>
        <time>2021-05-01T10:08:47.489Z</time>
      </trkpt>
      <trkpt lat="43.61266" lon="1.54693">
        <ele>158.617382</ele>
        <time>2021-05-01T10:08:59.986Z</time>
      </trkpt>
      <trkpt lat="43.6126" lon="1.54678">
        <ele>159.007246</ele>
        <time>2021-05-01T10:09:03.835Z</time>
      </trkpt>
      <trkpt lat="43.61254" lon="1.54659">
        <ele>159.475667</ele>
        <time>2021-05-01T10:09:08.820Z</time>
      </trkpt>
      <trkpt lat="43.61223" lon="1.54527">
        <ele>162.620279</ele>
        <time>2021-05-01T10:09:45.669Z</time>
      </trkpt>
      <trkpt lat="43.61122" lon="1.54315">
        <ele>171.248493</ele>
        <time>2021-05-01T10:11:02.173Z</time>
      </trkpt>
      <trkpt lat="43.61104" lon="1.54232">
        <ele>174.816248</ele>
        <time>2021-05-01T10:11:30.641Z</time>
      </trkpt>
      <trkpt lat="43.61107" lon="1.54147">
        <ele>178.649978</ele>
        <time>2021-05-01T10:11:59.759Z</time>
      </trkpt>
      <trkpt lat="43.61163" lon="1.53886">
        <ele>191.455289</ele>
        <time>2021-05-01T10:13:35.793Z</time>
      </trkpt>
      <trkpt lat="43.61173" lon="1.53829">
        <ele>194.268281</ele>
        <time>2021-05-01T10:13:56.548Z</time>
      </trkpt>
      <trkpt lat="43.61179" lon="1.53727">
        <ele>199.384208</ele>
        <time>2021-05-01T10:14:33.833Z</time>
      </trkpt>
      <trkpt lat="43.61185" lon="1.53601">
        <ele>205.775448</ele>
        <time>2021-05-01T10:15:20.562Z</time>
      </trkpt>
      <trkpt lat="43.61187" lon="1.53572">
        <ele>207.223223</ele>
        <time>2021-05-01T10:15:30.835Z</time>
      </trkpt>
      <trkpt lat="43.61189" lon="1.53519">
        <ele>209.522339</ele>
        <time>2021-05-01T10:15:50.016Z</time>
      </trkpt>
      <trkpt lat="43.61192" lon="1.5338">
        <ele>214.939075</ele>
        <time>2021-05-01T10:16:38.096Z</time>
      </trkpt>
      <trkpt lat="43.61176" lon="1.5326">
        <ele>218.258289</ele>
        <time>2021-05-01T10:17:08.742Z</time>
      </trkpt>
      <trkpt lat="43.61172" lon="1.53237">
        <ele>218.454241</ele>
        <time>2021-05-01T10:17:14.677Z</time>
      </trkpt>
      <trkpt lat="43.61163" lon="1.53196">
        <ele>218.802455</ele>
        <time>2021-05-01T10:17:22.828Z</time>
      </trkpt>
      <trkpt lat="43.61164" lon="1.53189">
        <ele>218.865976</ele>
        <time>2021-05-01T10:17:24.666Z</time>
      </trkpt>
      <trkpt lat="43.61161" lon="1.53182">
        <ele>218.929885</ele>
        <time>2021-05-01T10:17:26.073Z</time>
      </trkpt>
      <trkpt lat="43.61158" lon="1.53178">
        <ele>218.978121</ele>
        <time>2021-05-01T10:17:26.928Z</time>
      </trkpt>
      <trkpt lat="43.61154" lon="1.53176">
        <ele>219.0267</ele>
        <time>2021-05-01T10:17:27.766Z</time>
      </trkpt>
      <trkpt lat="43.61149" lon="1.53167">
        <ele>219.116548</ele>
        <time>2021-05-01T10:17:29.490Z</time>
      </trkpt>
      <trkpt lat="43.6114" lon="1.53146">
        <ele>219.321758</ele>
        <time>2021-05-01T10:17:34.657Z</time>
      </trkpt>
      <trkpt lat="43.61136" lon="1.5314">
        <ele>219.387702</ele>
        <time>2021-05-01T10:17:35.748Z</time>
      </trkpt>
      <trkpt lat="43.61132" lon="1.53129">
        <ele>219.491853</ele>
        <time>2021-05-01T10:17:37.448Z</time>
      </trkpt>
      <trkpt lat="43.61117" lon="1.53059">
        <ele>219.804684</ele>
        <time>2021-05-01T10:17:49.171Z</time>
      </trkpt>
      <trkpt lat="43.6112" lon="1.52989">
        <ele>219.402944</ele>
        <time>2021-05-01T10:17:58.483Z</time>
      </trkpt>
      <trkpt lat="43.61133" lon="1.52938">
        <ele>219.09625</ele>
        <time>2021-05-01T10:18:05.845Z</time>
      </trkpt>
      <trkpt lat="43.61184" lon="1.52817">
        <ele>218.262237</ele>
        <time>2021-05-01T10:18:26.860Z</time>
      </trkpt>
      <trkpt lat="43.61194" lon="1.52776">
        <ele>217.967652</ele>
        <time>2021-05-01T10:18:33.175Z</time>
      </trkpt>
      <trkpt lat="43.61199" lon="1.52716">
        <ele>217.552561</ele>
        <time>2021-05-01T10:18:41.827Z</time>
      </trkpt>
      <trkpt lat="43.61199" lon="1.52701">
        <ele>217.450586</ele>
        <time>2021-05-01T10:18:43.867Z</time>
      </trkpt>
      <trkpt lat="43.61201" lon="1.52686">
        <ele>217.34298</ele>
        <time>2021-05-01T10:18:46.204Z</time>
      </trkpt>
      <trkpt lat="43.61207" lon="1.52658">
        <ele>217.147621</ele>
        <time>2021-05-01T10:18:49.967Z</time>
      </trkpt>
      <trkpt lat="43.61209" lon="1.52653">
        <ele>217.105303</ele>
        <time>2021-05-01T10:18:50.861Z</time>
      </trkpt>
      <trkpt lat="43.61212" lon="1.52651">
        <ele>217.072447</ele>
        <time>2021-05-01T10:18:51.644Z</time>
      </trkpt>
      <trkpt lat="43.61215" lon="1.52648">
        <ele>217.040235</ele>
        <time>2021-05-01T10:18:52.363Z</time>
      </trkpt>
      <trkpt lat="43.61218" lon="1.52642">
        <ele>216.986488</ele>
        <time>2021-05-01T10:18:53.357Z</time>
      </trkpt>
      <trkpt lat="43.6122" lon="1.52635">
        <ele>216.933508</ele>
        <time>2021-05-01T10:18:54.336Z</time>
      </trkpt>
      <trkpt lat="43.6122" lon="1.52627">
        <ele>216.880229</ele>
        <time>2021-05-01T10:18:55.438Z</time>
      </trkpt>
      <trkpt lat="43.61219" lon="1.5262">
        <ele>216.832694</ele>
        <time>2021-05-01T10:18:56.312Z</time>
      </trkpt>
      <trkpt lat="43.61207" lon="1.52608">
        <ele>216.600656</ele>
        <time>2021-05-01T10:18:59.254Z</time>
      </trkpt>
      <trkpt lat="43.61202" lon="1.52608">
        <ele>216.515964</ele>
        <time>2021-05-01T10:19:00.129Z</time>
      </trkpt>
      <trkpt lat="43.61196" lon="1.52603">
        <ele>216.40275</ele>
        <time>2021-05-01T10:19:01.278Z</time>
      </trkpt>
      <trkpt lat="43.6118" lon="1.52583">
        <ele>216.038865</ele>
        <time>2021-05-01T10:19:05.355Z</time>
      </trkpt>
      <trkpt lat="43.61173" lon="1.52572">
        <ele>215.852006</ele>
        <time>2021-05-01T10:19:07.282Z</time>
      </trkpt>
      <trkpt lat="43.61134" lon="1.52496">
        <ele>214.719529</ele>
        <time>2021-05-01T10:19:19.420Z</time>
      </trkpt>
      <trkpt lat="43.61032" lon="1.52291">
        <ele>211.277319</ele>
        <time>2021-05-01T10:19:51.233Z</time>
      </trkpt>
      <trkpt lat="43.61015" lon="1.5223">
        <ele>210.328111</ele>
        <time>2021-05-01T10:19:59.766Z</time>
      </trkpt>
      <trkpt lat="43.61013" lon="1.52222">
        <ele>210.214233</ele>
        <time>2021-05-01T10:20:00.713Z</time>
      </trkpt>
      <trkpt lat="43.61011" lon="1.52206">
        <ele>209.882025</ele>
        <time>2021-05-01T10:20:02.879Z</time>
      </trkpt>
      <trkpt lat="43.61008" lon="1.52148">
        <ele>208.687238</ele>
        <time>2021-05-01T10:20:10.103Z</time>
      </trkpt>
      <trkpt lat="43.61021" lon="1.51995">
        <ele>205.474124</ele>
        <time>2021-05-01T10:20:28.457Z</time>
      </trkpt>
      <trkpt lat="43.61021" lon="1.51953">
        <ele>204.436551</ele>
        <time>2021-05-01T10:20:33.403Z</time>
      </trkpt>
      <trkpt lat="43.6102" lon="1.5194">
        <ele>204.037202</ele>
        <time>2021-05-01T10:20:34.874Z</time>
      </trkpt>
      <trkpt lat="43.61007" lon="1.51879">
        <ele>202.098065</ele>
        <time>2021-05-01T10:20:42.269Z</time>
      </trkpt>
      <trkpt lat="43.60937" lon="1.51737">
        <ele>196.770101</ele>
        <time>2021-05-01T10:21:01.310Z</time>
      </trkpt>
      <trkpt lat="43.60906" lon="1.51676">
        <ele>194.15901</ele>
        <time>2021-05-01T10:21:09.554Z</time>
      </trkpt>
      <trkpt lat="43.60903" lon="1.51661">
        <ele>193.606949</ele>
        <time>2021-05-01T10:21:11.337Z</time>
      </trkpt>
      <trkpt lat="43.60886" lon="1.51618">
        <ele>191.885254</ele>
        <time>2021-05-01T10:21:16.978Z</time>
      </trkpt>
      <trkpt lat="43.60885" lon="1.51611">
        <ele>191.664272</ele>
        <time>2021-05-01T10:21:17.694Z</time>
      </trkpt>
      <trkpt lat="43.60886" lon="1.51601">
        <ele>191.308654</ele>
        <time>2021-05-01T10:21:18.863Z</time>
      </trkpt>
      <trkpt lat="43.6089" lon="1.5158">
        <ele>190.524953</ele>
        <time>2021-05-01T10:21:21.481Z</time>
      </trkpt>
      <trkpt lat="43.6089" lon="1.51572">
        <ele>190.2764</ele>
        <time>2021-05-01T10:21:22.289Z</time>
      </trkpt>
      <trkpt lat="43.60889" lon="1.51566">
        <ele>190.041099</ele>
        <time>2021-05-01T10:21:23.054Z</time>
      </trkpt>
      <trkpt lat="43.60887" lon="1.51567">
        <ele>189.921753</ele>
        <time>2021-05-01T10:21:23.441Z</time>
      </trkpt>
      <trkpt lat="43.60887" lon="1.5155">
        <ele>189.358156</ele>
        <time>2021-05-01T10:21:25.242Z</time>
      </trkpt>
      <trkpt lat="43.60886" lon="1.51545">
        <ele>189.165608</ele>
        <time>2021-05-01T10:21:25.847Z</time>
      </trkpt>
      <trkpt lat="43.60883" lon="1.51541">
        <ele>188.967056</ele>
        <time>2021-05-01T10:21:26.473Z</time>
      </trkpt>
      <trkpt lat="43.60879" lon="1.51535">
        <ele>188.700492</ele>
        <time>2021-05-01T10:21:27.324Z</time>
      </trkpt>
      <trkpt lat="43.60874" lon="1.51531">
        <ele>188.474787</ele>
        <time>2021-05-01T10:21:28.221Z</time>
      </trkpt>
      <trkpt lat="43.60868" lon="1.51529">
        <ele>188.245138</ele>
        <time>2021-05-01T10:21:29.097Z</time>
      </trkpt>
      <trkpt lat="43.60865" lon="1.51523">
        <ele>188.038105</ele>
        <time>2021-05-01T10:21:29.918Z</time>
      </trkpt>
      <trkpt lat="43.60863" lon="1.51518">
        <ele>187.866841</ele>
        <time>2021-05-01T10:21:30.637Z</time>
      </trkpt>
      <trkpt lat="43.60864" lon="1.51516">
        <ele>187.788683</ele>
        <time>2021-05-01T10:21:32.049Z</time>
      </trkpt>
      <trkpt lat="43.60862" lon="1.51506">
        <ele>187.492437</ele>
        <time>2021-05-01T10:21:33.302Z</time>
      </trkpt>
      <trkpt lat="43.60857" lon="1.51454">
        <ele>186.014707</ele>
        <time>2021-05-01T10:21:39.538Z</time>
      </trkpt>
      <trkpt lat="43.6085" lon="1.51429">
        <ele>185.271285</ele>
        <time>2021-05-01T10:21:42.657Z</time>
      </trkpt>
      <trkpt lat="43.60844" lon="1.51378">
        <ele>183.824619</ele>
        <time>2021-05-01T10:21:48.603Z</time>
      </trkpt>
      <trkpt lat="43.60841" lon="1.51347">
        <ele>182.951194</ele>
        <time>2021-05-01T10:21:52.271Z</time>
      </trkpt>
      <trkpt lat="43.60838" lon="1.51324">
        <ele>182.299186</ele>
        <time>2021-05-01T10:21:54.998Z</time>
      </trkpt>
      <trkpt lat="43.60837" lon="1.51299">
        <ele>181.677732</ele>
        <time>2021-05-01T10:21:58.059Z</time>
      </trkpt>
      <trkpt lat="43.60836" lon="1.51292">
        <ele>181.581384</ele>
        <time>2021-05-01T10:21:58.840Z</time>
      </trkpt>
      <trkpt lat="43.60836" lon="1.51272">
        <ele>181.292414</ele>
        <time>2021-05-01T10:22:01.267Z</time>
      </trkpt>
      <trkpt lat="43.60839" lon="1.5121">
        <ele>180.412448</ele>
        <time>2021-05-01T10:22:09.117Z</time>
      </trkpt>
      <trkpt lat="43.60842" lon="1.51188">
        <ele>180.100277</ele>
        <time>2021-05-01T10:22:11.812Z</time>
      </trkpt>
      <trkpt lat="43.60849" lon="1.51119">
        <ele>179.113893</ele>
        <time>2021-05-01T10:22:20.894Z</time>
      </trkpt>
      <trkpt lat="43.60851" lon="1.51099">
        <ele>178.823008</ele>
        <time>2021-05-01T10:22:23.764Z</time>
      </trkpt>
      <trkpt lat="43.60853" lon="1.51079">
        <ele>178.537179</ele>
        <time>2021-05-01T10:22:26.369Z</time>
      </trkpt>
      <trkpt lat="43.60856" lon="1.51059">
        <ele>178.246294</ele>
        <time>2021-05-01T10:22:29.390Z</time>
      </trkpt>
      <trkpt lat="43.60858" lon="1.5104">
        <ele>178.191831</ele>
        <time>2021-05-01T10:22:31.970Z</time>
      </trkpt>
      <trkpt lat="43.60862" lon="1.51002">
        <ele>178.08158</ele>
        <time>2021-05-01T10:22:37.757Z</time>
      </trkpt>
      <trkpt lat="43.60868" lon="1.50953">
        <ele>177.941744</ele>
        <time>2021-05-01T10:22:45.307Z</time>
      </trkpt>
      <trkpt lat="43.60871" lon="1.50923">
        <ele>177.856664</ele>
        <time>2021-05-01T10:22:50.037Z</time>
      </trkpt>
      <trkpt lat="43.60875" lon="1.50891">
        <ele>177.763894</ele>
        <time>2021-05-01T10:22:55.293Z</time>
      </trkpt>
      <trkpt lat="43.60879" lon="1.50865">
        <ele>177.689254</ele>
        <time>2021-05-01T10:22:59.532Z</time>
      </trkpt>
      <trkpt lat="43.6088" lon="1.50854">
        <ele>177.657296</ele>
        <time>2021-05-01T10:23:01.189Z</time>
      </trkpt>
      <trkpt lat="43.60887" lon="1.50811">
        <ele>177.520994</ele>
        <time>2021-05-01T10:23:08.329Z</time>
      </trkpt>
      <trkpt lat="43.60892" lon="1.50789">
        <ele>177.355318</ele>
        <time>2021-05-01T10:23:12.136Z</time>
      </trkpt>
      <trkpt lat="43.60896" lon="1.50768">
        <ele>177.202407</ele>
        <time>2021-05-01T10:23:15.559Z</time>
      </trkpt>
      <trkpt lat="43.60897" lon="1.50763">
        <ele>177.165883</ele>
        <time>2021-05-01T10:23:16.249Z</time>
      </trkpt>
      <trkpt lat="43.60901" lon="1.50745">
        <ele>177.029788</ele>
        <time>2021-05-01T10:23:19.127Z</time>
      </trkpt>
      <trkpt lat="43.60906" lon="1.50722">
        <ele>176.856489</ele>
        <time>2021-05-01T10:23:22.848Z</time>
      </trkpt>
      <trkpt lat="43.60907" lon="1.50716">
        <ele>176.81831</ele>
        <time>2021-05-01T10:23:23.541Z</time>
      </trkpt>
      <trkpt lat="43.60914" lon="1.50689">
        <ele>176.609711</ele>
        <time>2021-05-01T10:23:27.720Z</time>
      </trkpt>
      <trkpt lat="43.60918" lon="1.50677">
        <ele>176.522862</ele>
        <time>2021-05-01T10:23:29.411Z</time>
      </trkpt>
      <trkpt lat="43.60921" lon="1.50667">
        <ele>176.439018</ele>
        <time>2021-05-01T10:23:30.911Z</time>
      </trkpt>
      <trkpt lat="43.60941" lon="1.5058">
        <ele>175.79352</ele>
        <time>2021-05-01T10:23:42.997Z</time>
      </trkpt>
      <trkpt lat="43.60944" lon="1.50562">
        <ele>175.510388</ele>
        <time>2021-05-01T10:23:45.457Z</time>
      </trkpt>
      <trkpt lat="43.60946" lon="1.50551">
        <ele>175.337276</ele>
        <time>2021-05-01T10:23:46.920Z</time>
      </trkpt>
      <trkpt lat="43.6095" lon="1.50523">
        <ele>174.877854</ele>
        <time>2021-05-01T10:23:50.556Z</time>
      </trkpt>
      <trkpt lat="43.60954" lon="1.50502">
        <ele>174.524899</ele>
        <time>2021-05-01T10:23:53.419Z</time>
      </trkpt>
      <trkpt lat="43.60959" lon="1.50479">
        <ele>174.13261</ele>
        <time>2021-05-01T10:23:56.473Z</time>
      </trkpt>
      <trkpt lat="43.60968" lon="1.50445">
        <ele>173.556211</ele>
        <time>2021-05-01T10:24:00.928Z</time>
      </trkpt>
      <trkpt lat="43.60973" lon="1.50422">
        <ele>173.170245</ele>
        <time>2021-05-01T10:24:03.984Z</time>
      </trkpt>
      <trkpt lat="43.60976" lon="1.50412">
        <ele>173.006838</ele>
        <time>2021-05-01T10:24:05.244Z</time>
      </trkpt>
      <trkpt lat="43.60983" lon="1.50346">
        <ele>171.931689</ele>
        <time>2021-05-01T10:24:13.326Z</time>
      </trkpt>
      <trkpt lat="43.60983" lon="1.50334">
        <ele>171.721319</ele>
        <time>2021-05-01T10:24:14.845Z</time>
      </trkpt>
      <trkpt lat="43.60983" lon="1.50331">
        <ele>171.647211</ele>
        <time>2021-05-01T10:24:15.280Z</time>
      </trkpt>
      <trkpt lat="43.60984" lon="1.50317">
        <ele>171.345266</ele>
        <time>2021-05-01T10:24:17.006Z</time>
      </trkpt>
      <trkpt lat="43.60984" lon="1.50311">
        <ele>171.208827</ele>
        <time>2021-05-01T10:24:17.771Z</time>
      </trkpt>
      <trkpt lat="43.60987" lon="1.50307">
        <ele>171.093028</ele>
        <time>2021-05-01T10:24:18.395Z</time>
      </trkpt>
      <trkpt lat="43.60988" lon="1.50302">
        <ele>170.976045</ele>
        <time>2021-05-01T10:24:19.021Z</time>
      </trkpt>
      <trkpt lat="43.60988" lon="1.50298">
        <ele>170.891663</ele>
        <time>2021-05-01T10:24:19.527Z</time>
      </trkpt>
      <trkpt lat="43.60987" lon="1.50294">
        <ele>170.806214</ele>
        <time>2021-05-01T10:24:20.018Z</time>
      </trkpt>
      <trkpt lat="43.60985" lon="1.50291">
        <ele>170.722075</ele>
        <time>2021-05-01T10:24:20.531Z</time>
      </trkpt>
      <trkpt lat="43.60984" lon="1.50287">
        <ele>170.62182</ele>
        <time>2021-05-01T10:24:21.109Z</time>
      </trkpt>
      <trkpt lat="43.60984" lon="1.50283">
        <ele>170.538737</ele>
        <time>2021-05-01T10:24:21.612Z</time>
      </trkpt>
      <trkpt lat="43.60984" lon="1.50265">
        <ele>170.149238</ele>
        <time>2021-05-01T10:24:23.872Z</time>
      </trkpt>
      <trkpt lat="43.60985" lon="1.50254">
        <ele>169.905735</ele>
        <time>2021-05-01T10:24:25.155Z</time>
      </trkpt>
      <trkpt lat="43.60984" lon="1.50238">
        <ele>169.57032</ele>
        <time>2021-05-01T10:24:27.038Z</time>
      </trkpt>
      <trkpt lat="43.60985" lon="1.502">
        <ele>168.748092</ele>
        <time>2021-05-01T10:24:31.587Z</time>
      </trkpt>
      <trkpt lat="43.60985" lon="1.50189">
        <ele>168.517795</ele>
        <time>2021-05-01T10:24:32.853Z</time>
      </trkpt>
      <trkpt lat="43.60986" lon="1.50179">
        <ele>168.292065</ele>
        <time>2021-05-01T10:24:34.090Z</time>
      </trkpt>
      <trkpt lat="43.60986" lon="1.50146">
        <ele>167.567243</ele>
        <time>2021-05-01T10:24:38.048Z</time>
      </trkpt>
      <trkpt lat="43.60983" lon="1.50064">
        <ele>165.653151</ele>
        <time>2021-05-01T10:24:47.621Z</time>
      </trkpt>
      <trkpt lat="43.60984" lon="1.50047">
        <ele>165.189088</ele>
        <time>2021-05-01T10:24:49.569Z</time>
      </trkpt>
      <trkpt lat="43.60985" lon="1.50033">
        <ele>164.805938</ele>
        <time>2021-05-01T10:24:51.218Z</time>
      </trkpt>
      <trkpt lat="43.60986" lon="1.49961">
        <ele>162.838659</ele>
        <time>2021-05-01T10:24:59.792Z</time>
      </trkpt>
      <trkpt lat="43.60986" lon="1.49953">
        <ele>162.612831</ele>
        <time>2021-05-01T10:25:00.736Z</time>
      </trkpt>
      <trkpt lat="43.60986" lon="1.49913">
        <ele>161.540725</ele>
        <time>2021-05-01T10:25:05.275Z</time>
      </trkpt>
      <trkpt lat="43.60987" lon="1.49898">
        <ele>161.127092</ele>
        <time>2021-05-01T10:25:07.014Z</time>
      </trkpt>
      <trkpt lat="43.60987" lon="1.49871">
        <ele>160.392386</ele>
        <time>2021-05-01T10:25:10.052Z</time>
      </trkpt>
      <trkpt lat="43.60987" lon="1.49859">
        <ele>160.063167</ele>
        <time>2021-05-01T10:25:11.415Z</time>
      </trkpt>
      <trkpt lat="43.60987" lon="1.49828">
        <ele>159.072063</ele>
        <time>2021-05-01T10:25:14.826Z</time>
      </trkpt>
      <trkpt lat="43.60987" lon="1.49819">
        <ele>158.757096</ele>
        <time>2021-05-01T10:25:15.834Z</time>
      </trkpt>
      <trkpt lat="43.60987" lon="1.49802">
        <ele>158.173573</ele>
        <time>2021-05-01T10:25:17.664Z</time>
      </trkpt>
      <trkpt lat="43.60988" lon="1.49769">
        <ele>156.988919</ele>
        <time>2021-05-01T10:25:21.332Z</time>
      </trkpt>
      <trkpt lat="43.60989" lon="1.49753">
        <ele>156.38923</ele>
        <time>2021-05-01T10:25:23.195Z</time>
      </trkpt>
      <trkpt lat="43.60989" lon="1.49735">
        <ele>155.773192</ele>
        <time>2021-05-01T10:25:25.049Z</time>
      </trkpt>
      <trkpt lat="43.60988" lon="1.49692">
        <ele>154.20816</ele>
        <time>2021-05-01T10:25:29.867Z</time>
      </trkpt>
      <trkpt lat="43.60985" lon="1.49647">
        <ele>152.603222</ele>
        <time>2021-05-01T10:25:34.784Z</time>
      </trkpt>
      <trkpt lat="43.60982" lon="1.4961">
        <ele>151.275941</ele>
        <time>2021-05-01T10:25:38.839Z</time>
      </trkpt>
      <trkpt lat="43.60981" lon="1.49592">
        <ele>150.64593</ele>
        <time>2021-05-01T10:25:40.749Z</time>
      </trkpt>
      <trkpt lat="43.60978" lon="1.49559">
        <ele>149.541553</ele>
        <time>2021-05-01T10:25:44.468Z</time>
      </trkpt>
      <trkpt lat="43.60977" lon="1.49538">
        <ele>148.871811</ele>
        <time>2021-05-01T10:25:46.652Z</time>
      </trkpt>
      <trkpt lat="43.60974" lon="1.49504">
        <ele>147.760966</ele>
        <time>2021-05-01T10:25:50.413Z</time>
      </trkpt>
      <trkpt lat="43.60974" lon="1.49498">
        <ele>147.56142</ele>
        <time>2021-05-01T10:25:51.078Z</time>
      </trkpt>
      <trkpt lat="43.60972" lon="1.4947">
        <ele>146.656573</ele>
        <time>2021-05-01T10:25:54.153Z</time>
      </trkpt>
      <trkpt lat="43.60968" lon="1.49423">
        <ele>145.119845</ele>
        <time>2021-05-01T10:25:59.472Z</time>
      </trkpt>
      <trkpt lat="43.60969" lon="1.49407">
        <ele>144.584879</ele>
        <time>2021-05-01T10:26:01.304Z</time>
      </trkpt>
      <trkpt lat="43.60968" lon="1.49389">
        <ele>144.007429</ele>
        <time>2021-05-01T10:26:03.362Z</time>
      </trkpt>
      <trkpt lat="43.60965" lon="1.4935">
        <ele>142.715478</ele>
        <time>2021-05-01T10:26:08.002Z</time>
      </trkpt>
      <trkpt lat="43.60963" lon="1.49339">
        <ele>142.52694</ele>
        <time>2021-05-01T10:26:09.348Z</time>
      </trkpt>
      <trkpt lat="43.6096" lon="1.49312">
        <ele>142.114901</ele>
        <time>2021-05-01T10:26:12.527Z</time>
      </trkpt>
      <trkpt lat="43.60959" lon="1.49294">
        <ele>141.837693</ele>
        <time>2021-05-01T10:26:14.736Z</time>
      </trkpt>
      <trkpt lat="43.60955" lon="1.49248">
        <ele>141.129072</ele>
        <time>2021-05-01T10:26:20.442Z</time>
      </trkpt>
      <trkpt lat="43.60955" lon="1.49241">
        <ele>141.034817</ele>
        <time>2021-05-01T10:26:21.254Z</time>
      </trkpt>
      <trkpt lat="43.60955" lon="1.49224">
        <ele>140.764204</ele>
        <time>2021-05-01T10:26:23.487Z</time>
      </trkpt>
      <trkpt lat="43.60957" lon="1.49223">
        <ele>140.70953</ele>
        <time>2021-05-01T10:26:23.942Z</time>
      </trkpt>
      <trkpt lat="43.60959" lon="1.49222">
        <ele>140.661745</ele>
        <time>2021-05-01T10:26:24.286Z</time>
      </trkpt>
      <trkpt lat="43.60961" lon="1.49141">
        <ele>139.432805</ele>
        <time>2021-05-01T10:26:35.261Z</time>
      </trkpt>
      <trkpt lat="43.60959" lon="1.49127">
        <ele>139.210557</ele>
        <time>2021-05-01T10:26:37.177Z</time>
      </trkpt>
      <trkpt lat="43.60957" lon="1.49104">
        <ele>138.895509</ele>
        <time>2021-05-01T10:26:40.434Z</time>
      </trkpt>
      <trkpt lat="43.60956" lon="1.49078">
        <ele>138.845062</ele>
        <time>2021-05-01T10:26:44.162Z</time>
      </trkpt>
      <trkpt lat="43.60956" lon="1.4907">
        <ele>138.829612</ele>
        <time>2021-05-01T10:26:45.217Z</time>
      </trkpt>
      <trkpt lat="43.60954" lon="1.49033">
        <ele>138.757733</ele>
        <time>2021-05-01T10:26:50.856Z</time>
      </trkpt>
      <trkpt lat="43.60955" lon="1.49032">
        <ele>138.754248</ele>
        <time>2021-05-01T10:26:51.084Z</time>
      </trkpt>
      <trkpt lat="43.60954" lon="1.49029">
        <ele>138.74839</ele>
        <time>2021-05-01T10:26:51.523Z</time>
      </trkpt>
      <trkpt lat="43.6095" lon="1.4902">
        <ele>138.728737</ele>
        <time>2021-05-01T10:26:52.953Z</time>
      </trkpt>
      <trkpt lat="43.6095" lon="1.49019">
        <ele>138.725615</ele>
        <time>2021-05-01T10:26:53.216Z</time>
      </trkpt>
      <trkpt lat="43.60949" lon="1.49018">
        <ele>138.722676</ele>
        <time>2021-05-01T10:26:53.474Z</time>
      </trkpt>
      <trkpt lat="43.60947" lon="1.49007">
        <ele>138.702226</ele>
        <time>2021-05-01T10:26:55.255Z</time>
      </trkpt>
      <trkpt lat="43.60946" lon="1.49002">
        <ele>138.69202</ele>
        <time>2021-05-01T10:26:56.142Z</time>
      </trkpt>
      <trkpt lat="43.60938" lon="1.49006">
        <ele>138.668668</ele>
        <time>2021-05-01T10:26:57.947Z</time>
      </trkpt>
      <trkpt lat="43.60928" lon="1.49004">
        <ele>138.642747</ele>
        <time>2021-05-01T10:26:59.922Z</time>
      </trkpt>
      <trkpt lat="43.60924" lon="1.48992">
        <ele>138.61618</ele>
        <time>2021-05-01T10:27:02.193Z</time>
      </trkpt>
      <trkpt lat="43.60918" lon="1.48995">
        <ele>138.599288</ele>
        <time>2021-05-01T10:27:03.674Z</time>
      </trkpt>
      <trkpt lat="43.60911" lon="1.48998">
        <ele>138.578226</ele>
        <time>2021-05-01T10:27:05.383Z</time>
      </trkpt>
      <trkpt lat="43.60905" lon="1.49">
        <ele>138.562363</ele>
        <time>2021-05-01T10:27:06.540Z</time>
      </trkpt>
      <trkpt lat="43.60901" lon="1.48981">
        <ele>138.524314</ele>
        <time>2021-05-01T10:27:09.596Z</time>
      </trkpt>
      <trkpt lat="43.60832" lon="1.48823">
        <ele>139.173071</ele>
        <time>2021-05-01T10:27:44.846Z</time>
      </trkpt>
      <trkpt lat="43.60826" lon="1.48809">
        <ele>139.273571</ele>
        <time>2021-05-01T10:27:48.148Z</time>
      </trkpt>
      <trkpt lat="43.60824" lon="1.48805">
        <ele>139.297451</ele>
        <time>2021-05-01T10:27:49.275Z</time>
      </trkpt>
      <trkpt lat="43.60811" lon="1.48793">
        <ele>139.421901</ele>
        <time>2021-05-01T10:27:53.340Z</time>
      </trkpt>
      <trkpt lat="43.60805" lon="1.48777">
        <ele>139.528321</ele>
        <time>2021-05-01T10:27:56.891Z</time>
      </trkpt>
      <trkpt lat="43.60804" lon="1.48747">
        <ele>139.707712</ele>
        <time>2021-05-01T10:28:02.746Z</time>
      </trkpt>
      <trkpt lat="43.60803" lon="1.4874">
        <ele>139.747478</ele>
        <time>2021-05-01T10:28:04.177Z</time>
      </trkpt>
      <trkpt lat="43.60797" lon="1.48722">
        <ele>139.863368</ele>
        <time>2021-05-01T10:28:07.904Z</time>
      </trkpt>
      <trkpt lat="43.60791" lon="1.48717">
        <ele>139.901727</ele>
        <time>2021-05-01T10:28:09.809Z</time>
      </trkpt>
      <trkpt lat="43.60783" lon="1.48682">
        <ele>140.036115</ele>
        <time>2021-05-01T10:28:16.616Z</time>
      </trkpt>
      <trkpt lat="43.60774" lon="1.48656">
        <ele>140.142093</ele>
        <time>2021-05-01T10:28:22.294Z</time>
      </trkpt>
      <trkpt lat="43.60761" lon="1.48617">
        <ele>140.299689</ele>
        <time>2021-05-01T10:28:30.656Z</time>
      </trkpt>
      <trkpt lat="43.60759" lon="1.48613">
        <ele>140.31748</ele>
        <time>2021-05-01T10:28:31.505Z</time>
      </trkpt>
      <trkpt lat="43.60741" lon="1.4856">
        <ele>140.531199</ele>
        <time>2021-05-01T10:28:42.595Z</time>
      </trkpt>
      <trkpt lat="43.60738" lon="1.48551">
        <ele>140.566344</ele>
        <time>2021-05-01T10:28:44.329Z</time>
      </trkpt>
      <trkpt lat="43.60731" lon="1.48541">
        <ele>140.61609</ele>
        <time>2021-05-01T10:28:46.627Z</time>
      </trkpt>
      <trkpt lat="43.60686" lon="1.48416">
        <ele>140.910465</ele>
        <time>2021-05-01T10:29:08.932Z</time>
      </trkpt>
      <trkpt lat="43.60681" lon="1.48403">
        <ele>140.930666</ele>
        <time>2021-05-01T10:29:11.315Z</time>
      </trkpt>
      <trkpt lat="43.60687" lon="1.48402">
        <ele>140.941545</ele>
        <time>2021-05-01T10:29:12.593Z</time>
      </trkpt>
      <trkpt lat="43.60696" lon="1.48401">
        <ele>140.959066</ele>
        <time>2021-05-01T10:29:14.850Z</time>
      </trkpt>
      <trkpt lat="43.60701" lon="1.48397">
        <ele>140.968578</ele>
        <time>2021-05-01T10:29:16.121Z</time>
      </trkpt>
      <trkpt lat="43.60698" lon="1.48396">
        <ele>140.973101</ele>
        <time>2021-05-01T10:29:16.590Z</time>
      </trkpt>
      <trkpt lat="43.60695" lon="1.48389">
        <ele>140.984489</ele>
        <time>2021-05-01T10:29:18.084Z</time>
      </trkpt>
      <trkpt lat="43.60689" lon="1.48375">
        <ele>141.006613</ele>
        <time>2021-05-01T10:29:20.986Z</time>
      </trkpt>
      <trkpt lat="43.60679" lon="1.48351">
        <ele>141.04364</ele>
        <time>2021-05-01T10:29:26.006Z</time>
      </trkpt>
      <trkpt lat="43.60646" lon="1.48261">
        <ele>141.696822</ele>
        <time>2021-05-01T10:29:44.871Z</time>
      </trkpt>
      <trkpt lat="43.60638" lon="1.48251">
        <ele>141.876134</ele>
        <time>2021-05-01T10:29:47.627Z</time>
      </trkpt>
      <trkpt lat="43.60633" lon="1.48239">
        <ele>142.057486</ele>
        <time>2021-05-01T10:29:51.013Z</time>
      </trkpt>
      <trkpt lat="43.60625" lon="1.48217">
        <ele>142.375603</ele>
        <time>2021-05-01T10:29:55.892Z</time>
      </trkpt>
      <trkpt lat="43.60614" lon="1.48189">
        <ele>142.770743</ele>
        <time>2021-05-01T10:30:02.846Z</time>
      </trkpt>
      <trkpt lat="43.60612" lon="1.48182">
        <ele>142.862693</ele>
        <time>2021-05-01T10:30:04.209Z</time>
      </trkpt>
      <trkpt lat="43.60602" lon="1.48157">
        <ele>143.231201</ele>
        <time>2021-05-01T10:30:10.751Z</time>
      </trkpt>
      <trkpt lat="43.60598" lon="1.48147">
        <ele>143.362725</ele>
        <time>2021-05-01T10:30:13.164Z</time>
      </trkpt>
      <trkpt lat="43.60591" lon="1.4813">
        <ele>143.610796</ele>
        <time>2021-05-01T10:30:17.115Z</time>
      </trkpt>
      <trkpt lat="43.60589" lon="1.48125">
        <ele>143.688042</ele>
        <time>2021-05-01T10:30:18.656Z</time>
      </trkpt>
      <trkpt lat="43.60586" lon="1.48117">
        <ele>143.800174</ele>
        <time>2021-05-01T10:30:20.768Z</time>
      </trkpt>
      <trkpt lat="43.60585" lon="1.48114">
        <ele>143.845957</ele>
        <time>2021-05-01T10:30:21.639Z</time>
      </trkpt>
      <trkpt lat="43.60583" lon="1.48107">
        <ele>143.932969</ele>
        <time>2021-05-01T10:30:23.440Z</time>
      </trkpt>
      <trkpt lat="43.60571" lon="1.48076">
        <ele>144.547019</ele>
        <time>2021-05-01T10:30:31.490Z</time>
      </trkpt>
      <trkpt lat="43.60563" lon="1.48059">
        <ele>145.129186</ele>
        <time>2021-05-01T10:30:36.513Z</time>
      </trkpt>
      <trkpt lat="43.60558" lon="1.48046">
        <ele>145.545581</ele>
        <time>2021-05-01T10:30:39.534Z</time>
      </trkpt>
      <trkpt lat="43.60555" lon="1.48038">
        <ele>145.810426</ele>
        <time>2021-05-01T10:30:41.880Z</time>
      </trkpt>
      <trkpt lat="43.60551" lon="1.48027">
        <ele>146.166203</ele>
        <time>2021-05-01T10:30:45.780Z</time>
      </trkpt>
      <trkpt lat="43.6054" lon="1.47997">
        <ele>147.151332</ele>
        <time>2021-05-01T10:30:53.836Z</time>
      </trkpt>
      <trkpt lat="43.60536" lon="1.47988">
        <ele>147.44526</ele>
        <time>2021-05-01T10:30:56.947Z</time>
      </trkpt>
      <trkpt lat="43.60532" lon="1.47978">
        <ele>147.783336</ele>
        <time>2021-05-01T10:31:00.297Z</time>
      </trkpt>
      <trkpt lat="43.6053" lon="1.47972">
        <ele>147.977671</ele>
        <time>2021-05-01T10:31:01.934Z</time>
      </trkpt>
      <trkpt lat="43.60523" lon="1.4795">
        <ele>148.669763</ele>
        <time>2021-05-01T10:31:07.665Z</time>
      </trkpt>
      <trkpt lat="43.60517" lon="1.47929">
        <ele>149.338699</ele>
        <time>2021-05-01T10:31:14.558Z</time>
      </trkpt>
      <trkpt lat="43.60515" lon="1.47921">
        <ele>149.583043</ele>
        <time>2021-05-01T10:31:16.576Z</time>
      </trkpt>
      <trkpt lat="43.60514" lon="1.47907">
        <ele>149.973689</ele>
        <time>2021-05-01T10:31:19.818Z</time>
      </trkpt>
      <trkpt lat="43.60514" lon="1.47902">
        <ele>150.139308</ele>
        <time>2021-05-01T10:31:21.599Z</time>
      </trkpt>
      <trkpt lat="43.60513" lon="1.47882">
        <ele>150.70559</ele>
        <time>2021-05-01T10:31:28.670Z</time>
      </trkpt>
      <trkpt lat="43.60513" lon="1.47867">
        <ele>151.147178</ele>
        <time>2021-05-01T10:31:32.902Z</time>
      </trkpt>
      <trkpt lat="43.60512" lon="1.47858">
        <ele>151.397056</ele>
        <time>2021-05-01T10:31:35.350Z</time>
      </trkpt>
      <trkpt lat="43.60509" lon="1.47853">
        <ele>151.770154</ele>
        <time>2021-05-01T10:31:37.733Z</time>
      </trkpt>
      <trkpt lat="43.60508" lon="1.47844">
        <ele>152.344229</ele>
        <time>2021-05-01T10:31:41.987Z</time>
      </trkpt>
      <trkpt lat="43.60502" lon="1.47707">
        <ele>160.792104</ele>
        <time>2021-05-01T10:32:32.787Z</time>
      </trkpt>
      <trkpt lat="43.60499" lon="1.47694">
        <ele>161.641762</ele>
        <time>2021-05-01T10:32:39.876Z</time>
      </trkpt>
      <trkpt lat="43.60493" lon="1.47666">
        <ele>163.452364</ele>
        <time>2021-05-01T10:32:52.011Z</time>
      </trkpt>
      <trkpt lat="43.60483" lon="1.47624">
        <ele>166.171937</ele>
        <time>2021-05-01T10:33:12.981Z</time>
      </trkpt>
      <trkpt lat="43.60477" lon="1.47601">
        <ele>168.102402</ele>
        <time>2021-05-01T10:33:25.358Z</time>
      </trkpt>
      <trkpt lat="43.6047" lon="1.47573">
        <ele>170.69735</ele>
        <time>2021-05-01T10:33:40.481Z</time>
      </trkpt>
      <trkpt lat="43.60461" lon="1.47538">
        <ele>174.06245</ele>
        <time>2021-05-01T10:34:01.872Z</time>
      </trkpt>
      <trkpt lat="43.60456" lon="1.47519">
        <ele>175.84963</ele>
        <time>2021-05-01T10:34:12.996Z</time>
      </trkpt>
      <trkpt lat="43.60448" lon="1.47489">
        <ele>178.68754</ele>
        <time>2021-05-01T10:34:31.944Z</time>
      </trkpt>
      <trkpt lat="43.60446" lon="1.47481">
        <ele>179.476323</ele>
        <time>2021-05-01T10:34:37.233Z</time>
      </trkpt>
      <trkpt lat="43.60443" lon="1.47472">
        <ele>180.313475</ele>
        <time>2021-05-01T10:34:42.493Z</time>
      </trkpt>
      <trkpt lat="43.60439" lon="1.47456">
        <ele>181.849536</ele>
        <time>2021-05-01T10:34:52.194Z</time>
      </trkpt>
      <trkpt lat="43.60437" lon="1.47447">
        <ele>182.669931</ele>
        <time>2021-05-01T10:34:56.750Z</time>
      </trkpt>
      <trkpt lat="43.60434" lon="1.47436">
        <ele>183.657727</ele>
        <time>2021-05-01T10:35:02.408Z</time>
      </trkpt>
      <trkpt lat="43.6043" lon="1.4742">
        <ele>185.172851</ele>
        <time>2021-05-01T10:35:11.251Z</time>
      </trkpt>
      <trkpt lat="43.60427" lon="1.47407">
        <ele>186.417942</ele>
        <time>2021-05-01T10:35:18.219Z</time>
      </trkpt>
      <trkpt lat="43.60418" lon="1.47383">
        <ele>188.853455</ele>
        <time>2021-05-01T10:35:30.821Z</time>
      </trkpt>
      <trkpt lat="43.60412" lon="1.47367">
        <ele>189.663101</ele>
        <time>2021-05-01T10:35:39.599Z</time>
      </trkpt>
      <trkpt lat="43.60367" lon="1.47292">
        <ele>193.746159</ele>
        <time>2021-05-01T10:36:19.357Z</time>
      </trkpt>
      <trkpt lat="43.60364" lon="1.47287">
        <ele>194.017201</ele>
        <time>2021-05-01T10:36:21.538Z</time>
      </trkpt>
      <trkpt lat="43.60347" lon="1.47263">
        <ele>195.424166</ele>
        <time>2021-05-01T10:36:32.805Z</time>
      </trkpt>
      <trkpt lat="43.60339" lon="1.4725">
        <ele>196.151256</ele>
        <time>2021-05-01T10:36:38.372Z</time>
      </trkpt>
      <trkpt lat="43.60307" lon="1.47199">
        <ele>199.015758</ele>
        <time>2021-05-01T10:36:52.723Z</time>
      </trkpt>
      <trkpt lat="43.60304" lon="1.47194">
        <ele>199.290041</ele>
        <time>2021-05-01T10:36:53.960Z</time>
      </trkpt>
      <trkpt lat="43.60294" lon="1.47178">
        <ele>199.112964</ele>
        <time>2021-05-01T10:36:57.440Z</time>
      </trkpt>
      <trkpt lat="43.60279" lon="1.47154">
        <ele>198.553492</ele>
        <time>2021-05-01T10:37:01.646Z</time>
      </trkpt>
      <trkpt lat="43.60252" lon="1.47107">
        <ele>197.513148</ele>
        <time>2021-05-01T10:37:09.004Z</time>
      </trkpt>
      <trkpt lat="43.60247" lon="1.47097">
        <ele>197.293585</ele>
        <time>2021-05-01T10:37:10.518Z</time>
      </trkpt>
      <trkpt lat="43.60239" lon="1.47084">
        <ele>197.001784</ele>
        <time>2021-05-01T10:37:12.410Z</time>
      </trkpt>
      <trkpt lat="43.60236" lon="1.47078">
        <ele>196.872131</ele>
        <time>2021-05-01T10:37:13.371Z</time>
      </trkpt>
      <trkpt lat="43.60158" lon="1.46933">
        <ele>192.893791</ele>
        <time>2021-05-01T10:37:34.095Z</time>
      </trkpt>
      <trkpt lat="43.60137" lon="1.46892">
        <ele>191.46742</ele>
        <time>2021-05-01T10:37:39.755Z</time>
      </trkpt>
      <trkpt lat="43.60135" lon="1.46888">
        <ele>191.330015</ele>
        <time>2021-05-01T10:37:40.251Z</time>
      </trkpt>
      <trkpt lat="43.60095" lon="1.46815">
        <ele>188.749563</ele>
        <time>2021-05-01T10:37:50.808Z</time>
      </trkpt>
      <trkpt lat="43.6009" lon="1.46806">
        <ele>188.425658</ele>
        <time>2021-05-01T10:37:52.038Z</time>
      </trkpt>
      <trkpt lat="43.60085" lon="1.46793">
        <ele>188.029538</ele>
        <time>2021-05-01T10:37:53.717Z</time>
      </trkpt>
      <trkpt lat="43.60083" lon="1.46789">
        <ele>187.927531</ele>
        <time>2021-05-01T10:37:54.258Z</time>
      </trkpt>
      <trkpt lat="43.60077" lon="1.46775">
        <ele>187.553741</ele>
        <time>2021-05-01T10:37:56.392Z</time>
      </trkpt>
      <trkpt lat="43.60072" lon="1.46765">
        <ele>187.303613</ele>
        <time>2021-05-01T10:37:57.642Z</time>
      </trkpt>
      <trkpt lat="43.60068" lon="1.46758">
        <ele>187.093906</ele>
        <time>2021-05-01T10:37:58.780Z</time>
      </trkpt>
      <trkpt lat="43.60068" lon="1.46752">
        <ele>186.969028</ele>
        <time>2021-05-01T10:37:59.422Z</time>
      </trkpt>
      <trkpt lat="43.60066" lon="1.46703">
        <ele>185.897505</ele>
        <time>2021-05-01T10:38:05.168Z</time>
      </trkpt>
      <trkpt lat="43.60066" lon="1.46687">
        <ele>185.535921</ele>
        <time>2021-05-01T10:38:07.213Z</time>
      </trkpt>
      <trkpt lat="43.60066" lon="1.46664">
        <ele>185.034138</ele>
        <time>2021-05-01T10:38:09.995Z</time>
      </trkpt>
      <trkpt lat="43.60065" lon="1.46648">
        <ele>184.692133</ele>
        <time>2021-05-01T10:38:11.835Z</time>
      </trkpt>
      <trkpt lat="43.60062" lon="1.46548">
        <ele>182.538204</ele>
        <time>2021-05-01T10:38:24.114Z</time>
      </trkpt>
      <trkpt lat="43.6006" lon="1.4651">
        <ele>181.971582</ele>
        <time>2021-05-01T10:38:28.933Z</time>
      </trkpt>
      <trkpt lat="43.60059" lon="1.46478">
        <ele>181.499389</ele>
        <time>2021-05-01T10:38:32.924Z</time>
      </trkpt>
      <trkpt lat="43.60059" lon="1.46432">
        <ele>180.815271</ele>
        <time>2021-05-01T10:38:38.824Z</time>
      </trkpt>
      <trkpt lat="43.6006" lon="1.4642">
        <ele>180.63373</ele>
        <time>2021-05-01T10:38:40.404Z</time>
      </trkpt>
      <trkpt lat="43.6006" lon="1.46413">
        <ele>180.535554</ele>
        <time>2021-05-01T10:38:41.274Z</time>
      </trkpt>
      <trkpt lat="43.60061" lon="1.46398">
        <ele>180.313355</ele>
        <time>2021-05-01T10:38:43.322Z</time>
      </trkpt>
      <trkpt lat="43.60066" lon="1.4636">
        <ele>179.727227</ele>
        <time>2021-05-01T10:38:48.466Z</time>
      </trkpt>
      <trkpt lat="43.60071" lon="1.46333">
        <ele>179.325309</ele>
        <time>2021-05-01T10:38:52.034Z</time>
      </trkpt>
      <trkpt lat="43.60076" lon="1.46302">
        <ele>178.784042</ele>
        <time>2021-05-01T10:38:56.214Z</time>
      </trkpt>
      <trkpt lat="43.60082" lon="1.46273">
        <ele>178.006723</ele>
        <time>2021-05-01T10:38:59.973Z</time>
      </trkpt>
      <trkpt lat="43.60085" lon="1.46261">
        <ele>177.693485</ele>
        <time>2021-05-01T10:39:01.647Z</time>
      </trkpt>
      <trkpt lat="43.60087" lon="1.46252">
        <ele>177.459045</ele>
        <time>2021-05-01T10:39:02.907Z</time>
      </trkpt>
      <trkpt lat="43.6009" lon="1.46235">
        <ele>177.037593</ele>
        <time>2021-05-01T10:39:04.833Z</time>
      </trkpt>
      <trkpt lat="43.60115" lon="1.46103">
        <ele>173.626579</ele>
        <time>2021-05-01T10:39:20.824Z</time>
      </trkpt>
      <trkpt lat="43.60116" lon="1.46098">
        <ele>173.47906</ele>
        <time>2021-05-01T10:39:21.404Z</time>
      </trkpt>
      <trkpt lat="43.60126" lon="1.46036">
        <ele>171.474047</ele>
        <time>2021-05-01T10:39:28.433Z</time>
      </trkpt>
      <trkpt lat="43.60138" lon="1.45982">
        <ele>169.401969</ele>
        <time>2021-05-01T10:39:34.433Z</time>
      </trkpt>
      <trkpt lat="43.60156" lon="1.45913">
        <ele>166.691732</ele>
        <time>2021-05-01T10:39:42.390Z</time>
      </trkpt>
      <trkpt lat="43.60163" lon="1.45884">
        <ele>165.528432</ele>
        <time>2021-05-01T10:39:45.736Z</time>
      </trkpt>
      <trkpt lat="43.60169" lon="1.4586">
        <ele>164.61279</ele>
        <time>2021-05-01T10:39:48.533Z</time>
      </trkpt>
      <trkpt lat="43.60173" lon="1.45838">
        <ele>163.755745</ele>
        <time>2021-05-01T10:39:51.020Z</time>
      </trkpt>
      <trkpt lat="43.60173" lon="1.45831">
        <ele>163.498577</ele>
        <time>2021-05-01T10:39:51.811Z</time>
      </trkpt>
      <trkpt lat="43.60169" lon="1.45814">
        <ele>163.029153</ele>
        <time>2021-05-01T10:39:53.695Z</time>
      </trkpt>
      <trkpt lat="43.60157" lon="1.45789">
        <ele>162.182371</ele>
        <time>2021-05-01T10:39:57.035Z</time>
      </trkpt>
      <trkpt lat="43.6012" lon="1.4571">
        <ele>159.599763</ele>
        <time>2021-05-01T10:40:07.746Z</time>
      </trkpt>
      <trkpt lat="43.60114" lon="1.45697">
        <ele>159.186361</ele>
        <time>2021-05-01T10:40:09.607Z</time>
      </trkpt>
      <trkpt lat="43.60107" lon="1.45684">
        <ele>158.748125</ele>
        <time>2021-05-01T10:40:11.514Z</time>
      </trkpt>
      <trkpt lat="43.60102" lon="1.45673">
        <ele>158.401329</ele>
        <time>2021-05-01T10:40:12.981Z</time>
      </trkpt>
      <trkpt lat="43.60096" lon="1.45664">
        <ele>158.051289</ele>
        <time>2021-05-01T10:40:14.462Z</time>
      </trkpt>
      <trkpt lat="43.60094" lon="1.4566">
        <ele>157.926017</ele>
        <time>2021-05-01T10:40:15.024Z</time>
      </trkpt>
      <trkpt lat="43.60088" lon="1.45645">
        <ele>157.455656</ele>
        <time>2021-05-01T10:40:17.120Z</time>
      </trkpt>
      <trkpt lat="43.60086" lon="1.4564">
        <ele>157.274377</ele>
        <time>2021-05-01T10:40:17.945Z</time>
      </trkpt>
      <trkpt lat="43.60074" lon="1.45608">
        <ele>156.50429</ele>
        <time>2021-05-01T10:40:22.295Z</time>
      </trkpt>
      <trkpt lat="43.60072" lon="1.45603">
        <ele>156.42446</ele>
        <time>2021-05-01T10:40:23.023Z</time>
      </trkpt>
      <trkpt lat="43.60066" lon="1.45588">
        <ele>156.178293</ele>
        <time>2021-05-01T10:40:25.168Z</time>
      </trkpt>
      <trkpt lat="43.60055" lon="1.45556">
        <ele>155.677717</ele>
        <time>2021-05-01T10:40:29.556Z</time>
      </trkpt>
      <trkpt lat="43.60034" lon="1.45497">
        <ele>154.748388</ele>
        <time>2021-05-01T10:40:37.631Z</time>
      </trkpt>
      <trkpt lat="43.60031" lon="1.45487">
        <ele>154.600348</ele>
        <time>2021-05-01T10:40:38.867Z</time>
      </trkpt>
      <trkpt lat="43.60025" lon="1.45464">
        <ele>154.252817</ele>
        <time>2021-05-01T10:40:42.147Z</time>
      </trkpt>
      <trkpt lat="43.60021" lon="1.45439">
        <ele>153.89237</ele>
        <time>2021-05-01T10:40:45.453Z</time>
      </trkpt>
      <trkpt lat="43.60018" lon="1.4541">
        <ele>153.469994</ele>
        <time>2021-05-01T10:40:49.934Z</time>
      </trkpt>
      <trkpt lat="43.60017" lon="1.45405">
        <ele>153.40117</ele>
        <time>2021-05-01T10:40:50.621Z</time>
      </trkpt>
      <trkpt lat="43.60016" lon="1.45393">
        <ele>153.229109</ele>
        <time>2021-05-01T10:40:52.257Z</time>
      </trkpt>
      <trkpt lat="43.60014" lon="1.45379">
        <ele>153.236154</ele>
        <time>2021-05-01T10:40:54.472Z</time>
      </trkpt>
      <trkpt lat="43.60011" lon="1.45354">
        <ele>153.292978</ele>
        <time>2021-05-01T10:40:58.319Z</time>
      </trkpt>
      <trkpt lat="43.60011" lon="1.45345">
        <ele>153.313153</ele>
        <time>2021-05-01T10:40:59.510Z</time>
      </trkpt>
      <trkpt lat="43.60011" lon="1.45339">
        <ele>153.327208</ele>
        <time>2021-05-01T10:41:00.458Z</time>
      </trkpt>
      <trkpt lat="43.60011" lon="1.45319">
        <ele>153.370758</ele>
        <time>2021-05-01T10:41:03.611Z</time>
      </trkpt>
      <trkpt lat="43.60028" lon="1.4525">
        <ele>153.533254</ele>
        <time>2021-05-01T10:41:15.769Z</time>
      </trkpt>
      <trkpt lat="43.6003" lon="1.45243">
        <ele>153.550021</ele>
        <time>2021-05-01T10:41:17.262Z</time>
      </trkpt>
      <trkpt lat="43.60035" lon="1.45221">
        <ele>153.602105</ele>
        <time>2021-05-01T10:41:21.551Z</time>
      </trkpt>
      <trkpt lat="43.60039" lon="1.4521">
        <ele>153.628451</ele>
        <time>2021-05-01T10:41:23.808Z</time>
      </trkpt>
      <trkpt lat="43.60042" lon="1.45195">
        <ele>153.663135</ele>
        <time>2021-05-01T10:41:26.944Z</time>
      </trkpt>
      <trkpt lat="43.60042" lon="1.45185">
        <ele>153.684986</ele>
        <time>2021-05-01T10:41:28.814Z</time>
      </trkpt>
      <trkpt lat="43.60045" lon="1.45172">
        <ele>153.715536</ele>
        <time>2021-05-01T10:41:31.396Z</time>
      </trkpt>
      <trkpt lat="43.60051" lon="1.4514">
        <ele>153.87593</ele>
        <time>2021-05-01T10:41:38.211Z</time>
      </trkpt>
      <trkpt lat="43.60057" lon="1.45112">
        <ele>154.131244</ele>
        <time>2021-05-01T10:41:43.830Z</time>
      </trkpt>
      <trkpt lat="43.60058" lon="1.45105">
        <ele>154.193458</ele>
        <time>2021-05-01T10:41:45.388Z</time>
      </trkpt>
      <trkpt lat="43.6006" lon="1.45092">
        <ele>154.310669</ele>
        <time>2021-05-01T10:41:48.091Z</time>
      </trkpt>
      <trkpt lat="43.60061" lon="1.45084">
        <ele>154.381246</ele>
        <time>2021-05-01T10:41:49.576Z</time>
      </trkpt>
      <trkpt lat="43.60062" lon="1.45076">
        <ele>154.451033</ele>
        <time>2021-05-01T10:41:51.131Z</time>
      </trkpt>
      <trkpt lat="43.60062" lon="1.45068">
        <ele>154.522326</ele>
        <time>2021-05-01T10:41:52.773Z</time>
      </trkpt>
      <trkpt lat="43.60061" lon="1.45013">
        <ele>155.002166</ele>
        <time>2021-05-01T10:42:03.713Z</time>
      </trkpt>
      <trkpt lat="43.6006" lon="1.45002">
        <ele>155.102556</ele>
        <time>2021-05-01T10:42:06.142Z</time>
      </trkpt>
      <trkpt lat="43.60056" lon="1.44839">
        <ele>156.262639</ele>
        <time>2021-05-01T10:42:37.514Z</time>
      </trkpt>
      <trkpt lat="43.60056" lon="1.44834">
        <ele>156.287161</ele>
        <time>2021-05-01T10:42:38.562Z</time>
      </trkpt>
      <trkpt lat="43.60056" lon="1.4482">
        <ele>156.35359</ele>
        <time>2021-05-01T10:42:41.104Z</time>
      </trkpt>
      <trkpt lat="43.60055" lon="1.4481">
        <ele>156.402134</ele>
        <time>2021-05-01T10:42:43.028Z</time>
      </trkpt>
      <trkpt lat="43.60055" lon="1.44805">
        <ele>156.426151</ele>
        <time>2021-05-01T10:42:44.036Z</time>
      </trkpt>
      <trkpt lat="43.60054" lon="1.44726">
        <ele>156.795501</ele>
        <time>2021-05-01T10:42:58.145Z</time>
      </trkpt>
      <trkpt lat="43.60054" lon="1.44711">
        <ele>156.864738</ele>
        <time>2021-05-01T10:43:00.776Z</time>
      </trkpt>
      <trkpt lat="43.60053" lon="1.447">
        <ele>156.91891</ele>
        <time>2021-05-01T10:43:02.784Z</time>
      </trkpt>
      <trkpt lat="43.60052" lon="1.44672">
        <ele>157.051839</ele>
        <time>2021-05-01T10:43:07.606Z</time>
      </trkpt>
      <trkpt lat="43.6005" lon="1.44593">
        <ele>156.971921</ele>
        <time>2021-05-01T10:43:20.186Z</time>
      </trkpt>
      <trkpt lat="43.6005" lon="1.44588">
        <ele>156.961445</ele>
        <time>2021-05-01T10:43:20.887Z</time>
      </trkpt>
      <trkpt lat="43.60049" lon="1.44567">
        <ele>156.914981</ele>
        <time>2021-05-01T10:43:24.061Z</time>
      </trkpt>
      <trkpt lat="43.60048" lon="1.44552">
        <ele>156.881492</ele>
        <time>2021-05-01T10:43:26.508Z</time>
      </trkpt>
      <trkpt lat="43.60048" lon="1.44546">
        <ele>156.868068</ele>
        <time>2021-05-01T10:43:27.333Z</time>
      </trkpt>
      <trkpt lat="43.60046" lon="1.44519">
        <ele>156.807687</ele>
        <time>2021-05-01T10:43:31.356Z</time>
      </trkpt>
      <trkpt lat="43.60046" lon="1.44515">
        <ele>156.798976</ele>
        <time>2021-05-01T10:43:32.245Z</time>
      </trkpt>
      <trkpt lat="43.60045" lon="1.44508">
        <ele>156.783526</ele>
        <time>2021-05-01T10:43:33.353Z</time>
      </trkpt>
      <trkpt lat="43.60044" lon="1.44496">
        <ele>156.756704</ele>
        <time>2021-05-01T10:43:35.053Z</time>
      </trkpt>
      <trkpt lat="43.60042" lon="1.44458">
        <ele>156.671747</ele>
        <time>2021-05-01T10:43:41.184Z</time>
      </trkpt>
      <trkpt lat="43.60041" lon="1.44437">
        <ele>156.625012</ele>
        <time>2021-05-01T10:43:44.113Z</time>
      </trkpt>
      <trkpt lat="43.60038" lon="1.44385">
        <ele>156.21995</ele>
        <time>2021-05-01T10:43:51.834Z</time>
      </trkpt>
      <trkpt lat="43.60037" lon="1.44378">
        <ele>156.109722</ele>
        <time>2021-05-01T10:43:52.839Z</time>
      </trkpt>
      <trkpt lat="43.60037" lon="1.44371">
        <ele>156.023201</ele>
        <time>2021-05-01T10:43:53.778Z</time>
      </trkpt>
      <trkpt lat="43.60036" lon="1.44368">
        <ele>155.968699</ele>
        <time>2021-05-01T10:43:54.719Z</time>
      </trkpt>
      <trkpt lat="43.60015" lon="1.44274">
        <ele>154.602859</ele>
        <time>2021-05-01T10:44:07.903Z</time>
      </trkpt>
      <trkpt lat="43.60014" lon="1.4427">
        <ele>154.553167</ele>
        <time>2021-05-01T10:44:08.713Z</time>
      </trkpt>
      <trkpt lat="43.6001" lon="1.44253">
        <ele>154.298963</ele>
        <time>2021-05-01T10:44:10.759Z</time>
      </trkpt>
      <trkpt lat="43.60005" lon="1.44235">
        <ele>154.036821</ele>
        <time>2021-05-01T10:44:12.990Z</time>
      </trkpt>
      <trkpt lat="43.60004" lon="1.4423">
        <ele>153.966237</ele>
        <time>2021-05-01T10:44:13.646Z</time>
      </trkpt>
      <trkpt lat="43.59999" lon="1.4421">
        <ele>153.662924</ele>
        <time>2021-05-01T10:44:16.594Z</time>
      </trkpt>
      <trkpt lat="43.59986" lon="1.44156">
        <ele>152.669381</ele>
        <time>2021-05-01T10:44:23.174Z</time>
      </trkpt>
      <trkpt lat="43.59985" lon="1.44153">
        <ele>152.589689</ele>
        <time>2021-05-01T10:44:23.513Z</time>
      </trkpt>
      <trkpt lat="43.5998" lon="1.44136">
        <ele>152.099236</ele>
        <time>2021-05-01T10:44:25.828Z</time>
      </trkpt>
      <trkpt lat="43.59979" lon="1.44132">
        <ele>151.991378</ele>
        <time>2021-05-01T10:44:26.424Z</time>
      </trkpt>
      <trkpt lat="43.59977" lon="1.4412">
        <ele>151.684376</ele>
        <time>2021-05-01T10:44:27.915Z</time>
      </trkpt>
      <trkpt lat="43.59975" lon="1.44113">
        <ele>151.49301</ele>
        <time>2021-05-01T10:44:28.658Z</time>
      </trkpt>
      <trkpt lat="43.59965" lon="1.44069">
        <ele>150.273969</ele>
        <time>2021-05-01T10:44:34.119Z</time>
      </trkpt>
      <trkpt lat="43.59964" lon="1.44064">
        <ele>150.151254</ele>
        <time>2021-05-01T10:44:34.572Z</time>
      </trkpt>
      <trkpt lat="43.59962" lon="1.44054">
        <ele>149.861277</ele>
        <time>2021-05-01T10:44:35.841Z</time>
      </trkpt>
      <trkpt lat="43.59959" lon="1.44043">
        <ele>149.560284</ele>
        <time>2021-05-01T10:44:37.170Z</time>
      </trkpt>
      <trkpt lat="43.59964" lon="1.44041">
        <ele>149.373594</ele>
        <time>2021-05-01T10:44:38.096Z</time>
      </trkpt>
      <trkpt lat="43.59964" lon="1.44037">
        <ele>149.271372</ele>
        <time>2021-05-01T10:44:38.567Z</time>
      </trkpt>
      <trkpt lat="43.5996" lon="1.4402">
        <ele>148.817566</ele>
        <time>2021-05-01T10:44:41.097Z</time>
      </trkpt>
      <trkpt lat="43.59914" lon="1.43765">
        <ele>143.713366</ele>
        <time>2021-05-01T10:45:24.126Z</time>
      </trkpt>
      <trkpt lat="43.59897" lon="1.43667">
        <ele>142.636507</ele>
        <time>2021-05-01T10:45:44.984Z</time>
      </trkpt>
      <trkpt lat="43.59896" lon="1.43661">
        <ele>142.645344</ele>
        <time>2021-05-01T10:45:46.318Z</time>
      </trkpt>
      <trkpt lat="43.59887" lon="1.43654">
        <ele>142.665808</ele>
        <time>2021-05-01T10:45:48.617Z</time>
      </trkpt>
      <trkpt lat="43.59884" lon="1.43634">
        <ele>142.696764</ele>
        <time>2021-05-01T10:45:52.170Z</time>
      </trkpt>
      <trkpt lat="43.5988" lon="1.43616">
        <ele>142.725137</ele>
        <time>2021-05-01T10:45:55.544Z</time>
      </trkpt>
      <trkpt lat="43.59877" lon="1.436">
        <ele>142.749456</ele>
        <time>2021-05-01T10:45:58.335Z</time>
      </trkpt>
      <trkpt lat="43.59875" lon="1.43586">
        <ele>142.770941</ele>
        <time>2021-05-01T10:46:00.917Z</time>
      </trkpt>
      <trkpt lat="43.59854" lon="1.43475">
        <ele>142.944333</ele>
        <time>2021-05-01T10:46:21.402Z</time>
      </trkpt>
      <trkpt lat="43.59852" lon="1.43467">
        <ele>142.957027</ele>
        <time>2021-05-01T10:46:22.802Z</time>
      </trkpt>
      <trkpt lat="43.59845" lon="1.43424">
        <ele>142.860101</ele>
        <time>2021-05-01T10:46:29.867Z</time>
      </trkpt>
      <trkpt lat="43.59842" lon="1.43409">
        <ele>142.818697</ele>
        <time>2021-05-01T10:46:32.375Z</time>
      </trkpt>
      <trkpt lat="43.59835" lon="1.43371">
        <ele>142.718396</ele>
        <time>2021-05-01T10:46:38.338Z</time>
      </trkpt>
      <trkpt lat="43.5982" lon="1.43286">
        <ele>142.492388</ele>
        <time>2021-05-01T10:46:51.218Z</time>
      </trkpt>
      <trkpt lat="43.59809" lon="1.43224">
        <ele>142.329111</ele>
        <time>2021-05-01T10:47:00.347Z</time>
      </trkpt>
      <trkpt lat="43.59809" lon="1.43216">
        <ele>142.325957</ele>
        <time>2021-05-01T10:47:01.493Z</time>
      </trkpt>
      <trkpt lat="43.59808" lon="1.43202">
        <ele>142.331437</ele>
        <time>2021-05-01T10:47:03.680Z</time>
      </trkpt>
      <trkpt lat="43.59811" lon="1.43198">
        <ele>142.333365</ele>
        <time>2021-05-01T10:47:04.462Z</time>
      </trkpt>
      <trkpt lat="43.59811" lon="1.4319">
        <ele>142.336196</ele>
        <time>2021-05-01T10:47:05.539Z</time>
      </trkpt>
      <trkpt lat="43.59804" lon="1.43155">
        <ele>142.34981</ele>
        <time>2021-05-01T10:47:11.127Z</time>
      </trkpt>
      <trkpt lat="43.598" lon="1.4313">
        <ele>142.359349</ele>
        <time>2021-05-01T10:47:15.128Z</time>
      </trkpt>
      <trkpt lat="43.59797" lon="1.43113">
        <ele>142.365935</ele>
        <time>2021-05-01T10:47:17.979Z</time>
      </trkpt>
      <trkpt lat="43.59796" lon="1.43107">
        <ele>142.368202</ele>
        <time>2021-05-01T10:47:19.013Z</time>
      </trkpt>
      <trkpt lat="43.59794" lon="1.43093">
        <ele>142.373421</ele>
        <time>2021-05-01T10:47:21.288Z</time>
      </trkpt>
      <trkpt lat="43.59795" lon="1.4309">
        <ele>142.374961</ele>
        <time>2021-05-01T10:47:21.988Z</time>
      </trkpt>
      <trkpt lat="43.59796" lon="1.43086">
        <ele>142.376501</ele>
        <time>2021-05-01T10:47:22.725Z</time>
      </trkpt>
      <trkpt lat="43.59797" lon="1.43082">
        <ele>142.37804</ele>
        <time>2021-05-01T10:47:23.418Z</time>
      </trkpt>
      <trkpt lat="43.59797" lon="1.43077">
        <ele>142.379648</ele>
        <time>2021-05-01T10:47:24.166Z</time>
      </trkpt>
      <trkpt lat="43.59794" lon="1.4307">
        <ele>142.382865</ele>
        <time>2021-05-01T10:47:25.643Z</time>
      </trkpt>
      <trkpt lat="43.59791" lon="1.43066">
        <ele>142.384659</ele>
        <time>2021-05-01T10:47:26.450Z</time>
      </trkpt>
      <trkpt lat="43.59789" lon="1.43065">
        <ele>142.385829</ele>
        <time>2021-05-01T10:47:27.016Z</time>
      </trkpt>
      <trkpt lat="43.59788" lon="1.43063">
        <ele>142.386936</ele>
        <time>2021-05-01T10:47:27.575Z</time>
      </trkpt>
      <trkpt lat="43.59783" lon="1.43056">
        <ele>142.390509</ele>
        <time>2021-05-01T10:47:29.244Z</time>
      </trkpt>
      <trkpt lat="43.5978" lon="1.43045">
        <ele>142.39485</ele>
        <time>2021-05-01T10:47:31.294Z</time>
      </trkpt>
      <trkpt lat="43.59779" lon="1.43035">
        <ele>142.398516</ele>
        <time>2021-05-01T10:47:33.052Z</time>
      </trkpt>
      <trkpt lat="43.5977" lon="1.42987">
        <ele>142.422213</ele>
        <time>2021-05-01T10:47:42.038Z</time>
      </trkpt>
      <trkpt lat="43.59769" lon="1.4298">
        <ele>142.442671</ele>
        <time>2021-05-01T10:47:43.295Z</time>
      </trkpt>
      <trkpt lat="43.59767" lon="1.4297">
        <ele>142.474254</ele>
        <time>2021-05-01T10:47:45.314Z</time>
      </trkpt>
      <trkpt lat="43.59765" lon="1.42961">
        <ele>142.499802</ele>
        <time>2021-05-01T10:47:46.951Z</time>
      </trkpt>
      <trkpt lat="43.59764" lon="1.42955">
        <ele>142.517909</ele>
        <time>2021-05-01T10:47:48.022Z</time>
      </trkpt>
      <trkpt lat="43.59757" lon="1.4292">
        <ele>142.62501</ele>
        <time>2021-05-01T10:47:54.439Z</time>
      </trkpt>
      <trkpt lat="43.59749" lon="1.42894">
        <ele>142.70511</ele>
        <time>2021-05-01T10:47:59.060Z</time>
      </trkpt>
      <trkpt lat="43.59747" lon="1.42885">
        <ele>142.731975</ele>
        <time>2021-05-01T10:48:00.664Z</time>
      </trkpt>
      <trkpt lat="43.5974" lon="1.42844">
        <ele>142.856498</ele>
        <time>2021-05-01T10:48:08.234Z</time>
      </trkpt>
      <trkpt lat="43.59736" lon="1.42825">
        <ele>142.913431</ele>
        <time>2021-05-01T10:48:11.691Z</time>
      </trkpt>
      <trkpt lat="43.59734" lon="1.42816">
        <ele>142.94126</ele>
        <time>2021-05-01T10:48:13.300Z</time>
      </trkpt>
      <trkpt lat="43.59728" lon="1.42772">
        <ele>143.071402</ele>
        <time>2021-05-01T10:48:20.823Z</time>
      </trkpt>
      <trkpt lat="43.5972" lon="1.42731">
        <ele>143.172399</ele>
        <time>2021-05-01T10:48:27.816Z</time>
      </trkpt>
      <trkpt lat="43.59716" lon="1.42709">
        <ele>143.210195</ele>
        <time>2021-05-01T10:48:31.369Z</time>
      </trkpt>
      <trkpt lat="43.59715" lon="1.42703">
        <ele>143.222329</ele>
        <time>2021-05-01T10:48:32.521Z</time>
      </trkpt>
      <trkpt lat="43.59714" lon="1.42696">
        <ele>143.233902</ele>
        <time>2021-05-01T10:48:33.601Z</time>
      </trkpt>
      <trkpt lat="43.59702" lon="1.42636">
        <ele>143.34086</ele>
        <time>2021-05-01T10:48:44.171Z</time>
      </trkpt>
      <trkpt lat="43.59698" lon="1.42611">
        <ele>143.386256</ele>
        <time>2021-05-01T10:48:48.643Z</time>
      </trkpt>
      <trkpt lat="43.59693" lon="1.42586">
        <ele>143.429696</ele>
        <time>2021-05-01T10:48:53.294Z</time>
      </trkpt>
      <trkpt lat="43.59686" lon="1.42548">
        <ele>143.498298</ele>
        <time>2021-05-01T10:49:00.068Z</time>
      </trkpt>
      <trkpt lat="43.59681" lon="1.4252">
        <ele>143.548562</ele>
        <time>2021-05-01T10:49:04.817Z</time>
      </trkpt>
      <trkpt lat="43.59671" lon="1.42467">
        <ele>143.579135</ele>
        <time>2021-05-01T10:49:13.669Z</time>
      </trkpt>
      <trkpt lat="43.59667" lon="1.42446">
        <ele>143.584895</ele>
        <time>2021-05-01T10:49:17.164Z</time>
      </trkpt>
      <trkpt lat="43.59661" lon="1.42415">
        <ele>143.593673</ele>
        <time>2021-05-01T10:49:22.371Z</time>
      </trkpt>
      <trkpt lat="43.59662" lon="1.42405">
        <ele>143.596443</ele>
        <time>2021-05-01T10:49:24.062Z</time>
      </trkpt>
      <trkpt lat="43.59658" lon="1.42381">
        <ele>143.60317</ele>
        <time>2021-05-01T10:49:28.266Z</time>
      </trkpt>
      <trkpt lat="43.59654" lon="1.42361">
        <ele>143.608841</ele>
        <time>2021-05-01T10:49:31.532Z</time>
      </trkpt>
      <trkpt lat="43.5965" lon="1.42333">
        <ele>143.616356</ele>
        <time>2021-05-01T10:49:36.313Z</time>
      </trkpt>
      <trkpt lat="43.59649" lon="1.42328">
        <ele>143.617827</ele>
        <time>2021-05-01T10:49:37.085Z</time>
      </trkpt>
      <trkpt lat="43.59648" lon="1.42318">
        <ele>143.620534</ele>
        <time>2021-05-01T10:49:38.706Z</time>
      </trkpt>
      <trkpt lat="43.59652" lon="1.42314">
        <ele>143.622338</ele>
        <time>2021-05-01T10:49:39.842Z</time>
      </trkpt>
      <trkpt lat="43.59654" lon="1.42308">
        <ele>143.624111</ele>
        <time>2021-05-01T10:49:40.917Z</time>
      </trkpt>
      <trkpt lat="43.59655" lon="1.42304">
        <ele>143.625414</ele>
        <time>2021-05-01T10:49:41.650Z</time>
      </trkpt>
      <trkpt lat="43.59655" lon="1.42299">
        <ele>143.626692</ele>
        <time>2021-05-01T10:49:42.487Z</time>
      </trkpt>
      <trkpt lat="43.59654" lon="1.42294">
        <ele>143.627977</ele>
        <time>2021-05-01T10:49:43.228Z</time>
      </trkpt>
      <trkpt lat="43.5966" lon="1.42278">
        <ele>143.632921</ele>
        <time>2021-05-01T10:49:46.077Z</time>
      </trkpt>
      <trkpt lat="43.59673" lon="1.42244">
        <ele>143.507055</ele>
        <time>2021-05-01T10:49:52.444Z</time>
      </trkpt>
      <trkpt lat="43.59675" lon="1.42236">
        <ele>143.474689</ele>
        <time>2021-05-01T10:49:53.619Z</time>
      </trkpt>
      <trkpt lat="43.59717" lon="1.42142">
        <ele>143.033443</ele>
        <time>2021-05-01T10:50:09.278Z</time>
      </trkpt>
      <trkpt lat="43.5973" lon="1.42114">
        <ele>142.898554</ele>
        <time>2021-05-01T10:50:13.996Z</time>
      </trkpt>
      <trkpt lat="43.59736" lon="1.42099">
        <ele>142.82968</ele>
        <time>2021-05-01T10:50:16.571Z</time>
      </trkpt>
      <trkpt lat="43.59756" lon="1.42053">
        <ele>142.642992</ele>
        <time>2021-05-01T10:50:24.533Z</time>
      </trkpt>
      <trkpt lat="43.59771" lon="1.4203">
        <ele>142.641243</ele>
        <time>2021-05-01T10:50:29.416Z</time>
      </trkpt>
      <trkpt lat="43.59782" lon="1.42017">
        <ele>142.640198</ele>
        <time>2021-05-01T10:50:32.502Z</time>
      </trkpt>
      <trkpt lat="43.59783" lon="1.42016">
        <ele>142.640068</ele>
        <time>2021-05-01T10:50:32.882Z</time>
      </trkpt>
      <trkpt lat="43.59788" lon="1.42008">
        <ele>142.639528</ele>
        <time>2021-05-01T10:50:34.408Z</time>
      </trkpt>
      <trkpt lat="43.5979" lon="1.42007">
        <ele>142.639323</ele>
        <time>2021-05-01T10:50:34.993Z</time>
      </trkpt>
      <trkpt lat="43.59792" lon="1.42004">
        <ele>142.639093</ele>
        <time>2021-05-01T10:50:35.665Z</time>
      </trkpt>
      <trkpt lat="43.59795" lon="1.41996">
        <ele>142.638623</ele>
        <time>2021-05-01T10:50:37.167Z</time>
      </trkpt>
      <trkpt lat="43.59794" lon="1.41992">
        <ele>142.638384</ele>
        <time>2021-05-01T10:50:37.880Z</time>
      </trkpt>
      <trkpt lat="43.59794" lon="1.4199">
        <ele>142.638282</ele>
        <time>2021-05-01T10:50:38.206Z</time>
      </trkpt>
      <trkpt lat="43.59793" lon="1.41988">
        <ele>142.638139</ele>
        <time>2021-05-01T10:50:38.653Z</time>
      </trkpt>
      <trkpt lat="43.59797" lon="1.41976">
        <ele>142.637407</ele>
        <time>2021-05-01T10:50:40.967Z</time>
      </trkpt>
      <trkpt lat="43.59816" lon="1.4192">
        <ele>142.633973</ele>
        <time>2021-05-01T10:50:51.424Z</time>
      </trkpt>
      <trkpt lat="43.5983" lon="1.41887">
        <ele>142.63187</ele>
        <time>2021-05-01T10:50:57.660Z</time>
      </trkpt>
      <trkpt lat="43.59843" lon="1.41859">
        <ele>142.630035</ele>
        <time>2021-05-01T10:51:02.889Z</time>
      </trkpt>
      <trkpt lat="43.59871" lon="1.41796">
        <ele>142.589122</ele>
        <time>2021-05-01T10:51:14.912Z</time>
      </trkpt>
      <trkpt lat="43.59875" lon="1.41787">
        <ele>142.583172</ele>
        <time>2021-05-01T10:51:16.605Z</time>
      </trkpt>
      <trkpt lat="43.59889" lon="1.41755">
        <ele>142.560078</ele>
        <time>2021-05-01T10:51:23.062Z</time>
      </trkpt>
      <trkpt lat="43.59898" lon="1.41736">
        <ele>142.546911</ele>
        <time>2021-05-01T10:51:26.617Z</time>
      </trkpt>
      <trkpt lat="43.59906" lon="1.41719">
        <ele>142.534377</ele>
        <time>2021-05-01T10:51:30.106Z</time>
      </trkpt>
      <trkpt lat="43.59908" lon="1.41715">
        <ele>142.531428</ele>
        <time>2021-05-01T10:51:30.864Z</time>
      </trkpt>
      <trkpt lat="43.59911" lon="1.41707">
        <ele>142.525919</ele>
        <time>2021-05-01T10:51:32.298Z</time>
      </trkpt>
      <trkpt lat="43.59913" lon="1.41703">
        <ele>142.522668</ele>
        <time>2021-05-01T10:51:33.127Z</time>
      </trkpt>
      <trkpt lat="43.59962" lon="1.41591">
        <ele>142.241052</ele>
        <time>2021-05-01T10:51:52.508Z</time>
      </trkpt>
      <trkpt lat="43.59966" lon="1.41583">
        <ele>142.204365</ele>
        <time>2021-05-01T10:51:53.761Z</time>
      </trkpt>
      <trkpt lat="43.59974" lon="1.41564">
        <ele>142.112926</ele>
        <time>2021-05-01T10:51:56.999Z</time>
      </trkpt>
      <trkpt lat="43.59979" lon="1.41552">
        <ele>142.059267</ele>
        <time>2021-05-01T10:51:59.003Z</time>
      </trkpt>
      <trkpt lat="43.59989" lon="1.41529">
        <ele>141.948221</ele>
        <time>2021-05-01T10:52:02.943Z</time>
      </trkpt>
      <trkpt lat="43.60001" lon="1.41503">
        <ele>141.823733</ele>
        <time>2021-05-01T10:52:07.573Z</time>
      </trkpt>
      <trkpt lat="43.60004" lon="1.41497">
        <ele>141.79623</ele>
        <time>2021-05-01T10:52:08.562Z</time>
      </trkpt>
      <trkpt lat="43.60007" lon="1.4149">
        <ele>141.761859</ele>
        <time>2021-05-01T10:52:09.799Z</time>
      </trkpt>
      <trkpt lat="43.60063" lon="1.41363">
        <ele>141.297888</ele>
        <time>2021-05-01T10:52:32.148Z</time>
      </trkpt>
      <trkpt lat="43.60127" lon="1.41226">
        <ele>140.927599</ele>
        <time>2021-05-01T10:52:57.342Z</time>
      </trkpt>
      <trkpt lat="43.60133" lon="1.41211">
        <ele>140.894902</ele>
        <time>2021-05-01T10:52:59.894Z</time>
      </trkpt>
      <trkpt lat="43.60139" lon="1.41195">
        <ele>140.863797</ele>
        <time>2021-05-01T10:53:02.865Z</time>
      </trkpt>
      <trkpt lat="43.60147" lon="1.41178">
        <ele>140.829936</ele>
        <time>2021-05-01T10:53:06.021Z</time>
      </trkpt>
      <trkpt lat="43.60148" lon="1.41174">
        <ele>140.822979</ele>
        <time>2021-05-01T10:53:06.644Z</time>
      </trkpt>
      <trkpt lat="43.60152" lon="1.41165">
        <ele>140.805351</ele>
        <time>2021-05-01T10:53:08.294Z</time>
      </trkpt>
      <trkpt lat="43.60148" lon="1.41161">
        <ele>140.793542</ele>
        <time>2021-05-01T10:53:09.477Z</time>
      </trkpt>
      <trkpt lat="43.60149" lon="1.41158">
        <ele>140.787301</ele>
        <time>2021-05-01T10:53:10.071Z</time>
      </trkpt>
      <trkpt lat="43.60146" lon="1.41155">
        <ele>140.777676</ele>
        <time>2021-05-01T10:53:11.576Z</time>
      </trkpt>
      <trkpt lat="43.60148" lon="1.41151">
        <ele>140.769802</ele>
        <time>2021-05-01T10:53:12.330Z</time>
      </trkpt>
      <trkpt lat="43.60148" lon="1.41149">
        <ele>140.76722</ele>
        <time>2021-05-01T10:53:12.603Z</time>
      </trkpt>
      <trkpt lat="43.60232" lon="1.40963">
        <ele>140.370375</ele>
        <time>2021-05-01T10:53:47.846Z</time>
      </trkpt>
      <trkpt lat="43.6024" lon="1.40945">
        <ele>140.32285</ele>
        <time>2021-05-01T10:53:51.232Z</time>
      </trkpt>
      <trkpt lat="43.60252" lon="1.40918">
        <ele>140.252198</ele>
        <time>2021-05-01T10:53:56.296Z</time>
      </trkpt>
      <trkpt lat="43.60275" lon="1.40868">
        <ele>140.119918</ele>
        <time>2021-05-01T10:54:05.722Z</time>
      </trkpt>
      <trkpt lat="43.60296" lon="1.40823">
        <ele>139.999691</ele>
        <time>2021-05-01T10:54:14.396Z</time>
      </trkpt>
      <trkpt lat="43.60298" lon="1.4082">
        <ele>139.992117</ele>
        <time>2021-05-01T10:54:14.843Z</time>
      </trkpt>
      <trkpt lat="43.60308" lon="1.40799">
        <ele>139.942568</ele>
        <time>2021-05-01T10:54:18.931Z</time>
      </trkpt>
      <trkpt lat="43.60324" lon="1.40764">
        <ele>139.973661</ele>
        <time>2021-05-01T10:54:25.714Z</time>
      </trkpt>
      <trkpt lat="43.6033" lon="1.40747">
        <ele>139.987676</ele>
        <time>2021-05-01T10:54:28.803Z</time>
      </trkpt>
      <trkpt lat="43.60338" lon="1.40731">
        <ele>140.002089</ele>
        <time>2021-05-01T10:54:31.854Z</time>
      </trkpt>
      <trkpt lat="43.60335" lon="1.40723">
        <ele>140.00834</ele>
        <time>2021-05-01T10:54:33.242Z</time>
      </trkpt>
      <trkpt lat="43.60333" lon="1.40718">
        <ele>140.012708</ele>
        <time>2021-05-01T10:54:34.230Z</time>
      </trkpt>
      <trkpt lat="43.60332" lon="1.40715">
        <ele>140.01508</ele>
        <time>2021-05-01T10:54:34.737Z</time>
      </trkpt>
      <trkpt lat="43.60336" lon="1.40706">
        <ele>140.023289</ele>
        <time>2021-05-01T10:54:36.645Z</time>
      </trkpt>
      <trkpt lat="43.6034" lon="1.40696">
        <ele>140.03153</ele>
        <time>2021-05-01T10:54:38.621Z</time>
      </trkpt>
      <trkpt lat="43.6035" lon="1.40672">
        <ele>140.052378</ele>
        <time>2021-05-01T10:54:43.353Z</time>
      </trkpt>
      <trkpt lat="43.60351" lon="1.4067">
        <ele>140.054386</ele>
        <time>2021-05-01T10:54:43.880Z</time>
      </trkpt>
      <trkpt lat="43.60372" lon="1.40623">
        <ele>140.095671</ele>
        <time>2021-05-01T10:54:53.623Z</time>
      </trkpt>
      <trkpt lat="43.60423" lon="1.4051">
        <ele>140.582741</ele>
        <time>2021-05-01T10:55:17.484Z</time>
      </trkpt>
      <trkpt lat="43.60429" lon="1.40515">
        <ele>140.629674</ele>
        <time>2021-05-01T10:55:19.339Z</time>
      </trkpt>
      <trkpt lat="43.60433" lon="1.40518">
        <ele>140.66645</ele>
        <time>2021-05-01T10:55:20.852Z</time>
      </trkpt>
      <trkpt lat="43.60436" lon="1.4052">
        <ele>140.684965</ele>
        <time>2021-05-01T10:55:21.557Z</time>
      </trkpt>
      <trkpt lat="43.60442" lon="1.40525">
        <ele>140.735196</ele>
        <time>2021-05-01T10:55:23.529Z</time>
      </trkpt>
      <trkpt lat="43.60446" lon="1.40529">
        <ele>140.767904</ele>
        <time>2021-05-01T10:55:24.834Z</time>
      </trkpt>
      <trkpt lat="43.60466" lon="1.40485">
        <ele>141.025725</ele>
        <time>2021-05-01T10:55:34.431Z</time>
      </trkpt>
      <trkpt lat="43.60468" lon="1.40481">
        <ele>141.05167</ele>
        <time>2021-05-01T10:55:35.225Z</time>
      </trkpt>
      <trkpt lat="43.60479" lon="1.40456">
        <ele>141.197459</ele>
        <time>2021-05-01T10:55:40.831Z</time>
      </trkpt>
      <trkpt lat="43.6054" lon="1.4032">
        <ele>142.647409</ele>
        <time>2021-05-01T10:56:10.455Z</time>
      </trkpt>
      <trkpt lat="43.60547" lon="1.40304">
        <ele>142.834047</ele>
        <time>2021-05-01T10:56:13.913Z</time>
      </trkpt>
      <trkpt lat="43.60572" lon="1.4025">
        <ele>143.490558</ele>
        <time>2021-05-01T10:56:28.414Z</time>
      </trkpt>
      <trkpt lat="43.60593" lon="1.40208">
        <ele>144.117681</ele>
        <time>2021-05-01T10:56:39.671Z</time>
      </trkpt>
      <trkpt lat="43.60597" lon="1.40202">
        <ele>144.262191</ele>
        <time>2021-05-01T10:56:41.294Z</time>
      </trkpt>
      <trkpt lat="43.60608" lon="1.40202">
        <ele>144.555941</ele>
        <time>2021-05-01T10:56:44.708Z</time>
      </trkpt>
      <trkpt lat="43.60612" lon="1.40204">
        <ele>144.67912</ele>
        <time>2021-05-01T10:56:45.960Z</time>
      </trkpt>
      <trkpt lat="43.60613" lon="1.40203">
        <ele>144.694818</ele>
        <time>2021-05-01T10:56:46.271Z</time>
      </trkpt>
      <trkpt lat="43.60614" lon="1.40196">
        <ele>144.833913</ele>
        <time>2021-05-01T10:56:47.775Z</time>
      </trkpt>
      <trkpt lat="43.60616" lon="1.40188">
        <ele>144.98853</ele>
        <time>2021-05-01T10:56:49.793Z</time>
      </trkpt>
      <trkpt lat="43.60617" lon="1.40183">
        <ele>145.100617</ele>
        <time>2021-05-01T10:56:51.109Z</time>
      </trkpt>
      <trkpt lat="43.6062" lon="1.40177">
        <ele>145.223428</ele>
        <time>2021-05-01T10:56:52.506Z</time>
      </trkpt>
      <trkpt lat="43.60618" lon="1.40176">
        <ele>145.280935</ele>
        <time>2021-05-01T10:56:53.428Z</time>
      </trkpt>
      <trkpt lat="43.60613" lon="1.40165">
        <ele>145.526918</ele>
        <time>2021-05-01T10:56:56.139Z</time>
      </trkpt>
      <trkpt lat="43.60615" lon="1.40153">
        <ele>145.768814</ele>
        <time>2021-05-01T10:56:58.846Z</time>
      </trkpt>
      <trkpt lat="43.60611" lon="1.40149">
        <ele>145.90835</ele>
        <time>2021-05-01T10:57:00.745Z</time>
      </trkpt>
      <trkpt lat="43.60625" lon="1.40117">
        <ele>146.62234</ele>
        <time>2021-05-01T10:57:09.425Z</time>
      </trkpt>
      <trkpt lat="43.60637" lon="1.4009">
        <ele>147.236832</ele>
        <time>2021-05-01T10:57:17.321Z</time>
      </trkpt>
      <trkpt lat="43.60656" lon="1.40047">
        <ele>148.214726</ele>
        <time>2021-05-01T10:57:30.020Z</time>
      </trkpt>
      <trkpt lat="43.60697" lon="1.39949">
        <ele>150.242852</ele>
        <time>2021-05-01T10:57:59.284Z</time>
      </trkpt>
      <trkpt lat="43.60712" lon="1.3992">
        <ele>150.862924</ele>
        <time>2021-05-01T10:58:07.962Z</time>
      </trkpt>
      <trkpt lat="43.6074" lon="1.39854">
        <ele>152.191246</ele>
        <time>2021-05-01T10:58:25.493Z</time>
      </trkpt>
      <trkpt lat="43.60758" lon="1.39811">
        <ele>153.04101</ele>
        <time>2021-05-01T10:58:35.343Z</time>
      </trkpt>
      <trkpt lat="43.60765" lon="1.39792">
        <ele>153.049337</ele>
        <time>2021-05-01T10:58:39.402Z</time>
      </trkpt>
      <trkpt lat="43.60778" lon="1.39774">
        <ele>153.058894</ele>
        <time>2021-05-01T10:58:43.630Z</time>
      </trkpt>
      <trkpt lat="43.60787" lon="1.39761">
        <ele>153.065631</ele>
        <time>2021-05-01T10:58:46.494Z</time>
      </trkpt>
      <trkpt lat="43.60791" lon="1.39763">
        <ele>153.068022</ele>
        <time>2021-05-01T10:58:47.779Z</time>
      </trkpt>
      <trkpt lat="43.60796" lon="1.39762">
        <ele>153.070449</ele>
        <time>2021-05-01T10:58:48.758Z</time>
      </trkpt>
      <trkpt lat="43.608" lon="1.39761">
        <ele>153.07285</ele>
        <time>2021-05-01T10:58:49.811Z</time>
      </trkpt>
      <trkpt lat="43.60804" lon="1.39757">
        <ele>153.075594</ele>
        <time>2021-05-01T10:58:51.039Z</time>
      </trkpt>
      <trkpt lat="43.60808" lon="1.39752">
        <ele>153.078315</ele>
        <time>2021-05-01T10:58:52.244Z</time>
      </trkpt>
      <trkpt lat="43.60811" lon="1.39746">
        <ele>153.081059</ele>
        <time>2021-05-01T10:58:53.292Z</time>
      </trkpt>
      <trkpt lat="43.60812" lon="1.39739">
        <ele>153.083796</ele>
        <time>2021-05-01T10:58:54.511Z</time>
      </trkpt>
      <trkpt lat="43.60812" lon="1.39733">
        <ele>153.085974</ele>
        <time>2021-05-01T10:58:55.595Z</time>
      </trkpt>
      <trkpt lat="43.6081" lon="1.39728">
        <ele>153.088154</ele>
        <time>2021-05-01T10:58:56.609Z</time>
      </trkpt>
      <trkpt lat="43.60808" lon="1.39721">
        <ele>153.091209</ele>
        <time>2021-05-01T10:58:57.819Z</time>
      </trkpt>
      <trkpt lat="43.60798" lon="1.39712">
        <ele>153.097268</ele>
        <time>2021-05-01T10:59:00.424Z</time>
      </trkpt>
      <trkpt lat="43.60792" lon="1.39711">
        <ele>153.100347</ele>
        <time>2021-05-01T10:59:01.518Z</time>
      </trkpt>
      <trkpt lat="43.60793" lon="1.39691">
        <ele>153.108142</ele>
        <time>2021-05-01T10:59:04.743Z</time>
      </trkpt>
      <trkpt lat="43.60793" lon="1.39655">
        <ele>153.121743</ele>
        <time>2021-05-01T10:59:09.882Z</time>
      </trkpt>
      <trkpt lat="43.60793" lon="1.39611">
        <ele>153.105605</ele>
        <time>2021-05-01T10:59:16.152Z</time>
      </trkpt>
      <trkpt lat="43.60793" lon="1.39581">
        <ele>152.991875</ele>
        <time>2021-05-01T10:59:20.465Z</time>
      </trkpt>
      <trkpt lat="43.60792" lon="1.39523">
        <ele>152.773134</ele>
        <time>2021-05-01T10:59:28.772Z</time>
      </trkpt>
      <trkpt lat="43.60792" lon="1.39513">
        <ele>152.733315</ele>
        <time>2021-05-01T10:59:30.183Z</time>
      </trkpt>
      <trkpt lat="43.60793" lon="1.39473">
        <ele>152.58279</ele>
        <time>2021-05-01T10:59:36.516Z</time>
      </trkpt>
      <trkpt lat="43.60793" lon="1.39467">
        <ele>152.560038</ele>
        <time>2021-05-01T10:59:37.347Z</time>
      </trkpt>
      <trkpt lat="43.60797" lon="1.39438">
        <ele>152.447973</ele>
        <time>2021-05-01T10:59:42.436Z</time>
      </trkpt>
      <trkpt lat="43.60804" lon="1.39375">
        <ele>152.206799</ele>
        <time>2021-05-01T10:59:52.035Z</time>
      </trkpt>
      <trkpt lat="43.60805" lon="1.39365">
        <ele>152.165021</ele>
        <time>2021-05-01T10:59:53.516Z</time>
      </trkpt>
      <trkpt lat="43.60806" lon="1.39348">
        <ele>152.094347</ele>
        <time>2021-05-01T10:59:56.328Z</time>
      </trkpt>
      <trkpt lat="43.60807" lon="1.3934">
        <ele>152.060717</ele>
        <time>2021-05-01T10:59:57.562Z</time>
      </trkpt>
      <trkpt lat="43.60809" lon="1.39319">
        <ele>151.973565</ele>
        <time>2021-05-01T11:00:00.325Z</time>
      </trkpt>
      <trkpt lat="43.60812" lon="1.39295">
        <ele>151.874744</ele>
        <time>2021-05-01T11:00:04.103Z</time>
      </trkpt>
      <trkpt lat="43.60815" lon="1.39281">
        <ele>151.812329</ele>
        <time>2021-05-01T11:00:06.069Z</time>
      </trkpt>
      <trkpt lat="43.60819" lon="1.39279">
        <ele>151.792656</ele>
        <time>2021-05-01T11:00:06.681Z</time>
      </trkpt>
      <trkpt lat="43.60821" lon="1.39276">
        <ele>151.773526</ele>
        <time>2021-05-01T11:00:07.330Z</time>
      </trkpt>
      <trkpt lat="43.60823" lon="1.39272">
        <ele>151.754111</ele>
        <time>2021-05-01T11:00:07.970Z</time>
      </trkpt>
      <trkpt lat="43.60824" lon="1.39267">
        <ele>151.735136</ele>
        <time>2021-05-01T11:00:08.715Z</time>
      </trkpt>
      <trkpt lat="43.60823" lon="1.39263">
        <ele>151.715274</ele>
        <time>2021-05-01T11:00:09.576Z</time>
      </trkpt>
      <trkpt lat="43.60822" lon="1.39258">
        <ele>151.69546</ele>
        <time>2021-05-01T11:00:10.410Z</time>
      </trkpt>
      <trkpt lat="43.6082" lon="1.39255">
        <ele>151.676352</ele>
        <time>2021-05-01T11:00:11.316Z</time>
      </trkpt>
      <trkpt lat="43.60817" lon="1.39238">
        <ele>151.607663</ele>
        <time>2021-05-01T11:00:13.557Z</time>
      </trkpt>
      <trkpt lat="43.6083" lon="1.39125">
        <ele>151.119662</ele>
        <time>2021-05-01T11:00:31.087Z</time>
      </trkpt>
      <trkpt lat="43.60833" lon="1.39104">
        <ele>150.988137</ele>
        <time>2021-05-01T11:00:34.619Z</time>
      </trkpt>
      <trkpt lat="43.60837" lon="1.39072">
        <ele>150.791525</ele>
        <time>2021-05-01T11:00:38.878Z</time>
      </trkpt>
      <trkpt lat="43.60838" lon="1.39064">
        <ele>150.739722</ele>
        <time>2021-05-01T11:00:40.310Z</time>
      </trkpt>
      <trkpt lat="43.60841" lon="1.39063">
        <ele>150.718551</ele>
        <time>2021-05-01T11:00:40.809Z</time>
      </trkpt>
      <trkpt lat="43.60843" lon="1.39062">
        <ele>150.698496</ele>
        <time>2021-05-01T11:00:41.240Z</time>
      </trkpt>
      <trkpt lat="43.60845" lon="1.3906">
        <ele>150.677716</ele>
        <time>2021-05-01T11:00:41.662Z</time>
      </trkpt>
      <trkpt lat="43.60846" lon="1.39057">
        <ele>150.656564</ele>
        <time>2021-05-01T11:00:42.082Z</time>
      </trkpt>
      <trkpt lat="43.60847" lon="1.39054">
        <ele>150.636278</ele>
        <time>2021-05-01T11:00:42.508Z</time>
      </trkpt>
      <trkpt lat="43.60847" lon="1.39051">
        <ele>150.618659</ele>
        <time>2021-05-01T11:00:42.872Z</time>
      </trkpt>
      <trkpt lat="43.60845" lon="1.39045">
        <ele>150.582993</ele>
        <time>2021-05-01T11:00:43.615Z</time>
      </trkpt>
      <trkpt lat="43.60844" lon="1.39043">
        <ele>150.565287</ele>
        <time>2021-05-01T11:00:43.987Z</time>
      </trkpt>
      <trkpt lat="43.60845" lon="1.39031">
        <ele>150.489572</ele>
        <time>2021-05-01T11:00:45.816Z</time>
      </trkpt>
      <trkpt lat="43.6085" lon="1.38983">
        <ele>150.201043</ele>
        <time>2021-05-01T11:00:52.515Z</time>
      </trkpt>
      <trkpt lat="43.60851" lon="1.38973">
        <ele>150.135071</ele>
        <time>2021-05-01T11:00:54.383Z</time>
      </trkpt>
      <trkpt lat="43.60851" lon="1.38964">
        <ele>150.083759</ele>
        <time>2021-05-01T11:00:55.578Z</time>
      </trkpt>
      <trkpt lat="43.6085" lon="1.38953">
        <ele>150.014188</ele>
        <time>2021-05-01T11:00:57.163Z</time>
      </trkpt>
      <trkpt lat="43.60849" lon="1.38949">
        <ele>149.992361</ele>
        <time>2021-05-01T11:00:57.651Z</time>
      </trkpt>
      <trkpt lat="43.60845" lon="1.38927">
        <ele>149.850121</ele>
        <time>2021-05-01T11:01:01.201Z</time>
      </trkpt>
      <trkpt lat="43.60842" lon="1.38913">
        <ele>149.764543</ele>
        <time>2021-05-01T11:01:03.289Z</time>
      </trkpt>
      <trkpt lat="43.6083" lon="1.3885">
        <ele>149.12391</ele>
        <time>2021-05-01T11:01:12.671Z</time>
      </trkpt>
      <trkpt lat="43.60829" lon="1.38846">
        <ele>149.07333</ele>
        <time>2021-05-01T11:01:13.324Z</time>
      </trkpt>
      <trkpt lat="43.60826" lon="1.3883">
        <ele>148.894556</ele>
        <time>2021-05-01T11:01:15.806Z</time>
      </trkpt>
      <trkpt lat="43.60824" lon="1.38815">
        <ele>148.725675</ele>
        <time>2021-05-01T11:01:17.900Z</time>
      </trkpt>
      <trkpt lat="43.60818" lon="1.38808">
        <ele>148.608164</ele>
        <time>2021-05-01T11:01:19.319Z</time>
      </trkpt>
      <trkpt lat="43.6082" lon="1.38806">
        <ele>148.563894</ele>
        <time>2021-05-01T11:01:19.832Z</time>
      </trkpt>
      <trkpt lat="43.60822" lon="1.38794">
        <ele>148.433362</ele>
        <time>2021-05-01T11:01:21.406Z</time>
      </trkpt>
      <trkpt lat="43.60821" lon="1.3879">
        <ele>148.388546</ele>
        <time>2021-05-01T11:01:21.986Z</time>
      </trkpt>
      <trkpt lat="43.60822" lon="1.38778">
        <ele>148.250047</ele>
        <time>2021-05-01T11:01:23.747Z</time>
      </trkpt>
      <trkpt lat="43.60825" lon="1.3876">
        <ele>148.051219</ele>
        <time>2021-05-01T11:01:26.093Z</time>
      </trkpt>
      <trkpt lat="43.60863" lon="1.38655">
        <ele>146.70226</ele>
        <time>2021-05-01T11:01:40.819Z</time>
      </trkpt>
      <trkpt lat="43.6087" lon="1.3858">
        <ele>145.58065</ele>
        <time>2021-05-01T11:01:50.305Z</time>
      </trkpt>
      <trkpt lat="43.60864" lon="1.38545">
        <ele>145.062523</ele>
        <time>2021-05-01T11:01:54.792Z</time>
      </trkpt>
      <trkpt lat="43.6086" lon="1.38529">
        <ele>144.80625</ele>
        <time>2021-05-01T11:01:56.875Z</time>
      </trkpt>
      <trkpt lat="43.60852" lon="1.38477">
        <ele>144.017036</ele>
        <time>2021-05-01T11:02:03.583Z</time>
      </trkpt>
      <trkpt lat="43.60837" lon="1.38374">
        <ele>143.288305</ele>
        <time>2021-05-01T11:02:17.681Z</time>
      </trkpt>
      <trkpt lat="43.60828" lon="1.38301">
        <ele>143.332558</ele>
        <time>2021-05-01T11:02:28.823Z</time>
      </trkpt>
      <trkpt lat="43.60828" lon="1.38295">
        <ele>143.336574</ele>
        <time>2021-05-01T11:02:29.802Z</time>
      </trkpt>
      <trkpt lat="43.6083" lon="1.38294">
        <ele>143.337988</ele>
        <time>2021-05-01T11:02:30.319Z</time>
      </trkpt>
      <trkpt lat="43.60836" lon="1.38288">
        <ele>143.343836</ele>
        <time>2021-05-01T11:02:32.013Z</time>
      </trkpt>
      <trkpt lat="43.60836" lon="1.38286">
        <ele>143.345326</ele>
        <time>2021-05-01T11:02:32.491Z</time>
      </trkpt>
      <trkpt lat="43.60837" lon="1.38283">
        <ele>143.347372</ele>
        <time>2021-05-01T11:02:33.072Z</time>
      </trkpt>
      <trkpt lat="43.60829" lon="1.38271">
        <ele>143.356742</ele>
        <time>2021-05-01T11:02:35.748Z</time>
      </trkpt>
      <trkpt lat="43.60826" lon="1.38271">
        <ele>143.358723</ele>
        <time>2021-05-01T11:02:36.413Z</time>
      </trkpt>
      <trkpt lat="43.60826" lon="1.38265">
        <ele>143.362859</ele>
        <time>2021-05-01T11:02:38.077Z</time>
      </trkpt>
      <trkpt lat="43.60829" lon="1.38231">
        <ele>143.382997</ele>
        <time>2021-05-01T11:02:44.233Z</time>
      </trkpt>
      <trkpt lat="43.60834" lon="1.38209">
        <ele>143.396482</ele>
        <time>2021-05-01T11:02:48.850Z</time>
      </trkpt>
      <trkpt lat="43.60836" lon="1.38201">
        <ele>143.401875</ele>
        <time>2021-05-01T11:02:50.754Z</time>
      </trkpt>
      <trkpt lat="43.60849" lon="1.38173">
        <ele>143.854902</ele>
        <time>2021-05-01T11:02:57.738Z</time>
      </trkpt>
      <trkpt lat="43.60866" lon="1.38142">
        <ele>144.485523</ele>
        <time>2021-05-01T11:03:06.105Z</time>
      </trkpt>
      <trkpt lat="43.60886" lon="1.38107">
        <ele>145.201597</ele>
        <time>2021-05-01T11:03:16.427Z</time>
      </trkpt>
      <trkpt lat="43.60887" lon="1.38104">
        <ele>145.25543</ele>
        <time>2021-05-01T11:03:17.185Z</time>
      </trkpt>
      <trkpt lat="43.60892" lon="1.38097">
        <ele>145.42137</ele>
        <time>2021-05-01T11:03:19.828Z</time>
      </trkpt>
      <trkpt lat="43.60895" lon="1.38089">
        <ele>145.562066</ele>
        <time>2021-05-01T11:03:22.017Z</time>
      </trkpt>
      <trkpt lat="43.60902" lon="1.38029">
        <ele>146.54956</ele>
        <time>2021-05-01T11:03:36.661Z</time>
      </trkpt>
      <trkpt lat="43.60902" lon="1.38024">
        <ele>146.629118</ele>
        <time>2021-05-01T11:03:37.853Z</time>
      </trkpt>
      <trkpt lat="43.60904" lon="1.38024">
        <ele>146.66305</ele>
        <time>2021-05-01T11:03:38.389Z</time>
      </trkpt>
      <trkpt lat="43.60908" lon="1.38017">
        <ele>146.799164</ele>
        <time>2021-05-01T11:03:40.170Z</time>
      </trkpt>
      <trkpt lat="43.60908" lon="1.38015">
        <ele>146.834827</ele>
        <time>2021-05-01T11:03:40.698Z</time>
      </trkpt>
      <trkpt lat="43.60907" lon="1.38012">
        <ele>146.89351</ele>
        <time>2021-05-01T11:03:41.513Z</time>
      </trkpt>
      <trkpt lat="43.60909" lon="1.38009">
        <ele>146.965572</ele>
        <time>2021-05-01T11:03:42.577Z</time>
      </trkpt>
      <trkpt lat="43.60912" lon="1.38005">
        <ele>147.057974</ele>
        <time>2021-05-01T11:03:43.808Z</time>
      </trkpt>
      <trkpt lat="43.60916" lon="1.37999">
        <ele>147.193222</ele>
        <time>2021-05-01T11:03:45.644Z</time>
      </trkpt>
      <trkpt lat="43.60921" lon="1.37982">
        <ele>147.478826</ele>
        <time>2021-05-01T11:03:49.839Z</time>
      </trkpt>
      <trkpt lat="43.60935" lon="1.37929">
        <ele>148.326948</ele>
        <time>2021-05-01T11:04:02.449Z</time>
      </trkpt>
      <trkpt lat="43.60936" lon="1.37926">
        <ele>148.371862</ele>
        <time>2021-05-01T11:04:03.136Z</time>
      </trkpt>
      <trkpt lat="43.60953" lon="1.37865">
        <ele>149.339421</ele>
        <time>2021-05-01T11:04:17.487Z</time>
      </trkpt>
      <trkpt lat="43.60966" lon="1.37825">
        <ele>150.001603</ele>
        <time>2021-05-01T11:04:27.832Z</time>
      </trkpt>
      <trkpt lat="43.61" lon="1.37721">
        <ele>151.386347</ele>
        <time>2021-05-01T11:04:52.240Z</time>
      </trkpt>
      <trkpt lat="43.61022" lon="1.37663">
        <ele>151.827401</ele>
        <time>2021-05-01T11:05:04.842Z</time>
      </trkpt>
      <trkpt lat="43.61023" lon="1.37656">
        <ele>151.868478</ele>
        <time>2021-05-01T11:05:06.252Z</time>
      </trkpt>
      <trkpt lat="43.61026" lon="1.37652">
        <ele>151.911987</ele>
        <time>2021-05-01T11:05:07.553Z</time>
      </trkpt>
      <trkpt lat="43.61037" lon="1.37624">
        <ele>152.123855</ele>
        <time>2021-05-01T11:05:13.185Z</time>
      </trkpt>
      <trkpt lat="43.61043" lon="1.37619">
        <ele>152.187914</ele>
        <time>2021-05-01T11:05:15.271Z</time>
      </trkpt>
      <trkpt lat="43.61082" lon="1.37581">
        <ele>152.624207</ele>
        <time>2021-05-01T11:05:27.231Z</time>
      </trkpt>
      <trkpt lat="43.61089" lon="1.37576">
        <ele>152.698302</ele>
        <time>2021-05-01T11:05:29.156Z</time>
      </trkpt>
      <trkpt lat="43.61076" lon="1.37543">
        <ele>152.727302</ele>
        <time>2021-05-01T11:05:36.029Z</time>
      </trkpt>
      <trkpt lat="43.61073" lon="1.3752">
        <ele>152.675965</ele>
        <time>2021-05-01T11:05:39.894Z</time>
      </trkpt>
      <trkpt lat="43.61084" lon="1.37461">
        <ele>152.539656</ele>
        <time>2021-05-01T11:05:50.383Z</time>
      </trkpt>
      <trkpt lat="43.61088" lon="1.37462">
        <ele>152.526469</ele>
        <time>2021-05-01T11:05:51.229Z</time>
      </trkpt>
      <trkpt lat="43.61091" lon="1.37463">
        <ele>152.517951</ele>
        <time>2021-05-01T11:05:51.820Z</time>
      </trkpt>
      <trkpt lat="43.61095" lon="1.37443">
        <ele>152.471095</ele>
        <time>2021-05-01T11:05:55.076Z</time>
      </trkpt>
      <trkpt lat="43.61099" lon="1.37425">
        <ele>152.428703</ele>
        <time>2021-05-01T11:05:57.962Z</time>
      </trkpt>
      <trkpt lat="43.61116" lon="1.37339">
        <ele>152.231531</ele>
        <time>2021-05-01T11:06:11.400Z</time>
      </trkpt>
      <trkpt lat="43.61119" lon="1.37324">
        <ele>152.175156</ele>
        <time>2021-05-01T11:06:13.685Z</time>
      </trkpt>
      <trkpt lat="43.6112" lon="1.37308">
        <ele>152.115836</ele>
        <time>2021-05-01T11:06:16.066Z</time>
      </trkpt>
      <trkpt lat="43.61122" lon="1.37284">
        <ele>152.02374</ele>
        <time>2021-05-01T11:06:19.878Z</time>
      </trkpt>
      <trkpt lat="43.61124" lon="1.37272">
        <ele>151.980517</ele>
        <time>2021-05-01T11:06:21.492Z</time>
      </trkpt>
      <trkpt lat="43.61125" lon="1.37254">
        <ele>151.911684</ele>
        <time>2021-05-01T11:06:24.195Z</time>
      </trkpt>
      <trkpt lat="43.61121" lon="1.37253">
        <ele>151.890441</ele>
        <time>2021-05-01T11:06:25.077Z</time>
      </trkpt>
      <trkpt lat="43.61112" lon="1.37246">
        <ele>151.839505</ele>
        <time>2021-05-01T11:06:27.100Z</time>
      </trkpt>
      <trkpt lat="43.61108" lon="1.37242">
        <ele>151.813642</ele>
        <time>2021-05-01T11:06:28.062Z</time>
      </trkpt>
      <trkpt lat="43.61106" lon="1.37242">
        <ele>151.802765</ele>
        <time>2021-05-01T11:06:28.414Z</time>
      </trkpt>
      <trkpt lat="43.61089" lon="1.37233">
        <ele>151.707165</ele>
        <time>2021-05-01T11:06:32.188Z</time>
      </trkpt>
      <trkpt lat="43.61081" lon="1.37212">
        <ele>151.619918</ele>
        <time>2021-05-01T11:06:35.522Z</time>
      </trkpt>
      <trkpt lat="43.61079" lon="1.37208">
        <ele>151.602214</ele>
        <time>2021-05-01T11:06:36.194Z</time>
      </trkpt>
      <trkpt lat="43.61042" lon="1.37192">
        <ele>151.40109</ele>
        <time>2021-05-01T11:06:44.579Z</time>
      </trkpt>
      <trkpt lat="43.61039" lon="1.37192">
        <ele>151.386148</ele>
        <time>2021-05-01T11:06:45.582Z</time>
      </trkpt>
      <trkpt lat="43.61036" lon="1.37192">
        <ele>151.371722</ele>
        <time>2021-05-01T11:06:46.199Z</time>
      </trkpt>
      <trkpt lat="43.61023" lon="1.37177">
        <ele>151.332275</ele>
        <time>2021-05-01T11:06:50.157Z</time>
      </trkpt>
      <trkpt lat="43.61007" lon="1.3714">
        <ele>151.609638</ele>
        <time>2021-05-01T11:06:57.622Z</time>
      </trkpt>
      <trkpt lat="43.61" lon="1.37124">
        <ele>151.728472</ele>
        <time>2021-05-01T11:07:00.559Z</time>
      </trkpt>
      <trkpt lat="43.6096" lon="1.37035">
        <ele>152.391825</ele>
        <time>2021-05-01T11:07:20.453Z</time>
      </trkpt>
      <trkpt lat="43.60958" lon="1.37029">
        <ele>152.431531</ele>
        <time>2021-05-01T11:07:21.995Z</time>
      </trkpt>
      <trkpt lat="43.60923" lon="1.36938">
        <ele>153.029806</ele>
        <time>2021-05-01T11:07:42.774Z</time>
      </trkpt>
      <trkpt lat="43.60912" lon="1.3687">
        <ele>153.343048</ele>
        <time>2021-05-01T11:07:56.731Z</time>
      </trkpt>
      <trkpt lat="43.60923" lon="1.36589">
        <ele>153.937359</ele>
        <time>2021-05-01T11:08:42.918Z</time>
      </trkpt>
      <trkpt lat="43.6092" lon="1.36583">
        <ele>153.933582</ele>
        <time>2021-05-01T11:08:43.976Z</time>
      </trkpt>
      <trkpt lat="43.60921" lon="1.3658">
        <ele>153.932148</ele>
        <time>2021-05-01T11:08:44.411Z</time>
      </trkpt>
      <trkpt lat="43.6092" lon="1.36575">
        <ele>153.929375</ele>
        <time>2021-05-01T11:08:45.288Z</time>
      </trkpt>
      <trkpt lat="43.60918" lon="1.36573">
        <ele>153.927962</ele>
        <time>2021-05-01T11:08:45.715Z</time>
      </trkpt>
      <trkpt lat="43.6092" lon="1.36568">
        <ele>153.92519</ele>
        <time>2021-05-01T11:08:46.569Z</time>
      </trkpt>
      <trkpt lat="43.60924" lon="1.36535">
        <ele>153.908645</ele>
        <time>2021-05-01T11:08:51.741Z</time>
      </trkpt>
      <trkpt lat="43.60924" lon="1.36514">
        <ele>153.89863</ele>
        <time>2021-05-01T11:08:54.889Z</time>
      </trkpt>
      <trkpt lat="43.60925" lon="1.36478">
        <ele>153.883297</ele>
        <time>2021-05-01T11:09:00.696Z</time>
      </trkpt>
      <trkpt lat="43.60925" lon="1.36469">
        <ele>153.888614</ele>
        <time>2021-05-01T11:09:01.981Z</time>
      </trkpt>
      <trkpt lat="43.60925" lon="1.36463">
        <ele>153.892857</ele>
        <time>2021-05-01T11:09:03.016Z</time>
      </trkpt>
      <trkpt lat="43.60921" lon="1.36448">
        <ele>153.902304</ele>
        <time>2021-05-01T11:09:05.438Z</time>
      </trkpt>
      <trkpt lat="43.60913" lon="1.36426">
        <ele>153.918433</ele>
        <time>2021-05-01T11:09:09.457Z</time>
      </trkpt>
      <trkpt lat="43.60916" lon="1.36357">
        <ele>153.961858</ele>
        <time>2021-05-01T11:09:20.323Z</time>
      </trkpt>
      <trkpt lat="43.60917" lon="1.36329">
        <ele>153.979789</ele>
        <time>2021-05-01T11:09:25.172Z</time>
      </trkpt>
      <trkpt lat="43.60918" lon="1.36304">
        <ele>153.996014</ele>
        <time>2021-05-01T11:09:29.268Z</time>
      </trkpt>
      <trkpt lat="43.60918" lon="1.36302">
        <ele>153.996963</ele>
        <time>2021-05-01T11:09:29.629Z</time>
      </trkpt>
      <trkpt lat="43.60918" lon="1.3628">
        <ele>154.010777</ele>
        <time>2021-05-01T11:09:33.334Z</time>
      </trkpt>
      <trkpt lat="43.60931" lon="1.35936">
        <ele>154.896274</ele>
        <time>2021-05-01T11:10:33.047Z</time>
      </trkpt>
      <trkpt lat="43.60934" lon="1.3583">
        <ele>155.157249</ele>
        <time>2021-05-01T11:10:52.166Z</time>
      </trkpt>
      <trkpt lat="43.60936" lon="1.35774">
        <ele>155.294203</ele>
        <time>2021-05-01T11:11:01.528Z</time>
      </trkpt>
      <trkpt lat="43.60936" lon="1.35765">
        <ele>155.318307</ele>
        <time>2021-05-01T11:11:03.264Z</time>
      </trkpt>
      <trkpt lat="43.60937" lon="1.35734">
        <ele>155.362682</ele>
        <time>2021-05-01T11:11:08.116Z</time>
      </trkpt>
      <trkpt lat="43.60942" lon="1.35705">
        <ele>155.271047</ele>
        <time>2021-05-01T11:11:12.700Z</time>
      </trkpt>
      <trkpt lat="43.60946" lon="1.35701">
        <ele>155.252163</ele>
        <time>2021-05-01T11:11:13.620Z</time>
      </trkpt>
      <trkpt lat="43.6095" lon="1.35695">
        <ele>155.224224</ele>
        <time>2021-05-01T11:11:14.945Z</time>
      </trkpt>
      <trkpt lat="43.60953" lon="1.35695">
        <ele>155.211305</ele>
        <time>2021-05-01T11:11:15.518Z</time>
      </trkpt>
      <trkpt lat="43.60956" lon="1.35694">
        <ele>155.199067</ele>
        <time>2021-05-01T11:11:16.072Z</time>
      </trkpt>
      <trkpt lat="43.60959" lon="1.35693">
        <ele>155.186948</ele>
        <time>2021-05-01T11:11:16.610Z</time>
      </trkpt>
      <trkpt lat="43.60961" lon="1.3569">
        <ele>155.174204</ele>
        <time>2021-05-01T11:11:17.206Z</time>
      </trkpt>
      <trkpt lat="43.60963" lon="1.35687">
        <ele>155.161555</ele>
        <time>2021-05-01T11:11:17.847Z</time>
      </trkpt>
      <trkpt lat="43.60964" lon="1.35684">
        <ele>155.149027</ele>
        <time>2021-05-01T11:11:18.489Z</time>
      </trkpt>
      <trkpt lat="43.60965" lon="1.3568">
        <ele>155.137118</ele>
        <time>2021-05-01T11:11:19.093Z</time>
      </trkpt>
      <trkpt lat="43.60965" lon="1.35676">
        <ele>155.124965</ele>
        <time>2021-05-01T11:11:19.703Z</time>
      </trkpt>
      <trkpt lat="43.60964" lon="1.35672">
        <ele>155.110936</ele>
        <time>2021-05-01T11:11:20.387Z</time>
      </trkpt>
      <trkpt lat="43.60963" lon="1.35667">
        <ele>155.095129</ele>
        <time>2021-05-01T11:11:21.136Z</time>
      </trkpt>
      <trkpt lat="43.6096" lon="1.35663">
        <ele>155.07877</ele>
        <time>2021-05-01T11:11:21.894Z</time>
      </trkpt>
      <trkpt lat="43.60957" lon="1.35661">
        <ele>155.06597</ele>
        <time>2021-05-01T11:11:22.484Z</time>
      </trkpt>
      <trkpt lat="43.6096" lon="1.3565">
        <ele>155.029935</ele>
        <time>2021-05-01T11:11:24.057Z</time>
      </trkpt>
      <trkpt lat="43.6096" lon="1.35607">
        <ele>154.895378</ele>
        <time>2021-05-01T11:11:30.526Z</time>
      </trkpt>
      <trkpt lat="43.60962" lon="1.35568">
        <ele>154.772199</ele>
        <time>2021-05-01T11:11:36.544Z</time>
      </trkpt>
      <trkpt lat="43.60963" lon="1.35551">
        <ele>154.719767</ele>
        <time>2021-05-01T11:11:38.918Z</time>
      </trkpt>
      <trkpt lat="43.60963" lon="1.35541">
        <ele>154.687691</ele>
        <time>2021-05-01T11:11:40.452Z</time>
      </trkpt>
      <trkpt lat="43.60963" lon="1.35536">
        <ele>154.673055</ele>
        <time>2021-05-01T11:11:41.149Z</time>
      </trkpt>
      <trkpt lat="43.60963" lon="1.35531">
        <ele>154.658393</ele>
        <time>2021-05-01T11:11:41.848Z</time>
      </trkpt>
      <trkpt lat="43.60961" lon="1.35523">
        <ele>154.631042</ele>
        <time>2021-05-01T11:11:43.128Z</time>
      </trkpt>
      <trkpt lat="43.60961" lon="1.35522">
        <ele>154.630108</ele>
        <time>2021-05-01T11:11:43.166Z</time>
      </trkpt>
      <trkpt lat="43.60958" lon="1.35514">
        <ele>154.610481</ele>
        <time>2021-05-01T11:11:44.520Z</time>
      </trkpt>
      <trkpt lat="43.60958" lon="1.3549">
        <ele>154.678366</ele>
        <time>2021-05-01T11:11:48.015Z</time>
      </trkpt>
      <trkpt lat="43.60958" lon="1.35484">
        <ele>154.69437</ele>
        <time>2021-05-01T11:11:48.891Z</time>
      </trkpt>
      <trkpt lat="43.60958" lon="1.35477">
        <ele>154.712874</ele>
        <time>2021-05-01T11:11:50.101Z</time>
      </trkpt>
      <trkpt lat="43.60958" lon="1.35473">
        <ele>154.725865</ele>
        <time>2021-05-01T11:11:50.906Z</time>
      </trkpt>
      <trkpt lat="43.60958" lon="1.35468">
        <ele>154.73803</ele>
        <time>2021-05-01T11:11:51.639Z</time>
      </trkpt>
      <trkpt lat="43.60951" lon="1.35467">
        <ele>154.76223</ele>
        <time>2021-05-01T11:11:52.970Z</time>
      </trkpt>
      <trkpt lat="43.60942" lon="1.35455">
        <ele>154.810179</ele>
        <time>2021-05-01T11:11:55.719Z</time>
      </trkpt>
      <trkpt lat="43.60942" lon="1.35449">
        <ele>154.827905</ele>
        <time>2021-05-01T11:11:56.877Z</time>
      </trkpt>
      <trkpt lat="43.60939" lon="1.35449">
        <ele>154.838194</ele>
        <time>2021-05-01T11:11:57.580Z</time>
      </trkpt>
      <trkpt lat="43.6094" lon="1.35384">
        <ele>155.016469</ele>
        <time>2021-05-01T11:12:09.043Z</time>
      </trkpt>
      <trkpt lat="43.60941" lon="1.35343">
        <ele>155.129359</ele>
        <time>2021-05-01T11:12:16.577Z</time>
      </trkpt>
      <trkpt lat="43.60941" lon="1.35324">
        <ele>155.182426</ele>
        <time>2021-05-01T11:12:20.226Z</time>
      </trkpt>
      <trkpt lat="43.60942" lon="1.35302">
        <ele>155.24215</ele>
        <time>2021-05-01T11:12:24.235Z</time>
      </trkpt>
      <trkpt lat="43.60944" lon="1.35294">
        <ele>155.266743</ele>
        <time>2021-05-01T11:12:26.062Z</time>
      </trkpt>
      <trkpt lat="43.60954" lon="1.3527">
        <ele>155.42376</ele>
        <time>2021-05-01T11:12:31.154Z</time>
      </trkpt>
      <trkpt lat="43.60958" lon="1.35262">
        <ele>155.496932</ele>
        <time>2021-05-01T11:12:33.166Z</time>
      </trkpt>
      <trkpt lat="43.60964" lon="1.35257">
        <ele>155.558796</ele>
        <time>2021-05-01T11:12:34.908Z</time>
      </trkpt>
      <trkpt lat="43.60969" lon="1.35252">
        <ele>155.622766</ele>
        <time>2021-05-01T11:12:36.632Z</time>
      </trkpt>
      <trkpt lat="43.60974" lon="1.35245">
        <ele>155.692033</ele>
        <time>2021-05-01T11:12:38.619Z</time>
      </trkpt>
      <trkpt lat="43.6098" lon="1.35233">
        <ele>155.803496</ele>
        <time>2021-05-01T11:12:41.529Z</time>
      </trkpt>
      <trkpt lat="43.60987" lon="1.35214">
        <ele>155.957019</ele>
        <time>2021-05-01T11:12:45.824Z</time>
      </trkpt>
      <trkpt lat="43.60989" lon="1.35202">
        <ele>156.043176</ele>
        <time>2021-05-01T11:12:48.228Z</time>
      </trkpt>
      <trkpt lat="43.60989" lon="1.35194">
        <ele>156.102867</ele>
        <time>2021-05-01T11:12:49.709Z</time>
      </trkpt>
      <trkpt lat="43.60987" lon="1.35185">
        <ele>156.170946</ele>
        <time>2021-05-01T11:12:51.554Z</time>
      </trkpt>
      <trkpt lat="43.60983" lon="1.35179">
        <ele>156.224914</ele>
        <time>2021-05-01T11:12:52.992Z</time>
      </trkpt>
      <trkpt lat="43.60981" lon="1.35163">
        <ele>156.342093</ele>
        <time>2021-05-01T11:12:56.253Z</time>
      </trkpt>
      <trkpt lat="43.60983" lon="1.35133">
        <ele>156.560151</ele>
        <time>2021-05-01T11:13:02.140Z</time>
      </trkpt>
      <trkpt lat="43.60986" lon="1.35109">
        <ele>156.73024</ele>
        <time>2021-05-01T11:13:06.761Z</time>
      </trkpt>
      <trkpt lat="43.60992" lon="1.35107">
        <ele>156.791171</ele>
        <time>2021-05-01T11:13:08.342Z</time>
      </trkpt>
      <trkpt lat="43.60996" lon="1.351">
        <ele>156.85826</ele>
        <time>2021-05-01T11:13:10.125Z</time>
      </trkpt>
      <trkpt lat="43.60997" lon="1.35088">
        <ele>156.949328</ele>
        <time>2021-05-01T11:13:12.653Z</time>
      </trkpt>
      <trkpt lat="43.60995" lon="1.34973">
        <ele>157.640211</ele>
        <time>2021-05-01T11:13:33.765Z</time>
      </trkpt>
      <trkpt lat="43.61002" lon="1.34897">
        <ele>158.086469</ele>
        <time>2021-05-01T11:13:48.118Z</time>
      </trkpt>
      <trkpt lat="43.61013" lon="1.34861">
        <ele>158.310579</ele>
        <time>2021-05-01T11:13:55.634Z</time>
      </trkpt>
      <trkpt lat="43.6104" lon="1.34791">
        <ele>158.964746</ele>
        <time>2021-05-01T11:14:11.313Z</time>
      </trkpt>
      <trkpt lat="43.61122" lon="1.34606">
        <ele>161.22258</ele>
        <time>2021-05-01T11:14:57.156Z</time>
      </trkpt>
      <trkpt lat="43.6112" lon="1.34597">
        <ele>161.363384</ele>
        <time>2021-05-01T11:14:59.371Z</time>
      </trkpt>
      <trkpt lat="43.61118" lon="1.34593">
        <ele>161.432149</ele>
        <time>2021-05-01T11:15:00.459Z</time>
      </trkpt>
      <trkpt lat="43.61114" lon="1.34588">
        <ele>161.534018</ele>
        <time>2021-05-01T11:15:02.056Z</time>
      </trkpt>
      <trkpt lat="43.61129" lon="1.34554">
        <ele>162.104507</ele>
        <time>2021-05-01T11:15:10.649Z</time>
      </trkpt>
      <trkpt lat="43.61135" lon="1.34543">
        <ele>162.302187</ele>
        <time>2021-05-01T11:15:13.861Z</time>
      </trkpt>
      <trkpt lat="43.61264" lon="1.34293">
        <ele>166.796382</ele>
        <time>2021-05-01T11:16:24.386Z</time>
      </trkpt>
      <trkpt lat="43.61337" lon="1.34198">
        <ele>168.845696</ele>
        <time>2021-05-01T11:16:55.967Z</time>
      </trkpt>
      <trkpt lat="43.61346" lon="1.34186">
        <ele>169.092753</ele>
        <time>2021-05-01T11:16:58.962Z</time>
      </trkpt>
      <trkpt lat="43.61348" lon="1.3418">
        <ele>169.182586</ele>
        <time>2021-05-01T11:17:00.106Z</time>
      </trkpt>
      <trkpt lat="43.61355" lon="1.34172">
        <ele>169.367963</ele>
        <time>2021-05-01T11:17:03.362Z</time>
      </trkpt>
      <trkpt lat="43.61386" lon="1.34092">
        <ele>170.673511</ele>
        <time>2021-05-01T11:17:21.671Z</time>
      </trkpt>
      <trkpt lat="43.61386" lon="1.34086">
        <ele>170.759046</ele>
        <time>2021-05-01T11:17:23.944Z</time>
      </trkpt>
      <trkpt lat="43.61387" lon="1.34086">
        <ele>170.785456</ele>
        <time>2021-05-01T11:17:24.356Z</time>
      </trkpt>
      <trkpt lat="43.61388" lon="1.34087">
        <ele>170.807686</ele>
        <time>2021-05-01T11:17:24.723Z</time>
      </trkpt>
      <trkpt lat="43.61395" lon="1.34092">
        <ele>170.959114</ele>
        <time>2021-05-01T11:17:26.989Z</time>
      </trkpt>
      <trkpt lat="43.614" lon="1.34094">
        <ele>171.04821</ele>
        <time>2021-05-01T11:17:28.210Z</time>
      </trkpt>
      <trkpt lat="43.61408" lon="1.34087">
        <ele>171.238152</ele>
        <time>2021-05-01T11:17:31.506Z</time>
      </trkpt>
      <trkpt lat="43.61423" lon="1.3409">
        <ele>171.53939</ele>
        <time>2021-05-01T11:17:37.160Z</time>
      </trkpt>
      <trkpt lat="43.61437" lon="1.34082">
        <ele>171.837673</ele>
        <time>2021-05-01T11:17:41.601Z</time>
      </trkpt>
      <trkpt lat="43.61443" lon="1.34077">
        <ele>172.02122</ele>
        <time>2021-05-01T11:17:43.785Z</time>
      </trkpt>
      <trkpt lat="43.61446" lon="1.34072">
        <ele>172.188471</ele>
        <time>2021-05-01T11:17:45.345Z</time>
      </trkpt>
      <trkpt lat="43.6145" lon="1.34063">
        <ele>172.439753</ele>
        <time>2021-05-01T11:17:48.600Z</time>
      </trkpt>
      <trkpt lat="43.61452" lon="1.34053">
        <ele>172.695057</ele>
        <time>2021-05-01T11:17:50.829Z</time>
      </trkpt>
      <trkpt lat="43.61453" lon="1.34031">
        <ele>173.249358</ele>
        <time>2021-05-01T11:17:56.233Z</time>
      </trkpt>
      <trkpt lat="43.6145" lon="1.34018">
        <ele>173.57305</ele>
        <time>2021-05-01T11:17:59.934Z</time>
      </trkpt>
      <trkpt lat="43.61444" lon="1.34002">
        <ele>174.002802</ele>
        <time>2021-05-01T11:18:04.062Z</time>
      </trkpt>
      <trkpt lat="43.61439" lon="1.33993">
        <ele>174.281899</ele>
        <time>2021-05-01T11:18:07.165Z</time>
      </trkpt>
      <trkpt lat="43.61432" lon="1.33985">
        <ele>174.598777</ele>
        <time>2021-05-01T11:18:10.210Z</time>
      </trkpt>
      <trkpt lat="43.61423" lon="1.33978">
        <ele>174.941298</ele>
        <time>2021-05-01T11:18:14.157Z</time>
      </trkpt>
      <trkpt lat="43.61416" lon="1.33975">
        <ele>175.179576</ele>
        <time>2021-05-01T11:18:16.377Z</time>
      </trkpt>
      <trkpt lat="43.61412" lon="1.33974">
        <ele>175.316928</ele>
        <time>2021-05-01T11:18:17.744Z</time>
      </trkpt>
      <trkpt lat="43.61402" lon="1.33967">
        <ele>175.694261</ele>
        <time>2021-05-01T11:18:21.795Z</time>
      </trkpt>
      <trkpt lat="43.61381" lon="1.33948">
        <ele>176.563456</ele>
        <time>2021-05-01T11:18:31.030Z</time>
      </trkpt>
      <trkpt lat="43.61362" lon="1.33916">
        <ele>177.567144</ele>
        <time>2021-05-01T11:18:42.693Z</time>
      </trkpt>
      <trkpt lat="43.6135" lon="1.33893">
        <ele>178.180388</ele>
        <time>2021-05-01T11:18:51.248Z</time>
      </trkpt>
      <trkpt lat="43.61335" lon="1.33872">
        <ele>178.734363</ele>
        <time>2021-05-01T11:19:00.141Z</time>
      </trkpt>
      <trkpt lat="43.61267" lon="1.33793">
        <ele>181.01187</ele>
        <time>2021-05-01T11:19:29.786Z</time>
      </trkpt>
      <trkpt lat="43.61232" lon="1.33759">
        <ele>182.108633</ele>
        <time>2021-05-01T11:19:42.131Z</time>
      </trkpt>
      <trkpt lat="43.6121" lon="1.33743">
        <ele>182.620832</ele>
        <time>2021-05-01T11:19:48.640Z</time>
      </trkpt>
      <trkpt lat="43.61188" lon="1.33727">
        <ele>182.777088</ele>
        <time>2021-05-01T11:19:54.610Z</time>
      </trkpt>
      <trkpt lat="43.61179" lon="1.33716">
        <ele>182.85081</ele>
        <time>2021-05-01T11:19:57.272Z</time>
      </trkpt>
      <trkpt lat="43.61169" lon="1.33687">
        <ele>183.000443</ele>
        <time>2021-05-01T11:20:02.951Z</time>
      </trkpt>
      <trkpt lat="43.61166" lon="1.33672">
        <ele>183.070968</ele>
        <time>2021-05-01T11:20:05.449Z</time>
      </trkpt>
      <trkpt lat="43.61165" lon="1.33665">
        <ele>183.102442</ele>
        <time>2021-05-01T11:20:06.617Z</time>
      </trkpt>
      <trkpt lat="43.61164" lon="1.33659">
        <ele>183.129891</ele>
        <time>2021-05-01T11:20:07.616Z</time>
      </trkpt>
      <trkpt lat="43.61162" lon="1.33653">
        <ele>183.16055</ele>
        <time>2021-05-01T11:20:08.743Z</time>
      </trkpt>
      <trkpt lat="43.6116" lon="1.33639">
        <ele>183.224988</ele>
        <time>2021-05-01T11:20:11.230Z</time>
      </trkpt>
      <trkpt lat="43.61159" lon="1.33623">
        <ele>183.298505</ele>
        <time>2021-05-01T11:20:13.825Z</time>
      </trkpt>
      <trkpt lat="43.61165" lon="1.33603">
        <ele>183.398848</ele>
        <time>2021-05-01T11:20:17.472Z</time>
      </trkpt>
      <trkpt lat="43.61224" lon="1.33417">
        <ele>184.350324</ele>
        <time>2021-05-01T11:20:55.637Z</time>
      </trkpt>
      <trkpt lat="43.61249" lon="1.33324">
        <ele>184.823542</ele>
        <time>2021-05-01T11:21:13.349Z</time>
      </trkpt>
      <trkpt lat="43.6127" lon="1.33238">
        <ele>184.822124</ele>
        <time>2021-05-01T11:21:27.865Z</time>
      </trkpt>
      <trkpt lat="43.61277" lon="1.33206">
        <ele>184.790987</ele>
        <time>2021-05-01T11:21:33.059Z</time>
      </trkpt>
      <trkpt lat="43.61285" lon="1.33192">
        <ele>184.775027</ele>
        <time>2021-05-01T11:21:36.509Z</time>
      </trkpt>
      <trkpt lat="43.61292" lon="1.33187">
        <ele>184.76491</ele>
        <time>2021-05-01T11:21:38.155Z</time>
      </trkpt>
      <trkpt lat="43.61299" lon="1.33185">
        <ele>184.756152</ele>
        <time>2021-05-01T11:21:39.455Z</time>
      </trkpt>
      <trkpt lat="43.61311" lon="1.33174">
        <ele>184.737862</ele>
        <time>2021-05-01T11:21:42.898Z</time>
      </trkpt>
      <trkpt lat="43.61322" lon="1.33155">
        <ele>184.715388</ele>
        <time>2021-05-01T11:21:46.700Z</time>
      </trkpt>
      <trkpt lat="43.61327" lon="1.33143">
        <ele>184.702804</ele>
        <time>2021-05-01T11:21:48.576Z</time>
      </trkpt>
      <trkpt lat="43.6133" lon="1.33132">
        <ele>184.692114</ele>
        <time>2021-05-01T11:21:50.681Z</time>
      </trkpt>
      <trkpt lat="43.61331" lon="1.33113">
        <ele>184.675089</ele>
        <time>2021-05-01T11:21:53.514Z</time>
      </trkpt>
      <trkpt lat="43.6133" lon="1.33104">
        <ele>184.666314</ele>
        <time>2021-05-01T11:21:54.767Z</time>
      </trkpt>
      <trkpt lat="43.61326" lon="1.33091">
        <ele>184.656617</ele>
        <time>2021-05-01T11:21:56.918Z</time>
      </trkpt>
      <trkpt lat="43.61319" lon="1.33079">
        <ele>184.646896</ele>
        <time>2021-05-01T11:21:59.539Z</time>
      </trkpt>
      <trkpt lat="43.61313" lon="1.33073">
        <ele>184.639983</ele>
        <time>2021-05-01T11:22:00.994Z</time>
      </trkpt>
      <trkpt lat="43.61311" lon="1.33061">
        <ele>184.632374</ele>
        <time>2021-05-01T11:22:02.495Z</time>
      </trkpt>
      <trkpt lat="43.61312" lon="1.33047">
        <ele>184.623122</ele>
        <time>2021-05-01T11:22:04.627Z</time>
      </trkpt>
      <trkpt lat="43.61314" lon="1.33035">
        <ele>184.615327</ele>
        <time>2021-05-01T11:22:06.689Z</time>
      </trkpt>
      <trkpt lat="43.6132" lon="1.32998">
        <ele>184.590692</ele>
        <time>2021-05-01T11:22:12.190Z</time>
      </trkpt>
      <trkpt lat="43.61328" lon="1.32974">
        <ele>184.573197</ele>
        <time>2021-05-01T11:22:16.883Z</time>
      </trkpt>
      <trkpt lat="43.61331" lon="1.32968">
        <ele>184.568893</ele>
        <time>2021-05-01T11:22:17.899Z</time>
      </trkpt>
      <trkpt lat="43.61335" lon="1.32965">
        <ele>184.564591</ele>
        <time>2021-05-01T11:22:18.875Z</time>
      </trkpt>
      <trkpt lat="43.61342" lon="1.32948">
        <ele>184.552138</ele>
        <time>2021-05-01T11:22:22.182Z</time>
      </trkpt>
      <trkpt lat="43.61341" lon="1.32942">
        <ele>184.547822</ele>
        <time>2021-05-01T11:22:23.305Z</time>
      </trkpt>
      <trkpt lat="43.61339" lon="1.32936">
        <ele>184.543585</ele>
        <time>2021-05-01T11:22:24.480Z</time>
      </trkpt>
      <trkpt lat="43.61331" lon="1.32929">
        <ele>184.535238</ele>
        <time>2021-05-01T11:22:26.642Z</time>
      </trkpt>
      <trkpt lat="43.61327" lon="1.32928">
        <ele>184.531006</ele>
        <time>2021-05-01T11:22:27.862Z</time>
      </trkpt>
      <trkpt lat="43.61323" lon="1.32929">
        <ele>184.527198</ele>
        <time>2021-05-01T11:22:28.952Z</time>
      </trkpt>
      <trkpt lat="43.61319" lon="1.32931">
        <ele>184.523408</ele>
        <time>2021-05-01T11:22:30.014Z</time>
      </trkpt>
      <trkpt lat="43.61316" lon="1.32935">
        <ele>184.519617</ele>
        <time>2021-05-01T11:22:31.117Z</time>
      </trkpt>
      <trkpt lat="43.61303" lon="1.32922">
        <ele>184.505186</ele>
        <time>2021-05-01T11:22:35.121Z</time>
      </trkpt>
      <trkpt lat="43.613" lon="1.32899">
        <ele>184.48756</ele>
        <time>2021-05-01T11:22:39.171Z</time>
      </trkpt>
      <trkpt lat="43.6132" lon="1.3279">
        <ele>184.398984</ele>
        <time>2021-05-01T11:22:57.253Z</time>
      </trkpt>
      <trkpt lat="43.61322" lon="1.32773">
        <ele>184.385709</ele>
        <time>2021-05-01T11:22:59.767Z</time>
      </trkpt>
      <trkpt lat="43.6132" lon="1.32762">
        <ele>184.376603</ele>
        <time>2021-05-01T11:23:01.443Z</time>
      </trkpt>
      <trkpt lat="43.61319" lon="1.32752">
        <ele>184.368492</ele>
        <time>2021-05-01T11:23:03.051Z</time>
      </trkpt>
      <trkpt lat="43.61316" lon="1.32739">
        <ele>184.358412</ele>
        <time>2021-05-01T11:23:04.994Z</time>
      </trkpt>
      <trkpt lat="43.61312" lon="1.32726">
        <ele>184.346531</ele>
        <time>2021-05-01T11:23:07.232Z</time>
      </trkpt>
      <trkpt lat="43.61307" lon="1.32702">
        <ele>184.327166</ele>
        <time>2021-05-01T11:23:10.759Z</time>
      </trkpt>
      <trkpt lat="43.61301" lon="1.32688">
        <ele>184.314641</ele>
        <time>2021-05-01T11:23:13.116Z</time>
      </trkpt>
      <trkpt lat="43.61296" lon="1.3268">
        <ele>184.301052</ele>
        <time>2021-05-01T11:23:14.708Z</time>
      </trkpt>
      <trkpt lat="43.61298" lon="1.32672">
        <ele>184.278932</ele>
        <time>2021-05-01T11:23:15.970Z</time>
      </trkpt>
      <trkpt lat="43.613" lon="1.32659">
        <ele>184.248223</ele>
        <time>2021-05-01T11:23:18.260Z</time>
      </trkpt>
      <trkpt lat="43.61301" lon="1.32642">
        <ele>184.208646</ele>
        <time>2021-05-01T11:23:21.025Z</time>
      </trkpt>
      <trkpt lat="43.61301" lon="1.32636">
        <ele>184.193408</ele>
        <time>2021-05-01T11:23:22.123Z</time>
      </trkpt>
      <trkpt lat="43.61302" lon="1.32617">
        <ele>184.149156</ele>
        <time>2021-05-01T11:23:25.115Z</time>
      </trkpt>
      <trkpt lat="43.61305" lon="1.32616">
        <ele>184.137579</ele>
        <time>2021-05-01T11:23:26.104Z</time>
      </trkpt>
      <trkpt lat="43.61309" lon="1.32614">
        <ele>184.122763</ele>
        <time>2021-05-01T11:23:27.370Z</time>
      </trkpt>
      <trkpt lat="43.61318" lon="1.32611">
        <ele>184.094982</ele>
        <time>2021-05-01T11:23:29.101Z</time>
      </trkpt>
      <trkpt lat="43.61324" lon="1.32608">
        <ele>184.074042</ele>
        <time>2021-05-01T11:23:30.588Z</time>
      </trkpt>
      <trkpt lat="43.61328" lon="1.32604">
        <ele>184.056255</ele>
        <time>2021-05-01T11:23:31.728Z</time>
      </trkpt>
      <trkpt lat="43.61339" lon="1.326">
        <ele>184.020828</ele>
        <time>2021-05-01T11:23:34.166Z</time>
      </trkpt>
      <trkpt lat="43.61355" lon="1.3258">
        <ele>183.949437</ele>
        <time>2021-05-01T11:23:38.961Z</time>
      </trkpt>
      <trkpt lat="43.61359" lon="1.3257">
        <ele>183.922085</ele>
        <time>2021-05-01T11:23:40.562Z</time>
      </trkpt>
      <trkpt lat="43.61362" lon="1.32562">
        <ele>183.901899</ele>
        <time>2021-05-01T11:23:41.989Z</time>
      </trkpt>
      <trkpt lat="43.61367" lon="1.32541">
        <ele>183.847946</ele>
        <time>2021-05-01T11:23:45.292Z</time>
      </trkpt>
      <trkpt lat="43.61369" lon="1.32527">
        <ele>183.81394</ele>
        <time>2021-05-01T11:23:47.249Z</time>
      </trkpt>
      <trkpt lat="43.61369" lon="1.32523">
        <ele>183.805124</ele>
        <time>2021-05-01T11:23:47.781Z</time>
      </trkpt>
      <trkpt lat="43.6137" lon="1.32484">
        <ele>183.714834</ele>
        <time>2021-05-01T11:23:53.497Z</time>
      </trkpt>
      <trkpt lat="43.61371" lon="1.32468">
        <ele>183.696235</ele>
        <time>2021-05-01T11:23:55.766Z</time>
      </trkpt>
      <trkpt lat="43.61372" lon="1.32459">
        <ele>183.684546</ele>
        <time>2021-05-01T11:23:57.061Z</time>
      </trkpt>
      <trkpt lat="43.61374" lon="1.32448">
        <ele>183.671118</ele>
        <time>2021-05-01T11:23:58.622Z</time>
      </trkpt>
      <trkpt lat="43.61381" lon="1.32427">
        <ele>183.643549</ele>
        <time>2021-05-01T11:24:02.101Z</time>
      </trkpt>
      <trkpt lat="43.61384" lon="1.32415">
        <ele>183.627719</ele>
        <time>2021-05-01T11:24:04.110Z</time>
      </trkpt>
      <trkpt lat="43.61383" lon="1.32414">
        <ele>183.624311</ele>
        <time>2021-05-01T11:24:04.562Z</time>
      </trkpt>
      <trkpt lat="43.61361" lon="1.32351">
        <ele>183.539809</ele>
        <time>2021-05-01T11:24:19.472Z</time>
      </trkpt>
      <trkpt lat="43.61359" lon="1.32345">
        <ele>183.531638</ele>
        <time>2021-05-01T11:24:20.806Z</time>
      </trkpt>
      <trkpt lat="43.61365" lon="1.32342">
        <ele>183.520243</ele>
        <time>2021-05-01T11:24:22.627Z</time>
      </trkpt>
      <trkpt lat="43.61371" lon="1.32338">
        <ele>183.509004</ele>
        <time>2021-05-01T11:24:24.329Z</time>
      </trkpt>
      <trkpt lat="43.61366" lon="1.32321">
        <ele>183.4866</ele>
        <time>2021-05-01T11:24:27.292Z</time>
      </trkpt>
      <trkpt lat="43.61357" lon="1.32299">
        <ele>183.455523</ele>
        <time>2021-05-01T11:24:31.699Z</time>
      </trkpt>
      <trkpt lat="43.61354" lon="1.32292">
        <ele>183.445965</ele>
        <time>2021-05-01T11:24:32.837Z</time>
      </trkpt>
      <trkpt lat="43.61354" lon="1.32286">
        <ele>183.439032</ele>
        <time>2021-05-01T11:24:33.635Z</time>
      </trkpt>
      <trkpt lat="43.61354" lon="1.32282">
        <ele>183.43422</ele>
        <time>2021-05-01T11:24:34.251Z</time>
      </trkpt>
      <trkpt lat="43.61352" lon="1.32278">
        <ele>183.428855</ele>
        <time>2021-05-01T11:24:34.955Z</time>
      </trkpt>
      <trkpt lat="43.6135" lon="1.32275">
        <ele>183.423608</ele>
        <time>2021-05-01T11:24:35.742Z</time>
      </trkpt>
      <trkpt lat="43.61348" lon="1.32273">
        <ele>183.418554</ele>
        <time>2021-05-01T11:24:36.469Z</time>
      </trkpt>
      <trkpt lat="43.6133" lon="1.32264">
        <ele>183.538822</ele>
        <time>2021-05-01T11:24:40.355Z</time>
      </trkpt>
      <trkpt lat="43.61326" lon="1.32263">
        <ele>183.565381</ele>
        <time>2021-05-01T11:24:41.119Z</time>
      </trkpt>
      <trkpt lat="43.61318" lon="1.32256">
        <ele>183.629215</ele>
        <time>2021-05-01T11:24:43.542Z</time>
      </trkpt>
      <trkpt lat="43.61309" lon="1.32238">
        <ele>183.731568</ele>
        <time>2021-05-01T11:24:47.387Z</time>
      </trkpt>
      <trkpt lat="43.61308" lon="1.32231">
        <ele>183.768432</ele>
        <time>2021-05-01T11:24:48.886Z</time>
      </trkpt>
      <trkpt lat="43.61307" lon="1.32206">
        <ele>183.886639</ele>
        <time>2021-05-01T11:24:53.430Z</time>
      </trkpt>
      <trkpt lat="43.61298" lon="1.32151">
        <ele>184.156263</ele>
        <time>2021-05-01T11:25:03.705Z</time>
      </trkpt>
      <trkpt lat="43.61263" lon="1.32066">
        <ele>184.600271</ele>
        <time>2021-05-01T11:25:22.789Z</time>
      </trkpt>
      <trkpt lat="43.61254" lon="1.32045">
        <ele>184.533867</ele>
        <time>2021-05-01T11:25:27.957Z</time>
      </trkpt>
      <trkpt lat="43.61246" lon="1.32014">
        <ele>184.446076</ele>
        <time>2021-05-01T11:25:33.279Z</time>
      </trkpt>
      <trkpt lat="43.61244" lon="1.32007">
        <ele>184.424492</ele>
        <time>2021-05-01T11:25:34.755Z</time>
      </trkpt>
      <trkpt lat="43.61243" lon="1.32002">
        <ele>184.410256</ele>
        <time>2021-05-01T11:25:35.635Z</time>
      </trkpt>
      <trkpt lat="43.6124" lon="1.31978">
        <ele>184.346291</ele>
        <time>2021-05-01T11:25:39.145Z</time>
      </trkpt>
      <trkpt lat="43.61239" lon="1.31968">
        <ele>184.318714</ele>
        <time>2021-05-01T11:25:40.545Z</time>
      </trkpt>
      <trkpt lat="43.61228" lon="1.31837">
        <ele>183.963515</ele>
        <time>2021-05-01T11:25:59.613Z</time>
      </trkpt>
      <trkpt lat="43.6123" lon="1.31832">
        <ele>183.948006</ele>
        <time>2021-05-01T11:26:00.320Z</time>
      </trkpt>
      <trkpt lat="43.61235" lon="1.3183">
        <ele>183.915081</ele>
        <time>2021-05-01T11:26:01.068Z</time>
      </trkpt>
      <trkpt lat="43.6124" lon="1.3182">
        <ele>183.82952</ele>
        <time>2021-05-01T11:26:02.670Z</time>
      </trkpt>
      <trkpt lat="43.6124" lon="1.31813">
        <ele>183.771264</ele>
        <time>2021-05-01T11:26:03.680Z</time>
      </trkpt>
      <trkpt lat="43.61239" lon="1.31808">
        <ele>183.7349</ele>
        <time>2021-05-01T11:26:04.386Z</time>
      </trkpt>
      <trkpt lat="43.61237" lon="1.31802">
        <ele>183.689583</ele>
        <time>2021-05-01T11:26:05.275Z</time>
      </trkpt>
      <trkpt lat="43.61246" lon="1.31792">
        <ele>183.573368</ele>
        <time>2021-05-01T11:26:07.441Z</time>
      </trkpt>
      <trkpt lat="43.61248" lon="1.31777">
        <ele>183.45844</ele>
        <time>2021-05-01T11:26:09.682Z</time>
      </trkpt>
      <trkpt lat="43.6125" lon="1.31761">
        <ele>183.338088</ele>
        <time>2021-05-01T11:26:11.936Z</time>
      </trkpt>
      <trkpt lat="43.61253" lon="1.3174">
        <ele>183.18202</ele>
        <time>2021-05-01T11:26:14.756Z</time>
      </trkpt>
      <trkpt lat="43.61257" lon="1.31701">
        <ele>182.896354</ele>
        <time>2021-05-01T11:26:20.246Z</time>
      </trkpt>
      <trkpt lat="43.61259" lon="1.31634">
        <ele>182.403599</ele>
        <time>2021-05-01T11:26:29.471Z</time>
      </trkpt>
      <trkpt lat="43.61258" lon="1.31611">
        <ele>182.235056</ele>
        <time>2021-05-01T11:26:32.691Z</time>
      </trkpt>
      <trkpt lat="43.61254" lon="1.31584">
        <ele>182.10645</ele>
        <time>2021-05-01T11:26:36.961Z</time>
      </trkpt>
      <trkpt lat="43.61231" lon="1.31445">
        <ele>181.97006</ele>
        <time>2021-05-01T11:27:00.020Z</time>
      </trkpt>
      <trkpt lat="43.61237" lon="1.31298">
        <ele>181.918237</ele>
        <time>2021-05-01T11:27:23.711Z</time>
      </trkpt>
      <trkpt lat="43.61238" lon="1.31288">
        <ele>181.925657</ele>
        <time>2021-05-01T11:27:25.163Z</time>
      </trkpt>
      <trkpt lat="43.61239" lon="1.31279">
        <ele>181.932409</ele>
        <time>2021-05-01T11:27:26.726Z</time>
      </trkpt>
      <trkpt lat="43.61243" lon="1.31194">
        <ele>181.99389</ele>
        <time>2021-05-01T11:27:40.741Z</time>
      </trkpt>
      <trkpt lat="43.61243" lon="1.31165">
        <ele>182.015446</ele>
        <time>2021-05-01T11:27:45.682Z</time>
      </trkpt>
      <trkpt lat="43.61241" lon="1.31106">
        <ele>182.057871</ele>
        <time>2021-05-01T11:27:55.400Z</time>
      </trkpt>
      <trkpt lat="43.61241" lon="1.31084">
        <ele>182.082118</ele>
        <time>2021-05-01T11:27:59.101Z</time>
      </trkpt>
      <trkpt lat="43.61248" lon="1.31056">
        <ele>182.117305</ele>
        <time>2021-05-01T11:28:04.043Z</time>
      </trkpt>
      <trkpt lat="43.61253" lon="1.31042">
        <ele>182.135564</ele>
        <time>2021-05-01T11:28:06.913Z</time>
      </trkpt>
      <trkpt lat="43.61256" lon="1.31034">
        <ele>182.145647</ele>
        <time>2021-05-01T11:28:08.331Z</time>
      </trkpt>
      <trkpt lat="43.61258" lon="1.31031">
        <ele>182.150395</ele>
        <time>2021-05-01T11:28:09.011Z</time>
      </trkpt>
      <trkpt lat="43.61276" lon="1.30982">
        <ele>182.214704</ele>
        <time>2021-05-01T11:28:18.160Z</time>
      </trkpt>
      <trkpt lat="43.61284" lon="1.30962">
        <ele>182.240585</ele>
        <time>2021-05-01T11:28:21.799Z</time>
      </trkpt>
      <trkpt lat="43.6129" lon="1.30944">
        <ele>182.264067</ele>
        <time>2021-05-01T11:28:25.396Z</time>
      </trkpt>
      <trkpt lat="43.61275" lon="1.30929">
        <ele>182.294195</ele>
        <time>2021-05-01T11:28:29.577Z</time>
      </trkpt>
      <trkpt lat="43.61278" lon="1.30925">
        <ele>182.300603</ele>
        <time>2021-05-01T11:28:30.624Z</time>
      </trkpt>
      <trkpt lat="43.61281" lon="1.30921">
        <ele>182.307379</ele>
        <time>2021-05-01T11:28:31.694Z</time>
      </trkpt>
      <trkpt lat="43.61284" lon="1.3091">
        <ele>182.321327</ele>
        <time>2021-05-01T11:28:33.704Z</time>
      </trkpt>
      <trkpt lat="43.61285" lon="1.30899">
        <ele>182.334251</ele>
        <time>2021-05-01T11:28:35.409Z</time>
      </trkpt>
      <trkpt lat="43.61284" lon="1.30889">
        <ele>182.345912</ele>
        <time>2021-05-01T11:28:36.873Z</time>
      </trkpt>
      <trkpt lat="43.6128" lon="1.3088">
        <ele>182.34463</ele>
        <time>2021-05-01T11:28:38.633Z</time>
      </trkpt>
      <trkpt lat="43.61277" lon="1.30875">
        <ele>182.338215</ele>
        <time>2021-05-01T11:28:39.998Z</time>
      </trkpt>
      <trkpt lat="43.61273" lon="1.30871">
        <ele>182.332697</ele>
        <time>2021-05-01T11:28:40.996Z</time>
      </trkpt>
      <trkpt lat="43.61267" lon="1.30867">
        <ele>182.325193</ele>
        <time>2021-05-01T11:28:42.440Z</time>
      </trkpt>
      <trkpt lat="43.61263" lon="1.30866">
        <ele>182.319493</ele>
        <time>2021-05-01T11:28:43.425Z</time>
      </trkpt>
      <trkpt lat="43.6126" lon="1.30865">
        <ele>182.316518</ele>
        <time>2021-05-01T11:28:43.901Z</time>
      </trkpt>
      <trkpt lat="43.61258" lon="1.30865">
        <ele>182.313554</ele>
        <time>2021-05-01T11:28:44.441Z</time>
      </trkpt>
      <trkpt lat="43.61255" lon="1.30866">
        <ele>182.310429</ele>
        <time>2021-05-01T11:28:44.952Z</time>
      </trkpt>
      <trkpt lat="43.61256" lon="1.30855">
        <ele>182.300504</ele>
        <time>2021-05-01T11:28:46.910Z</time>
      </trkpt>
      <trkpt lat="43.61257" lon="1.30853">
        <ele>182.298418</ele>
        <time>2021-05-01T11:28:47.331Z</time>
      </trkpt>
      <trkpt lat="43.6127" lon="1.30824">
        <ele>182.270085</ele>
        <time>2021-05-01T11:28:52.382Z</time>
      </trkpt>
      <trkpt lat="43.61272" lon="1.3082">
        <ele>182.265914</ele>
        <time>2021-05-01T11:28:53.118Z</time>
      </trkpt>
      <trkpt lat="43.61274" lon="1.30817">
        <ele>182.26181</ele>
        <time>2021-05-01T11:28:53.937Z</time>
      </trkpt>
      <trkpt lat="43.61321" lon="1.30736">
        <ele>182.173104</ele>
        <time>2021-05-01T11:29:10.769Z</time>
      </trkpt>
      <trkpt lat="43.61323" lon="1.30719">
        <ele>182.158301</ele>
        <time>2021-05-01T11:29:13.545Z</time>
      </trkpt>
      <trkpt lat="43.61324" lon="1.30706">
        <ele>182.147037</ele>
        <time>2021-05-01T11:29:15.620Z</time>
      </trkpt>
      <trkpt lat="43.61327" lon="1.30693">
        <ele>182.13552</ele>
        <time>2021-05-01T11:29:17.908Z</time>
      </trkpt>
      <trkpt lat="43.6133" lon="1.30685">
        <ele>182.129563</ele>
        <time>2021-05-01T11:29:19.402Z</time>
      </trkpt>
      <trkpt lat="43.61337" lon="1.30677">
        <ele>182.121033</ele>
        <time>2021-05-01T11:29:21.485Z</time>
      </trkpt>
      <trkpt lat="43.61342" lon="1.30672">
        <ele>182.115126</ele>
        <time>2021-05-01T11:29:22.962Z</time>
      </trkpt>
      <trkpt lat="43.61346" lon="1.30663">
        <ele>182.107702</ele>
        <time>2021-05-01T11:29:24.747Z</time>
      </trkpt>
      <trkpt lat="43.61376" lon="1.30565">
        <ele>182.034487</ele>
        <time>2021-05-01T11:29:42.338Z</time>
      </trkpt>
      <trkpt lat="43.61424" lon="1.30288">
        <ele>181.638421</ele>
        <time>2021-05-01T11:30:29.951Z</time>
      </trkpt>
      <trkpt lat="43.61427" lon="1.30273">
        <ele>181.610863</ele>
        <time>2021-05-01T11:30:32.514Z</time>
      </trkpt>
      <trkpt lat="43.61427" lon="1.30267">
        <ele>181.600231</ele>
        <time>2021-05-01T11:30:33.471Z</time>
      </trkpt>
      <trkpt lat="43.6142" lon="1.30236">
        <ele>181.543697</ele>
        <time>2021-05-01T11:30:38.468Z</time>
      </trkpt>
      <trkpt lat="43.61421" lon="1.30229">
        <ele>181.529944</ele>
        <time>2021-05-01T11:30:39.745Z</time>
      </trkpt>
      <trkpt lat="43.61424" lon="1.30221">
        <ele>181.382991</ele>
        <time>2021-05-01T11:30:41.121Z</time>
      </trkpt>
      <trkpt lat="43.61433" lon="1.30212">
        <ele>181.063074</ele>
        <time>2021-05-01T11:30:43.515Z</time>
      </trkpt>
      <trkpt lat="43.6144" lon="1.30205">
        <ele>180.831689</ele>
        <time>2021-05-01T11:30:45.205Z</time>
      </trkpt>
      <trkpt lat="43.61443" lon="1.3019">
        <ele>180.497432</ele>
        <time>2021-05-01T11:30:47.711Z</time>
      </trkpt>
      <trkpt lat="43.61444" lon="1.30018">
        <ele>176.942571</ele>
        <time>2021-05-01T11:31:09.517Z</time>
      </trkpt>
      <trkpt lat="43.61459" lon="1.2992">
        <ele>173.018388</ele>
        <time>2021-05-01T11:31:20.660Z</time>
      </trkpt>
      <trkpt lat="43.61462" lon="1.29903">
        <ele>172.208734</ele>
        <time>2021-05-01T11:31:22.539Z</time>
      </trkpt>
      <trkpt lat="43.61463" lon="1.29896">
        <ele>171.853555</ele>
        <time>2021-05-01T11:31:23.288Z</time>
      </trkpt>
      <trkpt lat="43.61466" lon="1.29874">
        <ele>170.823504</ele>
        <time>2021-05-01T11:31:25.870Z</time>
      </trkpt>
      <trkpt lat="43.61506" lon="1.29782">
        <ele>165.799501</ele>
        <time>2021-05-01T11:31:37.618Z</time>
      </trkpt>
      <trkpt lat="43.61514" lon="1.29752">
        <ele>164.609653</ele>
        <time>2021-05-01T11:31:41.036Z</time>
      </trkpt>
      <trkpt lat="43.61523" lon="1.29717">
        <ele>163.781915</ele>
        <time>2021-05-01T11:31:45.033Z</time>
      </trkpt>
      <trkpt lat="43.61524" lon="1.2971">
        <ele>163.61154</ele>
        <time>2021-05-01T11:31:46.013Z</time>
      </trkpt>
      <trkpt lat="43.61526" lon="1.29699">
        <ele>163.364656</ele>
        <time>2021-05-01T11:31:47.386Z</time>
      </trkpt>
      <trkpt lat="43.61529" lon="1.29679">
        <ele>162.910756</ele>
        <time>2021-05-01T11:31:49.846Z</time>
      </trkpt>
      <trkpt lat="43.61549" lon="1.29528">
        <ele>159.4966</ele>
        <time>2021-05-01T11:32:10.334Z</time>
      </trkpt>
      <trkpt lat="43.61565" lon="1.29438">
        <ele>159.412064</ele>
        <time>2021-05-01T11:32:27.359Z</time>
      </trkpt>
      <trkpt lat="43.61566" lon="1.29431">
        <ele>159.420362</ele>
        <time>2021-05-01T11:32:29.083Z</time>
      </trkpt>
      <trkpt lat="43.61566" lon="1.29431">
        <ele>159.421183</ele>
        <time>2021-05-01T11:32:29.155Z</time>
      </trkpt>
      <trkpt lat="43.61594" lon="1.29206">
        <ele>159.731269</ele>
        <time>2021-05-01T11:33:09.740Z</time>
      </trkpt>
      <trkpt lat="43.61614" lon="1.29079">
        <ele>159.968873</ele>
        <time>2021-05-01T11:33:32.075Z</time>
      </trkpt>
      <trkpt lat="43.61601" lon="1.29075">
        <ele>160.002084</ele>
        <time>2021-05-01T11:33:35.028Z</time>
      </trkpt>
      <trkpt lat="43.61576" lon="1.29067">
        <ele>160.087017</ele>
        <time>2021-05-01T11:33:41.313Z</time>
      </trkpt>
      <trkpt lat="43.61558" lon="1.29058">
        <ele>160.196576</ele>
        <time>2021-05-01T11:33:45.831Z</time>
      </trkpt>
      <trkpt lat="43.6154" lon="1.29048">
        <ele>160.306752</ele>
        <time>2021-05-01T11:33:50.595Z</time>
      </trkpt>
      <trkpt lat="43.61524" lon="1.29037">
        <ele>160.412561</ele>
        <time>2021-05-01T11:33:55.043Z</time>
      </trkpt>
      <trkpt lat="43.615" lon="1.29017">
        <ele>160.575374</ele>
        <time>2021-05-01T11:34:01.903Z</time>
      </trkpt>
      <trkpt lat="43.61427" lon="1.28961">
        <ele>161.057995</ele>
        <time>2021-05-01T11:34:22.479Z</time>
      </trkpt>
      <trkpt lat="43.61412" lon="1.2895">
        <ele>161.166457</ele>
        <time>2021-05-01T11:34:26.748Z</time>
      </trkpt>
      <trkpt lat="43.61353" lon="1.28914">
        <ele>161.604035</ele>
        <time>2021-05-01T11:34:43.266Z</time>
      </trkpt>
      <trkpt lat="43.61319" lon="1.28892">
        <ele>161.861999</ele>
        <time>2021-05-01T11:34:52.883Z</time>
      </trkpt>
      <trkpt lat="43.61235" lon="1.28843">
        <ele>162.380831</ele>
        <time>2021-05-01T11:35:15.370Z</time>
      </trkpt>
      <trkpt lat="43.61075" lon="1.28733">
        <ele>162.923601</ele>
        <time>2021-05-01T11:36:22.635Z</time>
      </trkpt>
      <trkpt lat="43.61073" lon="1.28731">
        <ele>162.940155</ele>
        <time>2021-05-01T11:36:23.670Z</time>
      </trkpt>
      <trkpt lat="43.61075" lon="1.28726">
        <ele>162.96282</ele>
        <time>2021-05-01T11:36:24.577Z</time>
      </trkpt>
      <trkpt lat="43.61073" lon="1.28717">
        <ele>163.003864</ele>
        <time>2021-05-01T11:36:26.137Z</time>
      </trkpt>
      <trkpt lat="43.6107" lon="1.28714">
        <ele>163.026438</ele>
        <time>2021-05-01T11:36:27.040Z</time>
      </trkpt>
      <trkpt lat="43.61067" lon="1.28714">
        <ele>163.043268</ele>
        <time>2021-05-01T11:36:27.671Z</time>
      </trkpt>
      <trkpt lat="43.61062" lon="1.28716">
        <ele>163.075119</ele>
        <time>2021-05-01T11:36:28.882Z</time>
      </trkpt>
      <trkpt lat="43.61061" lon="1.28718">
        <ele>163.086776</ele>
        <time>2021-05-01T11:36:29.318Z</time>
      </trkpt>
      <trkpt lat="43.61053" lon="1.28711">
        <ele>163.143744</ele>
        <time>2021-05-01T11:36:31.516Z</time>
      </trkpt>
      <trkpt lat="43.61031" lon="1.28686">
        <ele>163.31832</ele>
        <time>2021-05-01T11:36:38.197Z</time>
      </trkpt>
      <trkpt lat="43.61016" lon="1.28657">
        <ele>163.472371</ele>
        <time>2021-05-01T11:36:44.870Z</time>
      </trkpt>
      <trkpt lat="43.61008" lon="1.28637">
        <ele>163.572826</ele>
        <time>2021-05-01T11:36:48.729Z</time>
      </trkpt>
      <trkpt lat="43.61004" lon="1.28621">
        <ele>163.650632</ele>
        <time>2021-05-01T11:36:52.204Z</time>
      </trkpt>
      <trkpt lat="43.60996" lon="1.2859">
        <ele>163.79317</ele>
        <time>2021-05-01T11:36:58.181Z</time>
      </trkpt>
      <trkpt lat="43.60994" lon="1.28562">
        <ele>163.976075</ele>
        <time>2021-05-01T11:37:04.071Z</time>
      </trkpt>
      <trkpt lat="43.60996" lon="1.28549">
        <ele>164.114754</ele>
        <time>2021-05-01T11:37:06.311Z</time>
      </trkpt>
      <trkpt lat="43.60998" lon="1.28522">
        <ele>164.403535</ele>
        <time>2021-05-01T11:37:11.948Z</time>
      </trkpt>
      <trkpt lat="43.61003" lon="1.28491">
        <ele>164.743863</ele>
        <time>2021-05-01T11:37:17.874Z</time>
      </trkpt>
      <trkpt lat="43.61006" lon="1.28477">
        <ele>164.903867</ele>
        <time>2021-05-01T11:37:21.062Z</time>
      </trkpt>
      <trkpt lat="43.61002" lon="1.28474">
        <ele>164.976206</ele>
        <time>2021-05-01T11:37:23.327Z</time>
      </trkpt>
      <trkpt lat="43.60991" lon="1.28437">
        <ele>165.402862</ele>
        <time>2021-05-01T11:37:35.477Z</time>
      </trkpt>
      <trkpt lat="43.60969" lon="1.28428">
        <ele>165.742027</ele>
        <time>2021-05-01T11:37:45.005Z</time>
      </trkpt>
      <trkpt lat="43.6096" lon="1.28431">
        <ele>165.883695</ele>
        <time>2021-05-01T11:37:49.345Z</time>
      </trkpt>
      <trkpt lat="43.6096" lon="1.28429">
        <ele>165.900104</ele>
        <time>2021-05-01T11:37:49.825Z</time>
      </trkpt>
      <trkpt lat="43.60958" lon="1.28418">
        <ele>166.017089</ele>
        <time>2021-05-01T11:37:53.404Z</time>
      </trkpt>
      <trkpt lat="43.6097" lon="1.28419">
        <ele>166.197001</ele>
        <time>2021-05-01T11:37:56.425Z</time>
      </trkpt>
      <trkpt lat="43.60971" lon="1.28413">
        <ele>166.259468</ele>
        <time>2021-05-01T11:37:58.264Z</time>
      </trkpt>
      <trkpt lat="43.60973" lon="1.28386">
        <ele>166.566713</ele>
        <time>2021-05-01T11:38:07.699Z</time>
      </trkpt>
      <trkpt lat="43.60977" lon="1.2834">
        <ele>167.625766</ele>
        <time>2021-05-01T11:38:22.655Z</time>
      </trkpt>
      <trkpt lat="43.60981" lon="1.28284">
        <ele>168.918733</ele>
        <time>2021-05-01T11:38:36.269Z</time>
      </trkpt>
      <trkpt lat="43.60982" lon="1.282">
        <ele>170.852492</ele>
        <time>2021-05-01T11:38:59.064Z</time>
      </trkpt>
      <trkpt lat="43.60978" lon="1.28192">
        <ele>171.077988</ele>
        <time>2021-05-01T11:39:01.718Z</time>
      </trkpt>
      <trkpt lat="43.60976" lon="1.28187">
        <ele>171.217815</ele>
        <time>2021-05-01T11:39:03.899Z</time>
      </trkpt>
      <trkpt lat="43.60975" lon="1.28185">
        <ele>171.264768</ele>
        <time>2021-05-01T11:39:04.615Z</time>
      </trkpt>
      <trkpt lat="43.60974" lon="1.28175">
        <ele>171.486456</ele>
        <time>2021-05-01T11:39:08.292Z</time>
      </trkpt>
      <trkpt lat="43.6098" lon="1.28166">
        <ele>171.776635</ele>
        <time>2021-05-01T11:39:13.238Z</time>
      </trkpt>
      <trkpt lat="43.60978" lon="1.28119">
        <ele>173.12426</ele>
        <time>2021-05-01T11:39:27.167Z</time>
      </trkpt>
      <trkpt lat="43.60974" lon="1.28087">
        <ele>174.23406</ele>
        <time>2021-05-01T11:39:37.403Z</time>
      </trkpt>
      <trkpt lat="43.60972" lon="1.28064">
        <ele>174.991082</ele>
        <time>2021-05-01T11:39:44.560Z</time>
      </trkpt>
      <trkpt lat="43.60971" lon="1.27973">
        <ele>178.055229</ele>
        <time>2021-05-01T11:40:13.182Z</time>
      </trkpt>
      <trkpt lat="43.6097" lon="1.27937">
        <ele>179.268017</ele>
        <time>2021-05-01T11:40:24.488Z</time>
      </trkpt>
      <trkpt lat="43.6097" lon="1.27877">
        <ele>181.048321</ele>
        <time>2021-05-01T11:40:42.891Z</time>
      </trkpt>
      <trkpt lat="43.60986" lon="1.27734">
        <ele>184.111226</ele>
        <time>2021-05-01T11:41:20.367Z</time>
      </trkpt>
      <trkpt lat="43.60988" lon="1.27671">
        <ele>185.452368</ele>
        <time>2021-05-01T11:41:34.504Z</time>
      </trkpt>
      <trkpt lat="43.60987" lon="1.27542">
        <ele>186.895224</ele>
        <time>2021-05-01T11:42:01.490Z</time>
      </trkpt>
      <trkpt lat="43.60976" lon="1.27449">
        <ele>187.771699</ele>
        <time>2021-05-01T11:42:20.637Z</time>
      </trkpt>
      <trkpt lat="43.60968" lon="1.27413">
        <ele>188.116564</ele>
        <time>2021-05-01T11:42:27.765Z</time>
      </trkpt>
      <trkpt lat="43.60967" lon="1.27405">
        <ele>188.193608</ele>
        <time>2021-05-01T11:42:29.718Z</time>
      </trkpt>
      <trkpt lat="43.60933" lon="1.27252">
        <ele>189.000464</ele>
        <time>2021-05-01T11:43:00.478Z</time>
      </trkpt>
      <trkpt lat="43.60932" lon="1.27247">
        <ele>189.024684</ele>
        <time>2021-05-01T11:43:01.353Z</time>
      </trkpt>
      <trkpt lat="43.60925" lon="1.27234">
        <ele>189.107219</ele>
        <time>2021-05-01T11:43:04.335Z</time>
      </trkpt>
      <trkpt lat="43.60926" lon="1.27232">
        <ele>189.125359</ele>
        <time>2021-05-01T11:43:04.953Z</time>
      </trkpt>
      <trkpt lat="43.60928" lon="1.27227">
        <ele>189.149542</ele>
        <time>2021-05-01T11:43:05.783Z</time>
      </trkpt>
      <trkpt lat="43.60927" lon="1.27223">
        <ele>189.172404</ele>
        <time>2021-05-01T11:43:06.709Z</time>
      </trkpt>
      <trkpt lat="43.60926" lon="1.27219">
        <ele>189.190908</ele>
        <time>2021-05-01T11:43:07.480Z</time>
      </trkpt>
      <trkpt lat="43.60929" lon="1.27215">
        <ele>189.219601</ele>
        <time>2021-05-01T11:43:08.496Z</time>
      </trkpt>
      <trkpt lat="43.6092" lon="1.27185">
        <ele>189.386573</ele>
        <time>2021-05-01T11:43:14.320Z</time>
      </trkpt>
      <trkpt lat="43.60855" lon="1.2698">
        <ele>189.464586</ele>
        <time>2021-05-01T11:43:50.338Z</time>
      </trkpt>
      <trkpt lat="43.60842" lon="1.26927">
        <ele>189.443454</ele>
        <time>2021-05-01T11:43:59.198Z</time>
      </trkpt>
      <trkpt lat="43.6084" lon="1.26927">
        <ele>189.43986</ele>
        <time>2021-05-01T11:43:59.689Z</time>
      </trkpt>
      <trkpt lat="43.60835" lon="1.26922">
        <ele>189.429125</ele>
        <time>2021-05-01T11:44:01.076Z</time>
      </trkpt>
      <trkpt lat="43.60834" lon="1.26919">
        <ele>189.4253</ele>
        <time>2021-05-01T11:44:01.606Z</time>
      </trkpt>
      <trkpt lat="43.60834" lon="1.26916">
        <ele>189.421352</ele>
        <time>2021-05-01T11:44:02.113Z</time>
      </trkpt>
      <trkpt lat="43.60838" lon="1.26909">
        <ele>189.409868</ele>
        <time>2021-05-01T11:44:03.685Z</time>
      </trkpt>
      <trkpt lat="43.60839" lon="1.26909">
        <ele>189.408292</ele>
        <time>2021-05-01T11:44:03.896Z</time>
      </trkpt>
      <trkpt lat="43.60819" lon="1.26824">
        <ele>189.298582</ele>
        <time>2021-05-01T11:44:26.897Z</time>
      </trkpt>
      <trkpt lat="43.60812" lon="1.26818">
        <ele>189.283994</ele>
        <time>2021-05-01T11:44:29.886Z</time>
      </trkpt>
      <trkpt lat="43.60809" lon="1.26815">
        <ele>189.277703</ele>
        <time>2021-05-01T11:44:31.154Z</time>
      </trkpt>
      <trkpt lat="43.60815" lon="1.26797">
        <ele>189.252063</ele>
        <time>2021-05-01T11:44:34.388Z</time>
      </trkpt>
      <trkpt lat="43.60792" lon="1.26686">
        <ele>189.358453</ele>
        <time>2021-05-01T11:44:54.128Z</time>
      </trkpt>
      <trkpt lat="43.60779" lon="1.26622">
        <ele>189.672749</ele>
        <time>2021-05-01T11:45:06.597Z</time>
      </trkpt>
      <trkpt lat="43.60771" lon="1.2658">
        <ele>189.878389</ele>
        <time>2021-05-01T11:45:14.640Z</time>
      </trkpt>
      <trkpt lat="43.60765" lon="1.26547">
        <ele>190.039149</ele>
        <time>2021-05-01T11:45:21.190Z</time>
      </trkpt>
      <trkpt lat="43.60757" lon="1.26505">
        <ele>190.243306</ele>
        <time>2021-05-01T11:45:29.628Z</time>
      </trkpt>
      <trkpt lat="43.60746" lon="1.26448">
        <ele>190.708246</ele>
        <time>2021-05-01T11:45:41.449Z</time>
      </trkpt>
      <trkpt lat="43.60735" lon="1.2639">
        <ele>191.266198</ele>
        <time>2021-05-01T11:45:54.102Z</time>
      </trkpt>
      <trkpt lat="43.60728" lon="1.2635">
        <ele>191.646934</ele>
        <time>2021-05-01T11:46:02.786Z</time>
      </trkpt>
      <trkpt lat="43.60721" lon="1.26323">
        <ele>191.916791</ele>
        <time>2021-05-01T11:46:09.151Z</time>
      </trkpt>
      <trkpt lat="43.60714" lon="1.26299">
        <ele>192.161252</ele>
        <time>2021-05-01T11:46:14.379Z</time>
      </trkpt>
      <trkpt lat="43.60671" lon="1.26157">
        <ele>193.233703</ele>
        <time>2021-05-01T11:46:44.720Z</time>
      </trkpt>
      <trkpt lat="43.60671" lon="1.26148">
        <ele>193.287215</ele>
        <time>2021-05-01T11:46:46.672Z</time>
      </trkpt>
      <trkpt lat="43.60667" lon="1.26142">
        <ele>193.337955</ele>
        <time>2021-05-01T11:46:48.506Z</time>
      </trkpt>
      <trkpt lat="43.60641" lon="1.26048">
        <ele>193.919724</ele>
        <time>2021-05-01T11:47:07.238Z</time>
      </trkpt>
      <trkpt lat="43.60629" lon="1.26006">
        <ele>194.085903</ele>
        <time>2021-05-01T11:47:15.428Z</time>
      </trkpt>
      <trkpt lat="43.6061" lon="1.25946">
        <ele>194.087026</ele>
        <time>2021-05-01T11:47:26.839Z</time>
      </trkpt>
      <trkpt lat="43.60551" lon="1.25773">
        <ele>194.131434</ele>
        <time>2021-05-01T11:47:57.785Z</time>
      </trkpt>
      <trkpt lat="43.60479" lon="1.256">
        <ele>194.460845</ele>
        <time>2021-05-01T11:48:32.231Z</time>
      </trkpt>
      <trkpt lat="43.60477" lon="1.25594">
        <ele>194.472113</ele>
        <time>2021-05-01T11:48:33.630Z</time>
      </trkpt>
      <trkpt lat="43.60474" lon="1.25588">
        <ele>194.484503</ele>
        <time>2021-05-01T11:48:35.072Z</time>
      </trkpt>
      <trkpt lat="43.60467" lon="1.25564">
        <ele>194.592531</ele>
        <time>2021-05-01T11:48:39.701Z</time>
      </trkpt>
      <trkpt lat="43.60465" lon="1.25559">
        <ele>194.625373</ele>
        <time>2021-05-01T11:48:40.905Z</time>
      </trkpt>
      <trkpt lat="43.60451" lon="1.25514">
        <ele>194.918458</ele>
        <time>2021-05-01T11:48:50.932Z</time>
      </trkpt>
      <trkpt lat="43.60425" lon="1.25432">
        <ele>195.447101</ele>
        <time>2021-05-01T11:49:08.818Z</time>
      </trkpt>
      <trkpt lat="43.60403" lon="1.25385">
        <ele>195.776853</ele>
        <time>2021-05-01T11:49:19.501Z</time>
      </trkpt>
      <trkpt lat="43.60396" lon="1.25369">
        <ele>195.882799</ele>
        <time>2021-05-01T11:49:23.083Z</time>
      </trkpt>
      <trkpt lat="43.60393" lon="1.25362">
        <ele>195.933315</ele>
        <time>2021-05-01T11:49:24.542Z</time>
      </trkpt>
      <trkpt lat="43.60384" lon="1.25339">
        <ele>195.954816</ele>
        <time>2021-05-01T11:49:29.404Z</time>
      </trkpt>
      <trkpt lat="43.60381" lon="1.25328">
        <ele>195.947417</ele>
        <time>2021-05-01T11:49:31.464Z</time>
      </trkpt>
      <trkpt lat="43.60379" lon="1.25322">
        <ele>195.942789</ele>
        <time>2021-05-01T11:49:32.669Z</time>
      </trkpt>
      <trkpt lat="43.60363" lon="1.25266">
        <ele>195.903749</ele>
        <time>2021-05-01T11:49:42.843Z</time>
      </trkpt>
      <trkpt lat="43.60358" lon="1.25248">
        <ele>195.891276</ele>
        <time>2021-05-01T11:49:46.020Z</time>
      </trkpt>
      <trkpt lat="43.60354" lon="1.25238">
        <ele>195.883842</ele>
        <time>2021-05-01T11:49:47.927Z</time>
      </trkpt>
      <trkpt lat="43.60329" lon="1.25182">
        <ele>195.840627</ele>
        <time>2021-05-01T11:49:58.568Z</time>
      </trkpt>
      <trkpt lat="43.60241" lon="1.25018">
        <ele>195.412814</ele>
        <time>2021-05-01T11:50:29.480Z</time>
      </trkpt>
      <trkpt lat="43.60153" lon="1.24877">
        <ele>195.321686</ele>
        <time>2021-05-01T11:51:01.061Z</time>
      </trkpt>
      <trkpt lat="43.60157" lon="1.24872">
        <ele>195.334851</ele>
        <time>2021-05-01T11:51:02.154Z</time>
      </trkpt>
      <trkpt lat="43.60152" lon="1.24863">
        <ele>195.354376</ele>
        <time>2021-05-01T11:51:03.909Z</time>
      </trkpt>
      <trkpt lat="43.6014" lon="1.2484">
        <ele>195.407543</ele>
        <time>2021-05-01T11:51:08.985Z</time>
      </trkpt>
      <trkpt lat="43.60131" lon="1.24827">
        <ele>195.441918</ele>
        <time>2021-05-01T11:51:11.939Z</time>
      </trkpt>
      <trkpt lat="43.60117" lon="1.24823">
        <ele>195.478816</ele>
        <time>2021-05-01T11:51:15.433Z</time>
      </trkpt>
      <trkpt lat="43.60107" lon="1.24826">
        <ele>195.504397</ele>
        <time>2021-05-01T11:51:17.929Z</time>
      </trkpt>
      <trkpt lat="43.60105" lon="1.24819">
        <ele>195.518425</ele>
        <time>2021-05-01T11:51:19.069Z</time>
      </trkpt>
      <trkpt lat="43.60101" lon="1.24813">
        <ele>195.53245</ele>
        <time>2021-05-01T11:51:20.366Z</time>
      </trkpt>
      <trkpt lat="43.60093" lon="1.24801">
        <ele>195.564035</ele>
        <time>2021-05-01T11:51:23.361Z</time>
      </trkpt>
      <trkpt lat="43.60089" lon="1.24792">
        <ele>195.583306</ele>
        <time>2021-05-01T11:51:25.300Z</time>
      </trkpt>
      <trkpt lat="43.60089" lon="1.24786">
        <ele>195.593527</ele>
        <time>2021-05-01T11:51:26.291Z</time>
      </trkpt>
      <trkpt lat="43.60087" lon="1.24767">
        <ele>195.652859</ele>
        <time>2021-05-01T11:51:29.548Z</time>
      </trkpt>
      <trkpt lat="43.60084" lon="1.24736">
        <ele>195.821924</ele>
        <time>2021-05-01T11:51:35.187Z</time>
      </trkpt>
      <trkpt lat="43.60078" lon="1.24738">
        <ele>195.86495</ele>
        <time>2021-05-01T11:51:36.791Z</time>
      </trkpt>
      <trkpt lat="43.60075" lon="1.24739">
        <ele>195.889071</ele>
        <time>2021-05-01T11:51:37.783Z</time>
      </trkpt>
      <trkpt lat="43.60074" lon="1.24728">
        <ele>195.948891</ele>
        <time>2021-05-01T11:51:39.814Z</time>
      </trkpt>
      <trkpt lat="43.60033" lon="1.24476">
        <ele>197.204751</ele>
        <time>2021-05-01T11:52:29.716Z</time>
      </trkpt>
      <trkpt lat="43.60033" lon="1.24474">
        <ele>197.211971</ele>
        <time>2021-05-01T11:52:30.416Z</time>
      </trkpt>
      <trkpt lat="43.60027" lon="1.2447">
        <ele>197.240568</ele>
        <time>2021-05-01T11:52:32.222Z</time>
      </trkpt>
      <trkpt lat="43.60017" lon="1.24473">
        <ele>197.287141</ele>
        <time>2021-05-01T11:52:34.766Z</time>
      </trkpt>
      <trkpt lat="43.59992" lon="1.24476">
        <ele>197.396234</ele>
        <time>2021-05-01T11:52:41.191Z</time>
      </trkpt>
      <trkpt lat="43.59987" lon="1.24476">
        <ele>197.420736</ele>
        <time>2021-05-01T11:52:42.518Z</time>
      </trkpt>
      <trkpt lat="43.59938" lon="1.24482">
        <ele>197.640533</ele>
        <time>2021-05-01T11:52:54.087Z</time>
      </trkpt>
      <trkpt lat="43.59935" lon="1.24482">
        <ele>197.65377</ele>
        <time>2021-05-01T11:52:54.829Z</time>
      </trkpt>
      <trkpt lat="43.59909" lon="1.24569">
        <ele>197.778944</ele>
        <time>2021-05-01T11:53:10.454Z</time>
      </trkpt>
      <trkpt lat="43.59917" lon="1.24584">
        <ele>197.778944</ele>
        <time>2021-05-01T11:53:13.448Z</time>
      </trkpt>
      <trkpt lat="43.5992" lon="1.24586">
        <ele>197.778944</ele>
        <time>2021-05-01T11:53:14.052Z</time>
      </trkpt>
      <trkpt lat="43.59946" lon="1.24641">
        <ele>197.778944</ele>
        <time>2021-05-01T11:53:24.099Z</time>
      </trkpt>
      <trkpt lat="43.59963" lon="1.24678">
        <ele>197.778944</ele>
        <time>2021-05-01T11:53:30.803Z</time>
      </trkpt>
      <trkpt lat="43.59979" lon="1.24669">
        <ele>197.778944</ele>
        <time>2021-05-01T11:53:34.432Z</time>
      </trkpt>
    </trkseg>
  </trk>
</gpx>